<?xml version='1.0' encoding='UTF-8'?><gpx version="1.1" creator="JPX - https://github.com/jenetics/jpx" xmlns="http://www.topografix.com/GPX/1/1"><trk><trkseg><trkpt lat="44.771622978907295" lon="8.358798349341638"><ele>138.0</ele><time>2026-04-27T07:43:12Z</time></trkpt><trkpt lat="44.77154004096114" lon="8.35877651847882"><ele>138.0</ele><time>2026-04-27T07:43:13Z</time></trkpt><trkpt lat="44.7714487277509" lon="8.358746496074282"><ele>138.0</ele><time>2026-04-27T07:43:14Z</time></trkpt><trkpt lat="44.771338903652364" lon="8.358711129136662"><ele>138.0</ele><time>2026-04-27T07:43:15Z</time></trkpt><trkpt lat="44.771227063428086" lon="8.35867485179503"><ele>138.0</ele><time>2026-04-27T07:43:16Z</time></trkpt><trkpt lat="44.77111147933422" lon="8.358647938286566"><ele>137.75</ele><time>2026-04-27T07:43:17Z</time></trkpt><trkpt lat="44.770989747337396" lon="8.358563725999934"><ele>137.5</ele><time>2026-04-27T07:43:18Z</time></trkpt><trkpt lat="44.770861421718834" lon="8.358490292421145"><ele>137.25</ele><time>2026-04-27T07:43:19Z</time></trkpt><trkpt lat="44.77073265198972" lon="8.35840182363225"><ele>137.0</ele><time>2026-04-27T07:43:20Z</time></trkpt><trkpt lat="44.77059794131391" lon="8.35829487704691"><ele>137.0</ele><time>2026-04-27T07:43:21Z</time></trkpt><trkpt lat="44.77046341558738" lon="8.358168697975751"><ele>137.0</ele><time>2026-04-27T07:43:22Z</time></trkpt><trkpt lat="44.77033662347864" lon="8.358026853050529"><ele>137.0</ele><time>2026-04-27T07:43:23Z</time></trkpt><trkpt lat="44.770222906521994" lon="8.357858636990954"><ele>137.66666666666666</ele><time>2026-04-27T07:43:24Z</time></trkpt><trkpt lat="44.77012246701829" lon="8.357674540806523"><ele>138.33333333333334</ele><time>2026-04-27T07:43:25Z</time></trkpt><trkpt lat="44.77003631797393" lon="8.357484383872197"><ele>139.0</ele><time>2026-04-27T07:43:26Z</time></trkpt><trkpt lat="44.76995127247066" lon="8.357285984211176"><ele>138.33333333333334</ele><time>2026-04-27T07:43:27Z</time></trkpt><trkpt lat="44.76987190636334" lon="8.35708575029292"><ele>137.66666666666666</ele><time>2026-04-27T07:43:28Z</time></trkpt><trkpt lat="44.769806554490344" lon="8.356894596087596"><ele>137.0</ele><time>2026-04-27T07:43:29Z</time></trkpt><trkpt lat="44.76975040998463" lon="8.356716897373438"><ele>137.0</ele><time>2026-04-27T07:43:30Z</time></trkpt><trkpt lat="44.769703366202165" lon="8.356554626846894"><ele>137.0</ele><time>2026-04-27T07:43:31Z</time></trkpt><trkpt lat="44.769653792081776" lon="8.356424592591951"><ele>137.0</ele><time>2026-04-27T07:43:32Z</time></trkpt><trkpt lat="44.76957921772022" lon="8.356355225579192"><ele>137.0</ele><time>2026-04-27T07:43:33Z</time></trkpt><trkpt lat="44.76950102800793" lon="8.356325410678052"><ele>137.0</ele><time>2026-04-27T07:43:34Z</time></trkpt><trkpt lat="44.76939990234087" lon="8.35626677313707"><ele>137.4</ele><time>2026-04-27T07:43:35Z</time></trkpt><trkpt lat="44.76929341569212" lon="8.35617024063415"><ele>137.79999999999998</ele><time>2026-04-27T07:43:36Z</time></trkpt><trkpt lat="44.7691952276473" lon="8.356036957692785"><ele>138.2</ele><time>2026-04-27T07:43:37Z</time></trkpt><trkpt lat="44.76912482592072" lon="8.355914965258757"><ele>138.6</ele><time>2026-04-27T07:43:38Z</time></trkpt><trkpt lat="44.7690844919756" lon="8.355838313054138"><ele>139.0</ele><time>2026-04-27T07:43:39Z</time></trkpt><trkpt lat="44.76912138041941" lon="8.355667448898316"><ele>138.75</ele><time>2026-04-27T07:43:40Z</time></trkpt><trkpt lat="44.76916267506245" lon="8.355513645542047"><ele>138.5</ele><time>2026-04-27T07:43:41Z</time></trkpt><trkpt lat="44.76919007874593" lon="8.355337798389284"><ele>138.25</ele><time>2026-04-27T07:43:42Z</time></trkpt><trkpt lat="44.7691844306222" lon="8.355152208710123"><ele>138.0</ele><time>2026-04-27T07:43:42.999Z</time></trkpt><trkpt lat="44.7691599609028" lon="8.354952655631145"><ele>138.0</ele><time>2026-04-27T07:43:43.999Z</time></trkpt><trkpt lat="44.769132073738724" lon="8.354739576968907"><ele>138.0</ele><time>2026-04-27T07:43:44.999Z</time></trkpt><trkpt lat="44.76911341875542" lon="8.35451082740433"><ele>138.0</ele><time>2026-04-27T07:43:45.999Z</time></trkpt><trkpt lat="44.76909510727981" lon="8.35428450155503"><ele>137.33333333333334</ele><time>2026-04-27T07:43:46.999Z</time></trkpt><trkpt lat="44.76907812000311" lon="8.354052998410184"><ele>136.66666666666669</ele><time>2026-04-27T07:43:47.999Z</time></trkpt><trkpt lat="44.76906126467545" lon="8.353829703564445"><ele>136.0</ele><time>2026-04-27T07:43:48.999Z</time></trkpt><trkpt lat="44.76905372193585" lon="8.35364071535072"><ele>136.83333333333334</ele><time>2026-04-27T07:43:49.999Z</time></trkpt><trkpt lat="44.76904899457448" lon="8.353485403597663"><ele>137.66666666666669</ele><time>2026-04-27T07:43:50.999Z</time></trkpt><trkpt lat="44.769051431905396" lon="8.353375284048953"><ele>138.5</ele><time>2026-04-27T07:43:51.999Z</time></trkpt><trkpt lat="44.76905187685706" lon="8.35325739982875"><ele>139.33333333333334</ele><time>2026-04-27T07:43:53.999Z</time></trkpt><trkpt lat="44.76902365522473" lon="8.353165759229487"><ele>140.16666666666666</ele><time>2026-04-27T07:43:58.999Z</time></trkpt><trkpt lat="44.76893688767148" lon="8.353093260840016"><ele>141.0</ele><time>2026-04-27T07:44:00.999Z</time></trkpt><trkpt lat="44.768855987104935" lon="8.35310641399417"><ele>141.0</ele><time>2026-04-27T07:44:01.999Z</time></trkpt><trkpt lat="44.768745195500365" lon="8.353135289019452"><ele>141.0</ele><time>2026-04-27T07:44:02.999Z</time></trkpt><trkpt lat="44.76864281078884" lon="8.353197841777279"><ele>141.0</ele><time>2026-04-27T07:44:03.999Z</time></trkpt><trkpt lat="44.768520891356104" lon="8.35324175154305"><ele>141.0</ele><time>2026-04-27T07:44:04.999Z</time></trkpt><trkpt lat="44.76840579789257" lon="8.353302850015702"><ele>141.0</ele><time>2026-04-27T07:44:05.999Z</time></trkpt><trkpt lat="44.768298181180455" lon="8.353361631508333"><ele>141.0</ele><time>2026-04-27T07:44:06.999Z</time></trkpt><trkpt lat="44.76819304347789" lon="8.353423921486689"><ele>141.0</ele><time>2026-04-27T07:44:07.999Z</time></trkpt><trkpt lat="44.76808865871662" lon="8.353483016416865"><ele>141.0</ele><time>2026-04-27T07:44:08.999Z</time></trkpt><trkpt lat="44.767971795654105" lon="8.353542608363083"><ele>141.0</ele><time>2026-04-27T07:44:09.999Z</time></trkpt><trkpt lat="44.7678337394799" lon="8.353609200379024"><ele>141.0</ele><time>2026-04-27T07:44:10.999Z</time></trkpt><trkpt lat="44.767680732275394" lon="8.353677055221292"><ele>141.0</ele><time>2026-04-27T07:44:11.999Z</time></trkpt><trkpt lat="44.76751070140756" lon="8.35373993653305"><ele>139.66666666666666</ele><time>2026-04-27T07:44:12.999Z</time></trkpt><trkpt lat="44.76733000376129" lon="8.353787072520861"><ele>138.33333333333331</ele><time>2026-04-27T07:44:13.999Z</time></trkpt><trkpt lat="44.76714316052717" lon="8.353818143246933"><ele>137.0</ele><time>2026-04-27T07:44:14.999Z</time></trkpt><trkpt lat="44.76695154993663" lon="8.353829361027783"><ele>137.33333333333331</ele><time>2026-04-27T07:44:15.999Z</time></trkpt><trkpt lat="44.766757385170735" lon="8.353816476017593"><ele>137.66666666666666</ele><time>2026-04-27T07:44:16.999Z</time></trkpt><trkpt lat="44.766561299096125" lon="8.353791087611766"><ele>138.0</ele><time>2026-04-27T07:44:17.999Z</time></trkpt><trkpt lat="44.76638133407802" lon="8.353753636186028"><ele>138.0</ele><time>2026-04-27T07:44:18.999Z</time></trkpt><trkpt lat="44.76621467326516" lon="8.353709629831753"><ele>138.0</ele><time>2026-04-27T07:44:19.999Z</time></trkpt><trkpt lat="44.76606350941005" lon="8.353664153040294"><ele>138.0</ele><time>2026-04-27T07:44:20.999Z</time></trkpt><trkpt lat="44.76592547142495" lon="8.353622239843384"><ele>138.0</ele><time>2026-04-27T07:44:21.999Z</time></trkpt><trkpt lat="44.76579531478678" lon="8.353582469371066"><ele>138.0</ele><time>2026-04-27T07:44:22.999Z</time></trkpt><trkpt lat="44.76566285322318" lon="8.353544067967075"><ele>138.0</ele><time>2026-04-27T07:44:23.999Z</time></trkpt><trkpt lat="44.76552254431033" lon="8.353503514436744"><ele>138.0</ele><time>2026-04-27T07:44:24.999Z</time></trkpt><trkpt lat="44.76538012541549" lon="8.353468907357453"><ele>138.0</ele><time>2026-04-27T07:44:25.999Z</time></trkpt><trkpt lat="44.76523418440678" lon="8.353442190665264"><ele>138.0</ele><time>2026-04-27T07:44:26.999Z</time></trkpt><trkpt lat="44.76508730808376" lon="8.353428729918667"><ele>138.0</ele><time>2026-04-27T07:44:27.999Z</time></trkpt><trkpt lat="44.76493845523378" lon="8.35342555689768"><ele>138.0</ele><time>2026-04-27T07:44:28.999Z</time></trkpt><trkpt lat="44.76479801173464" lon="8.353420801755192"><ele>138.25</ele><time>2026-04-27T07:44:29.999Z</time></trkpt><trkpt lat="44.76465899322495" lon="8.35341937403344"><ele>138.5</ele><time>2026-04-27T07:44:30.999Z</time></trkpt><trkpt lat="44.76451641634316" lon="8.35341981783086"><ele>138.75</ele><time>2026-04-27T07:44:31.999Z</time></trkpt><trkpt lat="44.76436295776527" lon="8.353409390304984"><ele>139.0</ele><time>2026-04-27T07:44:32.999Z</time></trkpt><trkpt lat="44.764203924930065" lon="8.353390371344506"><ele>138.33333333333334</ele><time>2026-04-27T07:44:33.999Z</time></trkpt><trkpt lat="44.764034407528875" lon="8.353361310344118"><ele>137.66666666666666</ele><time>2026-04-27T07:44:34.999Z</time></trkpt><trkpt lat="44.763856597527784" lon="8.353321822210622"><ele>137.0</ele><time>2026-04-27T07:44:35.999Z</time></trkpt><trkpt lat="44.76367529392377" lon="8.353277156267186"><ele>138.33333333333331</ele><time>2026-04-27T07:44:36.999Z</time></trkpt><trkpt lat="44.76350328969919" lon="8.353228871994459"><ele>139.66666666666666</ele><time>2026-04-27T07:44:37.999Z</time></trkpt><trkpt lat="44.763341497638415" lon="8.353179591593976"><ele>141.0</ele><time>2026-04-27T07:44:38.999Z</time></trkpt><trkpt lat="44.76319567639225" lon="8.353133858292418"><ele>141.0</ele><time>2026-04-27T07:44:39.999Z</time></trkpt><trkpt lat="44.763049567421845" lon="8.353093901249814"><ele>141.0</ele><time>2026-04-27T07:44:40.999Z</time></trkpt><trkpt lat="44.7629000068004" lon="8.353044862105973"><ele>141.0</ele><time>2026-04-27T07:44:41.999Z</time></trkpt><trkpt lat="44.76275166086625" lon="8.35297938906778"><ele>140.66666666666666</ele><time>2026-04-27T07:44:42.998Z</time></trkpt><trkpt lat="44.76260144247245" lon="8.352891783394437"><ele>140.33333333333331</ele><time>2026-04-27T07:44:43.998Z</time></trkpt><trkpt lat="44.76245691441141" lon="8.35279594482861"><ele>140.0</ele><time>2026-04-27T07:44:44.998Z</time></trkpt><trkpt lat="44.76232302494247" lon="8.352702604529899"><ele>140.0</ele><time>2026-04-27T07:44:45.998Z</time></trkpt><trkpt lat="44.762201211963344" lon="8.352610460441806"><ele>140.0</ele><time>2026-04-27T07:44:46.998Z</time></trkpt><trkpt lat="44.76207049040819" lon="8.352523614699255"><ele>140.0</ele><time>2026-04-27T07:44:47.998Z</time></trkpt><trkpt lat="44.76193154381318" lon="8.352426506869088"><ele>140.0</ele><time>2026-04-27T07:44:48.998Z</time></trkpt><trkpt lat="44.76178172720015" lon="8.352326057383898"><ele>140.0</ele><time>2026-04-27T07:44:49.998Z</time></trkpt><trkpt lat="44.76162717160039" lon="8.352219827641472"><ele>140.0</ele><time>2026-04-27T07:44:50.998Z</time></trkpt><trkpt lat="44.76146547191612" lon="8.352114901148658"><ele>140.0</ele><time>2026-04-27T07:44:51.998Z</time></trkpt><trkpt lat="44.76129247778817" lon="8.352002539693538"><ele>140.0</ele><time>2026-04-27T07:44:52.998Z</time></trkpt><trkpt lat="44.76112330807713" lon="8.351850695763982"><ele>140.0</ele><time>2026-04-27T07:44:53.998Z</time></trkpt><trkpt lat="44.76094323014848" lon="8.351739316697364"><ele>140.0</ele><time>2026-04-27T07:44:54.998Z</time></trkpt><trkpt lat="44.76076985821271" lon="8.351606457282998"><ele>139.66666666666666</ele><time>2026-04-27T07:44:55.998Z</time></trkpt><trkpt lat="44.76058837589755" lon="8.351482894203926"><ele>139.33333333333334</ele><time>2026-04-27T07:44:56.998Z</time></trkpt><trkpt lat="44.760405174786655" lon="8.35135687016111"><ele>139.0</ele><time>2026-04-27T07:44:57.998Z</time></trkpt><trkpt lat="44.76022475044072" lon="8.351227212542042"><ele>139.66666666666669</ele><time>2026-04-27T07:44:58.998Z</time></trkpt><trkpt lat="44.7600402916466" lon="8.351092867287855"><ele>140.33333333333334</ele><time>2026-04-27T07:44:59.998Z</time></trkpt><trkpt lat="44.75985679700156" lon="8.350961296720362"><ele>141.0</ele><time>2026-04-27T07:45:00.998Z</time></trkpt><trkpt lat="44.75966949504598" lon="8.350832353784392"><ele>141.0</ele><time>2026-04-27T07:45:01.998Z</time></trkpt><trkpt lat="44.759481008069336" lon="8.350703774267824"><ele>141.0</ele><time>2026-04-27T07:45:02.998Z</time></trkpt><trkpt lat="44.75929063476699" lon="8.350573734958228"><ele>141.0</ele><time>2026-04-27T07:45:03.998Z</time></trkpt><trkpt lat="44.759097691577516" lon="8.350444354180828"><ele>140.33333333333334</ele><time>2026-04-27T07:45:04.998Z</time></trkpt><trkpt lat="44.75890177156623" lon="8.350322369360956"><ele>139.66666666666669</ele><time>2026-04-27T07:45:06Z</time></trkpt><trkpt lat="44.75870255815966" lon="8.350211042661952"><ele>139.0</ele><time>2026-04-27T07:45:07Z</time></trkpt><trkpt lat="44.758501129420644" lon="8.350099102005062"><ele>139.0</ele><time>2026-04-27T07:45:08Z</time></trkpt><trkpt lat="44.758310196906145" lon="8.349990057832606"><ele>139.0</ele><time>2026-04-27T07:45:09Z</time></trkpt><trkpt lat="44.75812690116994" lon="8.349884521533497"><ele>139.0</ele><time>2026-04-27T07:45:10Z</time></trkpt><trkpt lat="44.75795044170686" lon="8.349785763196051"><ele>139.0</ele><time>2026-04-27T07:45:11Z</time></trkpt><trkpt lat="44.757773669168486" lon="8.34968298897004"><ele>139.0</ele><time>2026-04-27T07:45:12Z</time></trkpt><trkpt lat="44.75760298115776" lon="8.349579678351352"><ele>139.0</ele><time>2026-04-27T07:45:13Z</time></trkpt><trkpt lat="44.75744503301261" lon="8.349476649272939"><ele>139.33333333333334</ele><time>2026-04-27T07:45:14Z</time></trkpt><trkpt lat="44.757301071226074" lon="8.349376144636784"><ele>139.66666666666666</ele><time>2026-04-27T07:45:15Z</time></trkpt><trkpt lat="44.75716642874958" lon="8.349279950621657"><ele>140.0</ele><time>2026-04-27T07:45:16Z</time></trkpt><trkpt lat="44.75703252784935" lon="8.349177451586518"><ele>140.0</ele><time>2026-04-27T07:45:17Z</time></trkpt><trkpt lat="44.75690045526008" lon="8.349072153123863"><ele>140.0</ele><time>2026-04-27T07:45:18Z</time></trkpt><trkpt lat="44.75677166001678" lon="8.348960181547557"><ele>140.0</ele><time>2026-04-27T07:45:19Z</time></trkpt><trkpt lat="44.75664398001417" lon="8.348840339572106"><ele>140.66666666666666</ele><time>2026-04-27T07:45:20Z</time></trkpt><trkpt lat="44.756518785418756" lon="8.348713540724555"><ele>141.33333333333334</ele><time>2026-04-27T07:45:21Z</time></trkpt><trkpt lat="44.75639378024006" lon="8.348583031212268"><ele>142.0</ele><time>2026-04-27T07:45:22Z</time></trkpt><trkpt lat="44.756265113626114" lon="8.348445837130155"><ele>142.0</ele><time>2026-04-27T07:45:23Z</time></trkpt><trkpt lat="44.756134269422205" lon="8.348308325361485"><ele>142.0</ele><time>2026-04-27T07:45:24Z</time></trkpt><trkpt lat="44.75600425036976" lon="8.348171845609311"><ele>142.0</ele><time>2026-04-27T07:45:25Z</time></trkpt><trkpt lat="44.75586912213799" lon="8.348031104416302"><ele>141.66666666666669</ele><time>2026-04-27T07:45:26Z</time></trkpt><trkpt lat="44.7557340529927" lon="8.347891657789457"><ele>141.33333333333334</ele><time>2026-04-27T07:45:27Z</time></trkpt><trkpt lat="44.75560244482218" lon="8.347752760463562"><ele>141.0</ele><time>2026-04-27T07:45:28Z</time></trkpt><trkpt lat="44.755482935236124" lon="8.34762154703832"><ele>141.0</ele><time>2026-04-27T07:45:29Z</time></trkpt><trkpt lat="44.75536301529707" lon="8.34749590589051"><ele>141.0</ele><time>2026-04-27T07:45:30Z</time></trkpt><trkpt lat="44.7552444652805" lon="8.347373495158179"><ele>141.0</ele><time>2026-04-27T07:45:31Z</time></trkpt><trkpt lat="44.7551279629168" lon="8.347250318697604"><ele>141.0</ele><time>2026-04-27T07:45:32Z</time></trkpt><trkpt lat="44.75501274462785" lon="8.347131623704866"><ele>141.5</ele><time>2026-04-27T07:45:33Z</time></trkpt><trkpt lat="44.754898817586124" lon="8.347017548433039"><ele>142.0</ele><time>2026-04-27T07:45:34Z</time></trkpt><trkpt lat="44.754785815550925" lon="8.346902149396012"><ele>142.5</ele><time>2026-04-27T07:45:35Z</time></trkpt><trkpt lat="44.754671848548" lon="8.346781376247787"><ele>143.0</ele><time>2026-04-27T07:45:36Z</time></trkpt><trkpt lat="44.75455350282256" lon="8.34665953431783"><ele>143.0</ele><time>2026-04-27T07:45:37Z</time></trkpt><trkpt lat="44.754437463632925" lon="8.346543542416624"><ele>143.0</ele><time>2026-04-27T07:45:38Z</time></trkpt><trkpt lat="44.75433169229395" lon="8.34643677724302"><ele>143.0</ele><time>2026-04-27T07:45:39Z</time></trkpt><trkpt lat="44.75422786263132" lon="8.346334326110256"><ele>143.0</ele><time>2026-04-27T07:45:40Z</time></trkpt><trkpt lat="44.75412761439248" lon="8.346240443542232"><ele>143.4</ele><time>2026-04-27T07:45:41Z</time></trkpt><trkpt lat="44.754034370785675" lon="8.346158247449054"><ele>143.8</ele><time>2026-04-27T07:45:42Z</time></trkpt><trkpt lat="44.75394052759926" lon="8.346081024325596"><ele>144.2</ele><time>2026-04-27T07:45:43Z</time></trkpt><trkpt lat="44.75384561853428" lon="8.346009685486036"><ele>144.6</ele><time>2026-04-27T07:45:44Z</time></trkpt><trkpt lat="44.75375594303319" lon="8.345946786801195"><ele>145.0</ele><time>2026-04-27T07:45:45Z</time></trkpt><trkpt lat="44.753662828778424" lon="8.345885283943387"><ele>145.0</ele><time>2026-04-27T07:45:45.999Z</time></trkpt><trkpt lat="44.75356151519919" lon="8.345820957970314"><ele>145.0</ele><time>2026-04-27T07:45:46.999Z</time></trkpt><trkpt lat="44.753451570235136" lon="8.345757886432764"><ele>145.0</ele><time>2026-04-27T07:45:47.999Z</time></trkpt><trkpt lat="44.7533379671327" lon="8.345693575604248"><ele>145.0</ele><time>2026-04-27T07:45:48.999Z</time></trkpt><trkpt lat="44.75322385708266" lon="8.34562986745694"><ele>144.5</ele><time>2026-04-27T07:45:49.999Z</time></trkpt><trkpt lat="44.753112942006545" lon="8.345558221907472"><ele>144.0</ele><time>2026-04-27T07:45:50.999Z</time></trkpt><trkpt lat="44.752998180758695" lon="8.345484920261649"><ele>143.5</ele><time>2026-04-27T07:45:51.999Z</time></trkpt><trkpt lat="44.7528805415308" lon="8.34540833183541"><ele>143.0</ele><time>2026-04-27T07:45:52.999Z</time></trkpt><trkpt lat="44.752759362047634" lon="8.345328139592537"><ele>142.75</ele><time>2026-04-27T07:45:53.999Z</time></trkpt><trkpt lat="44.75263183421791" lon="8.345250903491188"><ele>142.5</ele><time>2026-04-27T07:45:54.999Z</time></trkpt><trkpt lat="44.75249667041554" lon="8.345176906281191"><ele>142.25</ele><time>2026-04-27T07:45:55.999Z</time></trkpt><trkpt lat="44.75234917505434" lon="8.345113786767875"><ele>142.0</ele><time>2026-04-27T07:45:56.999Z</time></trkpt><trkpt lat="44.752191823006605" lon="8.345059197737303"><ele>142.0</ele><time>2026-04-27T07:45:57.999Z</time></trkpt><trkpt lat="44.752019990719226" lon="8.34501033880766"><ele>142.0</ele><time>2026-04-27T07:45:58.999Z</time></trkpt><trkpt lat="44.751839631482696" lon="8.344964056105207"><ele>142.0</ele><time>2026-04-27T07:45:59.999Z</time></trkpt><trkpt lat="44.75165562358629" lon="8.344922717598308"><ele>142.33333333333334</ele><time>2026-04-27T07:46:00.999Z</time></trkpt><trkpt lat="44.7514685729463" lon="8.344876337784722"><ele>142.66666666666666</ele><time>2026-04-27T07:46:01.999Z</time></trkpt><trkpt lat="44.75128800568304" lon="8.344830024717986"><ele>143.0</ele><time>2026-04-27T07:46:02.999Z</time></trkpt><trkpt lat="44.75110827115389" lon="8.344786521617793"><ele>143.66666666666666</ele><time>2026-04-27T07:46:03.999Z</time></trkpt><trkpt lat="44.750933452583595" lon="8.344747075487563"><ele>144.33333333333334</ele><time>2026-04-27T07:46:04.999Z</time></trkpt><trkpt lat="44.75076443369815" lon="8.344709145596202"><ele>145.0</ele><time>2026-04-27T07:46:05.999Z</time></trkpt><trkpt lat="44.75059798114837" lon="8.344670123931134"><ele>145.0</ele><time>2026-04-27T07:46:06.999Z</time></trkpt><trkpt lat="44.75042752753906" lon="8.344631504591291"><ele>145.0</ele><time>2026-04-27T07:46:07.999Z</time></trkpt><trkpt lat="44.75025772672946" lon="8.344598366553745"><ele>145.0</ele><time>2026-04-27T07:46:08.999Z</time></trkpt><trkpt lat="44.75008550677614" lon="8.344567392225112"><ele>144.66666666666669</ele><time>2026-04-27T07:46:09.999Z</time></trkpt><trkpt lat="44.74990715199758" lon="8.34454183167326"><ele>144.33333333333334</ele><time>2026-04-27T07:46:10.999Z</time></trkpt><trkpt lat="44.749702408038694" lon="8.344542643981354"><ele>144.0</ele><time>2026-04-27T07:46:11.999Z</time></trkpt><trkpt lat="44.7494722397296" lon="8.34454843381999"><ele>144.0</ele><time>2026-04-27T07:46:12.999Z</time></trkpt><trkpt lat="44.749231146879126" lon="8.344608063842927"><ele>144.0</ele><time>2026-04-27T07:46:13.999Z</time></trkpt><trkpt lat="44.74899748045409" lon="8.344649666103145"><ele>144.0</ele><time>2026-04-27T07:46:14.999Z</time></trkpt><trkpt lat="44.74875767397936" lon="8.344694258673462"><ele>144.0</ele><time>2026-04-27T07:46:15.999Z</time></trkpt><trkpt lat="44.748512394999835" lon="8.344727729123802"><ele>145.0</ele><time>2026-04-27T07:46:16.999Z</time></trkpt><trkpt lat="44.7482668170616" lon="8.344757883457607"><ele>146.0</ele><time>2026-04-27T07:46:17.999Z</time></trkpt><trkpt lat="44.748019087833605" lon="8.344778907589927"><ele>146.0</ele><time>2026-04-27T07:46:18.999Z</time></trkpt><trkpt lat="44.74777615501065" lon="8.34478891513784"><ele>146.0</ele><time>2026-04-27T07:46:19.999Z</time></trkpt><trkpt lat="44.7475459441942" lon="8.344782181842117"><ele>146.66666666666666</ele><time>2026-04-27T07:46:20.999Z</time></trkpt><trkpt lat="44.747330271378175" lon="8.344757952620146"><ele>147.33333333333334</ele><time>2026-04-27T07:46:21.999Z</time></trkpt><trkpt lat="44.74711748138555" lon="8.344703965914789"><ele>148.0</ele><time>2026-04-27T07:46:22.999Z</time></trkpt><trkpt lat="44.746907976802476" lon="8.344629717694975"><ele>148.0</ele><time>2026-04-27T07:46:23.999Z</time></trkpt><trkpt lat="44.746694196464254" lon="8.344549476458432"><ele>148.0</ele><time>2026-04-27T07:46:24.999Z</time></trkpt><trkpt lat="44.74647792520844" lon="8.344465802049138"><ele>148.0</ele><time>2026-04-27T07:46:25.999Z</time></trkpt><trkpt lat="44.74626437985883" lon="8.344390678558907"><ele>148.0</ele><time>2026-04-27T07:46:26.999Z</time></trkpt><trkpt lat="44.74605300556924" lon="8.34432211503007"><ele>148.0</ele><time>2026-04-27T07:46:27.999Z</time></trkpt><trkpt lat="44.745844692988896" lon="8.344250352175594"><ele>148.0</ele><time>2026-04-27T07:46:28.999Z</time></trkpt><trkpt lat="44.745637858613364" lon="8.34417857918525"><ele>148.66666666666669</ele><time>2026-04-27T07:46:29.999Z</time></trkpt><trkpt lat="44.74543209832371" lon="8.344106109950111"><ele>149.33333333333334</ele><time>2026-04-27T07:46:30.999Z</time></trkpt><trkpt lat="44.74522180305321" lon="8.344037015911296"><ele>150.0</ele><time>2026-04-27T07:46:31.999Z</time></trkpt><trkpt lat="44.74501070678942" lon="8.34396284338192"><ele>150.66666666666666</ele><time>2026-04-27T07:46:32.999Z</time></trkpt><trkpt lat="44.74480177325768" lon="8.34388957217222"><ele>151.33333333333331</ele><time>2026-04-27T07:46:33.999Z</time></trkpt><trkpt lat="44.7445905439014" lon="8.343818596469632"><ele>152.0</ele><time>2026-04-27T07:46:34.999Z</time></trkpt><trkpt lat="44.74437633060627" lon="8.343747921325056"><ele>150.33333333333331</ele><time>2026-04-27T07:46:35.999Z</time></trkpt><trkpt lat="44.74416467650876" lon="8.343676554832385"><ele>148.66666666666666</ele><time>2026-04-27T07:46:36.999Z</time></trkpt><trkpt lat="44.74395136639679" lon="8.343604682983344"><ele>147.0</ele><time>2026-04-27T07:46:37.999Z</time></trkpt><trkpt lat="44.74374661226541" lon="8.343533589728413"><ele>147.0</ele><time>2026-04-27T07:46:38.999Z</time></trkpt><trkpt lat="44.7435533698426" lon="8.343466615167076"><ele>147.0</ele><time>2026-04-27T07:46:39.999Z</time></trkpt><trkpt lat="44.74335941103669" lon="8.343399608038593"><ele>147.0</ele><time>2026-04-27T07:46:40.999Z</time></trkpt><trkpt lat="44.74316287875812" lon="8.343331921382777"><ele>147.33333333333334</ele><time>2026-04-27T07:46:41.999Z</time></trkpt><trkpt lat="44.74296625064235" lon="8.343263715407527"><ele>147.66666666666669</ele><time>2026-04-27T07:46:42.999Z</time></trkpt><trkpt lat="44.742772975868284" lon="8.3431981224506"><ele>148.0</ele><time>2026-04-27T07:46:43.999Z</time></trkpt><trkpt lat="44.7425963997556" lon="8.343138046360519"><ele>148.33333333333334</ele><time>2026-04-27T07:46:44.999Z</time></trkpt><trkpt lat="44.74242237804068" lon="8.343072089262279"><ele>148.66666666666666</ele><time>2026-04-27T07:46:45.999Z</time></trkpt><trkpt lat="44.742247310530885" lon="8.343007547551094"><ele>149.0</ele><time>2026-04-27T07:46:46.999Z</time></trkpt><trkpt lat="44.742079831879664" lon="8.34295217834255"><ele>149.33333333333331</ele><time>2026-04-27T07:46:47.998Z</time></trkpt><trkpt lat="44.74191589906411" lon="8.342894784614568"><ele>149.66666666666666</ele><time>2026-04-27T07:46:48.998Z</time></trkpt><trkpt lat="44.7417477254787" lon="8.342842085512526"><ele>150.0</ele><time>2026-04-27T07:46:49.998Z</time></trkpt><trkpt lat="44.74158135329157" lon="8.342787214666803"><ele>150.0</ele><time>2026-04-27T07:46:50.998Z</time></trkpt><trkpt lat="44.74141514817762" lon="8.342731932867927"><ele>150.0</ele><time>2026-04-27T07:46:51.998Z</time></trkpt><trkpt lat="44.741244854678335" lon="8.342680300561073"><ele>150.0</ele><time>2026-04-27T07:46:52.998Z</time></trkpt><trkpt lat="44.74107260808991" lon="8.3426311015832"><ele>150.66666666666666</ele><time>2026-04-27T07:46:53.998Z</time></trkpt><trkpt lat="44.74090601663298" lon="8.342585491533251"><ele>151.33333333333331</ele><time>2026-04-27T07:46:54.998Z</time></trkpt><trkpt lat="44.74073832961594" lon="8.342540511244543"><ele>152.0</ele><time>2026-04-27T07:46:55.998Z</time></trkpt><trkpt lat="44.74057864955754" lon="8.342495668413251"><ele>152.0</ele><time>2026-04-27T07:46:56.998Z</time></trkpt><trkpt lat="44.74042862104918" lon="8.342450022778484"><ele>152.0</ele><time>2026-04-27T07:46:57.998Z</time></trkpt><trkpt lat="44.74028311336465" lon="8.342409025038542"><ele>152.0</ele><time>2026-04-27T07:46:58.998Z</time></trkpt><trkpt lat="44.7401486352003" lon="8.342380178901864"><ele>152.0</ele><time>2026-04-27T07:46:59.998Z</time></trkpt><trkpt lat="44.74002278529345" lon="8.342350535601684"><ele>152.25</ele><time>2026-04-27T07:47:00.998Z</time></trkpt><trkpt lat="44.73990097684735" lon="8.342318721746603"><ele>152.5</ele><time>2026-04-27T07:47:01.998Z</time></trkpt><trkpt lat="44.73978528153999" lon="8.342287797605431"><ele>152.75</ele><time>2026-04-27T07:47:02.998Z</time></trkpt><trkpt lat="44.73967847878957" lon="8.34225880344317"><ele>153.0</ele><time>2026-04-27T07:47:03.998Z</time></trkpt><trkpt lat="44.73957206917853" lon="8.34222899590409"><ele>152.75</ele><time>2026-04-27T07:47:04.998Z</time></trkpt><trkpt lat="44.7394622559383" lon="8.342199070252015"><ele>152.5</ele><time>2026-04-27T07:47:05.998Z</time></trkpt><trkpt lat="44.73935065589423" lon="8.34216854951983"><ele>152.25</ele><time>2026-04-27T07:47:06.998Z</time></trkpt><trkpt lat="44.73923904783061" lon="8.342137334729948"><ele>152.0</ele><time>2026-04-27T07:47:07.998Z</time></trkpt><trkpt lat="44.73912595251871" lon="8.342103737449554"><ele>152.0</ele><time>2026-04-27T07:47:08.998Z</time></trkpt><trkpt lat="44.73901815486259" lon="8.342063068597948"><ele>152.0</ele><time>2026-04-27T07:47:09.998Z</time></trkpt><trkpt lat="44.73892361296447" lon="8.342012441855857"><ele>152.0</ele><time>2026-04-27T07:47:10.998Z</time></trkpt><trkpt lat="44.73883708644483" lon="8.34195217592088"><ele>152.0</ele><time>2026-04-27T07:47:12Z</time></trkpt><trkpt lat="44.73875066464562" lon="8.34186853134838"><ele>152.0</ele><time>2026-04-27T07:47:13Z</time></trkpt><trkpt lat="44.73867286264631" lon="8.34177458435683"><ele>152.0</ele><time>2026-04-27T07:47:14Z</time></trkpt><trkpt lat="44.73860207256928" lon="8.341674500284093"><ele>152.0</ele><time>2026-04-27T07:47:15Z</time></trkpt><trkpt lat="44.738531531218214" lon="8.341552975427843"><ele>152.0</ele><time>2026-04-27T07:47:16Z</time></trkpt><trkpt lat="44.73845579309638" lon="8.341429425504279"><ele>152.0</ele><time>2026-04-27T07:47:17Z</time></trkpt><trkpt lat="44.73839105068773" lon="8.341286209128072"><ele>152.0</ele><time>2026-04-27T07:47:18Z</time></trkpt><trkpt lat="44.73831163875482" lon="8.341151916498823"><ele>152.25</ele><time>2026-04-27T07:47:19Z</time></trkpt><trkpt lat="44.73822864165444" lon="8.341011564180958"><ele>152.5</ele><time>2026-04-27T07:47:20Z</time></trkpt><trkpt lat="44.73814430055828" lon="8.340868680528004"><ele>152.75</ele><time>2026-04-27T07:47:21Z</time></trkpt><trkpt lat="44.73806741752291" lon="8.340739732127933"><ele>153.0</ele><time>2026-04-27T07:47:22Z</time></trkpt><trkpt lat="44.737997101073944" lon="8.340621512904505"><ele>153.0</ele><time>2026-04-27T07:47:23Z</time></trkpt><trkpt lat="44.73793399039947" lon="8.340515411798066"><ele>153.0</ele><time>2026-04-27T07:47:24Z</time></trkpt><trkpt lat="44.73785256005808" lon="8.34041294139441"><ele>153.0</ele><time>2026-04-27T07:47:25Z</time></trkpt><trkpt lat="44.73778920860215" lon="8.340289466994584"><ele>153.0</ele><time>2026-04-27T07:47:26Z</time></trkpt><trkpt lat="44.73774334805153" lon="8.340176023055932"><ele>153.0</ele><time>2026-04-27T07:47:27Z</time></trkpt><trkpt lat="44.737700711785145" lon="8.340057927762674"><ele>153.4</ele><time>2026-04-27T07:47:28Z</time></trkpt><trkpt lat="44.73766411072116" lon="8.33992700984413"><ele>153.8</ele><time>2026-04-27T07:47:29Z</time></trkpt><trkpt lat="44.73762821273121" lon="8.339801366300867"><ele>154.2</ele><time>2026-04-27T07:47:30Z</time></trkpt><trkpt lat="44.73759433265137" lon="8.339684108569719"><ele>154.6</ele><time>2026-04-27T07:47:31Z</time></trkpt><trkpt lat="44.73755836081953" lon="8.339561974881105"><ele>155.0</ele><time>2026-04-27T07:47:32Z</time></trkpt><trkpt lat="44.73751647482059" lon="8.339423460448868"><ele>155.0</ele><time>2026-04-27T07:47:33Z</time></trkpt><trkpt lat="44.73747546168604" lon="8.339277974095138"><ele>155.0</ele><time>2026-04-27T07:47:34Z</time></trkpt><trkpt lat="44.73745345854049" lon="8.339113406899905"><ele>155.0</ele><time>2026-04-27T07:47:35Z</time></trkpt><trkpt lat="44.737399925013975" lon="8.338961216545362"><ele>155.0</ele><time>2026-04-27T07:47:36Z</time></trkpt><trkpt lat="44.737359536529226" lon="8.338787877498667"><ele>154.5</ele><time>2026-04-27T07:47:37Z</time></trkpt><trkpt lat="44.73731386053347" lon="8.338610043193377"><ele>154.0</ele><time>2026-04-27T07:47:38Z</time></trkpt><trkpt lat="44.7372667913347" lon="8.33844092213081"><ele>153.5</ele><time>2026-04-27T07:47:39Z</time></trkpt><trkpt lat="44.73722095959926" lon="8.33827730067813"><ele>153.0</ele><time>2026-04-27T07:47:40Z</time></trkpt><trkpt lat="44.737178922670395" lon="8.338119079982526"><ele>153.0</ele><time>2026-04-27T07:47:41Z</time></trkpt><trkpt lat="44.73714236166964" lon="8.337978356450211"><ele>153.0</ele><time>2026-04-27T07:47:42Z</time></trkpt><trkpt lat="44.73710699492217" lon="8.337842221808947"><ele>153.0</ele><time>2026-04-27T07:47:43Z</time></trkpt><trkpt lat="44.737072544971284" lon="8.33770100045681"><ele>153.0</ele><time>2026-04-27T07:47:44Z</time></trkpt><trkpt lat="44.73703350901214" lon="8.337550494866681"><ele>153.0</ele><time>2026-04-27T07:47:45Z</time></trkpt><trkpt lat="44.73699328188153" lon="8.33739807819983"><ele>153.0</ele><time>2026-04-27T07:47:46Z</time></trkpt><trkpt lat="44.73694698011936" lon="8.337248236846406"><ele>153.0</ele><time>2026-04-27T07:47:47Z</time></trkpt><trkpt lat="44.73690484948867" lon="8.33709543997093"><ele>153.0</ele><time>2026-04-27T07:47:48Z</time></trkpt><trkpt lat="44.7368659385882" lon="8.336943599704595"><ele>153.0</ele><time>2026-04-27T07:47:49Z</time></trkpt><trkpt lat="44.736831346617066" lon="8.33680800110495"><ele>153.0</ele><time>2026-04-27T07:47:50Z</time></trkpt><trkpt lat="44.73679840783001" lon="8.336681451953615"><ele>153.6</ele><time>2026-04-27T07:47:50.999Z</time></trkpt><trkpt lat="44.73676898654024" lon="8.336550654553129"><ele>154.20000000000002</ele><time>2026-04-27T07:47:51.999Z</time></trkpt><trkpt lat="44.7367406186106" lon="8.336405567224572"><ele>154.8</ele><time>2026-04-27T07:47:52.999Z</time></trkpt><trkpt lat="44.73671946918383" lon="8.33624562561824"><ele>155.4</ele><time>2026-04-27T07:47:53.999Z</time></trkpt><trkpt lat="44.73670695468154" lon="8.33608386978223"><ele>156.0</ele><time>2026-04-27T07:47:54.999Z</time></trkpt><trkpt lat="44.73669890140057" lon="8.335917030912098"><ele>156.0</ele><time>2026-04-27T07:47:55.999Z</time></trkpt><trkpt lat="44.73669400207518" lon="8.335755978163837"><ele>156.0</ele><time>2026-04-27T07:47:56.999Z</time></trkpt><trkpt lat="44.73668921965277" lon="8.335599915444178"><ele>156.0</ele><time>2026-04-27T07:47:57.999Z</time></trkpt><trkpt lat="44.73667994175458" lon="8.335435474599786"><ele>156.0</ele><time>2026-04-27T07:47:58.999Z</time></trkpt><trkpt lat="44.73668796668224" lon="8.335252866724636"><ele>155.75</ele><time>2026-04-27T07:47:59.999Z</time></trkpt><trkpt lat="44.73665805465517" lon="8.3350663039231"><ele>155.5</ele><time>2026-04-27T07:48:00.999Z</time></trkpt><trkpt lat="44.736652023810315" lon="8.3348907543567"><ele>155.25</ele><time>2026-04-27T07:48:01.999Z</time></trkpt><trkpt lat="44.736648611294015" lon="8.33473427416601"><ele>155.0</ele><time>2026-04-27T07:48:02.999Z</time></trkpt><trkpt lat="44.7366453106499" lon="8.334584424892668"><ele>154.5</ele><time>2026-04-27T07:48:03.999Z</time></trkpt><trkpt lat="44.73664051161953" lon="8.334429626268827"><ele>154.0</ele><time>2026-04-27T07:48:04.999Z</time></trkpt><trkpt lat="44.73663427626831" lon="8.334269987596338"><ele>153.5</ele><time>2026-04-27T07:48:05.999Z</time></trkpt><trkpt lat="44.7366285988874" lon="8.334106910780495"><ele>153.0</ele><time>2026-04-27T07:48:06.999Z</time></trkpt><trkpt lat="44.73662220106232" lon="8.33393861325282"><ele>153.0</ele><time>2026-04-27T07:48:07.999Z</time></trkpt><trkpt lat="44.73661205809568" lon="8.333764177563932"><ele>153.0</ele><time>2026-04-27T07:48:08.999Z</time></trkpt><trkpt lat="44.736604437296194" lon="8.333586169907466"><ele>153.0</ele><time>2026-04-27T07:48:09.999Z</time></trkpt><trkpt lat="44.73659960223908" lon="8.333410886835766"><ele>153.0</ele><time>2026-04-27T07:48:10.999Z</time></trkpt><trkpt lat="44.73659186707363" lon="8.333234044764174"><ele>153.0</ele><time>2026-04-27T07:48:11.999Z</time></trkpt><trkpt lat="44.7365875356831" lon="8.333059469588274"><ele>153.0</ele><time>2026-04-27T07:48:12.999Z</time></trkpt><trkpt lat="44.7365862408551" lon="8.332885086405819"><ele>153.0</ele><time>2026-04-27T07:48:13.999Z</time></trkpt><trkpt lat="44.73658034967207" lon="8.332708563535576"><ele>153.0</ele><time>2026-04-27T07:48:14.999Z</time></trkpt><trkpt lat="44.7365744116588" lon="8.332530255112774"><ele>152.5</ele><time>2026-04-27T07:48:15.999Z</time></trkpt><trkpt lat="44.73656875224092" lon="8.33235708531618"><ele>152.0</ele><time>2026-04-27T07:48:16.999Z</time></trkpt><trkpt lat="44.736562709239884" lon="8.33218676762444"><ele>151.5</ele><time>2026-04-27T07:48:17.999Z</time></trkpt><trkpt lat="44.736555241071926" lon="8.332021152334232"><ele>151.0</ele><time>2026-04-27T07:48:18.999Z</time></trkpt><trkpt lat="44.73654971580192" lon="8.33185237913007"><ele>150.75</ele><time>2026-04-27T07:48:19.999Z</time></trkpt><trkpt lat="44.73654386883622" lon="8.33168028580698"><ele>150.5</ele><time>2026-04-27T07:48:20.999Z</time></trkpt><trkpt lat="44.73653956784994" lon="8.331505791718467"><ele>150.25</ele><time>2026-04-27T07:48:21.999Z</time></trkpt><trkpt lat="44.73653307924314" lon="8.331329019400677"><ele>150.0</ele><time>2026-04-27T07:48:22.999Z</time></trkpt><trkpt lat="44.73652544377879" lon="8.331168687947859"><ele>149.75</ele><time>2026-04-27T07:48:23.999Z</time></trkpt><trkpt lat="44.73651850301208" lon="8.331006696892572"><ele>149.5</ele><time>2026-04-27T07:48:24.999Z</time></trkpt><trkpt lat="44.73650942689056" lon="8.330840942733039"><ele>149.25</ele><time>2026-04-27T07:48:25.999Z</time></trkpt><trkpt lat="44.73649594387274" lon="8.3306694158543"><ele>149.0</ele><time>2026-04-27T07:48:26.999Z</time></trkpt><trkpt lat="44.73647109759023" lon="8.330501758015567"><ele>148.5</ele><time>2026-04-27T07:48:27.999Z</time></trkpt><trkpt lat="44.73643628226643" lon="8.33032873773728"><ele>148.0</ele><time>2026-04-27T07:48:28.999Z</time></trkpt><trkpt lat="44.73639308293005" lon="8.330170961642356"><ele>147.5</ele><time>2026-04-27T07:48:29.999Z</time></trkpt><trkpt lat="44.73634512128291" lon="8.330019059501103"><ele>147.0</ele><time>2026-04-27T07:48:30.999Z</time></trkpt><trkpt lat="44.73629436549413" lon="8.329870599391942"><ele>147.0</ele><time>2026-04-27T07:48:31.999Z</time></trkpt><trkpt lat="44.736246937627925" lon="8.32972801636764"><ele>147.0</ele><time>2026-04-27T07:48:32.999Z</time></trkpt><trkpt lat="44.736195431156695" lon="8.329575482513276"><ele>147.0</ele><time>2026-04-27T07:48:33.999Z</time></trkpt><trkpt lat="44.73615138706583" lon="8.329396612660675"><ele>147.0</ele><time>2026-04-27T07:48:34.999Z</time></trkpt><trkpt lat="44.736092060059" lon="8.32921564848586"><ele>148.0</ele><time>2026-04-27T07:48:35.999Z</time></trkpt><trkpt lat="44.736025948409605" lon="8.32901387025267"><ele>149.0</ele><time>2026-04-27T07:48:36.999Z</time></trkpt><trkpt lat="44.73595592255174" lon="8.328800145433883"><ele>150.0</ele><time>2026-04-27T07:48:37.999Z</time></trkpt><trkpt lat="44.735883242732044" lon="8.328578318939275"><ele>150.0</ele><time>2026-04-27T07:48:38.999Z</time></trkpt><trkpt lat="44.73579440201608" lon="8.32835424368129"><ele>150.0</ele><time>2026-04-27T07:48:39.999Z</time></trkpt><trkpt lat="44.735718251907656" lon="8.32811554348481"><ele>150.0</ele><time>2026-04-27T07:48:40.999Z</time></trkpt><trkpt lat="44.73564501951585" lon="8.327894987685095"><ele>150.33333333333334</ele><time>2026-04-27T07:48:41.999Z</time></trkpt><trkpt lat="44.73557827732935" lon="8.327690121604903"><ele>150.66666666666669</ele><time>2026-04-27T07:48:42.999Z</time></trkpt><trkpt lat="44.73551340102046" lon="8.327484029453268"><ele>151.0</ele><time>2026-04-27T07:48:43.999Z</time></trkpt><trkpt lat="44.73545179410757" lon="8.327296936187144"><ele>150.66666666666669</ele><time>2026-04-27T07:48:44.999Z</time></trkpt><trkpt lat="44.73538642649259" lon="8.327102435283328"><ele>150.33333333333334</ele><time>2026-04-27T07:48:45.999Z</time></trkpt><trkpt lat="44.735325595140544" lon="8.326879917143089"><ele>150.0</ele><time>2026-04-27T07:48:46.999Z</time></trkpt><trkpt lat="44.735248083917995" lon="8.32663554838244"><ele>150.33333333333334</ele><time>2026-04-27T07:48:47.999Z</time></trkpt><trkpt lat="44.735169140118174" lon="8.326391008320918"><ele>150.66666666666669</ele><time>2026-04-27T07:48:48.999Z</time></trkpt><trkpt lat="44.73508075224164" lon="8.326171493692797"><ele>151.0</ele><time>2026-04-27T07:48:49.999Z</time></trkpt><trkpt lat="44.73500091394957" lon="8.325930786573188"><ele>151.0</ele><time>2026-04-27T07:48:50.999Z</time></trkpt><trkpt lat="44.73492286169948" lon="8.32569473795047"><ele>151.0</ele><time>2026-04-27T07:48:51.999Z</time></trkpt><trkpt lat="44.734849376367066" lon="8.325468722787294"><ele>151.0</ele><time>2026-04-27T07:48:52.999Z</time></trkpt><trkpt lat="44.734777041017765" lon="8.325241364661409"><ele>150.66666666666669</ele><time>2026-04-27T07:48:53.999Z</time></trkpt><trkpt lat="44.734704312778" lon="8.3250118237585"><ele>150.33333333333334</ele><time>2026-04-27T07:48:54.999Z</time></trkpt><trkpt lat="44.73463032948702" lon="8.324788187630475"><ele>150.0</ele><time>2026-04-27T07:48:55.998Z</time></trkpt><trkpt lat="44.734552731804605" lon="8.324572596241088"><ele>150.25</ele><time>2026-04-27T07:48:56.998Z</time></trkpt><trkpt lat="44.7344727954732" lon="8.324376674096726"><ele>150.5</ele><time>2026-04-27T07:48:57.998Z</time></trkpt><trkpt lat="44.734393389192" lon="8.324197925093301"><ele>150.75</ele><time>2026-04-27T07:48:58.998Z</time></trkpt><trkpt lat="44.73431976123599" lon="8.32404006285295"><ele>151.0</ele><time>2026-04-27T07:48:59.998Z</time></trkpt><trkpt lat="44.73424517275559" lon="8.323894164501464"><ele>150.0</ele><time>2026-04-27T07:49:00.998Z</time></trkpt><trkpt lat="44.73416278958716" lon="8.323758091655014"><ele>149.0</ele><time>2026-04-27T07:49:01.998Z</time></trkpt><trkpt lat="44.734066480009176" lon="8.323626834453949"><ele>148.0</ele><time>2026-04-27T07:49:02.998Z</time></trkpt><trkpt lat="44.73396755223504" lon="8.323500421655885"><ele>147.0</ele><time>2026-04-27T07:49:03.998Z</time></trkpt><trkpt lat="44.733860537534646" lon="8.323367798219962"><ele>147.0</ele><time>2026-04-27T07:49:04.998Z</time></trkpt><trkpt lat="44.73375114016319" lon="8.323231031468634"><ele>147.0</ele><time>2026-04-27T07:49:05.998Z</time></trkpt><trkpt lat="44.733641541412325" lon="8.323091575752954"><ele>147.0</ele><time>2026-04-27T07:49:06.998Z</time></trkpt><trkpt lat="44.73353308856746" lon="8.322947016720702"><ele>147.0</ele><time>2026-04-27T07:49:07.998Z</time></trkpt><trkpt lat="44.73342238001084" lon="8.32280377483031"><ele>147.25</ele><time>2026-04-27T07:49:08.998Z</time></trkpt><trkpt lat="44.733311766974424" lon="8.322664018789503"><ele>147.5</ele><time>2026-04-27T07:49:09.998Z</time></trkpt><trkpt lat="44.73319895741369" lon="8.322532489417078"><ele>147.75</ele><time>2026-04-27T07:49:10.998Z</time></trkpt><trkpt lat="44.73307891611629" lon="8.322412206471217"><ele>148.0</ele><time>2026-04-27T07:49:11.998Z</time></trkpt><trkpt lat="44.73295321455698" lon="8.322294811258528"><ele>148.0</ele><time>2026-04-27T07:49:12.998Z</time></trkpt><trkpt lat="44.73282399313578" lon="8.322179189882432"><ele>148.0</ele><time>2026-04-27T07:49:13.998Z</time></trkpt><trkpt lat="44.732694321416886" lon="8.322062921708255"><ele>148.0</ele><time>2026-04-27T07:49:14.998Z</time></trkpt><trkpt lat="44.7325645560348" lon="8.321940553949348"><ele>148.33333333333334</ele><time>2026-04-27T07:49:15.998Z</time></trkpt><trkpt lat="44.73243217318976" lon="8.321812604976541"><ele>148.66666666666666</ele><time>2026-04-27T07:49:16.998Z</time></trkpt><trkpt lat="44.73229448536635" lon="8.321687336856911"><ele>149.0</ele><time>2026-04-27T07:49:18Z</time></trkpt><trkpt lat="44.732162726430936" lon="8.321573808548447"><ele>149.0</ele><time>2026-04-27T07:49:19Z</time></trkpt><trkpt lat="44.73204013758857" lon="8.321468796289901"><ele>149.0</ele><time>2026-04-27T07:49:20Z</time></trkpt><trkpt lat="44.73191242688632" lon="8.321379600149848"><ele>149.0</ele><time>2026-04-27T07:49:21Z</time></trkpt><trkpt lat="44.7317781666917" lon="8.321309207448651"><ele>149.0</ele><time>2026-04-27T07:49:22Z</time></trkpt><trkpt lat="44.73163951777441" lon="8.321256191291804"><ele>149.25</ele><time>2026-04-27T07:49:23Z</time></trkpt><trkpt lat="44.731496691924995" lon="8.321217888062746"><ele>149.5</ele><time>2026-04-27T07:49:24Z</time></trkpt><trkpt lat="44.73134969772227" lon="8.321187440685252"><ele>149.75</ele><time>2026-04-27T07:49:25Z</time></trkpt><trkpt lat="44.731197564691016" lon="8.32115710320649"><ele>150.0</ele><time>2026-04-27T07:49:26Z</time></trkpt><trkpt lat="44.7310404313595" lon="8.321132216074323"><ele>150.33333333333334</ele><time>2026-04-27T07:49:27Z</time></trkpt><trkpt lat="44.730875641926886" lon="8.321101031606787"><ele>150.66666666666669</ele><time>2026-04-27T07:49:28Z</time></trkpt><trkpt lat="44.73071135797169" lon="8.321073071039963"><ele>151.0</ele><time>2026-04-27T07:49:29Z</time></trkpt><trkpt lat="44.73055045754091" lon="8.321045797208459"><ele>151.0</ele><time>2026-04-27T07:49:30Z</time></trkpt><trkpt lat="44.730393686613304" lon="8.32102103714344"><ele>151.0</ele><time>2026-04-27T07:49:31Z</time></trkpt><trkpt lat="44.730249257566726" lon="8.32099707842763"><ele>151.0</ele><time>2026-04-27T07:49:32Z</time></trkpt><trkpt lat="44.73010897688373" lon="8.320976075017546"><ele>151.0</ele><time>2026-04-27T07:49:33Z</time></trkpt><trkpt lat="44.72996494978659" lon="8.320965499773806"><ele>151.5</ele><time>2026-04-27T07:49:34Z</time></trkpt><trkpt lat="44.7298228692158" lon="8.320967807470689"><ele>152.0</ele><time>2026-04-27T07:49:35Z</time></trkpt><trkpt lat="44.72968143989134" lon="8.320981526002454"><ele>152.5</ele><time>2026-04-27T07:49:36Z</time></trkpt><trkpt lat="44.72954521696785" lon="8.321006288160225"><ele>153.0</ele><time>2026-04-27T07:49:37Z</time></trkpt><trkpt lat="44.72942236004721" lon="8.32103729305824"><ele>153.20000000000002</ele><time>2026-04-27T07:49:38Z</time></trkpt><trkpt lat="44.729308230290734" lon="8.321064893632116"><ele>153.4</ele><time>2026-04-27T07:49:39Z</time></trkpt><trkpt lat="44.72920409192303" lon="8.321087755262631"><ele>153.60000000000002</ele><time>2026-04-27T07:49:40Z</time></trkpt><trkpt lat="44.72910888861548" lon="8.321114435376574"><ele>153.8</ele><time>2026-04-27T07:49:41Z</time></trkpt><trkpt lat="44.72902254781773" lon="8.32113298100713"><ele>154.0</ele><time>2026-04-27T07:49:42Z</time></trkpt><trkpt lat="44.72894044631775" lon="8.32110565851926"><ele>154.0</ele><time>2026-04-27T07:49:43Z</time></trkpt><trkpt lat="44.72885512825829" lon="8.32106033473239"><ele>154.0</ele><time>2026-04-27T07:49:44Z</time></trkpt><trkpt lat="44.72875835048165" lon="8.32103628413626"><ele>154.0</ele><time>2026-04-27T07:49:45Z</time></trkpt><trkpt lat="44.72865019457829" lon="8.321048466208396"><ele>154.0</ele><time>2026-04-27T07:49:46Z</time></trkpt><trkpt lat="44.72852918587308" lon="8.321027775711741"><ele>154.0</ele><time>2026-04-27T07:49:47Z</time></trkpt><trkpt lat="44.72840698812895" lon="8.32094757356454"><ele>154.0</ele><time>2026-04-27T07:49:48Z</time></trkpt><trkpt lat="44.72828443072369" lon="8.320838210251363"><ele>154.0</ele><time>2026-04-27T07:49:49Z</time></trkpt><trkpt lat="44.72815788359358" lon="8.320723729116818"><ele>154.0</ele><time>2026-04-27T07:49:50Z</time></trkpt><trkpt lat="44.728032503701996" lon="8.320607388569202"><ele>154.0</ele><time>2026-04-27T07:49:51Z</time></trkpt><trkpt lat="44.72791167324767" lon="8.320495947970182"><ele>153.75</ele><time>2026-04-27T07:49:52Z</time></trkpt><trkpt lat="44.72780193940709" lon="8.320385254288684"><ele>153.5</ele><time>2026-04-27T07:49:52.999Z</time></trkpt><trkpt lat="44.727684859692786" lon="8.320280543338631"><ele>153.25</ele><time>2026-04-27T07:49:53.999Z</time></trkpt><trkpt lat="44.72757311368242" lon="8.320176754520917"><ele>153.0</ele><time>2026-04-27T07:49:54.999Z</time></trkpt><trkpt lat="44.727478100169805" lon="8.320082726301615"><ele>153.0</ele><time>2026-04-27T07:49:55.999Z</time></trkpt><trkpt lat="44.727388220876556" lon="8.319991155390666"><ele>153.0</ele><time>2026-04-27T07:49:56.999Z</time></trkpt><trkpt lat="44.72729505027073" lon="8.319904996534328"><ele>153.0</ele><time>2026-04-27T07:49:57.999Z</time></trkpt><trkpt lat="44.72723570144914" lon="8.319842307989983"><ele>153.0</ele><time>2026-04-27T07:49:58.999Z</time></trkpt><trkpt lat="44.72716942300044" lon="8.319776259726765"><ele>153.0</ele><time>2026-04-27T07:50:00.999Z</time></trkpt><trkpt lat="44.727105371934144" lon="8.319729996996271"><ele>152.8</ele><time>2026-04-27T07:50:06.999Z</time></trkpt><trkpt lat="44.72699626296496" lon="8.319641509699506"><ele>152.60000000000002</ele><time>2026-04-27T07:50:19.999Z</time></trkpt><trkpt lat="44.72691616244239" lon="8.319570560400358"><ele>152.39999999999998</ele><time>2026-04-27T07:50:20.999Z</time></trkpt><trkpt lat="44.72682967742273" lon="8.319492118686071"><ele>152.2</ele><time>2026-04-27T07:50:21.999Z</time></trkpt><trkpt lat="44.72672924481389" lon="8.31939724969633"><ele>152.0</ele><time>2026-04-27T07:50:22.999Z</time></trkpt><trkpt lat="44.72661649499096" lon="8.319292830289532"><ele>152.5</ele><time>2026-04-27T07:50:23.999Z</time></trkpt><trkpt lat="44.72650127099529" lon="8.31918558959946"><ele>153.0</ele><time>2026-04-27T07:50:24.999Z</time></trkpt><trkpt lat="44.72638173899903" lon="8.319071763867008"><ele>153.5</ele><time>2026-04-27T07:50:25.999Z</time></trkpt><trkpt lat="44.72626299341013" lon="8.318958314491578"><ele>154.0</ele><time>2026-04-27T07:50:26.999Z</time></trkpt><trkpt lat="44.72615580915951" lon="8.318858768340732"><ele>154.25</ele><time>2026-04-27T07:50:27.999Z</time></trkpt><trkpt lat="44.72604022877877" lon="8.318751579094796"><ele>154.5</ele><time>2026-04-27T07:50:28.999Z</time></trkpt><trkpt lat="44.72591904692787" lon="8.318636330941708"><ele>154.75</ele><time>2026-04-27T07:50:29.999Z</time></trkpt><trkpt lat="44.7258056097938" lon="8.318525008395214"><ele>155.0</ele><time>2026-04-27T07:50:30.999Z</time></trkpt><trkpt lat="44.725687120237794" lon="8.318405573552463"><ele>155.0</ele><time>2026-04-27T07:50:31.999Z</time></trkpt><trkpt lat="44.725578474181475" lon="8.31827388875069"><ele>155.0</ele><time>2026-04-27T07:50:32.999Z</time></trkpt><trkpt lat="44.72547865870748" lon="8.31812534755154"><ele>155.0</ele><time>2026-04-27T07:50:33.999Z</time></trkpt><trkpt lat="44.7253882575162" lon="8.317958977349894"><ele>155.0</ele><time>2026-04-27T07:50:34.999Z</time></trkpt><trkpt lat="44.725304097406365" lon="8.317793953286717"><ele>155.0</ele><time>2026-04-27T07:50:35.999Z</time></trkpt><trkpt lat="44.725222117395205" lon="8.317625128978154"><ele>155.0</ele><time>2026-04-27T07:50:36.999Z</time></trkpt><trkpt lat="44.72514863497887" lon="8.31746929389174"><ele>155.0</ele><time>2026-04-27T07:50:37.999Z</time></trkpt><trkpt lat="44.725072808842" lon="8.317308524302481"><ele>155.0</ele><time>2026-04-27T07:50:38.999Z</time></trkpt><trkpt lat="44.72499414634464" lon="8.317144176167613"><ele>155.0</ele><time>2026-04-27T07:50:39.999Z</time></trkpt><trkpt lat="44.72491787773101" lon="8.316981917257962"><ele>155.0</ele><time>2026-04-27T07:50:40.999Z</time></trkpt><trkpt lat="44.724841572559804" lon="8.316823095060332"><ele>155.0</ele><time>2026-04-27T07:50:41.999Z</time></trkpt><trkpt lat="44.72476796743237" lon="8.316672688124152"><ele>155.0</ele><time>2026-04-27T07:50:42.999Z</time></trkpt><trkpt lat="44.724696707281026" lon="8.316528331071517"><ele>155.25</ele><time>2026-04-27T07:50:43.999Z</time></trkpt><trkpt lat="44.72462250861216" lon="8.316379179358776"><ele>155.5</ele><time>2026-04-27T07:50:44.999Z</time></trkpt><trkpt lat="44.72454674586859" lon="8.31622851036897"><ele>155.75</ele><time>2026-04-27T07:50:45.999Z</time></trkpt><trkpt lat="44.72446978971935" lon="8.316075476990637"><ele>156.0</ele><time>2026-04-27T07:50:46.999Z</time></trkpt><trkpt lat="44.724394281972174" lon="8.315923219579489"><ele>156.0</ele><time>2026-04-27T07:50:47.999Z</time></trkpt><trkpt lat="44.72432531332062" lon="8.31577400474288"><ele>156.0</ele><time>2026-04-27T07:50:48.999Z</time></trkpt><trkpt lat="44.724264119083145" lon="8.315620132806242"><ele>156.0</ele><time>2026-04-27T07:50:49.999Z</time></trkpt><trkpt lat="44.7242158448805" lon="8.315452413962085"><ele>156.0</ele><time>2026-04-27T07:50:50.999Z</time></trkpt><trkpt lat="44.72418139132715" lon="8.31527691225756"><ele>156.0</ele><time>2026-04-27T07:50:51.999Z</time></trkpt><trkpt lat="44.72415111574752" lon="8.315103691044747"><ele>156.0</ele><time>2026-04-27T07:50:52.999Z</time></trkpt><trkpt lat="44.72411898990267" lon="8.314946666401081"><ele>156.0</ele><time>2026-04-27T07:50:53.999Z</time></trkpt><trkpt lat="44.7240861384499" lon="8.31478577571669"><ele>156.0</ele><time>2026-04-27T07:50:54.999Z</time></trkpt><trkpt lat="44.72405614956367" lon="8.314625065099522"><ele>155.25</ele><time>2026-04-27T07:50:55.999Z</time></trkpt><trkpt lat="44.72402283577337" lon="8.31446707959244"><ele>154.5</ele><time>2026-04-27T07:50:56.999Z</time></trkpt><trkpt lat="44.72398792297824" lon="8.314298958276872"><ele>153.75</ele><time>2026-04-27T07:50:57.999Z</time></trkpt><trkpt lat="44.72394902667072" lon="8.314121325923638"><ele>153.0</ele><time>2026-04-27T07:50:58.999Z</time></trkpt><trkpt lat="44.723911200164196" lon="8.313937121168145"><ele>152.5</ele><time>2026-04-27T07:50:59.999Z</time></trkpt><trkpt lat="44.7238749574883" lon="8.313741655070007"><ele>152.0</ele><time>2026-04-27T07:51:00.999Z</time></trkpt><trkpt lat="44.723834571770894" lon="8.313546711070408"><ele>151.5</ele><time>2026-04-27T07:51:01.999Z</time></trkpt><trkpt lat="44.72379548190069" lon="8.313344760502186"><ele>151.0</ele><time>2026-04-27T07:51:02.999Z</time></trkpt><trkpt lat="44.72375561781785" lon="8.313147737653031"><ele>150.75</ele><time>2026-04-27T07:51:03.998Z</time></trkpt><trkpt lat="44.7237153912202" lon="8.312953201661697"><ele>150.5</ele><time>2026-04-27T07:51:04.998Z</time></trkpt><trkpt lat="44.723678646977966" lon="8.312756186253814"><ele>150.25</ele><time>2026-04-27T07:51:05.998Z</time></trkpt><trkpt lat="44.723639868478706" lon="8.312557222092114"><ele>150.0</ele><time>2026-04-27T07:51:06.998Z</time></trkpt><trkpt lat="44.72360015503279" lon="8.312356435291209"><ele>151.75</ele><time>2026-04-27T07:51:07.998Z</time></trkpt><trkpt lat="44.72356142757258" lon="8.312159642526723"><ele>153.5</ele><time>2026-04-27T07:51:08.998Z</time></trkpt><trkpt lat="44.72352431382476" lon="8.311958084812883"><ele>155.25</ele><time>2026-04-27T07:51:09.998Z</time></trkpt><trkpt lat="44.723485581908115" lon="8.311746698700142"><ele>157.0</ele><time>2026-04-27T07:51:10.998Z</time></trkpt><trkpt lat="44.72344835230712" lon="8.311542100633798"><ele>157.0</ele><time>2026-04-27T07:51:11.998Z</time></trkpt><trkpt lat="44.7234100873755" lon="8.311335912024143"><ele>157.0</ele><time>2026-04-27T07:51:12.998Z</time></trkpt><trkpt lat="44.72337315230205" lon="8.311125416261062"><ele>157.0</ele><time>2026-04-27T07:51:13.998Z</time></trkpt><trkpt lat="44.72333187204553" lon="8.310925540251194"><ele>157.0</ele><time>2026-04-27T07:51:14.998Z</time></trkpt><trkpt lat="44.72328972136991" lon="8.310734555820485"><ele>157.0</ele><time>2026-04-27T07:51:15.998Z</time></trkpt><trkpt lat="44.72325921699344" lon="8.310549466209096"><ele>157.0</ele><time>2026-04-27T07:51:16.998Z</time></trkpt><trkpt lat="44.72320643323328" lon="8.310381328535248"><ele>157.0</ele><time>2026-04-27T07:51:17.998Z</time></trkpt><trkpt lat="44.72314335604429" lon="8.310210638119766"><ele>156.25</ele><time>2026-04-27T07:51:18.998Z</time></trkpt><trkpt lat="44.72306740872308" lon="8.31003964562054"><ele>155.5</ele><time>2026-04-27T07:51:19.998Z</time></trkpt><trkpt lat="44.72296860766256" lon="8.30988887912087"><ele>154.75</ele><time>2026-04-27T07:51:20.998Z</time></trkpt><trkpt lat="44.7228750313134" lon="8.309733225505674"><ele>154.0</ele><time>2026-04-27T07:51:21.998Z</time></trkpt><trkpt lat="44.72277433099053" lon="8.30958241625079"><ele>154.25</ele><time>2026-04-27T07:51:22.998Z</time></trkpt><trkpt lat="44.72267792734653" lon="8.30942992498032"><ele>154.5</ele><time>2026-04-27T07:51:24Z</time></trkpt><trkpt lat="44.72258402895343" lon="8.309269499493372"><ele>154.75</ele><time>2026-04-27T07:51:25Z</time></trkpt><trkpt lat="44.722497977689905" lon="8.309096490711076"><ele>155.0</ele><time>2026-04-27T07:51:26Z</time></trkpt><trkpt lat="44.722417839814725" lon="8.308915844629071"><ele>154.5</ele><time>2026-04-27T07:51:27Z</time></trkpt><trkpt lat="44.722343144948205" lon="8.308730192984056"><ele>154.0</ele><time>2026-04-27T07:51:28Z</time></trkpt><trkpt lat="44.72227405411366" lon="8.308556710431764"><ele>153.5</ele><time>2026-04-27T07:51:29Z</time></trkpt><trkpt lat="44.722210937709114" lon="8.30839219299403"><ele>153.0</ele><time>2026-04-27T07:51:30Z</time></trkpt><trkpt lat="44.72215182259137" lon="8.308240585946868"><ele>153.0</ele><time>2026-04-27T07:51:31Z</time></trkpt><trkpt lat="44.72210383688134" lon="8.308095330546834"><ele>153.0</ele><time>2026-04-27T07:51:32Z</time></trkpt><trkpt lat="44.72205521017136" lon="8.307962091450031"><ele>153.0</ele><time>2026-04-27T07:51:33Z</time></trkpt><trkpt lat="44.72200480780666" lon="8.307824342076291"><ele>153.0</ele><time>2026-04-27T07:51:34Z</time></trkpt><trkpt lat="44.721955081615675" lon="8.307689308803853"><ele>153.0</ele><time>2026-04-27T07:51:35Z</time></trkpt><trkpt lat="44.72190301716377" lon="8.307557078464155"><ele>153.0</ele><time>2026-04-27T07:51:36Z</time></trkpt><trkpt lat="44.72185086715449" lon="8.307422026994345"><ele>153.0</ele><time>2026-04-27T07:51:37Z</time></trkpt><trkpt lat="44.721796210112274" lon="8.307294176742039"><ele>153.0</ele><time>2026-04-27T07:51:38Z</time></trkpt><trkpt lat="44.72173520466717" lon="8.307158962879628"><ele>153.0</ele><time>2026-04-27T07:51:39Z</time></trkpt><trkpt lat="44.721665773482734" lon="8.307031666026962"><ele>153.0</ele><time>2026-04-27T07:51:40Z</time></trkpt><trkpt lat="44.72158596004566" lon="8.306915897016124"><ele>153.0</ele><time>2026-04-27T07:51:41Z</time></trkpt><trkpt lat="44.72149934137473" lon="8.306804465776557"><ele>153.0</ele><time>2026-04-27T07:51:42Z</time></trkpt><trkpt lat="44.72140874059058" lon="8.30669129801374"><ele>153.0</ele><time>2026-04-27T07:51:43Z</time></trkpt><trkpt lat="44.7213176568246" lon="8.306568000971284"><ele>153.0</ele><time>2026-04-27T07:51:44Z</time></trkpt><trkpt lat="44.7212259915987" lon="8.306442408615649"><ele>153.0</ele><time>2026-04-27T07:51:45Z</time></trkpt><trkpt lat="44.72112870326467" lon="8.306316396416047"><ele>153.0</ele><time>2026-04-27T07:51:46Z</time></trkpt><trkpt lat="44.72102747745567" lon="8.30618554796061"><ele>153.0</ele><time>2026-04-27T07:51:47Z</time></trkpt><trkpt lat="44.72092663478638" lon="8.306052716825455"><ele>153.0</ele><time>2026-04-27T07:51:48Z</time></trkpt><trkpt lat="44.72082162026625" lon="8.305915335506684"><ele>153.0</ele><time>2026-04-27T07:51:49Z</time></trkpt><trkpt lat="44.720719308595" lon="8.30577270536128"><ele>153.0</ele><time>2026-04-27T07:51:50Z</time></trkpt><trkpt lat="44.72061363587962" lon="8.305627072151994"><ele>153.0</ele><time>2026-04-27T07:51:51Z</time></trkpt><trkpt lat="44.7205095060078" lon="8.305474109241857"><ele>153.0</ele><time>2026-04-27T07:51:52Z</time></trkpt><trkpt lat="44.72040206950093" lon="8.305314504205892"><ele>153.0</ele><time>2026-04-27T07:51:53Z</time></trkpt><trkpt lat="44.720296423257885" lon="8.305146411714528"><ele>153.0</ele><time>2026-04-27T07:51:54Z</time></trkpt><trkpt lat="44.72019315439416" lon="8.304968498132897"><ele>153.0</ele><time>2026-04-27T07:51:55Z</time></trkpt><trkpt lat="44.72009139561701" lon="8.30478242916962"><ele>153.0</ele><time>2026-04-27T07:51:56Z</time></trkpt><trkpt lat="44.7199928703529" lon="8.304596049429296"><ele>153.0</ele><time>2026-04-27T07:51:57Z</time></trkpt><trkpt lat="44.71989241954748" lon="8.304396777614006"><ele>153.0</ele><time>2026-04-27T07:51:58Z</time></trkpt><trkpt lat="44.71979598023347" lon="8.304191879387275"><ele>153.0</ele><time>2026-04-27T07:51:59Z</time></trkpt><trkpt lat="44.719700875760815" lon="8.30398074557596"><ele>153.0</ele><time>2026-04-27T07:51:59.999Z</time></trkpt><trkpt lat="44.719612897967814" lon="8.303767838869836"><ele>153.0</ele><time>2026-04-27T07:52:00.999Z</time></trkpt><trkpt lat="44.71953016611618" lon="8.303561884100583"><ele>153.66666666666666</ele><time>2026-04-27T07:52:01.999Z</time></trkpt><trkpt lat="44.71945042351821" lon="8.303345852137953"><ele>154.33333333333331</ele><time>2026-04-27T07:52:02.999Z</time></trkpt><trkpt lat="44.71937331491975" lon="8.303119233393426"><ele>155.0</ele><time>2026-04-27T07:52:03.999Z</time></trkpt><trkpt lat="44.71929685092148" lon="8.302886288833395"><ele>155.0</ele><time>2026-04-27T07:52:04.999Z</time></trkpt><trkpt lat="44.71922832835366" lon="8.302650959212345"><ele>155.0</ele><time>2026-04-27T07:52:05.999Z</time></trkpt><trkpt lat="44.7191643494976" lon="8.302409230536092"><ele>155.0</ele><time>2026-04-27T07:52:06.999Z</time></trkpt><trkpt lat="44.71910311569953" lon="8.30216164479821"><ele>155.33333333333331</ele><time>2026-04-27T07:52:07.999Z</time></trkpt><trkpt lat="44.719048238762596" lon="8.301918232679466"><ele>155.66666666666666</ele><time>2026-04-27T07:52:08.999Z</time></trkpt><trkpt lat="44.71900227066588" lon="8.30166916681543"><ele>156.0</ele><time>2026-04-27T07:52:09.999Z</time></trkpt><trkpt lat="44.718952944520545" lon="8.301417963430408"><ele>155.33333333333334</ele><time>2026-04-27T07:52:10.999Z</time></trkpt><trkpt lat="44.71890804799457" lon="8.301174267083185"><ele>154.66666666666669</ele><time>2026-04-27T07:52:11.999Z</time></trkpt><trkpt lat="44.718859703248974" lon="8.300925574603852"><ele>154.0</ele><time>2026-04-27T07:52:12.999Z</time></trkpt><trkpt lat="44.71881226489814" lon="8.300678270780239"><ele>153.0</ele><time>2026-04-27T07:52:13.999Z</time></trkpt><trkpt lat="44.718761427335274" lon="8.300424310019732"><ele>152.0</ele><time>2026-04-27T07:52:14.999Z</time></trkpt><trkpt lat="44.71871393201832" lon="8.300177894520854"><ele>151.0</ele><time>2026-04-27T07:52:15.999Z</time></trkpt><trkpt lat="44.718666973023375" lon="8.299930743521422"><ele>150.66666666666669</ele><time>2026-04-27T07:52:16.999Z</time></trkpt><trkpt lat="44.71862077296191" lon="8.299685644396638"><ele>150.33333333333334</ele><time>2026-04-27T07:52:17.999Z</time></trkpt><trkpt lat="44.71857696290757" lon="8.299448116273098"><ele>150.0</ele><time>2026-04-27T07:52:18.999Z</time></trkpt><trkpt lat="44.71853744859822" lon="8.299221764699187"><ele>151.5</ele><time>2026-04-27T07:52:19.999Z</time></trkpt><trkpt lat="44.718496453114405" lon="8.29900588574287"><ele>153.0</ele><time>2026-04-27T07:52:20.999Z</time></trkpt><trkpt lat="44.71845760532137" lon="8.298808516820163"><ele>154.5</ele><time>2026-04-27T07:52:21.999Z</time></trkpt><trkpt lat="44.71842360975433" lon="8.298647011646043"><ele>156.0</ele><time>2026-04-27T07:52:22.999Z</time></trkpt><trkpt lat="44.71840557969526" lon="8.298528479189182"><ele>156.0</ele><time>2026-04-27T07:52:23.999Z</time></trkpt><trkpt lat="44.71838354412953" lon="8.29842624464191"><ele>156.0</ele><time>2026-04-27T07:52:24.999Z</time></trkpt><trkpt lat="44.71834474522282" lon="8.298316073139551"><ele>156.0</ele><time>2026-04-27T07:52:25.999Z</time></trkpt><trkpt lat="44.718293895806994" lon="8.298205853375471"><ele>156.0</ele><time>2026-04-27T07:52:26.999Z</time></trkpt><trkpt lat="44.71822302054463" lon="8.29810045366134"><ele>156.0</ele><time>2026-04-27T07:52:27.999Z</time></trkpt><trkpt lat="44.71814226722216" lon="8.29799868651529"><ele>156.0</ele><time>2026-04-27T07:52:28.999Z</time></trkpt><trkpt lat="44.7180457071345" lon="8.29788490884149"><ele>156.0</ele><time>2026-04-27T07:52:29.999Z</time></trkpt><trkpt lat="44.71794407642974" lon="8.297789944102618"><ele>156.0</ele><time>2026-04-27T07:52:30.999Z</time></trkpt><trkpt lat="44.71785644041407" lon="8.297673056074592"><ele>156.0</ele><time>2026-04-27T07:52:31.999Z</time></trkpt><trkpt lat="44.717763980332826" lon="8.297591588587862"><ele>156.25</ele><time>2026-04-27T07:52:32.999Z</time></trkpt><trkpt lat="44.71768747054126" lon="8.297504571061225"><ele>156.5</ele><time>2026-04-27T07:52:33.999Z</time></trkpt><trkpt lat="44.717600628318685" lon="8.297412051462326"><ele>156.75</ele><time>2026-04-27T07:52:34.999Z</time></trkpt><trkpt lat="44.71750630677788" lon="8.297309724539593"><ele>157.0</ele><time>2026-04-27T07:52:35.999Z</time></trkpt><trkpt lat="44.71740986531675" lon="8.297201946519015"><ele>157.0</ele><time>2026-04-27T07:52:36.999Z</time></trkpt><trkpt lat="44.71731231117517" lon="8.297091651186431"><ele>157.0</ele><time>2026-04-27T07:52:37.999Z</time></trkpt><trkpt lat="44.71721154720442" lon="8.296978181835897"><ele>157.0</ele><time>2026-04-27T07:52:38.999Z</time></trkpt><trkpt lat="44.71710908838552" lon="8.296864862654052"><ele>157.0</ele><time>2026-04-27T07:52:39.999Z</time></trkpt><trkpt lat="44.717004408099285" lon="8.296750396639455"><ele>157.5</ele><time>2026-04-27T07:52:40.999Z</time></trkpt><trkpt lat="44.71690075212399" lon="8.296638672310953"><ele>158.0</ele><time>2026-04-27T07:52:41.999Z</time></trkpt><trkpt lat="44.71679788703137" lon="8.296528747455685"><ele>158.5</ele><time>2026-04-27T07:52:42.999Z</time></trkpt><trkpt lat="44.71669294285811" lon="8.296416456716537"><ele>159.0</ele><time>2026-04-27T07:52:43.999Z</time></trkpt><trkpt lat="44.7165925393034" lon="8.296310807768734"><ele>159.0</ele><time>2026-04-27T07:52:44.999Z</time></trkpt><trkpt lat="44.71648880294742" lon="8.296203127353627"><ele>159.0</ele><time>2026-04-27T07:52:45.999Z</time></trkpt><trkpt lat="44.71639257967201" lon="8.296087149079002"><ele>159.0</ele><time>2026-04-27T07:52:46.999Z</time></trkpt><trkpt lat="44.716304563764666" lon="8.295985736597038"><ele>159.0</ele><time>2026-04-27T07:52:47.999Z</time></trkpt><trkpt lat="44.716218760321276" lon="8.29589720079372"><ele>159.0</ele><time>2026-04-27T07:52:48.999Z</time></trkpt><trkpt lat="44.71615009984534" lon="8.295800707429331"><ele>159.0</ele><time>2026-04-27T07:52:49.999Z</time></trkpt><trkpt lat="44.71607731486858" lon="8.295720890074222"><ele>159.0</ele><time>2026-04-27T07:52:50.999Z</time></trkpt><trkpt lat="44.716004581274255" lon="8.295646256142664"><ele>159.0</ele><time>2026-04-27T07:52:51.999Z</time></trkpt><trkpt lat="44.71594643397181" lon="8.295539595244792"><ele>159.0</ele><time>2026-04-27T07:52:52.999Z</time></trkpt><trkpt lat="44.71589924819783" lon="8.295421225851412"><ele>158.8</ele><time>2026-04-27T07:52:53.999Z</time></trkpt><trkpt lat="44.7158634730127" lon="8.295295345710834"><ele>158.60000000000002</ele><time>2026-04-27T07:52:54.999Z</time></trkpt><trkpt lat="44.71583656567883" lon="8.29514941368064"><ele>158.4</ele><time>2026-04-27T07:52:55.999Z</time></trkpt><trkpt lat="44.715811830430304" lon="8.294997951198395"><ele>158.20000000000002</ele><time>2026-04-27T07:52:56.999Z</time></trkpt><trkpt lat="44.7157902605985" lon="8.294829541646006"><ele>158.0</ele><time>2026-04-27T07:52:57.999Z</time></trkpt><trkpt lat="44.71576125154146" lon="8.29466040748014"><ele>158.0</ele><time>2026-04-27T07:52:58.999Z</time></trkpt><trkpt lat="44.71573226285807" lon="8.294454072053309"><ele>158.0</ele><time>2026-04-27T07:52:59.999Z</time></trkpt><trkpt lat="44.715722113733484" lon="8.294354727825143"><ele>158.0</ele><time>2026-04-27T07:53:00.999Z</time></trkpt><trkpt lat="44.71569038931471" lon="8.294170242151417"><ele>158.0</ele><time>2026-04-27T07:53:01.999Z</time></trkpt><trkpt lat="44.715662563795476" lon="8.293989721251313"><ele>157.8</ele><time>2026-04-27T07:53:02.999Z</time></trkpt><trkpt lat="44.715641622807865" lon="8.293819570492907"><ele>157.60000000000002</ele><time>2026-04-27T07:53:03.999Z</time></trkpt><trkpt lat="44.71562269102226" lon="8.29365987476011"><ele>157.39999999999998</ele><time>2026-04-27T07:53:04.999Z</time></trkpt><trkpt lat="44.7155967482296" lon="8.293512070116396"><ele>157.2</ele><time>2026-04-27T07:53:05.999Z</time></trkpt><trkpt lat="44.715576158957546" lon="8.2933731393042"><ele>157.0</ele><time>2026-04-27T07:53:06.999Z</time></trkpt><trkpt lat="44.71556201515359" lon="8.293236446303553"><ele>157.0</ele><time>2026-04-27T07:53:07.999Z</time></trkpt><trkpt lat="44.71554538435081" lon="8.293092137585136"><ele>157.0</ele><time>2026-04-27T07:53:08.999Z</time></trkpt><trkpt lat="44.715526197715704" lon="8.292941765659803"><ele>157.0</ele><time>2026-04-27T07:53:09.999Z</time></trkpt><trkpt lat="44.71550845508953" lon="8.292789615651202"><ele>157.0</ele><time>2026-04-27T07:53:10.999Z</time></trkpt><trkpt lat="44.715491231064405" lon="8.292634451884158"><ele>157.0</ele><time>2026-04-27T07:53:11.999Z</time></trkpt><trkpt lat="44.71547580769713" lon="8.292479364485907"><ele>157.25</ele><time>2026-04-27T07:53:12.999Z</time></trkpt><trkpt lat="44.715448113714906" lon="8.292310791926852"><ele>157.5</ele><time>2026-04-27T07:53:13.999Z</time></trkpt><trkpt lat="44.71541976135952" lon="8.292152359212997"><ele>157.75</ele><time>2026-04-27T07:53:14.999Z</time></trkpt><trkpt lat="44.71540158488344" lon="8.291989270535977"><ele>158.0</ele><time>2026-04-27T07:53:15.999Z</time></trkpt><trkpt lat="44.7153797670679" lon="8.291810651111197"><ele>157.25</ele><time>2026-04-27T07:53:16.998Z</time></trkpt><trkpt lat="44.715350639441134" lon="8.291642524637513"><ele>156.5</ele><time>2026-04-27T07:53:17.998Z</time></trkpt><trkpt lat="44.71532051434916" lon="8.291471606320028"><ele>155.75</ele><time>2026-04-27T07:53:18.998Z</time></trkpt><trkpt lat="44.71528652307084" lon="8.291297654514064"><ele>155.0</ele><time>2026-04-27T07:53:19.998Z</time></trkpt><trkpt lat="44.71524711095566" lon="8.29112985556114"><ele>156.25</ele><time>2026-04-27T07:53:20.998Z</time></trkpt><trkpt lat="44.715203659376876" lon="8.290962958425554"><ele>157.5</ele><time>2026-04-27T07:53:21.998Z</time></trkpt><trkpt lat="44.715167749917136" lon="8.290798311400414"><ele>158.75</ele><time>2026-04-27T07:53:22.998Z</time></trkpt><trkpt lat="44.715139000662724" lon="8.290650254809075"><ele>160.0</ele><time>2026-04-27T07:53:23.998Z</time></trkpt><trkpt lat="44.71510680710549" lon="8.290502436018903"><ele>160.6</ele><time>2026-04-27T07:53:24.998Z</time></trkpt><trkpt lat="44.715079017903086" lon="8.290374269779516"><ele>161.2</ele><time>2026-04-27T07:53:25.998Z</time></trkpt><trkpt lat="44.71505406781068" lon="8.29027748981859"><ele>161.8</ele><time>2026-04-27T07:53:26.998Z</time></trkpt><trkpt lat="44.71502871064941" lon="8.290183881081575"><ele>162.4</ele><time>2026-04-27T07:53:27.998Z</time></trkpt><trkpt lat="44.715002865038436" lon="8.29007731080793"><ele>163.0</ele><time>2026-04-27T07:53:30Z</time></trkpt><trkpt lat="44.71488460522038" lon="8.289989962853697"><ele>163.0</ele><time>2026-04-27T07:53:38Z</time></trkpt><trkpt lat="44.7147896151086" lon="8.29004405785602"><ele>163.0</ele><time>2026-04-27T07:53:39Z</time></trkpt><trkpt lat="44.71468785013998" lon="8.29011810132402"><ele>163.0</ele><time>2026-04-27T07:53:40Z</time></trkpt><trkpt lat="44.7145881004901" lon="8.290174130318778"><ele>163.0</ele><time>2026-04-27T07:53:41Z</time></trkpt><trkpt lat="44.71447962537113" lon="8.290228406099287"><ele>163.0</ele><time>2026-04-27T07:53:42Z</time></trkpt><trkpt lat="44.714375517932176" lon="8.290271673179477"><ele>163.60000000000002</ele><time>2026-04-27T07:53:43Z</time></trkpt><trkpt lat="44.714280569553075" lon="8.290318831623727"><ele>164.20000000000002</ele><time>2026-04-27T07:53:44Z</time></trkpt><trkpt lat="44.71418642972127" lon="8.290375326009219"><ele>164.8</ele><time>2026-04-27T07:53:45Z</time></trkpt><trkpt lat="44.71408372747821" lon="8.290418013664075"><ele>165.4</ele><time>2026-04-27T07:53:46Z</time></trkpt><trkpt lat="44.71397742254778" lon="8.290459338564013"><ele>166.0</ele><time>2026-04-27T07:53:47Z</time></trkpt><trkpt lat="44.71388385815009" lon="8.290505657650659"><ele>166.0</ele><time>2026-04-27T07:53:48Z</time></trkpt><trkpt lat="44.71377761907805" lon="8.290557471491056"><ele>166.0</ele><time>2026-04-27T07:53:49Z</time></trkpt><trkpt lat="44.71368654967736" lon="8.290608841147678"><ele>166.0</ele><time>2026-04-27T07:53:50Z</time></trkpt><trkpt lat="44.71357002518278" lon="8.290640455877856"><ele>166.0</ele><time>2026-04-27T07:53:51Z</time></trkpt><trkpt lat="44.71347638175424" lon="8.290706172902391"><ele>166.0</ele><time>2026-04-27T07:53:52Z</time></trkpt><trkpt lat="44.71338208031592" lon="8.290743880159841"><ele>166.20000000000002</ele><time>2026-04-27T07:53:53Z</time></trkpt><trkpt lat="44.71330044546083" lon="8.290804766871469"><ele>166.4</ele><time>2026-04-27T07:53:54Z</time></trkpt><trkpt lat="44.71323162984979" lon="8.29090182190868"><ele>166.6</ele><time>2026-04-27T07:53:55Z</time></trkpt><trkpt lat="44.71318427028301" lon="8.291026388700232"><ele>166.8</ele><time>2026-04-27T07:53:56Z</time></trkpt><trkpt lat="44.71314569390859" lon="8.291154975711969"><ele>167.0</ele><time>2026-04-27T07:53:57Z</time></trkpt><trkpt lat="44.71310909638688" lon="8.291300694759155"><ele>168.25</ele><time>2026-04-27T07:53:58Z</time></trkpt><trkpt lat="44.71306807951571" lon="8.291445971980815"><ele>169.5</ele><time>2026-04-27T07:53:59Z</time></trkpt><trkpt lat="44.713019307407606" lon="8.291602415173404"><ele>170.75</ele><time>2026-04-27T07:54:00Z</time></trkpt><trkpt lat="44.71297223758587" lon="8.29175837002625"><ele>172.0</ele><time>2026-04-27T07:54:01Z</time></trkpt><trkpt lat="44.71292831019963" lon="8.291904834231811"><ele>172.0</ele><time>2026-04-27T07:54:02Z</time></trkpt><trkpt lat="44.71288679314198" lon="8.292056809762533"><ele>172.0</ele><time>2026-04-27T07:54:03Z</time></trkpt><trkpt lat="44.712843403947495" lon="8.292211412778457"><ele>172.0</ele><time>2026-04-27T07:54:04Z</time></trkpt><trkpt lat="44.71280153001884" lon="8.292368172747613"><ele>172.0</ele><time>2026-04-27T07:54:05Z</time></trkpt><trkpt lat="44.71276065670992" lon="8.292524837024835"><ele>176.0</ele><time>2026-04-27T07:54:06Z</time></trkpt><trkpt lat="44.71271857338301" lon="8.29267753189699"><ele>180.0</ele><time>2026-04-27T07:54:07Z</time></trkpt><trkpt lat="44.712667714520286" lon="8.29282965778536"><ele>184.0</ele><time>2026-04-27T07:54:08Z</time></trkpt><trkpt lat="44.712621270507405" lon="8.292981692900229"><ele>188.0</ele><time>2026-04-27T07:54:08.999Z</time></trkpt><trkpt lat="44.71257551052368" lon="8.29313235776774"><ele>188.0</ele><time>2026-04-27T07:54:09.999Z</time></trkpt><trkpt lat="44.71253490747837" lon="8.293281292271153"><ele>188.0</ele><time>2026-04-27T07:54:10.999Z</time></trkpt><trkpt lat="44.71249235535126" lon="8.293433658883194"><ele>188.0</ele><time>2026-04-27T07:54:11.999Z</time></trkpt><trkpt lat="44.712447734432786" lon="8.293566532156051"><ele>188.0</ele><time>2026-04-27T07:54:12.999Z</time></trkpt><trkpt lat="44.71241135563426" lon="8.293708178343591"><ele>188.0</ele><time>2026-04-27T07:54:13.999Z</time></trkpt><trkpt lat="44.712370428427015" lon="8.293845754248029"><ele>187.4</ele><time>2026-04-27T07:54:14.999Z</time></trkpt><trkpt lat="44.71233171203134" lon="8.293985709450775"><ele>186.8</ele><time>2026-04-27T07:54:15.999Z</time></trkpt><trkpt lat="44.71228722000693" lon="8.294128361785138"><ele>186.2</ele><time>2026-04-27T07:54:16.999Z</time></trkpt><trkpt lat="44.712242184473325" lon="8.29427246150186"><ele>185.6</ele><time>2026-04-27T07:54:17.999Z</time></trkpt><trkpt lat="44.71220149221518" lon="8.294418330268813"><ele>185.0</ele><time>2026-04-27T07:54:18.999Z</time></trkpt><trkpt lat="44.71215971069298" lon="8.29456502071878"><ele>185.0</ele><time>2026-04-27T07:54:19.999Z</time></trkpt><trkpt lat="44.71211750643815" lon="8.29471901100096"><ele>185.0</ele><time>2026-04-27T07:54:20.999Z</time></trkpt><trkpt lat="44.71207431781649" lon="8.294874092452885"><ele>185.0</ele><time>2026-04-27T07:54:21.999Z</time></trkpt><trkpt lat="44.712025442136785" lon="8.295036119998661"><ele>185.0</ele><time>2026-04-27T07:54:22.999Z</time></trkpt><trkpt lat="44.71197185294883" lon="8.295205671463641"><ele>184.75</ele><time>2026-04-27T07:54:23.999Z</time></trkpt><trkpt lat="44.711920496729654" lon="8.295378581958959"><ele>184.5</ele><time>2026-04-27T07:54:24.999Z</time></trkpt><trkpt lat="44.711868600656224" lon="8.295560455191032"><ele>184.25</ele><time>2026-04-27T07:54:25.999Z</time></trkpt><trkpt lat="44.71181243803586" lon="8.295750276722066"><ele>184.0</ele><time>2026-04-27T07:54:26.999Z</time></trkpt><trkpt lat="44.711766683929135" lon="8.295947651849726"><ele>189.33333333333334</ele><time>2026-04-27T07:54:27.999Z</time></trkpt><trkpt lat="44.71175297388584" lon="8.29615615789917"><ele>194.66666666666669</ele><time>2026-04-27T07:54:28.999Z</time></trkpt><trkpt lat="44.711779600735014" lon="8.296368178211273"><ele>200.0</ele><time>2026-04-27T07:54:29.999Z</time></trkpt><trkpt lat="44.711848750047395" lon="8.296569609354355"><ele>196.0</ele><time>2026-04-27T07:54:30.999Z</time></trkpt><trkpt lat="44.71195029332541" lon="8.296752293393716"><ele>192.0</ele><time>2026-04-27T07:54:31.999Z</time></trkpt><trkpt lat="44.712048826596444" lon="8.296931594796163"><ele>188.0</ele><time>2026-04-27T07:54:32.999Z</time></trkpt><trkpt lat="44.71213005811788" lon="8.297139537445505"><ele>189.66666666666666</ele><time>2026-04-27T07:54:33.999Z</time></trkpt><trkpt lat="44.7121847946196" lon="8.297352402729416"><ele>191.33333333333331</ele><time>2026-04-27T07:54:34.999Z</time></trkpt><trkpt lat="44.712216834560486" lon="8.297572186141794"><ele>193.0</ele><time>2026-04-27T07:54:35.999Z</time></trkpt><trkpt lat="44.71223509287185" lon="8.297805945396501"><ele>193.0</ele><time>2026-04-27T07:54:36.999Z</time></trkpt><trkpt lat="44.712247640026945" lon="8.298021137731864"><ele>193.0</ele><time>2026-04-27T07:54:37.999Z</time></trkpt><trkpt lat="44.71225795198532" lon="8.298198538688368"><ele>193.0</ele><time>2026-04-27T07:54:38.999Z</time></trkpt><trkpt lat="44.712252248835945" lon="8.298365038228495"><ele>193.0</ele><time>2026-04-27T07:54:39.999Z</time></trkpt><trkpt lat="44.71220097221542" lon="8.298518022815497"><ele>194.0</ele><time>2026-04-27T07:54:40.999Z</time></trkpt><trkpt lat="44.712099157645206" lon="8.298630272444354"><ele>195.0</ele><time>2026-04-27T07:54:41.999Z</time></trkpt><trkpt lat="44.71197150637439" lon="8.298655220014393"><ele>196.0</ele><time>2026-04-27T07:54:42.999Z</time></trkpt><trkpt lat="44.71184058649306" lon="8.29856033441084"><ele>197.0</ele><time>2026-04-27T07:54:43.999Z</time></trkpt><trkpt lat="44.7117156931483" lon="8.298465481782321"><ele>200.5</ele><time>2026-04-27T07:54:44.999Z</time></trkpt><trkpt lat="44.71159012015423" lon="8.298371036211794"><ele>204.0</ele><time>2026-04-27T07:54:45.999Z</time></trkpt><trkpt lat="44.71149444560584" lon="8.298283320931914"><ele>207.5</ele><time>2026-04-27T07:54:46.999Z</time></trkpt><trkpt lat="44.71140891963883" lon="8.298219958125923"><ele>211.0</ele><time>2026-04-27T07:54:47.999Z</time></trkpt><trkpt lat="44.711321353809986" lon="8.298160768605843"><ele>211.0</ele><time>2026-04-27T07:54:48.999Z</time></trkpt><trkpt lat="44.71123065690292" lon="8.298103429642383"><ele>211.0</ele><time>2026-04-27T07:54:49.999Z</time></trkpt><trkpt lat="44.71114236852572" lon="8.298035278314476"><ele>211.0</ele><time>2026-04-27T07:54:50.999Z</time></trkpt><trkpt lat="44.71105134006769" lon="8.297972753275682"><ele>211.0</ele><time>2026-04-27T07:54:51.999Z</time></trkpt><trkpt lat="44.710957950959354" lon="8.29790477716651"><ele>211.0</ele><time>2026-04-27T07:54:52.999Z</time></trkpt><trkpt lat="44.71086987917893" lon="8.29784310755278"><ele>213.60000000000002</ele><time>2026-04-27T07:54:53.999Z</time></trkpt><trkpt lat="44.7107813889709" lon="8.297781815696162"><ele>216.2</ele><time>2026-04-27T07:54:54.999Z</time></trkpt><trkpt lat="44.71069403967969" lon="8.297731364136908"><ele>218.79999999999998</ele><time>2026-04-27T07:54:55.999Z</time></trkpt><trkpt lat="44.71061862511091" lon="8.297670175860372"><ele>221.39999999999998</ele><time>2026-04-27T07:54:56.999Z</time></trkpt><trkpt lat="44.71053507037025" lon="8.297610291732806"><ele>224.0</ele><time>2026-04-27T07:54:57.999Z</time></trkpt><trkpt lat="44.71043908203511" lon="8.297551304368364"><ele>224.0</ele><time>2026-04-27T07:54:58.999Z</time></trkpt><trkpt lat="44.71034224328711" lon="8.297479614194764"><ele>224.0</ele><time>2026-04-27T07:54:59.999Z</time></trkpt><trkpt lat="44.710241393528946" lon="8.297405556556955"><ele>224.0</ele><time>2026-04-27T07:55:00.999Z</time></trkpt><trkpt lat="44.71014631307462" lon="8.297311053343336"><ele>224.0</ele><time>2026-04-27T07:55:01.999Z</time></trkpt><trkpt lat="44.710050894619435" lon="8.297209605955405"><ele>224.25</ele><time>2026-04-27T07:55:02.999Z</time></trkpt><trkpt lat="44.70995311015138" lon="8.297109902653123"><ele>224.5</ele><time>2026-04-27T07:55:03.999Z</time></trkpt><trkpt lat="44.7098502270461" lon="8.297007825993825"><ele>224.75</ele><time>2026-04-27T07:55:04.999Z</time></trkpt><trkpt lat="44.709743608037854" lon="8.296900714078339"><ele>225.0</ele><time>2026-04-27T07:55:05.999Z</time></trkpt><trkpt lat="44.70962969466233" lon="8.296780889638413"><ele>225.0</ele><time>2026-04-27T07:55:06.999Z</time></trkpt><trkpt lat="44.70952102612147" lon="8.296635640368349"><ele>225.0</ele><time>2026-04-27T07:55:07.999Z</time></trkpt><trkpt lat="44.709422024197856" lon="8.2964678943638"><ele>225.0</ele><time>2026-04-27T07:55:08.999Z</time></trkpt><trkpt lat="44.709318662442605" lon="8.296279400606004"><ele>228.33333333333331</ele><time>2026-04-27T07:55:09.999Z</time></trkpt><trkpt lat="44.70921009870993" lon="8.296083295282427"><ele>231.66666666666666</ele><time>2026-04-27T07:55:10.999Z</time></trkpt><trkpt lat="44.70910323206143" lon="8.295886087522527"><ele>235.0</ele><time>2026-04-27T07:55:11.999Z</time></trkpt><trkpt lat="44.70900562133133" lon="8.295709523740266"><ele>235.5</ele><time>2026-04-27T07:55:12.999Z</time></trkpt><trkpt lat="44.70890589178885" lon="8.295572548994478"><ele>236.0</ele><time>2026-04-27T07:55:13.999Z</time></trkpt><trkpt lat="44.70878944417712" lon="8.295473692356335"><ele>236.5</ele><time>2026-04-27T07:55:14.999Z</time></trkpt><trkpt lat="44.708648847862044" lon="8.295420581641995"><ele>237.0</ele><time>2026-04-27T07:55:15.999Z</time></trkpt><trkpt lat="44.70850039976291" lon="8.295385338917702"><ele>237.0</ele><time>2026-04-27T07:55:16.999Z</time></trkpt><trkpt lat="44.708349899372266" lon="8.295342605763352"><ele>237.0</ele><time>2026-04-27T07:55:17.999Z</time></trkpt><trkpt lat="44.70819197472425" lon="8.295300895769833"><ele>237.0</ele><time>2026-04-27T07:55:18.999Z</time></trkpt><trkpt lat="44.70802938995913" lon="8.295313856053472"><ele>237.0</ele><time>2026-04-27T07:55:19.999Z</time></trkpt><trkpt lat="44.707843682853664" lon="8.295353721474797"><ele>237.0</ele><time>2026-04-27T07:55:20.999Z</time></trkpt><trkpt lat="44.70766683888717" lon="8.295372549602147"><ele>237.0</ele><time>2026-04-27T07:55:21.999Z</time></trkpt><trkpt lat="44.70752472670074" lon="8.295282615340309"><ele>240.0</ele><time>2026-04-27T07:55:22.999Z</time></trkpt><trkpt lat="44.707433572442554" lon="8.295136916805768"><ele>243.0</ele><time>2026-04-27T07:55:23.999Z</time></trkpt><trkpt lat="44.7073882732722" lon="8.294957937925409"><ele>246.0</ele><time>2026-04-27T07:55:24.999Z</time></trkpt><trkpt lat="44.70736533262778" lon="8.294719125028006"><ele>249.0</ele><time>2026-04-27T07:55:25.999Z</time></trkpt><trkpt lat="44.70733132729758" lon="8.29445537147956"><ele>249.0</ele><time>2026-04-27T07:55:26.999Z</time></trkpt><trkpt lat="44.70727178361358" lon="8.294190842180617"><ele>249.0</ele><time>2026-04-27T07:55:27.999Z</time></trkpt><trkpt lat="44.707165169492015" lon="8.29394501425814"><ele>249.0</ele><time>2026-04-27T07:55:28.999Z</time></trkpt><trkpt lat="44.70702360148301" lon="8.29374356848468"><ele>251.33333333333331</ele><time>2026-04-27T07:55:29.999Z</time></trkpt><trkpt lat="44.706850579374645" lon="8.29359683832784"><ele>253.66666666666666</ele><time>2026-04-27T07:55:30.998Z</time></trkpt><trkpt lat="44.70664791458061" lon="8.29350881420909"><ele>256.0</ele><time>2026-04-27T07:55:31.998Z</time></trkpt><trkpt lat="44.70643607678292" lon="8.293433214045399"><ele>256.0</ele><time>2026-04-27T07:55:32.998Z</time></trkpt><trkpt lat="44.70625184157398" lon="8.293370629382185"><ele>256.0</ele><time>2026-04-27T07:55:33.998Z</time></trkpt><trkpt lat="44.70607750813596" lon="8.293333376544446"><ele>256.0</ele><time>2026-04-27T07:55:34.998Z</time></trkpt><trkpt lat="44.70589854246751" lon="8.293367465672349"><ele>257.3333333333333</ele><time>2026-04-27T07:55:36Z</time></trkpt><trkpt lat="44.70573357547736" lon="8.293432241562854"><ele>258.6666666666667</ele><time>2026-04-27T07:55:37Z</time></trkpt><trkpt lat="44.70560959776045" lon="8.293525883559738"><ele>260.0</ele><time>2026-04-27T07:55:38Z</time></trkpt><trkpt lat="44.705523840711976" lon="8.29368159658846"><ele>260.0</ele><time>2026-04-27T07:55:39Z</time></trkpt><trkpt lat="44.705484435140136" lon="8.293895030205222"><ele>260.0</ele><time>2026-04-27T07:55:40Z</time></trkpt><trkpt lat="44.70545872428398" lon="8.294142623367138"><ele>260.0</ele><time>2026-04-27T07:55:41Z</time></trkpt><trkpt lat="44.70537390368203" lon="8.294395943681483"><ele>258.0</ele><time>2026-04-27T07:55:42Z</time></trkpt><trkpt lat="44.70523365445015" lon="8.294629871694491"><ele>256.0</ele><time>2026-04-27T07:55:43Z</time></trkpt><trkpt lat="44.70507677999193" lon="8.294877099353869"><ele>262.0</ele><time>2026-04-27T07:55:44Z</time></trkpt><trkpt lat="44.70491872549748" lon="8.295120920583189"><ele>268.0</ele><time>2026-04-27T07:55:45Z</time></trkpt><trkpt lat="44.70476254713717" lon="8.295316612094801"><ele>274.0</ele><time>2026-04-27T07:55:46Z</time></trkpt><trkpt lat="44.70460929603531" lon="8.29543551270401"><ele>274.0</ele><time>2026-04-27T07:55:47Z</time></trkpt><trkpt lat="44.704459675891826" lon="8.295477870561026"><ele>274.0</ele><time>2026-04-27T07:55:48Z</time></trkpt><trkpt lat="44.70433385947109" lon="8.295438249961357"><ele>274.0</ele><time>2026-04-27T07:55:49Z</time></trkpt><trkpt lat="44.70421906787416" lon="8.295282719441966"><ele>274.0</ele><time>2026-04-27T07:55:50Z</time></trkpt><trkpt lat="44.7040766479613" lon="8.295113919052104"><ele>274.0</ele><time>2026-04-27T07:55:51Z</time></trkpt><trkpt lat="44.703923547928156" lon="8.29494738639729"><ele>274.0</ele><time>2026-04-27T07:55:52Z</time></trkpt><trkpt lat="44.70376015402143" lon="8.294847545138618"><ele>274.0</ele><time>2026-04-27T07:55:53Z</time></trkpt><trkpt lat="44.70356860631104" lon="8.294839712036572"><ele>278.66666666666663</ele><time>2026-04-27T07:55:54Z</time></trkpt><trkpt lat="44.70335306382303" lon="8.294866736390915"><ele>283.3333333333333</ele><time>2026-04-27T07:55:55Z</time></trkpt><trkpt lat="44.70314397002416" lon="8.294878890416754"><ele>288.0</ele><time>2026-04-27T07:55:56Z</time></trkpt><trkpt lat="44.702969762014945" lon="8.294896770818987"><ele>288.0</ele><time>2026-04-27T07:55:57Z</time></trkpt><trkpt lat="44.702812957979845" lon="8.294982265118776"><ele>288.0</ele><time>2026-04-27T07:55:58Z</time></trkpt><trkpt lat="44.7026724355912" lon="8.295147383576339"><ele>288.0</ele><time>2026-04-27T07:55:59Z</time></trkpt><trkpt lat="44.7025450837004" lon="8.295315798554144"><ele>289.6666666666667</ele><time>2026-04-27T07:56:00Z</time></trkpt><trkpt lat="44.7024442388362" lon="8.295470811626267"><ele>291.33333333333337</ele><time>2026-04-27T07:56:01Z</time></trkpt><trkpt lat="44.70239720869562" lon="8.295677342516736"><ele>293.0</ele><time>2026-04-27T07:56:02Z</time></trkpt><trkpt lat="44.70240997638563" lon="8.29593686134509"><ele>293.0</ele><time>2026-04-27T07:56:03Z</time></trkpt><trkpt lat="44.70242858832065" lon="8.296234866732373"><ele>293.0</ele><time>2026-04-27T07:56:04Z</time></trkpt><trkpt lat="44.702392249856175" lon="8.29653266905258"><ele>293.0</ele><time>2026-04-27T07:56:05Z</time></trkpt><trkpt lat="44.70231482493617" lon="8.296758946260402"><ele>289.5</ele><time>2026-04-27T07:56:06Z</time></trkpt><trkpt lat="44.70222787009578" lon="8.296907964954357"><ele>286.0</ele><time>2026-04-27T07:56:07Z</time></trkpt><trkpt lat="44.70209781656254" lon="8.297003166092349"><ele>282.5</ele><time>2026-04-27T07:56:08Z</time></trkpt><trkpt lat="44.701944212522754" lon="8.29705655393077"><ele>279.0</ele><time>2026-04-27T07:56:09Z</time></trkpt><trkpt lat="44.70182011086577" lon="8.297147123402508"><ele>283.5</ele><time>2026-04-27T07:56:10Z</time></trkpt><trkpt lat="44.70174435725005" lon="8.297306072356776"><ele>288.0</ele><time>2026-04-27T07:56:11Z</time></trkpt><trkpt lat="44.70172455222102" lon="8.29750068467244"><ele>292.5</ele><time>2026-04-27T07:56:12Z</time></trkpt><trkpt lat="44.70175018368696" lon="8.297715348373979"><ele>297.0</ele><time>2026-04-27T07:56:13Z</time></trkpt><trkpt lat="44.70180850690384" lon="8.297957903240784"><ele>297.3333333333333</ele><time>2026-04-27T07:56:14Z</time></trkpt><trkpt lat="44.70188272069768" lon="8.298232693530132"><ele>297.66666666666663</ele><time>2026-04-27T07:56:15Z</time></trkpt><trkpt lat="44.70196048769287" lon="8.298531486976644"><ele>298.0</ele><time>2026-04-27T07:56:16Z</time></trkpt><trkpt lat="44.70205235934498" lon="8.29882755690226"><ele>306.66666666666663</ele><time>2026-04-27T07:56:17Z</time></trkpt><trkpt lat="44.702150637263514" lon="8.299102818216092"><ele>315.3333333333333</ele><time>2026-04-27T07:56:18Z</time></trkpt><trkpt lat="44.70223389720362" lon="8.299333618916778"><ele>324.0</ele><time>2026-04-27T07:56:19Z</time></trkpt><trkpt lat="44.70224750857542" lon="8.299531236337485"><ele>324.0</ele><time>2026-04-27T07:56:20Z</time></trkpt><trkpt lat="44.70220924782612" lon="8.29970898882942"><ele>324.0</ele><time>2026-04-27T07:56:21Z</time></trkpt><trkpt lat="44.70210938067568" lon="8.29986990118782"><ele>324.0</ele><time>2026-04-27T07:56:21.999Z</time></trkpt><trkpt lat="44.70197507749088" lon="8.299965959332678"><ele>324.0</ele><time>2026-04-27T07:56:22.999Z</time></trkpt><trkpt lat="44.70181842423271" lon="8.299944370131566"><ele>323.3333333333333</ele><time>2026-04-27T07:56:23.999Z</time></trkpt><trkpt lat="44.701647261070356" lon="8.299915959962476"><ele>322.66666666666663</ele><time>2026-04-27T07:56:24.999Z</time></trkpt><trkpt lat="44.7014775716201" lon="8.299883237740714"><ele>322.0</ele><time>2026-04-27T07:56:25.999Z</time></trkpt><trkpt lat="44.70125252497295" lon="8.299885603510974"><ele>325.5</ele><time>2026-04-27T07:56:26.999Z</time></trkpt><trkpt lat="44.70099989588386" lon="8.299808442607752"><ele>329.0</ele><time>2026-04-27T07:56:27.999Z</time></trkpt><trkpt lat="44.700799615726794" lon="8.299744339103393"><ele>329.0</ele><time>2026-04-27T07:56:28.999Z</time></trkpt><trkpt lat="44.70067743752593" lon="8.299729523935266"><ele>329.0</ele><time>2026-04-27T07:56:29.999Z</time></trkpt><trkpt lat="44.70054770141515" lon="8.299752031171428"><ele>329.0</ele><time>2026-04-27T07:56:30.999Z</time></trkpt><trkpt lat="44.70043220085971" lon="8.299865417542394"><ele>329.0</ele><time>2026-04-27T07:56:31.999Z</time></trkpt><trkpt lat="44.70032320928162" lon="8.300070884279334"><ele>328.6666666666667</ele><time>2026-04-27T07:56:32.999Z</time></trkpt><trkpt lat="44.70021414451374" lon="8.300334123393288"><ele>328.3333333333333</ele><time>2026-04-27T07:56:33.999Z</time></trkpt><trkpt lat="44.7000971093386" lon="8.300604423416946"><ele>328.0</ele><time>2026-04-27T07:56:34.999Z</time></trkpt><trkpt lat="44.69997557960302" lon="8.300906869880754"><ele>328.0</ele><time>2026-04-27T07:56:35.999Z</time></trkpt><trkpt lat="44.69987948947712" lon="8.301226546474858"><ele>328.0</ele><time>2026-04-27T07:56:36.999Z</time></trkpt><trkpt lat="44.699806218182765" lon="8.301544839695607"><ele>332.66666666666663</ele><time>2026-04-27T07:56:37.999Z</time></trkpt><trkpt lat="44.69976027709519" lon="8.301842790857203"><ele>337.3333333333333</ele><time>2026-04-27T07:56:38.999Z</time></trkpt><trkpt lat="44.69973191600988" lon="8.30210589681457"><ele>342.0</ele><time>2026-04-27T07:56:39.999Z</time></trkpt><trkpt lat="44.69966065258985" lon="8.302329088066747"><ele>344.0</ele><time>2026-04-27T07:56:40.999Z</time></trkpt><trkpt lat="44.69953516268966" lon="8.302463213865094"><ele>346.0</ele><time>2026-04-27T07:56:41.999Z</time></trkpt><trkpt lat="44.69936578056265" lon="8.302567761615936"><ele>348.0</ele><time>2026-04-27T07:56:42.999Z</time></trkpt><trkpt lat="44.699156771136174" lon="8.302718686463784"><ele>352.0</ele><time>2026-04-27T07:56:43.999Z</time></trkpt><trkpt lat="44.6989371204777" lon="8.3028482480688"><ele>356.0</ele><time>2026-04-27T07:56:44.999Z</time></trkpt><trkpt lat="44.69874407616623" lon="8.303106847094552"><ele>348.0</ele><time>2026-04-27T07:56:45.999Z</time></trkpt><trkpt lat="44.69853799143463" lon="8.30333486953494"><ele>340.0</ele><time>2026-04-27T07:56:46.999Z</time></trkpt><trkpt lat="44.6983396161068" lon="8.303542922922425"><ele>340.0</ele><time>2026-04-27T07:56:47.999Z</time></trkpt><trkpt lat="44.698148628504676" lon="8.30372626671652"><ele>340.0</ele><time>2026-04-27T07:56:48.999Z</time></trkpt><trkpt lat="44.697944196825425" lon="8.303889791449608"><ele>347.0</ele><time>2026-04-27T07:56:49.999Z</time></trkpt><trkpt lat="44.697732905321644" lon="8.30400913486323"><ele>354.0</ele><time>2026-04-27T07:56:50.999Z</time></trkpt><trkpt lat="44.69752717170258" lon="8.30406157755439"><ele>361.0</ele><time>2026-04-27T07:56:51.999Z</time></trkpt><trkpt lat="44.697334427122314" lon="8.304067082449357"><ele>361.0</ele><time>2026-04-27T07:56:52.999Z</time></trkpt><trkpt lat="44.697150618068115" lon="8.304046687310077"><ele>361.0</ele><time>2026-04-27T07:56:53.999Z</time></trkpt><trkpt lat="44.6969955099097" lon="8.303976817759638"><ele>361.0</ele><time>2026-04-27T07:56:54.999Z</time></trkpt><trkpt lat="44.69688128804028" lon="8.303841521108566"><ele>360.66666666666663</ele><time>2026-04-27T07:56:55.999Z</time></trkpt><trkpt lat="44.69680457526136" lon="8.30363739421178"><ele>360.3333333333333</ele><time>2026-04-27T07:56:56.999Z</time></trkpt><trkpt lat="44.696779745677325" lon="8.303394432745076"><ele>360.0</ele><time>2026-04-27T07:56:57.999Z</time></trkpt><trkpt lat="44.696754243356786" lon="8.303105116849666"><ele>357.0</ele><time>2026-04-27T07:56:58.999Z</time></trkpt><trkpt lat="44.69669385196083" lon="8.302831762962587"><ele>354.0</ele><time>2026-04-27T07:56:59.999Z</time></trkpt><trkpt lat="44.69660435198683" lon="8.302619532567176"><ele>351.0</ele><time>2026-04-27T07:57:00.999Z</time></trkpt><trkpt lat="44.69650185836216" lon="8.302482892167074"><ele>351.0</ele><time>2026-04-27T07:57:01.999Z</time></trkpt><trkpt lat="44.696384506179996" lon="8.302415103051054"><ele>351.0</ele><time>2026-04-27T07:57:02.999Z</time></trkpt><trkpt lat="44.69625372840592" lon="8.302425819416348"><ele>351.0</ele><time>2026-04-27T07:57:03.999Z</time></trkpt><trkpt lat="44.696123399941946" lon="8.302505109530497"><ele>351.0</ele><time>2026-04-27T07:57:04.999Z</time></trkpt><trkpt lat="44.69598260499926" lon="8.302661988077865"><ele>350.6666666666667</ele><time>2026-04-27T07:57:05.999Z</time></trkpt><trkpt lat="44.69583913024834" lon="8.302864682208835"><ele>350.33333333333337</ele><time>2026-04-27T07:57:06.999Z</time></trkpt><trkpt lat="44.69568671699785" lon="8.303090389943298"><ele>350.0</ele><time>2026-04-27T07:57:07.999Z</time></trkpt><trkpt lat="44.69551283105493" lon="8.303336868349911"><ele>355.5</ele><time>2026-04-27T07:57:08.999Z</time></trkpt><trkpt lat="44.69533164057041" lon="8.303586661112444"><ele>361.0</ele><time>2026-04-27T07:57:09.999Z</time></trkpt><trkpt lat="44.69513574212426" lon="8.303845888632397"><ele>369.0</ele><time>2026-04-27T07:57:10.999Z</time></trkpt><trkpt lat="44.694944461011985" lon="8.304102852914239"><ele>377.0</ele><time>2026-04-27T07:57:11.999Z</time></trkpt><trkpt lat="44.694760544141026" lon="8.304352231655022"><ele>377.0</ele><time>2026-04-27T07:57:12.999Z</time></trkpt><trkpt lat="44.6945770666224" lon="8.30459733134142"><ele>377.0</ele><time>2026-04-27T07:57:13.999Z</time></trkpt><trkpt lat="44.694390932921586" lon="8.30482531241354"><ele>377.0</ele><time>2026-04-27T07:57:14.999Z</time></trkpt><trkpt lat="44.694190001789636" lon="8.305034640154151"><ele>377.0</ele><time>2026-04-27T07:57:15.999Z</time></trkpt><trkpt lat="44.69397561064575" lon="8.305226792491618"><ele>377.0</ele><time>2026-04-27T07:57:16.999Z</time></trkpt><trkpt lat="44.69377857717154" lon="8.30539103445859"><ele>377.0</ele><time>2026-04-27T07:57:17.999Z</time></trkpt><trkpt lat="44.69359813719576" lon="8.305522989391774"><ele>377.0</ele><time>2026-04-27T07:57:18.999Z</time></trkpt><trkpt lat="44.69341563182758" lon="8.30562995932808"><ele>379.33333333333337</ele><time>2026-04-27T07:57:19.999Z</time></trkpt><trkpt lat="44.69321746452402" lon="8.305715036556569"><ele>381.6666666666667</ele><time>2026-04-27T07:57:20.999Z</time></trkpt><trkpt lat="44.693016470455106" lon="8.305800480805686"><ele>384.0</ele><time>2026-04-27T07:57:21.999Z</time></trkpt><trkpt lat="44.692810157191865" lon="8.305899656260788"><ele>382.3333333333333</ele><time>2026-04-27T07:57:22.999Z</time></trkpt><trkpt lat="44.69260406746967" lon="8.306017821621335"><ele>380.66666666666663</ele><time>2026-04-27T07:57:23.999Z</time></trkpt><trkpt lat="44.69240347484448" lon="8.306145829629463"><ele>379.0</ele><time>2026-04-27T07:57:24.999Z</time></trkpt><trkpt lat="44.6922106386892" lon="8.306249903746517"><ele>379.0</ele><time>2026-04-27T07:57:25.999Z</time></trkpt><trkpt lat="44.692013337034616" lon="8.30628729601085"><ele>379.0</ele><time>2026-04-27T07:57:26.999Z</time></trkpt><trkpt lat="44.69179308486586" lon="8.306263814563073"><ele>379.0</ele><time>2026-04-27T07:57:27.999Z</time></trkpt><trkpt lat="44.69154957914768" lon="8.306207909072015"><ele>380.0</ele><time>2026-04-27T07:57:28.999Z</time></trkpt><trkpt lat="44.69132290662571" lon="8.3061673352158"><ele>381.0</ele><time>2026-04-27T07:57:29.999Z</time></trkpt><trkpt lat="44.69110520922438" lon="8.30613004852396"><ele>382.0</ele><time>2026-04-27T07:57:30.999Z</time></trkpt><trkpt lat="44.690907376832406" lon="8.306066683286353"><ele>381.3333333333333</ele><time>2026-04-27T07:57:31.999Z</time></trkpt><trkpt lat="44.690731029050376" lon="8.305943457820579"><ele>380.6666666666667</ele><time>2026-04-27T07:57:32.999Z</time></trkpt><trkpt lat="44.690560037010094" lon="8.30576982596412"><ele>380.0</ele><time>2026-04-27T07:57:33.999Z</time></trkpt><trkpt lat="44.690433360378925" lon="8.305561241849864"><ele>380.0</ele><time>2026-04-27T07:57:34.999Z</time></trkpt><trkpt lat="44.69033128422192" lon="8.305332688967283"><ele>380.0</ele><time>2026-04-27T07:57:35.999Z</time></trkpt><trkpt lat="44.690234691773334" lon="8.305102879541444"><ele>380.0</ele><time>2026-04-27T07:57:36.999Z</time></trkpt><trkpt lat="44.69013707071151" lon="8.304870468522498"><ele>386.6666666666667</ele><time>2026-04-27T07:57:37.999Z</time></trkpt><trkpt lat="44.690036965291974" lon="8.304640074259929"><ele>393.33333333333337</ele><time>2026-04-27T07:57:38.999Z</time></trkpt><trkpt lat="44.68993827742978" lon="8.30441674171966"><ele>400.0</ele><time>2026-04-27T07:57:39.999Z</time></trkpt><trkpt lat="44.68984321406816" lon="8.304199650284215"><ele>400.0</ele><time>2026-04-27T07:57:40.999Z</time></trkpt><trkpt lat="44.689767100750025" lon="8.303996999838102"><ele>400.0</ele><time>2026-04-27T07:57:42Z</time></trkpt><trkpt lat="44.689707770064686" lon="8.303810337784116"><ele>400.0</ele><time>2026-04-27T07:57:43Z</time></trkpt><trkpt lat="44.6896522167978" lon="8.303631242843407"><ele>400.0</ele><time>2026-04-27T07:57:44Z</time></trkpt><trkpt lat="44.68959824806062" lon="8.303440530002112"><ele>400.0</ele><time>2026-04-27T07:57:45Z</time></trkpt><trkpt lat="44.68956551072124" lon="8.303240169148307"><ele>400.0</ele><time>2026-04-27T07:57:46Z</time></trkpt><trkpt lat="44.68954799187069" lon="8.303027740751176"><ele>400.0</ele><time>2026-04-27T07:57:47Z</time></trkpt><trkpt lat="44.689539973721786" lon="8.302804887232545"><ele>399.33333333333337</ele><time>2026-04-27T07:57:48Z</time></trkpt><trkpt lat="44.68954574970761" lon="8.302568694571866"><ele>398.66666666666663</ele><time>2026-04-27T07:57:49Z</time></trkpt><trkpt lat="44.68956177754665" lon="8.302329013816804"><ele>398.0</ele><time>2026-04-27T07:57:50Z</time></trkpt><trkpt lat="44.689623935393016" lon="8.302099100136703"><ele>396.3333333333333</ele><time>2026-04-27T07:57:51Z</time></trkpt><trkpt lat="44.68968878487029" lon="8.30187384529515"><ele>394.66666666666663</ele><time>2026-04-27T07:57:52Z</time></trkpt><trkpt lat="44.68974817179521" lon="8.301657733046012"><ele>393.0</ele><time>2026-04-27T07:57:53Z</time></trkpt><trkpt lat="44.68976769977655" lon="8.301425541803528"><ele>393.0</ele><time>2026-04-27T07:57:54Z</time></trkpt><trkpt lat="44.689780223565606" lon="8.301176162459377"><ele>393.0</ele><time>2026-04-27T07:57:55Z</time></trkpt><trkpt lat="44.68977121480222" lon="8.300913432219154"><ele>393.0</ele><time>2026-04-27T07:57:56Z</time></trkpt><trkpt lat="44.6897787937109" lon="8.300637201466612"><ele>391.33333333333337</ele><time>2026-04-27T07:57:57Z</time></trkpt><trkpt lat="44.68977074720681" lon="8.300344045774839"><ele>389.6666666666667</ele><time>2026-04-27T07:57:58Z</time></trkpt><trkpt lat="44.68976261366822" lon="8.300037360231762"><ele>388.0</ele><time>2026-04-27T07:57:59Z</time></trkpt><trkpt lat="44.68975490573201" lon="8.299735354713862"><ele>386.6666666666667</ele><time>2026-04-27T07:58:00Z</time></trkpt><trkpt lat="44.68974788877552" lon="8.29945145863096"><ele>385.33333333333337</ele><time>2026-04-27T07:58:01Z</time></trkpt><trkpt lat="44.689741276855266" lon="8.29918394984357"><ele>384.0</ele><time>2026-04-27T07:58:02Z</time></trkpt><trkpt lat="44.68973943971524" lon="8.298920886039847"><ele>384.0</ele><time>2026-04-27T07:58:03Z</time></trkpt><trkpt lat="44.68973351173692" lon="8.298671714173434"><ele>384.0</ele><time>2026-04-27T07:58:04Z</time></trkpt><trkpt lat="44.6897650568852" lon="8.298419190212487"><ele>384.0</ele><time>2026-04-27T07:58:05Z</time></trkpt><trkpt lat="44.68983718387516" lon="8.298175874842617"><ele>383.3333333333333</ele><time>2026-04-27T07:58:06Z</time></trkpt><trkpt lat="44.689895384095095" lon="8.297921003265174"><ele>382.66666666666663</ele><time>2026-04-27T07:58:07Z</time></trkpt><trkpt lat="44.68995729442295" lon="8.297671641949304"><ele>382.0</ele><time>2026-04-27T07:58:08Z</time></trkpt><trkpt lat="44.6899975866841" lon="8.297397835212267"><ele>383.0</ele><time>2026-04-27T07:58:09Z</time></trkpt><trkpt lat="44.690016012390124" lon="8.297106993854833"><ele>384.0</ele><time>2026-04-27T07:58:10Z</time></trkpt><trkpt lat="44.6900096853885" lon="8.296807869737803"><ele>385.0</ele><time>2026-04-27T07:58:11Z</time></trkpt><trkpt lat="44.68997749138639" lon="8.296526313233235"><ele>388.0</ele><time>2026-04-27T07:58:12Z</time></trkpt><trkpt lat="44.689925267478344" lon="8.296270812827954"><ele>391.0</ele><time>2026-04-27T07:58:13Z</time></trkpt><trkpt lat="44.68984184532775" lon="8.2960821190905"><ele>394.0</ele><time>2026-04-27T07:58:14Z</time></trkpt><trkpt lat="44.689719583245505" lon="8.295946613320769"><ele>394.0</ele><time>2026-04-27T07:58:15Z</time></trkpt><trkpt lat="44.68954647078641" lon="8.295865188533089"><ele>394.0</ele><time>2026-04-27T07:58:16Z</time></trkpt><trkpt lat="44.689318771294175" lon="8.295839659812314"><ele>394.0</ele><time>2026-04-27T07:58:17Z</time></trkpt><trkpt lat="44.689100045348255" lon="8.295817262654868"><ele>390.75</ele><time>2026-04-27T07:58:18Z</time></trkpt><trkpt lat="44.68894513655358" lon="8.295805448349865"><ele>387.5</ele><time>2026-04-27T07:58:19Z</time></trkpt><trkpt lat="44.688813232134535" lon="8.295849728602601"><ele>384.25</ele><time>2026-04-27T07:58:20Z</time></trkpt><trkpt lat="44.688703952214276" lon="8.295967842973324"><ele>381.0</ele><time>2026-04-27T07:58:21Z</time></trkpt><trkpt lat="44.68863208358907" lon="8.296141273839613"><ele>381.0</ele><time>2026-04-27T07:58:22Z</time></trkpt><trkpt lat="44.68859820861523" lon="8.296370527090312"><ele>381.0</ele><time>2026-04-27T07:58:23Z</time></trkpt><trkpt lat="44.6885187915648" lon="8.296590330791572"><ele>381.0</ele><time>2026-04-27T07:58:24Z</time></trkpt><trkpt lat="44.6883344897201" lon="8.296711585280981"><ele>379.0</ele><time>2026-04-27T07:58:25Z</time></trkpt><trkpt lat="44.68809912343241" lon="8.29683114789575"><ele>377.0</ele><time>2026-04-27T07:58:26Z</time></trkpt><trkpt lat="44.6878171981907" lon="8.296923893753412"><ele>379.5</ele><time>2026-04-27T07:58:27Z</time></trkpt><trkpt lat="44.68756421026833" lon="8.29702080683688"><ele>382.0</ele><time>2026-04-27T07:58:28Z</time></trkpt><trkpt lat="44.687360053784" lon="8.297143676840578"><ele>384.75</ele><time>2026-04-27T07:58:29Z</time></trkpt><trkpt lat="44.68720547338473" lon="8.29726453630477"><ele>387.5</ele><time>2026-04-27T07:58:30Z</time></trkpt><trkpt lat="44.687078590781496" lon="8.297317173902558"><ele>390.25</ele><time>2026-04-27T07:58:31Z</time></trkpt><trkpt lat="44.68695696020163" lon="8.29728537053068"><ele>393.0</ele><time>2026-04-27T07:58:32Z</time></trkpt><trkpt lat="44.68680983167414" lon="8.297198105985911"><ele>393.0</ele><time>2026-04-27T07:58:33Z</time></trkpt><trkpt lat="44.68666478073947" lon="8.297158275595379"><ele>393.0</ele><time>2026-04-27T07:58:34Z</time></trkpt><trkpt lat="44.68654062471304" lon="8.297256145041901"><ele>393.0</ele><time>2026-04-27T07:58:35Z</time></trkpt><trkpt lat="44.686435176729525" lon="8.297476123391558"><ele>386.3333333333333</ele><time>2026-04-27T07:58:36Z</time></trkpt><trkpt lat="44.686351498947296" lon="8.29770855211339"><ele>379.66666666666663</ele><time>2026-04-27T07:58:37Z</time></trkpt><trkpt lat="44.68622912550262" lon="8.297838904430908"><ele>373.0</ele><time>2026-04-27T07:58:38Z</time></trkpt><trkpt lat="44.68606241958736" lon="8.297844690387059"><ele>373.0</ele><time>2026-04-27T07:58:38.999Z</time></trkpt><trkpt lat="44.68584764681565" lon="8.297850767153662"><ele>373.0</ele><time>2026-04-27T07:58:39.999Z</time></trkpt><trkpt lat="44.68565474243893" lon="8.297834910371819"><ele>373.0</ele><time>2026-04-27T07:58:40.999Z</time></trkpt><trkpt lat="44.68550010827134" lon="8.297879162470707"><ele>373.0</ele><time>2026-04-27T07:58:41.999Z</time></trkpt><trkpt lat="44.685393993860636" lon="8.298015450785318"><ele>373.0</ele><time>2026-04-27T07:58:42.999Z</time></trkpt><trkpt lat="44.685316544649105" lon="8.298214442018173"><ele>373.0</ele><time>2026-04-27T07:58:43.999Z</time></trkpt><trkpt lat="44.68518744709892" lon="8.298377110887866"><ele>366.66666666666663</ele><time>2026-04-27T07:58:44.999Z</time></trkpt><trkpt lat="44.68496906070359" lon="8.298488677541453"><ele>360.3333333333333</ele><time>2026-04-27T07:58:45.999Z</time></trkpt><trkpt lat="44.684765768510005" lon="8.298557797752729"><ele>354.0</ele><time>2026-04-27T07:58:46.999Z</time></trkpt><trkpt lat="44.68457872141437" lon="8.298600253075145"><ele>356.3333333333333</ele><time>2026-04-27T07:58:47.999Z</time></trkpt><trkpt lat="44.684395537886324" lon="8.29857142366998"><ele>358.66666666666663</ele><time>2026-04-27T07:58:48.999Z</time></trkpt><trkpt lat="44.684211298849405" lon="8.298583463552086"><ele>361.0</ele><time>2026-04-27T07:58:49.999Z</time></trkpt><trkpt lat="44.68402496221921" lon="8.298698076716937"><ele>361.0</ele><time>2026-04-27T07:58:50.999Z</time></trkpt><trkpt lat="44.683863529878" lon="8.298901101881562"><ele>361.0</ele><time>2026-04-27T07:58:51.999Z</time></trkpt><trkpt lat="44.68372792660671" lon="8.299067989583275"><ele>361.0</ele><time>2026-04-27T07:58:52.999Z</time></trkpt><trkpt lat="44.68358085403044" lon="8.29916274083159"><ele>356.0</ele><time>2026-04-27T07:58:53.999Z</time></trkpt><trkpt lat="44.683406312492195" lon="8.299187214200732"><ele>351.0</ele><time>2026-04-27T07:58:54.999Z</time></trkpt><trkpt lat="44.68320959867291" lon="8.299142306530296"><ele>346.0</ele><time>2026-04-27T07:58:55.999Z</time></trkpt><trkpt lat="44.683023295918886" lon="8.299155205460183"><ele>346.0</ele><time>2026-04-27T07:58:56.999Z</time></trkpt><trkpt lat="44.68280299471787" lon="8.29931741225902"><ele>346.0</ele><time>2026-04-27T07:58:57.999Z</time></trkpt><trkpt lat="44.68257160971334" lon="8.29950107743111"><ele>348.0</ele><time>2026-04-27T07:58:58.999Z</time></trkpt><trkpt lat="44.68235149616815" lon="8.29969011433165"><ele>350.0</ele><time>2026-04-27T07:58:59.999Z</time></trkpt><trkpt lat="44.682131961178484" lon="8.299836153611448"><ele>340.5</ele><time>2026-04-27T07:59:00.999Z</time></trkpt><trkpt lat="44.681907831454645" lon="8.29993720506838"><ele>331.0</ele><time>2026-04-27T07:59:01.999Z</time></trkpt><trkpt lat="44.68166716891279" lon="8.300007533568122"><ele>331.0</ele><time>2026-04-27T07:59:02.999Z</time></trkpt><trkpt lat="44.681428613090546" lon="8.300069183004387"><ele>331.0</ele><time>2026-04-27T07:59:03.999Z</time></trkpt><trkpt lat="44.681185938651744" lon="8.300133548169448"><ele>331.5</ele><time>2026-04-27T07:59:04.999Z</time></trkpt><trkpt lat="44.68093419091828" lon="8.300174276480313"><ele>332.0</ele><time>2026-04-27T07:59:05.999Z</time></trkpt><trkpt lat="44.68070301214003" lon="8.300187352666885"><ele>332.0</ele><time>2026-04-27T07:59:06.999Z</time></trkpt><trkpt lat="44.68049564493963" lon="8.300181386290557"><ele>332.0</ele><time>2026-04-27T07:59:07.999Z</time></trkpt><trkpt lat="44.68031877876766" lon="8.300151799127617"><ele>332.0</ele><time>2026-04-27T07:59:08.999Z</time></trkpt><trkpt lat="44.680156498482205" lon="8.300083272870621"><ele>328.0</ele><time>2026-04-27T07:59:09.999Z</time></trkpt><trkpt lat="44.67998879091477" lon="8.300018064042526"><ele>324.0</ele><time>2026-04-27T07:59:10.999Z</time></trkpt><trkpt lat="44.6797805240613" lon="8.300109484332987"><ele>320.0</ele><time>2026-04-27T07:59:11.999Z</time></trkpt><trkpt lat="44.67958849914343" lon="8.30022644234946"><ele>320.5</ele><time>2026-04-27T07:59:12.999Z</time></trkpt><trkpt lat="44.67939285778439" lon="8.300413856665424"><ele>321.0</ele><time>2026-04-27T07:59:13.999Z</time></trkpt><trkpt lat="44.6791724825413" lon="8.30059158155065"><ele>313.0</ele><time>2026-04-27T07:59:14.999Z</time></trkpt><trkpt lat="44.678959399860005" lon="8.300793192832948"><ele>305.0</ele><time>2026-04-27T07:59:15.999Z</time></trkpt><trkpt lat="44.678738047617855" lon="8.300982877801259"><ele>301.0</ele><time>2026-04-27T07:59:16.999Z</time></trkpt><trkpt lat="44.67852257802986" lon="8.301198358561221"><ele>297.0</ele><time>2026-04-27T07:59:17.999Z</time></trkpt><trkpt lat="44.678332560043806" lon="8.301432024141715"><ele>297.0</ele><time>2026-04-27T07:59:18.999Z</time></trkpt><trkpt lat="44.678150197753844" lon="8.301628673400316"><ele>297.0</ele><time>2026-04-27T07:59:19.999Z</time></trkpt><trkpt lat="44.67796341031158" lon="8.301788693594185"><ele>297.0</ele><time>2026-04-27T07:59:20.999Z</time></trkpt><trkpt lat="44.67779601684279" lon="8.30193741135663"><ele>295.0</ele><time>2026-04-27T07:59:21.999Z</time></trkpt><trkpt lat="44.677657775769156" lon="8.302135995329701"><ele>293.0</ele><time>2026-04-27T07:59:22.999Z</time></trkpt><trkpt lat="44.67757655070397" lon="8.302381398679202"><ele>291.0</ele><time>2026-04-27T07:59:23.999Z</time></trkpt><trkpt lat="44.677515019660035" lon="8.302611742963792"><ele>291.0</ele><time>2026-04-27T07:59:24.999Z</time></trkpt><trkpt lat="44.67740151981553" lon="8.302787090679939"><ele>291.0</ele><time>2026-04-27T07:59:25.999Z</time></trkpt><trkpt lat="44.67724772115368" lon="8.302899064849647"><ele>291.0</ele><time>2026-04-27T07:59:26.999Z</time></trkpt><trkpt lat="44.67705313890888" lon="8.302925438928115"><ele>298.5</ele><time>2026-04-27T07:59:27.999Z</time></trkpt><trkpt lat="44.67682114468667" lon="8.302924760057707"><ele>306.0</ele><time>2026-04-27T07:59:28.999Z</time></trkpt><trkpt lat="44.67657315768193" lon="8.302992323910438"><ele>298.0</ele><time>2026-04-27T07:59:29.999Z</time></trkpt><trkpt lat="44.67631204459978" lon="8.30314349268837"><ele>290.0</ele><time>2026-04-27T07:59:30.999Z</time></trkpt><trkpt lat="44.676054923943965" lon="8.303308369645615"><ele>290.0</ele><time>2026-04-27T07:59:31.999Z</time></trkpt><trkpt lat="44.67576884636061" lon="8.303499372809348"><ele>290.0</ele><time>2026-04-27T07:59:32.999Z</time></trkpt><trkpt lat="44.67551070152691" lon="8.30370021863265"><ele>283.5</ele><time>2026-04-27T07:59:33.999Z</time></trkpt><trkpt lat="44.67527975903469" lon="8.303917381853612"><ele>277.0</ele><time>2026-04-27T07:59:34.999Z</time></trkpt><trkpt lat="44.67506218629652" lon="8.304116959689562"><ele>277.0</ele><time>2026-04-27T07:59:35.999Z</time></trkpt><trkpt lat="44.67485654197646" lon="8.304293108928782"><ele>277.0</ele><time>2026-04-27T07:59:36.999Z</time></trkpt><trkpt lat="44.674662793983074" lon="8.304439799480594"><ele>277.0</ele><time>2026-04-27T07:59:37.999Z</time></trkpt><trkpt lat="44.67445332896965" lon="8.304565109805392"><ele>277.0</ele><time>2026-04-27T07:59:38.999Z</time></trkpt><trkpt lat="44.674221509798905" lon="8.30464488190721"><ele>278.3333333333333</ele><time>2026-04-27T07:59:39.999Z</time></trkpt><trkpt lat="44.67399973129789" lon="8.304671074148615"><ele>279.6666666666667</ele><time>2026-04-27T07:59:40.999Z</time></trkpt><trkpt lat="44.673778669518164" lon="8.304634991227362"><ele>281.0</ele><time>2026-04-27T07:59:41.999Z</time></trkpt><trkpt lat="44.673544201066775" lon="8.304567123778192"><ele>281.0</ele><time>2026-04-27T07:59:42.999Z</time></trkpt><trkpt lat="44.6732969624223" lon="8.304467905098852"><ele>281.0</ele><time>2026-04-27T07:59:43.999Z</time></trkpt><trkpt lat="44.67304851308015" lon="8.30435317495007"><ele>281.0</ele><time>2026-04-27T07:59:44.999Z</time></trkpt><trkpt lat="44.67282657943808" lon="8.304225475294405"><ele>281.0</ele><time>2026-04-27T07:59:45.999Z</time></trkpt><trkpt lat="44.67262187509457" lon="8.304099979999526"><ele>279.33333333333337</ele><time>2026-04-27T07:59:46.999Z</time></trkpt><trkpt lat="44.6724346005793" lon="8.30395466025342"><ele>277.6666666666667</ele><time>2026-04-27T07:59:48Z</time></trkpt><trkpt lat="44.67227074142367" lon="8.303792576003435"><ele>276.0</ele><time>2026-04-27T07:59:49Z</time></trkpt><trkpt lat="44.67211430607679" lon="8.30358465374156"><ele>276.0</ele><time>2026-04-27T07:59:50Z</time></trkpt><trkpt lat="44.671992712537" lon="8.303412803570692"><ele>276.0</ele><time>2026-04-27T07:59:51Z</time></trkpt><trkpt lat="44.671899383058474" lon="8.303246062139259"><ele>276.0</ele><time>2026-04-27T07:59:52Z</time></trkpt><trkpt lat="44.67191436360091" lon="8.30308106552272"><ele>276.0</ele><time>2026-04-27T07:59:53Z</time></trkpt><trkpt lat="44.671920685036156" lon="8.302839626209675"><ele>266.6666666666667</ele><time>2026-04-27T07:59:54Z</time></trkpt><trkpt lat="44.67192100207848" lon="8.30256408110176"><ele>257.33333333333337</ele><time>2026-04-27T07:59:55Z</time></trkpt><trkpt lat="44.67188554310877" lon="8.302368269470566"><ele>248.0</ele><time>2026-04-27T07:59:56Z</time></trkpt><trkpt lat="44.67182851936062" lon="8.302207477242767"><ele>248.0</ele><time>2026-04-27T07:59:57Z</time></trkpt><trkpt lat="44.67171448117635" lon="8.302134174275333"><ele>248.0</ele><time>2026-04-27T07:59:58Z</time></trkpt><trkpt lat="44.67154661219731" lon="8.302099953933746"><ele>248.0</ele><time>2026-04-27T07:59:59Z</time></trkpt><trkpt lat="44.67138495179004" lon="8.302102841541537"><ele>248.0</ele><time>2026-04-27T08:00:00Z</time></trkpt><trkpt lat="44.67126068584844" lon="8.302172184990447"><ele>248.0</ele><time>2026-04-27T08:00:01Z</time></trkpt><trkpt lat="44.671170790261264" lon="8.302315341805397"><ele>248.0</ele><time>2026-04-27T08:00:02Z</time></trkpt><trkpt lat="44.67111811444414" lon="8.30254197333017"><ele>248.0</ele><time>2026-04-27T08:00:03Z</time></trkpt><trkpt lat="44.67110861570792" lon="8.30280766690043"><ele>251.33333333333334</ele><time>2026-04-27T08:00:04Z</time></trkpt><trkpt lat="44.671085222349525" lon="8.30304265846037"><ele>254.66666666666669</ele><time>2026-04-27T08:00:05Z</time></trkpt><trkpt lat="44.67099183735629" lon="8.303195457862744"><ele>258.0</ele><time>2026-04-27T08:00:06Z</time></trkpt><trkpt lat="44.67083737426716" lon="8.303237937840585"><ele>249.0</ele><time>2026-04-27T08:00:07Z</time></trkpt><trkpt lat="44.67064779601948" lon="8.303217776786896"><ele>240.0</ele><time>2026-04-27T08:00:08Z</time></trkpt><trkpt lat="44.670413931423994" lon="8.3031995937308"><ele>231.0</ele><time>2026-04-27T08:00:09Z</time></trkpt><trkpt lat="44.67020259423103" lon="8.303151896344922"><ele>236.5</ele><time>2026-04-27T08:00:10Z</time></trkpt><trkpt lat="44.669996688669855" lon="8.303016771205247"><ele>242.0</ele><time>2026-04-27T08:00:11Z</time></trkpt><trkpt lat="44.66977251074584" lon="8.30285807649161"><ele>242.0</ele><time>2026-04-27T08:00:12Z</time></trkpt><trkpt lat="44.66958651784892" lon="8.302724760708974"><ele>242.0</ele><time>2026-04-27T08:00:13Z</time></trkpt><trkpt lat="44.669351265667956" lon="8.302688539715938"><ele>242.0</ele><time>2026-04-27T08:00:14Z</time></trkpt><trkpt lat="44.66909425258998" lon="8.302722383507948"><ele>237.0</ele><time>2026-04-27T08:00:15Z</time></trkpt><trkpt lat="44.66886062419809" lon="8.30273733327184"><ele>232.0</ele><time>2026-04-27T08:00:16Z</time></trkpt><trkpt lat="44.66867306813213" lon="8.302725986729124"><ele>227.0</ele><time>2026-04-27T08:00:17Z</time></trkpt><trkpt lat="44.66851550770704" lon="8.302685075880554"><ele>224.0</ele><time>2026-04-27T08:00:18Z</time></trkpt><trkpt lat="44.66836122761715" lon="8.302603784769406"><ele>221.0</ele><time>2026-04-27T08:00:19Z</time></trkpt><trkpt lat="44.668217680024824" lon="8.302368989429866"><ele>218.0</ele><time>2026-04-27T08:00:20Z</time></trkpt><trkpt lat="44.668110807852294" lon="8.30211393049423"><ele>218.0</ele><time>2026-04-27T08:00:21Z</time></trkpt><trkpt lat="44.66804925471349" lon="8.30179916271646"><ele>218.0</ele><time>2026-04-27T08:00:22Z</time></trkpt><trkpt lat="44.668008692185204" lon="8.301468312548138"><ele>216.66666666666669</ele><time>2026-04-27T08:00:23Z</time></trkpt><trkpt lat="44.66794803974336" lon="8.301178609153494"><ele>215.33333333333331</ele><time>2026-04-27T08:00:24Z</time></trkpt><trkpt lat="44.667860029263274" lon="8.300930874045847"><ele>214.0</ele><time>2026-04-27T08:00:25Z</time></trkpt><trkpt lat="44.66771803314993" lon="8.300711211138042"><ele>211.5</ele><time>2026-04-27T08:00:26Z</time></trkpt><trkpt lat="44.66753406516011" lon="8.300526780340382"><ele>209.0</ele><time>2026-04-27T08:00:27Z</time></trkpt><trkpt lat="44.66734076656043" lon="8.300336042269064"><ele>209.0</ele><time>2026-04-27T08:00:28Z</time></trkpt><trkpt lat="44.66716865300532" lon="8.300149689545012"><ele>209.0</ele><time>2026-04-27T08:00:29Z</time></trkpt><trkpt lat="44.66700478045144" lon="8.300003363462823"><ele>209.0</ele><time>2026-04-27T08:00:30Z</time></trkpt><trkpt lat="44.66682530047457" lon="8.299916129455877"><ele>206.0</ele><time>2026-04-27T08:00:31Z</time></trkpt><trkpt lat="44.666616866549866" lon="8.299927252767946"><ele>203.0</ele><time>2026-04-27T08:00:32Z</time></trkpt><trkpt lat="44.66642097369496" lon="8.300005246716175"><ele>200.0</ele><time>2026-04-27T08:00:33Z</time></trkpt><trkpt lat="44.66626963363965" lon="8.300113667630695"><ele>200.0</ele><time>2026-04-27T08:00:34Z</time></trkpt><trkpt lat="44.66614022948781" lon="8.30021720382611"><ele>200.0</ele><time>2026-04-27T08:00:35Z</time></trkpt><trkpt lat="44.66602594177444" lon="8.300340744026474"><ele>200.0</ele><time>2026-04-27T08:00:36Z</time></trkpt><trkpt lat="44.665913299870915" lon="8.300508798596343"><ele>198.33333333333334</ele><time>2026-04-27T08:00:37Z</time></trkpt><trkpt lat="44.66580569351679" lon="8.300692000825649"><ele>196.66666666666669</ele><time>2026-04-27T08:00:38Z</time></trkpt><trkpt lat="44.665695419193774" lon="8.300852090081436"><ele>195.0</ele><time>2026-04-27T08:00:39Z</time></trkpt><trkpt lat="44.66557409269616" lon="8.300959612411988"><ele>195.0</ele><time>2026-04-27T08:00:40Z</time></trkpt><trkpt lat="44.66542865580251" lon="8.301004950600495"><ele>195.0</ele><time>2026-04-27T08:00:41Z</time></trkpt><trkpt lat="44.665265477310385" lon="8.300988632884923"><ele>195.0</ele><time>2026-04-27T08:00:42Z</time></trkpt><trkpt lat="44.66509858369689" lon="8.30094308505867"><ele>195.0</ele><time>2026-04-27T08:00:43Z</time></trkpt><trkpt lat="44.664929317003306" lon="8.300902251885306"><ele>195.0</ele><time>2026-04-27T08:00:44Z</time></trkpt><trkpt lat="44.66477325975139" lon="8.300871081884583"><ele>195.0</ele><time>2026-04-27T08:00:45Z</time></trkpt><trkpt lat="44.66462270933635" lon="8.300847668467732"><ele>195.0</ele><time>2026-04-27T08:00:46Z</time></trkpt><trkpt lat="44.664478453099605" lon="8.300823347539989"><ele>195.0</ele><time>2026-04-27T08:00:47Z</time></trkpt><trkpt lat="44.66434513404822" lon="8.300805108030872"><ele>195.0</ele><time>2026-04-27T08:00:48Z</time></trkpt><trkpt lat="44.66420450774389" lon="8.30081851111247"><ele>195.0</ele><time>2026-04-27T08:00:48.999Z</time></trkpt><trkpt lat="44.664067982995796" lon="8.300900947209904"><ele>195.33333333333331</ele><time>2026-04-27T08:00:49.999Z</time></trkpt><trkpt lat="44.663942573482416" lon="8.301032272444838"><ele>195.66666666666666</ele><time>2026-04-27T08:00:50.999Z</time></trkpt><trkpt lat="44.6638206076126" lon="8.301174499537625"><ele>196.0</ele><time>2026-04-27T08:00:51.999Z</time></trkpt><trkpt lat="44.6636961276805" lon="8.301269234753306"><ele>194.75</ele><time>2026-04-27T08:00:52.999Z</time></trkpt><trkpt lat="44.663569410569565" lon="8.301317623616258"><ele>193.5</ele><time>2026-04-27T08:00:53.999Z</time></trkpt><trkpt lat="44.6634397714637" lon="8.301321844399874"><ele>192.25</ele><time>2026-04-27T08:00:54.999Z</time></trkpt><trkpt lat="44.66332669535482" lon="8.301281193639719"><ele>191.0</ele><time>2026-04-27T08:00:55.999Z</time></trkpt><trkpt lat="44.66324023228582" lon="8.301193601241893"><ele>191.0</ele><time>2026-04-27T08:00:56.999Z</time></trkpt><trkpt lat="44.6631638664089" lon="8.301084412754234"><ele>191.0</ele><time>2026-04-27T08:00:57.999Z</time></trkpt><trkpt lat="44.6630965093256" lon="8.300962886580974"><ele>191.0</ele><time>2026-04-27T08:00:58.999Z</time></trkpt><trkpt lat="44.66302564342814" lon="8.300850176257352"><ele>191.0</ele><time>2026-04-27T08:00:59.999Z</time></trkpt><trkpt lat="44.662948588404596" lon="8.300738556392709"><ele>191.0</ele><time>2026-04-27T08:01:00.999Z</time></trkpt><trkpt lat="44.66287042008071" lon="8.300621359892268"><ele>191.75</ele><time>2026-04-27T08:01:01.999Z</time></trkpt><trkpt lat="44.662787789363854" lon="8.30050370564271"><ele>192.5</ele><time>2026-04-27T08:01:02.999Z</time></trkpt><trkpt lat="44.66270693981591" lon="8.300383823831753"><ele>193.25</ele><time>2026-04-27T08:01:03.999Z</time></trkpt><trkpt lat="44.66262205085767" lon="8.300261061401669"><ele>194.0</ele><time>2026-04-27T08:01:04.999Z</time></trkpt><trkpt lat="44.662541523643306" lon="8.300146629825402"><ele>193.50000000000003</ele><time>2026-04-27T08:01:05.999Z</time></trkpt><trkpt lat="44.662468858171046" lon="8.30004433408184"><ele>193.0</ele><time>2026-04-27T08:01:06.999Z</time></trkpt><trkpt lat="44.66240974854514" lon="8.299954061213366"><ele>192.5</ele><time>2026-04-27T08:01:07.999Z</time></trkpt><trkpt lat="44.662357056662366" lon="8.299869015176965"><ele>192.0</ele><time>2026-04-27T08:01:08.999Z</time></trkpt><trkpt lat="44.662306733849334" lon="8.29977613142283"><ele>191.5</ele><time>2026-04-27T08:01:10.999Z</time></trkpt><trkpt lat="44.66230237192193" lon="8.299649363834696"><ele>191.0</ele><time>2026-04-27T08:01:13.999Z</time></trkpt><trkpt lat="44.66232450311886" lon="8.299559662429491"><ele>191.0</ele><time>2026-04-27T08:01:14.999Z</time></trkpt><trkpt lat="44.662381817877964" lon="8.299453261745665"><ele>191.0</ele><time>2026-04-27T08:01:15.999Z</time></trkpt><trkpt lat="44.66242874310722" lon="8.299319241373638"><ele>191.0</ele><time>2026-04-27T08:01:16.999Z</time></trkpt><trkpt lat="44.662504509685775" lon="8.299183841766144"><ele>191.0</ele><time>2026-04-27T08:01:17.999Z</time></trkpt><trkpt lat="44.662583449744766" lon="8.299020172704301"><ele>191.5</ele><time>2026-04-27T08:01:18.999Z</time></trkpt><trkpt lat="44.66264290762381" lon="8.298863646358585"><ele>192.0</ele><time>2026-04-27T08:01:19.999Z</time></trkpt><trkpt lat="44.66267839027091" lon="8.298705469219753"><ele>192.5</ele><time>2026-04-27T08:01:20.999Z</time></trkpt><trkpt lat="44.66267401045322" lon="8.298535581472459"><ele>193.0</ele><time>2026-04-27T08:01:21.999Z</time></trkpt><trkpt lat="44.662661064298184" lon="8.298365986385143"><ele>193.0</ele><time>2026-04-27T08:01:22.999Z</time></trkpt><trkpt lat="44.66266822047713" lon="8.298189102365505"><ele>193.0</ele><time>2026-04-27T08:01:23.999Z</time></trkpt><trkpt lat="44.66269797337804" lon="8.298008562116529"><ele>193.0</ele><time>2026-04-27T08:01:24.999Z</time></trkpt><trkpt lat="44.6627564749984" lon="8.297834399603321"><ele>193.0</ele><time>2026-04-27T08:01:25.999Z</time></trkpt><trkpt lat="44.66283928817266" lon="8.297653365889948"><ele>194.0</ele><time>2026-04-27T08:01:26.999Z</time></trkpt><trkpt lat="44.662939084036225" lon="8.297471453029623"><ele>195.0</ele><time>2026-04-27T08:01:27.999Z</time></trkpt><trkpt lat="44.66305132497671" lon="8.297295234791385"><ele>196.0</ele><time>2026-04-27T08:01:28.999Z</time></trkpt><trkpt lat="44.66316601268742" lon="8.297107961705256"><ele>198.66666666666666</ele><time>2026-04-27T08:01:29.999Z</time></trkpt><trkpt lat="44.663282218334324" lon="8.296910105541706"><ele>201.33333333333331</ele><time>2026-04-27T08:01:30.999Z</time></trkpt><trkpt lat="44.66339092202835" lon="8.296721872127803"><ele>204.0</ele><time>2026-04-27T08:01:31.999Z</time></trkpt><trkpt lat="44.66349906525813" lon="8.296538337532073"><ele>206.0</ele><time>2026-04-27T08:01:32.999Z</time></trkpt><trkpt lat="44.66360794192824" lon="8.296355803648849"><ele>208.0</ele><time>2026-04-27T08:01:33.999Z</time></trkpt><trkpt lat="44.66370592935829" lon="8.296196588437613"><ele>210.0</ele><time>2026-04-27T08:01:34.999Z</time></trkpt><trkpt lat="44.66379986581611" lon="8.296064027275948"><ele>210.0</ele><time>2026-04-27T08:01:35.999Z</time></trkpt><trkpt lat="44.66389087211038" lon="8.295934636775721"><ele>210.0</ele><time>2026-04-27T08:01:36.999Z</time></trkpt><trkpt lat="44.663984920559884" lon="8.295800369595712"><ele>210.0</ele><time>2026-04-27T08:01:37.999Z</time></trkpt><trkpt lat="44.66408304892671" lon="8.295668886153068"><ele>210.0</ele><time>2026-04-27T08:01:38.999Z</time></trkpt><trkpt lat="44.664184223491226" lon="8.295547479395134"><ele>210.25</ele><time>2026-04-27T08:01:39.999Z</time></trkpt><trkpt lat="44.664275617557884" lon="8.295441857943539"><ele>210.5</ele><time>2026-04-27T08:01:40.999Z</time></trkpt><trkpt lat="44.66437013712658" lon="8.295330573705323"><ele>210.75</ele><time>2026-04-27T08:01:41.999Z</time></trkpt><trkpt lat="44.664454306977454" lon="8.295192497101654"><ele>211.0</ele><time>2026-04-27T08:01:42.999Z</time></trkpt><trkpt lat="44.66452418293669" lon="8.295035621061361"><ele>211.0</ele><time>2026-04-27T08:01:43.999Z</time></trkpt><trkpt lat="44.66457023763659" lon="8.294854129877724"><ele>211.0</ele><time>2026-04-27T08:01:44.999Z</time></trkpt><trkpt lat="44.66459043854522" lon="8.294657633820052"><ele>211.0</ele><time>2026-04-27T08:01:45.999Z</time></trkpt><trkpt lat="44.664565401800175" lon="8.294455692048452"><ele>211.0</ele><time>2026-04-27T08:01:46.999Z</time></trkpt><trkpt lat="44.66449276983909" lon="8.294263783304931"><ele>216.0</ele><time>2026-04-27T08:01:47.999Z</time></trkpt><trkpt lat="44.66439422361056" lon="8.294099097234147"><ele>221.0</ele><time>2026-04-27T08:01:48.999Z</time></trkpt><trkpt lat="44.66428955044834" lon="8.293955506825416"><ele>226.0</ele><time>2026-04-27T08:01:49.999Z</time></trkpt><trkpt lat="44.66421232602907" lon="8.293814645661271"><ele>231.0</ele><time>2026-04-27T08:01:50.999Z</time></trkpt><trkpt lat="44.664153945109675" lon="8.293662698980201"><ele>231.0</ele><time>2026-04-27T08:01:51.999Z</time></trkpt><trkpt lat="44.664100520008695" lon="8.293496621447018"><ele>231.0</ele><time>2026-04-27T08:01:52.999Z</time></trkpt><trkpt lat="44.66403986559736" lon="8.293322524407015"><ele>231.0</ele><time>2026-04-27T08:01:54Z</time></trkpt><trkpt lat="44.66397314483224" lon="8.293155467238993"><ele>231.0</ele><time>2026-04-27T08:01:55Z</time></trkpt><trkpt lat="44.66390954357814" lon="8.292992149140279"><ele>231.25</ele><time>2026-04-27T08:01:56Z</time></trkpt><trkpt lat="44.66385303630288" lon="8.292833417430796"><ele>231.5</ele><time>2026-04-27T08:01:57Z</time></trkpt><trkpt lat="44.66380767390948" lon="8.292685800764426"><ele>231.75</ele><time>2026-04-27T08:01:58Z</time></trkpt><trkpt lat="44.663782203700706" lon="8.292538561309998"><ele>232.0</ele><time>2026-04-27T08:01:59Z</time></trkpt><trkpt lat="44.66378194779321" lon="8.292383646947682"><ele>231.75</ele><time>2026-04-27T08:02:00Z</time></trkpt><trkpt lat="44.663835616388745" lon="8.29223681191855"><ele>231.5</ele><time>2026-04-27T08:02:01Z</time></trkpt><trkpt lat="44.66387621852384" lon="8.292076040657125"><ele>231.25</ele><time>2026-04-27T08:02:02Z</time></trkpt><trkpt lat="44.663937052566354" lon="8.291916842017214"><ele>231.0</ele><time>2026-04-27T08:02:03Z</time></trkpt><trkpt lat="44.663989484546725" lon="8.291747329591898"><ele>231.0</ele><time>2026-04-27T08:02:04Z</time></trkpt><trkpt lat="44.66404248374479" lon="8.291571889977302"><ele>231.0</ele><time>2026-04-27T08:02:05Z</time></trkpt><trkpt lat="44.66409672883856" lon="8.291391276742898"><ele>231.0</ele><time>2026-04-27T08:02:06Z</time></trkpt><trkpt lat="44.66414448535242" lon="8.29119924954348"><ele>231.0</ele><time>2026-04-27T08:02:07Z</time></trkpt><trkpt lat="44.66415838382847" lon="8.290995246842305"><ele>230.66666666666669</ele><time>2026-04-27T08:02:08Z</time></trkpt><trkpt lat="44.664110040349605" lon="8.290795015078071"><ele>230.33333333333334</ele><time>2026-04-27T08:02:09Z</time></trkpt><trkpt lat="44.66402190446733" lon="8.2905990601149"><ele>230.0</ele><time>2026-04-27T08:02:10Z</time></trkpt><trkpt lat="44.663921094110066" lon="8.290408903563884"><ele>231.33333333333334</ele><time>2026-04-27T08:02:11Z</time></trkpt><trkpt lat="44.66382195260835" lon="8.290200018336078"><ele>232.66666666666669</ele><time>2026-04-27T08:02:12Z</time></trkpt><trkpt lat="44.66372533124484" lon="8.289978081166218"><ele>234.0</ele><time>2026-04-27T08:02:13Z</time></trkpt><trkpt lat="44.66364030814655" lon="8.289762882762643"><ele>233.0</ele><time>2026-04-27T08:02:14Z</time></trkpt><trkpt lat="44.663565532363684" lon="8.2895487254645"><ele>232.0</ele><time>2026-04-27T08:02:15Z</time></trkpt><trkpt lat="44.66352654230495" lon="8.28933097341999"><ele>231.0</ele><time>2026-04-27T08:02:16Z</time></trkpt><trkpt lat="44.66351347255254" lon="8.289107626096463"><ele>232.66666666666669</ele><time>2026-04-27T08:02:17Z</time></trkpt><trkpt lat="44.66351821171253" lon="8.288860285716659"><ele>234.33333333333334</ele><time>2026-04-27T08:02:18Z</time></trkpt><trkpt lat="44.663517074656" lon="8.288615289433045"><ele>236.0</ele><time>2026-04-27T08:02:19Z</time></trkpt><trkpt lat="44.66350421294536" lon="8.28838784039669"><ele>236.0</ele><time>2026-04-27T08:02:20Z</time></trkpt><trkpt lat="44.66343274946476" lon="8.288216788896905"><ele>236.0</ele><time>2026-04-27T08:02:21Z</time></trkpt><trkpt lat="44.66330732595162" lon="8.288113536515139"><ele>236.0</ele><time>2026-04-27T08:02:22Z</time></trkpt><trkpt lat="44.66314591263986" lon="8.288080567447361"><ele>237.33333333333334</ele><time>2026-04-27T08:02:23Z</time></trkpt><trkpt lat="44.66297522676913" lon="8.288074610404724"><ele>238.66666666666669</ele><time>2026-04-27T08:02:24Z</time></trkpt><trkpt lat="44.66279806824578" lon="8.288051677546973"><ele>240.0</ele><time>2026-04-27T08:02:25Z</time></trkpt><trkpt lat="44.66262537084609" lon="8.288073565059998"><ele>238.66666666666669</ele><time>2026-04-27T08:02:26Z</time></trkpt><trkpt lat="44.66248848391639" lon="8.288188926064633"><ele>237.33333333333334</ele><time>2026-04-27T08:02:27Z</time></trkpt><trkpt lat="44.66235410674695" lon="8.288356989681475"><ele>236.0</ele><time>2026-04-27T08:02:28Z</time></trkpt><trkpt lat="44.662237425601674" lon="8.288533382251984"><ele>236.0</ele><time>2026-04-27T08:02:29Z</time></trkpt><trkpt lat="44.662122305011856" lon="8.288692053001549"><ele>236.0</ele><time>2026-04-27T08:02:30Z</time></trkpt><trkpt lat="44.66200594455092" lon="8.288816711749828"><ele>236.0</ele><time>2026-04-27T08:02:31Z</time></trkpt><trkpt lat="44.66188486870374" lon="8.28889331364086"><ele>236.0</ele><time>2026-04-27T08:02:32Z</time></trkpt><trkpt lat="44.66175950879733" lon="8.288880563606865"><ele>238.66666666666669</ele><time>2026-04-27T08:02:33Z</time></trkpt><trkpt lat="44.66163216696623" lon="8.288793516801569"><ele>241.33333333333331</ele><time>2026-04-27T08:02:34Z</time></trkpt><trkpt lat="44.66151652450837" lon="8.288642777615635"><ele>244.0</ele><time>2026-04-27T08:02:35Z</time></trkpt><trkpt lat="44.661406189847064" lon="8.288461166320685"><ele>244.0</ele><time>2026-04-27T08:02:36Z</time></trkpt><trkpt lat="44.66128739383515" lon="8.288277567829859"><ele>244.0</ele><time>2026-04-27T08:02:37Z</time></trkpt><trkpt lat="44.66116080104356" lon="8.288129721180864"><ele>244.0</ele><time>2026-04-27T08:02:38Z</time></trkpt><trkpt lat="44.66101241361968" lon="8.288048923908454"><ele>245.33333333333331</ele><time>2026-04-27T08:02:39Z</time></trkpt><trkpt lat="44.66083834822914" lon="8.288030813408975"><ele>246.66666666666669</ele><time>2026-04-27T08:02:40Z</time></trkpt><trkpt lat="44.66064981276627" lon="8.28803982102605"><ele>248.0</ele><time>2026-04-27T08:02:41Z</time></trkpt><trkpt lat="44.660448098196134" lon="8.288032586652399"><ele>249.33333333333334</ele><time>2026-04-27T08:02:42Z</time></trkpt><trkpt lat="44.660244696281666" lon="8.288025503109772"><ele>250.66666666666669</ele><time>2026-04-27T08:02:43Z</time></trkpt><trkpt lat="44.66002951770022" lon="8.288015604964462"><ele>252.0</ele><time>2026-04-27T08:02:44Z</time></trkpt><trkpt lat="44.65980382816751" lon="8.288007191167816"><ele>252.0</ele><time>2026-04-27T08:02:45Z</time></trkpt><trkpt lat="44.659580412663196" lon="8.287998703263112"><ele>252.0</ele><time>2026-04-27T08:02:46Z</time></trkpt><trkpt lat="44.65935494910907" lon="8.287983538485493"><ele>252.0</ele><time>2026-04-27T08:02:47Z</time></trkpt><trkpt lat="44.659135639966564" lon="8.287960864300016"><ele>252.33333333333331</ele><time>2026-04-27T08:02:48Z</time></trkpt><trkpt lat="44.658922420229445" lon="8.287924125823034"><ele>252.66666666666666</ele><time>2026-04-27T08:02:49Z</time></trkpt><trkpt lat="44.658713343957096" lon="8.287872536216355"><ele>253.0</ele><time>2026-04-27T08:02:50Z</time></trkpt><trkpt lat="44.6585011782494" lon="8.287815099060607"><ele>253.0</ele><time>2026-04-27T08:02:51Z</time></trkpt><trkpt lat="44.65829148186058" lon="8.287754294734427"><ele>253.0</ele><time>2026-04-27T08:02:52Z</time></trkpt><trkpt lat="44.658089343928445" lon="8.287677911653898"><ele>253.0</ele><time>2026-04-27T08:02:53Z</time></trkpt><trkpt lat="44.65789675699378" lon="8.287572786813207"><ele>253.0</ele><time>2026-04-27T08:02:54Z</time></trkpt><trkpt lat="44.657722305960775" lon="8.287429683586158"><ele>253.0</ele><time>2026-04-27T08:02:55Z</time></trkpt><trkpt lat="44.65756119308098" lon="8.287249439353905"><ele>253.0</ele><time>2026-04-27T08:02:56Z</time></trkpt><trkpt lat="44.65741547050921" lon="8.287046647277869"><ele>254.33333333333331</ele><time>2026-04-27T08:02:56.999Z</time></trkpt><trkpt lat="44.65727115518077" lon="8.286834561232101"><ele>255.66666666666669</ele><time>2026-04-27T08:02:57.999Z</time></trkpt><trkpt lat="44.65711739023357" lon="8.28661773428162"><ele>257.0</ele><time>2026-04-27T08:02:58.999Z</time></trkpt><trkpt lat="44.656977485920514" lon="8.28642557625083"><ele>255.33333333333334</ele><time>2026-04-27T08:02:59.999Z</time></trkpt><trkpt lat="44.656847222038" lon="8.286248231605462"><ele>253.66666666666669</ele><time>2026-04-27T08:03:00.999Z</time></trkpt><trkpt lat="44.65673544267462" lon="8.286082544737123"><ele>252.0</ele><time>2026-04-27T08:03:01.999Z</time></trkpt><trkpt lat="44.656671085717555" lon="8.2859200208742"><ele>252.0</ele><time>2026-04-27T08:03:02.999Z</time></trkpt><trkpt lat="44.6566482090445" lon="8.28574296901637"><ele>252.0</ele><time>2026-04-27T08:03:03.999Z</time></trkpt><trkpt lat="44.65665401994417" lon="8.285538899352241"><ele>252.0</ele><time>2026-04-27T08:03:04.999Z</time></trkpt><trkpt lat="44.656669199424826" lon="8.28530908602025"><ele>252.0</ele><time>2026-04-27T08:03:05.999Z</time></trkpt><trkpt lat="44.65669941742569" lon="8.285069409981805"><ele>250.33333333333331</ele><time>2026-04-27T08:03:06.999Z</time></trkpt><trkpt lat="44.65676616579993" lon="8.284826202639367"><ele>248.66666666666666</ele><time>2026-04-27T08:03:07.999Z</time></trkpt><trkpt lat="44.656859284332164" lon="8.284579188754675"><ele>247.0</ele><time>2026-04-27T08:03:08.999Z</time></trkpt><trkpt lat="44.656973356816394" lon="8.28436354187536"><ele>252.33333333333331</ele><time>2026-04-27T08:03:09.999Z</time></trkpt><trkpt lat="44.657087190789696" lon="8.28417663128258"><ele>257.6666666666667</ele><time>2026-04-27T08:03:10.999Z</time></trkpt><trkpt lat="44.6572320933091" lon="8.284023871955496"><ele>263.0</ele><time>2026-04-27T08:03:11.999Z</time></trkpt><trkpt lat="44.65739301743142" lon="8.283865245510272"><ele>263.33333333333337</ele><time>2026-04-27T08:03:12.999Z</time></trkpt><trkpt lat="44.65755818989299" lon="8.283704941536705"><ele>263.6666666666667</ele><time>2026-04-27T08:03:13.999Z</time></trkpt><trkpt lat="44.657732071173065" lon="8.28353923251925"><ele>264.0</ele><time>2026-04-27T08:03:14.999Z</time></trkpt><trkpt lat="44.65791256415336" lon="8.283367222603593"><ele>264.0</ele><time>2026-04-27T08:03:15.999Z</time></trkpt><trkpt lat="44.65808704468888" lon="8.283193634091592"><ele>264.0</ele><time>2026-04-27T08:03:16.999Z</time></trkpt><trkpt lat="44.658248691800296" lon="8.283033339016493"><ele>264.0</ele><time>2026-04-27T08:03:17.999Z</time></trkpt><trkpt lat="44.65842508139479" lon="8.282905985478353"><ele>263.3333333333333</ele><time>2026-04-27T08:03:18.999Z</time></trkpt><trkpt lat="44.658606368659" lon="8.28276418679822"><ele>262.66666666666663</ele><time>2026-04-27T08:03:19.999Z</time></trkpt><trkpt lat="44.658749795218554" lon="8.282543226036596"><ele>262.0</ele><time>2026-04-27T08:03:20.999Z</time></trkpt><trkpt lat="44.65889683448948" lon="8.282305177187943"><ele>247.5</ele><time>2026-04-27T08:03:21.999Z</time></trkpt><trkpt lat="44.65907499032111" lon="8.282094572707223"><ele>233.0</ele><time>2026-04-27T08:03:22.999Z</time></trkpt><trkpt lat="44.65925510775573" lon="8.281877358956793"><ele>233.0</ele><time>2026-04-27T08:03:23.999Z</time></trkpt><trkpt lat="44.659433022492756" lon="8.281662844888368"><ele>233.0</ele><time>2026-04-27T08:03:24.999Z</time></trkpt><trkpt lat="44.6596090283473" lon="8.281460093059877"><ele>230.0</ele><time>2026-04-27T08:03:25.999Z</time></trkpt><trkpt lat="44.65979287496187" lon="8.281265160472714"><ele>227.0</ele><time>2026-04-27T08:03:26.999Z</time></trkpt><trkpt lat="44.65997948520044" lon="8.281067316938692"><ele>227.0</ele><time>2026-04-27T08:03:27.999Z</time></trkpt><trkpt lat="44.66016546727567" lon="8.280869700408218"><ele>227.0</ele><time>2026-04-27T08:03:28.999Z</time></trkpt><trkpt lat="44.66034052494569" lon="8.280657411228603"><ele>229.33333333333334</ele><time>2026-04-27T08:03:29.999Z</time></trkpt><trkpt lat="44.66052087430468" lon="8.280473500169354"><ele>231.66666666666669</ele><time>2026-04-27T08:03:30.999Z</time></trkpt><trkpt lat="44.660687877555716" lon="8.280302477225641"><ele>234.0</ele><time>2026-04-27T08:03:31.999Z</time></trkpt><trkpt lat="44.66083918978964" lon="8.280140248350829"><ele>234.0</ele><time>2026-04-27T08:03:32.999Z</time></trkpt><trkpt lat="44.66096888129759" lon="8.279972647368655"><ele>234.0</ele><time>2026-04-27T08:03:33.999Z</time></trkpt><trkpt lat="44.66105717959051" lon="8.279767918173144"><ele>234.0</ele><time>2026-04-27T08:03:34.999Z</time></trkpt><trkpt lat="44.66111467057846" lon="8.279534261478402"><ele>238.33333333333331</ele><time>2026-04-27T08:03:35.999Z</time></trkpt><trkpt lat="44.66116522928621" lon="8.279325392525207"><ele>242.66666666666666</ele><time>2026-04-27T08:03:36.999Z</time></trkpt><trkpt lat="44.66121754412324" lon="8.279139281591167"><ele>247.0</ele><time>2026-04-27T08:03:37.999Z</time></trkpt><trkpt lat="44.66134090824452" lon="8.278994155595223"><ele>236.66666666666666</ele><time>2026-04-27T08:03:38.999Z</time></trkpt><trkpt lat="44.661503465403975" lon="8.278891829166936"><ele>226.33333333333331</ele><time>2026-04-27T08:03:39.999Z</time></trkpt><trkpt lat="44.66166819404848" lon="8.278757037123203"><ele>216.0</ele><time>2026-04-27T08:03:40.999Z</time></trkpt><trkpt lat="44.661823253348096" lon="8.278593532484903"><ele>221.33333333333331</ele><time>2026-04-27T08:03:41.999Z</time></trkpt><trkpt lat="44.66198631198" lon="8.278461134491295"><ele>226.66666666666666</ele><time>2026-04-27T08:03:42.999Z</time></trkpt><trkpt lat="44.66217928060822" lon="8.278363719302995"><ele>232.0</ele><time>2026-04-27T08:03:43.999Z</time></trkpt><trkpt lat="44.66239400271261" lon="8.278261260961127"><ele>232.0</ele><time>2026-04-27T08:03:44.999Z</time></trkpt><trkpt lat="44.66260839335314" lon="8.27814734973163"><ele>232.0</ele><time>2026-04-27T08:03:45.999Z</time></trkpt><trkpt lat="44.66282252010484" lon="8.278059515374334"><ele>228.33333333333331</ele><time>2026-04-27T08:03:46.999Z</time></trkpt><trkpt lat="44.66301772418152" lon="8.277976140247517"><ele>224.66666666666669</ele><time>2026-04-27T08:03:47.999Z</time></trkpt><trkpt lat="44.66319625351277" lon="8.277890791600814"><ele>221.0</ele><time>2026-04-27T08:03:48.999Z</time></trkpt><trkpt lat="44.66334670670644" lon="8.277787061893765"><ele>221.0</ele><time>2026-04-27T08:03:49.999Z</time></trkpt><trkpt lat="44.66347592737436" lon="8.277613836523523"><ele>221.0</ele><time>2026-04-27T08:03:50.999Z</time></trkpt><trkpt lat="44.663589921301806" lon="8.277391707082897"><ele>221.0</ele><time>2026-04-27T08:03:51.999Z</time></trkpt><trkpt lat="44.66371219939181" lon="8.27715499945371"><ele>221.33333333333334</ele><time>2026-04-27T08:03:52.999Z</time></trkpt><trkpt lat="44.66386157690774" lon="8.276918536917453"><ele>221.66666666666669</ele><time>2026-04-27T08:03:53.999Z</time></trkpt><trkpt lat="44.66401749184727" lon="8.276692860949627"><ele>222.0</ele><time>2026-04-27T08:03:54.999Z</time></trkpt><trkpt lat="44.664164192772" lon="8.276484969672916"><ele>218.33333333333331</ele><time>2026-04-27T08:03:55.999Z</time></trkpt><trkpt lat="44.664305082905685" lon="8.276284152458858"><ele>214.66666666666666</ele><time>2026-04-27T08:03:56.999Z</time></trkpt><trkpt lat="44.66439351396469" lon="8.276023478460155"><ele>211.0</ele><time>2026-04-27T08:03:57.999Z</time></trkpt><trkpt lat="44.66443699503762" lon="8.275718920546398"><ele>224.5</ele><time>2026-04-27T08:03:58.999Z</time></trkpt><trkpt lat="44.66447137057467" lon="8.275409300492784"><ele>238.0</ele><time>2026-04-27T08:04:00Z</time></trkpt><trkpt lat="44.66450840081554" lon="8.27507576958343"><ele>238.0</ele><time>2026-04-27T08:04:01Z</time></trkpt><trkpt lat="44.6645075659983" lon="8.274860809642798"><ele>238.0</ele><time>2026-04-27T08:04:02Z</time></trkpt><trkpt lat="44.66454356455607" lon="8.274573137714997"><ele>238.0</ele><time>2026-04-27T08:04:03Z</time></trkpt><trkpt lat="44.66455658740723" lon="8.274270111789685"><ele>234.5</ele><time>2026-04-27T08:04:04Z</time></trkpt><trkpt lat="44.66453075239983" lon="8.27395989435678"><ele>231.0</ele><time>2026-04-27T08:04:05Z</time></trkpt><trkpt lat="44.66446653264644" lon="8.2736414355395"><ele>226.66666666666669</ele><time>2026-04-27T08:04:06Z</time></trkpt><trkpt lat="44.66438892039169" lon="8.273341614255594"><ele>222.33333333333334</ele><time>2026-04-27T08:04:07Z</time></trkpt><trkpt lat="44.664320430730356" lon="8.273055801564908"><ele>218.0</ele><time>2026-04-27T08:04:08Z</time></trkpt><trkpt lat="44.66425459820211" lon="8.272792298032906"><ele>218.0</ele><time>2026-04-27T08:04:09Z</time></trkpt><trkpt lat="44.66416152267531" lon="8.27254510735523"><ele>218.0</ele><time>2026-04-27T08:04:10Z</time></trkpt><trkpt lat="44.664023995766414" lon="8.272332351967473"><ele>218.0</ele><time>2026-04-27T08:04:11Z</time></trkpt><trkpt lat="44.663853362938134" lon="8.272139880813814"><ele>215.0</ele><time>2026-04-27T08:04:12Z</time></trkpt><trkpt lat="44.66368453049287" lon="8.271946627179458"><ele>212.0</ele><time>2026-04-27T08:04:13Z</time></trkpt><trkpt lat="44.66352161720433" lon="8.271758950422287"><ele>209.0</ele><time>2026-04-27T08:04:14Z</time></trkpt><trkpt lat="44.66336804904579" lon="8.271577444936657"><ele>212.0</ele><time>2026-04-27T08:04:15Z</time></trkpt><trkpt lat="44.66321836309189" lon="8.271404452948259"><ele>215.0</ele><time>2026-04-27T08:04:16Z</time></trkpt><trkpt lat="44.66307405282414" lon="8.271238835434524"><ele>218.0</ele><time>2026-04-27T08:04:17Z</time></trkpt><trkpt lat="44.66294474948062" lon="8.271091747386478"><ele>218.0</ele><time>2026-04-27T08:04:18Z</time></trkpt><trkpt lat="44.66282274881683" lon="8.270949447648924"><ele>218.0</ele><time>2026-04-27T08:04:19Z</time></trkpt><trkpt lat="44.66270273092232" lon="8.270821274233485"><ele>218.0</ele><time>2026-04-27T08:04:20Z</time></trkpt><trkpt lat="44.66258267750492" lon="8.27070808576595"><ele>215.25</ele><time>2026-04-27T08:04:21Z</time></trkpt><trkpt lat="44.662469019833765" lon="8.270605123670224"><ele>212.5</ele><time>2026-04-27T08:04:22Z</time></trkpt><trkpt lat="44.662362404416704" lon="8.270504060009522"><ele>209.75</ele><time>2026-04-27T08:04:23Z</time></trkpt><trkpt lat="44.662263391032276" lon="8.270410373465118"><ele>207.0</ele><time>2026-04-27T08:04:24Z</time></trkpt><trkpt lat="44.66216554250465" lon="8.270322340260718"><ele>207.0</ele><time>2026-04-27T08:04:25Z</time></trkpt><trkpt lat="44.66206081853133" lon="8.270228775727839"><ele>207.0</ele><time>2026-04-27T08:04:26Z</time></trkpt><trkpt lat="44.66195234308936" lon="8.270136569979003"><ele>207.0</ele><time>2026-04-27T08:04:27Z</time></trkpt><trkpt lat="44.66184473199397" lon="8.270046790374426"><ele>207.0</ele><time>2026-04-27T08:04:28Z</time></trkpt><trkpt lat="44.661737107972876" lon="8.269955103046824"><ele>206.5</ele><time>2026-04-27T08:04:29Z</time></trkpt><trkpt lat="44.66162232764653" lon="8.269874044097719"><ele>206.0</ele><time>2026-04-27T08:04:30Z</time></trkpt><trkpt lat="44.66150561160327" lon="8.269810585234447"><ele>205.5</ele><time>2026-04-27T08:04:31Z</time></trkpt><trkpt lat="44.6613898856164" lon="8.269760857105943"><ele>205.0</ele><time>2026-04-27T08:04:32Z</time></trkpt><trkpt lat="44.661282196677185" lon="8.269712952124367"><ele>207.2</ele><time>2026-04-27T08:04:33Z</time></trkpt><trkpt lat="44.661184781831295" lon="8.269667057302186"><ele>209.4</ele><time>2026-04-27T08:04:34Z</time></trkpt><trkpt lat="44.661088698541676" lon="8.269621979767795"><ele>211.60000000000002</ele><time>2026-04-27T08:04:35Z</time></trkpt><trkpt lat="44.66098344020865" lon="8.269575363054493"><ele>213.8</ele><time>2026-04-27T08:04:36Z</time></trkpt><trkpt lat="44.66087461301963" lon="8.269527886470502"><ele>216.0</ele><time>2026-04-27T08:04:37Z</time></trkpt><trkpt lat="44.660758950674435" lon="8.269471178704801"><ele>216.0</ele><time>2026-04-27T08:04:38Z</time></trkpt><trkpt lat="44.66063841689758" lon="8.269415986558574"><ele>216.0</ele><time>2026-04-27T08:04:39Z</time></trkpt><trkpt lat="44.66050932185538" lon="8.269362890585901"><ele>216.0</ele><time>2026-04-27T08:04:40Z</time></trkpt><trkpt lat="44.6603745994083" lon="8.26930634250194"><ele>216.0</ele><time>2026-04-27T08:04:41Z</time></trkpt><trkpt lat="44.66023228948277" lon="8.269241501173187"><ele>214.33333333333331</ele><time>2026-04-27T08:04:42Z</time></trkpt><trkpt lat="44.66007788044928" lon="8.269174750244716"><ele>212.66666666666666</ele><time>2026-04-27T08:04:43Z</time></trkpt><trkpt lat="44.659924820191726" lon="8.269112775054966"><ele>211.0</ele><time>2026-04-27T08:04:44Z</time></trkpt><trkpt lat="44.65976721918306" lon="8.269053325196543"><ele>211.0</ele><time>2026-04-27T08:04:45Z</time></trkpt><trkpt lat="44.65962064176317" lon="8.268997366900491"><ele>211.0</ele><time>2026-04-27T08:04:46Z</time></trkpt><trkpt lat="44.65948047771126" lon="8.268943020600341"><ele>211.0</ele><time>2026-04-27T08:04:47Z</time></trkpt><trkpt lat="44.65933752969847" lon="8.26888740561437"><ele>211.0</ele><time>2026-04-27T08:04:48Z</time></trkpt><trkpt lat="44.65919225693164" lon="8.268822969869738"><ele>213.66666666666666</ele><time>2026-04-27T08:04:49Z</time></trkpt><trkpt lat="44.65904495798978" lon="8.268748637391521"><ele>216.33333333333331</ele><time>2026-04-27T08:04:50Z</time></trkpt><trkpt lat="44.658892332178326" lon="8.268665544617319"><ele>219.0</ele><time>2026-04-27T08:04:51Z</time></trkpt><trkpt lat="44.65873919815645" lon="8.268571858412988"><ele>216.0</ele><time>2026-04-27T08:04:52Z</time></trkpt><trkpt lat="44.6585870057517" lon="8.268468325038091"><ele>213.0</ele><time>2026-04-27T08:04:53Z</time></trkpt><trkpt lat="44.658431662212195" lon="8.268359543950726"><ele>210.0</ele><time>2026-04-27T08:04:54Z</time></trkpt><trkpt lat="44.658272728765056" lon="8.268249627692686"><ele>210.0</ele><time>2026-04-27T08:04:55Z</time></trkpt><trkpt lat="44.65811423538982" lon="8.268136256231086"><ele>210.0</ele><time>2026-04-27T08:04:56Z</time></trkpt><trkpt lat="44.65794752351169" lon="8.268019425837545"><ele>210.0</ele><time>2026-04-27T08:04:57Z</time></trkpt><trkpt lat="44.65778558937672" lon="8.267903651614391"><ele>211.66666666666669</ele><time>2026-04-27T08:04:58Z</time></trkpt><trkpt lat="44.65762923924253" lon="8.267791852539991"><ele>213.33333333333334</ele><time>2026-04-27T08:04:58.999Z</time></trkpt><trkpt lat="44.65747204496734" lon="8.26767729314491"><ele>215.0</ele><time>2026-04-27T08:04:59.999Z</time></trkpt><trkpt lat="44.65731565129792" lon="8.267561672395653"><ele>215.0</ele><time>2026-04-27T08:05:00.999Z</time></trkpt><trkpt lat="44.65716346399224" lon="8.267451957673014"><ele>215.0</ele><time>2026-04-27T08:05:01.999Z</time></trkpt><trkpt lat="44.65701040767571" lon="8.267342461934495"><ele>215.0</ele><time>2026-04-27T08:05:02.999Z</time></trkpt><trkpt lat="44.656857558586694" lon="8.267232520524576"><ele>213.33333333333334</ele><time>2026-04-27T08:05:03.999Z</time></trkpt><trkpt lat="44.656706091654684" lon="8.267121939987431"><ele>211.66666666666669</ele><time>2026-04-27T08:05:04.999Z</time></trkpt><trkpt lat="44.656555934463576" lon="8.267012536307616"><ele>210.0</ele><time>2026-04-27T08:05:05.999Z</time></trkpt><trkpt lat="44.656398036616764" lon="8.266911615813905"><ele>210.0</ele><time>2026-04-27T08:05:06.999Z</time></trkpt><trkpt lat="44.65623394115345" lon="8.266824689665368"><ele>210.0</ele><time>2026-04-27T08:05:07.999Z</time></trkpt><trkpt lat="44.65606149421188" lon="8.266760433490495"><ele>210.0</ele><time>2026-04-27T08:05:08.999Z</time></trkpt><trkpt lat="44.65587882356097" lon="8.266718408470577"><ele>211.33333333333331</ele><time>2026-04-27T08:05:09.999Z</time></trkpt><trkpt lat="44.65568754492742" lon="8.26668852375538"><ele>212.66666666666666</ele><time>2026-04-27T08:05:10.999Z</time></trkpt><trkpt lat="44.655499517682024" lon="8.266666122122599"><ele>214.0</ele><time>2026-04-27T08:05:11.999Z</time></trkpt><trkpt lat="44.65530605642692" lon="8.266642038136006"><ele>212.0</ele><time>2026-04-27T08:05:12.999Z</time></trkpt><trkpt lat="44.65510308878723" lon="8.266610142981321"><ele>210.0</ele><time>2026-04-27T08:05:13.999Z</time></trkpt><trkpt lat="44.65489700839945" lon="8.26657930584946"><ele>208.0</ele><time>2026-04-27T08:05:14.999Z</time></trkpt><trkpt lat="44.654679979681866" lon="8.266548106974833"><ele>208.0</ele><time>2026-04-27T08:05:15.999Z</time></trkpt><trkpt lat="44.65446541873294" lon="8.266518732875879"><ele>208.0</ele><time>2026-04-27T08:05:16.999Z</time></trkpt><trkpt lat="44.65424040517823" lon="8.266493492038325"><ele>208.0</ele><time>2026-04-27T08:05:17.999Z</time></trkpt><trkpt lat="44.65402809174264" lon="8.266465931416661"><ele>212.0</ele><time>2026-04-27T08:05:18.999Z</time></trkpt><trkpt lat="44.65382506308647" lon="8.266431316218608"><ele>216.0</ele><time>2026-04-27T08:05:19.999Z</time></trkpt><trkpt lat="44.65361952439969" lon="8.26640798897122"><ele>220.0</ele><time>2026-04-27T08:05:20.999Z</time></trkpt><trkpt lat="44.65341852824417" lon="8.266382372672371"><ele>220.0</ele><time>2026-04-27T08:05:21.999Z</time></trkpt><trkpt lat="44.653212126557456" lon="8.266352049849896"><ele>220.0</ele><time>2026-04-27T08:05:22.999Z</time></trkpt><trkpt lat="44.65300690656788" lon="8.266324443626218"><ele>220.0</ele><time>2026-04-27T08:05:23.999Z</time></trkpt><trkpt lat="44.652807087428265" lon="8.26629866032524"><ele>218.66666666666666</ele><time>2026-04-27T08:05:24.999Z</time></trkpt><trkpt lat="44.652618837403345" lon="8.26627605589455"><ele>217.33333333333331</ele><time>2026-04-27T08:05:25.999Z</time></trkpt><trkpt lat="44.65243615688527" lon="8.266255322843051"><ele>216.0</ele><time>2026-04-27T08:05:26.999Z</time></trkpt><trkpt lat="44.652255891785074" lon="8.266229422137963"><ele>216.0</ele><time>2026-04-27T08:05:27.999Z</time></trkpt><trkpt lat="44.65207669489899" lon="8.266202199135597"><ele>216.0</ele><time>2026-04-27T08:05:28.999Z</time></trkpt><trkpt lat="44.65190159239168" lon="8.26617707947497"><ele>216.0</ele><time>2026-04-27T08:05:29.999Z</time></trkpt><trkpt lat="44.65172909936427" lon="8.26614927125139"><ele>214.66666666666669</ele><time>2026-04-27T08:05:30.999Z</time></trkpt><trkpt lat="44.65155611151866" lon="8.2661253414121"><ele>213.33333333333334</ele><time>2026-04-27T08:05:31.999Z</time></trkpt><trkpt lat="44.651381671552244" lon="8.26610217037436"><ele>212.0</ele><time>2026-04-27T08:05:32.999Z</time></trkpt><trkpt lat="44.65120223913584" lon="8.266071582612451"><ele>210.66666666666669</ele><time>2026-04-27T08:05:33.999Z</time></trkpt><trkpt lat="44.65102795398357" lon="8.26601357658795"><ele>209.33333333333331</ele><time>2026-04-27T08:05:34.999Z</time></trkpt><trkpt lat="44.65086880363081" lon="8.265910462528174"><ele>208.0</ele><time>2026-04-27T08:05:35.999Z</time></trkpt><trkpt lat="44.65072880983242" lon="8.265757502077985"><ele>212.66666666666666</ele><time>2026-04-27T08:05:36.999Z</time></trkpt><trkpt lat="44.65060434169395" lon="8.265581320266616"><ele>217.33333333333331</ele><time>2026-04-27T08:05:37.999Z</time></trkpt><trkpt lat="44.65049942312924" lon="8.265375923929588"><ele>222.0</ele><time>2026-04-27T08:05:38.999Z</time></trkpt><trkpt lat="44.65042412521131" lon="8.265153698675677"><ele>222.0</ele><time>2026-04-27T08:05:39.999Z</time></trkpt><trkpt lat="44.65038880110146" lon="8.264905138386966"><ele>222.0</ele><time>2026-04-27T08:05:40.999Z</time></trkpt><trkpt lat="44.65037143748876" lon="8.264648153869302"><ele>222.0</ele><time>2026-04-27T08:05:41.999Z</time></trkpt><trkpt lat="44.650369587650054" lon="8.264394825333929"><ele>224.0</ele><time>2026-04-27T08:05:42.999Z</time></trkpt><trkpt lat="44.65038857756773" lon="8.264160149036444"><ele>226.0</ele><time>2026-04-27T08:05:43.999Z</time></trkpt><trkpt lat="44.6504307708419" lon="8.26391965011446"><ele>228.0</ele><time>2026-04-27T08:05:44.999Z</time></trkpt><trkpt lat="44.65051144311266" lon="8.263690352115647"><ele>224.0</ele><time>2026-04-27T08:05:45.999Z</time></trkpt><trkpt lat="44.65057174374244" lon="8.263431971990778"><ele>220.0</ele><time>2026-04-27T08:05:46.999Z</time></trkpt><trkpt lat="44.65065089772154" lon="8.263167180958025"><ele>216.0</ele><time>2026-04-27T08:05:47.999Z</time></trkpt><trkpt lat="44.65073118235131" lon="8.262887302029169"><ele>210.0</ele><time>2026-04-27T08:05:48.999Z</time></trkpt><trkpt lat="44.65081040603169" lon="8.26259529501263"><ele>204.0</ele><time>2026-04-27T08:05:49.999Z</time></trkpt><trkpt lat="44.65089612818679" lon="8.26229581630274"><ele>201.0</ele><time>2026-04-27T08:05:50.999Z</time></trkpt><trkpt lat="44.65098171981451" lon="8.261993022374623"><ele>198.0</ele><time>2026-04-27T08:05:51.999Z</time></trkpt><trkpt lat="44.65107123476486" lon="8.261682577003528"><ele>201.0</ele><time>2026-04-27T08:05:52.999Z</time></trkpt><trkpt lat="44.65116124437262" lon="8.261364833743324"><ele>204.0</ele><time>2026-04-27T08:05:53.999Z</time></trkpt><trkpt lat="44.65126594082477" lon="8.261058824386643"><ele>204.0</ele><time>2026-04-27T08:05:54.999Z</time></trkpt><trkpt lat="44.65135440519554" lon="8.260747902726628"><ele>204.0</ele><time>2026-04-27T08:05:55.999Z</time></trkpt><trkpt lat="44.65144276112045" lon="8.260437362289373"><ele>202.5</ele><time>2026-04-27T08:05:56.999Z</time></trkpt><trkpt lat="44.651531782141596" lon="8.260124484291653"><ele>201.0</ele><time>2026-04-27T08:05:57.999Z</time></trkpt><trkpt lat="44.65162060786686" lon="8.259812292593006"><ele>200.5</ele><time>2026-04-27T08:05:58.999Z</time></trkpt><trkpt lat="44.651709292766135" lon="8.259500595988973"><ele>200.0</ele><time>2026-04-27T08:05:59.999Z</time></trkpt><trkpt lat="44.65178293877062" lon="8.259178948925474"><ele>200.0</ele><time>2026-04-27T08:06:00.999Z</time></trkpt><trkpt lat="44.651873260223375" lon="8.258864609394667"><ele>200.0</ele><time>2026-04-27T08:06:01.999Z</time></trkpt><trkpt lat="44.65197835954441" lon="8.258562339187199"><ele>202.0</ele><time>2026-04-27T08:06:02.999Z</time></trkpt><trkpt lat="44.65206711955498" lon="8.258257903118036"><ele>204.0</ele><time>2026-04-27T08:06:03.999Z</time></trkpt><trkpt lat="44.65215360422791" lon="8.257961271263643"><ele>204.0</ele><time>2026-04-27T08:06:04.999Z</time></trkpt><trkpt lat="44.65223476921606" lon="8.257660189978049"><ele>204.0</ele><time>2026-04-27T08:06:06Z</time></trkpt><trkpt lat="44.6523036617899" lon="8.257351006960121"><ele>203.0</ele><time>2026-04-27T08:06:07Z</time></trkpt><trkpt lat="44.65238966618299" lon="8.25704947324271"><ele>202.0</ele><time>2026-04-27T08:06:08Z</time></trkpt><trkpt lat="44.6524768277789" lon="8.256750360989571"><ele>202.0</ele><time>2026-04-27T08:06:09Z</time></trkpt><trkpt lat="44.65256512824331" lon="8.256455200447176"><ele>202.0</ele><time>2026-04-27T08:06:10Z</time></trkpt><trkpt lat="44.65264705807067" lon="8.256166183059687"><ele>202.0</ele><time>2026-04-27T08:06:11Z</time></trkpt><trkpt lat="44.652726760824706" lon="8.255880345878309"><ele>206.66666666666666</ele><time>2026-04-27T08:06:12Z</time></trkpt><trkpt lat="44.6528064181647" lon="8.255596030716902"><ele>211.33333333333331</ele><time>2026-04-27T08:06:13Z</time></trkpt><trkpt lat="44.65288336096434" lon="8.255316126056364"><ele>216.0</ele><time>2026-04-27T08:06:14Z</time></trkpt><trkpt lat="44.652958633396075" lon="8.255034370682251"><ele>215.66666666666669</ele><time>2026-04-27T08:06:15Z</time></trkpt><trkpt lat="44.65302308132894" lon="8.254748973727885"><ele>215.33333333333334</ele><time>2026-04-27T08:06:16Z</time></trkpt><trkpt lat="44.65307253716959" lon="8.254455256412555"><ele>215.0</ele><time>2026-04-27T08:06:17Z</time></trkpt><trkpt lat="44.653112044451674" lon="8.2541550686961"><ele>213.66666666666669</ele><time>2026-04-27T08:06:18Z</time></trkpt><trkpt lat="44.65314113691548" lon="8.253846618843529"><ele>212.33333333333331</ele><time>2026-04-27T08:06:19Z</time></trkpt><trkpt lat="44.653168426460326" lon="8.253534021708873"><ele>211.0</ele><time>2026-04-27T08:06:20Z</time></trkpt><trkpt lat="44.65319300131911" lon="8.25321695392058"><ele>212.0</ele><time>2026-04-27T08:06:21Z</time></trkpt><trkpt lat="44.653219473072014" lon="8.252892851382803"><ele>213.0</ele><time>2026-04-27T08:06:22Z</time></trkpt><trkpt lat="44.65324369442613" lon="8.252561326849689"><ele>213.5</ele><time>2026-04-27T08:06:23Z</time></trkpt><trkpt lat="44.65326531466004" lon="8.252227721781788"><ele>214.0</ele><time>2026-04-27T08:06:24Z</time></trkpt><trkpt lat="44.65328139742269" lon="8.251891926947359"><ele>214.0</ele><time>2026-04-27T08:06:25Z</time></trkpt><trkpt lat="44.653296096240204" lon="8.2515628283239"><ele>214.0</ele><time>2026-04-27T08:06:26Z</time></trkpt><trkpt lat="44.65331061955994" lon="8.25124121239349"><ele>214.0</ele><time>2026-04-27T08:06:27Z</time></trkpt><trkpt lat="44.653329440317556" lon="8.250916679681772"><ele>214.0</ele><time>2026-04-27T08:06:28Z</time></trkpt><trkpt lat="44.65334557375219" lon="8.25058802061352"><ele>214.0</ele><time>2026-04-27T08:06:29Z</time></trkpt><trkpt lat="44.65335368288606" lon="8.250266264090056"><ele>214.0</ele><time>2026-04-27T08:06:30Z</time></trkpt><trkpt lat="44.65335399295843" lon="8.249940961422167"><ele>218.0</ele><time>2026-04-27T08:06:31Z</time></trkpt><trkpt lat="44.65338115108888" lon="8.24962289085164"><ele>222.0</ele><time>2026-04-27T08:06:32Z</time></trkpt><trkpt lat="44.653300106965446" lon="8.249308734250112"><ele>222.0</ele><time>2026-04-27T08:06:33Z</time></trkpt><trkpt lat="44.65325005664975" lon="8.249012955108455"><ele>222.0</ele><time>2026-04-27T08:06:34Z</time></trkpt><trkpt lat="44.65319288056632" lon="8.248719096560773"><ele>222.0</ele><time>2026-04-27T08:06:35Z</time></trkpt><trkpt lat="44.653128607162905" lon="8.248432863449695"><ele>226.33333333333331</ele><time>2026-04-27T08:06:36Z</time></trkpt><trkpt lat="44.65304840314021" lon="8.24817003097158"><ele>230.66666666666666</ele><time>2026-04-27T08:06:37Z</time></trkpt><trkpt lat="44.65295282865634" lon="8.247921782184243"><ele>235.0</ele><time>2026-04-27T08:06:38Z</time></trkpt><trkpt lat="44.652845150628025" lon="8.247692804492122"><ele>235.66666666666666</ele><time>2026-04-27T08:06:39Z</time></trkpt><trkpt lat="44.652715976911985" lon="8.24748530531126"><ele>236.33333333333331</ele><time>2026-04-27T08:06:40Z</time></trkpt><trkpt lat="44.65256471668738" lon="8.247298668260532"><ele>237.0</ele><time>2026-04-27T08:06:41Z</time></trkpt><trkpt lat="44.65241378370029" lon="8.247119155766656"><ele>237.0</ele><time>2026-04-27T08:06:42Z</time></trkpt><trkpt lat="44.65227215744996" lon="8.246942407602223"><ele>237.0</ele><time>2026-04-27T08:06:43Z</time></trkpt><trkpt lat="44.65213816461369" lon="8.24677263243562"><ele>237.0</ele><time>2026-04-27T08:06:44Z</time></trkpt><trkpt lat="44.652009348445695" lon="8.246606534897975"><ele>234.33333333333331</ele><time>2026-04-27T08:06:45Z</time></trkpt><trkpt lat="44.651877704110284" lon="8.24643704370962"><ele>231.66666666666666</ele><time>2026-04-27T08:06:46Z</time></trkpt><trkpt lat="44.651739007098705" lon="8.246276446382526"><ele>229.0</ele><time>2026-04-27T08:06:47Z</time></trkpt><trkpt lat="44.651583000306175" lon="8.24614762744366"><ele>229.0</ele><time>2026-04-27T08:06:48Z</time></trkpt><trkpt lat="44.651403145961815" lon="8.246059317202416"><ele>229.0</ele><time>2026-04-27T08:06:49Z</time></trkpt><trkpt lat="44.65121346127432" lon="8.245996341830786"><ele>229.0</ele><time>2026-04-27T08:06:50Z</time></trkpt><trkpt lat="44.651022131954065" lon="8.245936961164304"><ele>225.66666666666666</ele><time>2026-04-27T08:06:51Z</time></trkpt><trkpt lat="44.65083150238071" lon="8.245878545541718"><ele>222.33333333333331</ele><time>2026-04-27T08:06:52Z</time></trkpt><trkpt lat="44.65064221841861" lon="8.245816653295977"><ele>219.0</ele><time>2026-04-27T08:06:53Z</time></trkpt><trkpt lat="44.65045533751534" lon="8.24575212520897"><ele>218.0</ele><time>2026-04-27T08:06:54Z</time></trkpt><trkpt lat="44.65028497540005" lon="8.245695684016644"><ele>217.0</ele><time>2026-04-27T08:06:55Z</time></trkpt><trkpt lat="44.65012906131927" lon="8.245644384773495"><ele>216.0</ele><time>2026-04-27T08:06:56Z</time></trkpt><trkpt lat="44.64999418987438" lon="8.245594436829741"><ele>218.20000000000002</ele><time>2026-04-27T08:06:57Z</time></trkpt><trkpt lat="44.649885138795455" lon="8.245552409281455"><ele>220.40000000000003</ele><time>2026-04-27T08:06:58Z</time></trkpt><trkpt lat="44.64978583969952" lon="8.24551799191472"><ele>222.6</ele><time>2026-04-27T08:06:59Z</time></trkpt><trkpt lat="44.649690999075055" lon="8.245483882478748"><ele>224.8</ele><time>2026-04-27T08:07:00Z</time></trkpt><trkpt lat="44.649591493992396" lon="8.245448283148937"><ele>227.0</ele><time>2026-04-27T08:07:01Z</time></trkpt><trkpt lat="44.64948773080139" lon="8.245414615999797"><ele>226.0</ele><time>2026-04-27T08:07:01.999Z</time></trkpt><trkpt lat="44.64938414951002" lon="8.245380646474105"><ele>225.0</ele><time>2026-04-27T08:07:02.999Z</time></trkpt><trkpt lat="44.64928174841485" lon="8.24534957361773"><ele>224.0</ele><time>2026-04-27T08:07:03.999Z</time></trkpt><trkpt lat="44.64917919746986" lon="8.24531665597195"><ele>223.0</ele><time>2026-04-27T08:07:04.999Z</time></trkpt><trkpt lat="44.649075323197366" lon="8.24529240383399"><ele>222.0</ele><time>2026-04-27T08:07:05.999Z</time></trkpt><trkpt lat="44.648971821639726" lon="8.245281295881089"><ele>222.0</ele><time>2026-04-27T08:07:06.999Z</time></trkpt><trkpt lat="44.64886504856741" lon="8.245270037327636"><ele>222.0</ele><time>2026-04-27T08:07:07.999Z</time></trkpt><trkpt lat="44.648760255800354" lon="8.24525213869685"><ele>222.0</ele><time>2026-04-27T08:07:08.999Z</time></trkpt><trkpt lat="44.648652613678536" lon="8.245227733419894"><ele>222.0</ele><time>2026-04-27T08:07:09.999Z</time></trkpt><trkpt lat="44.64853094930081" lon="8.245207165586148"><ele>222.0</ele><time>2026-04-27T08:07:10.999Z</time></trkpt><trkpt lat="44.648404885135776" lon="8.245181651923147"><ele>221.25</ele><time>2026-04-27T08:07:11.999Z</time></trkpt><trkpt lat="44.648268744435825" lon="8.245153434401715"><ele>220.5</ele><time>2026-04-27T08:07:12.999Z</time></trkpt><trkpt lat="44.648127316129106" lon="8.245129746445722"><ele>219.75</ele><time>2026-04-27T08:07:13.999Z</time></trkpt><trkpt lat="44.64799089395454" lon="8.245107826806693"><ele>219.0</ele><time>2026-04-27T08:07:14.999Z</time></trkpt><trkpt lat="44.647856613637" lon="8.245089991501766"><ele>219.5</ele><time>2026-04-27T08:07:15.999Z</time></trkpt><trkpt lat="44.64772922418456" lon="8.245071719138368"><ele>220.0</ele><time>2026-04-27T08:07:16.999Z</time></trkpt><trkpt lat="44.647605563331645" lon="8.245055703654991"><ele>220.5</ele><time>2026-04-27T08:07:17.999Z</time></trkpt><trkpt lat="44.64748498942125" lon="8.245045430210384"><ele>221.0</ele><time>2026-04-27T08:07:18.999Z</time></trkpt><trkpt lat="44.64736280694251" lon="8.24504220478676"><ele>221.0</ele><time>2026-04-27T08:07:19.999Z</time></trkpt><trkpt lat="44.647237325760294" lon="8.245036630268247"><ele>221.0</ele><time>2026-04-27T08:07:20.999Z</time></trkpt><trkpt lat="44.647109840831554" lon="8.245026520979833"><ele>221.0</ele><time>2026-04-27T08:07:21.999Z</time></trkpt><trkpt lat="44.64698184784754" lon="8.245016232284026"><ele>221.0</ele><time>2026-04-27T08:07:22.999Z</time></trkpt><trkpt lat="44.64685112122076" lon="8.245007053157805"><ele>221.25</ele><time>2026-04-27T08:07:23.999Z</time></trkpt><trkpt lat="44.64671863871226" lon="8.245001473375334"><ele>221.5</ele><time>2026-04-27T08:07:24.999Z</time></trkpt><trkpt lat="44.646581542977344" lon="8.244996593529306"><ele>221.75</ele><time>2026-04-27T08:07:25.999Z</time></trkpt><trkpt lat="44.64644053342858" lon="8.244997262945901"><ele>222.0</ele><time>2026-04-27T08:07:26.999Z</time></trkpt><trkpt lat="44.64630030560412" lon="8.245013878397296"><ele>222.0</ele><time>2026-04-27T08:07:27.999Z</time></trkpt><trkpt lat="44.64615876780333" lon="8.245043470400585"><ele>222.0</ele><time>2026-04-27T08:07:28.999Z</time></trkpt><trkpt lat="44.64601342589086" lon="8.245080256284467"><ele>222.0</ele><time>2026-04-27T08:07:29.999Z</time></trkpt><trkpt lat="44.64587016306229" lon="8.245114379674927"><ele>222.0</ele><time>2026-04-27T08:07:30.999Z</time></trkpt><trkpt lat="44.6457289282389" lon="8.24515172730222"><ele>222.0</ele><time>2026-04-27T08:07:31.999Z</time></trkpt><trkpt lat="44.64558778040065" lon="8.245190637939702"><ele>222.0</ele><time>2026-04-27T08:07:32.999Z</time></trkpt><trkpt lat="44.64544549579712" lon="8.245232926030456"><ele>222.0</ele><time>2026-04-27T08:07:33.999Z</time></trkpt><trkpt lat="44.645308450531836" lon="8.245287643621216"><ele>222.0</ele><time>2026-04-27T08:07:34.999Z</time></trkpt><trkpt lat="44.64517164705549" lon="8.245362783579752"><ele>222.33333333333331</ele><time>2026-04-27T08:07:35.999Z</time></trkpt><trkpt lat="44.64504034577933" lon="8.245466326347412"><ele>222.66666666666666</ele><time>2026-04-27T08:07:36.999Z</time></trkpt><trkpt lat="44.644912207333014" lon="8.245601469794469"><ele>223.0</ele><time>2026-04-27T08:07:37.999Z</time></trkpt><trkpt lat="44.644782884256564" lon="8.245735609530655"><ele>221.33333333333331</ele><time>2026-04-27T08:07:38.999Z</time></trkpt><trkpt lat="44.644644840147066" lon="8.245877819836066"><ele>219.66666666666669</ele><time>2026-04-27T08:07:39.999Z</time></trkpt><trkpt lat="44.64450693764137" lon="8.246021619185507"><ele>218.0</ele><time>2026-04-27T08:07:40.999Z</time></trkpt><trkpt lat="44.644366640706146" lon="8.24617080307758"><ele>219.33333333333334</ele><time>2026-04-27T08:07:41.999Z</time></trkpt><trkpt lat="44.644226271698955" lon="8.246322378942478"><ele>220.66666666666669</ele><time>2026-04-27T08:07:42.999Z</time></trkpt><trkpt lat="44.64408195933977" lon="8.24646974372853"><ele>222.0</ele><time>2026-04-27T08:07:43.999Z</time></trkpt><trkpt lat="44.643933394165146" lon="8.246618130558119"><ele>222.0</ele><time>2026-04-27T08:07:44.999Z</time></trkpt><trkpt lat="44.64377978300968" lon="8.246760142355713"><ele>222.0</ele><time>2026-04-27T08:07:45.999Z</time></trkpt><trkpt lat="44.643624504560464" lon="8.2469070153671"><ele>222.0</ele><time>2026-04-27T08:07:46.999Z</time></trkpt><trkpt lat="44.643464029208666" lon="8.247038674314753"><ele>221.33333333333331</ele><time>2026-04-27T08:07:47.999Z</time></trkpt><trkpt lat="44.643293111789035" lon="8.247159260983802"><ele>220.66666666666666</ele><time>2026-04-27T08:07:48.999Z</time></trkpt><trkpt lat="44.64312372894038" lon="8.24725678970351"><ele>220.0</ele><time>2026-04-27T08:07:49.999Z</time></trkpt><trkpt lat="44.64294619326784" lon="8.24734535430126"><ele>222.33333333333331</ele><time>2026-04-27T08:07:50.999Z</time></trkpt><trkpt lat="44.64277050367459" lon="8.247418123269528"><ele>224.66666666666669</ele><time>2026-04-27T08:07:51.999Z</time></trkpt><trkpt lat="44.6425904306478" lon="8.247480573271805"><ele>227.0</ele><time>2026-04-27T08:07:52.999Z</time></trkpt><trkpt lat="44.64240796561447" lon="8.247539435966793"><ele>227.0</ele><time>2026-04-27T08:07:53.999Z</time></trkpt><trkpt lat="44.64222683306365" lon="8.24759390431011"><ele>227.0</ele><time>2026-04-27T08:07:54.999Z</time></trkpt><trkpt lat="44.64204565606613" lon="8.247646165382926"><ele>227.0</ele><time>2026-04-27T08:07:55.999Z</time></trkpt><trkpt lat="44.64186672996428" lon="8.247694811924466"><ele>228.33333333333334</ele><time>2026-04-27T08:07:56.999Z</time></trkpt><trkpt lat="44.641693402085" lon="8.247737521568817"><ele>229.66666666666669</ele><time>2026-04-27T08:07:57.999Z</time></trkpt><trkpt lat="44.641525067459426" lon="8.247781777341372"><ele>231.0</ele><time>2026-04-27T08:07:58.999Z</time></trkpt><trkpt lat="44.64135743495578" lon="8.247832697658957"><ele>231.0</ele><time>2026-04-27T08:07:59.999Z</time></trkpt><trkpt lat="44.64118559923903" lon="8.247879827795213"><ele>231.0</ele><time>2026-04-27T08:08:00.999Z</time></trkpt><trkpt lat="44.64101106546894" lon="8.247929059613979"><ele>231.0</ele><time>2026-04-27T08:08:01.999Z</time></trkpt><trkpt lat="44.6408350861501" lon="8.247978122487401"><ele>232.66666666666669</ele><time>2026-04-27T08:08:02.999Z</time></trkpt><trkpt lat="44.64065231515257" lon="8.248029382599341"><ele>234.33333333333334</ele><time>2026-04-27T08:08:03.999Z</time></trkpt><trkpt lat="44.640466613011114" lon="8.248079120620158"><ele>236.0</ele><time>2026-04-27T08:08:04.999Z</time></trkpt><trkpt lat="44.64027880973395" lon="8.248134555843482"><ele>236.0</ele><time>2026-04-27T08:08:05.999Z</time></trkpt><trkpt lat="44.64008175771572" lon="8.248196253628919"><ele>236.0</ele><time>2026-04-27T08:08:06.999Z</time></trkpt><trkpt lat="44.63988219350397" lon="8.248256254620642"><ele>236.0</ele><time>2026-04-27T08:08:07.999Z</time></trkpt><trkpt lat="44.6396790631046" lon="8.248311640642278"><ele>236.0</ele><time>2026-04-27T08:08:08.998Z</time></trkpt><trkpt lat="44.63947379441255" lon="8.24836588567257"><ele>236.0</ele><time>2026-04-27T08:08:09.998Z</time></trkpt><trkpt lat="44.6392714439608" lon="8.248407866081854"><ele>236.0</ele><time>2026-04-27T08:08:10.998Z</time></trkpt><trkpt lat="44.63906800618197" lon="8.248409357712594"><ele>237.0</ele><time>2026-04-27T08:08:12Z</time></trkpt><trkpt lat="44.638860638994885" lon="8.248375338846833"><ele>238.0</ele><time>2026-04-27T08:08:13Z</time></trkpt><trkpt lat="44.638648409718314" lon="8.248338415848247"><ele>239.0</ele><time>2026-04-27T08:08:14Z</time></trkpt><trkpt lat="44.638438051756424" lon="8.24829417187593"><ele>239.0</ele><time>2026-04-27T08:08:15Z</time></trkpt><trkpt lat="44.63823125862329" lon="8.2482221483532"><ele>239.0</ele><time>2026-04-27T08:08:16Z</time></trkpt><trkpt lat="44.63803433488129" lon="8.248121977629644"><ele>239.0</ele><time>2026-04-27T08:08:17Z</time></trkpt><trkpt lat="44.63785567177268" lon="8.248033667284096"><ele>239.66666666666669</ele><time>2026-04-27T08:08:18Z</time></trkpt><trkpt lat="44.63769125772544" lon="8.247947531961463"><ele>240.33333333333331</ele><time>2026-04-27T08:08:19Z</time></trkpt><trkpt lat="44.63753747132422" lon="8.24785979807572"><ele>241.0</ele><time>2026-04-27T08:08:20Z</time></trkpt><trkpt lat="44.6374018864512" lon="8.247753125942449"><ele>241.0</ele><time>2026-04-27T08:08:21Z</time></trkpt><trkpt lat="44.63730170340434" lon="8.247603581500044"><ele>241.0</ele><time>2026-04-27T08:08:22Z</time></trkpt><trkpt lat="44.63722973518725" lon="8.247399143474064"><ele>241.0</ele><time>2026-04-27T08:08:23Z</time></trkpt><trkpt lat="44.63718646030739" lon="8.247171094996629"><ele>243.0</ele><time>2026-04-27T08:08:24Z</time></trkpt><trkpt lat="44.63718836101663" lon="8.246921950390856"><ele>245.0</ele><time>2026-04-27T08:08:25Z</time></trkpt><trkpt lat="44.63720508448586" lon="8.246658497619865"><ele>247.0</ele><time>2026-04-27T08:08:26Z</time></trkpt><trkpt lat="44.63721866608233" lon="8.246368977000175"><ele>247.0</ele><time>2026-04-27T08:08:27Z</time></trkpt><trkpt lat="44.63721704673048" lon="8.24607029946454"><ele>247.0</ele><time>2026-04-27T08:08:28Z</time></trkpt><trkpt lat="44.6371894857805" lon="8.245755165529832"><ele>247.0</ele><time>2026-04-27T08:08:29Z</time></trkpt><trkpt lat="44.637133839809046" lon="8.245429194739767"><ele>244.0</ele><time>2026-04-27T08:08:30Z</time></trkpt><trkpt lat="44.637067931971806" lon="8.245090675617588"><ele>241.0</ele><time>2026-04-27T08:08:31Z</time></trkpt><trkpt lat="44.6370120202892" lon="8.24475278398369"><ele>229.0</ele><time>2026-04-27T08:08:32Z</time></trkpt><trkpt lat="44.63695970122546" lon="8.244423973658147"><ele>217.0</ele><time>2026-04-27T08:08:33Z</time></trkpt><trkpt lat="44.636907681422585" lon="8.244107989608926"><ele>217.33333333333331</ele><time>2026-04-27T08:08:34Z</time></trkpt><trkpt lat="44.636857491732144" lon="8.243798774546994"><ele>217.66666666666669</ele><time>2026-04-27T08:08:35Z</time></trkpt><trkpt lat="44.636807043289465" lon="8.243496745638108"><ele>218.0</ele><time>2026-04-27T08:08:36Z</time></trkpt><trkpt lat="44.636758051166815" lon="8.243207704336312"><ele>218.33333333333334</ele><time>2026-04-27T08:08:37Z</time></trkpt><trkpt lat="44.63671104293603" lon="8.242928081569143"><ele>218.66666666666669</ele><time>2026-04-27T08:08:38Z</time></trkpt><trkpt lat="44.63666453013217" lon="8.242652231111517"><ele>219.0</ele><time>2026-04-27T08:08:39Z</time></trkpt><trkpt lat="44.636620466030294" lon="8.24238512299491"><ele>219.33333333333331</ele><time>2026-04-27T08:08:40Z</time></trkpt><trkpt lat="44.63657753148963" lon="8.242122679440367"><ele>219.66666666666666</ele><time>2026-04-27T08:08:41Z</time></trkpt><trkpt lat="44.63653393810458" lon="8.241867658406013"><ele>220.0</ele><time>2026-04-27T08:08:42Z</time></trkpt><trkpt lat="44.63648902031807" lon="8.241618211521526"><ele>220.66666666666666</ele><time>2026-04-27T08:08:43Z</time></trkpt><trkpt lat="44.636444653602865" lon="8.241372407525763"><ele>221.33333333333331</ele><time>2026-04-27T08:08:44Z</time></trkpt><trkpt lat="44.63640281702197" lon="8.241117697079615"><ele>222.0</ele><time>2026-04-27T08:08:45Z</time></trkpt><trkpt lat="44.63636641302134" lon="8.24086321016843"><ele>222.66666666666669</ele><time>2026-04-27T08:08:46Z</time></trkpt><trkpt lat="44.63633766346993" lon="8.240603668904567"><ele>223.33333333333334</ele><time>2026-04-27T08:08:47Z</time></trkpt><trkpt lat="44.63631850730974" lon="8.240343833055055"><ele>224.0</ele><time>2026-04-27T08:08:48Z</time></trkpt><trkpt lat="44.63630576089279" lon="8.240085912618994"><ele>224.0</ele><time>2026-04-27T08:08:49Z</time></trkpt><trkpt lat="44.63629509837242" lon="8.239816115883269"><ele>224.0</ele><time>2026-04-27T08:08:50Z</time></trkpt><trkpt lat="44.63628496856572" lon="8.239545887138933"><ele>224.0</ele><time>2026-04-27T08:08:51Z</time></trkpt><trkpt lat="44.636273552921416" lon="8.239282035902917"><ele>224.66666666666669</ele><time>2026-04-27T08:08:52Z</time></trkpt><trkpt lat="44.636263590381446" lon="8.239043788322824"><ele>225.33333333333331</ele><time>2026-04-27T08:08:53Z</time></trkpt><trkpt lat="44.6362492291354" lon="8.23879924139184"><ele>226.0</ele><time>2026-04-27T08:08:54Z</time></trkpt><trkpt lat="44.636238350082515" lon="8.238549694396198"><ele>227.66666666666666</ele><time>2026-04-27T08:08:55Z</time></trkpt><trkpt lat="44.63623259114771" lon="8.238297273357741"><ele>229.33333333333331</ele><time>2026-04-27T08:08:56Z</time></trkpt><trkpt lat="44.63622630533618" lon="8.238040230457564"><ele>231.0</ele><time>2026-04-27T08:08:57Z</time></trkpt><trkpt lat="44.63621812807074" lon="8.237773892914662"><ele>232.33333333333331</ele><time>2026-04-27T08:08:58Z</time></trkpt><trkpt lat="44.63622073064559" lon="8.237508611730407"><ele>233.66666666666666</ele><time>2026-04-27T08:08:59Z</time></trkpt><trkpt lat="44.636247455339024" lon="8.23724696026784"><ele>235.0</ele><time>2026-04-27T08:09:00Z</time></trkpt><trkpt lat="44.6363022845817" lon="8.236994577298397"><ele>235.0</ele><time>2026-04-27T08:09:01Z</time></trkpt><trkpt lat="44.63637509546478" lon="8.236745271060052"><ele>235.0</ele><time>2026-04-27T08:09:02Z</time></trkpt><trkpt lat="44.63644664297354" lon="8.236485966507836"><ele>235.0</ele><time>2026-04-27T08:09:03Z</time></trkpt><trkpt lat="44.63651489282342" lon="8.236220051914252"><ele>234.33333333333331</ele><time>2026-04-27T08:09:03.999Z</time></trkpt><trkpt lat="44.63658195596542" lon="8.235948606582324"><ele>233.66666666666669</ele><time>2026-04-27T08:09:04.999Z</time></trkpt><trkpt lat="44.63665030340026" lon="8.235670591132358"><ele>233.0</ele><time>2026-04-27T08:09:05.999Z</time></trkpt><trkpt lat="44.63671900657148" lon="8.235397215551002"><ele>229.33333333333334</ele><time>2026-04-27T08:09:06.999Z</time></trkpt><trkpt lat="44.63678495732921" lon="8.235110415471398"><ele>225.66666666666669</ele><time>2026-04-27T08:09:07.999Z</time></trkpt><trkpt lat="44.6368462447232" lon="8.234821670310515"><ele>222.0</ele><time>2026-04-27T08:09:08.999Z</time></trkpt><trkpt lat="44.63690660389751" lon="8.234532137730286"><ele>228.0</ele><time>2026-04-27T08:09:09.999Z</time></trkpt><trkpt lat="44.63696983496377" lon="8.234240030042145"><ele>234.0</ele><time>2026-04-27T08:09:10.999Z</time></trkpt><trkpt lat="44.637023741937334" lon="8.233985307505469"><ele>240.0</ele><time>2026-04-27T08:09:11.999Z</time></trkpt><trkpt lat="44.63707572443232" lon="8.233724119395887"><ele>240.0</ele><time>2026-04-27T08:09:12.999Z</time></trkpt><trkpt lat="44.637127600505465" lon="8.233458331713788"><ele>240.0</ele><time>2026-04-27T08:09:13.999Z</time></trkpt><trkpt lat="44.637177213436054" lon="8.233205541492705"><ele>240.0</ele><time>2026-04-27T08:09:14.999Z</time></trkpt><trkpt lat="44.63723449743336" lon="8.23296122326257"><ele>235.33333333333331</ele><time>2026-04-27T08:09:15.999Z</time></trkpt><trkpt lat="44.637300247295606" lon="8.232729721038192"><ele>230.66666666666666</ele><time>2026-04-27T08:09:16.999Z</time></trkpt><trkpt lat="44.63737371885504" lon="8.232501149419658"><ele>226.0</ele><time>2026-04-27T08:09:17.999Z</time></trkpt><trkpt lat="44.63745479652815" lon="8.232278450281159"><ele>226.0</ele><time>2026-04-27T08:09:18.999Z</time></trkpt><trkpt lat="44.63752774090273" lon="8.232051543802616"><ele>226.0</ele><time>2026-04-27T08:09:19.999Z</time></trkpt><trkpt lat="44.63758277003003" lon="8.231819177946468"><ele>226.0</ele><time>2026-04-27T08:09:20.999Z</time></trkpt><trkpt lat="44.63761578593356" lon="8.2315759308035"><ele>227.0</ele><time>2026-04-27T08:09:21.999Z</time></trkpt><trkpt lat="44.637616502485635" lon="8.231319940096814"><ele>228.0</ele><time>2026-04-27T08:09:22.999Z</time></trkpt><trkpt lat="44.63758932116759" lon="8.231059388923875"><ele>229.0</ele><time>2026-04-27T08:09:23.999Z</time></trkpt><trkpt lat="44.637564809253426" lon="8.23081197305809"><ele>230.0</ele><time>2026-04-27T08:09:24.999Z</time></trkpt><trkpt lat="44.637543739216866" lon="8.23058702080552"><ele>231.0</ele><time>2026-04-27T08:09:25.999Z</time></trkpt><trkpt lat="44.63752303366624" lon="8.230381445704962"><ele>232.0</ele><time>2026-04-27T08:09:26.999Z</time></trkpt><trkpt lat="44.6375049770513" lon="8.2301821868754"><ele>232.0</ele><time>2026-04-27T08:09:27.999Z</time></trkpt><trkpt lat="44.63748134548222" lon="8.229990281568414"><ele>232.0</ele><time>2026-04-27T08:09:28.999Z</time></trkpt><trkpt lat="44.63746016182582" lon="8.229800139293662"><ele>232.0</ele><time>2026-04-27T08:09:29.999Z</time></trkpt><trkpt lat="44.637421915398406" lon="8.229619259914388"><ele>232.0</ele><time>2026-04-27T08:09:30.999Z</time></trkpt><trkpt lat="44.63735918919928" lon="8.229452420196491"><ele>232.75</ele><time>2026-04-27T08:09:31.999Z</time></trkpt><trkpt lat="44.637276992450026" lon="8.229314190266535"><ele>233.5</ele><time>2026-04-27T08:09:32.999Z</time></trkpt><trkpt lat="44.637181268145795" lon="8.229206346446325"><ele>234.25</ele><time>2026-04-27T08:09:33.999Z</time></trkpt><trkpt lat="44.63708771480168" lon="8.229100066773222"><ele>235.0</ele><time>2026-04-27T08:09:34.999Z</time></trkpt><trkpt lat="44.63699862681051" lon="8.228978804084035"><ele>233.2</ele><time>2026-04-27T08:09:35.999Z</time></trkpt><trkpt lat="44.63690937223804" lon="8.228875972771554"><ele>231.4</ele><time>2026-04-27T08:09:36.999Z</time></trkpt><trkpt lat="44.636822270019685" lon="8.228803452929101"><ele>229.60000000000002</ele><time>2026-04-27T08:09:37.999Z</time></trkpt><trkpt lat="44.63672074416348" lon="8.228744254546438"><ele>227.8</ele><time>2026-04-27T08:09:38.999Z</time></trkpt><trkpt lat="44.636610601478324" lon="8.228682657232193"><ele>226.0</ele><time>2026-04-27T08:09:39.999Z</time></trkpt><trkpt lat="44.63652410420873" lon="8.22863568179964"><ele>226.0</ele><time>2026-04-27T08:09:40.999Z</time></trkpt><trkpt lat="44.63643369225108" lon="8.22858290023262"><ele>226.00000000000003</ele><time>2026-04-27T08:09:41.999Z</time></trkpt><trkpt lat="44.63633090540547" lon="8.228513698226138"><ele>226.00000000000003</ele><time>2026-04-27T08:09:42.999Z</time></trkpt><trkpt lat="44.63625135528329" lon="8.228454573433945"><ele>226.0</ele><time>2026-04-27T08:09:43.999Z</time></trkpt><trkpt lat="44.63618446424071" lon="8.22839407350388"><ele>226.0</ele><time>2026-04-27T08:09:44.999Z</time></trkpt><trkpt lat="44.63611551493756" lon="8.228288199818"><ele>225.20000000000002</ele><time>2026-04-27T08:09:46.999Z</time></trkpt><trkpt lat="44.6359641169446" lon="8.228392627777506"><ele>224.40000000000003</ele><time>2026-04-27T08:09:50.999Z</time></trkpt><trkpt lat="44.63589775828464" lon="8.228467357047391"><ele>223.6</ele><time>2026-04-27T08:09:51.999Z</time></trkpt><trkpt lat="44.63584206785673" lon="8.228561966417587"><ele>222.8</ele><time>2026-04-27T08:09:52.999Z</time></trkpt><trkpt lat="44.63578587280659" lon="8.22869231714603"><ele>222.0</ele><time>2026-04-27T08:09:53.999Z</time></trkpt><trkpt lat="44.635711097086165" lon="8.228811728071431"><ele>222.0</ele><time>2026-04-27T08:09:54.999Z</time></trkpt><trkpt lat="44.63564221382222" lon="8.228944536735217"><ele>222.0</ele><time>2026-04-27T08:09:55.999Z</time></trkpt><trkpt lat="44.63558341463928" lon="8.229066896465275"><ele>222.0</ele><time>2026-04-27T08:09:56.999Z</time></trkpt><trkpt lat="44.6355220189502" lon="8.229174229717474"><ele>222.0</ele><time>2026-04-27T08:09:57.999Z</time></trkpt><trkpt lat="44.63547099819153" lon="8.229274727178952"><ele>222.0</ele><time>2026-04-27T08:09:58.999Z</time></trkpt><trkpt lat="44.63542277455587" lon="8.229342072715026"><ele>221.2</ele><time>2026-04-27T08:09:59.999Z</time></trkpt><trkpt lat="44.63537685555696" lon="8.229428900039796"><ele>220.39999999999998</ele><time>2026-04-27T08:10:00.999Z</time></trkpt><trkpt lat="44.63531250095841" lon="8.229550586808966"><ele>219.60000000000002</ele><time>2026-04-27T08:10:01.999Z</time></trkpt><trkpt lat="44.635238020042564" lon="8.229713576427738"><ele>218.8</ele><time>2026-04-27T08:10:02.999Z</time></trkpt><trkpt lat="44.63515741021884" lon="8.22981499987751"><ele>218.0</ele><time>2026-04-27T08:10:03.999Z</time></trkpt><trkpt lat="44.63504653426723" lon="8.22991049002382"><ele>217.66666666666669</ele><time>2026-04-27T08:10:04.999Z</time></trkpt><trkpt lat="44.63490186406684" lon="8.23000212984112"><ele>217.33333333333331</ele><time>2026-04-27T08:10:05.999Z</time></trkpt><trkpt lat="44.634733652394075" lon="8.230104703202638"><ele>217.0</ele><time>2026-04-27T08:10:06.999Z</time></trkpt><trkpt lat="44.634553211733206" lon="8.230216324587571"><ele>217.0</ele><time>2026-04-27T08:10:07.999Z</time></trkpt><trkpt lat="44.63462433517059" lon="8.230204392787654"><ele>217.0</ele><time>2026-04-27T08:10:08.999Z</time></trkpt><trkpt lat="44.63450567451213" lon="8.230287154471778"><ele>217.0</ele><time>2026-04-27T08:10:09.999Z</time></trkpt><trkpt lat="44.63438819850508" lon="8.2303838766107"><ele>217.0</ele><time>2026-04-27T08:10:10.998Z</time></trkpt><trkpt lat="44.634273378548855" lon="8.230487857180313"><ele>217.5</ele><time>2026-04-27T08:10:11.998Z</time></trkpt><trkpt lat="44.63415653186641" lon="8.230597179623976"><ele>218.0</ele><time>2026-04-27T08:10:12.998Z</time></trkpt><trkpt lat="44.634053152926874" lon="8.230697266556323"><ele>218.5</ele><time>2026-04-27T08:10:13.998Z</time></trkpt><trkpt lat="44.633957093389476" lon="8.23078852048353"><ele>219.0</ele><time>2026-04-27T08:10:14.998Z</time></trkpt><trkpt lat="44.633874806314886" lon="8.230897937930362"><ele>219.25</ele><time>2026-04-27T08:10:15.998Z</time></trkpt><trkpt lat="44.63384469464402" lon="8.231057167292589"><ele>219.5</ele><time>2026-04-27T08:10:16.998Z</time></trkpt><trkpt lat="44.63381044671926" lon="8.231225556445343"><ele>219.75</ele><time>2026-04-27T08:10:18Z</time></trkpt><trkpt lat="44.63379548870912" lon="8.231412004111903"><ele>220.0</ele><time>2026-04-27T08:10:19Z</time></trkpt><trkpt lat="44.63376853643345" lon="8.231606936645209"><ele>220.0</ele><time>2026-04-27T08:10:20Z</time></trkpt><trkpt lat="44.63372016520263" lon="8.231800405496495"><ele>220.0</ele><time>2026-04-27T08:10:21Z</time></trkpt><trkpt lat="44.633662276579905" lon="8.231993413155914"><ele>220.0</ele><time>2026-04-27T08:10:22Z</time></trkpt><trkpt lat="44.63359750034243" lon="8.232184749157643"><ele>220.0</ele><time>2026-04-27T08:10:23Z</time></trkpt><trkpt lat="44.63353742095161" lon="8.232380514905067"><ele>220.0</ele><time>2026-04-27T08:10:24Z</time></trkpt><trkpt lat="44.63347325994146" lon="8.232578418104598"><ele>220.0</ele><time>2026-04-27T08:10:25Z</time></trkpt><trkpt lat="44.63341124452511" lon="8.232777276935373"><ele>220.0</ele><time>2026-04-27T08:10:26Z</time></trkpt><trkpt lat="44.63334182616468" lon="8.232964171286506"><ele>220.0</ele><time>2026-04-27T08:10:27Z</time></trkpt><trkpt lat="44.63328680041242" lon="8.23315458255852"><ele>220.0</ele><time>2026-04-27T08:10:28Z</time></trkpt><trkpt lat="44.63322754175014" lon="8.233343971764473"><ele>220.0</ele><time>2026-04-27T08:10:29Z</time></trkpt><trkpt lat="44.633165089180096" lon="8.233528940158271"><ele>220.0</ele><time>2026-04-27T08:10:30Z</time></trkpt><trkpt lat="44.6330930206286" lon="8.233710552056484"><ele>220.0</ele><time>2026-04-27T08:10:31Z</time></trkpt><trkpt lat="44.63301999292273" lon="8.233890584750016"><ele>220.0</ele><time>2026-04-27T08:10:32Z</time></trkpt><trkpt lat="44.63294340483316" lon="8.23407268796455"><ele>220.0</ele><time>2026-04-27T08:10:33Z</time></trkpt><trkpt lat="44.63287026304829" lon="8.234243904451938"><ele>220.0</ele><time>2026-04-27T08:10:34Z</time></trkpt><trkpt lat="44.63280394967686" lon="8.234390470200525"><ele>220.25</ele><time>2026-04-27T08:10:35Z</time></trkpt><trkpt lat="44.63273517243959" lon="8.23452318861793"><ele>220.5</ele><time>2026-04-27T08:10:36Z</time></trkpt><trkpt lat="44.6326543907311" lon="8.23463342401359"><ele>220.75</ele><time>2026-04-27T08:10:37Z</time></trkpt><trkpt lat="44.63253518751474" lon="8.234702870869663"><ele>221.0</ele><time>2026-04-27T08:10:38Z</time></trkpt><trkpt lat="44.632393183064565" lon="8.2347453718878"><ele>221.0</ele><time>2026-04-27T08:10:39Z</time></trkpt><trkpt lat="44.6322528565506" lon="8.234794858643303"><ele>221.0</ele><time>2026-04-27T08:10:40Z</time></trkpt><trkpt lat="44.63210866107639" lon="8.234852437824657"><ele>221.0</ele><time>2026-04-27T08:10:41Z</time></trkpt><trkpt lat="44.631963066130254" lon="8.234915291435701"><ele>221.0</ele><time>2026-04-27T08:10:42Z</time></trkpt><trkpt lat="44.631821428042855" lon="8.234985998976732"><ele>222.0</ele><time>2026-04-27T08:10:43Z</time></trkpt><trkpt lat="44.63168783600316" lon="8.235048730517288"><ele>223.0</ele><time>2026-04-27T08:10:44Z</time></trkpt><trkpt lat="44.631557720121506" lon="8.235109158060196"><ele>224.0</ele><time>2026-04-27T08:10:45Z</time></trkpt><trkpt lat="44.6314258900799" lon="8.23517186683703"><ele>225.0</ele><time>2026-04-27T08:10:46Z</time></trkpt><trkpt lat="44.63129256741651" lon="8.235235933220158"><ele>225.0</ele><time>2026-04-27T08:10:47Z</time></trkpt><trkpt lat="44.631157895081415" lon="8.235298475535599"><ele>225.0</ele><time>2026-04-27T08:10:48Z</time></trkpt><trkpt lat="44.631024730035634" lon="8.235354440505988"><ele>225.0</ele><time>2026-04-27T08:10:49Z</time></trkpt><trkpt lat="44.63090392012472" lon="8.235369495589994"><ele>225.0</ele><time>2026-04-27T08:10:50Z</time></trkpt><trkpt lat="44.63079394591972" lon="8.235294344190534"><ele>225.66666666666669</ele><time>2026-04-27T08:10:51Z</time></trkpt><trkpt lat="44.63073347925238" lon="8.235117742619208"><ele>226.33333333333334</ele><time>2026-04-27T08:10:52Z</time></trkpt><trkpt lat="44.630638470208446" lon="8.234932623448485"><ele>227.0</ele><time>2026-04-27T08:10:53Z</time></trkpt><trkpt lat="44.63054105474659" lon="8.234709968036036"><ele>227.0</ele><time>2026-04-27T08:10:54Z</time></trkpt><trkpt lat="44.63042797488456" lon="8.234477905836094"><ele>227.0</ele><time>2026-04-27T08:10:55Z</time></trkpt><trkpt lat="44.63031595165646" lon="8.23424511509281"><ele>227.0</ele><time>2026-04-27T08:10:56Z</time></trkpt><trkpt lat="44.630201166257145" lon="8.2339847960191"><ele>229.0</ele><time>2026-04-27T08:10:57Z</time></trkpt><trkpt lat="44.63007672547159" lon="8.233714750542868"><ele>231.0</ele><time>2026-04-27T08:10:58Z</time></trkpt><trkpt lat="44.62994581012502" lon="8.233445425402286"><ele>231.0</ele><time>2026-04-27T08:10:59Z</time></trkpt><trkpt lat="44.62982980670188" lon="8.233190363287477"><ele>231.0</ele><time>2026-04-27T08:11:00Z</time></trkpt><trkpt lat="44.62974258803374" lon="8.232948990351666"><ele>231.0</ele><time>2026-04-27T08:11:01Z</time></trkpt><trkpt lat="44.62967272229653" lon="8.232741851225315"><ele>230.0</ele><time>2026-04-27T08:11:02Z</time></trkpt><trkpt lat="44.629582807693616" lon="8.232575397522355"><ele>229.0</ele><time>2026-04-27T08:11:03Z</time></trkpt><trkpt lat="44.6294447471875" lon="8.232476671921573"><ele>228.0</ele><time>2026-04-27T08:11:04Z</time></trkpt><trkpt lat="44.62929872378438" lon="8.23235734303954"><ele>229.33333333333331</ele><time>2026-04-27T08:11:05Z</time></trkpt><trkpt lat="44.62917578997626" lon="8.232153269149494"><ele>230.66666666666666</ele><time>2026-04-27T08:11:05.999Z</time></trkpt><trkpt lat="44.62904243192457" lon="8.231928202662592"><ele>232.0</ele><time>2026-04-27T08:11:06.999Z</time></trkpt><trkpt lat="44.62890932040677" lon="8.23169518559217"><ele>231.5</ele><time>2026-04-27T08:11:07.999Z</time></trkpt><trkpt lat="44.628757128276945" lon="8.23146864548433"><ele>231.0</ele><time>2026-04-27T08:11:08.999Z</time></trkpt><trkpt lat="44.62860018730726" lon="8.231221528572828"><ele>234.0</ele><time>2026-04-27T08:11:09.999Z</time></trkpt><trkpt lat="44.62843588666531" lon="8.230960877015393"><ele>237.0</ele><time>2026-04-27T08:11:10.999Z</time></trkpt><trkpt lat="44.62827610922423" lon="8.230690217539422"><ele>235.0</ele><time>2026-04-27T08:11:11.999Z</time></trkpt><trkpt lat="44.6281231758014" lon="8.230426160903916"><ele>233.0</ele><time>2026-04-27T08:11:12.999Z</time></trkpt><trkpt lat="44.627960740924884" lon="8.23016144910708"><ele>233.5</ele><time>2026-04-27T08:11:13.999Z</time></trkpt><trkpt lat="44.62779167721871" lon="8.229923935983676"><ele>234.0</ele><time>2026-04-27T08:11:14.999Z</time></trkpt><trkpt lat="44.62762212628041" lon="8.229721617351494"><ele>234.0</ele><time>2026-04-27T08:11:15.999Z</time></trkpt><trkpt lat="44.62745376647109" lon="8.229549091328353"><ele>234.0</ele><time>2026-04-27T08:11:16.999Z</time></trkpt><trkpt lat="44.627280578816894" lon="8.229412020262293"><ele>234.0</ele><time>2026-04-27T08:11:17.999Z</time></trkpt><trkpt lat="44.627099264102384" lon="8.229285153668176"><ele>231.66666666666669</ele><time>2026-04-27T08:11:18.999Z</time></trkpt><trkpt lat="44.62692919880727" lon="8.22914931115978"><ele>229.33333333333334</ele><time>2026-04-27T08:11:19.999Z</time></trkpt><trkpt lat="44.626784027091915" lon="8.229023148299575"><ele>227.0</ele><time>2026-04-27T08:11:20.999Z</time></trkpt><trkpt lat="44.626630358569116" lon="8.22891318449967"><ele>227.0</ele><time>2026-04-27T08:11:21.999Z</time></trkpt><trkpt lat="44.626458440450556" lon="8.228794990847662"><ele>227.0</ele><time>2026-04-27T08:11:22.999Z</time></trkpt><trkpt lat="44.62629075642631" lon="8.22867751250961"><ele>227.0</ele><time>2026-04-27T08:11:23.999Z</time></trkpt><trkpt lat="44.62613925879092" lon="8.228570147327055"><ele>229.0</ele><time>2026-04-27T08:11:24.999Z</time></trkpt><trkpt lat="44.62598342232287" lon="8.228489302839368"><ele>231.0</ele><time>2026-04-27T08:11:25.999Z</time></trkpt><trkpt lat="44.62581971545789" lon="8.228464578804754"><ele>233.0</ele><time>2026-04-27T08:11:26.999Z</time></trkpt><trkpt lat="44.62565071793693" lon="8.228480549456767"><ele>233.0</ele><time>2026-04-27T08:11:27.999Z</time></trkpt><trkpt lat="44.62549819071356" lon="8.228442665843627"><ele>233.0</ele><time>2026-04-27T08:11:28.999Z</time></trkpt><trkpt lat="44.62537452249713" lon="8.228361765534702"><ele>233.0</ele><time>2026-04-27T08:11:29.999Z</time></trkpt><trkpt lat="44.625268662325944" lon="8.228208656284146"><ele>233.0</ele><time>2026-04-27T08:11:30.999Z</time></trkpt><trkpt lat="44.625176061664064" lon="8.227990455705617"><ele>232.33333333333334</ele><time>2026-04-27T08:11:31.999Z</time></trkpt><trkpt lat="44.625063515280836" lon="8.227753958981491"><ele>231.66666666666669</ele><time>2026-04-27T08:11:32.999Z</time></trkpt><trkpt lat="44.624958201444" lon="8.227482347448554"><ele>231.0</ele><time>2026-04-27T08:11:33.999Z</time></trkpt><trkpt lat="44.62483855767471" lon="8.227185081695815"><ele>227.5</ele><time>2026-04-27T08:11:34.999Z</time></trkpt><trkpt lat="44.62471152173576" lon="8.226891953216853"><ele>224.0</ele><time>2026-04-27T08:11:35.999Z</time></trkpt><trkpt lat="44.624590467134986" lon="8.226622209045397"><ele>223.66666666666669</ele><time>2026-04-27T08:11:36.999Z</time></trkpt><trkpt lat="44.62450102752133" lon="8.226359756383218"><ele>223.33333333333331</ele><time>2026-04-27T08:11:37.999Z</time></trkpt><trkpt lat="44.62443425188679" lon="8.226117388674682"><ele>223.0</ele><time>2026-04-27T08:11:38.999Z</time></trkpt><trkpt lat="44.6244041051965" lon="8.225859363524032"><ele>227.66666666666666</ele><time>2026-04-27T08:11:39.999Z</time></trkpt><trkpt lat="44.624406398198396" lon="8.225568947830894"><ele>232.33333333333331</ele><time>2026-04-27T08:11:40.999Z</time></trkpt><trkpt lat="44.62441216539187" lon="8.225297628397696"><ele>237.0</ele><time>2026-04-27T08:11:41.999Z</time></trkpt><trkpt lat="44.62442449264747" lon="8.225077406136851"><ele>237.0</ele><time>2026-04-27T08:11:42.999Z</time></trkpt><trkpt lat="44.62436855530967" lon="8.224899925441619"><ele>237.0</ele><time>2026-04-27T08:11:43.999Z</time></trkpt><trkpt lat="44.624269483164404" lon="8.224738337598122"><ele>237.0</ele><time>2026-04-27T08:11:44.999Z</time></trkpt><trkpt lat="44.62415651146721" lon="8.224561787250137"><ele>236.25</ele><time>2026-04-27T08:11:45.999Z</time></trkpt><trkpt lat="44.62403594529196" lon="8.22443710209478"><ele>235.5</ele><time>2026-04-27T08:11:46.999Z</time></trkpt><trkpt lat="44.62391478209242" lon="8.224368674547858"><ele>234.75</ele><time>2026-04-27T08:11:47.999Z</time></trkpt><trkpt lat="44.62376352827168" lon="8.224405294002526"><ele>234.0</ele><time>2026-04-27T08:11:48.999Z</time></trkpt><trkpt lat="44.62357367616439" lon="8.224408983490436"><ele>240.0</ele><time>2026-04-27T08:11:49.999Z</time></trkpt><trkpt lat="44.62336801977477" lon="8.224377242838667"><ele>246.0</ele><time>2026-04-27T08:11:50.999Z</time></trkpt><trkpt lat="44.62316265335909" lon="8.224275882136633"><ele>252.0</ele><time>2026-04-27T08:11:51.999Z</time></trkpt><trkpt lat="44.62297574023918" lon="8.224146855160823"><ele>253.33333333333331</ele><time>2026-04-27T08:11:52.999Z</time></trkpt><trkpt lat="44.622801185859906" lon="8.224006972121323"><ele>254.66666666666666</ele><time>2026-04-27T08:11:53.999Z</time></trkpt><trkpt lat="44.62264925136449" lon="8.223899908364384"><ele>256.0</ele><time>2026-04-27T08:11:54.999Z</time></trkpt><trkpt lat="44.62250490445501" lon="8.223837463838736"><ele>257.0</ele><time>2026-04-27T08:11:55.999Z</time></trkpt><trkpt lat="44.62237472399367" lon="8.223819221987924"><ele>258.0</ele><time>2026-04-27T08:11:56.999Z</time></trkpt><trkpt lat="44.62226648982854" lon="8.223783525870985"><ele>259.0</ele><time>2026-04-27T08:11:57.999Z</time></trkpt><trkpt lat="44.622170685326246" lon="8.223668902412399"><ele>260.0</ele><time>2026-04-27T08:11:58.999Z</time></trkpt><trkpt lat="44.622101565412635" lon="8.223472009860636"><ele>260.0</ele><time>2026-04-27T08:11:59.999Z</time></trkpt><trkpt lat="44.62200559182654" lon="8.223277634609058"><ele>260.0</ele><time>2026-04-27T08:12:00.999Z</time></trkpt><trkpt lat="44.621924067935275" lon="8.223060181449135"><ele>260.0</ele><time>2026-04-27T08:12:01.999Z</time></trkpt><trkpt lat="44.62180618353565" lon="8.222860406195323"><ele>261.33333333333337</ele><time>2026-04-27T08:12:02.999Z</time></trkpt><trkpt lat="44.6216587243954" lon="8.222698452080385"><ele>262.6666666666667</ele><time>2026-04-27T08:12:03.999Z</time></trkpt><trkpt lat="44.62151933816764" lon="8.222561100512968"><ele>264.0</ele><time>2026-04-27T08:12:04.999Z</time></trkpt><trkpt lat="44.621423582306456" lon="8.222397565558788"><ele>264.75</ele><time>2026-04-27T08:12:05.999Z</time></trkpt><trkpt lat="44.6213595546486" lon="8.222234312701836"><ele>265.5</ele><time>2026-04-27T08:12:06.999Z</time></trkpt><trkpt lat="44.6213066424545" lon="8.222086728200374"><ele>266.25</ele><time>2026-04-27T08:12:07.999Z</time></trkpt><trkpt lat="44.62128649721459" lon="8.22196672384171"><ele>267.0</ele><time>2026-04-27T08:12:08.999Z</time></trkpt><trkpt lat="44.62122596664716" lon="8.22181081551166"><ele>267.0</ele><time>2026-04-27T08:12:10.999Z</time></trkpt><trkpt lat="44.621163585770795" lon="8.221721653907593"><ele>267.0</ele><time>2026-04-27T08:12:11.998Z</time></trkpt><trkpt lat="44.621075093912516" lon="8.221641737485635"><ele>267.0</ele><time>2026-04-27T08:12:12.998Z</time></trkpt><trkpt lat="44.62096484575244" lon="8.221582227719091"><ele>267.0</ele><time>2026-04-27T08:12:13.998Z</time></trkpt><trkpt lat="44.62083732636998" lon="8.221518078711968"><ele>267.0</ele><time>2026-04-27T08:12:14.998Z</time></trkpt><trkpt lat="44.620706248771185" lon="8.221458943282025"><ele>267.0</ele><time>2026-04-27T08:12:15.998Z</time></trkpt><trkpt lat="44.6205841852244" lon="8.221444911994915"><ele>267.0</ele><time>2026-04-27T08:12:16.998Z</time></trkpt><trkpt lat="44.62045852626313" lon="8.221501865530236"><ele>267.0</ele><time>2026-04-27T08:12:17.998Z</time></trkpt><trkpt lat="44.62034305711109" lon="8.2216185842286"><ele>267.0</ele><time>2026-04-27T08:12:18.998Z</time></trkpt><trkpt lat="44.62024970120636" lon="8.221783528323588"><ele>268.5</ele><time>2026-04-27T08:12:19.998Z</time></trkpt><trkpt lat="44.62016008530112" lon="8.221961931643024"><ele>270.0</ele><time>2026-04-27T08:12:20.998Z</time></trkpt><trkpt lat="44.620066479010596" lon="8.2221149239046"><ele>271.5</ele><time>2026-04-27T08:12:21.998Z</time></trkpt><trkpt lat="44.61998730766717" lon="8.222214619679981"><ele>273.0</ele><time>2026-04-27T08:12:22.998Z</time></trkpt><trkpt lat="44.619911677844456" lon="8.22224596170299"><ele>273.0</ele><time>2026-04-27T08:12:24Z</time></trkpt><trkpt lat="44.61983828557772" lon="8.222195855438903"><ele>273.0</ele><time>2026-04-27T08:12:25Z</time></trkpt><trkpt lat="44.61978888149772" lon="8.222061547643753"><ele>273.0</ele><time>2026-04-27T08:12:26Z</time></trkpt><trkpt lat="44.61969429962585" lon="8.22191028648297"><ele>273.0</ele><time>2026-04-27T08:12:27Z</time></trkpt><trkpt lat="44.619597747777526" lon="8.221734896839312"><ele>273.0</ele><time>2026-04-27T08:12:28Z</time></trkpt><trkpt lat="44.6194900977962" lon="8.221586569187767"><ele>273.0</ele><time>2026-04-27T08:12:29Z</time></trkpt><trkpt lat="44.619348868757974" lon="8.221489120088945"><ele>273.0</ele><time>2026-04-27T08:12:30Z</time></trkpt><trkpt lat="44.619183496276214" lon="8.221447634519496"><ele>275.3333333333333</ele><time>2026-04-27T08:12:31Z</time></trkpt><trkpt lat="44.61900723577206" lon="8.22145979252139"><ele>277.66666666666663</ele><time>2026-04-27T08:12:32Z</time></trkpt><trkpt lat="44.61884034950964" lon="8.221525778697895"><ele>280.0</ele><time>2026-04-27T08:12:33Z</time></trkpt><trkpt lat="44.618691884117844" lon="8.221630185119007"><ele>283.3333333333333</ele><time>2026-04-27T08:12:34Z</time></trkpt><trkpt lat="44.61854817952677" lon="8.221764981618655"><ele>286.6666666666667</ele><time>2026-04-27T08:12:35Z</time></trkpt><trkpt lat="44.61841343665533" lon="8.221925952566766"><ele>290.0</ele><time>2026-04-27T08:12:36Z</time></trkpt><trkpt lat="44.61826984538603" lon="8.222106196466717"><ele>290.0</ele><time>2026-04-27T08:12:37Z</time></trkpt><trkpt lat="44.61812420142011" lon="8.222278734082549"><ele>290.0</ele><time>2026-04-27T08:12:38Z</time></trkpt><trkpt lat="44.61796876175304" lon="8.222449627065847"><ele>290.0</ele><time>2026-04-27T08:12:39Z</time></trkpt><trkpt lat="44.617782944313106" lon="8.222574762540589"><ele>291.0</ele><time>2026-04-27T08:12:40Z</time></trkpt><trkpt lat="44.61758841664344" lon="8.22268417104314"><ele>292.0</ele><time>2026-04-27T08:12:41Z</time></trkpt><trkpt lat="44.6174095825372" lon="8.222771559597218"><ele>293.0</ele><time>2026-04-27T08:12:42Z</time></trkpt><trkpt lat="44.61727330764919" lon="8.222795885974675"><ele>293.0</ele><time>2026-04-27T08:12:43Z</time></trkpt><trkpt lat="44.617132996528156" lon="8.222725520427252"><ele>293.0</ele><time>2026-04-27T08:12:44Z</time></trkpt><trkpt lat="44.61700045716512" lon="8.222663932342648"><ele>293.0</ele><time>2026-04-27T08:12:45Z</time></trkpt><trkpt lat="44.61692419181676" lon="8.222656419402425"><ele>293.0</ele><time>2026-04-27T08:12:46Z</time></trkpt><trkpt lat="44.61686376376736" lon="8.222689627099767"><ele>293.0</ele><time>2026-04-27T08:12:47Z</time></trkpt><trkpt lat="44.61685927441009" lon="8.222992266395387"><ele>296.0</ele><time>2026-04-27T08:12:49Z</time></trkpt><trkpt lat="44.61693143354174" lon="8.223196721661164"><ele>299.0</ele><time>2026-04-27T08:12:50Z</time></trkpt><trkpt lat="44.61701675343778" lon="8.223413361542407"><ele>302.0</ele><time>2026-04-27T08:12:51Z</time></trkpt><trkpt lat="44.61710229604999" lon="8.223600753740675"><ele>302.0</ele><time>2026-04-27T08:12:52Z</time></trkpt><trkpt lat="44.61722725222578" lon="8.223754682162665"><ele>302.0</ele><time>2026-04-27T08:12:53Z</time></trkpt><trkpt lat="44.61736586655547" lon="8.223804557237562"><ele>302.0</ele><time>2026-04-27T08:12:54Z</time></trkpt><trkpt lat="44.61744385783719" lon="8.223856152385533"><ele>302.0</ele><time>2026-04-27T08:12:55Z</time></trkpt><trkpt lat="44.61744157309107" lon="8.224039627466574"><ele>305.0</ele><time>2026-04-27T08:12:57Z</time></trkpt><trkpt lat="44.61734000873582" lon="8.224125273753733"><ele>308.0</ele><time>2026-04-27T08:12:58Z</time></trkpt><trkpt lat="44.61720242566936" lon="8.224277522370317"><ele>311.0</ele><time>2026-04-27T08:12:59Z</time></trkpt><trkpt lat="44.61707657405305" lon="8.224443529583539"><ele>311.33333333333337</ele><time>2026-04-27T08:13:00Z</time></trkpt><trkpt lat="44.616979702976856" lon="8.224633064829181"><ele>311.6666666666667</ele><time>2026-04-27T08:13:01Z</time></trkpt><trkpt lat="44.61691333763772" lon="8.22484365420482"><ele>312.0</ele><time>2026-04-27T08:13:02Z</time></trkpt><trkpt lat="44.61683942135361" lon="8.224978187164023"><ele>314.0</ele><time>2026-04-27T08:13:03Z</time></trkpt><trkpt lat="44.61669354093393" lon="8.224968768010061"><ele>316.0</ele><time>2026-04-27T08:13:04Z</time></trkpt><trkpt lat="44.61650720190253" lon="8.224991638131756"><ele>318.0</ele><time>2026-04-27T08:13:05Z</time></trkpt><trkpt lat="44.61632063112363" lon="8.22503877095554"><ele>318.0</ele><time>2026-04-27T08:13:06Z</time></trkpt><trkpt lat="44.61617563221102" lon="8.225108477557189"><ele>318.0</ele><time>2026-04-27T08:13:07Z</time></trkpt><trkpt lat="44.61608455387875" lon="8.225238406489058"><ele>318.0</ele><time>2026-04-27T08:13:08Z</time></trkpt><trkpt lat="44.61604851460164" lon="8.22541108758117"><ele>318.0</ele><time>2026-04-27T08:13:08.999Z</time></trkpt><trkpt lat="44.61605622161359" lon="8.225617896452421"><ele>321.0</ele><time>2026-04-27T08:13:09.999Z</time></trkpt><trkpt lat="44.616132944124466" lon="8.225823042296875"><ele>324.0</ele><time>2026-04-27T08:13:10.999Z</time></trkpt><trkpt lat="44.616247836631" lon="8.225964668199575"><ele>327.0</ele><time>2026-04-27T08:13:11.999Z</time></trkpt><trkpt lat="44.61639971427362" lon="8.226047269763098"><ele>327.40000000000003</ele><time>2026-04-27T08:13:12.999Z</time></trkpt><trkpt lat="44.616521590981804" lon="8.22613176559023"><ele>327.8</ele><time>2026-04-27T08:13:13.999Z</time></trkpt><trkpt lat="44.61657142467452" lon="8.226192133651281"><ele>328.2</ele><time>2026-04-27T08:13:14.999Z</time></trkpt><trkpt lat="44.6165650384462" lon="8.226315010343258"><ele>328.6</ele><time>2026-04-27T08:13:15.999Z</time></trkpt><trkpt lat="44.616473760284194" lon="8.226442002298791"><ele>329.0</ele><time>2026-04-27T08:13:16.999Z</time></trkpt><trkpt lat="44.61636558457256" lon="8.22660913211546"><ele>331.33333333333337</ele><time>2026-04-27T08:13:17.999Z</time></trkpt><trkpt lat="44.616228320136095" lon="8.226825416230556"><ele>333.6666666666667</ele><time>2026-04-27T08:13:18.999Z</time></trkpt><trkpt lat="44.61608404957952" lon="8.227061418258977"><ele>336.0</ele><time>2026-04-27T08:13:19.999Z</time></trkpt><trkpt lat="44.61593929127824" lon="8.227300176401013"><ele>340.6666666666667</ele><time>2026-04-27T08:13:20.999Z</time></trkpt><trkpt lat="44.615797120717495" lon="8.22752776178168"><ele>345.33333333333337</ele><time>2026-04-27T08:13:21.999Z</time></trkpt><trkpt lat="44.61565232656379" lon="8.227747837342932"><ele>350.0</ele><time>2026-04-27T08:13:22.999Z</time></trkpt><trkpt lat="44.61550416037716" lon="8.227963830996433"><ele>352.5</ele><time>2026-04-27T08:13:23.999Z</time></trkpt><trkpt lat="44.61534821970413" lon="8.228193876321994"><ele>355.0</ele><time>2026-04-27T08:13:24.999Z</time></trkpt><trkpt lat="44.61519010346409" lon="8.228439816231031"><ele>355.0</ele><time>2026-04-27T08:13:25.999Z</time></trkpt><trkpt lat="44.61501300238993" lon="8.228680941047807"><ele>355.0</ele><time>2026-04-27T08:13:26.999Z</time></trkpt><trkpt lat="44.614837889188955" lon="8.228936328803288"><ele>363.0</ele><time>2026-04-27T08:13:27.999Z</time></trkpt><trkpt lat="44.61467583045306" lon="8.229187044012136"><ele>371.0</ele><time>2026-04-27T08:13:28.999Z</time></trkpt><trkpt lat="44.61448800178519" lon="8.229390108215549"><ele>365.0</ele><time>2026-04-27T08:13:29.999Z</time></trkpt><trkpt lat="44.614302826081534" lon="8.229602270347183"><ele>359.0</ele><time>2026-04-27T08:13:30.999Z</time></trkpt><trkpt lat="44.614106546707504" lon="8.229787131603876"><ele>364.0</ele><time>2026-04-27T08:13:31.999Z</time></trkpt><trkpt lat="44.613923037264065" lon="8.229963078166776"><ele>369.0</ele><time>2026-04-27T08:13:32.999Z</time></trkpt><trkpt lat="44.613751684243155" lon="8.23013474330738"><ele>374.0</ele><time>2026-04-27T08:13:33.999Z</time></trkpt><trkpt lat="44.613595047965944" lon="8.230283356809313"><ele>374.33333333333337</ele><time>2026-04-27T08:13:34.999Z</time></trkpt><trkpt lat="44.61345124252289" lon="8.23043299211501"><ele>374.6666666666667</ele><time>2026-04-27T08:13:35.999Z</time></trkpt><trkpt lat="44.613309020617876" lon="8.2306061956757"><ele>375.0</ele><time>2026-04-27T08:13:36.999Z</time></trkpt><trkpt lat="44.61316914440973" lon="8.230787145734533"><ele>377.0</ele><time>2026-04-27T08:13:37.999Z</time></trkpt><trkpt lat="44.61300534145046" lon="8.230921172430318"><ele>379.0</ele><time>2026-04-27T08:13:38.999Z</time></trkpt><trkpt lat="44.61286455790742" lon="8.231064906463814"><ele>381.0</ele><time>2026-04-27T08:13:39.999Z</time></trkpt><trkpt lat="44.612738267680925" lon="8.23122590833723"><ele>381.0</ele><time>2026-04-27T08:13:40.999Z</time></trkpt><trkpt lat="44.61262577370954" lon="8.23143195313903"><ele>381.0</ele><time>2026-04-27T08:13:41.999Z</time></trkpt><trkpt lat="44.612544109409036" lon="8.231630174052993"><ele>381.0</ele><time>2026-04-27T08:13:42.999Z</time></trkpt><trkpt lat="44.612477805236615" lon="8.231764396117633"><ele>383.25</ele><time>2026-04-27T08:13:43.999Z</time></trkpt><trkpt lat="44.61246649952571" lon="8.231906994122154"><ele>385.5</ele><time>2026-04-27T08:13:44.999Z</time></trkpt><trkpt lat="44.61249121220006" lon="8.232041995263817"><ele>387.75</ele><time>2026-04-27T08:13:45.999Z</time></trkpt><trkpt lat="44.61259447753009" lon="8.232137871044944"><ele>390.0</ele><time>2026-04-27T08:13:46.999Z</time></trkpt><trkpt lat="44.6127329738368" lon="8.232230655234348"><ele>393.33333333333337</ele><time>2026-04-27T08:13:47.999Z</time></trkpt><trkpt lat="44.61289396701914" lon="8.232342567367018"><ele>396.6666666666667</ele><time>2026-04-27T08:13:48.999Z</time></trkpt><trkpt lat="44.61300749990534" lon="8.232404551955378"><ele>400.0</ele><time>2026-04-27T08:13:49.999Z</time></trkpt><trkpt lat="44.61315929701053" lon="8.23249063010067"><ele>400.0</ele><time>2026-04-27T08:13:50.999Z</time></trkpt><trkpt lat="44.61328740569763" lon="8.232565081985753"><ele>400.0</ele><time>2026-04-27T08:13:51.999Z</time></trkpt><trkpt lat="44.61340850117245" lon="8.232673135580404"><ele>400.0</ele><time>2026-04-27T08:13:52.999Z</time></trkpt><trkpt lat="44.613532451598765" lon="8.232776824383562"><ele>400.0</ele><time>2026-04-27T08:13:53.999Z</time></trkpt><trkpt lat="44.61366260558764" lon="8.23282101750348"><ele>402.6666666666667</ele><time>2026-04-27T08:13:54.999Z</time></trkpt><trkpt lat="44.61379588903021" lon="8.232774615778707"><ele>405.33333333333337</ele><time>2026-04-27T08:13:55.999Z</time></trkpt><trkpt lat="44.613917147570945" lon="8.232620725818437"><ele>408.0</ele><time>2026-04-27T08:13:56.999Z</time></trkpt><trkpt lat="44.614051506064214" lon="8.232487069973173"><ele>408.0</ele><time>2026-04-27T08:13:57.999Z</time></trkpt><trkpt lat="44.61418617064251" lon="8.232344450039559"><ele>408.0</ele><time>2026-04-27T08:13:58.999Z</time></trkpt><trkpt lat="44.61429502989588" lon="8.232229159581378"><ele>408.0</ele><time>2026-04-27T08:13:59.999Z</time></trkpt><trkpt lat="44.614385030624504" lon="8.232125388134023"><ele>408.0</ele><time>2026-04-27T08:14:00.999Z</time></trkpt><trkpt lat="44.614468329951904" lon="8.232113883926097"><ele>408.0</ele><time>2026-04-27T08:14:01.999Z</time></trkpt><trkpt lat="44.61455506019664" lon="8.23218074270786"><ele>408.0</ele><time>2026-04-27T08:14:02.999Z</time></trkpt><trkpt lat="44.614607959252226" lon="8.232312004259178"><ele>408.0</ele><time>2026-04-27T08:14:03.999Z</time></trkpt><trkpt lat="44.614617951505075" lon="8.232509653896713"><ele>408.0</ele><time>2026-04-27T08:14:04.999Z</time></trkpt><trkpt lat="44.6146317248773" lon="8.232718945788097"><ele>411.0</ele><time>2026-04-27T08:14:05.999Z</time></trkpt><trkpt lat="44.61463800970254" lon="8.232914291780313"><ele>414.0</ele><time>2026-04-27T08:14:06.999Z</time></trkpt><trkpt lat="44.61465126558432" lon="8.23308453971704"><ele>417.0</ele><time>2026-04-27T08:14:07.999Z</time></trkpt><trkpt lat="44.61468336791586" lon="8.233221326238727"><ele>420.0</ele><time>2026-04-27T08:14:08.999Z</time></trkpt><trkpt lat="44.614742453808155" lon="8.233336459353813"><ele>420.75</ele><time>2026-04-27T08:14:09.999Z</time></trkpt><trkpt lat="44.6147933944629" lon="8.233471647974909"><ele>421.5</ele><time>2026-04-27T08:14:10.999Z</time></trkpt><trkpt lat="44.61485992451825" lon="8.233605322342846"><ele>422.25</ele><time>2026-04-27T08:14:11.999Z</time></trkpt><trkpt lat="44.61489610410226" lon="8.233780011348642"><ele>423.0</ele><time>2026-04-27T08:14:12.999Z</time></trkpt><trkpt lat="44.61488032469921" lon="8.233952315464835"><ele>423.25</ele><time>2026-04-27T08:14:13.999Z</time></trkpt><trkpt lat="44.61483744263535" lon="8.234107247045813"><ele>423.5</ele><time>2026-04-27T08:14:14.999Z</time></trkpt><trkpt lat="44.614741680349" lon="8.234200538913367"><ele>423.75</ele><time>2026-04-27T08:14:15.998Z</time></trkpt><trkpt lat="44.61462391206406" lon="8.234214755439112"><ele>424.0</ele><time>2026-04-27T08:14:16.998Z</time></trkpt><trkpt lat="44.614471796287596" lon="8.23420961819553"><ele>426.6666666666667</ele><time>2026-04-27T08:14:17.998Z</time></trkpt><trkpt lat="44.61428386779066" lon="8.234207030928813"><ele>429.33333333333337</ele><time>2026-04-27T08:14:18.998Z</time></trkpt><trkpt lat="44.61408202369979" lon="8.234201874019611"><ele>432.0</ele><time>2026-04-27T08:14:19.998Z</time></trkpt><trkpt lat="44.613882139337846" lon="8.234196252086278"><ele>432.0</ele><time>2026-04-27T08:14:20.998Z</time></trkpt><trkpt lat="44.613683625132246" lon="8.234189218469547"><ele>432.0</ele><time>2026-04-27T08:14:21.998Z</time></trkpt><trkpt lat="44.61349860882521" lon="8.23418266310044"><ele>432.0</ele><time>2026-04-27T08:14:22.998Z</time></trkpt><trkpt lat="44.613345584373135" lon="8.23418945147529"><ele>434.0</ele><time>2026-04-27T08:14:23.998Z</time></trkpt><trkpt lat="44.613238318619565" lon="8.23421928974232"><ele>436.0</ele><time>2026-04-27T08:14:24.998Z</time></trkpt><trkpt lat="44.61314996962579" lon="8.234254528915775"><ele>438.0</ele><time>2026-04-27T08:14:25.998Z</time></trkpt><trkpt lat="44.61306410038536" lon="8.23434542953518"><ele>440.0</ele><time>2026-04-27T08:14:26.998Z</time></trkpt><trkpt lat="44.612947484368085" lon="8.234469994852015"><ele>442.3333333333333</ele><time>2026-04-27T08:14:27.998Z</time></trkpt><trkpt lat="44.61281402726943" lon="8.234606668588352"><ele>444.66666666666663</ele><time>2026-04-27T08:14:28.998Z</time></trkpt><trkpt lat="44.612671933028395" lon="8.234741081198933"><ele>447.0</ele><time>2026-04-27T08:14:30Z</time></trkpt><trkpt lat="44.61254241931913" lon="8.234874996671385"><ele>447.0</ele><time>2026-04-27T08:14:31Z</time></trkpt><trkpt lat="44.612462102445775" lon="8.23503818296903"><ele>447.0</ele><time>2026-04-27T08:14:32Z</time></trkpt><trkpt lat="44.612413173743136" lon="8.235231745183071"><ele>447.0</ele><time>2026-04-27T08:14:33Z</time></trkpt><trkpt lat="44.61236734644951" lon="8.235467194722155"><ele>449.66666666666663</ele><time>2026-04-27T08:14:34Z</time></trkpt><trkpt lat="44.612314793869366" lon="8.235734209989175"><ele>452.3333333333333</ele><time>2026-04-27T08:14:35Z</time></trkpt><trkpt lat="44.612275737151116" lon="8.236032802817842"><ele>455.0</ele><time>2026-04-27T08:14:36Z</time></trkpt><trkpt lat="44.6122328598873" lon="8.236348175597026"><ele>456.66666666666663</ele><time>2026-04-27T08:14:37Z</time></trkpt><trkpt lat="44.61219059971847" lon="8.236647910090381"><ele>458.33333333333337</ele><time>2026-04-27T08:14:38Z</time></trkpt><trkpt lat="44.61213225881983" lon="8.236881636848821"><ele>460.0</ele><time>2026-04-27T08:14:39Z</time></trkpt><trkpt lat="44.612067950095856" lon="8.237065604488185"><ele>460.25</ele><time>2026-04-27T08:14:40Z</time></trkpt><trkpt lat="44.61196015904194" lon="8.237155298818053"><ele>460.5</ele><time>2026-04-27T08:14:41Z</time></trkpt><trkpt lat="44.61183588357726" lon="8.237171581016066"><ele>460.75</ele><time>2026-04-27T08:14:42Z</time></trkpt><trkpt lat="44.61166469078093" lon="8.237221641408597"><ele>461.0</ele><time>2026-04-27T08:14:43Z</time></trkpt><trkpt lat="44.611463287039655" lon="8.237272536779884"><ele>464.3333333333333</ele><time>2026-04-27T08:14:44Z</time></trkpt><trkpt lat="44.61124970609417" lon="8.237335148670086"><ele>467.66666666666663</ele><time>2026-04-27T08:14:45Z</time></trkpt><trkpt lat="44.61102960057205" lon="8.237407361482212"><ele>471.0</ele><time>2026-04-27T08:14:46Z</time></trkpt><trkpt lat="44.61079736621079" lon="8.237496787868217"><ele>472.25</ele><time>2026-04-27T08:14:47Z</time></trkpt><trkpt lat="44.61063838966467" lon="8.237552585289054"><ele>473.5</ele><time>2026-04-27T08:14:48Z</time></trkpt><trkpt lat="44.61049695273002" lon="8.237595901403225"><ele>474.75</ele><time>2026-04-27T08:14:49Z</time></trkpt><trkpt lat="44.61037847344798" lon="8.237640477353313"><ele>476.0</ele><time>2026-04-27T08:14:50Z</time></trkpt><trkpt lat="44.61027572490385" lon="8.23772673774735"><ele>476.3333333333333</ele><time>2026-04-27T08:14:51Z</time></trkpt><trkpt lat="44.61019170448109" lon="8.237874454819169"><ele>476.66666666666663</ele><time>2026-04-27T08:14:52Z</time></trkpt><trkpt lat="44.61012436506647" lon="8.23807073968063"><ele>477.0</ele><time>2026-04-27T08:14:53Z</time></trkpt><trkpt lat="44.61005421017067" lon="8.238291864785719"><ele>480.66666666666663</ele><time>2026-04-27T08:14:54Z</time></trkpt><trkpt lat="44.609973418778104" lon="8.238496043868297"><ele>484.3333333333333</ele><time>2026-04-27T08:14:55Z</time></trkpt><trkpt lat="44.60988814564566" lon="8.238676284214378"><ele>488.0</ele><time>2026-04-27T08:14:56Z</time></trkpt><trkpt lat="44.60977448828703" lon="8.238799411956037"><ele>488.0</ele><time>2026-04-27T08:14:57Z</time></trkpt><trkpt lat="44.60962952053101" lon="8.238878081758502"><ele>488.0</ele><time>2026-04-27T08:14:58Z</time></trkpt><trkpt lat="44.609457982928596" lon="8.239005474735638"><ele>488.0</ele><time>2026-04-27T08:14:59Z</time></trkpt><trkpt lat="44.60927305310524" lon="8.239114083141247"><ele>491.3333333333333</ele><time>2026-04-27T08:15:00Z</time></trkpt><trkpt lat="44.60908794758282" lon="8.239231662586693"><ele>494.66666666666663</ele><time>2026-04-27T08:15:01Z</time></trkpt><trkpt lat="44.608885887422474" lon="8.239363123319347"><ele>498.0</ele><time>2026-04-27T08:15:02Z</time></trkpt><trkpt lat="44.60867193574285" lon="8.23946091605688"><ele>499.0</ele><time>2026-04-27T08:15:03Z</time></trkpt><trkpt lat="44.60847170990351" lon="8.239555716662272"><ele>500.0</ele><time>2026-04-27T08:15:04Z</time></trkpt><trkpt lat="44.608287351200225" lon="8.239593114864327"><ele>501.0</ele><time>2026-04-27T08:15:05Z</time></trkpt><trkpt lat="44.60810713799788" lon="8.239570105850794"><ele>501.0</ele><time>2026-04-27T08:15:06Z</time></trkpt><trkpt lat="44.60794887529392" lon="8.23956185874354"><ele>501.0</ele><time>2026-04-27T08:15:07Z</time></trkpt><trkpt lat="44.6078269963584" lon="8.239582688046744"><ele>501.0</ele><time>2026-04-27T08:15:08Z</time></trkpt><trkpt lat="44.60772387258778" lon="8.239655527645315"><ele>501.0</ele><time>2026-04-27T08:15:09Z</time></trkpt><trkpt lat="44.60764726183739" lon="8.239797937807959"><ele>504.66666666666663</ele><time>2026-04-27T08:15:10Z</time></trkpt><trkpt lat="44.607610262312754" lon="8.240004269413083"><ele>508.3333333333333</ele><time>2026-04-27T08:15:11Z</time></trkpt><trkpt lat="44.60757372058133" lon="8.240230077393859"><ele>512.0</ele><time>2026-04-27T08:15:12Z</time></trkpt><trkpt lat="44.607484549939514" lon="8.240419841549478"><ele>512.0</ele><time>2026-04-27T08:15:13Z</time></trkpt><trkpt lat="44.6073780460348" lon="8.240565878033637"><ele>512.0</ele><time>2026-04-27T08:15:14Z</time></trkpt><trkpt lat="44.60723594216945" lon="8.240628605512635"><ele>512.0</ele><time>2026-04-27T08:15:15Z</time></trkpt><trkpt lat="44.60708022561305" lon="8.24065743982092"><ele>513.75</ele><time>2026-04-27T08:15:16Z</time></trkpt><trkpt lat="44.6069297276047" lon="8.240636732775883"><ele>515.5</ele><time>2026-04-27T08:15:16.999Z</time></trkpt><trkpt lat="44.60678461307341" lon="8.24057740338274"><ele>517.25</ele><time>2026-04-27T08:15:17.999Z</time></trkpt><trkpt lat="44.60664083860583" lon="8.240549302709264"><ele>519.0</ele><time>2026-04-27T08:15:18.999Z</time></trkpt><trkpt lat="44.606519436949775" lon="8.240532865772034"><ele>519.0</ele><time>2026-04-27T08:15:19.999Z</time></trkpt><trkpt lat="44.606410652115706" lon="8.24060028162841"><ele>519.0</ele><time>2026-04-27T08:15:20.999Z</time></trkpt><trkpt lat="44.606291534553904" lon="8.240665298015788"><ele>519.0</ele><time>2026-04-27T08:15:21.999Z</time></trkpt><trkpt lat="44.60616977021867" lon="8.2407181044605"><ele>519.0</ele><time>2026-04-27T08:15:22.999Z</time></trkpt><trkpt lat="44.60605437274161" lon="8.240767167277742"><ele>522.0</ele><time>2026-04-27T08:15:23.999Z</time></trkpt><trkpt lat="44.60595770596659" lon="8.240822185979443"><ele>525.0</ele><time>2026-04-27T08:15:24.999Z</time></trkpt><trkpt lat="44.605896312447975" lon="8.240917936210034"><ele>528.0</ele><time>2026-04-27T08:15:25.999Z</time></trkpt><trkpt lat="44.6058899779997" lon="8.24107313044067"><ele>531.0</ele><time>2026-04-27T08:15:26.999Z</time></trkpt><trkpt lat="44.60592376001788" lon="8.241245693475408"><ele>534.0</ele><time>2026-04-27T08:15:27.999Z</time></trkpt><trkpt lat="44.605971235764656" lon="8.241439146349602"><ele>537.0</ele><time>2026-04-27T08:15:28.999Z</time></trkpt><trkpt lat="44.60600524471345" lon="8.241649096225112"><ele>540.0</ele><time>2026-04-27T08:15:29.999Z</time></trkpt><trkpt lat="44.60604550168821" lon="8.241873017649997"><ele>543.0</ele><time>2026-04-27T08:15:30.999Z</time></trkpt><trkpt lat="44.60609766664497" lon="8.24209450687157"><ele>544.0</ele><time>2026-04-27T08:15:31.999Z</time></trkpt><trkpt lat="44.60617577912548" lon="8.242304853618554"><ele>545.0</ele><time>2026-04-27T08:15:32.999Z</time></trkpt><trkpt lat="44.606281578215416" lon="8.242472927737516"><ele>546.0</ele><time>2026-04-27T08:15:33.999Z</time></trkpt><trkpt lat="44.60639112994392" lon="8.242607153307718"><ele>546.0</ele><time>2026-04-27T08:15:34.999Z</time></trkpt><trkpt lat="44.606513377126625" lon="8.242676210204587"><ele>546.0</ele><time>2026-04-27T08:15:35.999Z</time></trkpt><trkpt lat="44.60664268788704" lon="8.242659316858289"><ele>546.0</ele><time>2026-04-27T08:15:36.999Z</time></trkpt><trkpt lat="44.60677788161009" lon="8.242592415533755"><ele>546.0</ele><time>2026-04-27T08:15:37.999Z</time></trkpt><trkpt lat="44.60691976022168" lon="8.24263842628354"><ele>545.5</ele><time>2026-04-27T08:15:38.999Z</time></trkpt><trkpt lat="44.60704810272004" lon="8.242725000269155"><ele>545.0</ele><time>2026-04-27T08:15:39.999Z</time></trkpt><trkpt lat="44.60715743868118" lon="8.24285257935287"><ele>544.5</ele><time>2026-04-27T08:15:40.999Z</time></trkpt><trkpt lat="44.60727003257733" lon="8.242985158366585"><ele>544.0</ele><time>2026-04-27T08:15:41.999Z</time></trkpt><trkpt lat="44.60739226003343" lon="8.243091055131668"><ele>546.2</ele><time>2026-04-27T08:15:42.999Z</time></trkpt><trkpt lat="44.60750639217413" lon="8.243145176816117"><ele>548.4</ele><time>2026-04-27T08:15:43.999Z</time></trkpt><trkpt lat="44.607589854686566" lon="8.24320682518924"><ele>550.6</ele><time>2026-04-27T08:15:44.999Z</time></trkpt><trkpt lat="44.607591571099306" lon="8.243360795217743"><ele>552.8</ele><time>2026-04-27T08:15:46.999Z</time></trkpt><trkpt lat="44.60753597456092" lon="8.243416011687716"><ele>555.0</ele><time>2026-04-27T08:15:47.999Z</time></trkpt><trkpt lat="44.607430941876025" lon="8.243471892117363"><ele>555.0</ele><time>2026-04-27T08:15:48.999Z</time></trkpt><trkpt lat="44.60731424043612" lon="8.243532150655746"><ele>555.0</ele><time>2026-04-27T08:15:49.999Z</time></trkpt><trkpt lat="44.60717143577773" lon="8.243606427397165"><ele>555.0</ele><time>2026-04-27T08:15:50.999Z</time></trkpt><trkpt lat="44.60700802977724" lon="8.243675470230208"><ele>555.0</ele><time>2026-04-27T08:15:51.999Z</time></trkpt><trkpt lat="44.60681630624466" lon="8.243738959611482"><ele>556.0</ele><time>2026-04-27T08:15:52.999Z</time></trkpt><trkpt lat="44.60663087552742" lon="8.243804220163623"><ele>557.0</ele><time>2026-04-27T08:15:53.999Z</time></trkpt><trkpt lat="44.606442758486914" lon="8.243902834027743"><ele>558.0</ele><time>2026-04-27T08:15:54.999Z</time></trkpt><trkpt lat="44.60628778159649" lon="8.244046961544539"><ele>560.3333333333334</ele><time>2026-04-27T08:15:55.999Z</time></trkpt><trkpt lat="44.60615848161468" lon="8.244188408122522"><ele>562.6666666666667</ele><time>2026-04-27T08:15:56.999Z</time></trkpt><trkpt lat="44.60603535957845" lon="8.244326530234485"><ele>565.0</ele><time>2026-04-27T08:15:57.999Z</time></trkpt><trkpt lat="44.60592671526616" lon="8.244456279780332"><ele>565.0</ele><time>2026-04-27T08:15:58.999Z</time></trkpt><trkpt lat="44.60582551031004" lon="8.244519439935665"><ele>565.0</ele><time>2026-04-27T08:15:59.999Z</time></trkpt><trkpt lat="44.605733126008175" lon="8.244545301726365"><ele>565.0</ele><time>2026-04-27T08:16:00.999Z</time></trkpt><trkpt lat="44.60561830639855" lon="8.244564701625334"><ele>565.0</ele><time>2026-04-27T08:16:01.999Z</time></trkpt><trkpt lat="44.60550111094796" lon="8.244602902957267"><ele>565.0</ele><time>2026-04-27T08:16:02.999Z</time></trkpt><trkpt lat="44.60539060496744" lon="8.244714713649875"><ele>566.0</ele><time>2026-04-27T08:16:03.999Z</time></trkpt><trkpt lat="44.605303842542334" lon="8.244865563018607"><ele>567.0</ele><time>2026-04-27T08:16:04.999Z</time></trkpt><trkpt lat="44.6052410261352" lon="8.245048466033904"><ele>568.0</ele><time>2026-04-27T08:16:05.999Z</time></trkpt><trkpt lat="44.60515693537331" lon="8.245205937667704"><ele>569.0</ele><time>2026-04-27T08:16:06.999Z</time></trkpt><trkpt lat="44.605040082088635" lon="8.24534504338235"><ele>569.0</ele><time>2026-04-27T08:16:07.999Z</time></trkpt><trkpt lat="44.6049032334165" lon="8.245463258130682"><ele>569.0</ele><time>2026-04-27T08:16:08.999Z</time></trkpt><trkpt lat="44.604774395670304" lon="8.245539012253623"><ele>569.0</ele><time>2026-04-27T08:16:09.999Z</time></trkpt><trkpt lat="44.604634328229025" lon="8.245508657630294"><ele>569.0</ele><time>2026-04-27T08:16:10.999Z</time></trkpt><trkpt lat="44.60448744637407" lon="8.24552644351923"><ele>569.0</ele><time>2026-04-27T08:16:11.999Z</time></trkpt><trkpt lat="44.60434751691678" lon="8.245570789134279"><ele>569.0</ele><time>2026-04-27T08:16:12.999Z</time></trkpt><trkpt lat="44.60421079950314" lon="8.245764128398557"><ele>569.0</ele><time>2026-04-27T08:16:13.999Z</time></trkpt><trkpt lat="44.6040457085329" lon="8.245961849984784"><ele>569.0</ele><time>2026-04-27T08:16:14.999Z</time></trkpt><trkpt lat="44.60385473323211" lon="8.246123943629314"><ele>569.0</ele><time>2026-04-27T08:16:15.999Z</time></trkpt><trkpt lat="44.60367436601173" lon="8.246328210219156"><ele>568.0</ele><time>2026-04-27T08:16:16.999Z</time></trkpt><trkpt lat="44.603500589269125" lon="8.246551040418879"><ele>567.0</ele><time>2026-04-27T08:16:17.999Z</time></trkpt><trkpt lat="44.60334082759002" lon="8.246703745536616"><ele>566.0</ele><time>2026-04-27T08:16:18.999Z</time></trkpt><trkpt lat="44.60321862404828" lon="8.246821520399294"><ele>566.0</ele><time>2026-04-27T08:16:19.999Z</time></trkpt><trkpt lat="44.603120460456225" lon="8.246916708424775"><ele>566.0</ele><time>2026-04-27T08:16:20.999Z</time></trkpt><trkpt lat="44.60300713565944" lon="8.246884501428763"><ele>566.0</ele><time>2026-04-27T08:16:21.999Z</time></trkpt><trkpt lat="44.60286887639608" lon="8.246873411072334"><ele>566.0</ele><time>2026-04-27T08:16:22.999Z</time></trkpt><trkpt lat="44.602714138699426" lon="8.246914278318298"><ele>564.0</ele><time>2026-04-27T08:16:23.999Z</time></trkpt><trkpt lat="44.60256724861218" lon="8.247049733844358"><ele>562.0</ele><time>2026-04-27T08:16:24.998Z</time></trkpt><trkpt lat="44.60240487384591" lon="8.247225666755984"><ele>560.0</ele><time>2026-04-27T08:16:25.998Z</time></trkpt><trkpt lat="44.60219465633884" lon="8.24727944753103"><ele>559.0</ele><time>2026-04-27T08:16:26.998Z</time></trkpt><trkpt lat="44.601966431474125" lon="8.247280606052678"><ele>558.0</ele><time>2026-04-27T08:16:27.998Z</time></trkpt><trkpt lat="44.60176042699062" lon="8.247281386997502"><ele>557.0</ele><time>2026-04-27T08:16:28.998Z</time></trkpt><trkpt lat="44.601577018151566" lon="8.24727620031053"><ele>562.6666666666666</ele><time>2026-04-27T08:16:29.998Z</time></trkpt><trkpt lat="44.6014214764816" lon="8.24732238996785"><ele>568.3333333333334</ele><time>2026-04-27T08:16:30.998Z</time></trkpt><trkpt lat="44.601274531789464" lon="8.247440139365338"><ele>574.0</ele><time>2026-04-27T08:16:31.998Z</time></trkpt><trkpt lat="44.601109942243355" lon="8.24756696528736"><ele>575.0</ele><time>2026-04-27T08:16:32.998Z</time></trkpt><trkpt lat="44.60092473382293" lon="8.247653415399878"><ele>576.0</ele><time>2026-04-27T08:16:33.998Z</time></trkpt><trkpt lat="44.60074163491809" lon="8.247699133597928"><ele>577.0</ele><time>2026-04-27T08:16:34.998Z</time></trkpt><trkpt lat="44.60057899657279" lon="8.247741001419994"><ele>577.0</ele><time>2026-04-27T08:16:36Z</time></trkpt><trkpt lat="44.60044346719159" lon="8.247818512182777"><ele>577.0</ele><time>2026-04-27T08:16:37Z</time></trkpt><trkpt lat="44.60034693949787" lon="8.247924340205447"><ele>577.0</ele><time>2026-04-27T08:16:38Z</time></trkpt><trkpt lat="44.60027540923371" lon="8.248085510621376"><ele>577.0</ele><time>2026-04-27T08:16:39Z</time></trkpt><trkpt lat="44.600252907803714" lon="8.24830878012307"><ele>577.3333333333334</ele><time>2026-04-27T08:16:40Z</time></trkpt><trkpt lat="44.60024912484123" lon="8.248571486998216"><ele>577.6666666666666</ele><time>2026-04-27T08:16:41Z</time></trkpt><trkpt lat="44.600191804928556" lon="8.248838866495861"><ele>578.0</ele><time>2026-04-27T08:16:42Z</time></trkpt><trkpt lat="44.60008999026" lon="8.24909070804204"><ele>585.0</ele><time>2026-04-27T08:16:43Z</time></trkpt><trkpt lat="44.59994399327318" lon="8.249325050124247"><ele>592.0</ele><time>2026-04-27T08:16:44Z</time></trkpt><trkpt lat="44.59975529327735" lon="8.249524582594912"><ele>592.0</ele><time>2026-04-27T08:16:45Z</time></trkpt><trkpt lat="44.599542900096466" lon="8.249705586368325"><ele>592.0</ele><time>2026-04-27T08:16:46Z</time></trkpt><trkpt lat="44.59933581266343" lon="8.249878870301329"><ele>596.0</ele><time>2026-04-27T08:16:47Z</time></trkpt><trkpt lat="44.59916958224688" lon="8.250059580262915"><ele>600.0</ele><time>2026-04-27T08:16:48Z</time></trkpt><trkpt lat="44.59900672640485" lon="8.250180039038751"><ele>604.0</ele><time>2026-04-27T08:16:49Z</time></trkpt><trkpt lat="44.59883614595631" lon="8.250185592247913"><ele>605.0</ele><time>2026-04-27T08:16:50Z</time></trkpt><trkpt lat="44.59865636799284" lon="8.250150028184716"><ele>606.0</ele><time>2026-04-27T08:16:51Z</time></trkpt><trkpt lat="44.59845168270219" lon="8.250133061772113"><ele>607.0</ele><time>2026-04-27T08:16:52Z</time></trkpt><trkpt lat="44.598269443643375" lon="8.250128975190771"><ele>607.0</ele><time>2026-04-27T08:16:53Z</time></trkpt><trkpt lat="44.598127163972" lon="8.250155069963817"><ele>607.0</ele><time>2026-04-27T08:16:54Z</time></trkpt><trkpt lat="44.59800937893313" lon="8.25025444370534"><ele>607.0</ele><time>2026-04-27T08:16:55Z</time></trkpt><trkpt lat="44.59792461766256" lon="8.250453123548047"><ele>607.0</ele><time>2026-04-27T08:16:56Z</time></trkpt><trkpt lat="44.597806683451964" lon="8.250669239549502"><ele>609.6666666666667</ele><time>2026-04-27T08:16:57Z</time></trkpt><trkpt lat="44.59769554515112" lon="8.25092198575483"><ele>612.3333333333334</ele><time>2026-04-27T08:16:58Z</time></trkpt><trkpt lat="44.59758111859522" lon="8.251113656464662"><ele>615.0</ele><time>2026-04-27T08:16:59Z</time></trkpt><trkpt lat="44.597450137420026" lon="8.251231316897751"><ele>615.0</ele><time>2026-04-27T08:17:00Z</time></trkpt><trkpt lat="44.597290223241814" lon="8.251250323100354"><ele>615.0</ele><time>2026-04-27T08:17:01Z</time></trkpt><trkpt lat="44.59711173647833" lon="8.251252108531688"><ele>615.0</ele><time>2026-04-27T08:17:02Z</time></trkpt><trkpt lat="44.59691672832122" lon="8.251216374813925"><ele>616.3333333333334</ele><time>2026-04-27T08:17:03Z</time></trkpt><trkpt lat="44.59669357888066" lon="8.251214870748317"><ele>617.6666666666667</ele><time>2026-04-27T08:17:04Z</time></trkpt><trkpt lat="44.596491540889375" lon="8.251240591231468"><ele>619.0</ele><time>2026-04-27T08:17:05Z</time></trkpt><trkpt lat="44.596310913413625" lon="8.251231311000609"><ele>619.0</ele><time>2026-04-27T08:17:06Z</time></trkpt><trkpt lat="44.596171531018896" lon="8.251147382961951"><ele>619.0</ele><time>2026-04-27T08:17:07Z</time></trkpt><trkpt lat="44.59605354424551" lon="8.251049536809594"><ele>619.0</ele><time>2026-04-27T08:17:08Z</time></trkpt><trkpt lat="44.59589690063884" lon="8.250936003192303"><ele>620.3333333333334</ele><time>2026-04-27T08:17:09Z</time></trkpt><trkpt lat="44.59572325814082" lon="8.250860550837094"><ele>621.6666666666666</ele><time>2026-04-27T08:17:10Z</time></trkpt><trkpt lat="44.59555047376768" lon="8.25078588598786"><ele>623.0</ele><time>2026-04-27T08:17:11Z</time></trkpt><trkpt lat="44.59540020463268" lon="8.250712808158351"><ele>623.3333333333333</ele><time>2026-04-27T08:17:12Z</time></trkpt><trkpt lat="44.59525171312763" lon="8.250709494969703"><ele>623.6666666666666</ele><time>2026-04-27T08:17:13Z</time></trkpt><trkpt lat="44.59509803956274" lon="8.250774594634093"><ele>624.0</ele><time>2026-04-27T08:17:14Z</time></trkpt><trkpt lat="44.594934375916466" lon="8.250789642078004"><ele>624.0</ele><time>2026-04-27T08:17:15Z</time></trkpt><trkpt lat="44.59477643310124" lon="8.250784505817219"><ele>624.0</ele><time>2026-04-27T08:17:16Z</time></trkpt><trkpt lat="44.59462116398473" lon="8.250799255715648"><ele>624.0</ele><time>2026-04-27T08:17:17Z</time></trkpt><trkpt lat="44.594505219996556" lon="8.250847046480171"><ele>624.0</ele><time>2026-04-27T08:17:18Z</time></trkpt><trkpt lat="44.59443710335731" lon="8.250967908349478"><ele>621.0</ele><time>2026-04-27T08:17:19Z</time></trkpt><trkpt lat="44.594399830248655" lon="8.251095211286207"><ele>618.0</ele><time>2026-04-27T08:17:20Z</time></trkpt><trkpt lat="44.59444816528376" lon="8.251280400746104"><ele>615.0</ele><time>2026-04-27T08:17:21Z</time></trkpt><trkpt lat="44.59456578656098" lon="8.251458401938974"><ele>612.0</ele><time>2026-04-27T08:17:22Z</time></trkpt><trkpt lat="44.59468374423814" lon="8.25170325306792"><ele>621.0</ele><time>2026-04-27T08:17:23Z</time></trkpt><trkpt lat="44.594763703750225" lon="8.25197278589836"><ele>630.0</ele><time>2026-04-27T08:17:23.999Z</time></trkpt><trkpt lat="44.5948169767039" lon="8.252267967377334"><ele>639.0</ele><time>2026-04-27T08:17:24.999Z</time></trkpt><trkpt lat="44.59482303768112" lon="8.252486322400715"><ele>639.0</ele><time>2026-04-27T08:17:25.999Z</time></trkpt><trkpt lat="44.59480618293715" lon="8.252683411611327"><ele>639.0</ele><time>2026-04-27T08:17:26.999Z</time></trkpt><trkpt lat="44.594752379596876" lon="8.252821770555874"><ele>639.0</ele><time>2026-04-27T08:17:27.999Z</time></trkpt><trkpt lat="44.594669713840965" lon="8.252931915141753"><ele>639.0</ele><time>2026-04-27T08:17:28.999Z</time></trkpt><trkpt lat="44.59465964333627" lon="8.253099746536508"><ele>641.0</ele><time>2026-04-27T08:17:29.999Z</time></trkpt><trkpt lat="44.59465247778954" lon="8.253303926090995"><ele>643.0</ele><time>2026-04-27T08:17:30.999Z</time></trkpt><trkpt lat="44.59464483968897" lon="8.253532374331542"><ele>645.0</ele><time>2026-04-27T08:17:31.999Z</time></trkpt><trkpt lat="44.59481220952876" lon="8.253728398394859"><ele>645.0</ele><time>2026-04-27T08:17:32.999Z</time></trkpt><trkpt lat="44.594846973922635" lon="8.253891696814557"><ele>645.0</ele><time>2026-04-27T08:17:33.999Z</time></trkpt><trkpt lat="44.59481828897434" lon="8.25403728795652"><ele>645.0</ele><time>2026-04-27T08:17:34.999Z</time></trkpt><trkpt lat="44.59475377043563" lon="8.254199431093063"><ele>645.0</ele><time>2026-04-27T08:17:35.999Z</time></trkpt><trkpt lat="44.59467012822936" lon="8.254348617204242"><ele>645.3333333333334</ele><time>2026-04-27T08:17:36.999Z</time></trkpt><trkpt lat="44.594628366720706" lon="8.254538116919035"><ele>645.6666666666667</ele><time>2026-04-27T08:17:37.999Z</time></trkpt><trkpt lat="44.59450880539053" lon="8.254775265497809"><ele>646.0</ele><time>2026-04-27T08:17:38.999Z</time></trkpt><trkpt lat="44.59441391590008" lon="8.255043269335106"><ele>644.3333333333334</ele><time>2026-04-27T08:17:39.999Z</time></trkpt><trkpt lat="44.594349766759315" lon="8.25531458321334"><ele>642.6666666666666</ele><time>2026-04-27T08:17:40.999Z</time></trkpt><trkpt lat="44.59431399266969" lon="8.25560326190204"><ele>641.0</ele><time>2026-04-27T08:17:41.999Z</time></trkpt><trkpt lat="44.5942951770062" lon="8.255860192568296"><ele>641.0</ele><time>2026-04-27T08:17:42.999Z</time></trkpt><trkpt lat="44.59426859288123" lon="8.256085477935189"><ele>641.0</ele><time>2026-04-27T08:17:43.999Z</time></trkpt><trkpt lat="44.59418354217207" lon="8.256248375069092"><ele>641.0</ele><time>2026-04-27T08:17:44.999Z</time></trkpt><trkpt lat="44.594088291033046" lon="8.256403272639643"><ele>641.3333333333333</ele><time>2026-04-27T08:17:45.999Z</time></trkpt><trkpt lat="44.59396209519069" lon="8.256552069771425"><ele>641.6666666666666</ele><time>2026-04-27T08:17:46.999Z</time></trkpt><trkpt lat="44.59379869788729" lon="8.256713798997914"><ele>642.0</ele><time>2026-04-27T08:17:47.999Z</time></trkpt><trkpt lat="44.59361300577054" lon="8.256868107539457"><ele>642.0</ele><time>2026-04-27T08:17:48.999Z</time></trkpt><trkpt lat="44.59341390391791" lon="8.257035701672722"><ele>642.0</ele><time>2026-04-27T08:17:49.999Z</time></trkpt><trkpt lat="44.59320705848543" lon="8.257209765343982"><ele>648.0</ele><time>2026-04-27T08:17:50.999Z</time></trkpt><trkpt lat="44.592991132227205" lon="8.257391470733847"><ele>654.0</ele><time>2026-04-27T08:17:51.999Z</time></trkpt><trkpt lat="44.592778446067506" lon="8.257585051136882"><ele>654.0</ele><time>2026-04-27T08:17:52.999Z</time></trkpt><trkpt lat="44.59257590537162" lon="8.257802866163827"><ele>654.0</ele><time>2026-04-27T08:17:53.999Z</time></trkpt><trkpt lat="44.592373656873626" lon="8.257990078536363"><ele>658.0</ele><time>2026-04-27T08:17:54.999Z</time></trkpt><trkpt lat="44.59218878760128" lon="8.258126082726964"><ele>662.0</ele><time>2026-04-27T08:17:55.999Z</time></trkpt><trkpt lat="44.592028777610416" lon="8.258249202498277"><ele>666.0</ele><time>2026-04-27T08:17:56.999Z</time></trkpt><trkpt lat="44.59187969606663" lon="8.258321542693404"><ele>666.0</ele><time>2026-04-27T08:17:57.999Z</time></trkpt><trkpt lat="44.59172758068238" lon="8.258374270492393"><ele>666.0</ele><time>2026-04-27T08:17:58.999Z</time></trkpt><trkpt lat="44.59157559938651" lon="8.258412978237184"><ele>666.0</ele><time>2026-04-27T08:17:59.999Z</time></trkpt><trkpt lat="44.59147867299603" lon="8.258471027812798"><ele>666.0</ele><time>2026-04-27T08:18:00.999Z</time></trkpt><trkpt lat="44.591413877589524" lon="8.258515065002669"><ele>666.0</ele><time>2026-04-27T08:18:01.999Z</time></trkpt><trkpt lat="44.591355564750614" lon="8.258587119223428"><ele>666.0</ele><time>2026-04-27T08:18:02.999Z</time></trkpt><trkpt lat="44.59129640654601" lon="8.258681067418337"><ele>666.0</ele><time>2026-04-27T08:18:03.999Z</time></trkpt><trkpt lat="44.59122176453853" lon="8.258816477165935"><ele>666.0</ele><time>2026-04-27T08:18:04.999Z</time></trkpt><trkpt lat="44.59110682906505" lon="8.258952044955375"><ele>666.0</ele><time>2026-04-27T08:18:05.999Z</time></trkpt><trkpt lat="44.59097912731542" lon="8.259103921221412"><ele>668.3333333333334</ele><time>2026-04-27T08:18:06.999Z</time></trkpt><trkpt lat="44.59085414423951" lon="8.259272100821077"><ele>670.6666666666667</ele><time>2026-04-27T08:18:07.999Z</time></trkpt><trkpt lat="44.59071978551262" lon="8.2594457402882"><ele>673.0</ele><time>2026-04-27T08:18:08.999Z</time></trkpt><trkpt lat="44.59060187881438" lon="8.259578871988484"><ele>673.0</ele><time>2026-04-27T08:18:09.999Z</time></trkpt><trkpt lat="44.59052270166695" lon="8.259684677260095"><ele>673.0</ele><time>2026-04-27T08:18:10.999Z</time></trkpt><trkpt lat="44.5904933369578" lon="8.25978659754418"><ele>673.0</ele><time>2026-04-27T08:18:11.999Z</time></trkpt><trkpt lat="44.590519648416205" lon="8.259882376138464"><ele>673.0</ele><time>2026-04-27T08:18:12.999Z</time></trkpt><trkpt lat="44.590588578797664" lon="8.25993761592906"><ele>673.0</ele><time>2026-04-27T08:18:13.999Z</time></trkpt><trkpt lat="44.59064553932916" lon="8.25998376907601"><ele>673.0</ele><time>2026-04-27T08:18:14.999Z</time></trkpt><trkpt lat="44.59075781885825" lon="8.259889929603068"><ele>673.0</ele><time>2026-04-27T08:18:15.999Z</time></trkpt><trkpt lat="44.59087737997663" lon="8.259766668754049"><ele>673.0</ele><time>2026-04-27T08:18:16.999Z</time></trkpt><trkpt lat="44.59103186540552" lon="8.25968129299035"><ele>673.0</ele><time>2026-04-27T08:18:17.999Z</time></trkpt><trkpt lat="44.5911972434027" lon="8.25958043291349"><ele>676.0</ele><time>2026-04-27T08:18:18.999Z</time></trkpt><trkpt lat="44.59137823083837" lon="8.259477568221854"><ele>679.0</ele><time>2026-04-27T08:18:19.999Z</time></trkpt><trkpt lat="44.59155794065304" lon="8.259381043517358"><ele>682.0</ele><time>2026-04-27T08:18:20.999Z</time></trkpt><trkpt lat="44.591726372324196" lon="8.259280218861027"><ele>682.0</ele><time>2026-04-27T08:18:21.999Z</time></trkpt><trkpt lat="44.59184862439551" lon="8.259169098084763"><ele>682.0</ele><time>2026-04-27T08:18:22.999Z</time></trkpt><trkpt lat="44.59194271526631" lon="8.259082344764678"><ele>682.0</ele><time>2026-04-27T08:18:23.999Z</time></trkpt><trkpt lat="44.5920042757775" lon="8.259055975940795"><ele>682.0</ele><time>2026-04-27T08:18:24.999Z</time></trkpt><trkpt lat="44.5920645307075" lon="8.25916273395272"><ele>682.0</ele><time>2026-04-27T08:18:26.999Z</time></trkpt><trkpt lat="44.59203796171561" lon="8.259271285846092"><ele>682.0</ele><time>2026-04-27T08:18:27.999Z</time></trkpt><trkpt lat="44.591961085811946" lon="8.259393958905425"><ele>682.0</ele><time>2026-04-27T08:18:28.999Z</time></trkpt><trkpt lat="44.591842724270315" lon="8.259478264361375"><ele>682.0</ele><time>2026-04-27T08:18:29.999Z</time></trkpt><trkpt lat="44.59168065603157" lon="8.259552969533926"><ele>682.0</ele><time>2026-04-27T08:18:30.999Z</time></trkpt><trkpt lat="44.59152703662588" lon="8.25966058774039"><ele>684.6666666666667</ele><time>2026-04-27T08:18:31.998Z</time></trkpt><trkpt lat="44.59137056544256" lon="8.259822501041745"><ele>687.3333333333334</ele><time>2026-04-27T08:18:32.998Z</time></trkpt><trkpt lat="44.59121136064277" lon="8.260000515108175"><ele>690.0</ele><time>2026-04-27T08:18:33.998Z</time></trkpt><trkpt lat="44.59105756800817" lon="8.260166793375747"><ele>690.0</ele><time>2026-04-27T08:18:34.998Z</time></trkpt><trkpt lat="44.590903610310924" lon="8.260336466734337"><ele>690.0</ele><time>2026-04-27T08:18:35.998Z</time></trkpt><trkpt lat="44.59076649488525" lon="8.260513885773445"><ele>690.0</ele><time>2026-04-27T08:18:36.998Z</time></trkpt><trkpt lat="44.59065972923175" lon="8.260721755922594"><ele>692.3333333333334</ele><time>2026-04-27T08:18:37.998Z</time></trkpt><trkpt lat="44.59054747792083" lon="8.26092579750015"><ele>694.6666666666667</ele><time>2026-04-27T08:18:38.998Z</time></trkpt><trkpt lat="44.59040950275149" lon="8.261099725541385"><ele>697.0</ele><time>2026-04-27T08:18:39.998Z</time></trkpt><trkpt lat="44.590265110890094" lon="8.261275092669129"><ele>703.0</ele><time>2026-04-27T08:18:40.998Z</time></trkpt><trkpt lat="44.59012172762353" lon="8.261458506881693"><ele>709.0</ele><time>2026-04-27T08:18:42Z</time></trkpt><trkpt lat="44.58997266739373" lon="8.261647579607478"><ele>715.0</ele><time>2026-04-27T08:18:43Z</time></trkpt><trkpt lat="44.58981636497235" lon="8.261842337661967"><ele>715.0</ele><time>2026-04-27T08:18:44Z</time></trkpt><trkpt lat="44.58966324835333" lon="8.262028051162185"><ele>715.0</ele><time>2026-04-27T08:18:45Z</time></trkpt><trkpt lat="44.58953114123461" lon="8.262169573785377"><ele>715.0</ele><time>2026-04-27T08:18:46Z</time></trkpt><trkpt lat="44.589391441893476" lon="8.262219541663246"><ele>716.0</ele><time>2026-04-27T08:18:47Z</time></trkpt><trkpt lat="44.58929565447067" lon="8.26228873305049"><ele>717.0</ele><time>2026-04-27T08:18:48Z</time></trkpt><trkpt lat="44.58922562561407" lon="8.262301837197306"><ele>718.0</ele><time>2026-04-27T08:18:49Z</time></trkpt><trkpt lat="44.58918916501117" lon="8.262386460873286"><ele>719.0</ele><time>2026-04-27T08:18:50Z</time></trkpt><trkpt lat="44.58919999405301" lon="8.262525755039746"><ele>720.0</ele><time>2026-04-27T08:18:51Z</time></trkpt><trkpt lat="44.58927364799371" lon="8.262668317004701"><ele>720.0</ele><time>2026-04-27T08:18:52Z</time></trkpt><trkpt lat="44.589347252098435" lon="8.262836309083246"><ele>720.0</ele><time>2026-04-27T08:18:53Z</time></trkpt><trkpt lat="44.589316487346345" lon="8.26305027899119"><ele>720.0</ele><time>2026-04-27T08:18:54Z</time></trkpt><trkpt lat="44.58930009693412" lon="8.263279267007576"><ele>723.0</ele><time>2026-04-27T08:18:55Z</time></trkpt><trkpt lat="44.58928531115641" lon="8.26352288503042"><ele>726.0</ele><time>2026-04-27T08:18:56Z</time></trkpt><trkpt lat="44.589289634569184" lon="8.263746462398466"><ele>729.0</ele><time>2026-04-27T08:18:57Z</time></trkpt><trkpt lat="44.589299780431176" lon="8.263934600270503"><ele>729.75</ele><time>2026-04-27T08:18:58Z</time></trkpt><trkpt lat="44.58929954904221" lon="8.264122817445617"><ele>730.5</ele><time>2026-04-27T08:18:59Z</time></trkpt><trkpt lat="44.58929310957788" lon="8.264316682088044"><ele>731.25</ele><time>2026-04-27T08:19:00Z</time></trkpt><trkpt lat="44.58928865790711" lon="8.264516190986738"><ele>732.0</ele><time>2026-04-27T08:19:01Z</time></trkpt><trkpt lat="44.58928585615679" lon="8.26471643915712"><ele>734.0</ele><time>2026-04-27T08:19:02Z</time></trkpt><trkpt lat="44.589283437855606" lon="8.264928490740541"><ele>736.0</ele><time>2026-04-27T08:19:03Z</time></trkpt><trkpt lat="44.58927973732164" lon="8.265152415920326"><ele>738.0</ele><time>2026-04-27T08:19:04Z</time></trkpt><trkpt lat="44.58929829657083" lon="8.265373301656194"><ele>738.0</ele><time>2026-04-27T08:19:05Z</time></trkpt><trkpt lat="44.58933879855548" lon="8.2655776218564"><ele>738.0</ele><time>2026-04-27T08:19:06Z</time></trkpt><trkpt lat="44.58938712354266" lon="8.26574394967856"><ele>738.0</ele><time>2026-04-27T08:19:07Z</time></trkpt><trkpt lat="44.58943011106805" lon="8.26589055883999"><ele>738.0</ele><time>2026-04-27T08:19:08Z</time></trkpt><trkpt lat="44.58945397662967" lon="8.266030695615195"><ele>737.6666666666666</ele><time>2026-04-27T08:19:09Z</time></trkpt><trkpt lat="44.58947738252516" lon="8.266167643858658"><ele>737.3333333333334</ele><time>2026-04-27T08:19:10Z</time></trkpt><trkpt lat="44.58948162488518" lon="8.266295834402555"><ele>737.0</ele><time>2026-04-27T08:19:11Z</time></trkpt><trkpt lat="44.58948542776637" lon="8.266402051420588"><ele>736.6666666666667</ele><time>2026-04-27T08:19:12Z</time></trkpt><trkpt lat="44.58945408728678" lon="8.266499718689364"><ele>736.3333333333334</ele><time>2026-04-27T08:19:14Z</time></trkpt><trkpt lat="44.589374597914805" lon="8.266534094998242"><ele>736.0</ele><time>2026-04-27T08:19:16Z</time></trkpt><trkpt lat="44.5893125499219" lon="8.266514622751272"><ele>736.0</ele><time>2026-04-27T08:19:17Z</time></trkpt><trkpt lat="44.58923022713453" lon="8.266448736599907"><ele>736.0</ele><time>2026-04-27T08:19:18Z</time></trkpt><trkpt lat="44.58915032955645" lon="8.266365158920022"><ele>736.0</ele><time>2026-04-27T08:19:19Z</time></trkpt><trkpt lat="44.58907006466863" lon="8.266279562282635"><ele>736.0</ele><time>2026-04-27T08:19:20Z</time></trkpt><trkpt lat="44.58899002817725" lon="8.266193354411056"><ele>736.0</ele><time>2026-04-27T08:19:21Z</time></trkpt><trkpt lat="44.58890617882817" lon="8.26609563566954"><ele>737.25</ele><time>2026-04-27T08:19:22Z</time></trkpt><trkpt lat="44.588820631875315" lon="8.265984343460108"><ele>738.5</ele><time>2026-04-27T08:19:23Z</time></trkpt><trkpt lat="44.58872716561046" lon="8.265872024886944"><ele>739.75</ele><time>2026-04-27T08:19:24Z</time></trkpt><trkpt lat="44.58862393637196" lon="8.265786300774922"><ele>741.0</ele><time>2026-04-27T08:19:25Z</time></trkpt><trkpt lat="44.58850545490545" lon="8.265728683850238"><ele>741.0</ele><time>2026-04-27T08:19:26Z</time></trkpt><trkpt lat="44.58837507876761" lon="8.265711985754804"><ele>741.0</ele><time>2026-04-27T08:19:27Z</time></trkpt><trkpt lat="44.58824035870983" lon="8.265712403555092"><ele>741.0</ele><time>2026-04-27T08:19:28Z</time></trkpt><trkpt lat="44.588108093936" lon="8.265728307522139"><ele>741.0</ele><time>2026-04-27T08:19:29Z</time></trkpt><trkpt lat="44.58797634894378" lon="8.265746924132474"><ele>741.25</ele><time>2026-04-27T08:19:30Z</time></trkpt><trkpt lat="44.58784274291111" lon="8.265768279689876"><ele>741.5</ele><time>2026-04-27T08:19:30.999Z</time></trkpt><trkpt lat="44.58771306838036" lon="8.265789776201586"><ele>741.75</ele><time>2026-04-27T08:19:31.999Z</time></trkpt><trkpt lat="44.587583446479876" lon="8.265801508551151"><ele>742.0</ele><time>2026-04-27T08:19:32.999Z</time></trkpt><trkpt lat="44.587455986805985" lon="8.265772915602932"><ele>742.0</ele><time>2026-04-27T08:19:33.999Z</time></trkpt><trkpt lat="44.58734562313147" lon="8.265691278018382"><ele>742.0</ele><time>2026-04-27T08:19:34.999Z</time></trkpt><trkpt lat="44.587254311780534" lon="8.265541143332555"><ele>742.0</ele><time>2026-04-27T08:19:35.999Z</time></trkpt><trkpt lat="44.587164434007114" lon="8.265383561253953"><ele>742.0</ele><time>2026-04-27T08:19:36.999Z</time></trkpt><trkpt lat="44.58706668176628" lon="8.265257526130414"><ele>745.0</ele><time>2026-04-27T08:19:37.999Z</time></trkpt><trkpt lat="44.586938899180936" lon="8.265195335909878"><ele>748.0</ele><time>2026-04-27T08:19:38.999Z</time></trkpt><trkpt lat="44.58678189835671" lon="8.265175362310764"><ele>751.0</ele><time>2026-04-27T08:19:39.999Z</time></trkpt><trkpt lat="44.586626033277625" lon="8.265153008942042"><ele>751.0</ele><time>2026-04-27T08:19:40.999Z</time></trkpt><trkpt lat="44.58646541354653" lon="8.265113924165275"><ele>751.0</ele><time>2026-04-27T08:19:41.999Z</time></trkpt><trkpt lat="44.586307698985316" lon="8.26507298554523"><ele>751.0</ele><time>2026-04-27T08:19:42.999Z</time></trkpt><trkpt lat="44.586142918858656" lon="8.2650557054803"><ele>750.6666666666667</ele><time>2026-04-27T08:19:43.999Z</time></trkpt><trkpt lat="44.58597357750999" lon="8.265052838290964"><ele>750.3333333333334</ele><time>2026-04-27T08:19:44.999Z</time></trkpt><trkpt lat="44.58579869739514" lon="8.265042440389614"><ele>750.0</ele><time>2026-04-27T08:19:45.999Z</time></trkpt><trkpt lat="44.58562911178035" lon="8.265003800135032"><ele>750.0</ele><time>2026-04-27T08:19:46.999Z</time></trkpt><trkpt lat="44.58547166653121" lon="8.264955173635567"><ele>750.0</ele><time>2026-04-27T08:19:47.999Z</time></trkpt><trkpt lat="44.585339451515615" lon="8.26488175949506"><ele>750.0</ele><time>2026-04-27T08:19:48.999Z</time></trkpt><trkpt lat="44.58520454939768" lon="8.26480917494475"><ele>750.0</ele><time>2026-04-27T08:19:49.999Z</time></trkpt><trkpt lat="44.585066367922664" lon="8.264789785559218"><ele>751.0</ele><time>2026-04-27T08:19:50.999Z</time></trkpt><trkpt lat="44.584905333209775" lon="8.264827601116428"><ele>752.0</ele><time>2026-04-27T08:19:51.999Z</time></trkpt><trkpt lat="44.584746109455" lon="8.264878525349697"><ele>753.0</ele><time>2026-04-27T08:19:52.999Z</time></trkpt><trkpt lat="44.58459660833222" lon="8.264893527284144"><ele>751.0</ele><time>2026-04-27T08:19:53.999Z</time></trkpt><trkpt lat="44.584471809393435" lon="8.264930659135482"><ele>749.0</ele><time>2026-04-27T08:19:54.999Z</time></trkpt><trkpt lat="44.58436131260246" lon="8.265024651058132"><ele>747.0</ele><time>2026-04-27T08:19:55.999Z</time></trkpt><trkpt lat="44.584270975946765" lon="8.26518339173722"><ele>745.0</ele><time>2026-04-27T08:19:56.999Z</time></trkpt><trkpt lat="44.58420253846022" lon="8.265379784880112"><ele>745.0</ele><time>2026-04-27T08:19:57.999Z</time></trkpt><trkpt lat="44.5840986243439" lon="8.26555293884145"><ele>745.0</ele><time>2026-04-27T08:19:58.999Z</time></trkpt><trkpt lat="44.583978919581966" lon="8.265710950003562"><ele>745.0</ele><time>2026-04-27T08:19:59.999Z</time></trkpt><trkpt lat="44.58382899791866" lon="8.265809697145706"><ele>745.3333333333334</ele><time>2026-04-27T08:20:00.999Z</time></trkpt><trkpt lat="44.583660251543805" lon="8.265856870941017"><ele>745.6666666666666</ele><time>2026-04-27T08:20:01.999Z</time></trkpt><trkpt lat="44.58348216161731" lon="8.265863816000511"><ele>746.0</ele><time>2026-04-27T08:20:02.999Z</time></trkpt><trkpt lat="44.5833085353634" lon="8.265860795236932"><ele>746.0</ele><time>2026-04-27T08:20:03.999Z</time></trkpt><trkpt lat="44.5831303580613" lon="8.265825889842144"><ele>746.0</ele><time>2026-04-27T08:20:04.999Z</time></trkpt><trkpt lat="44.5829512107592" lon="8.265758641017996"><ele>746.0</ele><time>2026-04-27T08:20:05.999Z</time></trkpt><trkpt lat="44.58276796587885" lon="8.265661444826335"><ele>742.0</ele><time>2026-04-27T08:20:06.999Z</time></trkpt><trkpt lat="44.58258766675407" lon="8.265551808098774"><ele>738.0</ele><time>2026-04-27T08:20:07.999Z</time></trkpt><trkpt lat="44.582417364610066" lon="8.265464184626962"><ele>734.0</ele><time>2026-04-27T08:20:08.999Z</time></trkpt><trkpt lat="44.58225454061535" lon="8.26535764772456"><ele>734.0</ele><time>2026-04-27T08:20:09.999Z</time></trkpt><trkpt lat="44.58210272159589" lon="8.26526241222255"><ele>734.0</ele><time>2026-04-27T08:20:10.999Z</time></trkpt><trkpt lat="44.581935352214494" lon="8.265204029075381"><ele>734.0</ele><time>2026-04-27T08:20:11.999Z</time></trkpt><trkpt lat="44.58174954330571" lon="8.265181712682253"><ele>733.6666666666666</ele><time>2026-04-27T08:20:12.999Z</time></trkpt><trkpt lat="44.58155597126966" lon="8.265197748886035"><ele>733.3333333333334</ele><time>2026-04-27T08:20:13.999Z</time></trkpt><trkpt lat="44.581368476398545" lon="8.265249535153362"><ele>733.0</ele><time>2026-04-27T08:20:14.999Z</time></trkpt><trkpt lat="44.581180099486375" lon="8.265264308947303"><ele>730.6666666666667</ele><time>2026-04-27T08:20:15.999Z</time></trkpt><trkpt lat="44.58100003260738" lon="8.265247532288553"><ele>728.3333333333334</ele><time>2026-04-27T08:20:16.999Z</time></trkpt><trkpt lat="44.58082648877218" lon="8.265207468069553"><ele>726.0</ele><time>2026-04-27T08:20:17.999Z</time></trkpt><trkpt lat="44.58066795891999" lon="8.265200086699393"><ele>726.0</ele><time>2026-04-27T08:20:18.999Z</time></trkpt><trkpt lat="44.58051058580703" lon="8.265240329724659"><ele>726.0</ele><time>2026-04-27T08:20:19.999Z</time></trkpt><trkpt lat="44.580370513279384" lon="8.265308510838114"><ele>726.0</ele><time>2026-04-27T08:20:20.999Z</time></trkpt><trkpt lat="44.58024389558225" lon="8.26542082113149"><ele>727.6666666666666</ele><time>2026-04-27T08:20:21.999Z</time></trkpt><trkpt lat="44.580133478141974" lon="8.265588786924933"><ele>729.3333333333333</ele><time>2026-04-27T08:20:22.999Z</time></trkpt><trkpt lat="44.58000848557346" lon="8.265751324122549"><ele>731.0</ele><time>2026-04-27T08:20:23.999Z</time></trkpt><trkpt lat="44.57987264407181" lon="8.265931621589704"><ele>731.0</ele><time>2026-04-27T08:20:24.999Z</time></trkpt><trkpt lat="44.57974546524191" lon="8.266119544747644"><ele>731.0</ele><time>2026-04-27T08:20:25.999Z</time></trkpt><trkpt lat="44.57963170031705" lon="8.266292765866654"><ele>731.0</ele><time>2026-04-27T08:20:26.999Z</time></trkpt><trkpt lat="44.579506063308465" lon="8.266437963456312"><ele>730.0</ele><time>2026-04-27T08:20:27.999Z</time></trkpt><trkpt lat="44.579344741320874" lon="8.266517615558776"><ele>729.0</ele><time>2026-04-27T08:20:28.999Z</time></trkpt><trkpt lat="44.579172241042755" lon="8.266478567045672"><ele>728.0</ele><time>2026-04-27T08:20:29.999Z</time></trkpt><trkpt lat="44.57900632169382" lon="8.2664908120777"><ele>728.0</ele><time>2026-04-27T08:20:30.999Z</time></trkpt><trkpt lat="44.57882803549619" lon="8.266484298756978"><ele>728.0</ele><time>2026-04-27T08:20:31.999Z</time></trkpt><trkpt lat="44.5786434682455" lon="8.266486714889755"><ele>728.0</ele><time>2026-04-27T08:20:32.999Z</time></trkpt><trkpt lat="44.57849930044113" lon="8.266465798057533"><ele>726.75</ele><time>2026-04-27T08:20:33.999Z</time></trkpt><trkpt lat="44.57838037349315" lon="8.26646638507075"><ele>725.5</ele><time>2026-04-27T08:20:34.999Z</time></trkpt><trkpt lat="44.57826961686463" lon="8.266456966738014"><ele>724.25</ele><time>2026-04-27T08:20:35.999Z</time></trkpt><trkpt lat="44.57817895393367" lon="8.26644419198205"><ele>723.0</ele><time>2026-04-27T08:20:36.999Z</time></trkpt><trkpt lat="44.577893918944596" lon="8.266549784008129"><ele>718.25</ele><time>2026-04-27T08:20:37.998Z</time></trkpt><trkpt lat="44.57782076788312" lon="8.266689862295939"><ele>713.5</ele><time>2026-04-27T08:20:38.998Z</time></trkpt><trkpt lat="44.57773997634763" lon="8.266869410821592"><ele>708.75</ele><time>2026-04-27T08:20:39.998Z</time></trkpt><trkpt lat="44.57764837501067" lon="8.26706340209215"><ele>704.0</ele><time>2026-04-27T08:20:40.998Z</time></trkpt><trkpt lat="44.57755440239118" lon="8.267276873796693"><ele>708.0</ele><time>2026-04-27T08:20:41.998Z</time></trkpt><trkpt lat="44.57745568209457" lon="8.267512957391054"><ele>712.0</ele><time>2026-04-27T08:20:42.998Z</time></trkpt><trkpt lat="44.57735417420461" lon="8.26773678250457"><ele>716.0</ele><time>2026-04-27T08:20:43.998Z</time></trkpt><trkpt lat="44.57722430918848" lon="8.267862638131618"><ele>716.0</ele><time>2026-04-27T08:20:44.998Z</time></trkpt><trkpt lat="44.577082871192324" lon="8.267929594920883"><ele>716.0</ele><time>2026-04-27T08:20:45.998Z</time></trkpt><trkpt lat="44.5769249705387" lon="8.267969357600828"><ele>716.0</ele><time>2026-04-27T08:20:46.998Z</time></trkpt><trkpt lat="44.57673639540431" lon="8.26799788573461"><ele>715.25</ele><time>2026-04-27T08:20:48Z</time></trkpt><trkpt lat="44.576569587011186" lon="8.268023253772487"><ele>714.5</ele><time>2026-04-27T08:20:49Z</time></trkpt><trkpt lat="44.576433792570484" lon="8.268081135803206"><ele>713.75</ele><time>2026-04-27T08:20:50Z</time></trkpt><trkpt lat="44.576304721469434" lon="8.268151894441084"><ele>713.0</ele><time>2026-04-27T08:20:51Z</time></trkpt><trkpt lat="44.57618507763713" lon="8.268295142320088"><ele>710.3333333333333</ele><time>2026-04-27T08:20:52Z</time></trkpt><trkpt lat="44.576055322653794" lon="8.268461616875745"><ele>707.6666666666666</ele><time>2026-04-27T08:20:53Z</time></trkpt><trkpt lat="44.575915830180904" lon="8.268599690453938"><ele>705.0</ele><time>2026-04-27T08:20:54Z</time></trkpt><trkpt lat="44.575780509627045" lon="8.268718527571242"><ele>705.0</ele><time>2026-04-27T08:20:55Z</time></trkpt><trkpt lat="44.575624491933006" lon="8.268786469001816"><ele>705.0</ele><time>2026-04-27T08:20:56Z</time></trkpt><trkpt lat="44.57546071566619" lon="8.26881657640131"><ele>705.0</ele><time>2026-04-27T08:20:57Z</time></trkpt><trkpt lat="44.57528150508315" lon="8.268853477566703"><ele>704.3333333333334</ele><time>2026-04-27T08:20:58Z</time></trkpt><trkpt lat="44.57510282811114" lon="8.26891341616171"><ele>703.6666666666667</ele><time>2026-04-27T08:20:59Z</time></trkpt><trkpt lat="44.57492230677563" lon="8.268991860121066"><ele>703.0</ele><time>2026-04-27T08:21:00Z</time></trkpt><trkpt lat="44.57476241098107" lon="8.269096290687315"><ele>703.0</ele><time>2026-04-27T08:21:01Z</time></trkpt><trkpt lat="44.57462018353059" lon="8.269228800799674"><ele>703.0</ele><time>2026-04-27T08:21:02Z</time></trkpt><trkpt lat="44.57450466064632" lon="8.269371827475027"><ele>703.0</ele><time>2026-04-27T08:21:03Z</time></trkpt><trkpt lat="44.57438810469201" lon="8.269511249335537"><ele>704.6666666666667</ele><time>2026-04-27T08:21:04Z</time></trkpt><trkpt lat="44.57424205306933" lon="8.2695841104781"><ele>706.3333333333334</ele><time>2026-04-27T08:21:05Z</time></trkpt><trkpt lat="44.57408666782523" lon="8.269672635231322"><ele>708.0</ele><time>2026-04-27T08:21:06Z</time></trkpt><trkpt lat="44.57392638073165" lon="8.269741716390545"><ele>707.0</ele><time>2026-04-27T08:21:07Z</time></trkpt><trkpt lat="44.57379395041441" lon="8.269864236337977"><ele>706.0</ele><time>2026-04-27T08:21:08Z</time></trkpt><trkpt lat="44.57365905085612" lon="8.26998699141301"><ele>705.0</ele><time>2026-04-27T08:21:09Z</time></trkpt><trkpt lat="44.573545279370926" lon="8.270133270122718"><ele>705.0</ele><time>2026-04-27T08:21:10Z</time></trkpt><trkpt lat="44.57343572356397" lon="8.270276437946139"><ele>705.0</ele><time>2026-04-27T08:21:11Z</time></trkpt><trkpt lat="44.57331756242332" lon="8.270395985968097"><ele>705.0</ele><time>2026-04-27T08:21:12Z</time></trkpt><trkpt lat="44.57316874295951" lon="8.27046804863304"><ele>705.0</ele><time>2026-04-27T08:21:13Z</time></trkpt><trkpt lat="44.57302346707007" lon="8.270553675874092"><ele>705.0</ele><time>2026-04-27T08:21:14Z</time></trkpt><trkpt lat="44.57287217664997" lon="8.27060488025767"><ele>705.0</ele><time>2026-04-27T08:21:15Z</time></trkpt><trkpt lat="44.57271744166152" lon="8.270665517848972"><ele>706.3333333333334</ele><time>2026-04-27T08:21:16Z</time></trkpt><trkpt lat="44.57255812788911" lon="8.270721125453537"><ele>707.6666666666667</ele><time>2026-04-27T08:21:17Z</time></trkpt><trkpt lat="44.57240824992888" lon="8.270785951223548"><ele>709.0</ele><time>2026-04-27T08:21:18Z</time></trkpt><trkpt lat="44.572258796729585" lon="8.270801766153392"><ele>709.0</ele><time>2026-04-27T08:21:19Z</time></trkpt><trkpt lat="44.57209749045132" lon="8.270816294153931"><ele>709.0</ele><time>2026-04-27T08:21:20Z</time></trkpt><trkpt lat="44.57192916439399" lon="8.270863482981266"><ele>709.0</ele><time>2026-04-27T08:21:21Z</time></trkpt><trkpt lat="44.571765280029894" lon="8.27091442996718"><ele>709.0</ele><time>2026-04-27T08:21:22Z</time></trkpt><trkpt lat="44.57161265386084" lon="8.271027036462058"><ele>709.0</ele><time>2026-04-27T08:21:23Z</time></trkpt><trkpt lat="44.571460352713075" lon="8.271146688063148"><ele>709.0</ele><time>2026-04-27T08:21:24Z</time></trkpt><trkpt lat="44.57130382021654" lon="8.27125167077758"><ele>705.3333333333334</ele><time>2026-04-27T08:21:25Z</time></trkpt><trkpt lat="44.5711574923171" lon="8.271382567045201"><ele>701.6666666666666</ele><time>2026-04-27T08:21:26Z</time></trkpt><trkpt lat="44.571014436990396" lon="8.27153703526593"><ele>698.0</ele><time>2026-04-27T08:21:27Z</time></trkpt><trkpt lat="44.570855613018736" lon="8.271650219464465"><ele>703.6666666666666</ele><time>2026-04-27T08:21:28Z</time></trkpt><trkpt lat="44.57068744360879" lon="8.271763325694556"><ele>709.3333333333334</ele><time>2026-04-27T08:21:29Z</time></trkpt><trkpt lat="44.57051466164801" lon="8.271845472486127"><ele>715.0</ele><time>2026-04-27T08:21:30Z</time></trkpt><trkpt lat="44.570340779639075" lon="8.271898946459023"><ele>715.0</ele><time>2026-04-27T08:21:31Z</time></trkpt><trkpt lat="44.57016953162047" lon="8.2719015842386"><ele>715.0</ele><time>2026-04-27T08:21:32Z</time></trkpt><trkpt lat="44.56999889045145" lon="8.271851565364397"><ele>715.0</ele><time>2026-04-27T08:21:33Z</time></trkpt><trkpt lat="44.56983716494562" lon="8.271804950587143"><ele>715.0</ele><time>2026-04-27T08:21:34Z</time></trkpt><trkpt lat="44.56969525387573" lon="8.271781800252796"><ele>715.0</ele><time>2026-04-27T08:21:35Z</time></trkpt><trkpt lat="44.56956522711351" lon="8.2718709181936"><ele>715.0</ele><time>2026-04-27T08:21:36Z</time></trkpt><trkpt lat="44.56941945154137" lon="8.271976312318404"><ele>713.0</ele><time>2026-04-27T08:21:36.999Z</time></trkpt><trkpt lat="44.569280366035414" lon="8.272121297628733"><ele>711.0</ele><time>2026-04-27T08:21:37.999Z</time></trkpt><trkpt lat="44.56912662527283" lon="8.272241861378886"><ele>709.0</ele><time>2026-04-27T08:21:38.999Z</time></trkpt><trkpt lat="44.568967291238586" lon="8.27236612239496"><ele>711.3333333333334</ele><time>2026-04-27T08:21:39.999Z</time></trkpt><trkpt lat="44.568806537758945" lon="8.272508079260804"><ele>713.6666666666666</ele><time>2026-04-27T08:21:40.999Z</time></trkpt><trkpt lat="44.56865301462157" lon="8.272640112509587"><ele>716.0</ele><time>2026-04-27T08:21:41.999Z</time></trkpt><trkpt lat="44.56848732718567" lon="8.272756120001217"><ele>716.0</ele><time>2026-04-27T08:21:42.999Z</time></trkpt><trkpt lat="44.56830745675026" lon="8.272834336915462"><ele>716.0</ele><time>2026-04-27T08:21:43.999Z</time></trkpt><trkpt lat="44.56811638706452" lon="8.272860454497849"><ele>716.0</ele><time>2026-04-27T08:21:44.999Z</time></trkpt><trkpt lat="44.56793540388068" lon="8.27290719436922"><ele>714.0</ele><time>2026-04-27T08:21:45.999Z</time></trkpt><trkpt lat="44.56774679339052" lon="8.272957651976338"><ele>712.0</ele><time>2026-04-27T08:21:46.999Z</time></trkpt><trkpt lat="44.56756981502756" lon="8.273055285791965"><ele>710.0</ele><time>2026-04-27T08:21:47.999Z</time></trkpt><trkpt lat="44.56740082718455" lon="8.273193285451384"><ele>717.0</ele><time>2026-04-27T08:21:48.999Z</time></trkpt><trkpt lat="44.5672299563869" lon="8.273315258299855"><ele>724.0</ele><time>2026-04-27T08:21:49.999Z</time></trkpt><trkpt lat="44.56704604633372" lon="8.273383287663611"><ele>731.0</ele><time>2026-04-27T08:21:50.999Z</time></trkpt><trkpt lat="44.56684800227311" lon="8.273405393800255"><ele>731.0</ele><time>2026-04-27T08:21:51.999Z</time></trkpt><trkpt lat="44.56663911861238" lon="8.27341183462213"><ele>731.0</ele><time>2026-04-27T08:21:52.999Z</time></trkpt><trkpt lat="44.56642263832396" lon="8.273435809334448"><ele>731.0</ele><time>2026-04-27T08:21:53.999Z</time></trkpt><trkpt lat="44.56620841508124" lon="8.273436690590346"><ele>731.3333333333333</ele><time>2026-04-27T08:21:54.999Z</time></trkpt><trkpt lat="44.565984233502746" lon="8.2734541201383"><ele>731.6666666666666</ele><time>2026-04-27T08:21:55.999Z</time></trkpt><trkpt lat="44.56576722940951" lon="8.273511147380248"><ele>732.0</ele><time>2026-04-27T08:21:56.999Z</time></trkpt><trkpt lat="44.565559949855185" lon="8.273581353750476"><ele>732.0</ele><time>2026-04-27T08:21:57.999Z</time></trkpt><trkpt lat="44.5653771273907" lon="8.273660771647728"><ele>732.0</ele><time>2026-04-27T08:21:58.999Z</time></trkpt><trkpt lat="44.565188215102474" lon="8.273666189361947"><ele>732.0</ele><time>2026-04-27T08:21:59.999Z</time></trkpt><trkpt lat="44.564991907614285" lon="8.273661186037955"><ele>732.0</ele><time>2026-04-27T08:22:00.999Z</time></trkpt><trkpt lat="44.56478812536031" lon="8.27365904486198"><ele>732.0</ele><time>2026-04-27T08:22:01.999Z</time></trkpt><trkpt lat="44.56458431916661" lon="8.273682106326214"><ele>732.0</ele><time>2026-04-27T08:22:02.999Z</time></trkpt><trkpt lat="44.56439728787361" lon="8.273679367978023"><ele>732.0</ele><time>2026-04-27T08:22:03.999Z</time></trkpt><trkpt lat="44.5642287641662" lon="8.273594207686418"><ele>732.0</ele><time>2026-04-27T08:22:04.999Z</time></trkpt><trkpt lat="44.564066519842505" lon="8.273534150664757"><ele>732.0</ele><time>2026-04-27T08:22:05.999Z</time></trkpt><trkpt lat="44.5639023184678" lon="8.273490351208663"><ele>732.0</ele><time>2026-04-27T08:22:06.999Z</time></trkpt><trkpt lat="44.56374753628217" lon="8.273386862369868"><ele>732.0</ele><time>2026-04-27T08:22:07.999Z</time></trkpt><trkpt lat="44.56358684530464" lon="8.273274469010566"><ele>732.0</ele><time>2026-04-27T08:22:08.999Z</time></trkpt><trkpt lat="44.563432733483246" lon="8.273149794003661"><ele>733.0</ele><time>2026-04-27T08:22:09.999Z</time></trkpt><trkpt lat="44.56326932727713" lon="8.273011589550068"><ele>734.0</ele><time>2026-04-27T08:22:10.999Z</time></trkpt><trkpt lat="44.563104018054325" lon="8.272865669609939"><ele>735.0</ele><time>2026-04-27T08:22:11.999Z</time></trkpt><trkpt lat="44.56295229274513" lon="8.27271800916798"><ele>737.0</ele><time>2026-04-27T08:22:12.999Z</time></trkpt><trkpt lat="44.562827993980925" lon="8.272564224959881"><ele>739.0</ele><time>2026-04-27T08:22:13.999Z</time></trkpt><trkpt lat="44.56275420712765" lon="8.27237086973907"><ele>741.0</ele><time>2026-04-27T08:22:14.999Z</time></trkpt><trkpt lat="44.56271220166409" lon="8.272143761472256"><ele>746.6666666666666</ele><time>2026-04-27T08:22:15.999Z</time></trkpt><trkpt lat="44.56267284563035" lon="8.27188052792015"><ele>752.3333333333333</ele><time>2026-04-27T08:22:16.999Z</time></trkpt><trkpt lat="44.56265434079951" lon="8.27159925227693"><ele>758.0</ele><time>2026-04-27T08:22:17.999Z</time></trkpt><trkpt lat="44.562663746458014" lon="8.271321591733413"><ele>758.6666666666666</ele><time>2026-04-27T08:22:18.999Z</time></trkpt><trkpt lat="44.562671065556444" lon="8.271077365922155"><ele>759.3333333333334</ele><time>2026-04-27T08:22:19.999Z</time></trkpt><trkpt lat="44.562673008206524" lon="8.270829986294407"><ele>760.0</ele><time>2026-04-27T08:22:20.999Z</time></trkpt><trkpt lat="44.56263238051741" lon="8.270572546963283"><ele>760.3333333333334</ele><time>2026-04-27T08:22:21.999Z</time></trkpt><trkpt lat="44.56257537281495" lon="8.270302742779865"><ele>760.6666666666666</ele><time>2026-04-27T08:22:22.999Z</time></trkpt><trkpt lat="44.562501360733336" lon="8.27002308424109"><ele>761.0</ele><time>2026-04-27T08:22:23.999Z</time></trkpt><trkpt lat="44.56242589367716" lon="8.269761789327786"><ele>760.25</ele><time>2026-04-27T08:22:24.999Z</time></trkpt><trkpt lat="44.562393925583685" lon="8.26951727638742"><ele>759.5</ele><time>2026-04-27T08:22:25.999Z</time></trkpt><trkpt lat="44.562361789266454" lon="8.269328574232176"><ele>758.75</ele><time>2026-04-27T08:22:26.999Z</time></trkpt><trkpt lat="44.562343401848295" lon="8.26919932864815"><ele>758.0</ele><time>2026-04-27T08:22:27.999Z</time></trkpt><trkpt lat="44.56230367463465" lon="8.269106151809504"><ele>758.0</ele><time>2026-04-27T08:22:28.999Z</time></trkpt><trkpt lat="44.56220444736509" lon="8.269083297364745"><ele>758.0</ele><time>2026-04-27T08:22:29.999Z</time></trkpt><trkpt lat="44.56209834294804" lon="8.26912325063831"><ele>758.0</ele><time>2026-04-27T08:22:30.999Z</time></trkpt><trkpt lat="44.56201463875376" lon="8.269231604717195"><ele>758.0</ele><time>2026-04-27T08:22:31.999Z</time></trkpt><trkpt lat="44.56199441800491" lon="8.26938918160939"><ele>758.0</ele><time>2026-04-27T08:22:32.999Z</time></trkpt><trkpt lat="44.56203615304286" lon="8.269578152615734"><ele>759.0</ele><time>2026-04-27T08:22:33.999Z</time></trkpt><trkpt lat="44.56211320066167" lon="8.269794558529105"><ele>760.0</ele><time>2026-04-27T08:22:34.999Z</time></trkpt><trkpt lat="44.562179357040755" lon="8.270042802938368"><ele>761.0</ele><time>2026-04-27T08:22:35.999Z</time></trkpt><trkpt lat="44.56221649832751" lon="8.270311706905174"><ele>761.0</ele><time>2026-04-27T08:22:36.999Z</time></trkpt><trkpt lat="44.562198607940324" lon="8.270591391577723"><ele>761.0</ele><time>2026-04-27T08:22:37.999Z</time></trkpt><trkpt lat="44.5621576771008" lon="8.270844598736009"><ele>761.0</ele><time>2026-04-27T08:22:38.999Z</time></trkpt><trkpt lat="44.562085686015145" lon="8.27105317535033"><ele>765.3333333333333</ele><time>2026-04-27T08:22:39.999Z</time></trkpt><trkpt lat="44.5619886638129" lon="8.27122896886228"><ele>769.6666666666666</ele><time>2026-04-27T08:22:40.999Z</time></trkpt><trkpt lat="44.561865531455844" lon="8.271391353436242"><ele>774.0</ele><time>2026-04-27T08:22:41.999Z</time></trkpt><trkpt lat="44.561726310855065" lon="8.271503032708228"><ele>774.0</ele><time>2026-04-27T08:22:42.998Z</time></trkpt><trkpt lat="44.56156993752938" lon="8.27153057586807"><ele>774.0</ele><time>2026-04-27T08:22:43.998Z</time></trkpt><trkpt lat="44.56139799785479" lon="8.271542120566313"><ele>774.0</ele><time>2026-04-27T08:22:44.998Z</time></trkpt><trkpt lat="44.561197515816346" lon="8.271529691647343"><ele>772.3333333333333</ele><time>2026-04-27T08:22:45.998Z</time></trkpt><trkpt lat="44.56101844589336" lon="8.271485603117899"><ele>770.6666666666666</ele><time>2026-04-27T08:22:46.998Z</time></trkpt><trkpt lat="44.56087659678634" lon="8.271427235838072"><ele>769.0</ele><time>2026-04-27T08:22:47.998Z</time></trkpt><trkpt lat="44.560782139708266" lon="8.271298499568172"><ele>773.6666666666666</ele><time>2026-04-27T08:22:48.998Z</time></trkpt><trkpt lat="44.56071375876239" lon="8.271117697655486"><ele>778.3333333333333</ele><time>2026-04-27T08:22:49.998Z</time></trkpt><trkpt lat="44.560618979745115" lon="8.270902888060064"><ele>783.0</ele><time>2026-04-27T08:22:50.998Z</time></trkpt><trkpt lat="44.56051991492338" lon="8.270698337987955"><ele>785.3333333333333</ele><time>2026-04-27T08:22:51.998Z</time></trkpt><trkpt lat="44.56038574931317" lon="8.270540767950656"><ele>787.6666666666666</ele><time>2026-04-27T08:22:52.998Z</time></trkpt><trkpt lat="44.56022010854026" lon="8.270427885038481"><ele>790.0</ele><time>2026-04-27T08:22:54Z</time></trkpt><trkpt lat="44.56002823027561" lon="8.270341114981038"><ele>784.3333333333333</ele><time>2026-04-27T08:22:55Z</time></trkpt><trkpt lat="44.55983057297545" lon="8.270237310581857"><ele>778.6666666666667</ele><time>2026-04-27T08:22:56Z</time></trkpt><trkpt lat="44.559637758072824" lon="8.270094773087054"><ele>773.0</ele><time>2026-04-27T08:22:57Z</time></trkpt><trkpt lat="44.5594579106545" lon="8.269900880321002"><ele>774.3333333333334</ele><time>2026-04-27T08:22:58Z</time></trkpt><trkpt lat="44.55929483359594" lon="8.269690513091176"><ele>775.6666666666667</ele><time>2026-04-27T08:22:59Z</time></trkpt><trkpt lat="44.55913244068321" lon="8.269516518914447"><ele>777.0</ele><time>2026-04-27T08:23:00Z</time></trkpt><trkpt lat="44.55896129259254" lon="8.269399993654037"><ele>777.0</ele><time>2026-04-27T08:23:01Z</time></trkpt><trkpt lat="44.558772389730755" lon="8.26935128478977"><ele>777.0</ele><time>2026-04-27T08:23:02Z</time></trkpt><trkpt lat="44.55857550144135" lon="8.269373138235578"><ele>777.0</ele><time>2026-04-27T08:23:03Z</time></trkpt><trkpt lat="44.558409307518836" lon="8.269401322256638"><ele>774.3333333333333</ele><time>2026-04-27T08:23:04Z</time></trkpt><trkpt lat="44.55827629726433" lon="8.269339462110812"><ele>771.6666666666666</ele><time>2026-04-27T08:23:05Z</time></trkpt><trkpt lat="44.55813230706728" lon="8.269241488555595"><ele>769.0</ele><time>2026-04-27T08:23:06Z</time></trkpt><trkpt lat="44.5579928359414" lon="8.269077944015415"><ele>767.3333333333333</ele><time>2026-04-27T08:23:07Z</time></trkpt><trkpt lat="44.55784876256699" lon="8.268912911315345"><ele>765.6666666666666</ele><time>2026-04-27T08:23:08Z</time></trkpt><trkpt lat="44.5576865793285" lon="8.26877488199457"><ele>764.0</ele><time>2026-04-27T08:23:09Z</time></trkpt><trkpt lat="44.557508613837975" lon="8.268651487986588"><ele>764.0</ele><time>2026-04-27T08:23:10Z</time></trkpt><trkpt lat="44.557319436238295" lon="8.268549878036518"><ele>764.0</ele><time>2026-04-27T08:23:11Z</time></trkpt><trkpt lat="44.557167038728224" lon="8.268356746978066"><ele>764.0</ele><time>2026-04-27T08:23:12Z</time></trkpt><trkpt lat="44.55700061627134" lon="8.268152217259225"><ele>759.5</ele><time>2026-04-27T08:23:13Z</time></trkpt><trkpt lat="44.556844895447995" lon="8.2679162719002"><ele>755.0</ele><time>2026-04-27T08:23:14Z</time></trkpt><trkpt lat="44.556677894578094" lon="8.267687943754154"><ele>755.0</ele><time>2026-04-27T08:23:15Z</time></trkpt><trkpt lat="44.55651438818353" lon="8.267462860276938"><ele>755.0</ele><time>2026-04-27T08:23:16Z</time></trkpt><trkpt lat="44.55635460087972" lon="8.267253598887685"><ele>755.0</ele><time>2026-04-27T08:23:17Z</time></trkpt><trkpt lat="44.556197548830035" lon="8.267077342608873"><ele>753.0</ele><time>2026-04-27T08:23:18Z</time></trkpt><trkpt lat="44.55604172571664" lon="8.26690133887609"><ele>751.0</ele><time>2026-04-27T08:23:19Z</time></trkpt><trkpt lat="44.55588948622128" lon="8.266735946543259"><ele>749.0</ele><time>2026-04-27T08:23:20Z</time></trkpt><trkpt lat="44.555719818754" lon="8.266612665908204"><ele>749.0</ele><time>2026-04-27T08:23:21Z</time></trkpt><trkpt lat="44.555539914553826" lon="8.266530723256293"><ele>749.0</ele><time>2026-04-27T08:23:22Z</time></trkpt><trkpt lat="44.55534853338671" lon="8.266498704893555"><ele>749.0</ele><time>2026-04-27T08:23:23Z</time></trkpt><trkpt lat="44.55515084052944" lon="8.266472308092908"><ele>744.0</ele><time>2026-04-27T08:23:24Z</time></trkpt><trkpt lat="44.55494323578737" lon="8.266415826191311"><ele>739.0</ele><time>2026-04-27T08:23:25Z</time></trkpt><trkpt lat="44.5547381063684" lon="8.266327672985739"><ele>734.0</ele><time>2026-04-27T08:23:26Z</time></trkpt><trkpt lat="44.554548505217625" lon="8.266199318757215"><ele>735.3333333333333</ele><time>2026-04-27T08:23:27Z</time></trkpt><trkpt lat="44.55437286159827" lon="8.266074705012976"><ele>736.6666666666666</ele><time>2026-04-27T08:23:28Z</time></trkpt><trkpt lat="44.55420721241147" lon="8.265966922720708"><ele>738.0</ele><time>2026-04-27T08:23:29Z</time></trkpt><trkpt lat="44.55403743855264" lon="8.265907092364191"><ele>738.0</ele><time>2026-04-27T08:23:30Z</time></trkpt><trkpt lat="44.55387105164474" lon="8.265900449958513"><ele>738.0</ele><time>2026-04-27T08:23:31Z</time></trkpt><trkpt lat="44.55370501434604" lon="8.26592437864768"><ele>738.0</ele><time>2026-04-27T08:23:32Z</time></trkpt><trkpt lat="44.55354548393379" lon="8.26599789120967"><ele>732.6666666666666</ele><time>2026-04-27T08:23:33Z</time></trkpt><trkpt lat="44.55337868653841" lon="8.26613536074171"><ele>727.3333333333333</ele><time>2026-04-27T08:23:34Z</time></trkpt><trkpt lat="44.55321271160654" lon="8.266278706530661"><ele>722.0</ele><time>2026-04-27T08:23:35Z</time></trkpt><trkpt lat="44.553049061185604" lon="8.266408928005113"><ele>720.6666666666666</ele><time>2026-04-27T08:23:36Z</time></trkpt><trkpt lat="44.55288819037872" lon="8.266533985916267"><ele>719.3333333333334</ele><time>2026-04-27T08:23:37Z</time></trkpt><trkpt lat="44.55275361744891" lon="8.266651101700932"><ele>718.0</ele><time>2026-04-27T08:23:38Z</time></trkpt><trkpt lat="44.55265958753355" lon="8.266809755323191"><ele>718.0</ele><time>2026-04-27T08:23:39Z</time></trkpt><trkpt lat="44.55261946992474" lon="8.267003250652333"><ele>718.0</ele><time>2026-04-27T08:23:40Z</time></trkpt><trkpt lat="44.55255775508571" lon="8.267207754433327"><ele>718.0</ele><time>2026-04-27T08:23:41Z</time></trkpt><trkpt lat="44.55247185043828" lon="8.267401182016892"><ele>716.6666666666667</ele><time>2026-04-27T08:23:42Z</time></trkpt><trkpt lat="44.55235744294011" lon="8.267563299249234"><ele>715.3333333333334</ele><time>2026-04-27T08:23:43Z</time></trkpt><trkpt lat="44.55221177603121" lon="8.267655024124009"><ele>714.0</ele><time>2026-04-27T08:23:43.999Z</time></trkpt><trkpt lat="44.55203624137083" lon="8.267688634207145"><ele>714.0</ele><time>2026-04-27T08:23:44.999Z</time></trkpt><trkpt lat="44.55184866815804" lon="8.267686095047171"><ele>714.0</ele><time>2026-04-27T08:23:45.999Z</time></trkpt><trkpt lat="44.55164383654903" lon="8.267626121515304"><ele>714.0</ele><time>2026-04-27T08:23:46.999Z</time></trkpt><trkpt lat="44.55144374024725" lon="8.267538069521972"><ele>714.0</ele><time>2026-04-27T08:23:47.999Z</time></trkpt><trkpt lat="44.55124855790953" lon="8.267400078658474"><ele>714.0</ele><time>2026-04-27T08:23:48.999Z</time></trkpt><trkpt lat="44.55104489838404" lon="8.267220945091376"><ele>705.0</ele><time>2026-04-27T08:23:49.999Z</time></trkpt><trkpt lat="44.550829777490584" lon="8.267036337032343"><ele>696.0</ele><time>2026-04-27T08:23:50.999Z</time></trkpt><trkpt lat="44.55062970763922" lon="8.26686582312451"><ele>696.0</ele><time>2026-04-27T08:23:51.999Z</time></trkpt><trkpt lat="44.55046001731989" lon="8.266695071767915"><ele>696.0</ele><time>2026-04-27T08:23:52.999Z</time></trkpt><trkpt lat="44.55031755996525" lon="8.266532415785122"><ele>696.0</ele><time>2026-04-27T08:23:53.999Z</time></trkpt><trkpt lat="44.550206062084705" lon="8.26639232269824"><ele>695.8</ele><time>2026-04-27T08:23:54.999Z</time></trkpt><trkpt lat="44.55012576193867" lon="8.266315284045893"><ele>695.5999999999999</ele><time>2026-04-27T08:23:55.999Z</time></trkpt><trkpt lat="44.55003233039302" lon="8.266301364432925"><ele>695.4</ele><time>2026-04-27T08:23:56.999Z</time></trkpt><trkpt lat="44.549927905259636" lon="8.266381255398906"><ele>695.2</ele><time>2026-04-27T08:23:57.999Z</time></trkpt><trkpt lat="44.549862647258124" lon="8.266507768140706"><ele>695.0</ele><time>2026-04-27T08:23:58.999Z</time></trkpt><trkpt lat="44.54980814497841" lon="8.26667539447365"><ele>695.0</ele><time>2026-04-27T08:23:59.999Z</time></trkpt><trkpt lat="44.54973246335488" lon="8.266876269423559"><ele>695.0</ele><time>2026-04-27T08:24:00.999Z</time></trkpt><trkpt lat="44.54961793435878" lon="8.267086174162923"><ele>695.0</ele><time>2026-04-27T08:24:01.999Z</time></trkpt><trkpt lat="44.549458541792234" lon="8.267257070115756"><ele>693.6666666666666</ele><time>2026-04-27T08:24:02.999Z</time></trkpt><trkpt lat="44.54929326027775" lon="8.267383799551427"><ele>692.3333333333334</ele><time>2026-04-27T08:24:03.999Z</time></trkpt><trkpt lat="44.54909827163595" lon="8.267520821271594"><ele>691.0</ele><time>2026-04-27T08:24:04.999Z</time></trkpt><trkpt lat="44.54889182839988" lon="8.267628029392347"><ele>680.0</ele><time>2026-04-27T08:24:05.999Z</time></trkpt><trkpt lat="44.5486846670028" lon="8.267742908846941"><ele>669.0</ele><time>2026-04-27T08:24:06.999Z</time></trkpt><trkpt lat="44.54845549703731" lon="8.267869370305343"><ele>669.0</ele><time>2026-04-27T08:24:07.999Z</time></trkpt><trkpt lat="44.54821568780926" lon="8.267970978298042"><ele>669.0</ele><time>2026-04-27T08:24:08.999Z</time></trkpt><trkpt lat="44.54798103678938" lon="8.268037467210762"><ele>664.6666666666666</ele><time>2026-04-27T08:24:09.999Z</time></trkpt><trkpt lat="44.54775893383146" lon="8.268056747496031"><ele>660.3333333333333</ele><time>2026-04-27T08:24:10.999Z</time></trkpt><trkpt lat="44.547554496481226" lon="8.268045983642258"><ele>656.0</ele><time>2026-04-27T08:24:11.999Z</time></trkpt><trkpt lat="44.54735679766938" lon="8.26799101193123"><ele>656.0</ele><time>2026-04-27T08:24:12.999Z</time></trkpt><trkpt lat="44.547130721373236" lon="8.2679203740407"><ele>656.0</ele><time>2026-04-27T08:24:13.999Z</time></trkpt><trkpt lat="44.546911200287084" lon="8.267860178629574"><ele>656.0</ele><time>2026-04-27T08:24:14.999Z</time></trkpt><trkpt lat="44.546703245857444" lon="8.267805391693074"><ele>656.0</ele><time>2026-04-27T08:24:15.999Z</time></trkpt><trkpt lat="44.54649754158966" lon="8.267753269173788"><ele>656.0</ele><time>2026-04-27T08:24:16.999Z</time></trkpt><trkpt lat="44.54629643427783" lon="8.26771086982361"><ele>655.6666666666666</ele><time>2026-04-27T08:24:17.999Z</time></trkpt><trkpt lat="44.546103519598105" lon="8.267673275720487"><ele>655.3333333333334</ele><time>2026-04-27T08:24:18.999Z</time></trkpt><trkpt lat="44.545913354072475" lon="8.267633773241576"><ele>655.0</ele><time>2026-04-27T08:24:19.999Z</time></trkpt><trkpt lat="44.5457364990615" lon="8.267584974519453"><ele>655.0</ele><time>2026-04-27T08:24:20.999Z</time></trkpt><trkpt lat="44.5455673065815" lon="8.267551758920265"><ele>655.0</ele><time>2026-04-27T08:24:21.999Z</time></trkpt><trkpt lat="44.5453896173424" lon="8.267530657307761"><ele>655.0</ele><time>2026-04-27T08:24:22.999Z</time></trkpt><trkpt lat="44.54521926371503" lon="8.267519767855541"><ele>653.75</ele><time>2026-04-27T08:24:23.999Z</time></trkpt><trkpt lat="44.54506354214312" lon="8.267523771484521"><ele>652.5</ele><time>2026-04-27T08:24:24.999Z</time></trkpt><trkpt lat="44.54492136168041" lon="8.26751237478718"><ele>651.25</ele><time>2026-04-27T08:24:25.999Z</time></trkpt><trkpt lat="44.544800158842975" lon="8.267472664409812"><ele>650.0</ele><time>2026-04-27T08:24:26.999Z</time></trkpt><trkpt lat="44.54469367911116" lon="8.26743073762914"><ele>650.0</ele><time>2026-04-27T08:24:27.999Z</time></trkpt><trkpt lat="44.544607336299656" lon="8.267394639464833"><ele>650.0</ele><time>2026-04-27T08:24:28.999Z</time></trkpt><trkpt lat="44.54453407452124" lon="8.267351521214456"><ele>650.0</ele><time>2026-04-27T08:24:29.999Z</time></trkpt><trkpt lat="44.54445498782247" lon="8.267281038065091"><ele>650.0</ele><time>2026-04-27T08:24:31.999Z</time></trkpt><trkpt lat="44.544467094122105" lon="8.26711351072572"><ele>650.0</ele><time>2026-04-27T08:24:32.999Z</time></trkpt><trkpt lat="44.54449163205276" lon="8.266964709555538"><ele>648.5</ele><time>2026-04-27T08:24:33.999Z</time></trkpt><trkpt lat="44.544520137485776" lon="8.26679967522292"><ele>647.0</ele><time>2026-04-27T08:24:34.999Z</time></trkpt><trkpt lat="44.54455150776494" lon="8.266622947493989"><ele>645.5</ele><time>2026-04-27T08:24:35.999Z</time></trkpt><trkpt lat="44.54457798088031" lon="8.26645925777454"><ele>644.0</ele><time>2026-04-27T08:24:36.999Z</time></trkpt><trkpt lat="44.54460549208081" lon="8.266307861966478"><ele>643.0</ele><time>2026-04-27T08:24:37.999Z</time></trkpt><trkpt lat="44.54463876782575" lon="8.266164741864236"><ele>642.0</ele><time>2026-04-27T08:24:38.999Z</time></trkpt><trkpt lat="44.54468821471969" lon="8.26604010887148"><ele>641.0</ele><time>2026-04-27T08:24:39.999Z</time></trkpt><trkpt lat="44.544770969356726" lon="8.265922502439881"><ele>640.0</ele><time>2026-04-27T08:24:40.999Z</time></trkpt><trkpt lat="44.544896212725085" lon="8.265840087362212"><ele>640.0</ele><time>2026-04-27T08:24:41.999Z</time></trkpt><trkpt lat="44.54504531953567" lon="8.265751386476632"><ele>640.0</ele><time>2026-04-27T08:24:42.999Z</time></trkpt><trkpt lat="44.54520597660558" lon="8.265634851246253"><ele>640.0</ele><time>2026-04-27T08:24:43.999Z</time></trkpt><trkpt lat="44.54540138937601" lon="8.265563277317904"><ele>637.0</ele><time>2026-04-27T08:24:44.999Z</time></trkpt><trkpt lat="44.54559654465353" lon="8.265533482347292"><ele>634.0</ele><time>2026-04-27T08:24:45.999Z</time></trkpt><trkpt lat="44.54570465842182" lon="8.265559736720432"><ele>631.0</ele><time>2026-04-27T08:24:47.999Z</time></trkpt><trkpt lat="44.545872703911094" lon="8.265598655682313"><ele>630.6666666666667</ele><time>2026-04-27T08:24:48.998Z</time></trkpt><trkpt lat="44.54605206341365" lon="8.265644785545508"><ele>630.3333333333334</ele><time>2026-04-27T08:24:49.998Z</time></trkpt><trkpt lat="44.546243530077255" lon="8.265693957419426"><ele>630.0</ele><time>2026-04-27T08:24:50.998Z</time></trkpt><trkpt lat="44.546436717747824" lon="8.265743569304357"><ele>630.0</ele><time>2026-04-27T08:24:51.998Z</time></trkpt><trkpt lat="44.54663408965528" lon="8.265796076735928"><ele>630.0</ele><time>2026-04-27T08:24:52.998Z</time></trkpt><trkpt lat="44.54681357297799" lon="8.26584162207224"><ele>630.0</ele><time>2026-04-27T08:24:53.998Z</time></trkpt><trkpt lat="44.546981140682796" lon="8.2658737253364"><ele>630.6666666666666</ele><time>2026-04-27T08:24:54.998Z</time></trkpt><trkpt lat="44.54713847779687" lon="8.265846248416473"><ele>631.3333333333333</ele><time>2026-04-27T08:24:55.998Z</time></trkpt><trkpt lat="44.54728477948289" lon="8.26578428814028"><ele>632.0</ele><time>2026-04-27T08:24:56.998Z</time></trkpt><trkpt lat="44.54742349049562" lon="8.265629577558816"><ele>632.3333333333333</ele><time>2026-04-27T08:24:57.998Z</time></trkpt><trkpt lat="44.547577736915486" lon="8.26547569253344"><ele>632.6666666666666</ele><time>2026-04-27T08:24:58.998Z</time></trkpt><trkpt lat="44.54773317320859" lon="8.265293900875939"><ele>633.0</ele><time>2026-04-27T08:25:00Z</time></trkpt><trkpt lat="44.547911028050706" lon="8.265103295054944"><ele>633.0</ele><time>2026-04-27T08:25:01Z</time></trkpt><trkpt lat="44.54809717611825" lon="8.264922626965689"><ele>633.0</ele><time>2026-04-27T08:25:02Z</time></trkpt><trkpt lat="44.54826220890402" lon="8.264759627595144"><ele>633.0</ele><time>2026-04-27T08:25:03Z</time></trkpt><trkpt lat="44.54841428733999" lon="8.264607942075797"><ele>632.6666666666666</ele><time>2026-04-27T08:25:04Z</time></trkpt><trkpt lat="44.54854649398406" lon="8.264448853566678"><ele>632.3333333333333</ele><time>2026-04-27T08:25:05Z</time></trkpt><trkpt lat="44.548651426183845" lon="8.264252190745827"><ele>632.0</ele><time>2026-04-27T08:25:06Z</time></trkpt><trkpt lat="44.54873958131757" lon="8.26402800520143"><ele>623.3333333333333</ele><time>2026-04-27T08:25:07Z</time></trkpt><trkpt lat="44.54883832468201" lon="8.263830157374727"><ele>614.6666666666666</ele><time>2026-04-27T08:25:08Z</time></trkpt><trkpt lat="44.5489845269814" lon="8.263721869093196"><ele>606.0</ele><time>2026-04-27T08:25:09Z</time></trkpt><trkpt lat="44.54913051057808" lon="8.263652477983912"><ele>606.0</ele><time>2026-04-27T08:25:10Z</time></trkpt><trkpt lat="44.54927120943954" lon="8.263641277330013"><ele>606.0</ele><time>2026-04-27T08:25:11Z</time></trkpt><trkpt lat="44.549405800606955" lon="8.26370217028659"><ele>606.0</ele><time>2026-04-27T08:25:12Z</time></trkpt><trkpt lat="44.54956907766825" lon="8.26381619150034"><ele>603.6666666666666</ele><time>2026-04-27T08:25:13Z</time></trkpt><trkpt lat="44.54976415712113" lon="8.263914894334421"><ele>601.3333333333333</ele><time>2026-04-27T08:25:14Z</time></trkpt><trkpt lat="44.54997844820665" lon="8.263985439851874"><ele>599.0</ele><time>2026-04-27T08:25:15Z</time></trkpt><trkpt lat="44.55022752074732" lon="8.263988362811965"><ele>608.0</ele><time>2026-04-27T08:25:16Z</time></trkpt><trkpt lat="44.55048558722759" lon="8.2639938963396"><ele>617.0</ele><time>2026-04-27T08:25:17Z</time></trkpt><trkpt lat="44.55071614887944" lon="8.264012085060791"><ele>617.0</ele><time>2026-04-27T08:25:18Z</time></trkpt><trkpt lat="44.550928380934856" lon="8.264040701058924"><ele>617.0</ele><time>2026-04-27T08:25:19Z</time></trkpt><trkpt lat="44.55112843362426" lon="8.264063926033254"><ele>617.0</ele><time>2026-04-27T08:25:20Z</time></trkpt><trkpt lat="44.55131423960038" lon="8.264040301566997"><ele>617.6666666666666</ele><time>2026-04-27T08:25:21Z</time></trkpt><trkpt lat="44.551502167559654" lon="8.2639674582843"><ele>618.3333333333334</ele><time>2026-04-27T08:25:22Z</time></trkpt><trkpt lat="44.5516856709104" lon="8.263844769140753"><ele>619.0</ele><time>2026-04-27T08:25:23Z</time></trkpt><trkpt lat="44.551884107932324" lon="8.26373094652207"><ele>614.5</ele><time>2026-04-27T08:25:24Z</time></trkpt><trkpt lat="44.55209717428862" lon="8.26362291308759"><ele>610.0</ele><time>2026-04-27T08:25:25Z</time></trkpt><trkpt lat="44.55231867555062" lon="8.263513938125294"><ele>610.0</ele><time>2026-04-27T08:25:26Z</time></trkpt><trkpt lat="44.552544822727874" lon="8.263384645451751"><ele>610.0</ele><time>2026-04-27T08:25:27Z</time></trkpt><trkpt lat="44.55276472052436" lon="8.263231420454558"><ele>607.6666666666667</ele><time>2026-04-27T08:25:28Z</time></trkpt><trkpt lat="44.55294510069063" lon="8.263069653600372"><ele>605.3333333333334</ele><time>2026-04-27T08:25:29Z</time></trkpt><trkpt lat="44.553124867530684" lon="8.262938366470168"><ele>603.0</ele><time>2026-04-27T08:25:30Z</time></trkpt><trkpt lat="44.55327945505302" lon="8.262813452592795"><ele>603.0</ele><time>2026-04-27T08:25:31Z</time></trkpt><trkpt lat="44.55342833596698" lon="8.262738409575556"><ele>603.0</ele><time>2026-04-27T08:25:32Z</time></trkpt><trkpt lat="44.553577896240455" lon="8.26272467037629"><ele>603.0</ele><time>2026-04-27T08:25:33Z</time></trkpt><trkpt lat="44.553733750419724" lon="8.262670076249005"><ele>604.6666666666666</ele><time>2026-04-27T08:25:34Z</time></trkpt><trkpt lat="44.55389500458412" lon="8.262600614690905"><ele>606.3333333333333</ele><time>2026-04-27T08:25:35Z</time></trkpt><trkpt lat="44.55405649626196" lon="8.262469674774657"><ele>608.0</ele><time>2026-04-27T08:25:36Z</time></trkpt><trkpt lat="44.55424157468802" lon="8.262379072259616"><ele>608.0</ele><time>2026-04-27T08:25:37Z</time></trkpt><trkpt lat="44.55441397200131" lon="8.262317077848232"><ele>608.0</ele><time>2026-04-27T08:25:38Z</time></trkpt><trkpt lat="44.55456384682487" lon="8.262242900269866"><ele>608.0</ele><time>2026-04-27T08:25:39Z</time></trkpt><trkpt lat="44.54873958131757" lon="8.26402800520143"><ele>607.3333333333333</ele><time>2026-04-27T08:25:07Z</time></trkpt><trkpt lat="44.54883832468201" lon="8.263830157374727"><ele>606.6666666666666</ele><time>2026-04-27T08:25:08Z</time></trkpt><trkpt lat="44.5489845269814" lon="8.263721869093196"><ele>606.0</ele><time>2026-04-27T08:25:09Z</time></trkpt><trkpt lat="44.54913051057808" lon="8.263652477983912"><ele>606.0</ele><time>2026-04-27T08:25:10Z</time></trkpt><trkpt lat="44.54927120943954" lon="8.263641277330013"><ele>606.0</ele><time>2026-04-27T08:25:11Z</time></trkpt><trkpt lat="44.549405800606955" lon="8.26370217028659"><ele>606.0</ele><time>2026-04-27T08:25:12Z</time></trkpt><trkpt lat="44.54956907766825" lon="8.26381619150034"><ele>603.6666666666666</ele><time>2026-04-27T08:25:13Z</time></trkpt><trkpt lat="44.54976415712113" lon="8.263914894334421"><ele>601.3333333333333</ele><time>2026-04-27T08:25:14Z</time></trkpt><trkpt lat="44.54997844820665" lon="8.263985439851874"><ele>599.0</ele><time>2026-04-27T08:25:15Z</time></trkpt><trkpt lat="44.55022752074732" lon="8.263988362811965"><ele>608.0</ele><time>2026-04-27T08:25:16Z</time></trkpt><trkpt lat="44.55048558722759" lon="8.2639938963396"><ele>617.0</ele><time>2026-04-27T08:25:17Z</time></trkpt><trkpt lat="44.55071614887944" lon="8.264012085060791"><ele>617.0</ele><time>2026-04-27T08:25:18Z</time></trkpt><trkpt lat="44.550928380934856" lon="8.264040701058924"><ele>617.0</ele><time>2026-04-27T08:25:19Z</time></trkpt><trkpt lat="44.55112843362426" lon="8.264063926033254"><ele>617.0</ele><time>2026-04-27T08:25:20Z</time></trkpt><trkpt lat="44.55131423960038" lon="8.264040301566997"><ele>617.6666666666666</ele><time>2026-04-27T08:25:21Z</time></trkpt><trkpt lat="44.551502167559654" lon="8.2639674582843"><ele>618.3333333333334</ele><time>2026-04-27T08:25:22Z</time></trkpt><trkpt lat="44.5516856709104" lon="8.263844769140753"><ele>619.0</ele><time>2026-04-27T08:25:23Z</time></trkpt><trkpt lat="44.551884107932324" lon="8.26373094652207"><ele>614.5</ele><time>2026-04-27T08:25:24Z</time></trkpt><trkpt lat="44.55209717428862" lon="8.26362291308759"><ele>610.0</ele><time>2026-04-27T08:25:25Z</time></trkpt><trkpt lat="44.55231867555062" lon="8.263513938125294"><ele>610.0</ele><time>2026-04-27T08:25:26Z</time></trkpt><trkpt lat="44.552544822727874" lon="8.263384645451751"><ele>610.0</ele><time>2026-04-27T08:25:27Z</time></trkpt><trkpt lat="44.55276472052436" lon="8.263231420454558"><ele>607.6666666666667</ele><time>2026-04-27T08:25:28Z</time></trkpt><trkpt lat="44.55294510069063" lon="8.263069653600372"><ele>605.3333333333334</ele><time>2026-04-27T08:25:29Z</time></trkpt><trkpt lat="44.553124867530684" lon="8.262938366470168"><ele>603.0</ele><time>2026-04-27T08:25:30Z</time></trkpt><trkpt lat="44.55327945505302" lon="8.262813452592795"><ele>603.0</ele><time>2026-04-27T08:25:31Z</time></trkpt><trkpt lat="44.55342833596698" lon="8.262738409575556"><ele>603.0</ele><time>2026-04-27T08:25:32Z</time></trkpt><trkpt lat="44.553577896240455" lon="8.26272467037629"><ele>603.0</ele><time>2026-04-27T08:25:33Z</time></trkpt><trkpt lat="44.553733750419724" lon="8.262670076249005"><ele>604.6666666666666</ele><time>2026-04-27T08:25:34Z</time></trkpt><trkpt lat="44.55389500458412" lon="8.262600614690905"><ele>606.3333333333333</ele><time>2026-04-27T08:25:35Z</time></trkpt><trkpt lat="44.55405649626196" lon="8.262469674774657"><ele>608.0</ele><time>2026-04-27T08:25:36Z</time></trkpt><trkpt lat="44.55424157468802" lon="8.262379072259616"><ele>608.0</ele><time>2026-04-27T08:25:37Z</time></trkpt><trkpt lat="44.55441397200131" lon="8.262317077848232"><ele>608.0</ele><time>2026-04-27T08:25:38Z</time></trkpt><trkpt lat="44.55456384682487" lon="8.262242900269866"><ele>608.0</ele><time>2026-04-27T08:25:39Z</time></trkpt><trkpt lat="44.5546864706736" lon="8.262185695610855"><ele>610.5</ele><time>2026-04-27T08:25:40Z</time></trkpt><trkpt lat="44.5547810304384" lon="8.262112516959261"><ele>613.0</ele><time>2026-04-27T08:25:41Z</time></trkpt><trkpt lat="44.55482829190202" lon="8.261992033528202"><ele>615.5</ele><time>2026-04-27T08:25:42Z</time></trkpt><trkpt lat="44.554848704296695" lon="8.261833797918877"><ele>618.0</ele><time>2026-04-27T08:25:43Z</time></trkpt><trkpt lat="44.55483226578118" lon="8.261630665832996"><ele>621.0</ele><time>2026-04-27T08:25:44Z</time></trkpt><trkpt lat="44.55479766543715" lon="8.261402033616072"><ele>624.0</ele><time>2026-04-27T08:25:45Z</time></trkpt><trkpt lat="44.55477154347825" lon="8.261154458408047"><ele>627.0</ele><time>2026-04-27T08:25:46Z</time></trkpt><trkpt lat="44.55472820936345" lon="8.260901093976276"><ele>627.0</ele><time>2026-04-27T08:25:47Z</time></trkpt><trkpt lat="44.55464782080543" lon="8.260690957913422"><ele>627.0</ele><time>2026-04-27T08:25:47.999Z</time></trkpt><trkpt lat="44.55452562524206" lon="8.260521059218725"><ele>627.0</ele><time>2026-04-27T08:25:48.999Z</time></trkpt><trkpt lat="44.554391476340186" lon="8.260351839782146"><ele>620.5</ele><time>2026-04-27T08:25:49.999Z</time></trkpt><trkpt lat="44.554204219336235" lon="8.260307463341688"><ele>614.0</ele><time>2026-04-27T08:25:50.999Z</time></trkpt><trkpt lat="44.55406963239243" lon="8.260229007711498"><ele>607.5</ele><time>2026-04-27T08:25:51.999Z</time></trkpt><trkpt lat="44.553993161458074" lon="8.260145664691034"><ele>601.0</ele><time>2026-04-27T08:25:52.999Z</time></trkpt><trkpt lat="44.55394951102497" lon="8.260034405858981"><ele>601.0</ele><time>2026-04-27T08:25:53.999Z</time></trkpt><trkpt lat="44.55393637234812" lon="8.259887366796974"><ele>601.0</ele><time>2026-04-27T08:25:54.999Z</time></trkpt><trkpt lat="44.553921815290984" lon="8.259751219069363"><ele>601.0</ele><time>2026-04-27T08:25:55.999Z</time></trkpt><trkpt lat="44.55396874440865" lon="8.259590960653583"><ele>601.0</ele><time>2026-04-27T08:25:57.999Z</time></trkpt><trkpt lat="44.55402317515018" lon="8.259483685125243"><ele>601.0</ele><time>2026-04-27T08:25:58.999Z</time></trkpt><trkpt lat="44.55406887844162" lon="8.25935564181741"><ele>601.75</ele><time>2026-04-27T08:25:59.999Z</time></trkpt><trkpt lat="44.55410476848195" lon="8.259205439512543"><ele>602.5</ele><time>2026-04-27T08:26:00.999Z</time></trkpt><trkpt lat="44.55410562120038" lon="8.259014438521563"><ele>603.25</ele><time>2026-04-27T08:26:01.999Z</time></trkpt><trkpt lat="44.554096792765" lon="8.258818398614824"><ele>604.0</ele><time>2026-04-27T08:26:02.999Z</time></trkpt><trkpt lat="44.55409502711916" lon="8.258633393797403"><ele>604.0</ele><time>2026-04-27T08:26:03.999Z</time></trkpt><trkpt lat="44.55410249968567" lon="8.258453629732658"><ele>604.0</ele><time>2026-04-27T08:26:04.999Z</time></trkpt><trkpt lat="44.55412206361326" lon="8.2582616562751"><ele>604.0</ele><time>2026-04-27T08:26:05.999Z</time></trkpt><trkpt lat="44.554183362350635" lon="8.25810326078015"><ele>604.0</ele><time>2026-04-27T08:26:06.999Z</time></trkpt><trkpt lat="44.55425541585645" lon="8.25799045150981"><ele>599.25</ele><time>2026-04-27T08:26:07.999Z</time></trkpt><trkpt lat="44.554351518224294" lon="8.257918366159682"><ele>594.5</ele><time>2026-04-27T08:26:08.999Z</time></trkpt><trkpt lat="44.554462112834834" lon="8.257909256804272"><ele>589.75</ele><time>2026-04-27T08:26:09.999Z</time></trkpt><trkpt lat="44.55459045096221" lon="8.257921171322895"><ele>585.0</ele><time>2026-04-27T08:26:10.999Z</time></trkpt><trkpt lat="44.554733109392494" lon="8.257974379116634"><ele>584.3333333333334</ele><time>2026-04-27T08:26:11.999Z</time></trkpt><trkpt lat="44.55487736131581" lon="8.25805250658615"><ele>583.6666666666667</ele><time>2026-04-27T08:26:12.999Z</time></trkpt><trkpt lat="44.55502898246272" lon="8.258140669013242"><ele>583.0</ele><time>2026-04-27T08:26:13.999Z</time></trkpt><trkpt lat="44.55518671822964" lon="8.25822333954964"><ele>596.0</ele><time>2026-04-27T08:26:14.999Z</time></trkpt><trkpt lat="44.555353631043886" lon="8.258285574907577"><ele>609.0</ele><time>2026-04-27T08:26:15.999Z</time></trkpt><trkpt lat="44.555537147749895" lon="8.258293388842862"><ele>622.0</ele><time>2026-04-27T08:26:16.999Z</time></trkpt><trkpt lat="44.555724591738866" lon="8.258290149494691"><ele>622.0</ele><time>2026-04-27T08:26:17.999Z</time></trkpt><trkpt lat="44.555909931673774" lon="8.25826057558203"><ele>622.0</ele><time>2026-04-27T08:26:18.999Z</time></trkpt><trkpt lat="44.55609913555289" lon="8.258221291659451"><ele>622.0</ele><time>2026-04-27T08:26:19.999Z</time></trkpt><trkpt lat="44.55628852326248" lon="8.258219375578614"><ele>619.3333333333334</ele><time>2026-04-27T08:26:20.999Z</time></trkpt><trkpt lat="44.55645182100802" lon="8.258215202249842"><ele>616.6666666666666</ele><time>2026-04-27T08:26:21.999Z</time></trkpt><trkpt lat="44.5566031967537" lon="8.258269042168916"><ele>614.0</ele><time>2026-04-27T08:26:22.999Z</time></trkpt><trkpt lat="44.55674888834611" lon="8.258384275073295"><ele>614.0</ele><time>2026-04-27T08:26:23.999Z</time></trkpt><trkpt lat="44.55692490851543" lon="8.258529404642028"><ele>614.0</ele><time>2026-04-27T08:26:24.999Z</time></trkpt><trkpt lat="44.55710643323431" lon="8.258679263767657"><ele>614.0</ele><time>2026-04-27T08:26:25.999Z</time></trkpt><trkpt lat="44.55728881381826" lon="8.258829829732834"><ele>620.0</ele><time>2026-04-27T08:26:26.999Z</time></trkpt><trkpt lat="44.55747051232984" lon="8.258962389338581"><ele>626.0</ele><time>2026-04-27T08:26:27.999Z</time></trkpt><trkpt lat="44.557618780320176" lon="8.259107572405307"><ele>632.0</ele><time>2026-04-27T08:26:28.999Z</time></trkpt><trkpt lat="44.55774007346515" lon="8.259233960478355"><ele>632.0</ele><time>2026-04-27T08:26:29.999Z</time></trkpt><trkpt lat="44.55783444814826" lon="8.259329376891317"><ele>632.0</ele><time>2026-04-27T08:26:30.999Z</time></trkpt><trkpt lat="44.55791686740299" lon="8.259372085355562"><ele>632.0</ele><time>2026-04-27T08:26:31.999Z</time></trkpt><trkpt lat="44.55798851484307" lon="8.25934310644597"><ele>632.0</ele><time>2026-04-27T08:26:32.999Z</time></trkpt><trkpt lat="44.55804559085757" lon="8.25922817077494"><ele>632.0</ele><time>2026-04-27T08:26:33.999Z</time></trkpt><trkpt lat="44.558089537616375" lon="8.259078179947595"><ele>634.5</ele><time>2026-04-27T08:26:34.999Z</time></trkpt><trkpt lat="44.55810369044764" lon="8.258886642859752"><ele>637.0</ele><time>2026-04-27T08:26:35.999Z</time></trkpt><trkpt lat="44.558090787120804" lon="8.258680686992564"><ele>639.5</ele><time>2026-04-27T08:26:36.999Z</time></trkpt><trkpt lat="44.558049047519326" lon="8.258469073486385"><ele>642.0</ele><time>2026-04-27T08:26:37.999Z</time></trkpt><trkpt lat="44.55801112500255" lon="8.258228402341981"><ele>641.3333333333334</ele><time>2026-04-27T08:26:38.999Z</time></trkpt><trkpt lat="44.558034908054864" lon="8.25796216233968"><ele>640.6666666666667</ele><time>2026-04-27T08:26:39.999Z</time></trkpt><trkpt lat="44.558061270429846" lon="8.257700898478815"><ele>640.0</ele><time>2026-04-27T08:26:40.999Z</time></trkpt><trkpt lat="44.55807336530387" lon="8.257452555009968"><ele>636.5</ele><time>2026-04-27T08:26:41.999Z</time></trkpt><trkpt lat="44.55810495236677" lon="8.257239988526898"><ele>633.0</ele><time>2026-04-27T08:26:42.999Z</time></trkpt><trkpt lat="44.558157759368726" lon="8.257071378302427"><ele>629.5</ele><time>2026-04-27T08:26:43.999Z</time></trkpt><trkpt lat="44.55826867375952" lon="8.256973731232357"><ele>626.0</ele><time>2026-04-27T08:26:44.999Z</time></trkpt><trkpt lat="44.55838740964348" lon="8.256883575804187"><ele>626.0</ele><time>2026-04-27T08:26:45.999Z</time></trkpt><trkpt lat="44.55850232997449" lon="8.256757096402612"><ele>626.0</ele><time>2026-04-27T08:26:46.999Z</time></trkpt><trkpt lat="44.558621850873735" lon="8.256653784792489"><ele>626.0</ele><time>2026-04-27T08:26:47.999Z</time></trkpt><trkpt lat="44.55870024298158" lon="8.25653172699598"><ele>626.0</ele><time>2026-04-27T08:26:48.999Z</time></trkpt><trkpt lat="44.558731018629125" lon="8.25638202105802"><ele>626.0</ele><time>2026-04-27T08:26:49.999Z</time></trkpt><trkpt lat="44.55871237078229" lon="8.256231449563979"><ele>626.0</ele><time>2026-04-27T08:26:50.999Z</time></trkpt><trkpt lat="44.55865052819222" lon="8.256077594012172"><ele>626.0</ele><time>2026-04-27T08:26:51.998Z</time></trkpt><trkpt lat="44.55858882418698" lon="8.255909780170198"><ele>626.0</ele><time>2026-04-27T08:26:52.998Z</time></trkpt><trkpt lat="44.558535253796954" lon="8.255741451994515"><ele>626.5</ele><time>2026-04-27T08:26:53.998Z</time></trkpt><trkpt lat="44.558518920367106" lon="8.255568539584958"><ele>627.0</ele><time>2026-04-27T08:26:54.998Z</time></trkpt><trkpt lat="44.55859125039074" lon="8.255424944869542"><ele>627.5</ele><time>2026-04-27T08:26:55.998Z</time></trkpt><trkpt lat="44.55861495563963" lon="8.255268968581484"><ele>628.0</ele><time>2026-04-27T08:26:56.998Z</time></trkpt><trkpt lat="44.55864912142288" lon="8.255131943852493"><ele>628.0</ele><time>2026-04-27T08:26:57.998Z</time></trkpt><trkpt lat="44.558638726157874" lon="8.254975389671594"><ele>628.0</ele><time>2026-04-27T08:26:58.998Z</time></trkpt><trkpt lat="44.558588818599326" lon="8.254826272552302"><ele>628.0</ele><time>2026-04-27T08:26:59.998Z</time></trkpt><trkpt lat="44.558543834862036" lon="8.254656150306594"><ele>628.0</ele><time>2026-04-27T08:27:00.998Z</time></trkpt><trkpt lat="44.55851077014675" lon="8.254473807029854"><ele>628.4</ele><time>2026-04-27T08:27:01.998Z</time></trkpt><trkpt lat="44.55847754359777" lon="8.254280104816678"><ele>628.8</ele><time>2026-04-27T08:27:02.998Z</time></trkpt><trkpt lat="44.558447818467165" lon="8.254115206032631"><ele>629.2</ele><time>2026-04-27T08:27:03.998Z</time></trkpt><trkpt lat="44.55843674706364" lon="8.25399613481394"><ele>629.6</ele><time>2026-04-27T08:27:04.998Z</time></trkpt><trkpt lat="44.55846171863223" lon="8.253902092225191"><ele>630.0</ele><time>2026-04-27T08:27:06Z</time></trkpt><trkpt lat="44.55851415656088" lon="8.25377734636914"><ele>630.0</ele><time>2026-04-27T08:27:07Z</time></trkpt><trkpt lat="44.558569895705475" lon="8.253617355500309"><ele>630.0</ele><time>2026-04-27T08:27:08Z</time></trkpt><trkpt lat="44.55862403852782" lon="8.253438533533592"><ele>630.0</ele><time>2026-04-27T08:27:09Z</time></trkpt><trkpt lat="44.558683505272874" lon="8.253242100021428"><ele>630.0</ele><time>2026-04-27T08:27:10Z</time></trkpt><trkpt lat="44.55874747667792" lon="8.253023270823638"><ele>634.6666666666666</ele><time>2026-04-27T08:27:11Z</time></trkpt><trkpt lat="44.55882488525443" lon="8.252792899604346"><ele>639.3333333333333</ele><time>2026-04-27T08:27:12Z</time></trkpt><trkpt lat="44.55890343268408" lon="8.252550909573781"><ele>644.0</ele><time>2026-04-27T08:27:13Z</time></trkpt><trkpt lat="44.558977138274805" lon="8.252293835554898"><ele>642.0</ele><time>2026-04-27T08:27:14Z</time></trkpt><trkpt lat="44.55904653233338" lon="8.252046887966406"><ele>640.0</ele><time>2026-04-27T08:27:15Z</time></trkpt><trkpt lat="44.559098041968774" lon="8.251801629259498"><ele>638.0</ele><time>2026-04-27T08:27:16Z</time></trkpt><trkpt lat="44.5591218430464" lon="8.251574957682807"><ele>635.25</ele><time>2026-04-27T08:27:17Z</time></trkpt><trkpt lat="44.55912773810619" lon="8.251359667146177"><ele>632.5</ele><time>2026-04-27T08:27:18Z</time></trkpt><trkpt lat="44.55916301580126" lon="8.251169416034267"><ele>629.75</ele><time>2026-04-27T08:27:19Z</time></trkpt><trkpt lat="44.559226153453814" lon="8.250976358254812"><ele>627.0</ele><time>2026-04-27T08:27:20Z</time></trkpt><trkpt lat="44.55937043226456" lon="8.250916717544373"><ele>627.0</ele><time>2026-04-27T08:27:21Z</time></trkpt><trkpt lat="44.55952451566961" lon="8.250873243485502"><ele>627.0</ele><time>2026-04-27T08:27:22Z</time></trkpt><trkpt lat="44.559735763356464" lon="8.250804218400726"><ele>627.0</ele><time>2026-04-27T08:27:23Z</time></trkpt><trkpt lat="44.55997869129345" lon="8.25074266700055"><ele>635.5</ele><time>2026-04-27T08:27:24Z</time></trkpt><trkpt lat="44.5602156663515" lon="8.250659436862284"><ele>644.0</ele><time>2026-04-27T08:27:25Z</time></trkpt><trkpt lat="44.560408527577984" lon="8.250539418100677"><ele>645.5</ele><time>2026-04-27T08:27:26Z</time></trkpt><trkpt lat="44.56058772088028" lon="8.25033893465526"><ele>647.0</ele><time>2026-04-27T08:27:27Z</time></trkpt><trkpt lat="44.5607635579848" lon="8.250062062149219"><ele>647.0</ele><time>2026-04-27T08:27:28Z</time></trkpt><trkpt lat="44.56093886735579" lon="8.249810676717203"><ele>647.0</ele><time>2026-04-27T08:27:29Z</time></trkpt><trkpt lat="44.56107965374674" lon="8.249626808045756"><ele>647.0</ele><time>2026-04-27T08:27:30Z</time></trkpt><trkpt lat="44.561172464296234" lon="8.249489975236134"><ele>645.75</ele><time>2026-04-27T08:27:31Z</time></trkpt><trkpt lat="44.561235853595704" lon="8.249358738062767"><ele>644.5</ele><time>2026-04-27T08:27:32Z</time></trkpt><trkpt lat="44.561244744733884" lon="8.24920670219573"><ele>643.25</ele><time>2026-04-27T08:27:33Z</time></trkpt><trkpt lat="44.56117366543116" lon="8.249071813124008"><ele>642.0</ele><time>2026-04-27T08:27:34Z</time></trkpt><trkpt lat="44.56104838531969" lon="8.248929908497518"><ele>651.5</ele><time>2026-04-27T08:27:35Z</time></trkpt><trkpt lat="44.56087591419579" lon="8.248719761419736"><ele>661.0</ele><time>2026-04-27T08:27:36Z</time></trkpt><trkpt lat="44.56070554896473" lon="8.248484788551306"><ele>661.0</ele><time>2026-04-27T08:27:37Z</time></trkpt><trkpt lat="44.56060750956958" lon="8.24829409219429"><ele>661.0</ele><time>2026-04-27T08:27:38Z</time></trkpt><trkpt lat="44.56056440101248" lon="8.248136512333064"><ele>661.0</ele><time>2026-04-27T08:27:38.999Z</time></trkpt><trkpt lat="44.56062734989249" lon="8.247996508921439"><ele>661.0</ele><time>2026-04-27T08:27:39.999Z</time></trkpt><trkpt lat="44.56064434484554" lon="8.24779665758776"><ele>665.6666666666667</ele><time>2026-04-27T08:27:40.999Z</time></trkpt><trkpt lat="44.56063798192847" lon="8.247579206790839"><ele>670.3333333333334</ele><time>2026-04-27T08:27:41.999Z</time></trkpt><trkpt lat="44.56052048038473" lon="8.247397008819165"><ele>675.0</ele><time>2026-04-27T08:27:42.999Z</time></trkpt><trkpt lat="44.56038620345465" lon="8.247244623957043"><ele>675.6666666666666</ele><time>2026-04-27T08:27:43.999Z</time></trkpt><trkpt lat="44.560235607544" lon="8.247097544113357"><ele>676.3333333333333</ele><time>2026-04-27T08:27:44.999Z</time></trkpt><trkpt lat="44.560065579418826" lon="8.246947466949049"><ele>677.0</ele><time>2026-04-27T08:27:45.999Z</time></trkpt><trkpt lat="44.559872336349784" lon="8.246858593835494"><ele>677.0</ele><time>2026-04-27T08:27:46.999Z</time></trkpt><trkpt lat="44.55966728090376" lon="8.246822366297113"><ele>677.0</ele><time>2026-04-27T08:27:47.999Z</time></trkpt><trkpt lat="44.559486616853654" lon="8.246776119997717"><ele>677.0</ele><time>2026-04-27T08:27:48.999Z</time></trkpt><trkpt lat="44.55931201418863" lon="8.246656372108632"><ele>671.6666666666666</ele><time>2026-04-27T08:27:49.999Z</time></trkpt><trkpt lat="44.55914073285581" lon="8.246521718947768"><ele>666.3333333333334</ele><time>2026-04-27T08:27:50.999Z</time></trkpt><trkpt lat="44.5590070789198" lon="8.24642101911756"><ele>661.0</ele><time>2026-04-27T08:27:51.999Z</time></trkpt><trkpt lat="44.55890139160713" lon="8.246308624064643"><ele>661.0</ele><time>2026-04-27T08:27:52.999Z</time></trkpt><trkpt lat="44.558836318853636" lon="8.24616501008027"><ele>661.0</ele><time>2026-04-27T08:27:53.999Z</time></trkpt><trkpt lat="44.55882616372323" lon="8.245984720100882"><ele>661.0</ele><time>2026-04-27T08:27:54.999Z</time></trkpt><trkpt lat="44.55885473299717" lon="8.24576516697424"><ele>661.0</ele><time>2026-04-27T08:27:55.999Z</time></trkpt><trkpt lat="44.55890492382229" lon="8.24556574435919"><ele>656.0</ele><time>2026-04-27T08:27:56.999Z</time></trkpt><trkpt lat="44.55898192723614" lon="8.2454091246772"><ele>651.0</ele><time>2026-04-27T08:27:57.999Z</time></trkpt><trkpt lat="44.559130662077735" lon="8.245349339961074"><ele>646.0</ele><time>2026-04-27T08:27:58.999Z</time></trkpt><trkpt lat="44.55927371781561" lon="8.245252909996076"><ele>641.0</ele><time>2026-04-27T08:27:59.999Z</time></trkpt><trkpt lat="44.55945574502899" lon="8.24517792501042"><ele>636.0</ele><time>2026-04-27T08:28:00.999Z</time></trkpt><trkpt lat="44.55962408657413" lon="8.245042430002785"><ele>631.0</ele><time>2026-04-27T08:28:01.999Z</time></trkpt><trkpt lat="44.559837450195396" lon="8.244894057422687"><ele>626.0</ele><time>2026-04-27T08:28:02.999Z</time></trkpt><trkpt lat="44.560036581658984" lon="8.244765422649"><ele>626.0</ele><time>2026-04-27T08:28:03.999Z</time></trkpt><trkpt lat="44.56021765050198" lon="8.244634294117255"><ele>626.0</ele><time>2026-04-27T08:28:04.999Z</time></trkpt><trkpt lat="44.5603567241962" lon="8.244490584477543"><ele>626.0</ele><time>2026-04-27T08:28:05.999Z</time></trkpt><trkpt lat="44.560428667934985" lon="8.244265462584872"><ele>630.6666666666666</ele><time>2026-04-27T08:28:06.999Z</time></trkpt><trkpt lat="44.56047993542775" lon="8.244020715358525"><ele>635.3333333333334</ele><time>2026-04-27T08:28:07.999Z</time></trkpt><trkpt lat="44.56055495274549" lon="8.243788909135892"><ele>640.0</ele><time>2026-04-27T08:28:08.999Z</time></trkpt><trkpt lat="44.56065174326449" lon="8.243572552226102"><ele>640.0</ele><time>2026-04-27T08:28:09.999Z</time></trkpt><trkpt lat="44.56074764788889" lon="8.243338784493758"><ele>640.0</ele><time>2026-04-27T08:28:10.999Z</time></trkpt><trkpt lat="44.5608239787058" lon="8.243094535479278"><ele>640.0</ele><time>2026-04-27T08:28:11.999Z</time></trkpt><trkpt lat="44.560884364153544" lon="8.242884228656337"><ele>640.75</ele><time>2026-04-27T08:28:12.999Z</time></trkpt><trkpt lat="44.56092903627982" lon="8.24268990606139"><ele>641.5</ele><time>2026-04-27T08:28:13.999Z</time></trkpt><trkpt lat="44.560980616568266" lon="8.242534309460133"><ele>642.25</ele><time>2026-04-27T08:28:14.999Z</time></trkpt><trkpt lat="44.561104203501074" lon="8.24242599162066"><ele>643.0</ele><time>2026-04-27T08:28:15.999Z</time></trkpt><trkpt lat="44.56126632424756" lon="8.242332743368992"><ele>635.0</ele><time>2026-04-27T08:28:16.999Z</time></trkpt><trkpt lat="44.56141157261176" lon="8.242214069056823"><ele>627.0</ele><time>2026-04-27T08:28:17.999Z</time></trkpt><trkpt lat="44.5615580037795" lon="8.24207710751468"><ele>619.0</ele><time>2026-04-27T08:28:18.999Z</time></trkpt><trkpt lat="44.56173248134243" lon="8.241948456157617"><ele>619.0</ele><time>2026-04-27T08:28:19.999Z</time></trkpt><trkpt lat="44.56191670835876" lon="8.241859618858362"><ele>619.0</ele><time>2026-04-27T08:28:20.999Z</time></trkpt><trkpt lat="44.56210331489764" lon="8.241837569091107"><ele>619.0</ele><time>2026-04-27T08:28:21.999Z</time></trkpt><trkpt lat="44.56229055103148" lon="8.24187565305769"><ele>619.3333333333334</ele><time>2026-04-27T08:28:22.999Z</time></trkpt><trkpt lat="44.5624568552967" lon="8.24199845693793"><ele>619.6666666666666</ele><time>2026-04-27T08:28:23.999Z</time></trkpt><trkpt lat="44.56266833024232" lon="8.24214597893807"><ele>620.0</ele><time>2026-04-27T08:28:24.999Z</time></trkpt><trkpt lat="44.562929929872574" lon="8.2421804462352"><ele>618.3333333333333</ele><time>2026-04-27T08:28:25.999Z</time></trkpt><trkpt lat="44.56313210430312" lon="8.242060297641398"><ele>616.6666666666666</ele><time>2026-04-27T08:28:26.999Z</time></trkpt><trkpt lat="44.563318689125325" lon="8.241991946859539"><ele>615.0</ele><time>2026-04-27T08:28:27.999Z</time></trkpt><trkpt lat="44.56349674953683" lon="8.241986019446609"><ele>615.0</ele><time>2026-04-27T08:28:28.999Z</time></trkpt><trkpt lat="44.56325912577787" lon="8.242006163523012"><ele>615.0</ele><time>2026-04-27T08:28:29.999Z</time></trkpt><trkpt lat="44.563431317105845" lon="8.241984006017045"><ele>615.0</ele><time>2026-04-27T08:28:30.999Z</time></trkpt><trkpt lat="44.56361506932435" lon="8.241994438374661"><ele>612.3333333333334</ele><time>2026-04-27T08:28:31.999Z</time></trkpt><trkpt lat="44.56381765158861" lon="8.242017158855683"><ele>609.6666666666667</ele><time>2026-04-27T08:28:32.999Z</time></trkpt><trkpt lat="44.564023213177016" lon="8.242055560470481"><ele>607.0</ele><time>2026-04-27T08:28:33.999Z</time></trkpt><trkpt lat="44.56420580961247" lon="8.24213712210146"><ele>607.0</ele><time>2026-04-27T08:28:34.999Z</time></trkpt><trkpt lat="44.56439836401674" lon="8.242249910516477"><ele>607.0</ele><time>2026-04-27T08:28:35.999Z</time></trkpt><trkpt lat="44.56460289945315" lon="8.242372092045567"><ele>607.0</ele><time>2026-04-27T08:28:36.999Z</time></trkpt><trkpt lat="44.56482017807989" lon="8.242486017992745"><ele>609.6666666666667</ele><time>2026-04-27T08:28:37.999Z</time></trkpt><trkpt lat="44.56503001300982" lon="8.242591653866068"><ele>612.3333333333334</ele><time>2026-04-27T08:28:38.998Z</time></trkpt><trkpt lat="44.56521492014565" lon="8.242668718376514"><ele>615.0</ele><time>2026-04-27T08:28:39.998Z</time></trkpt><trkpt lat="44.5653681312552" lon="8.242778439597025"><ele>616.5</ele><time>2026-04-27T08:28:40.998Z</time></trkpt><trkpt lat="44.565516778162596" lon="8.242825869178876"><ele>618.0</ele><time>2026-04-27T08:28:41.998Z</time></trkpt><trkpt lat="44.56562822439425" lon="8.242857890359534"><ele>619.5</ele><time>2026-04-27T08:28:42.998Z</time></trkpt><trkpt lat="44.565730702685585" lon="8.242819167680072"><ele>621.0</ele><time>2026-04-27T08:28:43.998Z</time></trkpt><trkpt lat="44.5657845983038" lon="8.242680203411025"><ele>621.0</ele><time>2026-04-27T08:28:44.998Z</time></trkpt><trkpt lat="44.56579295847321" lon="8.24250009262021"><ele>621.0</ele><time>2026-04-27T08:28:45.998Z</time></trkpt><trkpt lat="44.5658487709127" lon="8.242276834982222"><ele>621.0</ele><time>2026-04-27T08:28:46.998Z</time></trkpt><trkpt lat="44.56591936952777" lon="8.242025736746836"><ele>615.6666666666666</ele><time>2026-04-27T08:28:47.998Z</time></trkpt><trkpt lat="44.565990345691965" lon="8.241756372013059"><ele>610.3333333333333</ele><time>2026-04-27T08:28:48.998Z</time></trkpt><trkpt lat="44.56605821402899" lon="8.241459701339073"><ele>605.0</ele><time>2026-04-27T08:28:49.998Z</time></trkpt><trkpt lat="44.566100875277485" lon="8.241137779325056"><ele>599.5</ele><time>2026-04-27T08:28:50.998Z</time></trkpt><trkpt lat="44.56611154949165" lon="8.240799834175325"><ele>594.0</ele><time>2026-04-27T08:28:51.998Z</time></trkpt><trkpt lat="44.56611482500592" lon="8.240457343676754"><ele>589.0</ele><time>2026-04-27T08:28:52.998Z</time></trkpt><trkpt lat="44.566149187339285" lon="8.24011678896107"><ele>584.0</ele><time>2026-04-27T08:28:53.998Z</time></trkpt><trkpt lat="44.56619338251814" lon="8.239803090572442"><ele>590.3333333333333</ele><time>2026-04-27T08:28:54.998Z</time></trkpt><trkpt lat="44.566241273976" lon="8.239496329729326"><ele>596.6666666666666</ele><time>2026-04-27T08:28:55.998Z</time></trkpt><trkpt lat="44.56629155124557" lon="8.239198190940257"><ele>603.0</ele><time>2026-04-27T08:28:56.998Z</time></trkpt><trkpt lat="44.566370601173354" lon="8.238925114743008"><ele>603.0</ele><time>2026-04-27T08:28:57.998Z</time></trkpt><trkpt lat="44.56643951851096" lon="8.238666780067568"><ele>603.0</ele><time>2026-04-27T08:28:58.998Z</time></trkpt><trkpt lat="44.56648135269657" lon="8.238407409893055"><ele>603.0</ele><time>2026-04-27T08:28:59.998Z</time></trkpt><trkpt lat="44.566514993813925" lon="8.238172749495119"><ele>601.0</ele><time>2026-04-27T08:29:00.998Z</time></trkpt><trkpt lat="44.56647909261596" lon="8.237946148153172"><ele>599.0</ele><time>2026-04-27T08:29:01.998Z</time></trkpt><trkpt lat="44.566430423221895" lon="8.237715111525668"><ele>597.0</ele><time>2026-04-27T08:29:02.998Z</time></trkpt><trkpt lat="44.56636564565929" lon="8.2374917199162"><ele>594.3333333333334</ele><time>2026-04-27T08:29:03.998Z</time></trkpt><trkpt lat="44.56629325558292" lon="8.237259484167613"><ele>591.6666666666667</ele><time>2026-04-27T08:29:04.998Z</time></trkpt><trkpt lat="44.56621353152143" lon="8.237017175777794"><ele>589.0</ele><time>2026-04-27T08:29:05.998Z</time></trkpt><trkpt lat="44.56615009671684" lon="8.236774401275715"><ele>587.2</ele><time>2026-04-27T08:29:06.998Z</time></trkpt><trkpt lat="44.566075618277395" lon="8.236574244271404"><ele>585.4</ele><time>2026-04-27T08:29:07.998Z</time></trkpt><trkpt lat="44.566007108442186" lon="8.236458596506605"><ele>583.6</ele><time>2026-04-27T08:29:08.998Z</time></trkpt><trkpt lat="44.56599853946845" lon="8.236345641747999"><ele>581.8</ele><time>2026-04-27T08:29:09.998Z</time></trkpt><trkpt lat="44.5660342435546" lon="8.236260916482266"><ele>580.0</ele><time>2026-04-27T08:29:10.998Z</time></trkpt><trkpt lat="44.566111065818816" lon="8.236226273232345"><ele>578.0</ele><time>2026-04-27T08:29:12Z</time></trkpt><trkpt lat="44.56619690834919" lon="8.236325072899936"><ele>576.0</ele><time>2026-04-27T08:29:13Z</time></trkpt><trkpt lat="44.5663236366499" lon="8.236400289786333"><ele>574.0</ele><time>2026-04-27T08:29:14Z</time></trkpt><trkpt lat="44.56649331008425" lon="8.236479441346152"><ele>572.0</ele><time>2026-04-27T08:29:15Z</time></trkpt><trkpt lat="44.56665135026467" lon="8.236592833250901"><ele>574.3333333333333</ele><time>2026-04-27T08:29:16Z</time></trkpt><trkpt lat="44.56683326167539" lon="8.236685260880446"><ele>576.6666666666666</ele><time>2026-04-27T08:29:17Z</time></trkpt><trkpt lat="44.567039993282755" lon="8.236780029989438"><ele>579.0</ele><time>2026-04-27T08:29:18Z</time></trkpt><trkpt lat="44.567277241276635" lon="8.23687533860669"><ele>579.0</ele><time>2026-04-27T08:29:19Z</time></trkpt><trkpt lat="44.567519669386556" lon="8.236964142397394"><ele>579.0</ele><time>2026-04-27T08:29:20Z</time></trkpt><trkpt lat="44.56774890113101" lon="8.237043305169646"><ele>575.0</ele><time>2026-04-27T08:29:21Z</time></trkpt><trkpt lat="44.56795506397964" lon="8.237111324059573"><ele>571.0</ele><time>2026-04-27T08:29:22Z</time></trkpt><trkpt lat="44.56814428916397" lon="8.237190787285295"><ele>567.0</ele><time>2026-04-27T08:29:23Z</time></trkpt><trkpt lat="44.568323476582435" lon="8.237276560310713"><ele>574.3333333333334</ele><time>2026-04-27T08:29:24Z</time></trkpt><trkpt lat="44.56849732810765" lon="8.237343472739182"><ele>581.6666666666667</ele><time>2026-04-27T08:29:25Z</time></trkpt><trkpt lat="44.5686668932609" lon="8.23738632745718"><ele>589.0</ele><time>2026-04-27T08:29:26Z</time></trkpt><trkpt lat="44.568826310232446" lon="8.23735791879937"><ele>580.6666666666667</ele><time>2026-04-27T08:29:27Z</time></trkpt><trkpt lat="44.56899243412228" lon="8.237297437580011"><ele>572.3333333333334</ele><time>2026-04-27T08:29:28Z</time></trkpt><trkpt lat="44.56916795532392" lon="8.237217158318854"><ele>564.0</ele><time>2026-04-27T08:29:29Z</time></trkpt><trkpt lat="44.569342998584744" lon="8.237110545877321"><ele>566.0</ele><time>2026-04-27T08:29:30Z</time></trkpt><trkpt lat="44.56953577717823" lon="8.237037947947064"><ele>568.0</ele><time>2026-04-27T08:29:31Z</time></trkpt><trkpt lat="44.56970831862561" lon="8.23695497390307"><ele>570.0</ele><time>2026-04-27T08:29:32Z</time></trkpt><trkpt lat="44.569870143953544" lon="8.236883952717958"><ele>570.0</ele><time>2026-04-27T08:29:33Z</time></trkpt><trkpt lat="44.57002389301289" lon="8.23681778900006"><ele>570.0</ele><time>2026-04-27T08:29:34Z</time></trkpt><trkpt lat="44.5701579422025" lon="8.23674374774483"><ele>570.0</ele><time>2026-04-27T08:29:35Z</time></trkpt><trkpt lat="44.57026766531684" lon="8.236622966041233"><ele>570.0</ele><time>2026-04-27T08:29:36Z</time></trkpt><trkpt lat="44.57034545790347" lon="8.23649458511238"><ele>567.75</ele><time>2026-04-27T08:29:37Z</time></trkpt><trkpt lat="44.57038559081886" lon="8.236338477882034"><ele>565.5</ele><time>2026-04-27T08:29:38Z</time></trkpt><trkpt lat="44.57038189371157" lon="8.236172839503938"><ele>563.25</ele><time>2026-04-27T08:29:39Z</time></trkpt><trkpt lat="44.57033863644595" lon="8.235998605611032"><ele>561.0</ele><time>2026-04-27T08:29:40Z</time></trkpt><trkpt lat="44.57026712754335" lon="8.235824501308114"><ele>561.0</ele><time>2026-04-27T08:29:41Z</time></trkpt><trkpt lat="44.57020324677385" lon="8.235641109524703"><ele>561.0</ele><time>2026-04-27T08:29:42Z</time></trkpt><trkpt lat="44.57014829095421" lon="8.235447319794867"><ele>561.0</ele><time>2026-04-27T08:29:43Z</time></trkpt><trkpt lat="44.57012104016337" lon="8.235251054442882"><ele>561.0</ele><time>2026-04-27T08:29:44Z</time></trkpt><trkpt lat="44.57015199480922" lon="8.235074589985258"><ele>560.3333333333334</ele><time>2026-04-27T08:29:45Z</time></trkpt><trkpt lat="44.570212990818895" lon="8.234919733963125"><ele>559.6666666666667</ele><time>2026-04-27T08:29:46Z</time></trkpt><trkpt lat="44.57030567183597" lon="8.23472858340464"><ele>559.0</ele><time>2026-04-27T08:29:47Z</time></trkpt><trkpt lat="44.57039635434298" lon="8.23449245463497"><ele>561.0</ele><time>2026-04-27T08:29:48Z</time></trkpt><trkpt lat="44.57049706825561" lon="8.234253237833817"><ele>563.0</ele><time>2026-04-27T08:29:49Z</time></trkpt><trkpt lat="44.570592186525175" lon="8.233991291450554"><ele>565.0</ele><time>2026-04-27T08:29:50Z</time></trkpt><trkpt lat="44.57068460203844" lon="8.233715770179412"><ele>565.0</ele><time>2026-04-27T08:29:51Z</time></trkpt><trkpt lat="44.5707480623118" lon="8.23345407679049"><ele>565.0</ele><time>2026-04-27T08:29:52Z</time></trkpt><trkpt lat="44.570802921543915" lon="8.23321526763364"><ele>565.0</ele><time>2026-04-27T08:29:53Z</time></trkpt><trkpt lat="44.570843157925644" lon="8.232978578518441"><ele>565.5</ele><time>2026-04-27T08:29:54Z</time></trkpt><trkpt lat="44.57086247756134" lon="8.232764254976736"><ele>566.0</ele><time>2026-04-27T08:29:55Z</time></trkpt><trkpt lat="44.57086528129902" lon="8.232573498263003"><ele>566.5</ele><time>2026-04-27T08:29:55.999Z</time></trkpt><trkpt lat="44.57085549094327" lon="8.232386639270423"><ele>567.0</ele><time>2026-04-27T08:29:56.999Z</time></trkpt><trkpt lat="44.57090022389475" lon="8.23212296769602"><ele>567.0</ele><time>2026-04-27T08:29:57.999Z</time></trkpt><trkpt lat="44.57069946639076" lon="8.232014677352558"><ele>567.0</ele><time>2026-04-27T08:29:58.999Z</time></trkpt><trkpt lat="44.57058625505731" lon="8.231859406531076"><ele>567.0</ele><time>2026-04-27T08:29:59.999Z</time></trkpt><trkpt lat="44.57046188655318" lon="8.231734293943868"><ele>561.0</ele><time>2026-04-27T08:30:00.999Z</time></trkpt><trkpt lat="44.570334062523514" lon="8.231653139581129"><ele>555.0</ele><time>2026-04-27T08:30:01.999Z</time></trkpt><trkpt lat="44.570187964543905" lon="8.23161543265465"><ele>549.0</ele><time>2026-04-27T08:30:02.999Z</time></trkpt><trkpt lat="44.570050962606075" lon="8.23155799435834"><ele>543.0</ele><time>2026-04-27T08:30:03.999Z</time></trkpt><trkpt lat="44.56992321734988" lon="8.231496758848788"><ele>548.5</ele><time>2026-04-27T08:30:04.999Z</time></trkpt><trkpt lat="44.56983116275065" lon="8.23142425425515"><ele>554.0</ele><time>2026-04-27T08:30:05.999Z</time></trkpt><trkpt lat="44.56976448385818" lon="8.231330673735167"><ele>559.5</ele><time>2026-04-27T08:30:06.999Z</time></trkpt><trkpt lat="44.569735198723734" lon="8.231169680334114"><ele>565.0</ele><time>2026-04-27T08:30:07.999Z</time></trkpt><trkpt lat="44.56967742444868" lon="8.230993612239661"><ele>565.0</ele><time>2026-04-27T08:30:08.999Z</time></trkpt><trkpt lat="44.56957405278013" lon="8.230845764520764"><ele>565.0</ele><time>2026-04-27T08:30:09.999Z</time></trkpt><trkpt lat="44.569428959936275" lon="8.230708367446622"><ele>565.0</ele><time>2026-04-27T08:30:10.999Z</time></trkpt><trkpt lat="44.56931864627236" lon="8.230548540366465"><ele>557.4</ele><time>2026-04-27T08:30:11.999Z</time></trkpt><trkpt lat="44.569262651061145" lon="8.230397352413643"><ele>549.8</ele><time>2026-04-27T08:30:12.999Z</time></trkpt><trkpt lat="44.56925009372267" lon="8.230273582885276"><ele>542.2</ele><time>2026-04-27T08:30:13.999Z</time></trkpt><trkpt lat="44.56929015748973" lon="8.230134527537727"><ele>534.6</ele><time>2026-04-27T08:30:14.999Z</time></trkpt><trkpt lat="44.56936281244621" lon="8.230023488691893"><ele>527.0</ele><time>2026-04-27T08:30:15.999Z</time></trkpt><trkpt lat="44.56947213203849" lon="8.229902503381702"><ele>534.0</ele><time>2026-04-27T08:30:16.999Z</time></trkpt><trkpt lat="44.56957163424052" lon="8.229728573337459"><ele>541.0</ele><time>2026-04-27T08:30:17.999Z</time></trkpt><trkpt lat="44.56968220971875" lon="8.229524847201233"><ele>548.0</ele><time>2026-04-27T08:30:18.999Z</time></trkpt><trkpt lat="44.56977924865242" lon="8.22931134832289"><ele>548.0</ele><time>2026-04-27T08:30:19.999Z</time></trkpt><trkpt lat="44.56983866917904" lon="8.229105260085745"><ele>548.0</ele><time>2026-04-27T08:30:20.999Z</time></trkpt><trkpt lat="44.5698659684249" lon="8.228910387143024"><ele>548.0</ele><time>2026-04-27T08:30:21.999Z</time></trkpt><trkpt lat="44.56985532318215" lon="8.228726669839661"><ele>548.0</ele><time>2026-04-27T08:30:22.999Z</time></trkpt><trkpt lat="44.56978432658306" lon="8.228546499580641"><ele>548.0</ele><time>2026-04-27T08:30:23.999Z</time></trkpt><trkpt lat="44.569666741722216" lon="8.228392407503746"><ele>548.0</ele><time>2026-04-27T08:30:24.999Z</time></trkpt><trkpt lat="44.569533074922816" lon="8.228244724969485"><ele>548.0</ele><time>2026-04-27T08:30:25.999Z</time></trkpt><trkpt lat="44.56939460247904" lon="8.2281351695939"><ele>542.0</ele><time>2026-04-27T08:30:26.999Z</time></trkpt><trkpt lat="44.56926733553279" lon="8.22806426958333"><ele>536.0</ele><time>2026-04-27T08:30:27.999Z</time></trkpt><trkpt lat="44.56917225784736" lon="8.227971099880332"><ele>530.0</ele><time>2026-04-27T08:30:28.999Z</time></trkpt><trkpt lat="44.569136776558885" lon="8.227847184727834"><ele>524.0</ele><time>2026-04-27T08:30:29.999Z</time></trkpt><trkpt lat="44.569151909917004" lon="8.227723130272299"><ele>518.0</ele><time>2026-04-27T08:30:30.999Z</time></trkpt><trkpt lat="44.56924449986736" lon="8.227627324146143"><ele>518.0</ele><time>2026-04-27T08:30:31.999Z</time></trkpt><trkpt lat="44.56931757066306" lon="8.227487217174055"><ele>518.0</ele><time>2026-04-27T08:30:32.999Z</time></trkpt><trkpt lat="44.56940043625207" lon="8.227328669752914"><ele>518.0</ele><time>2026-04-27T08:30:33.999Z</time></trkpt><trkpt lat="44.56946754907649" lon="8.22718730116491"><ele>518.0</ele><time>2026-04-27T08:30:34.999Z</time></trkpt><trkpt lat="44.5695424059535" lon="8.227092676591429"><ele>518.0</ele><time>2026-04-27T08:30:35.999Z</time></trkpt><trkpt lat="44.56965195748947" lon="8.2271115052647"><ele>518.0</ele><time>2026-04-27T08:30:36.999Z</time></trkpt><trkpt lat="44.56977496293912" lon="8.227112072558983"><ele>518.0</ele><time>2026-04-27T08:30:37.999Z</time></trkpt><trkpt lat="44.56991874646841" lon="8.227089661732839"><ele>518.0</ele><time>2026-04-27T08:30:38.999Z</time></trkpt><trkpt lat="44.570053523069404" lon="8.227044502474698"><ele>518.0</ele><time>2026-04-27T08:30:39.999Z</time></trkpt><trkpt lat="44.570170057672186" lon="8.226942150350768"><ele>518.0</ele><time>2026-04-27T08:30:40.999Z</time></trkpt><trkpt lat="44.57025442764266" lon="8.226783690768912"><ele>518.0</ele><time>2026-04-27T08:30:41.999Z</time></trkpt><trkpt lat="44.57029528705337" lon="8.22657252724853"><ele>518.0</ele><time>2026-04-27T08:30:42.999Z</time></trkpt><trkpt lat="44.57032122728871" lon="8.226362441403674"><ele>523.3333333333333</ele><time>2026-04-27T08:30:43.999Z</time></trkpt><trkpt lat="44.57035095244739" lon="8.226140505685319"><ele>528.6666666666666</ele><time>2026-04-27T08:30:44.999Z</time></trkpt><trkpt lat="44.57036355182681" lon="8.225922653815122"><ele>534.0</ele><time>2026-04-27T08:30:45.999Z</time></trkpt><trkpt lat="44.57035867715102" lon="8.225717926860195"><ele>527.75</ele><time>2026-04-27T08:30:46.999Z</time></trkpt><trkpt lat="44.57036429327395" lon="8.22554353832286"><ele>521.5</ele><time>2026-04-27T08:30:47.999Z</time></trkpt><trkpt lat="44.570416402717704" lon="8.225411181360812"><ele>515.25</ele><time>2026-04-27T08:30:48.999Z</time></trkpt><trkpt lat="44.57049296648716" lon="8.225318291160553"><ele>509.0</ele><time>2026-04-27T08:30:49.999Z</time></trkpt><trkpt lat="44.57061020440627" lon="8.225256320613179"><ele>509.0</ele><time>2026-04-27T08:30:50.999Z</time></trkpt><trkpt lat="44.5707563550474" lon="8.225194254368677"><ele>509.0</ele><time>2026-04-27T08:30:51.999Z</time></trkpt><trkpt lat="44.57091847617539" lon="8.225147362519879"><ele>509.0</ele><time>2026-04-27T08:30:52.999Z</time></trkpt><trkpt lat="44.571103301955844" lon="8.225108002870705"><ele>511.0</ele><time>2026-04-27T08:30:53.999Z</time></trkpt><trkpt lat="44.571295999072696" lon="8.225073364960187"><ele>513.0</ele><time>2026-04-27T08:30:54.999Z</time></trkpt><trkpt lat="44.57147470593122" lon="8.22504417961145"><ele>515.0</ele><time>2026-04-27T08:30:55.999Z</time></trkpt><trkpt lat="44.5716365778795" lon="8.224995342102552"><ele>515.0</ele><time>2026-04-27T08:30:56.999Z</time></trkpt><trkpt lat="44.57178830877614" lon="8.224897070514597"><ele>515.0</ele><time>2026-04-27T08:30:57.999Z</time></trkpt><trkpt lat="44.57191319316409" lon="8.224779422599347"><ele>515.0</ele><time>2026-04-27T08:30:58.999Z</time></trkpt><trkpt lat="44.57204480960531" lon="8.224693330871306"><ele>515.25</ele><time>2026-04-27T08:30:59.999Z</time></trkpt><trkpt lat="44.572143660003434" lon="8.224592706870833"><ele>515.5</ele><time>2026-04-27T08:31:00.999Z</time></trkpt><trkpt lat="44.572220803120075" lon="8.224442331508229"><ele>515.75</ele><time>2026-04-27T08:31:01.999Z</time></trkpt><trkpt lat="44.57224670464946" lon="8.22421606059031"><ele>516.0</ele><time>2026-04-27T08:31:02.998Z</time></trkpt><trkpt lat="44.57224869291769" lon="8.224013341418281"><ele>510.75</ele><time>2026-04-27T08:31:03.998Z</time></trkpt><trkpt lat="44.57227473489023" lon="8.223842086008405"><ele>505.5</ele><time>2026-04-27T08:31:04.998Z</time></trkpt><trkpt lat="44.57230265662043" lon="8.223677280668358"><ele>500.25</ele><time>2026-04-27T08:31:05.998Z</time></trkpt><trkpt lat="44.57235849269147" lon="8.223516813527702"><ele>495.0</ele><time>2026-04-27T08:31:06.998Z</time></trkpt><trkpt lat="44.572469692853964" lon="8.223395718140777"><ele>495.0</ele><time>2026-04-27T08:31:07.998Z</time></trkpt><trkpt lat="44.57259663251417" lon="8.223246115656307"><ele>495.0</ele><time>2026-04-27T08:31:08.998Z</time></trkpt><trkpt lat="44.57270222460897" lon="8.223085079134336"><ele>495.0</ele><time>2026-04-27T08:31:09.998Z</time></trkpt><trkpt lat="44.57280580387577" lon="8.222942162765522"><ele>492.25</ele><time>2026-04-27T08:31:10.998Z</time></trkpt><trkpt lat="44.572887270246284" lon="8.222803578993776"><ele>489.5</ele><time>2026-04-27T08:31:11.998Z</time></trkpt><trkpt lat="44.57292359062276" lon="8.222655104263804"><ele>486.75</ele><time>2026-04-27T08:31:12.998Z</time></trkpt><trkpt lat="44.572903716025664" lon="8.222498196222897"><ele>484.0</ele><time>2026-04-27T08:31:13.998Z</time></trkpt><trkpt lat="44.57283531568989" lon="8.222340340435535"><ele>486.0</ele><time>2026-04-27T08:31:14.998Z</time></trkpt><trkpt lat="44.5727106346719" lon="8.222221906702917"><ele>488.0</ele><time>2026-04-27T08:31:15.998Z</time></trkpt><trkpt lat="44.57256142857973" lon="8.222160963913513"><ele>490.0</ele><time>2026-04-27T08:31:16.998Z</time></trkpt><trkpt lat="44.572433836762144" lon="8.222091363901487"><ele>492.0</ele><time>2026-04-27T08:31:18Z</time></trkpt><trkpt lat="44.57238062764383" lon="8.221954299720426"><ele>492.0</ele><time>2026-04-27T08:31:19Z</time></trkpt><trkpt lat="44.572351780333925" lon="8.221780709235288"><ele>492.0</ele><time>2026-04-27T08:31:20Z</time></trkpt><trkpt lat="44.57235718548544" lon="8.221566016257105"><ele>492.0</ele><time>2026-04-27T08:31:21Z</time></trkpt><trkpt lat="44.57231574990934" lon="8.221338761904724"><ele>492.0</ele><time>2026-04-27T08:31:22Z</time></trkpt><trkpt lat="44.57222600961188" lon="8.221143970559785"><ele>490.5</ele><time>2026-04-27T08:31:23Z</time></trkpt><trkpt lat="44.57216221651404" lon="8.221001504316366"><ele>489.0</ele><time>2026-04-27T08:31:24Z</time></trkpt><trkpt lat="44.5721412643521" lon="8.22085662056535"><ele>487.5</ele><time>2026-04-27T08:31:25Z</time></trkpt><trkpt lat="44.572180045400685" lon="8.22071029685401"><ele>486.0</ele><time>2026-04-27T08:31:26Z</time></trkpt><trkpt lat="44.572305083366984" lon="8.220627642609081"><ele>481.66666666666663</ele><time>2026-04-27T08:31:27Z</time></trkpt><trkpt lat="44.57240399970332" lon="8.22047085920568"><ele>477.3333333333333</ele><time>2026-04-27T08:31:28Z</time></trkpt><trkpt lat="44.57246467731143" lon="8.220258282356925"><ele>473.0</ele><time>2026-04-27T08:31:29Z</time></trkpt><trkpt lat="44.57245661607689" lon="8.22004696349377"><ele>473.0</ele><time>2026-04-27T08:31:30Z</time></trkpt><trkpt lat="44.57244675134722" lon="8.219869149146122"><ele>473.0</ele><time>2026-04-27T08:31:31Z</time></trkpt><trkpt lat="44.57246995514317" lon="8.219686179448768"><ele>473.0</ele><time>2026-04-27T08:31:32Z</time></trkpt><trkpt lat="44.572574168064065" lon="8.219476866149884"><ele>473.0</ele><time>2026-04-27T08:31:33Z</time></trkpt><trkpt lat="44.57273220715941" lon="8.219311982637292"><ele>469.75</ele><time>2026-04-27T08:31:34Z</time></trkpt><trkpt lat="44.572811441661116" lon="8.219220891977198"><ele>466.5</ele><time>2026-04-27T08:31:35Z</time></trkpt><trkpt lat="44.57285267382811" lon="8.219061036182744"><ele>463.25</ele><time>2026-04-27T08:31:36Z</time></trkpt><trkpt lat="44.57284415630417" lon="8.218865660396048"><ele>460.0</ele><time>2026-04-27T08:31:37Z</time></trkpt><trkpt lat="44.57278010808766" lon="8.218661518193263"><ele>459.0</ele><time>2026-04-27T08:31:38Z</time></trkpt><trkpt lat="44.57271410047129" lon="8.21847301681006"><ele>458.0</ele><time>2026-04-27T08:31:39Z</time></trkpt><trkpt lat="44.572671359532244" lon="8.218311411239572"><ele>457.0</ele><time>2026-04-27T08:31:40Z</time></trkpt><trkpt lat="44.57267381864499" lon="8.218163005370155"><ele>456.0</ele><time>2026-04-27T08:31:41Z</time></trkpt><trkpt lat="44.57272597716212" lon="8.218038053296208"><ele>457.66666666666663</ele><time>2026-04-27T08:31:42Z</time></trkpt><trkpt lat="44.57284901096566" lon="8.217973667222779"><ele>459.3333333333333</ele><time>2026-04-27T08:31:43Z</time></trkpt><trkpt lat="44.57297663509853" lon="8.217845496582173"><ele>461.0</ele><time>2026-04-27T08:31:44Z</time></trkpt><trkpt lat="44.573089155462654" lon="8.21767004078733"><ele>461.0</ele><time>2026-04-27T08:31:45Z</time></trkpt><trkpt lat="44.573140816566585" lon="8.217474262186037"><ele>461.0</ele><time>2026-04-27T08:31:46Z</time></trkpt><trkpt lat="44.573189403211096" lon="8.217330145704286"><ele>461.0</ele><time>2026-04-27T08:31:47Z</time></trkpt><trkpt lat="44.57328218978618" lon="8.217255602037465"><ele>461.0</ele><time>2026-04-27T08:31:48Z</time></trkpt><trkpt lat="44.573395269746186" lon="8.21730031881855"><ele>461.0</ele><time>2026-04-27T08:31:49Z</time></trkpt><trkpt lat="44.57352995518509" lon="8.217320901442394"><ele>461.0</ele><time>2026-04-27T08:31:50Z</time></trkpt><trkpt lat="44.57367219119253" lon="8.217355254148595"><ele>461.0</ele><time>2026-04-27T08:31:51Z</time></trkpt><trkpt lat="44.57381675114002" lon="8.21727827786515"><ele>461.0</ele><time>2026-04-27T08:31:52Z</time></trkpt><trkpt lat="44.57394572276255" lon="8.21710986813209"><ele>456.5</ele><time>2026-04-27T08:31:53Z</time></trkpt><trkpt lat="44.574037254272596" lon="8.216929865804564"><ele>452.0</ele><time>2026-04-27T08:31:54Z</time></trkpt><trkpt lat="44.57413585366439" lon="8.216817733147089"><ele>447.5</ele><time>2026-04-27T08:31:55Z</time></trkpt><trkpt lat="44.574236655855536" lon="8.216667705931137"><ele>443.0</ele><time>2026-04-27T08:31:56Z</time></trkpt><trkpt lat="44.574425640450194" lon="8.216805595636105"><ele>443.66666666666663</ele><time>2026-04-27T08:31:57Z</time></trkpt><trkpt lat="44.57464340750689" lon="8.216842172850876"><ele>444.33333333333337</ele><time>2026-04-27T08:31:58Z</time></trkpt><trkpt lat="44.57487162494812" lon="8.21686804356641"><ele>445.0</ele><time>2026-04-27T08:31:59Z</time></trkpt><trkpt lat="44.575066335618594" lon="8.216878630030697"><ele>445.0</ele><time>2026-04-27T08:32:00Z</time></trkpt><trkpt lat="44.57523994365075" lon="8.216891511915591"><ele>445.0</ele><time>2026-04-27T08:32:01Z</time></trkpt><trkpt lat="44.57539088569353" lon="8.216906655222283"><ele>445.0</ele><time>2026-04-27T08:32:02Z</time></trkpt><trkpt lat="44.57550422051627" lon="8.216898609904119"><ele>445.0</ele><time>2026-04-27T08:32:02.999Z</time></trkpt><trkpt lat="44.575599580537705" lon="8.216828570018867"><ele>444.33333333333337</ele><time>2026-04-27T08:32:03.999Z</time></trkpt><trkpt lat="44.575669979289096" lon="8.216681809182372"><ele>443.66666666666663</ele><time>2026-04-27T08:32:04.999Z</time></trkpt><trkpt lat="44.57572075012328" lon="8.21647782623395"><ele>443.0</ele><time>2026-04-27T08:32:05.999Z</time></trkpt><trkpt lat="44.57577797655717" lon="8.216225842129177"><ele>443.0</ele><time>2026-04-27T08:32:06.999Z</time></trkpt><trkpt lat="44.5758480161401" lon="8.215980870451348"><ele>443.0</ele><time>2026-04-27T08:32:07.999Z</time></trkpt><trkpt lat="44.575897834907" lon="8.215789471287906"><ele>443.0</ele><time>2026-04-27T08:32:08.999Z</time></trkpt><trkpt lat="44.57590977602739" lon="8.215595018632508"><ele>442.66666666666663</ele><time>2026-04-27T08:32:09.999Z</time></trkpt><trkpt lat="44.57583997385154" lon="8.215374591518232"><ele>442.33333333333337</ele><time>2026-04-27T08:32:10.999Z</time></trkpt><trkpt lat="44.575721771101264" lon="8.215105743739535"><ele>442.0</ele><time>2026-04-27T08:32:11.999Z</time></trkpt><trkpt lat="44.57565889896956" lon="8.214898972380729"><ele>439.5</ele><time>2026-04-27T08:32:12.999Z</time></trkpt><trkpt lat="44.575605439246786" lon="8.214715455599634"><ele>437.0</ele><time>2026-04-27T08:32:13.999Z</time></trkpt><trkpt lat="44.57557510558874" lon="8.214549331375123"><ele>434.5</ele><time>2026-04-27T08:32:14.999Z</time></trkpt><trkpt lat="44.57559481784689" lon="8.21440150124704"><ele>432.0</ele><time>2026-04-27T08:32:15.999Z</time></trkpt><trkpt lat="44.57567448692054" lon="8.2143175570192"><ele>432.0</ele><time>2026-04-27T08:32:16.999Z</time></trkpt><trkpt lat="44.57576387645762" lon="8.214254842419182"><ele>432.0</ele><time>2026-04-27T08:32:17.999Z</time></trkpt><trkpt lat="44.57589130840435" lon="8.214212652949588"><ele>432.0</ele><time>2026-04-27T08:32:18.999Z</time></trkpt><trkpt lat="44.57603177286245" lon="8.21415388682602"><ele>432.0</ele><time>2026-04-27T08:32:19.999Z</time></trkpt><trkpt lat="44.57613540302949" lon="8.214038828290203"><ele>430.66666666666663</ele><time>2026-04-27T08:32:20.999Z</time></trkpt><trkpt lat="44.576244520731606" lon="8.213943961504146"><ele>429.3333333333333</ele><time>2026-04-27T08:32:21.999Z</time></trkpt><trkpt lat="44.57616183491998" lon="8.213697633304472"><ele>428.0</ele><time>2026-04-27T08:32:22.999Z</time></trkpt><trkpt lat="44.576102593354996" lon="8.213504305179596"><ele>428.0</ele><time>2026-04-27T08:32:23.999Z</time></trkpt><trkpt lat="44.57604691075543" lon="8.213284108333154"><ele>428.0</ele><time>2026-04-27T08:32:24.999Z</time></trkpt><trkpt lat="44.57600459261931" lon="8.213072705991548"><ele>428.0</ele><time>2026-04-27T08:32:25.999Z</time></trkpt><trkpt lat="44.575932056039086" lon="8.212905572040095"><ele>431.66666666666663</ele><time>2026-04-27T08:32:26.999Z</time></trkpt><trkpt lat="44.575813673942896" lon="8.212800533060856"><ele>435.33333333333337</ele><time>2026-04-27T08:32:27.999Z</time></trkpt><trkpt lat="44.57566059995913" lon="8.212716662661343"><ele>439.0</ele><time>2026-04-27T08:32:28.999Z</time></trkpt><trkpt lat="44.57551731696037" lon="8.212628015609614"><ele>439.0</ele><time>2026-04-27T08:32:29.999Z</time></trkpt><trkpt lat="44.575410152025555" lon="8.212538163363531"><ele>439.0</ele><time>2026-04-27T08:32:30.999Z</time></trkpt><trkpt lat="44.575330074076376" lon="8.212433705667973"><ele>439.0</ele><time>2026-04-27T08:32:31.999Z</time></trkpt><trkpt lat="44.57527537697327" lon="8.212283769914682"><ele>439.0</ele><time>2026-04-27T08:32:32.999Z</time></trkpt><trkpt lat="44.57525707221881" lon="8.212108071635381"><ele>439.79999999999995</ele><time>2026-04-27T08:32:33.999Z</time></trkpt><trkpt lat="44.575284823398256" lon="8.211980479262289"><ele>440.59999999999997</ele><time>2026-04-27T08:32:34.999Z</time></trkpt><trkpt lat="44.57535655669188" lon="8.21190534543893"><ele>441.4</ele><time>2026-04-27T08:32:35.999Z</time></trkpt><trkpt lat="44.57547274296478" lon="8.211837035608262"><ele>442.2</ele><time>2026-04-27T08:32:36.999Z</time></trkpt><trkpt lat="44.57555646258715" lon="8.21173612017827"><ele>443.0</ele><time>2026-04-27T08:32:37.999Z</time></trkpt><trkpt lat="44.57560283964117" lon="8.211577150697957"><ele>444.25</ele><time>2026-04-27T08:32:38.999Z</time></trkpt><trkpt lat="44.57559720557846" lon="8.211403216095254"><ele>445.5</ele><time>2026-04-27T08:32:39.999Z</time></trkpt><trkpt lat="44.57553368852565" lon="8.211215085235155"><ele>446.75</ele><time>2026-04-27T08:32:40.999Z</time></trkpt><trkpt lat="44.575471138610716" lon="8.21100874819021"><ele>448.0</ele><time>2026-04-27T08:32:41.999Z</time></trkpt><trkpt lat="44.57532795002737" lon="8.210863183259464"><ele>438.75</ele><time>2026-04-27T08:32:42.999Z</time></trkpt><trkpt lat="44.575230413740755" lon="8.210690141470433"><ele>429.5</ele><time>2026-04-27T08:32:43.999Z</time></trkpt><trkpt lat="44.57515195964001" lon="8.210526312142196"><ele>420.25</ele><time>2026-04-27T08:32:44.999Z</time></trkpt><trkpt lat="44.57510731489532" lon="8.210385692039301"><ele>411.0</ele><time>2026-04-27T08:32:45.999Z</time></trkpt><trkpt lat="44.5751052921067" lon="8.21022219873815"><ele>411.0</ele><time>2026-04-27T08:32:46.999Z</time></trkpt><trkpt lat="44.57515031999097" lon="8.210051304004129"><ele>411.0</ele><time>2026-04-27T08:32:47.999Z</time></trkpt><trkpt lat="44.575193303455215" lon="8.209883515547087"><ele>411.0</ele><time>2026-04-27T08:32:48.999Z</time></trkpt><trkpt lat="44.57525715670209" lon="8.209705208200447"><ele>411.0</ele><time>2026-04-27T08:32:49.999Z</time></trkpt><trkpt lat="44.57524965277733" lon="8.209517410703453"><ele>410.0</ele><time>2026-04-27T08:32:50.999Z</time></trkpt><trkpt lat="44.57521046544495" lon="8.209327396262864"><ele>409.0</ele><time>2026-04-27T08:32:51.999Z</time></trkpt><trkpt lat="44.57517494075442" lon="8.209100274814656"><ele>408.0</ele><time>2026-04-27T08:32:52.999Z</time></trkpt><trkpt lat="44.57519933876496" lon="8.208873319540068"><ele>407.66666666666663</ele><time>2026-04-27T08:32:53.999Z</time></trkpt><trkpt lat="44.5752603661449" lon="8.208644888960654"><ele>407.3333333333333</ele><time>2026-04-27T08:32:54.999Z</time></trkpt><trkpt lat="44.57530321628481" lon="8.20844928478994"><ele>407.0</ele><time>2026-04-27T08:32:55.999Z</time></trkpt><trkpt lat="44.57530584802631" lon="8.208252172031093"><ele>409.66666666666663</ele><time>2026-04-27T08:32:56.999Z</time></trkpt><trkpt lat="44.575238806288475" lon="8.208074850839688"><ele>412.33333333333337</ele><time>2026-04-27T08:32:57.999Z</time></trkpt><trkpt lat="44.57513166095545" lon="8.207934317434102"><ele>415.0</ele><time>2026-04-27T08:32:58.999Z</time></trkpt><trkpt lat="44.57500374468366" lon="8.207792740396274"><ele>415.0</ele><time>2026-04-27T08:32:59.999Z</time></trkpt><trkpt lat="44.57491149442637" lon="8.207664498750841"><ele>415.0</ele><time>2026-04-27T08:33:00.999Z</time></trkpt><trkpt lat="44.57485760786951" lon="8.207525371679527"><ele>415.0</ele><time>2026-04-27T08:33:01.999Z</time></trkpt><trkpt lat="44.57483659548902" lon="8.207368173194224"><ele>415.0</ele><time>2026-04-27T08:33:02.999Z</time></trkpt><trkpt lat="44.57480585335089" lon="8.207185936667782"><ele>413.33333333333337</ele><time>2026-04-27T08:33:03.999Z</time></trkpt><trkpt lat="44.574785332579545" lon="8.206969091081133"><ele>411.66666666666663</ele><time>2026-04-27T08:33:04.999Z</time></trkpt><trkpt lat="44.574765468334256" lon="8.206797545724704"><ele>410.0</ele><time>2026-04-27T08:33:05.999Z</time></trkpt><trkpt lat="44.57463118248149" lon="8.206393436894674"><ele>408.66666666666663</ele><time>2026-04-27T08:33:06.999Z</time></trkpt><trkpt lat="44.57454043505811" lon="8.20614276363389"><ele>407.33333333333337</ele><time>2026-04-27T08:33:07.999Z</time></trkpt><trkpt lat="44.57445893691315" lon="8.20592801737472"><ele>406.0</ele><time>2026-04-27T08:33:08.998Z</time></trkpt><trkpt lat="44.57439538978853" lon="8.205729605827607"><ele>402.6</ele><time>2026-04-27T08:33:09.998Z</time></trkpt><trkpt lat="44.574377591319355" lon="8.205561185885802"><ele>399.20000000000005</ele><time>2026-04-27T08:33:10.998Z</time></trkpt><trkpt lat="44.57437257516327" lon="8.205432041232568"><ele>395.79999999999995</ele><time>2026-04-27T08:33:11.998Z</time></trkpt><trkpt lat="44.574422226389096" lon="8.20536715317789"><ele>392.4</ele><time>2026-04-27T08:33:12.998Z</time></trkpt><trkpt lat="44.574500412312034" lon="8.205349125037584"><ele>389.0</ele><time>2026-04-27T08:33:13.998Z</time></trkpt><trkpt lat="44.57460294787954" lon="8.205355400873282"><ele>389.0</ele><time>2026-04-27T08:33:14.998Z</time></trkpt><trkpt lat="44.57475753824241" lon="8.205297151730768"><ele>389.0</ele><time>2026-04-27T08:33:15.998Z</time></trkpt><trkpt lat="44.57492613978312" lon="8.205260096276426"><ele>389.0</ele><time>2026-04-27T08:33:16.998Z</time></trkpt><trkpt lat="44.575064937140745" lon="8.205243789882944"><ele>389.0</ele><time>2026-04-27T08:33:17.998Z</time></trkpt><trkpt lat="44.57517978557032" lon="8.205284043130595"><ele>389.0</ele><time>2026-04-27T08:33:18.998Z</time></trkpt><trkpt lat="44.575281970860715" lon="8.205374606026282"><ele>389.0</ele><time>2026-04-27T08:33:19.998Z</time></trkpt><trkpt lat="44.57538325942092" lon="8.205510811368983"><ele>389.0</ele><time>2026-04-27T08:33:20.998Z</time></trkpt><trkpt lat="44.575503886513694" lon="8.205639539502563"><ele>386.75</ele><time>2026-04-27T08:33:21.998Z</time></trkpt><trkpt lat="44.57560695818772" lon="8.205746210743929"><ele>384.5</ele><time>2026-04-27T08:33:22.998Z</time></trkpt><trkpt lat="44.57574109054373" lon="8.205758946074589"><ele>382.25</ele><time>2026-04-27T08:33:24Z</time></trkpt><trkpt lat="44.57586888789385" lon="8.205706147700015"><ele>380.0</ele><time>2026-04-27T08:33:25Z</time></trkpt><trkpt lat="44.57601830798533" lon="8.20563581733704"><ele>380.0</ele><time>2026-04-27T08:33:26Z</time></trkpt><trkpt lat="44.57617788951821" lon="8.20551774631813"><ele>380.0</ele><time>2026-04-27T08:33:27Z</time></trkpt><trkpt lat="44.5763429217522" lon="8.205426170799912"><ele>380.0</ele><time>2026-04-27T08:33:28Z</time></trkpt><trkpt lat="44.57648465206137" lon="8.205356532419199"><ele>379.75</ele><time>2026-04-27T08:33:29Z</time></trkpt><trkpt lat="44.57660119500214" lon="8.20533313147386"><ele>379.5</ele><time>2026-04-27T08:33:30Z</time></trkpt><trkpt lat="44.57669039720662" lon="8.205409323289402"><ele>379.25</ele><time>2026-04-27T08:33:31Z</time></trkpt><trkpt lat="44.576809141245725" lon="8.205494733080078"><ele>379.0</ele><time>2026-04-27T08:33:32Z</time></trkpt><trkpt lat="44.576946571323106" lon="8.205603660193757"><ele>376.66666666666663</ele><time>2026-04-27T08:33:33Z</time></trkpt><trkpt lat="44.577121206381776" lon="8.205644402790144"><ele>374.3333333333333</ele><time>2026-04-27T08:33:34Z</time></trkpt><trkpt lat="44.577325898177484" lon="8.205618703734563"><ele>372.0</ele><time>2026-04-27T08:33:35Z</time></trkpt><trkpt lat="44.577530462446845" lon="8.205606766342518"><ele>372.0</ele><time>2026-04-27T08:33:36Z</time></trkpt><trkpt lat="44.57772674909619" lon="8.205650671093716"><ele>372.0</ele><time>2026-04-27T08:33:37Z</time></trkpt><trkpt lat="44.577925246095354" lon="8.20574895190535"><ele>372.0</ele><time>2026-04-27T08:33:38Z</time></trkpt><trkpt lat="44.57809936097609" lon="8.205838839501382"><ele>375.0</ele><time>2026-04-27T08:33:39Z</time></trkpt><trkpt lat="44.578269537788216" lon="8.205890515815858"><ele>378.0</ele><time>2026-04-27T08:33:40Z</time></trkpt><trkpt lat="44.578417433864416" lon="8.20587457276052"><ele>381.0</ele><time>2026-04-27T08:33:41Z</time></trkpt><trkpt lat="44.57854508694226" lon="8.205810998945996"><ele>381.0</ele><time>2026-04-27T08:33:42Z</time></trkpt><trkpt lat="44.57865272836794" lon="8.205712948288747"><ele>381.0</ele><time>2026-04-27T08:33:43Z</time></trkpt><trkpt lat="44.57872944142722" lon="8.205554387791292"><ele>381.0</ele><time>2026-04-27T08:33:44Z</time></trkpt><trkpt lat="44.57877530716" lon="8.205332852773276"><ele>381.0</ele><time>2026-04-27T08:33:45Z</time></trkpt><trkpt lat="44.578842212386725" lon="8.205081341500604"><ele>375.6666666666667</ele><time>2026-04-27T08:33:46Z</time></trkpt><trkpt lat="44.578922456795574" lon="8.204821585325778"><ele>370.33333333333337</ele><time>2026-04-27T08:33:47Z</time></trkpt><trkpt lat="44.57899636508917" lon="8.204602198785516"><ele>365.0</ele><time>2026-04-27T08:33:48Z</time></trkpt><trkpt lat="44.57906096243138" lon="8.204455995037517"><ele>365.0</ele><time>2026-04-27T08:33:49Z</time></trkpt><trkpt lat="44.5791348669408" lon="8.204352158361122"><ele>365.0</ele><time>2026-04-27T08:33:50Z</time></trkpt><trkpt lat="44.579238167039634" lon="8.204306432538528"><ele>365.0</ele><time>2026-04-27T08:33:51Z</time></trkpt><trkpt lat="44.57937575654156" lon="8.20429360376587"><ele>365.0</ele><time>2026-04-27T08:33:52Z</time></trkpt><trkpt lat="44.57951064767814" lon="8.204310673013849"><ele>364.0</ele><time>2026-04-27T08:33:53Z</time></trkpt><trkpt lat="44.57961494230724" lon="8.20437035969291"><ele>363.0</ele><time>2026-04-27T08:33:54Z</time></trkpt><trkpt lat="44.57970058880012" lon="8.204504142525032"><ele>362.0</ele><time>2026-04-27T08:33:55Z</time></trkpt><trkpt lat="44.57980545735276" lon="8.20463729822543"><ele>361.0</ele><time>2026-04-27T08:33:56Z</time></trkpt><trkpt lat="44.57991381472303" lon="8.204723377635007"><ele>361.0</ele><time>2026-04-27T08:33:57Z</time></trkpt><trkpt lat="44.58004200639716" lon="8.204707091064947"><ele>361.0</ele><time>2026-04-27T08:33:58Z</time></trkpt><trkpt lat="44.580168565830945" lon="8.20460884692213"><ele>361.0</ele><time>2026-04-27T08:33:59Z</time></trkpt><trkpt lat="44.58027887895783" lon="8.204415172669568"><ele>364.0</ele><time>2026-04-27T08:34:00Z</time></trkpt><trkpt lat="44.58036273491045" lon="8.204224260588362"><ele>367.0</ele><time>2026-04-27T08:34:01Z</time></trkpt><trkpt lat="44.58040719322971" lon="8.204042626364181"><ele>370.0</ele><time>2026-04-27T08:34:02Z</time></trkpt><trkpt lat="44.580393804691816" lon="8.203839606375698"><ele>373.0</ele><time>2026-04-27T08:34:03Z</time></trkpt><trkpt lat="44.58035933356329" lon="8.203625894698753"><ele>373.0</ele><time>2026-04-27T08:34:04Z</time></trkpt><trkpt lat="44.58034146066976" lon="8.203421241722085"><ele>373.0</ele><time>2026-04-27T08:34:05Z</time></trkpt><trkpt lat="44.58035430381518" lon="8.203215155417453"><ele>373.0</ele><time>2026-04-27T08:34:06Z</time></trkpt><trkpt lat="44.58038449175527" lon="8.203027275189415"><ele>373.0</ele><time>2026-04-27T08:34:07Z</time></trkpt><trkpt lat="44.580444924092596" lon="8.202858165267159"><ele>369.0</ele><time>2026-04-27T08:34:07.999Z</time></trkpt><trkpt lat="44.58052082934846" lon="8.202683713854787"><ele>365.0</ele><time>2026-04-27T08:34:08.999Z</time></trkpt><trkpt lat="44.58058797190741" lon="8.20251112788317"><ele>361.0</ele><time>2026-04-27T08:34:09.999Z</time></trkpt><trkpt lat="44.58070677837822" lon="8.202400098078074"><ele>357.0</ele><time>2026-04-27T08:34:10.999Z</time></trkpt><trkpt lat="44.580839175009125" lon="8.202283099758073"><ele>353.3333333333333</ele><time>2026-04-27T08:34:11.999Z</time></trkpt><trkpt lat="44.58098463018805" lon="8.202152772064126"><ele>349.66666666666663</ele><time>2026-04-27T08:34:12.999Z</time></trkpt><trkpt lat="44.581141326915706" lon="8.202005934230943"><ele>346.0</ele><time>2026-04-27T08:34:13.999Z</time></trkpt><trkpt lat="44.581308530873784" lon="8.201855498608989"><ele>346.0</ele><time>2026-04-27T08:34:14.999Z</time></trkpt><trkpt lat="44.58146208128407" lon="8.201729613977507"><ele>346.0</ele><time>2026-04-27T08:34:15.999Z</time></trkpt><trkpt lat="44.5816125928139" lon="8.201617005167774"><ele>346.0</ele><time>2026-04-27T08:34:16.999Z</time></trkpt><trkpt lat="44.58176969813895" lon="8.201556917338221"><ele>337.0</ele><time>2026-04-27T08:34:17.999Z</time></trkpt><trkpt lat="44.58194276489329" lon="8.201491908078065"><ele>328.0</ele><time>2026-04-27T08:34:18.999Z</time></trkpt><trkpt lat="44.582138381709726" lon="8.20147673118884"><ele>319.0</ele><time>2026-04-27T08:34:19.999Z</time></trkpt><trkpt lat="44.582319080149325" lon="8.201452912443262"><ele>317.3333333333333</ele><time>2026-04-27T08:34:20.999Z</time></trkpt><trkpt lat="44.58248319901102" lon="8.201471346804187"><ele>315.6666666666667</ele><time>2026-04-27T08:34:21.999Z</time></trkpt><trkpt lat="44.58265289292125" lon="8.201526584572873"><ele>314.0</ele><time>2026-04-27T08:34:22.999Z</time></trkpt><trkpt lat="44.58285090282811" lon="8.201567265070047"><ele>319.0</ele><time>2026-04-27T08:34:23.999Z</time></trkpt><trkpt lat="44.583045306566056" lon="8.20162672531651"><ele>324.0</ele><time>2026-04-27T08:34:24.999Z</time></trkpt><trkpt lat="44.58322568858332" lon="8.201677516020483"><ele>329.0</ele><time>2026-04-27T08:34:25.999Z</time></trkpt><trkpt lat="44.58339085926265" lon="8.20172872656543"><ele>329.0</ele><time>2026-04-27T08:34:26.999Z</time></trkpt><trkpt lat="44.583555559880665" lon="8.201810068207813"><ele>329.0</ele><time>2026-04-27T08:34:27.999Z</time></trkpt><trkpt lat="44.58373453750489" lon="8.201890138496774"><ele>329.0</ele><time>2026-04-27T08:34:28.999Z</time></trkpt><trkpt lat="44.58389928251252" lon="8.202005156689404"><ele>330.5</ele><time>2026-04-27T08:34:29.999Z</time></trkpt><trkpt lat="44.58404317649318" lon="8.202119107193448"><ele>332.0</ele><time>2026-04-27T08:34:30.999Z</time></trkpt><trkpt lat="44.584146617552804" lon="8.20222272071199"><ele>333.5</ele><time>2026-04-27T08:34:31.999Z</time></trkpt><trkpt lat="44.58421566166015" lon="8.202311617309984"><ele>335.0</ele><time>2026-04-27T08:34:32.999Z</time></trkpt><trkpt lat="44.584268702580204" lon="8.202381837717033"><ele>335.0</ele><time>2026-04-27T08:34:33.999Z</time></trkpt><trkpt lat="44.58438188751563" lon="8.20239395250388"><ele>335.0</ele><time>2026-04-27T08:34:35.999Z</time></trkpt><trkpt lat="44.584447325644895" lon="8.202220970628096"><ele>335.0</ele><time>2026-04-27T08:34:37.999Z</time></trkpt><trkpt lat="44.58440095760891" lon="8.202085120770729"><ele>335.0</ele><time>2026-04-27T08:34:38.999Z</time></trkpt><trkpt lat="44.584274259539555" lon="8.202029688674433"><ele>329.25</ele><time>2026-04-27T08:34:39.999Z</time></trkpt><trkpt lat="44.58415719546631" lon="8.201972347558252"><ele>323.5</ele><time>2026-04-27T08:34:40.999Z</time></trkpt><trkpt lat="44.58404452210223" lon="8.201862251283295"><ele>317.75</ele><time>2026-04-27T08:34:41.999Z</time></trkpt><trkpt lat="44.58391813559914" lon="8.201772580496897"><ele>312.0</ele><time>2026-04-27T08:34:42.999Z</time></trkpt><trkpt lat="44.58379650246409" lon="8.201673697341874"><ele>309.75</ele><time>2026-04-27T08:34:43.999Z</time></trkpt><trkpt lat="44.583666848474515" lon="8.201573692754838"><ele>307.5</ele><time>2026-04-27T08:34:44.999Z</time></trkpt><trkpt lat="44.58353879375923" lon="8.201475795149586"><ele>305.25</ele><time>2026-04-27T08:34:45.999Z</time></trkpt><trkpt lat="44.58339918513205" lon="8.201388203924688"><ele>303.0</ele><time>2026-04-27T08:34:46.999Z</time></trkpt><trkpt lat="44.58327691933081" lon="8.201311581020756"><ele>303.0</ele><time>2026-04-27T08:34:47.999Z</time></trkpt><trkpt lat="44.58316402670427" lon="8.201236117948305"><ele>303.0</ele><time>2026-04-27T08:34:48.999Z</time></trkpt><trkpt lat="44.583058275639615" lon="8.201154835472318"><ele>303.0</ele><time>2026-04-27T08:34:49.999Z</time></trkpt><trkpt lat="44.58295617129845" lon="8.201070917355999"><ele>303.0</ele><time>2026-04-27T08:34:50.999Z</time></trkpt><trkpt lat="44.5828697871361" lon="8.200991219232664"><ele>305.2</ele><time>2026-04-27T08:34:51.999Z</time></trkpt><trkpt lat="44.58279402691054" lon="8.200919446800537"><ele>307.4</ele><time>2026-04-27T08:34:52.999Z</time></trkpt><trkpt lat="44.58272173830978" lon="8.200852779623794"><ele>309.59999999999997</ele><time>2026-04-27T08:34:53.999Z</time></trkpt><trkpt lat="44.58263785466136" lon="8.200779794738342"><ele>311.8</ele><time>2026-04-27T08:34:54.999Z</time></trkpt><trkpt lat="44.58252796334871" lon="8.200713426284974"><ele>314.0</ele><time>2026-04-27T08:34:55.999Z</time></trkpt><trkpt lat="44.58239694977266" lon="8.200664309413899"><ele>309.6666666666667</ele><time>2026-04-27T08:34:56.999Z</time></trkpt><trkpt lat="44.58225597930244" lon="8.20061078954922"><ele>305.3333333333333</ele><time>2026-04-27T08:34:57.999Z</time></trkpt><trkpt lat="44.58210742743835" lon="8.200522273176254"><ele>301.0</ele><time>2026-04-27T08:34:58.999Z</time></trkpt><trkpt lat="44.58195735954245" lon="8.200405240177876"><ele>301.0</ele><time>2026-04-27T08:34:59.999Z</time></trkpt><trkpt lat="44.581814863504725" lon="8.20026888505391"><ele>301.0</ele><time>2026-04-27T08:35:00.999Z</time></trkpt><trkpt lat="44.58165816785186" lon="8.200141990710216"><ele>301.0</ele><time>2026-04-27T08:35:01.999Z</time></trkpt><trkpt lat="44.58148025878544" lon="8.200028526614878"><ele>301.0</ele><time>2026-04-27T08:35:02.999Z</time></trkpt><trkpt lat="44.58128893248239" lon="8.199933584224212"><ele>301.0</ele><time>2026-04-27T08:35:03.999Z</time></trkpt><trkpt lat="44.58111140957373" lon="8.199854227125043"><ele>301.0</ele><time>2026-04-27T08:35:04.999Z</time></trkpt><trkpt lat="44.58094270187873" lon="8.199776978296203"><ele>297.3333333333333</ele><time>2026-04-27T08:35:05.999Z</time></trkpt><trkpt lat="44.58078699146312" lon="8.19970211158939"><ele>293.6666666666667</ele><time>2026-04-27T08:35:06.999Z</time></trkpt><trkpt lat="44.58065676112289" lon="8.199611303769602"><ele>290.0</ele><time>2026-04-27T08:35:07.999Z</time></trkpt><trkpt lat="44.58055862675088" lon="8.199457284966298"><ele>290.0</ele><time>2026-04-27T08:35:08.999Z</time></trkpt><trkpt lat="44.58045682515023" lon="8.199307490104037"><ele>290.0</ele><time>2026-04-27T08:35:09.999Z</time></trkpt><trkpt lat="44.58036733537192" lon="8.199181479817913"><ele>290.0</ele><time>2026-04-27T08:35:10.999Z</time></trkpt><trkpt lat="44.58025320867489" lon="8.199118725036836"><ele>290.0</ele><time>2026-04-27T08:35:11.999Z</time></trkpt><trkpt lat="44.58013988712733" lon="8.19911452028955"><ele>290.75</ele><time>2026-04-27T08:35:12.999Z</time></trkpt><trkpt lat="44.58005398909519" lon="8.199113293419918"><ele>291.5</ele><time>2026-04-27T08:35:13.999Z</time></trkpt><trkpt lat="44.58000183203369" lon="8.199027007898023"><ele>292.25</ele><time>2026-04-27T08:35:15.998Z</time></trkpt><trkpt lat="44.58007870840241" lon="8.198895709965697"><ele>293.0</ele><time>2026-04-27T08:35:16.998Z</time></trkpt><trkpt lat="44.58028857620707" lon="8.198932152779248"><ele>292.0</ele><time>2026-04-27T08:35:18.998Z</time></trkpt><trkpt lat="44.58044193314853" lon="8.198953872573675"><ele>291.0</ele><time>2026-04-27T08:35:19.998Z</time></trkpt><trkpt lat="44.58060691669776" lon="8.198985578575336"><ele>290.0</ele><time>2026-04-27T08:35:20.998Z</time></trkpt><trkpt lat="44.58078094324087" lon="8.199019870125975"><ele>290.0</ele><time>2026-04-27T08:35:21.998Z</time></trkpt><trkpt lat="44.58095940482973" lon="8.199033275524366"><ele>290.0</ele><time>2026-04-27T08:35:22.998Z</time></trkpt><trkpt lat="44.58112067143261" lon="8.19903041799121"><ele>290.0</ele><time>2026-04-27T08:35:23.998Z</time></trkpt><trkpt lat="44.58126756031855" lon="8.199031633663965"><ele>287.0</ele><time>2026-04-27T08:35:24.998Z</time></trkpt><trkpt lat="44.581409920411055" lon="8.199070408684216"><ele>284.0</ele><time>2026-04-27T08:35:25.998Z</time></trkpt><trkpt lat="44.581542987833615" lon="8.199170163679167"><ele>281.0</ele><time>2026-04-27T08:35:26.998Z</time></trkpt><trkpt lat="44.58168792782325" lon="8.199252707241177"><ele>281.0</ele><time>2026-04-27T08:35:27.998Z</time></trkpt><trkpt lat="44.581809227616304" lon="8.199367553329738"><ele>281.0</ele><time>2026-04-27T08:35:28.998Z</time></trkpt><trkpt lat="44.581912260650064" lon="8.199457288212637"><ele>281.0</ele><time>2026-04-27T08:35:30Z</time></trkpt><trkpt lat="44.58199375856062" lon="8.199501205992087"><ele>281.0</ele><time>2026-04-27T08:35:31Z</time></trkpt><trkpt lat="44.58205667252983" lon="8.199528653228482"><ele>281.0</ele><time>2026-04-27T08:35:32Z</time></trkpt><trkpt lat="44.582121647650084" lon="8.199457243607396"><ele>281.0</ele><time>2026-04-27T08:35:33Z</time></trkpt><trkpt lat="44.58213937221501" lon="8.199340362314079"><ele>281.0</ele><time>2026-04-27T08:35:34Z</time></trkpt><trkpt lat="44.582089626030644" lon="8.199216237343578"><ele>281.0</ele><time>2026-04-27T08:35:35Z</time></trkpt><trkpt lat="44.58201838347239" lon="8.199144107525337"><ele>281.0</ele><time>2026-04-27T08:35:36Z</time></trkpt><trkpt lat="44.58192925333961" lon="8.199094705142096"><ele>281.0</ele><time>2026-04-27T08:35:37Z</time></trkpt><trkpt lat="44.58184989727674" lon="8.199008108973453"><ele>276.75</ele><time>2026-04-27T08:35:38Z</time></trkpt><trkpt lat="44.58175943425612" lon="8.198930711127446"><ele>272.5</ele><time>2026-04-27T08:35:39Z</time></trkpt><trkpt lat="44.58167465789707" lon="8.198796736347063"><ele>268.25</ele><time>2026-04-27T08:35:40Z</time></trkpt><trkpt lat="44.581592879852955" lon="8.198666162375137"><ele>264.0</ele><time>2026-04-27T08:35:41Z</time></trkpt><trkpt lat="44.5814887321635" lon="8.19854290965012"><ele>264.0</ele><time>2026-04-27T08:35:42Z</time></trkpt><trkpt lat="44.58136914188469" lon="8.198445054590824"><ele>264.0</ele><time>2026-04-27T08:35:43Z</time></trkpt><trkpt lat="44.58123344577546" lon="8.198360189861473"><ele>264.0</ele><time>2026-04-27T08:35:44Z</time></trkpt><trkpt lat="44.581085951971396" lon="8.198285772389191"><ele>264.0</ele><time>2026-04-27T08:35:45Z</time></trkpt><trkpt lat="44.580932620289744" lon="8.198235746021608"><ele>262.75</ele><time>2026-04-27T08:35:46Z</time></trkpt><trkpt lat="44.580777190737386" lon="8.19819853767647"><ele>261.5</ele><time>2026-04-27T08:35:47Z</time></trkpt><trkpt lat="44.58063187005184" lon="8.198155347080226"><ele>260.25</ele><time>2026-04-27T08:35:48Z</time></trkpt><trkpt lat="44.58050486709831" lon="8.198092648218026"><ele>259.0</ele><time>2026-04-27T08:35:49Z</time></trkpt><trkpt lat="44.5803817062109" lon="8.198003857326125"><ele>259.0</ele><time>2026-04-27T08:35:50Z</time></trkpt><trkpt lat="44.58026293740418" lon="8.197917533223453"><ele>259.0</ele><time>2026-04-27T08:35:51Z</time></trkpt><trkpt lat="44.58014232655519" lon="8.197864340401521"><ele>259.0</ele><time>2026-04-27T08:35:52Z</time></trkpt><trkpt lat="44.580022772814765" lon="8.197850457399765"><ele>259.0</ele><time>2026-04-27T08:35:53Z</time></trkpt><trkpt lat="44.57989371959447" lon="8.197819478519"><ele>259.0</ele><time>2026-04-27T08:35:54Z</time></trkpt><trkpt lat="44.57976971416056" lon="8.197800386793539"><ele>259.0</ele><time>2026-04-27T08:35:55Z</time></trkpt><trkpt lat="44.57968203775324" lon="8.197665700113912"><ele>259.0</ele><time>2026-04-27T08:35:56Z</time></trkpt><trkpt lat="44.579571651041505" lon="8.197519741021205"><ele>259.0</ele><time>2026-04-27T08:35:57Z</time></trkpt><trkpt lat="44.57947819823837" lon="8.197306022196203"><ele>257.0</ele><time>2026-04-27T08:35:58Z</time></trkpt><trkpt lat="44.57938059757857" lon="8.197080893257944"><ele>255.0</ele><time>2026-04-27T08:35:59Z</time></trkpt><trkpt lat="44.57929067290207" lon="8.196883981476995"><ele>253.0</ele><time>2026-04-27T08:36:00Z</time></trkpt><trkpt lat="44.57921370272742" lon="8.196711894983636"><ele>253.0</ele><time>2026-04-27T08:36:01Z</time></trkpt><trkpt lat="44.57914075829655" lon="8.196543745196726"><ele>253.0</ele><time>2026-04-27T08:36:02Z</time></trkpt><trkpt lat="44.57906875053519" lon="8.196385343830213"><ele>253.0</ele><time>2026-04-27T08:36:03Z</time></trkpt><trkpt lat="44.57900369099423" lon="8.19623540458099"><ele>253.0</ele><time>2026-04-27T08:36:04Z</time></trkpt><trkpt lat="44.57894274188268" lon="8.196106555904887"><ele>253.0</ele><time>2026-04-27T08:36:05Z</time></trkpt><trkpt lat="44.57889201966038" lon="8.195986761963303"><ele>253.0</ele><time>2026-04-27T08:36:06Z</time></trkpt><trkpt lat="44.57885111182339" lon="8.195896899868474"><ele>253.0</ele><time>2026-04-27T08:36:07Z</time></trkpt><trkpt lat="44.5788153288389" lon="8.19574508615092"><ele>253.0</ele><time>2026-04-27T08:36:09Z</time></trkpt><trkpt lat="44.57883279495342" lon="8.19565977572014"><ele>253.0</ele><time>2026-04-27T08:36:11Z</time></trkpt><trkpt lat="44.57895600113787" lon="8.195622726374763"><ele>252.99999999999997</ele><time>2026-04-27T08:36:12Z</time></trkpt><trkpt lat="44.57901519777788" lon="8.195524493222681"><ele>253.0</ele><time>2026-04-27T08:36:13.999Z</time></trkpt><trkpt lat="44.57903034752324" lon="8.195410409150359"><ele>253.0</ele><time>2026-04-27T08:36:15.999Z</time></trkpt><trkpt lat="44.57899992765291" lon="8.195325413226303"><ele>253.0</ele><time>2026-04-27T08:36:18.999Z</time></trkpt><trkpt lat="44.57892908393398" lon="8.19527436417152"><ele>252.99999999999997</ele><time>2026-04-27T08:36:21.999Z</time></trkpt><trkpt lat="44.57885178648961" lon="8.195328799283661"><ele>253.0</ele><time>2026-04-27T08:36:22.999Z</time></trkpt><trkpt lat="44.57879058722071" lon="8.195391447450065"><ele>252.99999999999997</ele><time>2026-04-27T08:36:23.999Z</time></trkpt><trkpt lat="44.57871495313638" lon="8.19544060797026"><ele>253.0</ele><time>2026-04-27T08:36:24.999Z</time></trkpt><trkpt lat="44.57864197212063" lon="8.195495394294293"><ele>253.0</ele><time>2026-04-27T08:36:25.999Z</time></trkpt><trkpt lat="44.57859752203541" lon="8.195568423137535"><ele>253.0</ele><time>2026-04-27T08:36:29.999Z</time></trkpt><trkpt lat="44.57854569313746" lon="8.195638036490989"><ele>252.99999999999997</ele><time>2026-04-27T08:36:30.999Z</time></trkpt><trkpt lat="44.57862858805535" lon="8.195718092374669"><ele>253.0</ele><time>2026-04-27T08:36:34.999Z</time></trkpt><trkpt lat="44.578700825252454" lon="8.19566147357401"><ele>253.0</ele><time>2026-04-27T08:36:36.999Z</time></trkpt></trkseg><trkseg><trkpt lat="44.57878942179435" lon="8.195520992785477"><ele>253.0</ele><time>2026-04-27T09:12:40Z</time></trkpt><trkpt lat="44.5787956253064" lon="8.19542445045509"><ele>253.0</ele><time>2026-04-27T09:13:00.999Z</time></trkpt><trkpt lat="44.57865785487627" lon="8.195474042709847"><ele>253.0</ele><time>2026-04-27T09:13:02.999Z</time></trkpt><trkpt lat="44.57856733899123" lon="8.195558143785531"><ele>253.0</ele><time>2026-04-27T09:13:03.999Z</time></trkpt><trkpt lat="44.57847087119374" lon="8.19565671243426"><ele>253.0</ele><time>2026-04-27T09:13:04.999Z</time></trkpt><trkpt lat="44.578360434864976" lon="8.195756272893318"><ele>253.0</ele><time>2026-04-27T09:13:05.999Z</time></trkpt><trkpt lat="44.57826382299935" lon="8.195838123335552"><ele>253.0</ele><time>2026-04-27T09:13:06.999Z</time></trkpt><trkpt lat="44.57816267382485" lon="8.195922419417952"><ele>253.0</ele><time>2026-04-27T09:13:07.999Z</time></trkpt><trkpt lat="44.57807054626387" lon="8.196001302667533"><ele>253.0</ele><time>2026-04-27T09:13:08.999Z</time></trkpt><trkpt lat="44.57800127656372" lon="8.19607232508161"><ele>253.0</ele><time>2026-04-27T09:13:09.999Z</time></trkpt><trkpt lat="44.57793278180059" lon="8.196149568208583"><ele>252.99999999999997</ele><time>2026-04-27T09:13:10.999Z</time></trkpt><trkpt lat="44.57786034638667" lon="8.196228643986966"><ele>253.0</ele><time>2026-04-27T09:13:11.999Z</time></trkpt><trkpt lat="44.57779305218715" lon="8.196303466044123"><ele>253.0</ele><time>2026-04-27T09:13:12.999Z</time></trkpt><trkpt lat="44.577729945171896" lon="8.196382191862012"><ele>253.0</ele><time>2026-04-27T09:13:13.999Z</time></trkpt><trkpt lat="44.57766464932168" lon="8.196460699044449"><ele>252.99999999999997</ele><time>2026-04-27T09:13:14.999Z</time></trkpt><trkpt lat="44.57758953143523" lon="8.196529326624159"><ele>253.0</ele><time>2026-04-27T09:13:15.999Z</time></trkpt><trkpt lat="44.57750337279179" lon="8.196607516482018"><ele>253.49999999999997</ele><time>2026-04-27T09:13:16.999Z</time></trkpt><trkpt lat="44.577417425179114" lon="8.196670449717155"><ele>254.0</ele><time>2026-04-27T09:13:17.999Z</time></trkpt><trkpt lat="44.57734096873091" lon="8.196747313567068"><ele>254.5</ele><time>2026-04-27T09:13:18.999Z</time></trkpt><trkpt lat="44.57728399109476" lon="8.196828314867808"><ele>255.0</ele><time>2026-04-27T09:13:19.999Z</time></trkpt><trkpt lat="44.57722254219617" lon="8.19688952692028"><ele>255.49999999999997</ele><time>2026-04-27T09:13:20.999Z</time></trkpt><trkpt lat="44.577158227549376" lon="8.196958988681533"><ele>256.0</ele><time>2026-04-27T09:13:21.999Z</time></trkpt><trkpt lat="44.57708046530037" lon="8.197016037111638"><ele>255.99999999999997</ele><time>2026-04-27T09:13:22.999Z</time></trkpt><trkpt lat="44.5770350797711" lon="8.197089760727417"><ele>256.0</ele><time>2026-04-27T09:13:23.999Z</time></trkpt><trkpt lat="44.57695683152702" lon="8.19716415665977"><ele>256.0</ele><time>2026-04-27T09:13:25.999Z</time></trkpt><trkpt lat="44.57689603763257" lon="8.197223469974562"><ele>256.0</ele><time>2026-04-27T09:13:27.999Z</time></trkpt><trkpt lat="44.57684250439957" lon="8.197279211713635"><ele>255.99999999999997</ele><time>2026-04-27T09:13:31.999Z</time></trkpt><trkpt lat="44.57677614095817" lon="8.197332703778349"><ele>256.0</ele><time>2026-04-27T09:13:57.999Z</time></trkpt><trkpt lat="44.57672238903236" lon="8.197407925411788"><ele>256.6</ele><time>2026-04-27T09:13:58.999Z</time></trkpt><trkpt lat="44.57665249781689" lon="8.197482692979706"><ele>257.20000000000005</ele><time>2026-04-27T09:13:59.999Z</time></trkpt><trkpt lat="44.57657413326129" lon="8.197561867741594"><ele>257.79999999999995</ele><time>2026-04-27T09:14:00.999Z</time></trkpt><trkpt lat="44.57649944616238" lon="8.19763115678929"><ele>258.4</ele><time>2026-04-27T09:14:01.999Z</time></trkpt><trkpt lat="44.57641975205369" lon="8.197713507066158"><ele>259.0</ele><time>2026-04-27T09:14:02.999Z</time></trkpt><trkpt lat="44.57634268747" lon="8.197795174846977"><ele>259.0</ele><time>2026-04-27T09:14:03.999Z</time></trkpt><trkpt lat="44.576258969234395" lon="8.197877962864276"><ele>259.0</ele><time>2026-04-27T09:14:04.999Z</time></trkpt><trkpt lat="44.57617911211723" lon="8.197965555402234"><ele>259.0</ele><time>2026-04-27T09:14:05.999Z</time></trkpt><trkpt lat="44.57609671396249" lon="8.198046131973754"><ele>259.0</ele><time>2026-04-27T09:14:06.999Z</time></trkpt><trkpt lat="44.57600868499097" lon="8.19813286269933"><ele>259.0</ele><time>2026-04-27T09:14:07.999Z</time></trkpt><trkpt lat="44.57592536575084" lon="8.198228301061627"><ele>258.75</ele><time>2026-04-27T09:14:08.999Z</time></trkpt><trkpt lat="44.57584131400156" lon="8.19831942911498"><ele>258.5</ele><time>2026-04-27T09:14:09.999Z</time></trkpt><trkpt lat="44.57575495564701" lon="8.198411891229922"><ele>258.25</ele><time>2026-04-27T09:14:10.999Z</time></trkpt><trkpt lat="44.575657253147746" lon="8.198509421175343"><ele>258.0</ele><time>2026-04-27T09:14:11.999Z</time></trkpt><trkpt lat="44.5755609259735" lon="8.198603905109922"><ele>258.0</ele><time>2026-04-27T09:14:12.999Z</time></trkpt><trkpt lat="44.57546559528816" lon="8.198701362446096"><ele>258.0</ele><time>2026-04-27T09:14:13.999Z</time></trkpt><trkpt lat="44.5753720768058" lon="8.198802008914623"><ele>258.0</ele><time>2026-04-27T09:14:14.999Z</time></trkpt><trkpt lat="44.57527696428334" lon="8.198898898110677"><ele>258.0</ele><time>2026-04-27T09:14:15.999Z</time></trkpt><trkpt lat="44.575186777583056" lon="8.198992390239937"><ele>257.6</ele><time>2026-04-27T09:14:16.999Z</time></trkpt><trkpt lat="44.57509658112583" lon="8.19908338241098"><ele>257.20000000000005</ele><time>2026-04-27T09:14:17.999Z</time></trkpt><trkpt lat="44.57500978619658" lon="8.199177054899002"><ele>256.8</ele><time>2026-04-27T09:14:18.999Z</time></trkpt><trkpt lat="44.57491942835352" lon="8.199265067565477"><ele>256.40000000000003</ele><time>2026-04-27T09:14:19.999Z</time></trkpt><trkpt lat="44.57482494031456" lon="8.199350640117663"><ele>256.0</ele><time>2026-04-27T09:14:20.999Z</time></trkpt><trkpt lat="44.57472789241332" lon="8.199435088505075"><ele>256.0</ele><time>2026-04-27T09:14:22Z</time></trkpt><trkpt lat="44.57462237895823" lon="8.19951208720161"><ele>256.0</ele><time>2026-04-27T09:14:23Z</time></trkpt><trkpt lat="44.574509983710925" lon="8.199583772707058"><ele>256.0</ele><time>2026-04-27T09:14:24Z</time></trkpt><trkpt lat="44.57438377622473" lon="8.199657080396717"><ele>256.0</ele><time>2026-04-27T09:14:25Z</time></trkpt><trkpt lat="44.57425063516828" lon="8.199752598301925"><ele>257.0</ele><time>2026-04-27T09:14:26Z</time></trkpt><trkpt lat="44.574106366855716" lon="8.199858111191284"><ele>258.0</ele><time>2026-04-27T09:14:27Z</time></trkpt><trkpt lat="44.57395170065027" lon="8.199930476935648"><ele>259.0</ele><time>2026-04-27T09:14:28Z</time></trkpt><trkpt lat="44.573790065206246" lon="8.200028897427522"><ele>259.3333333333333</ele><time>2026-04-27T09:14:29Z</time></trkpt><trkpt lat="44.57362179595568" lon="8.200090169584163"><ele>259.6666666666667</ele><time>2026-04-27T09:14:30Z</time></trkpt><trkpt lat="44.573455999452314" lon="8.20018767805371"><ele>260.0</ele><time>2026-04-27T09:14:31Z</time></trkpt><trkpt lat="44.57328297648884" lon="8.200306058038441"><ele>260.0</ele><time>2026-04-27T09:14:32Z</time></trkpt><trkpt lat="44.57312397899562" lon="8.200410274150379"><ele>260.0</ele><time>2026-04-27T09:14:33Z</time></trkpt><trkpt lat="44.57296731435792" lon="8.200502580060808"><ele>260.0</ele><time>2026-04-27T09:14:34Z</time></trkpt><trkpt lat="44.57280882813003" lon="8.200595220717354"><ele>259.6666666666667</ele><time>2026-04-27T09:14:35Z</time></trkpt><trkpt lat="44.57264232310054" lon="8.200686958286928"><ele>259.3333333333333</ele><time>2026-04-27T09:14:36Z</time></trkpt><trkpt lat="44.572479354427955" lon="8.200787264073247"><ele>259.0</ele><time>2026-04-27T09:14:37Z</time></trkpt><trkpt lat="44.572320270881384" lon="8.20089570220212"><ele>259.0</ele><time>2026-04-27T09:14:38Z</time></trkpt><trkpt lat="44.57215109743327" lon="8.20096272835421"><ele>259.0</ele><time>2026-04-27T09:14:39Z</time></trkpt><trkpt lat="44.571960454453034" lon="8.200991277925564"><ele>259.0</ele><time>2026-04-27T09:14:40Z</time></trkpt><trkpt lat="44.57176015466779" lon="8.200982682668968"><ele>260.0</ele><time>2026-04-27T09:14:41Z</time></trkpt><trkpt lat="44.571552210245336" lon="8.200908511863464"><ele>261.0</ele><time>2026-04-27T09:14:42Z</time></trkpt><trkpt lat="44.57133667915189" lon="8.200795037865342"><ele>262.0</ele><time>2026-04-27T09:14:43Z</time></trkpt><trkpt lat="44.571137183308814" lon="8.200653989007565"><ele>272.0</ele><time>2026-04-27T09:14:44Z</time></trkpt><trkpt lat="44.57093646162311" lon="8.200527696406496"><ele>282.0</ele><time>2026-04-27T09:14:45Z</time></trkpt><trkpt lat="44.57072758366323" lon="8.200444579957002"><ele>292.0</ele><time>2026-04-27T09:14:46Z</time></trkpt><trkpt lat="44.57052765646558" lon="8.200418904920527"><ele>287.3333333333333</ele><time>2026-04-27T09:14:47Z</time></trkpt><trkpt lat="44.5703225704627" lon="8.200457852694129"><ele>282.6666666666667</ele><time>2026-04-27T09:14:48Z</time></trkpt><trkpt lat="44.57011667198613" lon="8.200574401892174"><ele>278.0</ele><time>2026-04-27T09:14:49Z</time></trkpt><trkpt lat="44.56992221137769" lon="8.200761121337013"><ele>278.0</ele><time>2026-04-27T09:14:49.999Z</time></trkpt><trkpt lat="44.56975507794217" lon="8.200980406682671"><ele>278.0</ele><time>2026-04-27T09:14:50.999Z</time></trkpt><trkpt lat="44.56959391143143" lon="8.201163388478449"><ele>278.0</ele><time>2026-04-27T09:14:51.999Z</time></trkpt><trkpt lat="44.569457540116986" lon="8.201374390758284"><ele>279.6666666666667</ele><time>2026-04-27T09:14:52.999Z</time></trkpt><trkpt lat="44.56930853376746" lon="8.201567572643414"><ele>281.3333333333333</ele><time>2026-04-27T09:14:53.999Z</time></trkpt><trkpt lat="44.56916735332427" lon="8.201768755070404"><ele>283.0</ele><time>2026-04-27T09:14:54.999Z</time></trkpt><trkpt lat="44.56903972326209" lon="8.201985262413023"><ele>283.0</ele><time>2026-04-27T09:14:55.999Z</time></trkpt><trkpt lat="44.568917419593966" lon="8.202226165559269"><ele>283.0</ele><time>2026-04-27T09:14:56.999Z</time></trkpt><trkpt lat="44.56879428427127" lon="8.202474400055513"><ele>283.0</ele><time>2026-04-27T09:14:57.999Z</time></trkpt><trkpt lat="44.56867909231348" lon="8.202711698882322"><ele>281.3333333333333</ele><time>2026-04-27T09:14:58.999Z</time></trkpt><trkpt lat="44.568570527827504" lon="8.202952932187312"><ele>279.6666666666667</ele><time>2026-04-27T09:14:59.999Z</time></trkpt><trkpt lat="44.56845542965925" lon="8.203190658627209"><ele>278.0</ele><time>2026-04-27T09:15:00.999Z</time></trkpt><trkpt lat="44.56831937187561" lon="8.20340275183537"><ele>278.0</ele><time>2026-04-27T09:15:01.999Z</time></trkpt><trkpt lat="44.56816921705456" lon="8.203576637098001"><ele>278.0</ele><time>2026-04-27T09:15:02.999Z</time></trkpt><trkpt lat="44.5680091322933" lon="8.203716227315898"><ele>278.0</ele><time>2026-04-27T09:15:03.999Z</time></trkpt><trkpt lat="44.567838327165084" lon="8.203840989385563"><ele>276.6666666666667</ele><time>2026-04-27T09:15:04.999Z</time></trkpt><trkpt lat="44.56764996811021" lon="8.203944036615137"><ele>275.3333333333333</ele><time>2026-04-27T09:15:05.999Z</time></trkpt><trkpt lat="44.56745043640368" lon="8.204028901591325"><ele>274.0</ele><time>2026-04-27T09:15:06.999Z</time></trkpt><trkpt lat="44.56724365501647" lon="8.204106203405438"><ele>281.5</ele><time>2026-04-27T09:15:07.999Z</time></trkpt><trkpt lat="44.56702514821639" lon="8.204193310812887"><ele>289.0</ele><time>2026-04-27T09:15:08.999Z</time></trkpt><trkpt lat="44.56680125201576" lon="8.204282061185644"><ele>289.0</ele><time>2026-04-27T09:15:09.999Z</time></trkpt><trkpt lat="44.56657110886349" lon="8.204374803572616"><ele>289.0</ele><time>2026-04-27T09:15:10.999Z</time></trkpt><trkpt lat="44.56634109945349" lon="8.20446294402808"><ele>295.3333333333333</ele><time>2026-04-27T09:15:11.999Z</time></trkpt><trkpt lat="44.56612235605878" lon="8.204550041683103"><ele>301.6666666666667</ele><time>2026-04-27T09:15:12.999Z</time></trkpt><trkpt lat="44.56592327428103" lon="8.20463101480118"><ele>308.0</ele><time>2026-04-27T09:15:13.999Z</time></trkpt><trkpt lat="44.56574161563715" lon="8.204697892797189"><ele>308.0</ele><time>2026-04-27T09:15:14.999Z</time></trkpt><trkpt lat="44.56557797858633" lon="8.20472964416073"><ele>308.0</ele><time>2026-04-27T09:15:15.999Z</time></trkpt><trkpt lat="44.56541348540772" lon="8.204730492524197"><ele>308.0</ele><time>2026-04-27T09:15:16.999Z</time></trkpt><trkpt lat="44.56522669450723" lon="8.20471189577828"><ele>307.6666666666667</ele><time>2026-04-27T09:15:17.999Z</time></trkpt><trkpt lat="44.56503677850411" lon="8.204665223523518"><ele>307.3333333333333</ele><time>2026-04-27T09:15:18.999Z</time></trkpt><trkpt lat="44.564866680986256" lon="8.204620931730908"><ele>307.0</ele><time>2026-04-27T09:15:19.999Z</time></trkpt><trkpt lat="44.564730208327184" lon="8.20458031136911"><ele>307.0</ele><time>2026-04-27T09:15:20.999Z</time></trkpt><trkpt lat="44.56461367030904" lon="8.20456937132109"><ele>307.0</ele><time>2026-04-27T09:15:21.999Z</time></trkpt><trkpt lat="44.56450749317762" lon="8.204543578647288"><ele>307.0</ele><time>2026-04-27T09:15:22.999Z</time></trkpt><trkpt lat="44.564407750516274" lon="8.204497360258527"><ele>307.0</ele><time>2026-04-27T09:15:23.999Z</time></trkpt><trkpt lat="44.56434437432286" lon="8.204484430574563"><ele>307.0</ele><time>2026-04-27T09:15:24.999Z</time></trkpt><trkpt lat="44.566278161967645" lon="8.204493184118295"><ele>307.5</ele><time>2026-04-27T09:17:20.999Z</time></trkpt><trkpt lat="44.56605251147605" lon="8.204579890361616"><ele>308.0</ele><time>2026-04-27T09:17:21.999Z</time></trkpt><trkpt lat="44.565833932513954" lon="8.204659828722859"><ele>308.0</ele><time>2026-04-27T09:17:22.999Z</time></trkpt><trkpt lat="44.56562224322748" lon="8.204745666683685"><ele>308.0</ele><time>2026-04-27T09:17:23.999Z</time></trkpt><trkpt lat="44.56541693315805" lon="8.204779250364224"><ele>308.0</ele><time>2026-04-27T09:17:24.999Z</time></trkpt><trkpt lat="44.56522149558818" lon="8.204768179575364"><ele>307.6666666666667</ele><time>2026-04-27T09:17:25.999Z</time></trkpt><trkpt lat="44.56500945199453" lon="8.204737904480378"><ele>307.3333333333333</ele><time>2026-04-27T09:17:26.999Z</time></trkpt><trkpt lat="44.56477989999328" lon="8.204678619742015"><ele>307.0</ele><time>2026-04-27T09:17:27.999Z</time></trkpt><trkpt lat="44.56453988994289" lon="8.204609181815789"><ele>299.5</ele><time>2026-04-27T09:17:28.999Z</time></trkpt><trkpt lat="44.564289180108936" lon="8.20453915100724"><ele>292.0</ele><time>2026-04-27T09:17:29.999Z</time></trkpt><trkpt lat="44.564031086384176" lon="8.20447572151128"><ele>292.0</ele><time>2026-04-27T09:17:30.999Z</time></trkpt><trkpt lat="44.56376736296837" lon="8.204409811736635"><ele>292.0</ele><time>2026-04-27T09:17:31.999Z</time></trkpt><trkpt lat="44.56349858672466" lon="8.204343147402286"><ele>287.5</ele><time>2026-04-27T09:17:32.999Z</time></trkpt><trkpt lat="44.56322324076679" lon="8.20428283792719"><ele>283.0</ele><time>2026-04-27T09:17:33.999Z</time></trkpt><trkpt lat="44.56294604529148" lon="8.204239926907103"><ele>281.0</ele><time>2026-04-27T09:17:34.999Z</time></trkpt><trkpt lat="44.562664609098974" lon="8.204221494979867"><ele>279.0</ele><time>2026-04-27T09:17:35.999Z</time></trkpt><trkpt lat="44.56238460812779" lon="8.204223045141255"><ele>279.0</ele><time>2026-04-27T09:17:36.999Z</time></trkpt><trkpt lat="44.56210244887294" lon="8.204226378530494"><ele>279.0</ele><time>2026-04-27T09:17:37.999Z</time></trkpt><trkpt lat="44.56182052554139" lon="8.204225077662205"><ele>277.5</ele><time>2026-04-27T09:17:38.999Z</time></trkpt><trkpt lat="44.561535895068246" lon="8.204225655605107"><ele>276.0</ele><time>2026-04-27T09:17:39.999Z</time></trkpt><trkpt lat="44.56125778205906" lon="8.204233779390746"><ele>277.5</ele><time>2026-04-27T09:17:40.999Z</time></trkpt><trkpt lat="44.560979878617495" lon="8.204247621965212"><ele>279.0</ele><time>2026-04-27T09:17:41.999Z</time></trkpt><trkpt lat="44.560704058733016" lon="8.204265445132364"><ele>279.0</ele><time>2026-04-27T09:17:42.999Z</time></trkpt><trkpt lat="44.56043143404213" lon="8.204290013082646"><ele>279.0</ele><time>2026-04-27T09:17:43.999Z</time></trkpt><trkpt lat="44.560160423822815" lon="8.204319890614505"><ele>278.5</ele><time>2026-04-27T09:17:44.999Z</time></trkpt><trkpt lat="44.55988952451679" lon="8.204348494418216"><ele>278.0</ele><time>2026-04-27T09:17:45.999Z</time></trkpt><trkpt lat="44.55961948516003" lon="8.204376771325155"><ele>278.0</ele><time>2026-04-27T09:17:46.999Z</time></trkpt><trkpt lat="44.55935255740739" lon="8.204404672976132"><ele>278.0</ele><time>2026-04-27T09:17:47.999Z</time></trkpt><trkpt lat="44.55909469724809" lon="8.204435683549706"><ele>278.0</ele><time>2026-04-27T09:17:48.999Z</time></trkpt><trkpt lat="44.55884938721305" lon="8.204463785918431"><ele>278.0</ele><time>2026-04-27T09:17:49.999Z</time></trkpt><trkpt lat="44.55860231020765" lon="8.204490024118885"><ele>279.5</ele><time>2026-04-27T09:17:50.999Z</time></trkpt><trkpt lat="44.5583630516833" lon="8.204517410973192"><ele>281.0</ele><time>2026-04-27T09:17:51.999Z</time></trkpt><trkpt lat="44.55812013744822" lon="8.204543673790258"><ele>281.0</ele><time>2026-04-27T09:17:52.999Z</time></trkpt><trkpt lat="44.557876859801716" lon="8.204572401910681"><ele>281.0</ele><time>2026-04-27T09:17:53.999Z</time></trkpt><trkpt lat="44.55763360313494" lon="8.204599796501936"><ele>280.5</ele><time>2026-04-27T09:17:54.999Z</time></trkpt><trkpt lat="44.55738496672697" lon="8.204618849638491"><ele>280.0</ele><time>2026-04-27T09:17:55.999Z</time></trkpt><trkpt lat="44.55713485583899" lon="8.204645366164957"><ele>280.5</ele><time>2026-04-27T09:17:56.999Z</time></trkpt><trkpt lat="44.55688668538692" lon="8.20467392388185"><ele>281.0</ele><time>2026-04-27T09:17:57.999Z</time></trkpt><trkpt lat="44.55663404830928" lon="8.204703628570158"><ele>281.0</ele><time>2026-04-27T09:17:58.999Z</time></trkpt><trkpt lat="44.55638242350017" lon="8.204736144650505"><ele>281.0</ele><time>2026-04-27T09:17:59.999Z</time></trkpt><trkpt lat="44.55613107860535" lon="8.204763774343547"><ele>281.5</ele><time>2026-04-27T09:18:00.999Z</time></trkpt><trkpt lat="44.555879788131506" lon="8.20478361964216"><ele>282.0</ele><time>2026-04-27T09:18:01.999Z</time></trkpt><trkpt lat="44.55562857151234" lon="8.204765902087228"><ele>282.0</ele><time>2026-04-27T09:18:02.999Z</time></trkpt><trkpt lat="44.55537227819473" lon="8.204710542493743"><ele>282.0</ele><time>2026-04-27T09:18:03.999Z</time></trkpt><trkpt lat="44.5551156690646" lon="8.204630664943494"><ele>284.5</ele><time>2026-04-27T09:18:04.999Z</time></trkpt><trkpt lat="44.554862880314765" lon="8.204535966818256"><ele>287.0</ele><time>2026-04-27T09:18:05.999Z</time></trkpt><trkpt lat="44.55460745947989" lon="8.20443707688998"><ele>288.5</ele><time>2026-04-27T09:18:06.999Z</time></trkpt><trkpt lat="44.55435346399092" lon="8.204333782864474"><ele>290.0</ele><time>2026-04-27T09:18:07.999Z</time></trkpt><trkpt lat="44.55411139241259" lon="8.204237230088546"><ele>290.0</ele><time>2026-04-27T09:18:08.999Z</time></trkpt><trkpt lat="44.55389059533239" lon="8.204157542841328"><ele>290.0</ele><time>2026-04-27T09:18:09.999Z</time></trkpt><trkpt lat="44.55369027326794" lon="8.204048752884251"><ele>290.0</ele><time>2026-04-27T09:18:10.999Z</time></trkpt><trkpt lat="44.55352932715096" lon="8.203909402570025"><ele>291.6666666666667</ele><time>2026-04-27T09:18:11.999Z</time></trkpt><trkpt lat="44.55339602197338" lon="8.203725890928425"><ele>293.3333333333333</ele><time>2026-04-27T09:18:12.999Z</time></trkpt><trkpt lat="44.55326858801764" lon="8.203508565050837"><ele>295.0</ele><time>2026-04-27T09:18:13.999Z</time></trkpt><trkpt lat="44.553134259184965" lon="8.20328893565926"><ele>294.5</ele><time>2026-04-27T09:18:14.999Z</time></trkpt><trkpt lat="44.553008093680845" lon="8.20309995586944"><ele>294.0</ele><time>2026-04-27T09:18:15.999Z</time></trkpt><trkpt lat="44.55290414312789" lon="8.202972915723032"><ele>293.5</ele><time>2026-04-27T09:18:16.999Z</time></trkpt><trkpt lat="44.55278532086557" lon="8.202911713691622"><ele>293.0</ele><time>2026-04-27T09:18:17.999Z</time></trkpt><trkpt lat="44.55262958726247" lon="8.202907724854821"><ele>292.6666666666667</ele><time>2026-04-27T09:18:18.999Z</time></trkpt><trkpt lat="44.552431115181534" lon="8.202951827466446"><ele>292.3333333333333</ele><time>2026-04-27T09:18:19.999Z</time></trkpt><trkpt lat="44.552196017863096" lon="8.20295555039451"><ele>292.0</ele><time>2026-04-27T09:18:20.999Z</time></trkpt><trkpt lat="44.551947118647874" lon="8.202855778496847"><ele>295.0</ele><time>2026-04-27T09:18:21.999Z</time></trkpt><trkpt lat="44.55171494729311" lon="8.202657375746389"><ele>298.0</ele><time>2026-04-27T09:18:22.999Z</time></trkpt><trkpt lat="44.55147582725003" lon="8.202395841482447"><ele>294.0</ele><time>2026-04-27T09:18:23.999Z</time></trkpt><trkpt lat="44.551220226434154" lon="8.20213454983201"><ele>290.0</ele><time>2026-04-27T09:18:24.999Z</time></trkpt><trkpt lat="44.55096331560726" lon="8.201885814768094"><ele>295.0</ele><time>2026-04-27T09:18:25.999Z</time></trkpt><trkpt lat="44.5507272498572" lon="8.20164895161471"><ele>300.0</ele><time>2026-04-27T09:18:27Z</time></trkpt><trkpt lat="44.55053158176086" lon="8.201442551380179"><ele>305.0</ele><time>2026-04-27T09:18:28Z</time></trkpt><trkpt lat="44.550351250123455" lon="8.20125679494373"><ele>310.0</ele><time>2026-04-27T09:18:29Z</time></trkpt><trkpt lat="44.55018709430244" lon="8.201086346169795"><ele>315.0</ele><time>2026-04-27T09:18:30Z</time></trkpt><trkpt lat="44.55001560156735" lon="8.20094868250821"><ele>315.0</ele><time>2026-04-27T09:18:31Z</time></trkpt><trkpt lat="44.54983533690689" lon="8.200844917370434"><ele>315.0</ele><time>2026-04-27T09:18:32Z</time></trkpt><trkpt lat="44.549663079286226" lon="8.200767986125596"><ele>315.0</ele><time>2026-04-27T09:18:33Z</time></trkpt><trkpt lat="44.549512848700815" lon="8.200700716589347"><ele>313.0</ele><time>2026-04-27T09:18:34Z</time></trkpt><trkpt lat="44.54937875880078" lon="8.20062797068697"><ele>311.0</ele><time>2026-04-27T09:18:35Z</time></trkpt><trkpt lat="44.54927376268901" lon="8.200563324973725"><ele>309.0</ele><time>2026-04-27T09:18:36Z</time></trkpt><trkpt lat="44.54919666932523" lon="8.200538881145398"><ele>307.0</ele><time>2026-04-27T09:18:37Z</time></trkpt><trkpt lat="44.549107059146365" lon="8.200633228690856"><ele>305.0</ele><time>2026-04-27T09:18:39Z</time></trkpt><trkpt lat="44.54911175119274" lon="8.200729390101994"><ele>307.5</ele><time>2026-04-27T09:18:40Z</time></trkpt><trkpt lat="44.54915862765977" lon="8.200823637827044"><ele>310.0</ele><time>2026-04-27T09:18:41Z</time></trkpt><trkpt lat="44.549263992049944" lon="8.200898433474695"><ele>312.5</ele><time>2026-04-27T09:18:42Z</time></trkpt><trkpt lat="44.549421552014685" lon="8.200944241547884"><ele>315.0</ele><time>2026-04-27T09:18:43Z</time></trkpt><trkpt lat="44.5495887005477" lon="8.201016391109528"><ele>315.0</ele><time>2026-04-27T09:18:44Z</time></trkpt><trkpt lat="44.54975097965727" lon="8.201163659019656"><ele>315.0</ele><time>2026-04-27T09:18:45Z</time></trkpt><trkpt lat="44.549895549628296" lon="8.201385930140123"><ele>315.0</ele><time>2026-04-27T09:18:46Z</time></trkpt><trkpt lat="44.550026058528644" lon="8.201648164827441"><ele>319.5</ele><time>2026-04-27T09:18:47Z</time></trkpt><trkpt lat="44.55017114167626" lon="8.201933176498697"><ele>324.0</ele><time>2026-04-27T09:18:48Z</time></trkpt><trkpt lat="44.5503354912742" lon="8.20224893887764"><ele>320.5</ele><time>2026-04-27T09:18:49Z</time></trkpt><trkpt lat="44.550504265371245" lon="8.202547948226384"><ele>317.0</ele><time>2026-04-27T09:18:50Z</time></trkpt><trkpt lat="44.550664742569644" lon="8.20284806429549"><ele>317.0</ele><time>2026-04-27T09:18:51Z</time></trkpt><trkpt lat="44.55081795645315" lon="8.203128537922954"><ele>317.0</ele><time>2026-04-27T09:18:52Z</time></trkpt><trkpt lat="44.550950362357" lon="8.203369309746568"><ele>320.0</ele><time>2026-04-27T09:18:53Z</time></trkpt><trkpt lat="44.55105643858389" lon="8.203543962673296"><ele>323.0</ele><time>2026-04-27T09:18:54Z</time></trkpt><trkpt lat="44.551133715083104" lon="8.203672375185471"><ele>326.0</ele><time>2026-04-27T09:18:55Z</time></trkpt><trkpt lat="44.55115929041171" lon="8.203758406909289"><ele>329.0</ele><time>2026-04-27T09:18:56Z</time></trkpt><trkpt lat="44.5511159993201" lon="8.203831907068029"><ele>332.0</ele><time>2026-04-27T09:18:57Z</time></trkpt><trkpt lat="44.5509494875159" lon="8.203779266037282"><ele>332.0</ele><time>2026-04-27T09:18:59Z</time></trkpt><trkpt lat="44.55090337690047" lon="8.203608231966616"><ele>332.0</ele><time>2026-04-27T09:19:00Z</time></trkpt><trkpt lat="44.55081010317045" lon="8.203408102420108"><ele>332.0</ele><time>2026-04-27T09:19:01Z</time></trkpt><trkpt lat="44.55067927995232" lon="8.203176758984533"><ele>334.5</ele><time>2026-04-27T09:19:02Z</time></trkpt><trkpt lat="44.550504080303654" lon="8.202950440364603"><ele>337.0</ele><time>2026-04-27T09:19:03Z</time></trkpt><trkpt lat="44.5502911258611" lon="8.202734392334714"><ele>337.0</ele><time>2026-04-27T09:19:04Z</time></trkpt><trkpt lat="44.55006679244459" lon="8.202516995689571"><ele>337.0</ele><time>2026-04-27T09:19:05Z</time></trkpt><trkpt lat="44.54983577985543" lon="8.202270965740247"><ele>339.5</ele><time>2026-04-27T09:19:06Z</time></trkpt><trkpt lat="44.549629052598824" lon="8.20204634226273"><ele>342.0</ele><time>2026-04-27T09:19:07Z</time></trkpt><trkpt lat="44.549452846781286" lon="8.201854367365758"><ele>342.0</ele><time>2026-04-27T09:19:08Z</time></trkpt><trkpt lat="44.54929215564471" lon="8.201701168200556"><ele>342.0</ele><time>2026-04-27T09:19:09Z</time></trkpt><trkpt lat="44.549117892927356" lon="8.201573597994098"><ele>342.0</ele><time>2026-04-27T09:19:10Z</time></trkpt><trkpt lat="44.54890979887554" lon="8.201481182827946"><ele>340.6666666666667</ele><time>2026-04-27T09:19:11Z</time></trkpt><trkpt lat="44.54869951122069" lon="8.201373800161054"><ele>339.33333333333337</ele><time>2026-04-27T09:19:12Z</time></trkpt><trkpt lat="44.54856544346859" lon="8.201208983558269"><ele>338.0</ele><time>2026-04-27T09:19:13Z</time></trkpt><trkpt lat="44.548464709951375" lon="8.20109962721675"><ele>338.0</ele><time>2026-04-27T09:19:14Z</time></trkpt><trkpt lat="44.54839479119281" lon="8.201040536853988"><ele>338.0</ele><time>2026-04-27T09:19:15Z</time></trkpt><trkpt lat="44.54832113977452" lon="8.201079627485619"><ele>338.0</ele><time>2026-04-27T09:19:16Z</time></trkpt><trkpt lat="44.54827490204774" lon="8.201203340223936"><ele>338.0</ele><time>2026-04-27T09:19:17Z</time></trkpt><trkpt lat="44.54826423728198" lon="8.201360659298073"><ele>338.0</ele><time>2026-04-27T09:19:18Z</time></trkpt><trkpt lat="44.54836639095941" lon="8.201530244739402"><ele>340.0</ele><time>2026-04-27T09:19:19Z</time></trkpt><trkpt lat="44.54852765667638" lon="8.20173209840081"><ele>342.0</ele><time>2026-04-27T09:19:20Z</time></trkpt><trkpt lat="44.54872682960364" lon="8.201964304030454"><ele>342.0</ele><time>2026-04-27T09:19:21Z</time></trkpt><trkpt lat="44.54892361861707" lon="8.202235241702539"><ele>342.0</ele><time>2026-04-27T09:19:22Z</time></trkpt><trkpt lat="44.54912785306782" lon="8.202532797780657"><ele>347.5</ele><time>2026-04-27T09:19:23Z</time></trkpt><trkpt lat="44.549313950951394" lon="8.20279042586311"><ele>353.0</ele><time>2026-04-27T09:19:24Z</time></trkpt><trkpt lat="44.549475484050646" lon="8.203013060942077"><ele>352.6666666666667</ele><time>2026-04-27T09:19:25Z</time></trkpt><trkpt lat="44.54962478234716" lon="8.203217683271703"><ele>352.3333333333333</ele><time>2026-04-27T09:19:26Z</time></trkpt><trkpt lat="44.54972136368623" lon="8.203383965787628"><ele>352.0</ele><time>2026-04-27T09:19:27Z</time></trkpt><trkpt lat="44.54981482134284" lon="8.203499118281234"><ele>352.0</ele><time>2026-04-27T09:19:27.999Z</time></trkpt><trkpt lat="44.549847167131055" lon="8.203644048819587"><ele>352.0</ele><time>2026-04-27T09:19:28.999Z</time></trkpt><trkpt lat="44.54979337801953" lon="8.203790222537386"><ele>352.0</ele><time>2026-04-27T09:19:29.999Z</time></trkpt><trkpt lat="44.54970527705072" lon="8.203909764233947"><ele>352.0</ele><time>2026-04-27T09:19:30.999Z</time></trkpt><trkpt lat="44.54958980695218" lon="8.203983029431466"><ele>357.0</ele><time>2026-04-27T09:19:31.999Z</time></trkpt><trkpt lat="44.54944387469153" lon="8.203943791504994"><ele>362.0</ele><time>2026-04-27T09:19:32.999Z</time></trkpt><trkpt lat="44.54932885583258" lon="8.2037652950584"><ele>367.0</ele><time>2026-04-27T09:19:33.999Z</time></trkpt><trkpt lat="44.54915178183117" lon="8.203586894995077"><ele>367.0</ele><time>2026-04-27T09:19:34.999Z</time></trkpt><trkpt lat="44.54895317482248" lon="8.203306577101422"><ele>367.0</ele><time>2026-04-27T09:19:35.999Z</time></trkpt><trkpt lat="44.54872976296558" lon="8.203091970683102"><ele>366.5</ele><time>2026-04-27T09:19:36.999Z</time></trkpt><trkpt lat="44.5484723378328" lon="8.20289789627656"><ele>366.0</ele><time>2026-04-27T09:19:37.999Z</time></trkpt><trkpt lat="44.548176548846946" lon="8.202710236478518"><ele>374.0</ele><time>2026-04-27T09:19:38.999Z</time></trkpt><trkpt lat="44.54785410711484" lon="8.202520474458574"><ele>382.0</ele><time>2026-04-27T09:19:39.999Z</time></trkpt><trkpt lat="44.547538890962215" lon="8.202336451420786"><ele>380.0</ele><time>2026-04-27T09:19:40.999Z</time></trkpt><trkpt lat="44.547241894290536" lon="8.202154651125003"><ele>378.0</ele><time>2026-04-27T09:19:41.999Z</time></trkpt><trkpt lat="44.546960527205314" lon="8.201994158997806"><ele>378.0</ele><time>2026-04-27T09:19:42.999Z</time></trkpt><trkpt lat="44.54667739338542" lon="8.201817659509725"><ele>378.0</ele><time>2026-04-27T09:19:43.999Z</time></trkpt><trkpt lat="44.54639495372389" lon="8.201644463996976"><ele>377.5</ele><time>2026-04-27T09:19:44.999Z</time></trkpt><trkpt lat="44.546118014838925" lon="8.20147665896172"><ele>377.0</ele><time>2026-04-27T09:19:45.999Z</time></trkpt><trkpt lat="44.54585842845112" lon="8.201313243345503"><ele>377.0</ele><time>2026-04-27T09:19:46.999Z</time></trkpt><trkpt lat="44.545607603282996" lon="8.201160579611747"><ele>377.0</ele><time>2026-04-27T09:19:47.999Z</time></trkpt><trkpt lat="44.54537158316077" lon="8.201021209964203"><ele>381.0</ele><time>2026-04-27T09:19:48.999Z</time></trkpt><trkpt lat="44.54516362800279" lon="8.200886170665228"><ele>385.0</ele><time>2026-04-27T09:19:49.999Z</time></trkpt><trkpt lat="44.54499079980644" lon="8.200777530743977"><ele>389.0</ele><time>2026-04-27T09:19:50.999Z</time></trkpt><trkpt lat="44.54484662927956" lon="8.200686486256933"><ele>392.5</ele><time>2026-04-27T09:19:51.999Z</time></trkpt><trkpt lat="44.544732073430524" lon="8.200633584659936"><ele>396.0</ele><time>2026-04-27T09:19:52.999Z</time></trkpt><trkpt lat="44.5446289005584" lon="8.200612772179875"><ele>399.5</ele><time>2026-04-27T09:19:53.999Z</time></trkpt><trkpt lat="44.544523700942754" lon="8.200749877248823"><ele>403.0</ele><time>2026-04-27T09:19:54.999Z</time></trkpt><trkpt lat="44.544437214923356" lon="8.200949585939936"><ele>403.0</ele><time>2026-04-27T09:19:55.999Z</time></trkpt><trkpt lat="44.544483961291085" lon="8.201163223164729"><ele>403.0</ele><time>2026-04-27T09:19:56.999Z</time></trkpt><trkpt lat="44.54458299424665" lon="8.201243377390526"><ele>403.0</ele><time>2026-04-27T09:19:57.999Z</time></trkpt><trkpt lat="44.54468808257601" lon="8.201312691587395"><ele>403.0</ele><time>2026-04-27T09:19:58.999Z</time></trkpt><trkpt lat="44.54486855663134" lon="8.201427677227125"><ele>407.5</ele><time>2026-04-27T09:19:59.999Z</time></trkpt><trkpt lat="44.54509686652021" lon="8.20162555024369"><ele>412.0</ele><time>2026-04-27T09:20:00.999Z</time></trkpt><trkpt lat="44.54531669661472" lon="8.201863806409744"><ele>403.0</ele><time>2026-04-27T09:20:01.999Z</time></trkpt><trkpt lat="44.54557645557406" lon="8.20209507586341"><ele>394.0</ele><time>2026-04-27T09:20:02.999Z</time></trkpt><trkpt lat="44.54581513512268" lon="8.202278470571782"><ele>399.0</ele><time>2026-04-27T09:20:03.999Z</time></trkpt><trkpt lat="44.54604780812091" lon="8.2024352947232"><ele>404.0</ele><time>2026-04-27T09:20:04.999Z</time></trkpt><trkpt lat="44.54627099888211" lon="8.202583701224125"><ele>404.0</ele><time>2026-04-27T09:20:05.999Z</time></trkpt><trkpt lat="44.546493707996476" lon="8.202741390369262"><ele>404.0</ele><time>2026-04-27T09:20:06.999Z</time></trkpt><trkpt lat="44.54672234248521" lon="8.202905381606007"><ele>404.0</ele><time>2026-04-27T09:20:07.999Z</time></trkpt><trkpt lat="44.546932599737936" lon="8.2031454224527"><ele>404.0</ele><time>2026-04-27T09:20:08.999Z</time></trkpt><trkpt lat="44.5471678760292" lon="8.203402041911218"><ele>406.5</ele><time>2026-04-27T09:20:09.999Z</time></trkpt><trkpt lat="44.54741629796531" lon="8.203659713784987"><ele>409.0</ele><time>2026-04-27T09:20:10.999Z</time></trkpt><trkpt lat="44.54765906440317" lon="8.20391926361721"><ele>409.0</ele><time>2026-04-27T09:20:11.999Z</time></trkpt><trkpt lat="44.547888221150615" lon="8.204164434490018"><ele>409.0</ele><time>2026-04-27T09:20:12.999Z</time></trkpt><trkpt lat="44.54811034401454" lon="8.204406459998212"><ele>409.0</ele><time>2026-04-27T09:20:13.999Z</time></trkpt><trkpt lat="44.54830899494893" lon="8.204694598542332"><ele>409.0</ele><time>2026-04-27T09:20:14.999Z</time></trkpt><trkpt lat="44.548503371669476" lon="8.204991506582402"><ele>409.5</ele><time>2026-04-27T09:20:15.999Z</time></trkpt><trkpt lat="44.54869412225722" lon="8.205314597797015"><ele>410.0</ele><time>2026-04-27T09:20:16.999Z</time></trkpt><trkpt lat="44.548901229825844" lon="8.205648487621488"><ele>420.5</ele><time>2026-04-27T09:20:17.999Z</time></trkpt><trkpt lat="44.54912334232004" lon="8.20597293402085"><ele>431.0</ele><time>2026-04-27T09:20:18.999Z</time></trkpt><trkpt lat="44.54934507916557" lon="8.206278333234897"><ele>429.5</ele><time>2026-04-27T09:20:19.999Z</time></trkpt><trkpt lat="44.549549891452116" lon="8.206599619712685"><ele>428.0</ele><time>2026-04-27T09:20:20.999Z</time></trkpt><trkpt lat="44.549736098967195" lon="8.206910373670992"><ele>428.0</ele><time>2026-04-27T09:20:21.999Z</time></trkpt><trkpt lat="44.549890823663965" lon="8.207204013781626"><ele>428.0</ele><time>2026-04-27T09:20:22.999Z</time></trkpt><trkpt lat="44.55006360903503" lon="8.207487814293865"><ele>426.66666666666663</ele><time>2026-04-27T09:20:23.999Z</time></trkpt><trkpt lat="44.55021226531113" lon="8.207731211818832"><ele>425.33333333333337</ele><time>2026-04-27T09:20:24.999Z</time></trkpt><trkpt lat="44.55032030397244" lon="8.207914869387203"><ele>424.0</ele><time>2026-04-27T09:20:25.999Z</time></trkpt><trkpt lat="44.55042037931967" lon="8.208051317648062"><ele>424.0</ele><time>2026-04-27T09:20:26.999Z</time></trkpt><trkpt lat="44.55055246380985" lon="8.208137059400995"><ele>424.0</ele><time>2026-04-27T09:20:27.999Z</time></trkpt><trkpt lat="44.55072452634093" lon="8.208170279943824"><ele>424.0</ele><time>2026-04-27T09:20:28.999Z</time></trkpt><trkpt lat="44.55091113674012" lon="8.208199291055323"><ele>426.33333333333337</ele><time>2026-04-27T09:20:29.999Z</time></trkpt><trkpt lat="44.55111215780719" lon="8.208296663147813"><ele>428.66666666666663</ele><time>2026-04-27T09:20:30.999Z</time></trkpt><trkpt lat="44.55130432997475" lon="8.208429589032335"><ele>431.0</ele><time>2026-04-27T09:20:31.999Z</time></trkpt><trkpt lat="44.551489622606894" lon="8.20861205975489"><ele>431.0</ele><time>2026-04-27T09:20:33Z</time></trkpt><trkpt lat="44.55168872424137" lon="8.208784832771384"><ele>431.0</ele><time>2026-04-27T09:20:34Z</time></trkpt><trkpt lat="44.551884387181445" lon="8.208995674103493"><ele>434.0</ele><time>2026-04-27T09:20:35Z</time></trkpt><trkpt lat="44.55208964856637" lon="8.209219439828358"><ele>437.0</ele><time>2026-04-27T09:20:36Z</time></trkpt><trkpt lat="44.55228918973395" lon="8.209460279896636"><ele>437.0</ele><time>2026-04-27T09:20:37Z</time></trkpt><trkpt lat="44.55248114359494" lon="8.209704528400831"><ele>437.0</ele><time>2026-04-27T09:20:38Z</time></trkpt><trkpt lat="44.5526524343637" lon="8.209919007579785"><ele>438.66666666666663</ele><time>2026-04-27T09:20:39Z</time></trkpt><trkpt lat="44.552810414876724" lon="8.210101571912793"><ele>440.33333333333337</ele><time>2026-04-27T09:20:40Z</time></trkpt><trkpt lat="44.55292585131716" lon="8.210237818403996"><ele>442.0</ele><time>2026-04-27T09:20:41Z</time></trkpt><trkpt lat="44.55301023974823" lon="8.21036168653561"><ele>442.0</ele><time>2026-04-27T09:20:42Z</time></trkpt><trkpt lat="44.553068843014294" lon="8.210465165729905"><ele>442.00000000000006</ele><time>2026-04-27T09:20:43Z</time></trkpt><trkpt lat="44.55307210193621" lon="8.210571933887325"><ele>442.00000000000006</ele><time>2026-04-27T09:20:44Z</time></trkpt><trkpt lat="44.55301935438214" lon="8.210676765553544"><ele>442.0</ele><time>2026-04-27T09:20:45Z</time></trkpt><trkpt lat="44.55290571431767" lon="8.210706265220127"><ele>442.0</ele><time>2026-04-27T09:20:46Z</time></trkpt><trkpt lat="44.55277970118209" lon="8.210624487105385"><ele>445.6666666666667</ele><time>2026-04-27T09:20:47Z</time></trkpt><trkpt lat="44.55260991336448" lon="8.210525781326712"><ele>449.33333333333337</ele><time>2026-04-27T09:20:48Z</time></trkpt><trkpt lat="44.5524324201209" lon="8.210360474103762"><ele>453.0</ele><time>2026-04-27T09:20:49Z</time></trkpt><trkpt lat="44.55223649741958" lon="8.210198174817549"><ele>460.0</ele><time>2026-04-27T09:20:50Z</time></trkpt><trkpt lat="44.55199945486159" lon="8.210025338247458"><ele>467.0</ele><time>2026-04-27T09:20:51Z</time></trkpt><trkpt lat="44.55174956779771" lon="8.209839694155892"><ele>458.5</ele><time>2026-04-27T09:20:52Z</time></trkpt><trkpt lat="44.55149040366021" lon="8.209632281303081"><ele>450.0</ele><time>2026-04-27T09:20:53Z</time></trkpt><trkpt lat="44.55123338111892" lon="8.209428543947954"><ele>461.5</ele><time>2026-04-27T09:20:54Z</time></trkpt><trkpt lat="44.55098102564103" lon="8.209234755932977"><ele>473.0</ele><time>2026-04-27T09:20:55Z</time></trkpt><trkpt lat="44.55072859307132" lon="8.209051002117105"><ele>471.5</ele><time>2026-04-27T09:20:56Z</time></trkpt><trkpt lat="44.55048640332672" lon="8.208900346239318"><ele>470.0</ele><time>2026-04-27T09:20:57Z</time></trkpt><trkpt lat="44.55027573263033" lon="8.208788615355914"><ele>470.0</ele><time>2026-04-27T09:20:58Z</time></trkpt><trkpt lat="44.550066026918174" lon="8.208736391320343"><ele>470.0</ele><time>2026-04-27T09:20:59Z</time></trkpt><trkpt lat="44.54987589796497" lon="8.208730030950033"><ele>470.0</ele><time>2026-04-27T09:21:00Z</time></trkpt><trkpt lat="44.54969163110343" lon="8.208667758164438"><ele>470.0</ele><time>2026-04-27T09:21:01Z</time></trkpt><trkpt lat="44.549508290516904" lon="8.20852241925167"><ele>470.0</ele><time>2026-04-27T09:21:02Z</time></trkpt><trkpt lat="44.54930397763247" lon="8.208351560307078"><ele>470.0</ele><time>2026-04-27T09:21:03Z</time></trkpt><trkpt lat="44.549086161878606" lon="8.208126023902677"><ele>470.0</ele><time>2026-04-27T09:21:04Z</time></trkpt><trkpt lat="44.54885956231057" lon="8.20789858694261"><ele>470.0</ele><time>2026-04-27T09:21:05Z</time></trkpt><trkpt lat="44.548627290272364" lon="8.207672569910722"><ele>472.5</ele><time>2026-04-27T09:21:06Z</time></trkpt><trkpt lat="44.548401508258756" lon="8.207445263480313"><ele>475.0</ele><time>2026-04-27T09:21:07Z</time></trkpt><trkpt lat="44.54817385924867" lon="8.207223271639801"><ele>475.0</ele><time>2026-04-27T09:21:08Z</time></trkpt><trkpt lat="44.547949989284085" lon="8.207008677293562"><ele>475.0</ele><time>2026-04-27T09:21:09Z</time></trkpt><trkpt lat="44.547727729101055" lon="8.206787691405353"><ele>477.0</ele><time>2026-04-27T09:21:10Z</time></trkpt><trkpt lat="44.547515197666456" lon="8.206574977475661"><ele>479.0</ele><time>2026-04-27T09:21:11Z</time></trkpt><trkpt lat="44.54731947325215" lon="8.20638325896222"><ele>479.0</ele><time>2026-04-27T09:21:12Z</time></trkpt><trkpt lat="44.547113870989385" lon="8.206205850872227"><ele>479.0</ele><time>2026-04-27T09:21:13Z</time></trkpt><trkpt lat="44.54689463992152" lon="8.206052896857365"><ele>486.5</ele><time>2026-04-27T09:21:14Z</time></trkpt><trkpt lat="44.54665478612737" lon="8.205894972029148"><ele>494.0</ele><time>2026-04-27T09:21:15Z</time></trkpt><trkpt lat="44.546399382577704" lon="8.205741255089208"><ele>494.0</ele><time>2026-04-27T09:21:16Z</time></trkpt><trkpt lat="44.546137607669046" lon="8.205574344545047"><ele>494.0</ele><time>2026-04-27T09:21:17Z</time></trkpt><trkpt lat="44.545871712353616" lon="8.205405707396013"><ele>494.0</ele><time>2026-04-27T09:21:18Z</time></trkpt><trkpt lat="44.545602965700276" lon="8.20523192794269"><ele>494.0</ele><time>2026-04-27T09:21:19Z</time></trkpt><trkpt lat="44.54533970170808" lon="8.205056169905166"><ele>493.0</ele><time>2026-04-27T09:21:20Z</time></trkpt><trkpt lat="44.54509246806075" lon="8.204897912165986"><ele>492.0</ele><time>2026-04-27T09:21:21Z</time></trkpt><trkpt lat="44.54486144401562" lon="8.204741016431436"><ele>492.0</ele><time>2026-04-27T09:21:22Z</time></trkpt><trkpt lat="44.5446451854878" lon="8.204538055072105"><ele>492.0</ele><time>2026-04-27T09:21:23Z</time></trkpt><trkpt lat="44.54443543347897" lon="8.204328358917863"><ele>492.0</ele><time>2026-04-27T09:21:24Z</time></trkpt><trkpt lat="44.54421799220075" lon="8.204119018984688"><ele>492.0</ele><time>2026-04-27T09:21:25Z</time></trkpt><trkpt lat="44.544012452512504" lon="8.203883813703301"><ele>492.0</ele><time>2026-04-27T09:21:26Z</time></trkpt><trkpt lat="44.54381016032308" lon="8.203659813419982"><ele>492.0</ele><time>2026-04-27T09:21:27Z</time></trkpt><trkpt lat="44.54363191196391" lon="8.203467167009563"><ele>489.0</ele><time>2026-04-27T09:21:28Z</time></trkpt><trkpt lat="44.54347401083071" lon="8.20330226962255"><ele>486.0</ele><time>2026-04-27T09:21:29Z</time></trkpt><trkpt lat="44.5433210068871" lon="8.203145245611038"><ele>483.0</ele><time>2026-04-27T09:21:30Z</time></trkpt><trkpt lat="44.5431618628891" lon="8.202977782570365"><ele>483.0</ele><time>2026-04-27T09:21:31Z</time></trkpt><trkpt lat="44.5429949445274" lon="8.20282025229277"><ele>483.0</ele><time>2026-04-27T09:21:32Z</time></trkpt><trkpt lat="44.54265649819463" lon="8.202978355302808"><ele>488.66666666666663</ele><time>2026-04-27T09:21:33Z</time></trkpt><trkpt lat="44.542454339435714" lon="8.202912625118659"><ele>494.3333333333333</ele><time>2026-04-27T09:21:34Z</time></trkpt><trkpt lat="44.54227433515182" lon="8.202876283274477"><ele>500.0</ele><time>2026-04-27T09:21:35Z</time></trkpt><trkpt lat="44.54211025124277" lon="8.202903901343886"><ele>500.3333333333333</ele><time>2026-04-27T09:21:36Z</time></trkpt><trkpt lat="44.54197475702297" lon="8.20299788409746"><ele>500.66666666666663</ele><time>2026-04-27T09:21:37Z</time></trkpt><trkpt lat="44.54186477094076" lon="8.203189256560977"><ele>501.0</ele><time>2026-04-27T09:21:38Z</time></trkpt><trkpt lat="44.541811806527846" lon="8.20343071466415"><ele>501.0</ele><time>2026-04-27T09:21:39Z</time></trkpt><trkpt lat="44.54181033092989" lon="8.203705367115665"><ele>501.0</ele><time>2026-04-27T09:21:40Z</time></trkpt><trkpt lat="44.54186099302137" lon="8.203967140315115"><ele>501.0</ele><time>2026-04-27T09:21:41Z</time></trkpt><trkpt lat="44.5419842489416" lon="8.204189630599783"><ele>507.66666666666663</ele><time>2026-04-27T09:21:42Z</time></trkpt><trkpt lat="44.5421469697418" lon="8.20435782392137"><ele>514.3333333333333</ele><time>2026-04-27T09:21:43Z</time></trkpt><trkpt lat="44.54233211035904" lon="8.204524990551223"><ele>521.0</ele><time>2026-04-27T09:21:44Z</time></trkpt><trkpt lat="44.542477296846876" lon="8.20476473106337"><ele>520.0</ele><time>2026-04-27T09:21:45Z</time></trkpt><trkpt lat="44.542579815785665" lon="8.205096224288578"><ele>519.0</ele><time>2026-04-27T09:21:46Z</time></trkpt><trkpt lat="44.54268947336844" lon="8.20542956126982"><ele>517.0</ele><time>2026-04-27T09:21:47Z</time></trkpt><trkpt lat="44.54277987991541" lon="8.205772611715584"><ele>515.0</ele><time>2026-04-27T09:21:48Z</time></trkpt><trkpt lat="44.5428322336696" lon="8.206105369406334"><ele>515.0</ele><time>2026-04-27T09:21:49Z</time></trkpt><trkpt lat="44.542846484772525" lon="8.206374735916462"><ele>515.0</ele><time>2026-04-27T09:21:50Z</time></trkpt><trkpt lat="44.542802583080544" lon="8.206597609460719"><ele>515.0</ele><time>2026-04-27T09:21:50.999Z</time></trkpt><trkpt lat="44.54269821765436" lon="8.206811203825724"><ele>517.0</ele><time>2026-04-27T09:21:51.999Z</time></trkpt><trkpt lat="44.54254389932802" lon="8.207017300008513"><ele>519.0</ele><time>2026-04-27T09:21:52.999Z</time></trkpt><trkpt lat="44.54238741206702" lon="8.207234851229906"><ele>521.0</ele><time>2026-04-27T09:21:53.999Z</time></trkpt><trkpt lat="44.542288737195676" lon="8.207415150738269"><ele>524.25</ele><time>2026-04-27T09:21:54.999Z</time></trkpt><trkpt lat="44.54223667736141" lon="8.207555262327249"><ele>527.5</ele><time>2026-04-27T09:21:55.999Z</time></trkpt><trkpt lat="44.542242161539804" lon="8.2077137485618"><ele>530.75</ele><time>2026-04-27T09:21:56.999Z</time></trkpt><trkpt lat="44.54231033089656" lon="8.207855318897897"><ele>534.0</ele><time>2026-04-27T09:21:57.999Z</time></trkpt><trkpt lat="44.54244645143984" lon="8.20796987452002"><ele>534.0</ele><time>2026-04-27T09:21:58.999Z</time></trkpt><trkpt lat="44.54263108751782" lon="8.208088955887682"><ele>534.0</ele><time>2026-04-27T09:21:59.999Z</time></trkpt><trkpt lat="44.542813609253464" lon="8.208206352526275"><ele>534.0</ele><time>2026-04-27T09:22:00.999Z</time></trkpt><trkpt lat="44.54292578251392" lon="8.208347141675688"><ele>541.0</ele><time>2026-04-27T09:22:01.999Z</time></trkpt><trkpt lat="44.54300153292416" lon="8.208561754854516"><ele>548.0</ele><time>2026-04-27T09:22:02.999Z</time></trkpt><trkpt lat="44.543019993151894" lon="8.208854662405338"><ele>555.0</ele><time>2026-04-27T09:22:03.999Z</time></trkpt><trkpt lat="44.54303059303328" lon="8.209178252196503"><ele>555.0</ele><time>2026-04-27T09:22:04.999Z</time></trkpt><trkpt lat="44.543044396452416" lon="8.209477407599135"><ele>555.0</ele><time>2026-04-27T09:22:05.999Z</time></trkpt><trkpt lat="44.54309679286176" lon="8.209722291600672"><ele>555.0</ele><time>2026-04-27T09:22:06.999Z</time></trkpt><trkpt lat="44.54320859040663" lon="8.209950010465901"><ele>552.6666666666666</ele><time>2026-04-27T09:22:07.999Z</time></trkpt><trkpt lat="44.54336097702649" lon="8.210171392379541"><ele>550.3333333333333</ele><time>2026-04-27T09:22:08.999Z</time></trkpt><trkpt lat="44.543476333888435" lon="8.210409330063452"><ele>548.0</ele><time>2026-04-27T09:22:09.999Z</time></trkpt><trkpt lat="44.54354749432611" lon="8.210628761411517"><ele>544.3333333333333</ele><time>2026-04-27T09:22:10.999Z</time></trkpt><trkpt lat="44.54357461946882" lon="8.210879941232582"><ele>540.6666666666666</ele><time>2026-04-27T09:22:11.999Z</time></trkpt><trkpt lat="44.54352980847166" lon="8.211144604535296"><ele>537.0</ele><time>2026-04-27T09:22:12.999Z</time></trkpt><trkpt lat="44.54343203306788" lon="8.211427262551448"><ele>538.5</ele><time>2026-04-27T09:22:13.999Z</time></trkpt><trkpt lat="44.54335779075156" lon="8.211665077246348"><ele>540.0</ele><time>2026-04-27T09:22:14.999Z</time></trkpt><trkpt lat="44.54333061915404" lon="8.211838969155304"><ele>541.5</ele><time>2026-04-27T09:22:15.999Z</time></trkpt><trkpt lat="44.54335412278456" lon="8.211989945689073"><ele>543.0</ele><time>2026-04-27T09:22:16.999Z</time></trkpt><trkpt lat="44.543444810942844" lon="8.212120482689315"><ele>543.0</ele><time>2026-04-27T09:22:17.999Z</time></trkpt><trkpt lat="44.54359236956414" lon="8.212266112693134"><ele>543.0</ele><time>2026-04-27T09:22:18.999Z</time></trkpt><trkpt lat="44.54378456609909" lon="8.212447791803141"><ele>543.0</ele><time>2026-04-27T09:22:19.999Z</time></trkpt><trkpt lat="44.54397924772374" lon="8.212651364406183"><ele>553.0</ele><time>2026-04-27T09:22:20.999Z</time></trkpt><trkpt lat="44.54417710534769" lon="8.21287517072775"><ele>563.0</ele><time>2026-04-27T09:22:21.999Z</time></trkpt><trkpt lat="44.54433849247446" lon="8.213073038341626"><ele>567.6666666666666</ele><time>2026-04-27T09:22:22.999Z</time></trkpt><trkpt lat="44.54445450373763" lon="8.213278456951251"><ele>572.3333333333334</ele><time>2026-04-27T09:22:23.999Z</time></trkpt><trkpt lat="44.544525276959426" lon="8.213550824862738"><ele>577.0</ele><time>2026-04-27T09:22:24.999Z</time></trkpt><trkpt lat="44.54456479970477" lon="8.213840962575818"><ele>576.0</ele><time>2026-04-27T09:22:25.999Z</time></trkpt><trkpt lat="44.54456257792997" lon="8.214108745453172"><ele>575.0</ele><time>2026-04-27T09:22:26.999Z</time></trkpt><trkpt lat="44.54450707131561" lon="8.214346928942902"><ele>574.0</ele><time>2026-04-27T09:22:27.999Z</time></trkpt><trkpt lat="44.54440291012181" lon="8.214550502297707"><ele>568.6666666666667</ele><time>2026-04-27T09:22:28.999Z</time></trkpt><trkpt lat="44.54424026412916" lon="8.214682482320063"><ele>563.3333333333334</ele><time>2026-04-27T09:22:29.999Z</time></trkpt><trkpt lat="44.54404765646443" lon="8.214796728122973"><ele>558.0</ele><time>2026-04-27T09:22:30.999Z</time></trkpt><trkpt lat="44.54387566504888" lon="8.214895714058928"><ele>558.0</ele><time>2026-04-27T09:22:31.999Z</time></trkpt><trkpt lat="44.54379347602013" lon="8.214983528652036"><ele>558.0</ele><time>2026-04-27T09:22:32.999Z</time></trkpt><trkpt lat="44.54376927462828" lon="8.215097249612707"><ele>558.0</ele><time>2026-04-27T09:22:33.999Z</time></trkpt><trkpt lat="44.54379470189119" lon="8.215235951992442"><ele>558.0</ele><time>2026-04-27T09:22:34.999Z</time></trkpt><trkpt lat="44.54388792720684" lon="8.215395338179235"><ele>558.0</ele><time>2026-04-27T09:22:35.999Z</time></trkpt><trkpt lat="44.54402840193342" lon="8.21557844723487"><ele>558.3333333333334</ele><time>2026-04-27T09:22:36.999Z</time></trkpt><trkpt lat="44.54417600082266" lon="8.215772767021624"><ele>558.6666666666667</ele><time>2026-04-27T09:22:37.999Z</time></trkpt><trkpt lat="44.544300448330816" lon="8.21600074827771"><ele>559.0</ele><time>2026-04-27T09:22:39Z</time></trkpt><trkpt lat="44.54437709932344" lon="8.216241474093499"><ele>557.3333333333334</ele><time>2026-04-27T09:22:40Z</time></trkpt><trkpt lat="44.54439252645496" lon="8.21650685919256"><ele>555.6666666666666</ele><time>2026-04-27T09:22:41Z</time></trkpt><trkpt lat="44.54436106583084" lon="8.216776665282769"><ele>554.0</ele><time>2026-04-27T09:22:42Z</time></trkpt><trkpt lat="44.54427263214506" lon="8.217025250258166"><ele>554.0</ele><time>2026-04-27T09:22:43Z</time></trkpt><trkpt lat="44.54417242147568" lon="8.217235830968923"><ele>554.0</ele><time>2026-04-27T09:22:44Z</time></trkpt><trkpt lat="44.544147231950426" lon="8.217353366034265"><ele>554.0</ele><time>2026-04-27T09:22:45Z</time></trkpt><trkpt lat="44.54407686646691" lon="8.21750390823691"><ele>554.0</ele><time>2026-04-27T09:22:46Z</time></trkpt><trkpt lat="44.544243055664715" lon="8.21764698429779"><ele>555.3333333333333</ele><time>2026-04-27T09:22:47Z</time></trkpt><trkpt lat="44.54430113959433" lon="8.217836769416701"><ele>556.6666666666666</ele><time>2026-04-27T09:22:48Z</time></trkpt><trkpt lat="44.54441883111266" lon="8.218061442200128"><ele>558.0</ele><time>2026-04-27T09:22:49Z</time></trkpt><trkpt lat="44.54448630249217" lon="8.218322859944896"><ele>558.3333333333334</ele><time>2026-04-27T09:22:50Z</time></trkpt><trkpt lat="44.544422397984874" lon="8.218585992133333"><ele>558.6666666666667</ele><time>2026-04-27T09:22:51Z</time></trkpt><trkpt lat="44.544350629809166" lon="8.218806704053625"><ele>559.0</ele><time>2026-04-27T09:22:52Z</time></trkpt><trkpt lat="44.54422307128698" lon="8.218986179801362"><ele>565.5</ele><time>2026-04-27T09:22:53Z</time></trkpt><trkpt lat="44.54404132273798" lon="8.21919666096023"><ele>572.0</ele><time>2026-04-27T09:22:54Z</time></trkpt><trkpt lat="44.543825734838784" lon="8.21943057029245"><ele>573.5</ele><time>2026-04-27T09:22:55Z</time></trkpt><trkpt lat="44.54359575199412" lon="8.219665164930111"><ele>575.0</ele><time>2026-04-27T09:22:56Z</time></trkpt><trkpt lat="44.54336638933256" lon="8.219855395117555"><ele>575.0</ele><time>2026-04-27T09:22:57Z</time></trkpt><trkpt lat="44.54312069276641" lon="8.220014235445763"><ele>575.0</ele><time>2026-04-27T09:22:58Z</time></trkpt><trkpt lat="44.542876490964325" lon="8.22014035592641"><ele>572.0</ele><time>2026-04-27T09:22:59Z</time></trkpt><trkpt lat="44.54267565013375" lon="8.220256590462096"><ele>569.0</ele><time>2026-04-27T09:23:00Z</time></trkpt><trkpt lat="44.54251542210385" lon="8.220378709148756"><ele>566.0</ele><time>2026-04-27T09:23:01Z</time></trkpt><trkpt lat="44.54237609417921" lon="8.220488835054644"><ele>568.75</ele><time>2026-04-27T09:23:02Z</time></trkpt><trkpt lat="44.542328478054756" lon="8.220660137686984"><ele>571.5</ele><time>2026-04-27T09:23:03Z</time></trkpt><trkpt lat="44.54231946712621" lon="8.220836926689431"><ele>574.25</ele><time>2026-04-27T09:23:04Z</time></trkpt><trkpt lat="44.54238968126909" lon="8.220985026693034"><ele>577.0</ele><time>2026-04-27T09:23:05Z</time></trkpt><trkpt lat="44.54251543106131" lon="8.221083829398065"><ele>577.0</ele><time>2026-04-27T09:23:06Z</time></trkpt><trkpt lat="44.54266805426958" lon="8.221258914047677"><ele>577.0</ele><time>2026-04-27T09:23:07Z</time></trkpt><trkpt lat="44.54285266523309" lon="8.221433398199542"><ele>577.0</ele><time>2026-04-27T09:23:08Z</time></trkpt><trkpt lat="44.543016891756274" lon="8.221693964081068"><ele>580.5</ele><time>2026-04-27T09:23:09Z</time></trkpt><trkpt lat="44.54316987157008" lon="8.221988208492093"><ele>584.0</ele><time>2026-04-27T09:23:10Z</time></trkpt><trkpt lat="44.543411424758254" lon="8.222331342634488"><ele>584.0</ele><time>2026-04-27T09:23:11Z</time></trkpt><trkpt lat="44.5436044860147" lon="8.222656293349358"><ele>584.0</ele><time>2026-04-27T09:23:12Z</time></trkpt><trkpt lat="44.543796794515764" lon="8.22295354788281"><ele>589.6666666666666</ele><time>2026-04-27T09:23:13Z</time></trkpt><trkpt lat="44.54396378935393" lon="8.223204799647048"><ele>595.3333333333334</ele><time>2026-04-27T09:23:14Z</time></trkpt><trkpt lat="44.54409195531257" lon="8.223397631326586"><ele>601.0</ele><time>2026-04-27T09:23:15Z</time></trkpt><trkpt lat="44.544183408620206" lon="8.223559183803513"><ele>601.0</ele><time>2026-04-27T09:23:16Z</time></trkpt><trkpt lat="44.54421476306744" lon="8.223699339474365"><ele>601.0</ele><time>2026-04-27T09:23:17Z</time></trkpt><trkpt lat="44.54417074824796" lon="8.223857592878701"><ele>601.0</ele><time>2026-04-27T09:23:18Z</time></trkpt><trkpt lat="44.54413842888783" lon="8.22408423397449"><ele>601.0</ele><time>2026-04-27T09:23:19Z</time></trkpt><trkpt lat="44.54413802985304" lon="8.224331381753306"><ele>597.0</ele><time>2026-04-27T09:23:20Z</time></trkpt><trkpt lat="44.54422781325371" lon="8.224584323259494"><ele>593.0</ele><time>2026-04-27T09:23:21Z</time></trkpt><trkpt lat="44.544335799316265" lon="8.224916087090522"><ele>591.0</ele><time>2026-04-27T09:23:22Z</time></trkpt><trkpt lat="44.54443461871886" lon="8.225296397906552"><ele>589.0</ele><time>2026-04-27T09:23:23Z</time></trkpt><trkpt lat="44.544513870300534" lon="8.225684456093685"><ele>612.5</ele><time>2026-04-27T09:23:24Z</time></trkpt><trkpt lat="44.544573941126714" lon="8.226037908309289"><ele>636.0</ele><time>2026-04-27T09:23:25Z</time></trkpt><trkpt lat="44.54462818109425" lon="8.22632809679944"><ele>634.0</ele><time>2026-04-27T09:23:26Z</time></trkpt><trkpt lat="44.544672069828074" lon="8.226581125327995"><ele>632.0</ele><time>2026-04-27T09:23:27Z</time></trkpt><trkpt lat="44.544713850510355" lon="8.226764817590405"><ele>630.0</ele><time>2026-04-27T09:23:28Z</time></trkpt><trkpt lat="44.544736629861085" lon="8.226943149270651"><ele>630.0</ele><time>2026-04-27T09:23:29Z</time></trkpt><trkpt lat="44.54467524514674" lon="8.227138071219178"><ele>630.0</ele><time>2026-04-27T09:23:30Z</time></trkpt><trkpt lat="44.5445700303981" lon="8.227324689822165"><ele>630.0</ele><time>2026-04-27T09:23:31Z</time></trkpt><trkpt lat="44.54448076980602" lon="8.22743393265503"><ele>630.0</ele><time>2026-04-27T09:23:32Z</time></trkpt><trkpt lat="44.544378062356046" lon="8.227450417976197"><ele>627.6666666666666</ele><time>2026-04-27T09:23:33Z</time></trkpt><trkpt lat="44.544274656209765" lon="8.227383362569215"><ele>625.3333333333333</ele><time>2026-04-27T09:23:34Z</time></trkpt><trkpt lat="44.54410138106088" lon="8.227307620265481"><ele>623.0</ele><time>2026-04-27T09:23:35Z</time></trkpt><trkpt lat="44.543890888723716" lon="8.227194830581235"><ele>611.5</ele><time>2026-04-27T09:23:36Z</time></trkpt><trkpt lat="44.543643150818546" lon="8.227116786023728"><ele>600.0</ele><time>2026-04-27T09:23:37Z</time></trkpt><trkpt lat="44.54337309442963" lon="8.227057196871346"><ele>600.0</ele><time>2026-04-27T09:23:38Z</time></trkpt><trkpt lat="44.54307902679727" lon="8.227010474987644"><ele>600.0</ele><time>2026-04-27T09:23:39Z</time></trkpt><trkpt lat="44.54279578258216" lon="8.226950615911026"><ele>602.3333333333334</ele><time>2026-04-27T09:23:40Z</time></trkpt><trkpt lat="44.542558698871915" lon="8.22688131874307"><ele>604.6666666666667</ele><time>2026-04-27T09:23:41Z</time></trkpt><trkpt lat="44.54238358406066" lon="8.226774282719102"><ele>607.0</ele><time>2026-04-27T09:23:42Z</time></trkpt><trkpt lat="44.542223591203" lon="8.226713153529301"><ele>607.0</ele><time>2026-04-27T09:23:43Z</time></trkpt><trkpt lat="44.54207375138369" lon="8.22665670908599"><ele>607.0</ele><time>2026-04-27T09:23:44Z</time></trkpt><trkpt lat="44.54188822767477" lon="8.2266637620429"><ele>607.0</ele><time>2026-04-27T09:23:45Z</time></trkpt><trkpt lat="44.54168686217573" lon="8.226719903893233"><ele>606.0</ele><time>2026-04-27T09:23:46Z</time></trkpt><trkpt lat="44.54153040459229" lon="8.226777844427065"><ele>605.0</ele><time>2026-04-27T09:23:47Z</time></trkpt><trkpt lat="44.54142656258481" lon="8.226898740781548"><ele>604.0</ele><time>2026-04-27T09:23:48Z</time></trkpt><trkpt lat="44.54137820816536" lon="8.227044191771425"><ele>603.0</ele><time>2026-04-27T09:23:49Z</time></trkpt><trkpt lat="44.54136742515279" lon="8.227211030638907"><ele>605.0</ele><time>2026-04-27T09:23:50Z</time></trkpt><trkpt lat="44.541455503267066" lon="8.227429566239705"><ele>607.0</ele><time>2026-04-27T09:23:51Z</time></trkpt><trkpt lat="44.541559193783264" lon="8.227668657423646"><ele>609.0</ele><time>2026-04-27T09:23:52Z</time></trkpt><trkpt lat="44.54169668226172" lon="8.22789373625476"><ele>609.0</ele><time>2026-04-27T09:23:53Z</time></trkpt><trkpt lat="44.54186639222642" lon="8.228040673324161"><ele>609.0</ele><time>2026-04-27T09:23:54Z</time></trkpt><trkpt lat="44.542073390985294" lon="8.22812911036268"><ele>609.0</ele><time>2026-04-27T09:23:55Z</time></trkpt><trkpt lat="44.54227174987743" lon="8.228247759946008"><ele>613.3333333333334</ele><time>2026-04-27T09:23:55.999Z</time></trkpt><trkpt lat="44.542417923428545" lon="8.228388943097814"><ele>617.6666666666667</ele><time>2026-04-27T09:23:56.999Z</time></trkpt><trkpt lat="44.542504086489224" lon="8.22855827477947"><ele>622.0</ele><time>2026-04-27T09:23:57.999Z</time></trkpt><trkpt lat="44.54256618006878" lon="8.228790541820878"><ele>618.3333333333334</ele><time>2026-04-27T09:23:58.999Z</time></trkpt><trkpt lat="44.54258232987992" lon="8.229064540552706"><ele>614.6666666666666</ele><time>2026-04-27T09:23:59.999Z</time></trkpt><trkpt lat="44.542580328943515" lon="8.229360771999408"><ele>611.0</ele><time>2026-04-27T09:24:00.999Z</time></trkpt><trkpt lat="44.54258891583707" lon="8.229603822749464"><ele>608.6666666666666</ele><time>2026-04-27T09:24:01.999Z</time></trkpt><trkpt lat="44.54264708349772" lon="8.229829027586954"><ele>606.3333333333334</ele><time>2026-04-27T09:24:02.999Z</time></trkpt><trkpt lat="44.54276238137587" lon="8.230022530831286"><ele>604.0</ele><time>2026-04-27T09:24:03.999Z</time></trkpt><trkpt lat="44.542932718660964" lon="8.230210847675488"><ele>623.5</ele><time>2026-04-27T09:24:04.999Z</time></trkpt><trkpt lat="44.5431297545188" lon="8.230397196000059"><ele>643.0</ele><time>2026-04-27T09:24:05.999Z</time></trkpt><trkpt lat="44.54332229741404" lon="8.230563852008277"><ele>637.5</ele><time>2026-04-27T09:24:06.999Z</time></trkpt><trkpt lat="44.54345853450904" lon="8.23073624158137"><ele>632.0</ele><time>2026-04-27T09:24:07.999Z</time></trkpt><trkpt lat="44.54356232382277" lon="8.230853345400394"><ele>626.5</ele><time>2026-04-27T09:24:08.999Z</time></trkpt><trkpt lat="44.54362711118024" lon="8.230960547590042"><ele>621.0</ele><time>2026-04-27T09:24:09.999Z</time></trkpt><trkpt lat="44.54363093880178" lon="8.231073803582227"><ele>621.0</ele><time>2026-04-27T09:24:10.999Z</time></trkpt><trkpt lat="44.543579896680875" lon="8.231171738714078"><ele>621.0</ele><time>2026-04-27T09:24:11.999Z</time></trkpt><trkpt lat="44.5434795101458" lon="8.231255366668357"><ele>621.0</ele><time>2026-04-27T09:24:12.999Z</time></trkpt><trkpt lat="44.54329073483617" lon="8.231328321438406"><ele>621.0</ele><time>2026-04-27T09:24:13.999Z</time></trkpt><trkpt lat="44.543081262896706" lon="8.231460129987621"><ele>618.0</ele><time>2026-04-27T09:24:14.999Z</time></trkpt><trkpt lat="44.54287483763494" lon="8.231633015972996"><ele>615.0</ele><time>2026-04-27T09:24:15.999Z</time></trkpt><trkpt lat="44.54263924543565" lon="8.23181964005539"><ele>615.0</ele><time>2026-04-27T09:24:16.999Z</time></trkpt><trkpt lat="44.542416107181765" lon="8.231961879116902"><ele>615.0</ele><time>2026-04-27T09:24:17.999Z</time></trkpt><trkpt lat="44.54223474662414" lon="8.232066038857486"><ele>615.0</ele><time>2026-04-27T09:24:18.999Z</time></trkpt><trkpt lat="44.54206734022799" lon="8.23223405595054"><ele>612.0</ele><time>2026-04-27T09:24:19.999Z</time></trkpt><trkpt lat="44.54191930607214" lon="8.232471846206336"><ele>609.0</ele><time>2026-04-27T09:24:20.999Z</time></trkpt><trkpt lat="44.54180824104475" lon="8.232696477019564"><ele>606.0</ele><time>2026-04-27T09:24:21.999Z</time></trkpt><trkpt lat="44.54172498382332" lon="8.2329009552784"><ele>606.0</ele><time>2026-04-27T09:24:22.999Z</time></trkpt><trkpt lat="44.541681814913474" lon="8.233137002757285"><ele>606.0</ele><time>2026-04-27T09:24:23.999Z</time></trkpt><trkpt lat="44.54169396785595" lon="8.233424792559479"><ele>606.0</ele><time>2026-04-27T09:24:24.999Z</time></trkpt><trkpt lat="44.541721401073474" lon="8.23369838366354"><ele>609.5</ele><time>2026-04-27T09:24:25.999Z</time></trkpt><trkpt lat="44.541738561167264" lon="8.23390616420605"><ele>613.0</ele><time>2026-04-27T09:24:26.999Z</time></trkpt><trkpt lat="44.541708176169834" lon="8.2340811265229"><ele>616.5</ele><time>2026-04-27T09:24:27.999Z</time></trkpt><trkpt lat="44.541636575834936" lon="8.2342282179088"><ele>620.0</ele><time>2026-04-27T09:24:28.999Z</time></trkpt><trkpt lat="44.5415004579414" lon="8.234330490990413"><ele>620.0</ele><time>2026-04-27T09:24:29.999Z</time></trkpt><trkpt lat="44.54132646610024" lon="8.234301778341244"><ele>620.0</ele><time>2026-04-27T09:24:30.999Z</time></trkpt><trkpt lat="44.54116353343958" lon="8.234218727379957"><ele>620.0</ele><time>2026-04-27T09:24:31.999Z</time></trkpt><trkpt lat="44.54099354831616" lon="8.234142124352394"><ele>620.0</ele><time>2026-04-27T09:24:32.999Z</time></trkpt><trkpt lat="44.54081830777323" lon="8.234081882571282"><ele>620.0</ele><time>2026-04-27T09:24:33.999Z</time></trkpt><trkpt lat="44.5406534489557" lon="8.234110516304392"><ele>620.0</ele><time>2026-04-27T09:24:34.999Z</time></trkpt><trkpt lat="44.5404749768737" lon="8.234161610241127"><ele>613.0</ele><time>2026-04-27T09:24:35.999Z</time></trkpt><trkpt lat="44.54029843427873" lon="8.234368077384262"><ele>606.0</ele><time>2026-04-27T09:24:36.999Z</time></trkpt><trkpt lat="44.54016068844417" lon="8.23467650227361"><ele>616.5</ele><time>2026-04-27T09:24:37.999Z</time></trkpt><trkpt lat="44.539977513726555" lon="8.234948666492802"><ele>627.0</ele><time>2026-04-27T09:24:38.999Z</time></trkpt><trkpt lat="44.53977468064345" lon="8.235221607462378"><ele>627.0</ele><time>2026-04-27T09:24:39.999Z</time></trkpt><trkpt lat="44.53958184397794" lon="8.23545399201661"><ele>627.0</ele><time>2026-04-27T09:24:40.999Z</time></trkpt><trkpt lat="44.53936180015224" lon="8.235611595679385"><ele>625.6666666666666</ele><time>2026-04-27T09:24:41.999Z</time></trkpt><trkpt lat="44.539156733741855" lon="8.235762618706929"><ele>624.3333333333333</ele><time>2026-04-27T09:24:42.999Z</time></trkpt><trkpt lat="44.5389742341513" lon="8.235874629582376"><ele>623.0</ele><time>2026-04-27T09:24:43.999Z</time></trkpt><trkpt lat="44.5388197581179" lon="8.236024974263662"><ele>618.5</ele><time>2026-04-27T09:24:45Z</time></trkpt><trkpt lat="44.53868711841464" lon="8.236284798648347"><ele>614.0</ele><time>2026-04-27T09:24:46Z</time></trkpt><trkpt lat="44.53853076921255" lon="8.236578351219972"><ele>614.0</ele><time>2026-04-27T09:24:47Z</time></trkpt><trkpt lat="44.53835620780655" lon="8.236861599948197"><ele>614.0</ele><time>2026-04-27T09:24:48Z</time></trkpt><trkpt lat="44.538217037070325" lon="8.237131792629132"><ele>617.3333333333333</ele><time>2026-04-27T09:24:49Z</time></trkpt><trkpt lat="44.53808835216861" lon="8.237325415617034"><ele>620.6666666666666</ele><time>2026-04-27T09:24:50Z</time></trkpt><trkpt lat="44.53797710448182" lon="8.23745956921603"><ele>624.0</ele><time>2026-04-27T09:24:51Z</time></trkpt><trkpt lat="44.53787813021322" lon="8.237583038865285"><ele>627.0</ele><time>2026-04-27T09:24:52Z</time></trkpt><trkpt lat="44.53783519424717" lon="8.237745594726793"><ele>630.0</ele><time>2026-04-27T09:24:53Z</time></trkpt><trkpt lat="44.537857874800174" lon="8.237957268761322"><ele>633.0</ele><time>2026-04-27T09:24:54Z</time></trkpt><trkpt lat="44.53793745325607" lon="8.238185036413363"><ele>633.0</ele><time>2026-04-27T09:24:55Z</time></trkpt><trkpt lat="44.53796741644123" lon="8.238445180794947"><ele>633.0</ele><time>2026-04-27T09:24:56Z</time></trkpt><trkpt lat="44.53799515185954" lon="8.238710298314937"><ele>633.0</ele><time>2026-04-27T09:24:57Z</time></trkpt><trkpt lat="44.53795286645615" lon="8.238979667486332"><ele>622.3333333333334</ele><time>2026-04-27T09:24:58Z</time></trkpt><trkpt lat="44.5378751337447" lon="8.239274575391256"><ele>611.6666666666667</ele><time>2026-04-27T09:24:59Z</time></trkpt><trkpt lat="44.53780184573107" lon="8.23957008321822"><ele>601.0</ele><time>2026-04-27T09:25:00Z</time></trkpt><trkpt lat="44.53767781122302" lon="8.239793311184838"><ele>607.0</ele><time>2026-04-27T09:25:01Z</time></trkpt><trkpt lat="44.5375515300842" lon="8.23995058004294"><ele>613.0</ele><time>2026-04-27T09:25:02Z</time></trkpt><trkpt lat="44.53741398030002" lon="8.240061007474385"><ele>619.0</ele><time>2026-04-27T09:25:03Z</time></trkpt><trkpt lat="44.53723591624042" lon="8.240099770717816"><ele>617.6666666666667</ele><time>2026-04-27T09:25:04Z</time></trkpt><trkpt lat="44.5370414149499" lon="8.240045596449455"><ele>616.3333333333334</ele><time>2026-04-27T09:25:05Z</time></trkpt><trkpt lat="44.53680734102621" lon="8.239995432019125"><ele>615.0</ele><time>2026-04-27T09:25:06Z</time></trkpt><trkpt lat="44.53655740342274" lon="8.239884574945352"><ele>615.0</ele><time>2026-04-27T09:25:07Z</time></trkpt><trkpt lat="44.53633441517015" lon="8.239807780392757"><ele>615.0</ele><time>2026-04-27T09:25:08Z</time></trkpt><trkpt lat="44.536123349309854" lon="8.239736131220182"><ele>615.0</ele><time>2026-04-27T09:25:09Z</time></trkpt><trkpt lat="44.535950452171974" lon="8.239671377438242"><ele>607.6666666666666</ele><time>2026-04-27T09:25:10Z</time></trkpt><trkpt lat="44.53579072354652" lon="8.239638130720248"><ele>600.3333333333333</ele><time>2026-04-27T09:25:11Z</time></trkpt><trkpt lat="44.53562559307125" lon="8.239675816920556"><ele>593.0</ele><time>2026-04-27T09:25:12Z</time></trkpt><trkpt lat="44.53542683951915" lon="8.239786266590698"><ele>599.3333333333333</ele><time>2026-04-27T09:25:13Z</time></trkpt><trkpt lat="44.535230417352395" lon="8.239872136130762"><ele>605.6666666666666</ele><time>2026-04-27T09:25:14Z</time></trkpt><trkpt lat="44.53505640473516" lon="8.239849928296136"><ele>612.0</ele><time>2026-04-27T09:25:15Z</time></trkpt><trkpt lat="44.53490980581636" lon="8.239802176907027"><ele>612.0</ele><time>2026-04-27T09:25:16Z</time></trkpt><trkpt lat="44.534796639028094" lon="8.239840144819327"><ele>612.0</ele><time>2026-04-27T09:25:17Z</time></trkpt><trkpt lat="44.534725422415654" lon="8.239960265714425"><ele>612.0</ele><time>2026-04-27T09:25:18Z</time></trkpt><trkpt lat="44.534700766955844" lon="8.240143934938997"><ele>612.0</ele><time>2026-04-27T09:25:19Z</time></trkpt><trkpt lat="44.53472016808858" lon="8.240373466439342"><ele>616.5</ele><time>2026-04-27T09:25:20Z</time></trkpt><trkpt lat="44.53478501937669" lon="8.24068019895947"><ele>621.0</ele><time>2026-04-27T09:25:21Z</time></trkpt><trkpt lat="44.53482180752127" lon="8.24101539301087"><ele>621.0</ele><time>2026-04-27T09:25:22Z</time></trkpt><trkpt lat="44.53482296563423" lon="8.241341153498682"><ele>621.0</ele><time>2026-04-27T09:25:23Z</time></trkpt><trkpt lat="44.53476877427628" lon="8.241673087507737"><ele>624.0</ele><time>2026-04-27T09:25:24Z</time></trkpt><trkpt lat="44.53462761640553" lon="8.241986084671954"><ele>627.0</ele><time>2026-04-27T09:25:25Z</time></trkpt><trkpt lat="44.534532851827116" lon="8.242349717862563"><ele>611.0</ele><time>2026-04-27T09:25:26Z</time></trkpt><trkpt lat="44.53448115094339" lon="8.242710546148642"><ele>595.0</ele><time>2026-04-27T09:25:27Z</time></trkpt><trkpt lat="44.53445467588693" lon="8.243031961877184"><ele>595.3333333333334</ele><time>2026-04-27T09:25:28Z</time></trkpt><trkpt lat="44.534405235356026" lon="8.243323380028869"><ele>595.6666666666666</ele><time>2026-04-27T09:25:29Z</time></trkpt><trkpt lat="44.534413366422626" lon="8.243613434653037"><ele>596.0</ele><time>2026-04-27T09:25:30Z</time></trkpt><trkpt lat="44.53444542186402" lon="8.243931683799596"><ele>596.0</ele><time>2026-04-27T09:25:31Z</time></trkpt><trkpt lat="44.53453830395724" lon="8.24427532158578"><ele>596.0</ele><time>2026-04-27T09:25:32Z</time></trkpt><trkpt lat="44.53460832337388" lon="8.244589453114301"><ele>605.5</ele><time>2026-04-27T09:25:33Z</time></trkpt><trkpt lat="44.53467915470374" lon="8.244825572019893"><ele>615.0</ele><time>2026-04-27T09:25:34Z</time></trkpt><trkpt lat="44.53475188189809" lon="8.24501574817777"><ele>624.5</ele><time>2026-04-27T09:25:35Z</time></trkpt><trkpt lat="44.53479189838085" lon="8.245160195382851"><ele>634.0</ele><time>2026-04-27T09:25:36Z</time></trkpt><trkpt lat="44.5348017778703" lon="8.245265214709656"><ele>634.0</ele><time>2026-04-27T09:25:37Z</time></trkpt><trkpt lat="44.53476983719676" lon="8.24535109487842"><ele>634.0</ele><time>2026-04-27T09:25:38Z</time></trkpt><trkpt lat="44.53467632904225" lon="8.24537707863381"><ele>634.0</ele><time>2026-04-27T09:25:39Z</time></trkpt><trkpt lat="44.53453408044096" lon="8.245334754560087"><ele>634.0</ele><time>2026-04-27T09:25:40Z</time></trkpt><trkpt lat="44.53434766114483" lon="8.245257133881262"><ele>622.0</ele><time>2026-04-27T09:25:41Z</time></trkpt><trkpt lat="44.5341138427947" lon="8.245157921557773"><ele>610.0</ele><time>2026-04-27T09:25:42Z</time></trkpt><trkpt lat="44.53386947167956" lon="8.245079224195706"><ele>610.6666666666667</ele><time>2026-04-27T09:25:43Z</time></trkpt><trkpt lat="44.53364545941333" lon="8.245015281687403"><ele>611.3333333333334</ele><time>2026-04-27T09:25:44Z</time></trkpt><trkpt lat="44.533444537348" lon="8.244948995727086"><ele>612.0</ele><time>2026-04-27T09:25:45Z</time></trkpt><trkpt lat="44.53327362282569" lon="8.244901816744887"><ele>612.0</ele><time>2026-04-27T09:25:46Z</time></trkpt><trkpt lat="44.53313876692641" lon="8.244911550625524"><ele>612.0</ele><time>2026-04-27T09:25:47Z</time></trkpt><trkpt lat="44.53301027007427" lon="8.244954922644547"><ele>612.0</ele><time>2026-04-27T09:25:48Z</time></trkpt><trkpt lat="44.53288605769355" lon="8.24507620066947"><ele>612.0</ele><time>2026-04-27T09:25:49Z</time></trkpt><trkpt lat="44.53276687944827" lon="8.245294977836227"><ele>613.5</ele><time>2026-04-27T09:25:50Z</time></trkpt><trkpt lat="44.53262326946075" lon="8.24554743656719"><ele>615.0</ele><time>2026-04-27T09:25:51Z</time></trkpt><trkpt lat="44.532455853103855" lon="8.24581595293737"><ele>615.0</ele><time>2026-04-27T09:25:52Z</time></trkpt><trkpt lat="44.53229363671422" lon="8.24608796361926"><ele>615.0</ele><time>2026-04-27T09:25:53Z</time></trkpt><trkpt lat="44.532114935598756" lon="8.24634154747354"><ele>615.0</ele><time>2026-04-27T09:25:53.999Z</time></trkpt><trkpt lat="44.531962125255056" lon="8.24660883964161"><ele>615.0</ele><time>2026-04-27T09:25:54.999Z</time></trkpt><trkpt lat="44.53177224319574" lon="8.246821240567973"><ele>615.0</ele><time>2026-04-27T09:25:55.999Z</time></trkpt><trkpt lat="44.53154973644857" lon="8.24700498576261"><ele>615.0</ele><time>2026-04-27T09:25:56.999Z</time></trkpt><trkpt lat="44.53130410966209" lon="8.24719108828495"><ele>615.5</ele><time>2026-04-27T09:25:57.999Z</time></trkpt><trkpt lat="44.531043732144596" lon="8.247396881892733"><ele>616.0</ele><time>2026-04-27T09:25:58.999Z</time></trkpt><trkpt lat="44.53079969249004" lon="8.247600858281245"><ele>616.0</ele><time>2026-04-27T09:25:59.999Z</time></trkpt><trkpt lat="44.53055205819873" lon="8.247814188010175"><ele>616.0</ele><time>2026-04-27T09:26:00.999Z</time></trkpt><trkpt lat="44.53032025550045" lon="8.248001251482185"><ele>617.5</ele><time>2026-04-27T09:26:01.999Z</time></trkpt><trkpt lat="44.530098463722844" lon="8.248176588680161"><ele>619.0</ele><time>2026-04-27T09:26:02.999Z</time></trkpt><trkpt lat="44.529891184765745" lon="8.248334107237634"><ele>619.0</ele><time>2026-04-27T09:26:03.999Z</time></trkpt><trkpt lat="44.52970026762978" lon="8.248481727808777"><ele>619.0</ele><time>2026-04-27T09:26:04.999Z</time></trkpt><trkpt lat="44.52951462829961" lon="8.248639850440746"><ele>619.0</ele><time>2026-04-27T09:26:05.999Z</time></trkpt><trkpt lat="44.52933458471234" lon="8.248789071188902"><ele>619.6666666666667</ele><time>2026-04-27T09:26:06.999Z</time></trkpt><trkpt lat="44.529151113825755" lon="8.248894090999213"><ele>620.3333333333334</ele><time>2026-04-27T09:26:07.999Z</time></trkpt><trkpt lat="44.528931543024896" lon="8.248874498075223"><ele>621.0</ele><time>2026-04-27T09:26:08.999Z</time></trkpt><trkpt lat="44.528699316066636" lon="8.248840797202327"><ele>621.5</ele><time>2026-04-27T09:26:09.999Z</time></trkpt><trkpt lat="44.52844383128838" lon="8.248776939127556"><ele>622.0</ele><time>2026-04-27T09:26:10.999Z</time></trkpt><trkpt lat="44.52817820527667" lon="8.248717557355965"><ele>623.0</ele><time>2026-04-27T09:26:11.999Z</time></trkpt><trkpt lat="44.52789096768757" lon="8.248656614456568"><ele>624.0</ele><time>2026-04-27T09:26:12.999Z</time></trkpt><trkpt lat="44.52763942515199" lon="8.248606751460363"><ele>624.0</ele><time>2026-04-27T09:26:13.999Z</time></trkpt><trkpt lat="44.527409109018855" lon="8.248559815311927"><ele>624.0</ele><time>2026-04-27T09:26:14.999Z</time></trkpt><trkpt lat="44.52720576584638" lon="8.248516972755944"><ele>624.0</ele><time>2026-04-27T09:26:15.999Z</time></trkpt><trkpt lat="44.52702290551625" lon="8.248481341375811"><ele>626.6666666666666</ele><time>2026-04-27T09:26:16.999Z</time></trkpt><trkpt lat="44.52686177508936" lon="8.24843123134553"><ele>629.3333333333333</ele><time>2026-04-27T09:26:17.999Z</time></trkpt><trkpt lat="44.526726064605825" lon="8.248336031234487"><ele>632.0</ele><time>2026-04-27T09:26:18.999Z</time></trkpt><trkpt lat="44.52662294174787" lon="8.248169661847829"><ele>631.0</ele><time>2026-04-27T09:26:19.999Z</time></trkpt><trkpt lat="44.52654947181646" lon="8.24797427484123"><ele>630.0</ele><time>2026-04-27T09:26:20.999Z</time></trkpt><trkpt lat="44.526494004566" lon="8.247782709436208"><ele>629.0</ele><time>2026-04-27T09:26:21.999Z</time></trkpt><trkpt lat="44.526434007262225" lon="8.247575032419087"><ele>629.0</ele><time>2026-04-27T09:26:22.999Z</time></trkpt><trkpt lat="44.526372605509785" lon="8.247355619771945"><ele>629.0</ele><time>2026-04-27T09:26:23.999Z</time></trkpt><trkpt lat="44.52631044898549" lon="8.247154816286084"><ele>629.0</ele><time>2026-04-27T09:26:24.999Z</time></trkpt><trkpt lat="44.526247400943156" lon="8.24697626699"><ele>630.0</ele><time>2026-04-27T09:26:25.999Z</time></trkpt><trkpt lat="44.526159571940475" lon="8.24681652098261"><ele>631.0</ele><time>2026-04-27T09:26:26.999Z</time></trkpt><trkpt lat="44.52603689003136" lon="8.24670318018538"><ele>632.0</ele><time>2026-04-27T09:26:27.999Z</time></trkpt><trkpt lat="44.52588027288912" lon="8.246622478718907"><ele>632.0</ele><time>2026-04-27T09:26:28.999Z</time></trkpt><trkpt lat="44.525712713558356" lon="8.24654629958386"><ele>632.0</ele><time>2026-04-27T09:26:29.999Z</time></trkpt><trkpt lat="44.525549325773596" lon="8.246442709262793"><ele>632.0</ele><time>2026-04-27T09:26:30.999Z</time></trkpt><trkpt lat="44.52539023778832" lon="8.246361101051194"><ele>629.3333333333333</ele><time>2026-04-27T09:26:31.999Z</time></trkpt><trkpt lat="44.52522739255132" lon="8.246277133975969"><ele>626.6666666666666</ele><time>2026-04-27T09:26:32.999Z</time></trkpt><trkpt lat="44.525080972027936" lon="8.246202661812836"><ele>624.0</ele><time>2026-04-27T09:26:33.999Z</time></trkpt><trkpt lat="44.52474543777285" lon="8.24601414600059"><ele>626.0</ele><time>2026-04-27T09:26:34.999Z</time></trkpt><trkpt lat="44.52452639294596" lon="8.245915574282895"><ele>628.0</ele><time>2026-04-27T09:26:35.999Z</time></trkpt><trkpt lat="44.524315134863045" lon="8.245819753168131"><ele>628.0</ele><time>2026-04-27T09:26:36.999Z</time></trkpt><trkpt lat="44.524112571250036" lon="8.245709434377998"><ele>628.0</ele><time>2026-04-27T09:26:37.999Z</time></trkpt><trkpt lat="44.5239206816178" lon="8.24560082449225"><ele>628.0</ele><time>2026-04-27T09:26:38.999Z</time></trkpt><trkpt lat="44.52372622296071" lon="8.245457449075655"><ele>627.5</ele><time>2026-04-27T09:26:39.999Z</time></trkpt><trkpt lat="44.52354661899422" lon="8.245260492424249"><ele>627.0</ele><time>2026-04-27T09:26:40.999Z</time></trkpt><trkpt lat="44.52338284803423" lon="8.245034448984967"><ele>622.0</ele><time>2026-04-27T09:26:41.999Z</time></trkpt><trkpt lat="44.5232339304022" lon="8.24477714161259"><ele>617.0</ele><time>2026-04-27T09:26:42.999Z</time></trkpt><trkpt lat="44.5230563264138" lon="8.24456410737536"><ele>625.5</ele><time>2026-04-27T09:26:43.999Z</time></trkpt><trkpt lat="44.52288459988038" lon="8.244333634599048"><ele>634.0</ele><time>2026-04-27T09:26:44.999Z</time></trkpt><trkpt lat="44.52270870082873" lon="8.244098224756232"><ele>629.0</ele><time>2026-04-27T09:26:45.999Z</time></trkpt><trkpt lat="44.52252910244585" lon="8.243850859371008"><ele>624.0</ele><time>2026-04-27T09:26:46.999Z</time></trkpt><trkpt lat="44.522341450816555" lon="8.243594207828002"><ele>624.0</ele><time>2026-04-27T09:26:47.999Z</time></trkpt><trkpt lat="44.52215003967205" lon="8.243333428918762"><ele>624.0</ele><time>2026-04-27T09:26:48.999Z</time></trkpt><trkpt lat="44.52195889307035" lon="8.2430687985942"><ele>626.5</ele><time>2026-04-27T09:26:49.999Z</time></trkpt><trkpt lat="44.52176620463987" lon="8.242804332962647"><ele>629.0</ele><time>2026-04-27T09:26:51Z</time></trkpt><trkpt lat="44.5215763861631" lon="8.242555185099652"><ele>629.0</ele><time>2026-04-27T09:26:52Z</time></trkpt><trkpt lat="44.52140017627148" lon="8.242310363804647"><ele>629.0</ele><time>2026-04-27T09:26:53Z</time></trkpt><trkpt lat="44.52123459047034" lon="8.242064385692252"><ele>627.6666666666666</ele><time>2026-04-27T09:26:54Z</time></trkpt><trkpt lat="44.52109330696495" lon="8.241832531211843"><ele>626.3333333333334</ele><time>2026-04-27T09:26:55Z</time></trkpt><trkpt lat="44.52098550941492" lon="8.24161868861234"><ele>625.0</ele><time>2026-04-27T09:26:56Z</time></trkpt><trkpt lat="44.520921038439994" lon="8.241459088760932"><ele>625.0</ele><time>2026-04-27T09:26:57Z</time></trkpt><trkpt lat="44.52085072646396" lon="8.241309586991349"><ele>625.0</ele><time>2026-04-27T09:26:58Z</time></trkpt><trkpt lat="44.52079009849189" lon="8.241177902719427"><ele>625.0</ele><time>2026-04-27T09:26:59Z</time></trkpt><trkpt lat="44.52073658677244" lon="8.241070564846211"><ele>625.0</ele><time>2026-04-27T09:27:00Z</time></trkpt><trkpt lat="44.520696721936055" lon="8.24099451007532"><ele>625.0</ele><time>2026-04-27T09:27:01Z</time></trkpt><trkpt lat="44.5206584303479" lon="8.240904752946026"><ele>625.0</ele><time>2026-04-27T09:27:03Z</time></trkpt><trkpt lat="44.52062389628292" lon="8.240828487812188"><ele>625.0</ele><time>2026-04-27T09:27:17Z</time></trkpt><trkpt lat="44.520562549644424" lon="8.240743818072342"><ele>625.0</ele><time>2026-04-27T09:27:20Z</time></trkpt><trkpt lat="44.52039277638604" lon="8.240853885192745"><ele>625.0</ele><time>2026-04-27T09:27:21Z</time></trkpt><trkpt lat="44.52029084137209" lon="8.24087342164154"><ele>625.0</ele><time>2026-04-27T09:27:22Z</time></trkpt><trkpt lat="44.5201737273196" lon="8.240877396441029"><ele>626.5</ele><time>2026-04-27T09:27:23Z</time></trkpt><trkpt lat="44.520051596980196" lon="8.240880396021524"><ele>628.0</ele><time>2026-04-27T09:27:24Z</time></trkpt><trkpt lat="44.51992564328367" lon="8.24088671360433"><ele>629.5</ele><time>2026-04-27T09:27:25Z</time></trkpt><trkpt lat="44.51979435526347" lon="8.240923757105119"><ele>631.0</ele><time>2026-04-27T09:27:26Z</time></trkpt><trkpt lat="44.519675200546395" lon="8.241013050407542"><ele>632.75</ele><time>2026-04-27T09:27:27Z</time></trkpt><trkpt lat="44.51955550188613" lon="8.241128828063077"><ele>634.5</ele><time>2026-04-27T09:27:28Z</time></trkpt><trkpt lat="44.51942422961735" lon="8.241246325723512"><ele>636.25</ele><time>2026-04-27T09:27:29Z</time></trkpt><trkpt lat="44.51928586177645" lon="8.24132080993994"><ele>638.0</ele><time>2026-04-27T09:27:30Z</time></trkpt><trkpt lat="44.519148609162045" lon="8.241370938992612"><ele>638.0</ele><time>2026-04-27T09:27:31Z</time></trkpt><trkpt lat="44.51899790623739" lon="8.241400790373548"><ele>638.0</ele><time>2026-04-27T09:27:32Z</time></trkpt><trkpt lat="44.51884854464952" lon="8.241462052753722"><ele>638.0</ele><time>2026-04-27T09:27:33Z</time></trkpt><trkpt lat="44.518689278087464" lon="8.241577564458275"><ele>635.3333333333333</ele><time>2026-04-27T09:27:34Z</time></trkpt><trkpt lat="44.51854680204" lon="8.241743348225999"><ele>632.6666666666666</ele><time>2026-04-27T09:27:35Z</time></trkpt><trkpt lat="44.51840497800555" lon="8.241953832311703"><ele>630.0</ele><time>2026-04-27T09:27:36Z</time></trkpt><trkpt lat="44.51826896230604" lon="8.242164785619192"><ele>621.5</ele><time>2026-04-27T09:27:37Z</time></trkpt><trkpt lat="44.51813091217945" lon="8.24239269477236"><ele>613.0</ele><time>2026-04-27T09:27:38Z</time></trkpt><trkpt lat="44.51797622559063" lon="8.24265073949035"><ele>618.0</ele><time>2026-04-27T09:27:39Z</time></trkpt><trkpt lat="44.517813133245156" lon="8.242901230081069"><ele>623.0</ele><time>2026-04-27T09:27:40Z</time></trkpt><trkpt lat="44.51765132628269" lon="8.243117233998376"><ele>619.6666666666666</ele><time>2026-04-27T09:27:41Z</time></trkpt><trkpt lat="44.5175251093423" lon="8.243338118773867"><ele>616.3333333333334</ele><time>2026-04-27T09:27:42Z</time></trkpt><trkpt lat="44.51739960924117" lon="8.243528815466313"><ele>613.0</ele><time>2026-04-27T09:27:43Z</time></trkpt><trkpt lat="44.51725931715725" lon="8.243703635328357"><ele>613.0</ele><time>2026-04-27T09:27:44Z</time></trkpt><trkpt lat="44.51708582574662" lon="8.24385677603736"><ele>613.0</ele><time>2026-04-27T09:27:45Z</time></trkpt><trkpt lat="44.51689289030992" lon="8.243998806932144"><ele>613.0</ele><time>2026-04-27T09:27:46Z</time></trkpt><trkpt lat="44.5167098723079" lon="8.24417118808359"><ele>613.6666666666667</ele><time>2026-04-27T09:27:47Z</time></trkpt><trkpt lat="44.51655069568489" lon="8.244375024717808"><ele>614.3333333333334</ele><time>2026-04-27T09:27:48Z</time></trkpt><trkpt lat="44.51643028527441" lon="8.244596802265283"><ele>615.0</ele><time>2026-04-27T09:27:49Z</time></trkpt><trkpt lat="44.516332373748845" lon="8.244813618010891"><ele>610.0</ele><time>2026-04-27T09:27:50Z</time></trkpt><trkpt lat="44.51619570401906" lon="8.244963036437829"><ele>605.0</ele><time>2026-04-27T09:27:51Z</time></trkpt><trkpt lat="44.516040002553375" lon="8.245113255625585"><ele>600.0</ele><time>2026-04-27T09:27:52Z</time></trkpt><trkpt lat="44.51583526041838" lon="8.245232387011736"><ele>600.0</ele><time>2026-04-27T09:27:53Z</time></trkpt><trkpt lat="44.515644485236116" lon="8.245356191171098"><ele>600.0</ele><time>2026-04-27T09:27:54Z</time></trkpt><trkpt lat="44.51546951941104" lon="8.24543226932487"><ele>600.0</ele><time>2026-04-27T09:27:55Z</time></trkpt><trkpt lat="44.515321653527444" lon="8.245484199600797"><ele>598.5</ele><time>2026-04-27T09:27:55.999Z</time></trkpt><trkpt lat="44.5151828079496" lon="8.24547732878238"><ele>597.0</ele><time>2026-04-27T09:27:56.999Z</time></trkpt><trkpt lat="44.51506689405221" lon="8.24533255173679"><ele>595.5</ele><time>2026-04-27T09:27:57.999Z</time></trkpt><trkpt lat="44.51498603332746" lon="8.245155167913296"><ele>594.0</ele><time>2026-04-27T09:27:58.999Z</time></trkpt><trkpt lat="44.51490887220558" lon="8.244984117029873"><ele>594.0</ele><time>2026-04-27T09:27:59.999Z</time></trkpt><trkpt lat="44.5148209958388" lon="8.244848943867941"><ele>594.0</ele><time>2026-04-27T09:28:00.999Z</time></trkpt><trkpt lat="44.51467381512086" lon="8.244801658527136"><ele>594.0</ele><time>2026-04-27T09:28:01.999Z</time></trkpt><trkpt lat="44.514511305561214" lon="8.244856052174873"><ele>594.0</ele><time>2026-04-27T09:28:02.999Z</time></trkpt><trkpt lat="44.51434762015105" lon="8.24498091760137"><ele>593.3333333333334</ele><time>2026-04-27T09:28:03.999Z</time></trkpt><trkpt lat="44.514169065975906" lon="8.245132308483129"><ele>592.6666666666667</ele><time>2026-04-27T09:28:04.999Z</time></trkpt><trkpt lat="44.51395488539278" lon="8.245248275453369"><ele>592.0</ele><time>2026-04-27T09:28:05.999Z</time></trkpt><trkpt lat="44.51375060174325" lon="8.2453986706466"><ele>591.3333333333334</ele><time>2026-04-27T09:28:06.999Z</time></trkpt><trkpt lat="44.51357555788302" lon="8.245510843008597"><ele>590.6666666666666</ele><time>2026-04-27T09:28:07.999Z</time></trkpt><trkpt lat="44.51343803254173" lon="8.24559808995483"><ele>590.0</ele><time>2026-04-27T09:28:08.999Z</time></trkpt><trkpt lat="44.51329287869667" lon="8.245647320788345"><ele>590.0</ele><time>2026-04-27T09:28:09.999Z</time></trkpt><trkpt lat="44.51314313015136" lon="8.245627192133808"><ele>590.0</ele><time>2026-04-27T09:28:10.999Z</time></trkpt><trkpt lat="44.512981038451144" lon="8.245547137628387"><ele>590.0</ele><time>2026-04-27T09:28:11.999Z</time></trkpt><trkpt lat="44.51281874015684" lon="8.245436768313617"><ele>591.3333333333333</ele><time>2026-04-27T09:28:12.999Z</time></trkpt><trkpt lat="44.51266665469339" lon="8.245343966602828"><ele>592.6666666666666</ele><time>2026-04-27T09:28:13.999Z</time></trkpt><trkpt lat="44.512524480637836" lon="8.245233388730433"><ele>594.0</ele><time>2026-04-27T09:28:14.999Z</time></trkpt><trkpt lat="44.512398907793" lon="8.24507498896667"><ele>594.0</ele><time>2026-04-27T09:28:15.999Z</time></trkpt><trkpt lat="44.51233380139383" lon="8.24485618355204"><ele>594.0</ele><time>2026-04-27T09:28:16.999Z</time></trkpt><trkpt lat="44.51224520177489" lon="8.244613756469095"><ele>594.0</ele><time>2026-04-27T09:28:17.999Z</time></trkpt><trkpt lat="44.512182584267435" lon="8.244353272658786"><ele>590.3333333333334</ele><time>2026-04-27T09:28:18.999Z</time></trkpt><trkpt lat="44.512115214268015" lon="8.244101599513359"><ele>586.6666666666667</ele><time>2026-04-27T09:28:19.999Z</time></trkpt><trkpt lat="44.51204551239093" lon="8.243865743908785"><ele>583.0</ele><time>2026-04-27T09:28:20.999Z</time></trkpt><trkpt lat="44.51198146122965" lon="8.24362869808811"><ele>581.75</ele><time>2026-04-27T09:28:21.999Z</time></trkpt><trkpt lat="44.51192121070265" lon="8.243427602822536"><ele>580.5</ele><time>2026-04-27T09:28:22.999Z</time></trkpt><trkpt lat="44.51184168811696" lon="8.243261595595678"><ele>579.25</ele><time>2026-04-27T09:28:23.999Z</time></trkpt><trkpt lat="44.511734429444246" lon="8.243154891072164"><ele>578.0</ele><time>2026-04-27T09:28:24.999Z</time></trkpt><trkpt lat="44.5115780313236" lon="8.243134996781313"><ele>569.3333333333333</ele><time>2026-04-27T09:28:25.999Z</time></trkpt><trkpt lat="44.51138684017681" lon="8.243091662809315"><ele>560.6666666666666</ele><time>2026-04-27T09:28:26.999Z</time></trkpt><trkpt lat="44.51117683148147" lon="8.24307106800641"><ele>552.0</ele><time>2026-04-27T09:28:27.999Z</time></trkpt><trkpt lat="44.510967569988814" lon="8.243083674615164"><ele>559.6666666666666</ele><time>2026-04-27T09:28:28.999Z</time></trkpt><trkpt lat="44.5107828809018" lon="8.243133564591108"><ele>567.3333333333333</ele><time>2026-04-27T09:28:29.999Z</time></trkpt><trkpt lat="44.51062723670375" lon="8.243157996554656"><ele>575.0</ele><time>2026-04-27T09:28:30.999Z</time></trkpt><trkpt lat="44.51049540567438" lon="8.243192305337075"><ele>567.3333333333333</ele><time>2026-04-27T09:28:31.999Z</time></trkpt><trkpt lat="44.51036763280812" lon="8.243274447201808"><ele>559.6666666666666</ele><time>2026-04-27T09:28:32.999Z</time></trkpt><trkpt lat="44.510275128009674" lon="8.243458774091508"><ele>552.0</ele><time>2026-04-27T09:28:33.999Z</time></trkpt><trkpt lat="44.510216435206075" lon="8.243701589591144"><ele>552.0</ele><time>2026-04-27T09:28:34.999Z</time></trkpt><trkpt lat="44.5101621823688" lon="8.243956905671958"><ele>552.0</ele><time>2026-04-27T09:28:35.999Z</time></trkpt><trkpt lat="44.51010155894337" lon="8.244205776216106"><ele>552.0</ele><time>2026-04-27T09:28:36.999Z</time></trkpt><trkpt lat="44.510027627788716" lon="8.244387628733715"><ele>551.75</ele><time>2026-04-27T09:28:37.999Z</time></trkpt><trkpt lat="44.50993244501431" lon="8.244497343987451"><ele>551.5</ele><time>2026-04-27T09:28:38.999Z</time></trkpt><trkpt lat="44.509806012427966" lon="8.244580845734585"><ele>551.25</ele><time>2026-04-27T09:28:39.999Z</time></trkpt><trkpt lat="44.5096313020037" lon="8.244575888054243"><ele>551.0</ele><time>2026-04-27T09:28:40.999Z</time></trkpt><trkpt lat="44.5094273898868" lon="8.244544970096069"><ele>551.0</ele><time>2026-04-27T09:28:41.999Z</time></trkpt><trkpt lat="44.50922349948979" lon="8.244526306755413"><ele>551.0</ele><time>2026-04-27T09:28:42.999Z</time></trkpt><trkpt lat="44.509031083725205" lon="8.244513223182874"><ele>551.0</ele><time>2026-04-27T09:28:43.999Z</time></trkpt><trkpt lat="44.50883032804973" lon="8.24452156896625"><ele>548.3333333333333</ele><time>2026-04-27T09:28:44.999Z</time></trkpt><trkpt lat="44.50862821449297" lon="8.244574431942443"><ele>545.6666666666666</ele><time>2026-04-27T09:28:45.999Z</time></trkpt><trkpt lat="44.50842463420003" lon="8.244679847151593"><ele>543.0</ele><time>2026-04-27T09:28:46.999Z</time></trkpt><trkpt lat="44.50821942634224" lon="8.24483354723665"><ele>545.6666666666666</ele><time>2026-04-27T09:28:47.999Z</time></trkpt><trkpt lat="44.508027941162624" lon="8.244980554462183"><ele>548.3333333333333</ele><time>2026-04-27T09:28:48.999Z</time></trkpt><trkpt lat="44.50785475260849" lon="8.24507232437908"><ele>551.0</ele><time>2026-04-27T09:28:49.999Z</time></trkpt><trkpt lat="44.50766480459841" lon="8.24511680762655"><ele>551.0</ele><time>2026-04-27T09:28:50.999Z</time></trkpt><trkpt lat="44.50746200152893" lon="8.245120750622323"><ele>551.0</ele><time>2026-04-27T09:28:51.999Z</time></trkpt><trkpt lat="44.507276037386816" lon="8.245107048928315"><ele>551.0</ele><time>2026-04-27T09:28:52.999Z</time></trkpt><trkpt lat="44.50712505175066" lon="8.24506074997044"><ele>551.3333333333333</ele><time>2026-04-27T09:28:53.999Z</time></trkpt><trkpt lat="44.506990432497524" lon="8.244908589145696"><ele>551.6666666666666</ele><time>2026-04-27T09:28:54.999Z</time></trkpt><trkpt lat="44.50683825531964" lon="8.2447782718114"><ele>552.0</ele><time>2026-04-27T09:28:55.999Z</time></trkpt><trkpt lat="44.50668762560464" lon="8.244644336188987"><ele>544.75</ele><time>2026-04-27T09:28:57Z</time></trkpt><trkpt lat="44.50654933469357" lon="8.244566556033893"><ele>537.5</ele><time>2026-04-27T09:28:58Z</time></trkpt><trkpt lat="44.50641842685461" lon="8.244545352887053"><ele>530.25</ele><time>2026-04-27T09:28:59Z</time></trkpt><trkpt lat="44.50628964726229" lon="8.244595978144815"><ele>523.0</ele><time>2026-04-27T09:29:00Z</time></trkpt><trkpt lat="44.50616731708901" lon="8.244736823174142"><ele>528.3333333333334</ele><time>2026-04-27T09:29:01Z</time></trkpt><trkpt lat="44.506068718416095" lon="8.244921836164222"><ele>533.6666666666666</ele><time>2026-04-27T09:29:02Z</time></trkpt><trkpt lat="44.50594583535378" lon="8.245043161708823"><ele>539.0</ele><time>2026-04-27T09:29:03Z</time></trkpt><trkpt lat="44.50581288468426" lon="8.245081332858797"><ele>539.0</ele><time>2026-04-27T09:29:04Z</time></trkpt><trkpt lat="44.50565300538779" lon="8.245070153511136"><ele>539.0</ele><time>2026-04-27T09:29:05Z</time></trkpt><trkpt lat="44.505480210695055" lon="8.245054229252768"><ele>539.0</ele><time>2026-04-27T09:29:06Z</time></trkpt><trkpt lat="44.50531794122404" lon="8.245065909409728"><ele>532.6666666666666</ele><time>2026-04-27T09:29:07Z</time></trkpt><trkpt lat="44.50516008388804" lon="8.245208984357546"><ele>526.3333333333334</ele><time>2026-04-27T09:29:08Z</time></trkpt><trkpt lat="44.50500586007035" lon="8.245355006840231"><ele>520.0</ele><time>2026-04-27T09:29:09Z</time></trkpt><trkpt lat="44.50485184459127" lon="8.245490282302352"><ele>520.0</ele><time>2026-04-27T09:29:10Z</time></trkpt><trkpt lat="44.504712960010394" lon="8.245608202945258"><ele>520.0</ele><time>2026-04-27T09:29:11Z</time></trkpt><trkpt lat="44.50458697880246" lon="8.24572807977756"><ele>520.0</ele><time>2026-04-27T09:29:12Z</time></trkpt><trkpt lat="44.50448853498091" lon="8.24587760294637"><ele>519.6666666666667</ele><time>2026-04-27T09:29:13Z</time></trkpt><trkpt lat="44.50443423156454" lon="8.246050417616047"><ele>519.3333333333334</ele><time>2026-04-27T09:29:14Z</time></trkpt><trkpt lat="44.50441390575311" lon="8.246257931180574"><ele>519.0</ele><time>2026-04-27T09:29:15Z</time></trkpt><trkpt lat="44.50445128128971" lon="8.246489057669615"><ele>517.0</ele><time>2026-04-27T09:29:16Z</time></trkpt><trkpt lat="44.50451665129384" lon="8.24670656278907"><ele>515.0</ele><time>2026-04-27T09:29:17Z</time></trkpt><trkpt lat="44.50456398374897" lon="8.246940734713768"><ele>513.0</ele><time>2026-04-27T09:29:18Z</time></trkpt><trkpt lat="44.5045785021699" lon="8.247193340300457"><ele>510.5</ele><time>2026-04-27T09:29:19Z</time></trkpt><trkpt lat="44.504577820249864" lon="8.247421369418037"><ele>508.0</ele><time>2026-04-27T09:29:20Z</time></trkpt><trkpt lat="44.50454416532504" lon="8.24758592794931"><ele>505.5</ele><time>2026-04-27T09:29:21Z</time></trkpt><trkpt lat="44.504454806025805" lon="8.247737876059226"><ele>503.0</ele><time>2026-04-27T09:29:22Z</time></trkpt><trkpt lat="44.504351739831506" lon="8.247933934234915"><ele>505.66666666666663</ele><time>2026-04-27T09:29:23Z</time></trkpt><trkpt lat="44.50425571669215" lon="8.248140000715184"><ele>508.33333333333337</ele><time>2026-04-27T09:29:24Z</time></trkpt><trkpt lat="44.50419587894444" lon="8.248447604338837"><ele>511.0</ele><time>2026-04-27T09:29:25Z</time></trkpt><trkpt lat="44.50410886774641" lon="8.248719565793344"><ele>511.0</ele><time>2026-04-27T09:29:26Z</time></trkpt><trkpt lat="44.50400874347649" lon="8.248939973848982"><ele>511.0</ele><time>2026-04-27T09:29:27Z</time></trkpt><trkpt lat="44.50388627912866" lon="8.249077884464144"><ele>511.0</ele><time>2026-04-27T09:29:28Z</time></trkpt><trkpt lat="44.50378930084017" lon="8.249256027313805"><ele>506.6666666666667</ele><time>2026-04-27T09:29:29Z</time></trkpt><trkpt lat="44.50372588518314" lon="8.249487572708372"><ele>502.33333333333337</ele><time>2026-04-27T09:29:30Z</time></trkpt><trkpt lat="44.503719902591115" lon="8.249775210548329"><ele>498.0</ele><time>2026-04-27T09:29:31Z</time></trkpt><trkpt lat="44.503671912717294" lon="8.25004788638192"><ele>498.0</ele><time>2026-04-27T09:29:32Z</time></trkpt><trkpt lat="44.50361886020953" lon="8.250262190918866"><ele>498.0</ele><time>2026-04-27T09:29:33Z</time></trkpt><trkpt lat="44.50350418687347" lon="8.250412913349209"><ele>498.0</ele><time>2026-04-27T09:29:34Z</time></trkpt><trkpt lat="44.50335217229771" lon="8.25060316929215"><ele>499.25</ele><time>2026-04-27T09:29:35Z</time></trkpt><trkpt lat="44.50322648249675" lon="8.250772483159698"><ele>500.5</ele><time>2026-04-27T09:29:36Z</time></trkpt><trkpt lat="44.50314041222353" lon="8.2509179046051"><ele>501.75</ele><time>2026-04-27T09:29:37Z</time></trkpt><trkpt lat="44.503106697564604" lon="8.251089138153256"><ele>503.0</ele><time>2026-04-27T09:29:38Z</time></trkpt><trkpt lat="44.50313369919356" lon="8.251285875102067"><ele>503.66666666666663</ele><time>2026-04-27T09:29:39Z</time></trkpt><trkpt lat="44.503110734877566" lon="8.25149059121203"><ele>504.33333333333337</ele><time>2026-04-27T09:29:40Z</time></trkpt><trkpt lat="44.503025854457675" lon="8.25168418539773"><ele>505.0</ele><time>2026-04-27T09:29:41Z</time></trkpt><trkpt lat="44.50291436909698" lon="8.251893368797806"><ele>496.6666666666667</ele><time>2026-04-27T09:29:42Z</time></trkpt><trkpt lat="44.5028278388879" lon="8.252125786020644"><ele>488.33333333333337</ele><time>2026-04-27T09:29:43Z</time></trkpt><trkpt lat="44.502773921017614" lon="8.252330394305192"><ele>480.0</ele><time>2026-04-27T09:29:44Z</time></trkpt><trkpt lat="44.50279738293324" lon="8.252548571453092"><ele>479.0</ele><time>2026-04-27T09:29:45Z</time></trkpt><trkpt lat="44.50289258007453" lon="8.252788461663595"><ele>478.0</ele><time>2026-04-27T09:29:46Z</time></trkpt><trkpt lat="44.502994136342195" lon="8.253034704491755"><ele>477.0</ele><time>2026-04-27T09:29:47Z</time></trkpt><trkpt lat="44.503039310435746" lon="8.253282668125683"><ele>482.66666666666663</ele><time>2026-04-27T09:29:48Z</time></trkpt><trkpt lat="44.503043950886635" lon="8.253510869429313"><ele>488.3333333333333</ele><time>2026-04-27T09:29:49Z</time></trkpt><trkpt lat="44.50304468913025" lon="8.253761587667533"><ele>494.0</ele><time>2026-04-27T09:29:50Z</time></trkpt><trkpt lat="44.50302484819621" lon="8.253984959963427"><ele>494.0</ele><time>2026-04-27T09:29:51Z</time></trkpt><trkpt lat="44.50296421709237" lon="8.254129574105743"><ele>494.0</ele><time>2026-04-27T09:29:52Z</time></trkpt><trkpt lat="44.502850230352934" lon="8.254250926742664"><ele>494.0</ele><time>2026-04-27T09:29:53Z</time></trkpt><trkpt lat="44.50269092374837" lon="8.2543758230454"><ele>494.0</ele><time>2026-04-27T09:29:54Z</time></trkpt><trkpt lat="44.50252032543278" lon="8.254515011477507"><ele>483.0</ele><time>2026-04-27T09:29:55Z</time></trkpt><trkpt lat="44.50230118233598" lon="8.254576753754332"><ele>472.0</ele><time>2026-04-27T09:29:56Z</time></trkpt><trkpt lat="44.50205531546246" lon="8.254662134593607"><ele>473.0</ele><time>2026-04-27T09:29:56.999Z</time></trkpt><trkpt lat="44.50183577767677" lon="8.254773059978998"><ele>474.0</ele><time>2026-04-27T09:29:57.999Z</time></trkpt><trkpt lat="44.501646891052445" lon="8.254856318977273"><ele>475.0</ele><time>2026-04-27T09:29:58.999Z</time></trkpt><trkpt lat="44.50148984241344" lon="8.254899385365357"><ele>475.0</ele><time>2026-04-27T09:29:59.999Z</time></trkpt><trkpt lat="44.50136367019546" lon="8.254935147642348"><ele>475.0</ele><time>2026-04-27T09:30:00.999Z</time></trkpt><trkpt lat="44.50127894647265" lon="8.25499955997626"><ele>475.0</ele><time>2026-04-27T09:30:01.999Z</time></trkpt><trkpt lat="44.50123311241138" lon="8.255088765873104"><ele>475.0</ele><time>2026-04-27T09:30:02.999Z</time></trkpt><trkpt lat="44.50126329691903" lon="8.255255987025642"><ele>475.0</ele><time>2026-04-27T09:30:03.999Z</time></trkpt><trkpt lat="44.501385596097215" lon="8.255412601675545"><ele>475.0</ele><time>2026-04-27T09:30:04.999Z</time></trkpt><trkpt lat="44.501450524153306" lon="8.255600753003957"><ele>475.0</ele><time>2026-04-27T09:30:05.999Z</time></trkpt><trkpt lat="44.50148018978548" lon="8.25576368591439"><ele>475.0</ele><time>2026-04-27T09:30:06.999Z</time></trkpt><trkpt lat="44.501535104235565" lon="8.25588747598431"><ele>475.0</ele><time>2026-04-27T09:30:07.999Z</time></trkpt><trkpt lat="44.50161620858038" lon="8.255961481135277"><ele>475.0</ele><time>2026-04-27T09:30:08.999Z</time></trkpt><trkpt lat="44.50172287996172" lon="8.255947361019581"><ele>475.0</ele><time>2026-04-27T09:30:09.999Z</time></trkpt><trkpt lat="44.50182938794101" lon="8.255835818179897"><ele>475.0</ele><time>2026-04-27T09:30:10.999Z</time></trkpt><trkpt lat="44.50192351504926" lon="8.255660216282388"><ele>475.0</ele><time>2026-04-27T09:30:11.999Z</time></trkpt><trkpt lat="44.502058509986114" lon="8.255504707509028"><ele>476.6666666666667</ele><time>2026-04-27T09:30:12.999Z</time></trkpt><trkpt lat="44.5022079433201" lon="8.255421801028403"><ele>478.33333333333337</ele><time>2026-04-27T09:30:13.999Z</time></trkpt><trkpt lat="44.50235788358751" lon="8.255443537844494"><ele>480.0</ele><time>2026-04-27T09:30:14.999Z</time></trkpt><trkpt lat="44.50252752935844" lon="8.255493663767629"><ele>480.0</ele><time>2026-04-27T09:30:15.999Z</time></trkpt><trkpt lat="44.50269156542974" lon="8.255526005374016"><ele>480.0</ele><time>2026-04-27T09:30:16.999Z</time></trkpt><trkpt lat="44.502828287928054" lon="8.255495411239604"><ele>480.0</ele><time>2026-04-27T09:30:17.999Z</time></trkpt><trkpt lat="44.5029591324855" lon="8.255393085398433"><ele>478.33333333333337</ele><time>2026-04-27T09:30:18.999Z</time></trkpt><trkpt lat="44.503108402721026" lon="8.255252628932633"><ele>476.6666666666667</ele><time>2026-04-27T09:30:19.999Z</time></trkpt><trkpt lat="44.50327465975936" lon="8.255153836259314"><ele>475.0</ele><time>2026-04-27T09:30:20.999Z</time></trkpt><trkpt lat="44.50346989850645" lon="8.255096924529928"><ele>475.0</ele><time>2026-04-27T09:30:21.999Z</time></trkpt><trkpt lat="44.50367957112115" lon="8.255087956387474"><ele>475.0</ele><time>2026-04-27T09:30:22.999Z</time></trkpt><trkpt lat="44.50387407309305" lon="8.255151790348936"><ele>475.0</ele><time>2026-04-27T09:30:23.999Z</time></trkpt><trkpt lat="44.50405237475696" lon="8.255247388590229"><ele>476.0</ele><time>2026-04-27T09:30:24.999Z</time></trkpt><trkpt lat="44.50419887484737" lon="8.255325023146954"><ele>477.0</ele><time>2026-04-27T09:30:25.999Z</time></trkpt><trkpt lat="44.50429101952104" lon="8.25540214473582"><ele>478.0</ele><time>2026-04-27T09:30:26.999Z</time></trkpt><trkpt lat="44.5043787575018" lon="8.255483311256246"><ele>479.0</ele><time>2026-04-27T09:30:27.999Z</time></trkpt><trkpt lat="44.50436391403203" lon="8.255684403473566"><ele>472.3333333333333</ele><time>2026-04-27T09:30:28.999Z</time></trkpt><trkpt lat="44.50435667855617" lon="8.255930287334525"><ele>465.66666666666663</ele><time>2026-04-27T09:30:29.999Z</time></trkpt><trkpt lat="44.50430337961711" lon="8.256184521517179"><ele>459.0</ele><time>2026-04-27T09:30:30.999Z</time></trkpt><trkpt lat="44.504191121731075" lon="8.256447556583682"><ele>456.5</ele><time>2026-04-27T09:30:31.999Z</time></trkpt><trkpt lat="44.50410147238556" lon="8.256752515969858"><ele>454.0</ele><time>2026-04-27T09:30:32.999Z</time></trkpt><trkpt lat="44.50403366544794" lon="8.257070877167223"><ele>455.0</ele><time>2026-04-27T09:30:33.999Z</time></trkpt><trkpt lat="44.504031720183974" lon="8.257344820892131"><ele>456.0</ele><time>2026-04-27T09:30:34.999Z</time></trkpt><trkpt lat="44.504024578850796" lon="8.25755605714939"><ele>457.0</ele><time>2026-04-27T09:30:35.999Z</time></trkpt><trkpt lat="44.503992494060014" lon="8.257732130098246"><ele>457.0</ele><time>2026-04-27T09:30:36.999Z</time></trkpt><trkpt lat="44.50391080972257" lon="8.257874104801143"><ele>457.0</ele><time>2026-04-27T09:30:37.999Z</time></trkpt><trkpt lat="44.50376040856614" lon="8.258002577807565"><ele>457.0</ele><time>2026-04-27T09:30:38.999Z</time></trkpt><trkpt lat="44.503583904444646" lon="8.258153345934776"><ele>450.33333333333337</ele><time>2026-04-27T09:30:39.999Z</time></trkpt><trkpt lat="44.50340420687323" lon="8.258304054677652"><ele>443.66666666666663</ele><time>2026-04-27T09:30:40.999Z</time></trkpt><trkpt lat="44.503232934516745" lon="8.258503281278314"><ele>437.0</ele><time>2026-04-27T09:30:41.999Z</time></trkpt><trkpt lat="44.50309646839431" lon="8.258745509927962"><ele>433.0</ele><time>2026-04-27T09:30:42.999Z</time></trkpt><trkpt lat="44.50296794399681" lon="8.258973127809412"><ele>429.0</ele><time>2026-04-27T09:30:43.999Z</time></trkpt><trkpt lat="44.50277430913665" lon="8.259145150456295"><ele>425.0</ele><time>2026-04-27T09:30:44.999Z</time></trkpt><trkpt lat="44.50258000042469" lon="8.25939098033157"><ele>425.0</ele><time>2026-04-27T09:30:45.999Z</time></trkpt><trkpt lat="44.50239817342807" lon="8.259648410340812"><ele>425.0</ele><time>2026-04-27T09:30:46.999Z</time></trkpt><trkpt lat="44.50223951731621" lon="8.259908707922037"><ele>420.66666666666663</ele><time>2026-04-27T09:30:47.999Z</time></trkpt><trkpt lat="44.502073420654064" lon="8.260128972820917"><ele>416.33333333333337</ele><time>2026-04-27T09:30:48.999Z</time></trkpt><trkpt lat="44.5019256776345" lon="8.260345778316648"><ele>412.0</ele><time>2026-04-27T09:30:49.999Z</time></trkpt><trkpt lat="44.501794374268655" lon="8.260562426866834"><ele>417.0</ele><time>2026-04-27T09:30:50.999Z</time></trkpt><trkpt lat="44.50164515218244" lon="8.260739957663429"><ele>422.0</ele><time>2026-04-27T09:30:51.999Z</time></trkpt><trkpt lat="44.50150174913491" lon="8.26090421596245"><ele>427.0</ele><time>2026-04-27T09:30:52.999Z</time></trkpt><trkpt lat="44.5013658255775" lon="8.26110498025471"><ele>427.0</ele><time>2026-04-27T09:30:53.999Z</time></trkpt><trkpt lat="44.501258604243276" lon="8.261392748039533"><ele>427.0</ele><time>2026-04-27T09:30:54.999Z</time></trkpt><trkpt lat="44.50114535642586" lon="8.26166004259922"><ele>423.33333333333337</ele><time>2026-04-27T09:30:55.999Z</time></trkpt><trkpt lat="44.50104869053578" lon="8.261918131417461"><ele>419.66666666666663</ele><time>2026-04-27T09:30:56.999Z</time></trkpt><trkpt lat="44.50097057768626" lon="8.262150657575116"><ele>416.0</ele><time>2026-04-27T09:30:57.999Z</time></trkpt><trkpt lat="44.50097213941142" lon="8.26235119094191"><ele>416.0</ele><time>2026-04-27T09:30:58.999Z</time></trkpt><trkpt lat="44.500956248767395" lon="8.262470578443452"><ele>416.0</ele><time>2026-04-27T09:30:59.999Z</time></trkpt><trkpt lat="44.50093202805809" lon="8.262653976602392"><ele>416.0</ele><time>2026-04-27T09:31:01.999Z</time></trkpt><trkpt lat="44.500809179405096" lon="8.262700466220867"><ele>416.0</ele><time>2026-04-27T09:31:03Z</time></trkpt><trkpt lat="44.50064930488519" lon="8.26276099369149"><ele>416.0</ele><time>2026-04-27T09:31:04Z</time></trkpt><trkpt lat="44.50045605610784" lon="8.262786741241555"><ele>416.0</ele><time>2026-04-27T09:31:05Z</time></trkpt><trkpt lat="44.5002478781694" lon="8.262781553042377"><ele>416.0</ele><time>2026-04-27T09:31:06Z</time></trkpt><trkpt lat="44.500072610497476" lon="8.262816397453244"><ele>413.66666666666663</ele><time>2026-04-27T09:31:07Z</time></trkpt><trkpt lat="44.49991568939746" lon="8.262829042579337"><ele>411.33333333333337</ele><time>2026-04-27T09:31:08Z</time></trkpt><trkpt lat="44.49975787499891" lon="8.2627499601105"><ele>409.0</ele><time>2026-04-27T09:31:09Z</time></trkpt><trkpt lat="44.49962283597265" lon="8.262665964875104"><ele>401.75</ele><time>2026-04-27T09:31:10Z</time></trkpt><trkpt lat="44.49951046611293" lon="8.262569673404423"><ele>394.5</ele><time>2026-04-27T09:31:11Z</time></trkpt><trkpt lat="44.49946827854862" lon="8.262433879734239"><ele>387.25</ele><time>2026-04-27T09:31:12Z</time></trkpt><trkpt lat="44.499477691731634" lon="8.262307755767464"><ele>380.0</ele><time>2026-04-27T09:31:13Z</time></trkpt><trkpt lat="44.49957658710745" lon="8.262201017259768"><ele>384.33333333333337</ele><time>2026-04-27T09:31:14Z</time></trkpt><trkpt lat="44.49971220380371" lon="8.262074942311449"><ele>388.6666666666667</ele><time>2026-04-27T09:31:15Z</time></trkpt><trkpt lat="44.49986499325852" lon="8.261887116844079"><ele>393.0</ele><time>2026-04-27T09:31:16Z</time></trkpt><trkpt lat="44.50003597730617" lon="8.261721897137543"><ele>393.0</ele><time>2026-04-27T09:31:17Z</time></trkpt><trkpt lat="44.50024129170017" lon="8.261595430692266"><ele>393.0</ele><time>2026-04-27T09:31:18Z</time></trkpt><trkpt lat="44.500448064550774" lon="8.261459170894168"><ele>393.66666666666663</ele><time>2026-04-27T09:31:19Z</time></trkpt><trkpt lat="44.50063949844291" lon="8.261357878852499"><ele>394.3333333333333</ele><time>2026-04-27T09:31:20Z</time></trkpt><trkpt lat="44.500791680040955" lon="8.261254935871296"><ele>395.0</ele><time>2026-04-27T09:31:21Z</time></trkpt><trkpt lat="44.50089115614843" lon="8.261104561855314"><ele>395.0</ele><time>2026-04-27T09:31:22Z</time></trkpt><trkpt lat="44.50094507223572" lon="8.260901197359674"><ele>395.0</ele><time>2026-04-27T09:31:23Z</time></trkpt><trkpt lat="44.500992650277325" lon="8.260673205527201"><ele>395.0</ele><time>2026-04-27T09:31:24Z</time></trkpt><trkpt lat="44.50112441727491" lon="8.260529215762505"><ele>400.66666666666663</ele><time>2026-04-27T09:31:25Z</time></trkpt><trkpt lat="44.5012722655171" lon="8.260334797205363"><ele>406.33333333333337</ele><time>2026-04-27T09:31:26Z</time></trkpt><trkpt lat="44.50139308984073" lon="8.26011952721863"><ele>412.0</ele><time>2026-04-27T09:31:27Z</time></trkpt><trkpt lat="44.50145986189181" lon="8.25988920982806"><ele>408.0</ele><time>2026-04-27T09:31:28Z</time></trkpt><trkpt lat="44.50150157536206" lon="8.259720851642347"><ele>404.0</ele><time>2026-04-27T09:31:29Z</time></trkpt><trkpt lat="44.50151089205816" lon="8.259598805350263"><ele>400.0</ele><time>2026-04-27T09:31:30Z</time></trkpt><trkpt lat="44.501474573018626" lon="8.25950378321024"><ele>396.0</ele><time>2026-04-27T09:31:31Z</time></trkpt><trkpt lat="44.501377699560074" lon="8.259473756854314"><ele>392.0</ele><time>2026-04-27T09:31:32Z</time></trkpt><trkpt lat="44.50126512738149" lon="8.259543594593737"><ele>386.66666666666663</ele><time>2026-04-27T09:31:33Z</time></trkpt><trkpt lat="44.50117863898123" lon="8.259706705243389"><ele>381.3333333333333</ele><time>2026-04-27T09:31:34Z</time></trkpt><trkpt lat="44.50109912916052" lon="8.259956287078383"><ele>376.0</ele><time>2026-04-27T09:31:35Z</time></trkpt><trkpt lat="44.50096399409001" lon="8.260200473431286"><ele>376.0</ele><time>2026-04-27T09:31:36Z</time></trkpt><trkpt lat="44.50081119346853" lon="8.260458861758009"><ele>376.0</ele><time>2026-04-27T09:31:37Z</time></trkpt><trkpt lat="44.500662104673935" lon="8.26069317712428"><ele>373.3333333333333</ele><time>2026-04-27T09:31:38Z</time></trkpt><trkpt lat="44.50054590581265" lon="8.260868560814274"><ele>370.6666666666667</ele><time>2026-04-27T09:31:39Z</time></trkpt><trkpt lat="44.500428717411445" lon="8.260980496885383"><ele>368.0</ele><time>2026-04-27T09:31:40Z</time></trkpt><trkpt lat="44.50026773731328" lon="8.261018346136794"><ele>368.0</ele><time>2026-04-27T09:31:41Z</time></trkpt><trkpt lat="44.50006058470557" lon="8.261064868990553"><ele>368.0</ele><time>2026-04-27T09:31:42Z</time></trkpt><trkpt lat="44.4998184743818" lon="8.261193109029808"><ele>368.0</ele><time>2026-04-27T09:31:43Z</time></trkpt><trkpt lat="44.49956780104774" lon="8.2613747448552"><ele>368.0</ele><time>2026-04-27T09:31:44Z</time></trkpt><trkpt lat="44.499329080438805" lon="8.26158594077627"><ele>368.0</ele><time>2026-04-27T09:31:45Z</time></trkpt><trkpt lat="44.499124862919665" lon="8.261759341253624"><ele>368.0</ele><time>2026-04-27T09:31:46Z</time></trkpt><trkpt lat="44.498953563237244" lon="8.261894697413918"><ele>368.0</ele><time>2026-04-27T09:31:47Z</time></trkpt><trkpt lat="44.498818540075405" lon="8.262005329095887"><ele>363.75</ele><time>2026-04-27T09:31:48Z</time></trkpt><trkpt lat="44.49871042224658" lon="8.262102899468653"><ele>359.5</ele><time>2026-04-27T09:31:49Z</time></trkpt><trkpt lat="44.49862782865999" lon="8.262233982581451"><ele>355.25</ele><time>2026-04-27T09:31:50Z</time></trkpt><trkpt lat="44.49859425765842" lon="8.262419899672421"><ele>351.0</ele><time>2026-04-27T09:31:51Z</time></trkpt><trkpt lat="44.49862862793121" lon="8.262636825612175"><ele>351.0</ele><time>2026-04-27T09:31:52Z</time></trkpt><trkpt lat="44.4987296658554" lon="8.262829695339592"><ele>351.0</ele><time>2026-04-27T09:31:53Z</time></trkpt><trkpt lat="44.49889374461983" lon="8.26302643435959"><ele>351.0</ele><time>2026-04-27T09:31:54Z</time></trkpt><trkpt lat="44.49897138741322" lon="8.26324668882204"><ele>355.0</ele><time>2026-04-27T09:31:55Z</time></trkpt><trkpt lat="44.49900495137218" lon="8.263429233522453"><ele>359.0</ele><time>2026-04-27T09:31:56Z</time></trkpt><trkpt lat="44.498977401825286" lon="8.26361327273391"><ele>363.0</ele><time>2026-04-27T09:31:57Z</time></trkpt><trkpt lat="44.49889907825546" lon="8.263789188027964"><ele>367.0</ele><time>2026-04-27T09:31:57.999Z</time></trkpt><trkpt lat="44.498763843694185" lon="8.263926851907907"><ele>356.3333333333333</ele><time>2026-04-27T09:31:58.999Z</time></trkpt><trkpt lat="44.498588763433794" lon="8.264108997199891"><ele>345.6666666666667</ele><time>2026-04-27T09:31:59.999Z</time></trkpt><trkpt lat="44.49842805661205" lon="8.264239106726668"><ele>335.0</ele><time>2026-04-27T09:32:00.999Z</time></trkpt><trkpt lat="44.49833018428706" lon="8.264337001652471"><ele>335.0</ele><time>2026-04-27T09:32:01.999Z</time></trkpt><trkpt lat="44.49827104118881" lon="8.264437352063132"><ele>335.0</ele><time>2026-04-27T09:32:02.999Z</time></trkpt><trkpt lat="44.49825689708029" lon="8.264566338763906"><ele>335.0</ele><time>2026-04-27T09:32:03.999Z</time></trkpt><trkpt lat="44.49827044115998" lon="8.26469226293109"><ele>335.0</ele><time>2026-04-27T09:32:04.999Z</time></trkpt><trkpt lat="44.49836260345108" lon="8.264763436998692"><ele>335.0</ele><time>2026-04-27T09:32:05.999Z</time></trkpt><trkpt lat="44.49850347694011" lon="8.264656388988298"><ele>335.0</ele><time>2026-04-27T09:32:06.999Z</time></trkpt><trkpt lat="44.498648723304356" lon="8.264520036262459"><ele>335.0</ele><time>2026-04-27T09:32:07.999Z</time></trkpt><trkpt lat="44.49885719683841" lon="8.264422708066759"><ele>335.0</ele><time>2026-04-27T09:32:08.999Z</time></trkpt><trkpt lat="44.499026203097955" lon="8.264356365384419"><ele>337.5</ele><time>2026-04-27T09:32:09.999Z</time></trkpt><trkpt lat="44.49915033273881" lon="8.264352217084387"><ele>340.0</ele><time>2026-04-27T09:32:10.999Z</time></trkpt><trkpt lat="44.4992442237702" lon="8.26439537210623"><ele>342.5</ele><time>2026-04-27T09:32:11.999Z</time></trkpt><trkpt lat="44.49931158906348" lon="8.264500956963207"><ele>345.0</ele><time>2026-04-27T09:32:12.999Z</time></trkpt><trkpt lat="44.4993561123137" lon="8.264685854392988"><ele>340.6666666666667</ele><time>2026-04-27T09:32:13.999Z</time></trkpt><trkpt lat="44.49939529193532" lon="8.264892422444177"><ele>336.33333333333337</ele><time>2026-04-27T09:32:14.999Z</time></trkpt><trkpt lat="44.499350220625374" lon="8.265105626538354"><ele>332.0</ele><time>2026-04-27T09:32:15.999Z</time></trkpt><trkpt lat="44.49934279081854" lon="8.26535553050034"><ele>329.33333333333337</ele><time>2026-04-27T09:32:16.999Z</time></trkpt><trkpt lat="44.49933050220491" lon="8.265632489536195"><ele>326.6666666666667</ele><time>2026-04-27T09:32:17.999Z</time></trkpt><trkpt lat="44.499421497904514" lon="8.26591705916433"><ele>324.0</ele><time>2026-04-27T09:32:18.999Z</time></trkpt><trkpt lat="44.49955214770274" lon="8.266164286978581"><ele>325.0</ele><time>2026-04-27T09:32:19.999Z</time></trkpt><trkpt lat="44.49964858057023" lon="8.266369911253705"><ele>326.0</ele><time>2026-04-27T09:32:20.999Z</time></trkpt><trkpt lat="44.499680004308786" lon="8.266505770194977"><ele>327.0</ele><time>2026-04-27T09:32:21.999Z</time></trkpt><trkpt lat="44.499667592970944" lon="8.266660857118985"><ele>328.0</ele><time>2026-04-27T09:32:22.999Z</time></trkpt><trkpt lat="44.49960415142804" lon="8.266799008216173"><ele>324.0</ele><time>2026-04-27T09:32:23.999Z</time></trkpt><trkpt lat="44.499483247558906" lon="8.266958329861165"><ele>320.0</ele><time>2026-04-27T09:32:24.999Z</time></trkpt><trkpt lat="44.49934512069766" lon="8.267111472523435"><ele>316.0</ele><time>2026-04-27T09:32:25.999Z</time></trkpt><trkpt lat="44.499247607017345" lon="8.267349171704222"><ele>315.3333333333333</ele><time>2026-04-27T09:32:26.999Z</time></trkpt><trkpt lat="44.499185029115566" lon="8.26764252282492"><ele>314.6666666666667</ele><time>2026-04-27T09:32:27.999Z</time></trkpt><trkpt lat="44.49914167743962" lon="8.267872334807999"><ele>314.0</ele><time>2026-04-27T09:32:28.999Z</time></trkpt><trkpt lat="44.499108534433354" lon="8.26803827642417"><ele>313.4</ele><time>2026-04-27T09:32:29.999Z</time></trkpt><trkpt lat="44.49908865111903" lon="8.268165753710825"><ele>312.79999999999995</ele><time>2026-04-27T09:32:30.999Z</time></trkpt><trkpt lat="44.499086302096195" lon="8.268283242444234"><ele>312.20000000000005</ele><time>2026-04-27T09:32:31.999Z</time></trkpt><trkpt lat="44.49918967563865" lon="8.268388593388297"><ele>311.6</ele><time>2026-04-27T09:32:32.999Z</time></trkpt><trkpt lat="44.49932718718518" lon="8.268441815675734"><ele>311.0</ele><time>2026-04-27T09:32:33.999Z</time></trkpt><trkpt lat="44.499483525444376" lon="8.268441202140718"><ele>312.0</ele><time>2026-04-27T09:32:34.999Z</time></trkpt><trkpt lat="44.4996169830822" lon="8.268493420875116"><ele>313.0</ele><time>2026-04-27T09:32:35.999Z</time></trkpt><trkpt lat="44.49972247766592" lon="8.2685529662205"><ele>314.0</ele><time>2026-04-27T09:32:36.999Z</time></trkpt><trkpt lat="44.499804348369864" lon="8.26861445413909"><ele>315.0</ele><time>2026-04-27T09:32:37.999Z</time></trkpt><trkpt lat="44.4998049199819" lon="8.268790920694666"><ele>315.0</ele><time>2026-04-27T09:32:38.999Z</time></trkpt><trkpt lat="44.49975195051803" lon="8.268918461673726"><ele>315.0</ele><time>2026-04-27T09:32:39.999Z</time></trkpt><trkpt lat="44.499649075671634" lon="8.269129587544565"><ele>315.0</ele><time>2026-04-27T09:32:40.999Z</time></trkpt><trkpt lat="44.49954959304625" lon="8.269354829434212"><ele>311.3333333333333</ele><time>2026-04-27T09:32:41.999Z</time></trkpt><trkpt lat="44.499442241974926" lon="8.26959876665283"><ele>307.66666666666663</ele><time>2026-04-27T09:32:42.999Z</time></trkpt><trkpt lat="44.499338189276536" lon="8.269837986931428"><ele>304.0</ele><time>2026-04-27T09:32:43.999Z</time></trkpt><trkpt lat="44.49923011443405" lon="8.270087692860447"><ele>303.0</ele><time>2026-04-27T09:32:44.999Z</time></trkpt><trkpt lat="44.499121150037375" lon="8.270341461876999"><ele>302.0</ele><time>2026-04-27T09:32:45.999Z</time></trkpt><trkpt lat="44.49901118844415" lon="8.270602546419552"><ele>301.0</ele><time>2026-04-27T09:32:46.999Z</time></trkpt><trkpt lat="44.49890395221913" lon="8.270856080410303"><ele>300.66666666666663</ele><time>2026-04-27T09:32:47.999Z</time></trkpt><trkpt lat="44.49881740966227" lon="8.271096280325567"><ele>300.3333333333333</ele><time>2026-04-27T09:32:48.999Z</time></trkpt><trkpt lat="44.4987153788627" lon="8.271326719426261"><ele>300.0</ele><time>2026-04-27T09:32:49.999Z</time></trkpt><trkpt lat="44.49861205180475" lon="8.271561287896237"><ele>300.0</ele><time>2026-04-27T09:32:50.999Z</time></trkpt><trkpt lat="44.49848034549279" lon="8.27178139837913"><ele>300.0</ele><time>2026-04-27T09:32:51.999Z</time></trkpt><trkpt lat="44.4983343568665" lon="8.271991097880537"><ele>300.0</ele><time>2026-04-27T09:32:52.999Z</time></trkpt><trkpt lat="44.49818324270686" lon="8.272200936492029"><ele>301.6666666666667</ele><time>2026-04-27T09:32:53.999Z</time></trkpt><trkpt lat="44.498058473539274" lon="8.272402672154966"><ele>303.33333333333337</ele><time>2026-04-27T09:32:54.999Z</time></trkpt><trkpt lat="44.4979291497137" lon="8.272590399691888"><ele>305.0</ele><time>2026-04-27T09:32:55.999Z</time></trkpt><trkpt lat="44.49782396681113" lon="8.272801947592841"><ele>302.6666666666667</ele><time>2026-04-27T09:32:56.999Z</time></trkpt><trkpt lat="44.497736951829104" lon="8.27303166023485"><ele>300.3333333333333</ele><time>2026-04-27T09:32:57.999Z</time></trkpt><trkpt lat="44.497660387034905" lon="8.273273426273828"><ele>298.0</ele><time>2026-04-27T09:32:58.999Z</time></trkpt><trkpt lat="44.497576521237605" lon="8.27350662664861"><ele>298.0</ele><time>2026-04-27T09:32:59.999Z</time></trkpt><trkpt lat="44.49748268365441" lon="8.273725232544706"><ele>298.0</ele><time>2026-04-27T09:33:00.999Z</time></trkpt><trkpt lat="44.49737038659163" lon="8.273921883271177"><ele>298.0</ele><time>2026-04-27T09:33:01.999Z</time></trkpt><trkpt lat="44.49725074602896" lon="8.274091133914682"><ele>296.3333333333333</ele><time>2026-04-27T09:33:02.999Z</time></trkpt><trkpt lat="44.497141411069904" lon="8.274299654406297"><ele>294.6666666666667</ele><time>2026-04-27T09:33:03.999Z</time></trkpt><trkpt lat="44.4970533060563" lon="8.274554341758735"><ele>293.0</ele><time>2026-04-27T09:33:04.999Z</time></trkpt><trkpt lat="44.497000291765566" lon="8.274832893795697"><ele>293.0</ele><time>2026-04-27T09:33:05.999Z</time></trkpt><trkpt lat="44.49696110716102" lon="8.275111767938434"><ele>293.0</ele><time>2026-04-27T09:33:06.999Z</time></trkpt><trkpt lat="44.49695079643767" lon="8.27538845627625"><ele>293.0</ele><time>2026-04-27T09:33:07.999Z</time></trkpt><trkpt lat="44.49695734149348" lon="8.275645771353357"><ele>293.33333333333337</ele><time>2026-04-27T09:33:09Z</time></trkpt><trkpt lat="44.49698933633901" lon="8.275889919202678"><ele>293.6666666666667</ele><time>2026-04-27T09:33:10Z</time></trkpt><trkpt lat="44.497032265915834" lon="8.276129981535997"><ele>294.0</ele><time>2026-04-27T09:33:11Z</time></trkpt><trkpt lat="44.49705180792061" lon="8.276376594101476"><ele>294.0</ele><time>2026-04-27T09:33:12Z</time></trkpt><trkpt lat="44.49707568634616" lon="8.276618166452769"><ele>294.0</ele><time>2026-04-27T09:33:13Z</time></trkpt><trkpt lat="44.49708227038724" lon="8.276857073631398"><ele>294.0</ele><time>2026-04-27T09:33:14Z</time></trkpt><trkpt lat="44.49708013877782" lon="8.277103766353965"><ele>293.6666666666667</ele><time>2026-04-27T09:33:15Z</time></trkpt><trkpt lat="44.497064843416744" lon="8.277354669426847"><ele>293.33333333333337</ele><time>2026-04-27T09:33:16Z</time></trkpt><trkpt lat="44.497033847058006" lon="8.27760695359023"><ele>293.0</ele><time>2026-04-27T09:33:17Z</time></trkpt><trkpt lat="44.49698833106388" lon="8.277855606398646"><ele>293.0</ele><time>2026-04-27T09:33:18Z</time></trkpt><trkpt lat="44.49693446163788" lon="8.278085991765215"><ele>293.0</ele><time>2026-04-27T09:33:19Z</time></trkpt><trkpt lat="44.496863676257064" lon="8.278303471131359"><ele>293.0</ele><time>2026-04-27T09:33:20Z</time></trkpt><trkpt lat="44.496803178576435" lon="8.278509397698897"><ele>294.33333333333337</ele><time>2026-04-27T09:33:21Z</time></trkpt><trkpt lat="44.496713435541444" lon="8.278699025107668"><ele>295.6666666666667</ele><time>2026-04-27T09:33:22Z</time></trkpt><trkpt lat="44.496610421537646" lon="8.278886474954346"><ele>297.0</ele><time>2026-04-27T09:33:23Z</time></trkpt><trkpt lat="44.4965061850588" lon="8.279084012029474"><ele>299.3333333333333</ele><time>2026-04-27T09:33:24Z</time></trkpt><trkpt lat="44.49640468657765" lon="8.279294702035912"><ele>301.66666666666663</ele><time>2026-04-27T09:33:25Z</time></trkpt><trkpt lat="44.49632606128152" lon="8.279518952868333"><ele>304.0</ele><time>2026-04-27T09:33:26Z</time></trkpt><trkpt lat="44.49626276978652" lon="8.279749196253253"><ele>300.3333333333333</ele><time>2026-04-27T09:33:27Z</time></trkpt><trkpt lat="44.49621444042702" lon="8.279999967067258"><ele>296.6666666666667</ele><time>2026-04-27T09:33:28Z</time></trkpt><trkpt lat="44.496183911849705" lon="8.280256669102549"><ele>293.0</ele><time>2026-04-27T09:33:29Z</time></trkpt><trkpt lat="44.49617952283526" lon="8.280504441794175"><ele>292.0</ele><time>2026-04-27T09:33:30Z</time></trkpt><trkpt lat="44.496190131795544" lon="8.280761995578525"><ele>291.0</ele><time>2026-04-27T09:33:31Z</time></trkpt><trkpt lat="44.49619101702934" lon="8.281027389806654"><ele>290.0</ele><time>2026-04-27T09:33:32Z</time></trkpt><trkpt lat="44.49620264960524" lon="8.281298497338316"><ele>289.33333333333337</ele><time>2026-04-27T09:33:33Z</time></trkpt><trkpt lat="44.49621341991838" lon="8.281565741639248"><ele>288.6666666666667</ele><time>2026-04-27T09:33:34Z</time></trkpt><trkpt lat="44.496223552674365" lon="8.281842123880807"><ele>288.0</ele><time>2026-04-27T09:33:35Z</time></trkpt><trkpt lat="44.49623382612703" lon="8.282122343887107"><ele>288.0</ele><time>2026-04-27T09:33:36Z</time></trkpt><trkpt lat="44.496240264014894" lon="8.282399054997756"><ele>288.0</ele><time>2026-04-27T09:33:37Z</time></trkpt><trkpt lat="44.49623010904166" lon="8.282660280806814"><ele>288.0</ele><time>2026-04-27T09:33:38Z</time></trkpt><trkpt lat="44.49618883303219" lon="8.28291349280883"><ele>289.0</ele><time>2026-04-27T09:33:39Z</time></trkpt><trkpt lat="44.496123255226436" lon="8.283157792309483"><ele>290.0</ele><time>2026-04-27T09:33:40Z</time></trkpt><trkpt lat="44.496031559431444" lon="8.283380014291469"><ele>291.0</ele><time>2026-04-27T09:33:41Z</time></trkpt><trkpt lat="44.495926457694665" lon="8.283597705035554"><ele>291.0</ele><time>2026-04-27T09:33:42Z</time></trkpt><trkpt lat="44.495789968880956" lon="8.283789887960179"><ele>291.0</ele><time>2026-04-27T09:33:43Z</time></trkpt><trkpt lat="44.49565166796214" lon="8.283986169933895"><ele>291.0</ele><time>2026-04-27T09:33:44Z</time></trkpt><trkpt lat="44.49551443681166" lon="8.284193522975452"><ele>290.6666666666667</ele><time>2026-04-27T09:33:45Z</time></trkpt><trkpt lat="44.495378306823405" lon="8.284408486941805"><ele>290.33333333333337</ele><time>2026-04-27T09:33:46Z</time></trkpt><trkpt lat="44.49524050262452" lon="8.284625304620036"><ele>290.0</ele><time>2026-04-27T09:33:47Z</time></trkpt><trkpt lat="44.49509746850649" lon="8.28483875733217"><ele>290.0</ele><time>2026-04-27T09:33:48Z</time></trkpt><trkpt lat="44.49494747447167" lon="8.285046814624824"><ele>290.0</ele><time>2026-04-27T09:33:49Z</time></trkpt><trkpt lat="44.49478738305764" lon="8.285239225274456"><ele>290.0</ele><time>2026-04-27T09:33:50Z</time></trkpt><trkpt lat="44.49461747088577" lon="8.285405654943862"><ele>291.0</ele><time>2026-04-27T09:33:51Z</time></trkpt><trkpt lat="44.49442784271889" lon="8.285529943066141"><ele>292.0</ele><time>2026-04-27T09:33:52Z</time></trkpt><trkpt lat="44.494235861239005" lon="8.285623943752439"><ele>293.0</ele><time>2026-04-27T09:33:53Z</time></trkpt><trkpt lat="44.49405903484359" lon="8.285715549029648"><ele>293.0</ele><time>2026-04-27T09:33:54Z</time></trkpt><trkpt lat="44.49389714642046" lon="8.28581983252469"><ele>293.0</ele><time>2026-04-27T09:33:55Z</time></trkpt><trkpt lat="44.49373349492829" lon="8.285945061689521"><ele>293.0</ele><time>2026-04-27T09:33:56Z</time></trkpt><trkpt lat="44.493579600958704" lon="8.286098730959475"><ele>292.6666666666667</ele><time>2026-04-27T09:33:57Z</time></trkpt><trkpt lat="44.49344586232304" lon="8.286294939414775"><ele>292.3333333333333</ele><time>2026-04-27T09:33:58Z</time></trkpt><trkpt lat="44.49334624951079" lon="8.286510891509016"><ele>292.0</ele><time>2026-04-27T09:33:58.999Z</time></trkpt><trkpt lat="44.49324897650688" lon="8.286736552081274"><ele>292.0</ele><time>2026-04-27T09:33:59.999Z</time></trkpt><trkpt lat="44.493134774014806" lon="8.286950952538314"><ele>292.0</ele><time>2026-04-27T09:34:00.999Z</time></trkpt><trkpt lat="44.492996075647916" lon="8.287144012111417"><ele>292.0</ele><time>2026-04-27T09:34:01.999Z</time></trkpt><trkpt lat="44.49283361814086" lon="8.28730501826419"><ele>290.0</ele><time>2026-04-27T09:34:02.999Z</time></trkpt><trkpt lat="44.492652758229255" lon="8.287436932166163"><ele>288.0</ele><time>2026-04-27T09:34:03.999Z</time></trkpt><trkpt lat="44.4924661750465" lon="8.287524743294927"><ele>286.0</ele><time>2026-04-27T09:34:04.999Z</time></trkpt><trkpt lat="44.49228194303581" lon="8.287592213246949"><ele>286.0</ele><time>2026-04-27T09:34:05.999Z</time></trkpt><trkpt lat="44.49212431026634" lon="8.287685140427449"><ele>286.0</ele><time>2026-04-27T09:34:06.999Z</time></trkpt><trkpt lat="44.49200569890516" lon="8.28783464152355"><ele>286.0</ele><time>2026-04-27T09:34:07.999Z</time></trkpt><trkpt lat="44.49195211023978" lon="8.288023607808967"><ele>285.75</ele><time>2026-04-27T09:34:08.999Z</time></trkpt><trkpt lat="44.49195381107203" lon="8.28822500461784"><ele>285.5</ele><time>2026-04-27T09:34:09.999Z</time></trkpt><trkpt lat="44.49199685834848" lon="8.288415839110385"><ele>285.25</ele><time>2026-04-27T09:34:10.999Z</time></trkpt><trkpt lat="44.49209173079262" lon="8.288593524486616"><ele>285.0</ele><time>2026-04-27T09:34:11.999Z</time></trkpt><trkpt lat="44.49220652206733" lon="8.28876645513347"><ele>283.3333333333333</ele><time>2026-04-27T09:34:12.999Z</time></trkpt><trkpt lat="44.492319130236034" lon="8.288971521968064"><ele>281.66666666666663</ele><time>2026-04-27T09:34:13.999Z</time></trkpt><trkpt lat="44.492456782312416" lon="8.289173168457637"><ele>280.0</ele><time>2026-04-27T09:34:14.999Z</time></trkpt><trkpt lat="44.49259854424501" lon="8.289385126351151"><ele>280.0</ele><time>2026-04-27T09:34:15.999Z</time></trkpt><trkpt lat="44.49273616527889" lon="8.289591654910723"><ele>280.0</ele><time>2026-04-27T09:34:16.999Z</time></trkpt><trkpt lat="44.49285751881023" lon="8.289787959448313"><ele>280.0</ele><time>2026-04-27T09:34:17.999Z</time></trkpt><trkpt lat="44.4929646286878" lon="8.289987202603024"><ele>280.66666666666663</ele><time>2026-04-27T09:34:18.999Z</time></trkpt><trkpt lat="44.493044907343325" lon="8.29018891021093"><ele>281.3333333333333</ele><time>2026-04-27T09:34:19.999Z</time></trkpt><trkpt lat="44.493105193215534" lon="8.290404916488177"><ele>282.0</ele><time>2026-04-27T09:34:20.999Z</time></trkpt><trkpt lat="44.49314157933847" lon="8.290637832779291"><ele>282.0</ele><time>2026-04-27T09:34:21.999Z</time></trkpt><trkpt lat="44.49315768484971" lon="8.290883815594377"><ele>282.0</ele><time>2026-04-27T09:34:22.999Z</time></trkpt><trkpt lat="44.493153508524635" lon="8.291144281522044"><ele>282.0</ele><time>2026-04-27T09:34:23.999Z</time></trkpt><trkpt lat="44.493121568415596" lon="8.291403585940643"><ele>282.6666666666667</ele><time>2026-04-27T09:34:24.999Z</time></trkpt><trkpt lat="44.49307046977667" lon="8.291660697520005"><ele>283.33333333333337</ele><time>2026-04-27T09:34:25.999Z</time></trkpt><trkpt lat="44.4930115483475" lon="8.291927384402829"><ele>284.0</ele><time>2026-04-27T09:34:26.999Z</time></trkpt><trkpt lat="44.492950050171956" lon="8.292204391576531"><ele>280.0</ele><time>2026-04-27T09:34:27.999Z</time></trkpt><trkpt lat="44.4928900052753" lon="8.292474422416534"><ele>276.0</ele><time>2026-04-27T09:34:28.999Z</time></trkpt><trkpt lat="44.49283173398525" lon="8.292743138203615"><ele>272.0</ele><time>2026-04-27T09:34:29.999Z</time></trkpt><trkpt lat="44.4927699794615" lon="8.293024363925449"><ele>272.6666666666667</ele><time>2026-04-27T09:34:30.999Z</time></trkpt><trkpt lat="44.492705802482774" lon="8.293308723740887"><ele>273.3333333333333</ele><time>2026-04-27T09:34:31.999Z</time></trkpt><trkpt lat="44.49263461344369" lon="8.293591622896095"><ele>274.0</ele><time>2026-04-27T09:34:32.999Z</time></trkpt><trkpt lat="44.4925466848333" lon="8.293857972857413"><ele>275.3333333333333</ele><time>2026-04-27T09:34:33.999Z</time></trkpt><trkpt lat="44.49244170935839" lon="8.294102078869487"><ele>276.6666666666667</ele><time>2026-04-27T09:34:34.999Z</time></trkpt><trkpt lat="44.492316012923496" lon="8.294331415411248"><ele>278.0</ele><time>2026-04-27T09:34:35.999Z</time></trkpt><trkpt lat="44.492175309676" lon="8.294544306631789"><ele>276.33333333333337</ele><time>2026-04-27T09:34:36.999Z</time></trkpt><trkpt lat="44.4920285184399" lon="8.294756035651242"><ele>274.6666666666667</ele><time>2026-04-27T09:34:37.999Z</time></trkpt><trkpt lat="44.49185998960184" lon="8.294939625881334"><ele>273.0</ele><time>2026-04-27T09:34:38.999Z</time></trkpt><trkpt lat="44.49170116687406" lon="8.295132055280064"><ele>273.0</ele><time>2026-04-27T09:34:39.999Z</time></trkpt><trkpt lat="44.49156957916254" lon="8.295359654265981"><ele>273.0</ele><time>2026-04-27T09:34:40.999Z</time></trkpt><trkpt lat="44.491469393360774" lon="8.295616165464793"><ele>273.0</ele><time>2026-04-27T09:34:41.999Z</time></trkpt><trkpt lat="44.49139699787714" lon="8.295889182173413"><ele>274.3333333333333</ele><time>2026-04-27T09:34:42.999Z</time></trkpt><trkpt lat="44.49135229493814" lon="8.296171500798579"><ele>275.66666666666663</ele><time>2026-04-27T09:34:43.999Z</time></trkpt><trkpt lat="44.49132028460254" lon="8.296455243814405"><ele>277.0</ele><time>2026-04-27T09:34:44.999Z</time></trkpt><trkpt lat="44.4912807880962" lon="8.296736550569621"><ele>274.3333333333333</ele><time>2026-04-27T09:34:45.999Z</time></trkpt><trkpt lat="44.49123506908644" lon="8.2970110931585"><ele>271.6666666666667</ele><time>2026-04-27T09:34:46.999Z</time></trkpt><trkpt lat="44.49118800591978" lon="8.297293703753626"><ele>269.0</ele><time>2026-04-27T09:34:47.999Z</time></trkpt><trkpt lat="44.49114126312662" lon="8.29757390394539"><ele>269.0</ele><time>2026-04-27T09:34:48.999Z</time></trkpt><trkpt lat="44.49109732305172" lon="8.297841786169972"><ele>269.0</ele><time>2026-04-27T09:34:49.999Z</time></trkpt><trkpt lat="44.49105878716389" lon="8.298091166684328"><ele>269.0</ele><time>2026-04-27T09:34:50.999Z</time></trkpt><trkpt lat="44.49102134853441" lon="8.298327485007412"><ele>268.33333333333337</ele><time>2026-04-27T09:34:51.999Z</time></trkpt><trkpt lat="44.49098521794682" lon="8.298560894629707"><ele>267.6666666666667</ele><time>2026-04-27T09:34:52.999Z</time></trkpt><trkpt lat="44.490945196115746" lon="8.298799308146755"><ele>267.0</ele><time>2026-04-27T09:34:53.999Z</time></trkpt><trkpt lat="44.49090640584293" lon="8.299033094869374"><ele>267.0</ele><time>2026-04-27T09:34:54.999Z</time></trkpt><trkpt lat="44.490870383242836" lon="8.299253842190101"><ele>267.0</ele><time>2026-04-27T09:34:55.999Z</time></trkpt><trkpt lat="44.4908359920527" lon="8.29946923885778"><ele>267.0</ele><time>2026-04-27T09:34:56.999Z</time></trkpt><trkpt lat="44.49078386080368" lon="8.299661493859423"><ele>267.0</ele><time>2026-04-27T09:34:57.999Z</time></trkpt><trkpt lat="44.49075256631684" lon="8.299844204953816"><ele>267.0</ele><time>2026-04-27T09:34:58.999Z</time></trkpt><trkpt lat="44.49072859117079" lon="8.30000584115196"><ele>267.0</ele><time>2026-04-27T09:34:59.999Z</time></trkpt><trkpt lat="44.490721600215544" lon="8.300161100358222"><ele>267.0</ele><time>2026-04-27T09:35:00.999Z</time></trkpt><trkpt lat="44.49076739544569" lon="8.300308014922164"><ele>267.0</ele><time>2026-04-27T09:35:01.999Z</time></trkpt><trkpt lat="44.49083893281789" lon="8.300426508963975"><ele>267.0</ele><time>2026-04-27T09:35:02.999Z</time></trkpt><trkpt lat="44.490922625535354" lon="8.30051927075755"><ele>267.0</ele><time>2026-04-27T09:35:03.999Z</time></trkpt><trkpt lat="44.49098518500421" lon="8.300630154471781"><ele>267.0</ele><time>2026-04-27T09:35:04.999Z</time></trkpt><trkpt lat="44.49099147674729" lon="8.30078131842947"><ele>267.0</ele><time>2026-04-27T09:35:05.999Z</time></trkpt><trkpt lat="44.49095778493242" lon="8.300937902629984"><ele>266.75</ele><time>2026-04-27T09:35:06.999Z</time></trkpt><trkpt lat="44.49089896545346" lon="8.30108613467096"><ele>266.5</ele><time>2026-04-27T09:35:07.999Z</time></trkpt><trkpt lat="44.490817505123836" lon="8.301202020253417"><ele>266.25</ele><time>2026-04-27T09:35:08.999Z</time></trkpt><trkpt lat="44.49071014290467" lon="8.30128524764904"><ele>266.0</ele><time>2026-04-27T09:35:09.999Z</time></trkpt><trkpt lat="44.49057571390895" lon="8.301329539746265"><ele>266.0</ele><time>2026-04-27T09:35:10.999Z</time></trkpt><trkpt lat="44.49041876506757" lon="8.301381768834714"><ele>266.0</ele><time>2026-04-27T09:35:11.998Z</time></trkpt><trkpt lat="44.490251736351404" lon="8.301483631125476"><ele>266.0</ele><time>2026-04-27T09:35:12.998Z</time></trkpt><trkpt lat="44.490092727521954" lon="8.301605219185516"><ele>266.0</ele><time>2026-04-27T09:35:13.998Z</time></trkpt><trkpt lat="44.48994013858376" lon="8.301748082473253"><ele>266.0</ele><time>2026-04-27T09:35:15Z</time></trkpt><trkpt lat="44.48979207331862" lon="8.301916243834325"><ele>266.0</ele><time>2026-04-27T09:35:16Z</time></trkpt><trkpt lat="44.48965320655231" lon="8.30210577461515"><ele>270.6666666666667</ele><time>2026-04-27T09:35:17Z</time></trkpt><trkpt lat="44.489517160373644" lon="8.302298165402563"><ele>275.3333333333333</ele><time>2026-04-27T09:35:18Z</time></trkpt><trkpt lat="44.48939023274248" lon="8.302473681580997"><ele>280.0</ele><time>2026-04-27T09:35:19Z</time></trkpt><trkpt lat="44.48926981017841" lon="8.30263732898101"><ele>280.0</ele><time>2026-04-27T09:35:20Z</time></trkpt><trkpt lat="44.48914943529864" lon="8.302803053524045"><ele>280.0</ele><time>2026-04-27T09:35:21Z</time></trkpt><trkpt lat="44.48902606731976" lon="8.302969583998614"><ele>280.0</ele><time>2026-04-27T09:35:22Z</time></trkpt><trkpt lat="44.488900466073" lon="8.303133201879431"><ele>283.3333333333333</ele><time>2026-04-27T09:35:23Z</time></trkpt><trkpt lat="44.48877437138902" lon="8.303298541645557"><ele>286.6666666666667</ele><time>2026-04-27T09:35:24Z</time></trkpt><trkpt lat="44.488652105853575" lon="8.303467877855356"><ele>290.0</ele><time>2026-04-27T09:35:25Z</time></trkpt><trkpt lat="44.48854017230521" lon="8.303628767097251"><ele>290.0</ele><time>2026-04-27T09:35:26Z</time></trkpt><trkpt lat="44.48842990207776" lon="8.303784149969891"><ele>290.0</ele><time>2026-04-27T09:35:27Z</time></trkpt><trkpt lat="44.48832187020342" lon="8.303933440370594"><ele>290.0</ele><time>2026-04-27T09:35:28Z</time></trkpt><trkpt lat="44.488214680778945" lon="8.304079949261906"><ele>289.5</ele><time>2026-04-27T09:35:29Z</time></trkpt><trkpt lat="44.488107603883975" lon="8.30422468676378"><ele>289.0</ele><time>2026-04-27T09:35:30Z</time></trkpt><trkpt lat="44.48800317176094" lon="8.30437161095201"><ele>288.5</ele><time>2026-04-27T09:35:31Z</time></trkpt><trkpt lat="44.487901323322085" lon="8.304516192084435"><ele>288.0</ele><time>2026-04-27T09:35:32Z</time></trkpt><trkpt lat="44.48779597107442" lon="8.304660730062853"><ele>282.6666666666667</ele><time>2026-04-27T09:35:33Z</time></trkpt><trkpt lat="44.48768700608327" lon="8.304808600746025"><ele>277.33333333333337</ele><time>2026-04-27T09:35:34Z</time></trkpt><trkpt lat="44.48759394032575" lon="8.304963824914102"><ele>272.0</ele><time>2026-04-27T09:35:35Z</time></trkpt><trkpt lat="44.487481581985804" lon="8.305125853413573"><ele>272.0</ele><time>2026-04-27T09:35:36Z</time></trkpt><trkpt lat="44.48736523105133" lon="8.305288004806636"><ele>272.0</ele><time>2026-04-27T09:35:37Z</time></trkpt><trkpt lat="44.48724575948123" lon="8.305447785309905"><ele>272.0</ele><time>2026-04-27T09:35:38Z</time></trkpt><trkpt lat="44.48712753540526" lon="8.305598703094544"><ele>273.6666666666667</ele><time>2026-04-27T09:35:39Z</time></trkpt><trkpt lat="44.48701114014815" lon="8.305751141924393"><ele>275.3333333333333</ele><time>2026-04-27T09:35:40Z</time></trkpt><trkpt lat="44.48689312948737" lon="8.305895680516471"><ele>277.0</ele><time>2026-04-27T09:35:41Z</time></trkpt><trkpt lat="44.48677372261788" lon="8.306041368978507"><ele>277.0</ele><time>2026-04-27T09:35:42Z</time></trkpt><trkpt lat="44.48664901733197" lon="8.306182097833316"><ele>277.0</ele><time>2026-04-27T09:35:43Z</time></trkpt><trkpt lat="44.4865263181365" lon="8.306322254001154"><ele>277.0</ele><time>2026-04-27T09:35:44Z</time></trkpt><trkpt lat="44.4864002557003" lon="8.306451910276484"><ele>277.0</ele><time>2026-04-27T09:35:45Z</time></trkpt><trkpt lat="44.48628041951056" lon="8.30658276657834"><ele>277.0</ele><time>2026-04-27T09:35:46Z</time></trkpt><trkpt lat="44.48616228922272" lon="8.306704591446039"><ele>277.0</ele><time>2026-04-27T09:35:47Z</time></trkpt><trkpt lat="44.486046929870284" lon="8.306825108066857"><ele>277.0</ele><time>2026-04-27T09:35:48Z</time></trkpt><trkpt lat="44.48593560247384" lon="8.306942931188367"><ele>277.0</ele><time>2026-04-27T09:35:49Z</time></trkpt><trkpt lat="44.485825779783525" lon="8.30706446593502"><ele>277.0</ele><time>2026-04-27T09:35:50Z</time></trkpt><trkpt lat="44.485725299957124" lon="8.307189654142585"><ele>277.0</ele><time>2026-04-27T09:35:51Z</time></trkpt><trkpt lat="44.48561565515396" lon="8.30729934335625"><ele>277.0</ele><time>2026-04-27T09:35:52Z</time></trkpt><trkpt lat="44.48550367559282" lon="8.307404622184688"><ele>277.5</ele><time>2026-04-27T09:35:53Z</time></trkpt><trkpt lat="44.48538963271231" lon="8.307510575318444"><ele>278.0</ele><time>2026-04-27T09:35:54Z</time></trkpt><trkpt lat="44.4852722371559" lon="8.307618038109684"><ele>278.5</ele><time>2026-04-27T09:35:55Z</time></trkpt><trkpt lat="44.48515809433027" lon="8.307729282716657"><ele>279.0</ele><time>2026-04-27T09:35:56Z</time></trkpt><trkpt lat="44.485027381779645" lon="8.307824314424169"><ele>279.0</ele><time>2026-04-27T09:35:57Z</time></trkpt><trkpt lat="44.48488536625665" lon="8.307913249451943"><ele>279.0</ele><time>2026-04-27T09:35:58Z</time></trkpt><trkpt lat="44.48474720762468" lon="8.308012810464739"><ele>279.0</ele><time>2026-04-27T09:35:59Z</time></trkpt><trkpt lat="44.484611990477205" lon="8.308125305958063"><ele>278.0</ele><time>2026-04-27T09:36:00Z</time></trkpt><trkpt lat="44.48447397439642" lon="8.308240520150408"><ele>277.0</ele><time>2026-04-27T09:36:01Z</time></trkpt><trkpt lat="44.48432677600855" lon="8.308345480089283"><ele>276.0</ele><time>2026-04-27T09:36:02Z</time></trkpt><trkpt lat="44.484182893710425" lon="8.308451443465096"><ele>276.0</ele><time>2026-04-27T09:36:03Z</time></trkpt><trkpt lat="44.484027891745114" lon="8.308555899214731"><ele>276.0</ele><time>2026-04-27T09:36:03.999Z</time></trkpt><trkpt lat="44.48387100543098" lon="8.308673067083056"><ele>276.0</ele><time>2026-04-27T09:36:04.999Z</time></trkpt><trkpt lat="44.48371455431166" lon="8.30879371070781"><ele>276.0</ele><time>2026-04-27T09:36:05.999Z</time></trkpt><trkpt lat="44.48355873762966" lon="8.308903144692763"><ele>276.0</ele><time>2026-04-27T09:36:06.999Z</time></trkpt><trkpt lat="44.483414236407086" lon="8.309008775681084"><ele>276.0</ele><time>2026-04-27T09:36:07.999Z</time></trkpt><trkpt lat="44.483281184162976" lon="8.309112374679433"><ele>276.0</ele><time>2026-04-27T09:36:08.999Z</time></trkpt><trkpt lat="44.48313228212684" lon="8.309196684321261"><ele>276.0</ele><time>2026-04-27T09:36:09.999Z</time></trkpt><trkpt lat="44.48298491496596" lon="8.309272180519047"><ele>276.0</ele><time>2026-04-27T09:36:10.999Z</time></trkpt><trkpt lat="44.482830899984094" lon="8.309336102792624"><ele>277.3333333333333</ele><time>2026-04-27T09:36:11.999Z</time></trkpt><trkpt lat="44.48266658646172" lon="8.3093976794848"><ele>278.66666666666663</ele><time>2026-04-27T09:36:12.999Z</time></trkpt><trkpt lat="44.48250645242791" lon="8.30946142166854"><ele>280.0</ele><time>2026-04-27T09:36:13.999Z</time></trkpt><trkpt lat="44.482341176960944" lon="8.309516083717513"><ele>280.0</ele><time>2026-04-27T09:36:14.999Z</time></trkpt><trkpt lat="44.4821792753249" lon="8.30956521452926"><ele>280.0</ele><time>2026-04-27T09:36:15.999Z</time></trkpt><trkpt lat="44.4820127339097" lon="8.309615709206366"><ele>280.0</ele><time>2026-04-27T09:36:16.999Z</time></trkpt><trkpt lat="44.481844922021196" lon="8.309671646137739"><ele>282.3333333333333</ele><time>2026-04-27T09:36:17.999Z</time></trkpt><trkpt lat="44.48167361550069" lon="8.309720909678148"><ele>284.6666666666667</ele><time>2026-04-27T09:36:18.999Z</time></trkpt><trkpt lat="44.48150261181549" lon="8.30976142596374"><ele>287.0</ele><time>2026-04-27T09:36:19.999Z</time></trkpt><trkpt lat="44.481323623769796" lon="8.309754478031156"><ele>287.6666666666667</ele><time>2026-04-27T09:36:20.999Z</time></trkpt><trkpt lat="44.4811474046169" lon="8.309704357064719"><ele>288.3333333333333</ele><time>2026-04-27T09:36:21.999Z</time></trkpt><trkpt lat="44.48097367947392" lon="8.309637657396653"><ele>289.0</ele><time>2026-04-27T09:36:22.999Z</time></trkpt><trkpt lat="44.480769386215464" lon="8.309573438576484"><ele>289.0</ele><time>2026-04-27T09:36:23.999Z</time></trkpt><trkpt lat="44.48057433306812" lon="8.309486189070808"><ele>289.0</ele><time>2026-04-27T09:36:24.999Z</time></trkpt><trkpt lat="44.48037893119586" lon="8.309387123304512"><ele>289.0</ele><time>2026-04-27T09:36:25.999Z</time></trkpt><trkpt lat="44.4801997512253" lon="8.309250174173922"><ele>289.0</ele><time>2026-04-27T09:36:26.999Z</time></trkpt><trkpt lat="44.479953346414845" lon="8.309113342463526"><ele>289.0</ele><time>2026-04-27T09:36:27.999Z</time></trkpt><trkpt lat="44.479780206828714" lon="8.308947198048015"><ele>291.66666666666663</ele><time>2026-04-27T09:36:28.999Z</time></trkpt><trkpt lat="44.47972021068641" lon="8.308710948571132"><ele>294.3333333333333</ele><time>2026-04-27T09:36:29.999Z</time></trkpt><trkpt lat="44.47962210852771" lon="8.308513008132378"><ele>297.0</ele><time>2026-04-27T09:36:30.999Z</time></trkpt><trkpt lat="44.47950585937619" lon="8.30837189047103"><ele>297.0</ele><time>2026-04-27T09:36:31.999Z</time></trkpt><trkpt lat="44.47936406290254" lon="8.308188740612351"><ele>297.0</ele><time>2026-04-27T09:36:32.999Z</time></trkpt><trkpt lat="44.479237655292295" lon="8.308022090171155"><ele>297.0</ele><time>2026-04-27T09:36:33.999Z</time></trkpt><trkpt lat="44.47911713096425" lon="8.307858596329895"><ele>296.3333333333333</ele><time>2026-04-27T09:36:34.999Z</time></trkpt><trkpt lat="44.47899658770561" lon="8.307698567661324"><ele>295.66666666666663</ele><time>2026-04-27T09:36:35.999Z</time></trkpt><trkpt lat="44.47889503112538" lon="8.307531979015986"><ele>295.0</ele><time>2026-04-27T09:36:36.999Z</time></trkpt><trkpt lat="44.47883743201967" lon="8.307331044144203"><ele>292.66666666666663</ele><time>2026-04-27T09:36:37.999Z</time></trkpt><trkpt lat="44.478791363535656" lon="8.307110351283608"><ele>290.3333333333333</ele><time>2026-04-27T09:36:38.999Z</time></trkpt><trkpt lat="44.47873697582561" lon="8.306873354041192"><ele>288.0</ele><time>2026-04-27T09:36:39.999Z</time></trkpt><trkpt lat="44.478657415664635" lon="8.306627162848628"><ele>294.3333333333333</ele><time>2026-04-27T09:36:40.999Z</time></trkpt><trkpt lat="44.47853996142608" lon="8.306392576719007"><ele>300.66666666666663</ele><time>2026-04-27T09:36:41.999Z</time></trkpt><trkpt lat="44.47839861854838" lon="8.306172164089075"><ele>307.0</ele><time>2026-04-27T09:36:42.999Z</time></trkpt><trkpt lat="44.47824173239115" lon="8.305955176348084"><ele>307.0</ele><time>2026-04-27T09:36:43.999Z</time></trkpt><trkpt lat="44.478073331579175" lon="8.305750945346718"><ele>307.0</ele><time>2026-04-27T09:36:44.999Z</time></trkpt><trkpt lat="44.47789865073919" lon="8.305555080271647"><ele>307.0</ele><time>2026-04-27T09:36:45.999Z</time></trkpt><trkpt lat="44.47772379282999" lon="8.30537373331252"><ele>304.66666666666663</ele><time>2026-04-27T09:36:46.999Z</time></trkpt><trkpt lat="44.4775380658427" lon="8.305209536166315"><ele>302.3333333333333</ele><time>2026-04-27T09:36:47.999Z</time></trkpt><trkpt lat="44.477371360336534" lon="8.305025764368619"><ele>300.0</ele><time>2026-04-27T09:36:48.999Z</time></trkpt><trkpt lat="44.477196800581865" lon="8.304849472071533"><ele>301.0</ele><time>2026-04-27T09:36:49.999Z</time></trkpt><trkpt lat="44.47702880624982" lon="8.304675951393696"><ele>302.0</ele><time>2026-04-27T09:36:50.999Z</time></trkpt><trkpt lat="44.476854288824995" lon="8.304503934047485"><ele>303.0</ele><time>2026-04-27T09:36:51.999Z</time></trkpt><trkpt lat="44.47667046053838" lon="8.304363716855134"><ele>303.0</ele><time>2026-04-27T09:36:52.999Z</time></trkpt><trkpt lat="44.47648517957777" lon="8.30424530074775"><ele>303.0</ele><time>2026-04-27T09:36:53.999Z</time></trkpt><trkpt lat="44.47629447202205" lon="8.30413661738792"><ele>303.0</ele><time>2026-04-27T09:36:54.999Z</time></trkpt><trkpt lat="44.47608648601032" lon="8.304044250167092"><ele>303.5</ele><time>2026-04-27T09:36:55.999Z</time></trkpt><trkpt lat="44.475863053841344" lon="8.303953017790153"><ele>304.0</ele><time>2026-04-27T09:36:56.999Z</time></trkpt><trkpt lat="44.47561781742378" lon="8.303923536923207"><ele>302.5</ele><time>2026-04-27T09:36:57.999Z</time></trkpt><trkpt lat="44.47536622785645" lon="8.303920581137499"><ele>301.0</ele><time>2026-04-27T09:36:58.999Z</time></trkpt><trkpt lat="44.475105564857635" lon="8.303925933293124"><ele>301.0</ele><time>2026-04-27T09:36:59.999Z</time></trkpt><trkpt lat="44.47483655813222" lon="8.303917196449582"><ele>301.0</ele><time>2026-04-27T09:37:00.999Z</time></trkpt><trkpt lat="44.4745694066284" lon="8.303907408346355"><ele>324.5</ele><time>2026-04-27T09:37:01.999Z</time></trkpt><trkpt lat="44.47429683774005" lon="8.303897707251734"><ele>348.0</ele><time>2026-04-27T09:37:02.999Z</time></trkpt><trkpt lat="44.47402513546892" lon="8.30390469583935"><ele>335.5</ele><time>2026-04-27T09:37:03.999Z</time></trkpt><trkpt lat="44.47375654020738" lon="8.30393812129499"><ele>323.0</ele><time>2026-04-27T09:37:04.999Z</time></trkpt><trkpt lat="44.473492267155315" lon="8.304007550114486"><ele>323.0</ele><time>2026-04-27T09:37:05.999Z</time></trkpt><trkpt lat="44.47323877634512" lon="8.304098862995426"><ele>323.0</ele><time>2026-04-27T09:37:06.999Z</time></trkpt><trkpt lat="44.47299029664342" lon="8.304207188069812"><ele>332.5</ele><time>2026-04-27T09:37:07.999Z</time></trkpt><trkpt lat="44.47275578709199" lon="8.30436382410839"><ele>342.0</ele><time>2026-04-27T09:37:08.999Z</time></trkpt><trkpt lat="44.47253587157674" lon="8.304575125177061"><ele>338.0</ele><time>2026-04-27T09:37:09.999Z</time></trkpt><trkpt lat="44.47232349749468" lon="8.304777821635488"><ele>334.0</ele><time>2026-04-27T09:37:10.999Z</time></trkpt><trkpt lat="44.47209910182996" lon="8.304969174947486"><ele>334.0</ele><time>2026-04-27T09:37:11.999Z</time></trkpt><trkpt lat="44.471877434165776" lon="8.305151229729809"><ele>334.0</ele><time>2026-04-27T09:37:12.999Z</time></trkpt><trkpt lat="44.471682793125666" lon="8.305313385286876"><ele>334.0</ele><time>2026-04-27T09:37:13.999Z</time></trkpt><trkpt lat="44.47151019218353" lon="8.305463684372185"><ele>334.0</ele><time>2026-04-27T09:37:14.999Z</time></trkpt><trkpt lat="44.47135522871941" lon="8.305597322139617"><ele>334.0</ele><time>2026-04-27T09:37:15.999Z</time></trkpt><trkpt lat="44.47121768543533" lon="8.305682217556212"><ele>332.25</ele><time>2026-04-27T09:37:16.999Z</time></trkpt><trkpt lat="44.471102326113716" lon="8.305784758573818"><ele>330.5</ele><time>2026-04-27T09:37:17.998Z</time></trkpt><trkpt lat="44.470968770531236" lon="8.305828860667596"><ele>328.75</ele><time>2026-04-27T09:37:18.998Z</time></trkpt><trkpt lat="44.470815784034485" lon="8.305796948463728"><ele>327.0</ele><time>2026-04-27T09:37:19.998Z</time></trkpt><trkpt lat="44.470665825256724" lon="8.305671617985249"><ele>328.6666666666667</ele><time>2026-04-27T09:37:21Z</time></trkpt><trkpt lat="44.470519882477895" lon="8.305470456355613"><ele>330.33333333333337</ele><time>2026-04-27T09:37:22Z</time></trkpt><trkpt lat="44.47039073485902" lon="8.305240502115897"><ele>332.0</ele><time>2026-04-27T09:37:23Z</time></trkpt><trkpt lat="44.47031186020016" lon="8.304995565701375"><ele>324.33333333333337</ele><time>2026-04-27T09:37:24Z</time></trkpt><trkpt lat="44.47027916854664" lon="8.304712654880298"><ele>316.6666666666667</ele><time>2026-04-27T09:37:25Z</time></trkpt><trkpt lat="44.47030957344375" lon="8.30441909088312"><ele>309.0</ele><time>2026-04-27T09:37:26Z</time></trkpt><trkpt lat="44.47039292824056" lon="8.304141910757291"><ele>318.5</ele><time>2026-04-27T09:37:27Z</time></trkpt><trkpt lat="44.470531541290306" lon="8.303848020869452"><ele>328.0</ele><time>2026-04-27T09:37:28Z</time></trkpt><trkpt lat="44.47068381321733" lon="8.303532009549897"><ele>328.0</ele><time>2026-04-27T09:37:29Z</time></trkpt><trkpt lat="44.47080758001918" lon="8.303182187254542"><ele>328.0</ele><time>2026-04-27T09:37:30Z</time></trkpt><trkpt lat="44.47088501305364" lon="8.302781840646059"><ele>322.5</ele><time>2026-04-27T09:37:31Z</time></trkpt><trkpt lat="44.47094253309557" lon="8.302378614528823"><ele>317.0</ele><time>2026-04-27T09:37:32Z</time></trkpt><trkpt lat="44.470995499371206" lon="8.30202323784272"><ele>314.0</ele><time>2026-04-27T09:37:33Z</time></trkpt><trkpt lat="44.471036995343425" lon="8.301686335876003"><ele>311.0</ele><time>2026-04-27T09:37:34Z</time></trkpt><trkpt lat="44.471043755019934" lon="8.30136201007658"><ele>311.0</ele><time>2026-04-27T09:37:35Z</time></trkpt><trkpt lat="44.47100375201133" lon="8.301055328212605"><ele>311.0</ele><time>2026-04-27T09:37:36Z</time></trkpt><trkpt lat="44.47092129175838" lon="8.300743468012998"><ele>321.0</ele><time>2026-04-27T09:37:37Z</time></trkpt><trkpt lat="44.47079431284826" lon="8.300445758804125"><ele>331.0</ele><time>2026-04-27T09:37:38Z</time></trkpt><trkpt lat="44.47063019192287" lon="8.300181558381263"><ele>331.0</ele><time>2026-04-27T09:37:39Z</time></trkpt><trkpt lat="44.47044361155716" lon="8.299938074593188"><ele>331.0</ele><time>2026-04-27T09:37:40Z</time></trkpt><trkpt lat="44.47023007227466" lon="8.299760000962454"><ele>326.66666666666663</ele><time>2026-04-27T09:37:41Z</time></trkpt><trkpt lat="44.470028446082914" lon="8.299663088832341"><ele>322.3333333333333</ele><time>2026-04-27T09:37:42Z</time></trkpt><trkpt lat="44.469825395395915" lon="8.299625911647732"><ele>318.0</ele><time>2026-04-27T09:37:43Z</time></trkpt><trkpt lat="44.469600031371826" lon="8.299653569211626"><ele>308.5</ele><time>2026-04-27T09:37:44Z</time></trkpt><trkpt lat="44.46936398525772" lon="8.29975995984037"><ele>299.0</ele><time>2026-04-27T09:37:45Z</time></trkpt><trkpt lat="44.469127110565786" lon="8.299887591858532"><ele>299.0</ele><time>2026-04-27T09:37:46Z</time></trkpt><trkpt lat="44.468880982774294" lon="8.300035132258806"><ele>299.0</ele><time>2026-04-27T09:37:47Z</time></trkpt><trkpt lat="44.46864575346707" lon="8.300168641909616"><ele>298.5</ele><time>2026-04-27T09:37:48Z</time></trkpt><trkpt lat="44.46843280830272" lon="8.300295490104187"><ele>298.0</ele><time>2026-04-27T09:37:49Z</time></trkpt><trkpt lat="44.46823292103562" lon="8.300466282804853"><ele>296.3333333333333</ele><time>2026-04-27T09:37:50Z</time></trkpt><trkpt lat="44.46806080134247" lon="8.300677807911487"><ele>294.6666666666667</ele><time>2026-04-27T09:37:51Z</time></trkpt><trkpt lat="44.46792097764093" lon="8.300911932080714"><ele>293.0</ele><time>2026-04-27T09:37:52Z</time></trkpt><trkpt lat="44.46780355604931" lon="8.301160037352789"><ele>295.6666666666667</ele><time>2026-04-27T09:37:53Z</time></trkpt><trkpt lat="44.46769748537232" lon="8.301434191216044"><ele>298.3333333333333</ele><time>2026-04-27T09:37:54Z</time></trkpt><trkpt lat="44.46758289705909" lon="8.301702375783805"><ele>301.0</ele><time>2026-04-27T09:37:55Z</time></trkpt><trkpt lat="44.46748228576719" lon="8.301974592950426"><ele>301.0</ele><time>2026-04-27T09:37:56Z</time></trkpt><trkpt lat="44.46737277473419" lon="8.302245276459857"><ele>301.0</ele><time>2026-04-27T09:37:57Z</time></trkpt><trkpt lat="44.46725165797915" lon="8.302501313296787"><ele>301.0</ele><time>2026-04-27T09:37:58Z</time></trkpt><trkpt lat="44.4671092972299" lon="8.302743794598047"><ele>298.5</ele><time>2026-04-27T09:37:59Z</time></trkpt><trkpt lat="44.4669537951746" lon="8.302976279533405"><ele>296.0</ele><time>2026-04-27T09:38:00Z</time></trkpt><trkpt lat="44.46680061332872" lon="8.303203219882908"><ele>296.0</ele><time>2026-04-27T09:38:01Z</time></trkpt><trkpt lat="44.466630799063836" lon="8.303403591421452"><ele>296.0</ele><time>2026-04-27T09:38:02Z</time></trkpt><trkpt lat="44.466449920153536" lon="8.303590881426956"><ele>296.0</ele><time>2026-04-27T09:38:03Z</time></trkpt><trkpt lat="44.466252086191325" lon="8.303736424583812"><ele>295.0</ele><time>2026-04-27T09:38:04Z</time></trkpt><trkpt lat="44.46606115226741" lon="8.303864833772241"><ele>294.0</ele><time>2026-04-27T09:38:05Z</time></trkpt><trkpt lat="44.46588123324867" lon="8.303956101479955"><ele>293.0</ele><time>2026-04-27T09:38:06Z</time></trkpt><trkpt lat="44.46569937536963" lon="8.304004910158072"><ele>293.0</ele><time>2026-04-27T09:38:07Z</time></trkpt><trkpt lat="44.46551158236636" lon="8.304023709772636"><ele>293.0</ele><time>2026-04-27T09:38:08Z</time></trkpt><trkpt lat="44.46532002673797" lon="8.303988453005937"><ele>293.0</ele><time>2026-04-27T09:38:09Z</time></trkpt><trkpt lat="44.465138872347765" lon="8.303922071604056"><ele>297.33333333333337</ele><time>2026-04-27T09:38:09.999Z</time></trkpt><trkpt lat="44.464976397413054" lon="8.303834489759604"><ele>301.6666666666667</ele><time>2026-04-27T09:38:10.999Z</time></trkpt><trkpt lat="44.46482280475535" lon="8.303719077912827"><ele>306.0</ele><time>2026-04-27T09:38:11.999Z</time></trkpt><trkpt lat="44.46466719786802" lon="8.303589544878966"><ele>301.3333333333333</ele><time>2026-04-27T09:38:12.999Z</time></trkpt><trkpt lat="44.46450759607027" lon="8.303460426904916"><ele>296.66666666666663</ele><time>2026-04-27T09:38:13.999Z</time></trkpt><trkpt lat="44.464354167380606" lon="8.303352185593662"><ele>292.0</ele><time>2026-04-27T09:38:14.999Z</time></trkpt><trkpt lat="44.464191363703186" lon="8.303221827317538"><ele>291.3333333333333</ele><time>2026-04-27T09:38:15.999Z</time></trkpt><trkpt lat="44.464012026399885" lon="8.303079384561002"><ele>290.6666666666667</ele><time>2026-04-27T09:38:16.999Z</time></trkpt><trkpt lat="44.463828992540215" lon="8.302930549276343"><ele>290.0</ele><time>2026-04-27T09:38:17.999Z</time></trkpt><trkpt lat="44.46363985439603" lon="8.302767006146853"><ele>290.0</ele><time>2026-04-27T09:38:18.999Z</time></trkpt><trkpt lat="44.46345794824033" lon="8.302609858477558"><ele>290.0</ele><time>2026-04-27T09:38:19.999Z</time></trkpt><trkpt lat="44.46326684565133" lon="8.302457770393934"><ele>290.0</ele><time>2026-04-27T09:38:20.999Z</time></trkpt><trkpt lat="44.46308367727358" lon="8.302300140002862"><ele>290.6666666666667</ele><time>2026-04-27T09:38:21.999Z</time></trkpt><trkpt lat="44.46290434754805" lon="8.302134936240146"><ele>291.3333333333333</ele><time>2026-04-27T09:38:22.999Z</time></trkpt><trkpt lat="44.46273221296575" lon="8.301981453467548"><ele>292.0</ele><time>2026-04-27T09:38:23.999Z</time></trkpt><trkpt lat="44.46256985225652" lon="8.301842596089902"><ele>292.0</ele><time>2026-04-27T09:38:24.999Z</time></trkpt><trkpt lat="44.462405153584726" lon="8.301710743573196"><ele>292.0</ele><time>2026-04-27T09:38:25.999Z</time></trkpt><trkpt lat="44.46223777914667" lon="8.301564981431943"><ele>292.0</ele><time>2026-04-27T09:38:26.999Z</time></trkpt><trkpt lat="44.46207321214641" lon="8.301423618199728"><ele>292.0</ele><time>2026-04-27T09:38:27.999Z</time></trkpt><trkpt lat="44.461903981743795" lon="8.301278253421472"><ele>292.0</ele><time>2026-04-27T09:38:28.999Z</time></trkpt><trkpt lat="44.461733669412" lon="8.301134857351283"><ele>292.0</ele><time>2026-04-27T09:38:29.999Z</time></trkpt><trkpt lat="44.4615570052574" lon="8.300997341884221"><ele>292.0</ele><time>2026-04-27T09:38:30.999Z</time></trkpt><trkpt lat="44.46136751727004" lon="8.30086347162651"><ele>292.0</ele><time>2026-04-27T09:38:31.999Z</time></trkpt><trkpt lat="44.46117828751861" lon="8.300733573120358"><ele>292.0</ele><time>2026-04-27T09:38:32.999Z</time></trkpt><trkpt lat="44.4609913966339" lon="8.300591713439312"><ele>291.66666666666663</ele><time>2026-04-27T09:38:33.999Z</time></trkpt><trkpt lat="44.46088172469133" lon="8.300433683331974"><ele>291.3333333333333</ele><time>2026-04-27T09:38:34.999Z</time></trkpt><trkpt lat="44.46070779372559" lon="8.300291063981124"><ele>291.0</ele><time>2026-04-27T09:38:35.999Z</time></trkpt><trkpt lat="44.46054079287829" lon="8.300142244062222"><ele>291.0</ele><time>2026-04-27T09:38:36.999Z</time></trkpt><trkpt lat="44.460373084016375" lon="8.300000732119026"><ele>291.0</ele><time>2026-04-27T09:38:37.999Z</time></trkpt><trkpt lat="44.46021339815808" lon="8.299869069081845"><ele>291.0</ele><time>2026-04-27T09:38:38.999Z</time></trkpt><trkpt lat="44.46005286937093" lon="8.299735838140654"><ele>292.0</ele><time>2026-04-27T09:38:39.999Z</time></trkpt><trkpt lat="44.459898131953004" lon="8.299605069498535"><ele>293.0</ele><time>2026-04-27T09:38:40.999Z</time></trkpt><trkpt lat="44.45973831067964" lon="8.299471594905784"><ele>294.0</ele><time>2026-04-27T09:38:41.999Z</time></trkpt><trkpt lat="44.45957550229954" lon="8.299331480016724"><ele>294.0</ele><time>2026-04-27T09:38:42.999Z</time></trkpt><trkpt lat="44.45941345298615" lon="8.299186546685677"><ele>294.0</ele><time>2026-04-27T09:38:43.999Z</time></trkpt><trkpt lat="44.4592520276005" lon="8.299049114228366"><ele>294.0</ele><time>2026-04-27T09:38:44.999Z</time></trkpt><trkpt lat="44.45908930021619" lon="8.298911669750138"><ele>295.3333333333333</ele><time>2026-04-27T09:38:45.999Z</time></trkpt><trkpt lat="44.458921020770056" lon="8.298775250439538"><ele>296.66666666666663</ele><time>2026-04-27T09:38:46.999Z</time></trkpt><trkpt lat="44.458753668769305" lon="8.298638101680009"><ele>298.0</ele><time>2026-04-27T09:38:47.999Z</time></trkpt><trkpt lat="44.45858766626056" lon="8.298499055911316"><ele>298.0</ele><time>2026-04-27T09:38:48.999Z</time></trkpt><trkpt lat="44.45841695280884" lon="8.29835450520136"><ele>298.0</ele><time>2026-04-27T09:38:49.999Z</time></trkpt><trkpt lat="44.45825099082775" lon="8.298213648875622"><ele>298.0</ele><time>2026-04-27T09:38:50.999Z</time></trkpt><trkpt lat="44.45808184780426" lon="8.298072383341676"><ele>297.3333333333333</ele><time>2026-04-27T09:38:51.999Z</time></trkpt><trkpt lat="44.457917649297585" lon="8.297935787285002"><ele>296.6666666666667</ele><time>2026-04-27T09:38:52.999Z</time></trkpt><trkpt lat="44.4577475755631" lon="8.297794747536976"><ele>296.0</ele><time>2026-04-27T09:38:53.999Z</time></trkpt><trkpt lat="44.45757755075276" lon="8.297663313547178"><ele>296.0</ele><time>2026-04-27T09:38:54.999Z</time></trkpt><trkpt lat="44.457407611324165" lon="8.297523727218653"><ele>296.0</ele><time>2026-04-27T09:38:55.999Z</time></trkpt><trkpt lat="44.457232338934716" lon="8.29740715342369"><ele>296.0</ele><time>2026-04-27T09:38:56.999Z</time></trkpt><trkpt lat="44.457060865098704" lon="8.297313136130224"><ele>296.75</ele><time>2026-04-27T09:38:57.999Z</time></trkpt><trkpt lat="44.456920227663296" lon="8.297232344051853"><ele>297.5</ele><time>2026-04-27T09:38:58.999Z</time></trkpt><trkpt lat="44.456785085784695" lon="8.297167027235501"><ele>298.25</ele><time>2026-04-27T09:38:59.999Z</time></trkpt><trkpt lat="44.45665905629052" lon="8.297111613871218"><ele>299.0</ele><time>2026-04-27T09:39:00.999Z</time></trkpt><trkpt lat="44.45657828649271" lon="8.296997097767283"><ele>299.0</ele><time>2026-04-27T09:39:01.999Z</time></trkpt><trkpt lat="44.45651597918149" lon="8.296851579658691"><ele>299.0</ele><time>2026-04-27T09:39:02.999Z</time></trkpt><trkpt lat="44.45645953710576" lon="8.29668858556116"><ele>299.0</ele><time>2026-04-27T09:39:03.999Z</time></trkpt><trkpt lat="44.4564663878123" lon="8.29649740090683"><ele>299.0</ele><time>2026-04-27T09:39:04.999Z</time></trkpt><trkpt lat="44.4565333526178" lon="8.296347258275464"><ele>300.33333333333337</ele><time>2026-04-27T09:39:05.999Z</time></trkpt><trkpt lat="44.45664583569269" lon="8.29618687374552"><ele>301.6666666666667</ele><time>2026-04-27T09:39:06.999Z</time></trkpt><trkpt lat="44.456558705311515" lon="8.295979500158984"><ele>303.0</ele><time>2026-04-27T09:39:07.999Z</time></trkpt><trkpt lat="44.456521159089704" lon="8.295794766688052"><ele>303.0</ele><time>2026-04-27T09:39:08.999Z</time></trkpt><trkpt lat="44.456440322571346" lon="8.295667336495134"><ele>303.0</ele><time>2026-04-27T09:39:09.999Z</time></trkpt><trkpt lat="44.45636270011559" lon="8.295583418569555"><ele>303.0</ele><time>2026-04-27T09:39:10.999Z</time></trkpt><trkpt lat="44.456307741636316" lon="8.295517621677199"><ele>303.0</ele><time>2026-04-27T09:39:11.999Z</time></trkpt><trkpt lat="44.45620814392197" lon="8.295406266158794"><ele>303.0</ele><time>2026-04-27T09:39:13.999Z</time></trkpt><trkpt lat="44.45613287053445" lon="8.295390016241624"><ele>302.6</ele><time>2026-04-27T09:39:14.999Z</time></trkpt><trkpt lat="44.45606809061663" lon="8.295435473037264"><ele>302.20000000000005</ele><time>2026-04-27T09:39:15.999Z</time></trkpt><trkpt lat="44.45601929072714" lon="8.295524055261872"><ele>301.8</ele><time>2026-04-27T09:39:16.999Z</time></trkpt><trkpt lat="44.45597511793683" lon="8.295660936070863"><ele>301.40000000000003</ele><time>2026-04-27T09:39:17.999Z</time></trkpt><trkpt lat="44.45591856814033" lon="8.295814334200672"><ele>301.0</ele><time>2026-04-27T09:39:18.999Z</time></trkpt><trkpt lat="44.45585650763123" lon="8.295966673536839"><ele>300.6</ele><time>2026-04-27T09:39:19.999Z</time></trkpt><trkpt lat="44.455751324868245" lon="8.296045757337783"><ele>300.20000000000005</ele><time>2026-04-27T09:39:20.999Z</time></trkpt><trkpt lat="44.455636022858876" lon="8.296066190614331"><ele>299.79999999999995</ele><time>2026-04-27T09:39:21.999Z</time></trkpt><trkpt lat="44.45554956978968" lon="8.295989322450936"><ele>299.4</ele><time>2026-04-27T09:39:22.999Z</time></trkpt><trkpt lat="44.45547823226447" lon="8.295923967586363"><ele>299.0</ele><time>2026-04-27T09:39:23.999Z</time></trkpt><trkpt lat="44.455379313763856" lon="8.295870742089404"><ele>298.75</ele><time>2026-04-27T09:39:24.999Z</time></trkpt><trkpt lat="44.4552749075223" lon="8.295782189592247"><ele>298.5</ele><time>2026-04-27T09:39:25.998Z</time></trkpt><trkpt lat="44.45516050358723" lon="8.29569418584798"><ele>298.25</ele><time>2026-04-27T09:39:27Z</time></trkpt><trkpt lat="44.4550470962937" lon="8.29562103687866"><ele>298.0</ele><time>2026-04-27T09:39:28Z</time></trkpt><trkpt lat="44.454906898424326" lon="8.295591798752175"><ele>298.0</ele><time>2026-04-27T09:39:29Z</time></trkpt><trkpt lat="44.454748324501445" lon="8.295598616747169"><ele>298.0</ele><time>2026-04-27T09:39:30Z</time></trkpt><trkpt lat="44.45455614452437" lon="8.295648592350124"><ele>298.0</ele><time>2026-04-27T09:39:31Z</time></trkpt><trkpt lat="44.45437667711793" lon="8.295743533086059"><ele>300.3333333333333</ele><time>2026-04-27T09:39:32Z</time></trkpt><trkpt lat="44.454210373996744" lon="8.295870438138275"><ele>302.6666666666667</ele><time>2026-04-27T09:39:33Z</time></trkpt><trkpt lat="44.45404339320311" lon="8.29600086484218"><ele>305.0</ele><time>2026-04-27T09:39:34Z</time></trkpt><trkpt lat="44.4538779080112" lon="8.296111833504268"><ele>307.0</ele><time>2026-04-27T09:39:35Z</time></trkpt><trkpt lat="44.453719638434265" lon="8.296198062004612"><ele>309.0</ele><time>2026-04-27T09:39:36Z</time></trkpt><trkpt lat="44.4535663292539" lon="8.296284687140709"><ele>311.0</ele><time>2026-04-27T09:39:37Z</time></trkpt><trkpt lat="44.45342457724727" lon="8.296377412586764"><ele>307.33333333333337</ele><time>2026-04-27T09:39:38Z</time></trkpt><trkpt lat="44.45327929982959" lon="8.296489584771253"><ele>303.6666666666667</ele><time>2026-04-27T09:39:39Z</time></trkpt><trkpt lat="44.45313970742965" lon="8.296598656225202"><ele>300.0</ele><time>2026-04-27T09:39:40Z</time></trkpt><trkpt lat="44.45302130582805" lon="8.296719692994863"><ele>305.6666666666667</ele><time>2026-04-27T09:39:41Z</time></trkpt><trkpt lat="44.45292304471129" lon="8.29686608268977"><ele>311.33333333333337</ele><time>2026-04-27T09:39:42Z</time></trkpt><trkpt lat="44.452830861124205" lon="8.297039518365839"><ele>317.0</ele><time>2026-04-27T09:39:43Z</time></trkpt><trkpt lat="44.452742418311246" lon="8.29723302074632"><ele>314.6666666666667</ele><time>2026-04-27T09:39:44Z</time></trkpt><trkpt lat="44.45265302986546" lon="8.297445976879327"><ele>312.3333333333333</ele><time>2026-04-27T09:39:45Z</time></trkpt><trkpt lat="44.45255726758145" lon="8.297664032723002"><ele>310.0</ele><time>2026-04-27T09:39:46Z</time></trkpt><trkpt lat="44.45245252596948" lon="8.297894803440881"><ele>307.0</ele><time>2026-04-27T09:39:47Z</time></trkpt><trkpt lat="44.452350652336186" lon="8.298133188003698"><ele>304.0</ele><time>2026-04-27T09:39:48Z</time></trkpt><trkpt lat="44.45226096769709" lon="8.29838167360473"><ele>301.0</ele><time>2026-04-27T09:39:49Z</time></trkpt><trkpt lat="44.45219554672369" lon="8.298643177033759"><ele>301.0</ele><time>2026-04-27T09:39:50Z</time></trkpt><trkpt lat="44.452174006334985" lon="8.29890972297483"><ele>301.0</ele><time>2026-04-27T09:39:51Z</time></trkpt><trkpt lat="44.4521760997088" lon="8.299183803538208"><ele>301.0</ele><time>2026-04-27T09:39:52Z</time></trkpt><trkpt lat="44.45216695650909" lon="8.29947407248658"><ele>299.0</ele><time>2026-04-27T09:39:53Z</time></trkpt><trkpt lat="44.452181079374725" lon="8.299789038880764"><ele>297.0</ele><time>2026-04-27T09:39:54Z</time></trkpt><trkpt lat="44.452176533825124" lon="8.3001087426878"><ele>297.0</ele><time>2026-04-27T09:39:55Z</time></trkpt><trkpt lat="44.45216057659912" lon="8.300429494426945"><ele>297.0</ele><time>2026-04-27T09:39:56Z</time></trkpt><trkpt lat="44.452172075096406" lon="8.300749976131248"><ele>297.6666666666667</ele><time>2026-04-27T09:39:57Z</time></trkpt><trkpt lat="44.452167976535144" lon="8.301064929336762"><ele>298.33333333333337</ele><time>2026-04-27T09:39:58Z</time></trkpt><trkpt lat="44.45215586507154" lon="8.301367006101874"><ele>299.0</ele><time>2026-04-27T09:39:59Z</time></trkpt><trkpt lat="44.452120561120445" lon="8.301651833931363"><ele>302.6666666666667</ele><time>2026-04-27T09:40:00Z</time></trkpt><trkpt lat="44.45206320414329" lon="8.301934165119864"><ele>306.3333333333333</ele><time>2026-04-27T09:40:01Z</time></trkpt><trkpt lat="44.451982640917656" lon="8.302223151006437"><ele>310.0</ele><time>2026-04-27T09:40:02Z</time></trkpt><trkpt lat="44.45188771056549" lon="8.302507085882118"><ele>310.0</ele><time>2026-04-27T09:40:03Z</time></trkpt><trkpt lat="44.451796770835806" lon="8.302798971608915"><ele>310.0</ele><time>2026-04-27T09:40:04Z</time></trkpt><trkpt lat="44.45173859564313" lon="8.30311178397935"><ele>310.0</ele><time>2026-04-27T09:40:05Z</time></trkpt><trkpt lat="44.45170600118678" lon="8.303420163969985"><ele>310.0</ele><time>2026-04-27T09:40:06Z</time></trkpt><trkpt lat="44.45168254106448" lon="8.303707809296723"><ele>310.0</ele><time>2026-04-27T09:40:07Z</time></trkpt><trkpt lat="44.45163084913362" lon="8.303991067996243"><ele>310.3333333333333</ele><time>2026-04-27T09:40:08Z</time></trkpt><trkpt lat="44.45157598064552" lon="8.304275878725363"><ele>310.6666666666667</ele><time>2026-04-27T09:40:09Z</time></trkpt><trkpt lat="44.4515148312865" lon="8.304566397556046"><ele>311.0</ele><time>2026-04-27T09:40:10Z</time></trkpt><trkpt lat="44.451417485426006" lon="8.304850659851576"><ele>309.0</ele><time>2026-04-27T09:40:11Z</time></trkpt><trkpt lat="44.451315209673865" lon="8.305136455654777"><ele>307.0</ele><time>2026-04-27T09:40:12Z</time></trkpt><trkpt lat="44.45120990422494" lon="8.305427031442967"><ele>316.0</ele><time>2026-04-27T09:40:12.999Z</time></trkpt><trkpt lat="44.451109474493556" lon="8.305717911706072"><ele>325.0</ele><time>2026-04-27T09:40:13.999Z</time></trkpt><trkpt lat="44.45101274322197" lon="8.306002577804156"><ele>325.0</ele><time>2026-04-27T09:40:14.999Z</time></trkpt><trkpt lat="44.450932347724205" lon="8.30629234741117"><ele>325.0</ele><time>2026-04-27T09:40:15.999Z</time></trkpt><trkpt lat="44.45087580678872" lon="8.306589547927228"><ele>325.0</ele><time>2026-04-27T09:40:16.999Z</time></trkpt><trkpt lat="44.4508345481636" lon="8.306891841402518"><ele>322.3333333333333</ele><time>2026-04-27T09:40:17.999Z</time></trkpt><trkpt lat="44.45081992083303" lon="8.307193916065149"><ele>319.6666666666667</ele><time>2026-04-27T09:40:18.999Z</time></trkpt><trkpt lat="44.450824440238385" lon="8.307492180248989"><ele>317.0</ele><time>2026-04-27T09:40:19.999Z</time></trkpt><trkpt lat="44.450811095909856" lon="8.30777145353233"><ele>315.0</ele><time>2026-04-27T09:40:20.999Z</time></trkpt><trkpt lat="44.450817767083684" lon="8.308029039968565"><ele>313.0</ele><time>2026-04-27T09:40:21.999Z</time></trkpt><trkpt lat="44.45082560070859" lon="8.308275647760185"><ele>311.0</ele><time>2026-04-27T09:40:22.999Z</time></trkpt><trkpt lat="44.45083199498024" lon="8.308504759930628"><ele>310.25</ele><time>2026-04-27T09:40:23.999Z</time></trkpt><trkpt lat="44.45083806672726" lon="8.308722315787666"><ele>309.5</ele><time>2026-04-27T09:40:24.999Z</time></trkpt><trkpt lat="44.45084321160436" lon="8.308923495837703"><ele>308.75</ele><time>2026-04-27T09:40:25.999Z</time></trkpt><trkpt lat="44.45084235679094" lon="8.309108647694746"><ele>308.0</ele><time>2026-04-27T09:40:26.999Z</time></trkpt><trkpt lat="44.45082898309683" lon="8.309297009081721"><ele>307.5</ele><time>2026-04-27T09:40:27.999Z</time></trkpt><trkpt lat="44.45082004548829" lon="8.309490053042003"><ele>307.0</ele><time>2026-04-27T09:40:28.999Z</time></trkpt><trkpt lat="44.45078309102299" lon="8.309677082763951"><ele>306.5</ele><time>2026-04-27T09:40:29.999Z</time></trkpt><trkpt lat="44.45073667896388" lon="8.309873298759745"><ele>306.0</ele><time>2026-04-27T09:40:30.999Z</time></trkpt><trkpt lat="44.450691514644426" lon="8.310054301644703"><ele>305.25</ele><time>2026-04-27T09:40:31.999Z</time></trkpt><trkpt lat="44.45063773030101" lon="8.310224046402348"><ele>304.5</ele><time>2026-04-27T09:40:32.999Z</time></trkpt><trkpt lat="44.4505767753568" lon="8.310383790002872"><ele>303.75</ele><time>2026-04-27T09:40:33.999Z</time></trkpt><trkpt lat="44.450514317778946" lon="8.31053849827452"><ele>303.0</ele><time>2026-04-27T09:40:34.999Z</time></trkpt><trkpt lat="44.45046141806461" lon="8.310699021883863"><ele>305.25</ele><time>2026-04-27T09:40:35.999Z</time></trkpt><trkpt lat="44.45041056124674" lon="8.310857660679922"><ele>307.5</ele><time>2026-04-27T09:40:36.999Z</time></trkpt><trkpt lat="44.45036288001612" lon="8.31102260106474"><ele>309.75</ele><time>2026-04-27T09:40:37.999Z</time></trkpt><trkpt lat="44.45032465012802" lon="8.311191151314443"><ele>312.0</ele><time>2026-04-27T09:40:38.999Z</time></trkpt><trkpt lat="44.45028563226501" lon="8.311359340995162"><ele>310.8</ele><time>2026-04-27T09:40:39.999Z</time></trkpt><trkpt lat="44.45024254890996" lon="8.311529697826328"><ele>309.6</ele><time>2026-04-27T09:40:40.999Z</time></trkpt><trkpt lat="44.450205799786715" lon="8.311690533597357"><ele>308.40000000000003</ele><time>2026-04-27T09:40:41.999Z</time></trkpt><trkpt lat="44.45016901750153" lon="8.311831896208533"><ele>307.2</ele><time>2026-04-27T09:40:42.999Z</time></trkpt><trkpt lat="44.450139295221916" lon="8.311934988149225"><ele>306.0</ele><time>2026-04-27T09:40:43.999Z</time></trkpt><trkpt lat="44.450112114141895" lon="8.31202947412849"><ele>306.0</ele><time>2026-04-27T09:40:45.999Z</time></trkpt><trkpt lat="44.450089282059764" lon="8.312120344736037"><ele>306.0</ele><time>2026-04-27T09:40:50.999Z</time></trkpt><trkpt lat="44.45005956326369" lon="8.31223612849789"><ele>306.0</ele><time>2026-04-27T09:40:52.999Z</time></trkpt><trkpt lat="44.45002157038449" lon="8.312342938477975"><ele>306.0</ele><time>2026-04-27T09:40:53.999Z</time></trkpt><trkpt lat="44.450009052289154" lon="8.312489973942645"><ele>306.0</ele><time>2026-04-27T09:40:54.999Z</time></trkpt><trkpt lat="44.450020209604155" lon="8.312640274893775"><ele>305.0</ele><time>2026-04-27T09:40:55.999Z</time></trkpt><trkpt lat="44.45005798324653" lon="8.312809320014711"><ele>304.0</ele><time>2026-04-27T09:40:56.999Z</time></trkpt><trkpt lat="44.45003725455376" lon="8.312981280753212"><ele>303.0</ele><time>2026-04-27T09:40:57.999Z</time></trkpt><trkpt lat="44.449999448619046" lon="8.313140776114171"><ele>302.0</ele><time>2026-04-27T09:40:58.999Z</time></trkpt><trkpt lat="44.44997732181109" lon="8.313305089191248"><ele>301.8</ele><time>2026-04-27T09:40:59.999Z</time></trkpt><trkpt lat="44.44993523405417" lon="8.31344436651363"><ele>301.6</ele><time>2026-04-27T09:41:00.999Z</time></trkpt><trkpt lat="44.4498854689578" lon="8.313577380811056"><ele>301.40000000000003</ele><time>2026-04-27T09:41:01.999Z</time></trkpt><trkpt lat="44.44981288542067" lon="8.313694590204447"><ele>301.2</ele><time>2026-04-27T09:41:02.999Z</time></trkpt><trkpt lat="44.44973351307438" lon="8.313772791759714"><ele>301.0</ele><time>2026-04-27T09:41:03.999Z</time></trkpt><trkpt lat="44.44960707865138" lon="8.313803594542334"><ele>301.5</ele><time>2026-04-27T09:41:04.999Z</time></trkpt><trkpt lat="44.44947726359288" lon="8.313866307011894"><ele>302.0</ele><time>2026-04-27T09:41:05.999Z</time></trkpt><trkpt lat="44.44933119400721" lon="8.313896492184714"><ele>302.5</ele><time>2026-04-27T09:41:06.999Z</time></trkpt><trkpt lat="44.44917948683974" lon="8.313912893555994"><ele>303.0</ele><time>2026-04-27T09:41:07.999Z</time></trkpt><trkpt lat="44.44902086194073" lon="8.313907069737015"><ele>303.0</ele><time>2026-04-27T09:41:08.999Z</time></trkpt><trkpt lat="44.448872626122245" lon="8.313871638085669"><ele>303.0</ele><time>2026-04-27T09:41:09.999Z</time></trkpt><trkpt lat="44.448747681354135" lon="8.313803830478731"><ele>303.0</ele><time>2026-04-27T09:41:10.999Z</time></trkpt><trkpt lat="44.44863453130391" lon="8.313718762507234"><ele>303.0</ele><time>2026-04-27T09:41:11.999Z</time></trkpt><trkpt lat="44.44850313354739" lon="8.313615804986958"><ele>303.3333333333333</ele><time>2026-04-27T09:41:12.999Z</time></trkpt><trkpt lat="44.44836353250079" lon="8.313523062652944"><ele>303.66666666666663</ele><time>2026-04-27T09:41:13.999Z</time></trkpt><trkpt lat="44.44822207894972" lon="8.31343871920793"><ele>304.0</ele><time>2026-04-27T09:41:14.999Z</time></trkpt><trkpt lat="44.448081685332234" lon="8.31334931079841"><ele>304.8</ele><time>2026-04-27T09:41:15.999Z</time></trkpt><trkpt lat="44.44795622933349" lon="8.313265576122284"><ele>305.59999999999997</ele><time>2026-04-27T09:41:16.999Z</time></trkpt><trkpt lat="44.44784621167727" lon="8.313194051655614"><ele>306.4</ele><time>2026-04-27T09:41:17.999Z</time></trkpt><trkpt lat="44.447761067130315" lon="8.31313211103809"><ele>307.2</ele><time>2026-04-27T09:41:18.999Z</time></trkpt><trkpt lat="44.44769749701697" lon="8.313088688533599"><ele>308.0</ele><time>2026-04-27T09:41:19.999Z</time></trkpt><trkpt lat="44.44763921245407" lon="8.313045822307533"><ele>309.0</ele><time>2026-04-27T09:41:21.999Z</time></trkpt><trkpt lat="44.44754432899854" lon="8.3132127261952"><ele>310.0</ele><time>2026-04-27T09:41:27.999Z</time></trkpt><trkpt lat="44.447551955069926" lon="8.313357327980706"><ele>311.0</ele><time>2026-04-27T09:41:28.999Z</time></trkpt><trkpt lat="44.447554748536" lon="8.313479734877939"><ele>312.0</ele><time>2026-04-27T09:41:29.999Z</time></trkpt><trkpt lat="44.44755770042219" lon="8.313609083547249"><ele>313.0</ele><time>2026-04-27T09:41:30.999Z</time></trkpt><trkpt lat="44.447561555138506" lon="8.313777993441885"><ele>314.0</ele><time>2026-04-27T09:41:31.998Z</time></trkpt><trkpt lat="44.44756542357725" lon="8.313952264529398"><ele>315.0</ele><time>2026-04-27T09:41:33Z</time></trkpt><trkpt lat="44.447572104194094" lon="8.314148031783505"><ele>316.0</ele><time>2026-04-27T09:41:34Z</time></trkpt><trkpt lat="44.44757889974521" lon="8.314343618579123"><ele>317.0</ele><time>2026-04-27T09:41:35Z</time></trkpt><trkpt lat="44.447565432468224" lon="8.314565685969985"><ele>316.6666666666667</ele><time>2026-04-27T09:41:36Z</time></trkpt><trkpt lat="44.4475235222593" lon="8.314780766293367"><ele>316.3333333333333</ele><time>2026-04-27T09:41:37Z</time></trkpt><trkpt lat="44.44745092788865" lon="8.314975105211063"><ele>316.0</ele><time>2026-04-27T09:41:38Z</time></trkpt><trkpt lat="44.44735592331382" lon="8.315151508918872"><ele>316.0</ele><time>2026-04-27T09:41:39Z</time></trkpt><trkpt lat="44.44724281037396" lon="8.31530840071174"><ele>316.0</ele><time>2026-04-27T09:41:40Z</time></trkpt><trkpt lat="44.4471315214945" lon="8.315466534271556"><ele>316.0</ele><time>2026-04-27T09:41:41Z</time></trkpt><trkpt lat="44.447020752645265" lon="8.315625919687072"><ele>328.0</ele><time>2026-04-27T09:41:42Z</time></trkpt><trkpt lat="44.44693240125768" lon="8.315800138337236"><ele>340.0</ele><time>2026-04-27T09:41:43Z</time></trkpt><trkpt lat="44.44687993593126" lon="8.315995295556625"><ele>352.0</ele><time>2026-04-27T09:41:44Z</time></trkpt><trkpt lat="44.446835931047" lon="8.316212901371037"><ele>353.0</ele><time>2026-04-27T09:41:45Z</time></trkpt><trkpt lat="44.446852532847274" lon="8.31643751095708"><ele>354.0</ele><time>2026-04-27T09:41:46Z</time></trkpt><trkpt lat="44.44686836292094" lon="8.316660531655"><ele>355.0</ele><time>2026-04-27T09:41:47Z</time></trkpt><trkpt lat="44.44694752464642" lon="8.316850954149682"><ele>355.0</ele><time>2026-04-27T09:41:48Z</time></trkpt><trkpt lat="44.44701194835817" lon="8.317030562449984"><ele>355.0</ele><time>2026-04-27T09:41:49Z</time></trkpt><trkpt lat="44.447074841823806" lon="8.317182985328447"><ele>355.0</ele><time>2026-04-27T09:41:50Z</time></trkpt><trkpt lat="44.447133344134734" lon="8.317329572117906"><ele>355.0</ele><time>2026-04-27T09:41:51Z</time></trkpt><trkpt lat="44.44714811108299" lon="8.317507572833325"><ele>354.25</ele><time>2026-04-27T09:41:52Z</time></trkpt><trkpt lat="44.44711624778675" lon="8.317692609485876"><ele>353.5</ele><time>2026-04-27T09:41:53Z</time></trkpt><trkpt lat="44.44707901636999" lon="8.317894572719327"><ele>352.75</ele><time>2026-04-27T09:41:54Z</time></trkpt><trkpt lat="44.447056738179576" lon="8.31810745636283"><ele>352.0</ele><time>2026-04-27T09:41:55Z</time></trkpt><trkpt lat="44.44702518014443" lon="8.318276686437152"><ele>350.40000000000003</ele><time>2026-04-27T09:41:56Z</time></trkpt><trkpt lat="44.44699797385187" lon="8.318427565180865"><ele>348.8</ele><time>2026-04-27T09:41:57Z</time></trkpt><trkpt lat="44.44697092016991" lon="8.3185602252864"><ele>347.2</ele><time>2026-04-27T09:41:58Z</time></trkpt><trkpt lat="44.446931693079875" lon="8.318690230359655"><ele>345.6</ele><time>2026-04-27T09:41:59Z</time></trkpt><trkpt lat="44.44686779253486" lon="8.318813910268293"><ele>344.0</ele><time>2026-04-27T09:42:00Z</time></trkpt><trkpt lat="44.44678502921007" lon="8.3189090231607"><ele>344.25</ele><time>2026-04-27T09:42:01Z</time></trkpt><trkpt lat="44.446675689827416" lon="8.318972812093932"><ele>344.5</ele><time>2026-04-27T09:42:02Z</time></trkpt><trkpt lat="44.44654695055944" lon="8.319032729161622"><ele>344.75</ele><time>2026-04-27T09:42:03Z</time></trkpt><trkpt lat="44.44638117816717" lon="8.319115144839442"><ele>345.0</ele><time>2026-04-27T09:42:04Z</time></trkpt><trkpt lat="44.44619919253848" lon="8.319173674695085"><ele>345.0</ele><time>2026-04-27T09:42:05Z</time></trkpt><trkpt lat="44.44603439265494" lon="8.319214402800654"><ele>345.0</ele><time>2026-04-27T09:42:06Z</time></trkpt><trkpt lat="44.44589154000794" lon="8.319305340544128"><ele>345.0</ele><time>2026-04-27T09:42:07Z</time></trkpt><trkpt lat="44.4457738710351" lon="8.31945861851488"><ele>345.0</ele><time>2026-04-27T09:42:08Z</time></trkpt><trkpt lat="44.44571300634247" lon="8.319665374443053"><ele>345.0</ele><time>2026-04-27T09:42:09Z</time></trkpt><trkpt lat="44.44569458799243" lon="8.319887588716155"><ele>345.0</ele><time>2026-04-27T09:42:10Z</time></trkpt><trkpt lat="44.44572855441831" lon="8.320100462474738"><ele>343.3333333333333</ele><time>2026-04-27T09:42:11Z</time></trkpt><trkpt lat="44.44580542513582" lon="8.320323370269657"><ele>341.66666666666663</ele><time>2026-04-27T09:42:12Z</time></trkpt><trkpt lat="44.445960346542435" lon="8.32056451458508"><ele>340.0</ele><time>2026-04-27T09:42:13Z</time></trkpt><trkpt lat="44.446124841539536" lon="8.320840571795484"><ele>339.0</ele><time>2026-04-27T09:42:14Z</time></trkpt><trkpt lat="44.44628697230136" lon="8.321115937464183"><ele>338.0</ele><time>2026-04-27T09:42:15Z</time></trkpt><trkpt lat="44.44641956476817" lon="8.321403267079921"><ele>338.0</ele><time>2026-04-27T09:42:16Z</time></trkpt><trkpt lat="44.44652277511772" lon="8.32171985399825"><ele>338.0</ele><time>2026-04-27T09:42:17Z</time></trkpt><trkpt lat="44.44660151988521" lon="8.322086264333896"><ele>339.0</ele><time>2026-04-27T09:42:18Z</time></trkpt><trkpt lat="44.446672620871716" lon="8.322474063490025"><ele>340.0</ele><time>2026-04-27T09:42:18.999Z</time></trkpt><trkpt lat="44.44673942883948" lon="8.322861462995947"><ele>341.5</ele><time>2026-04-27T09:42:19.999Z</time></trkpt><trkpt lat="44.44680093772512" lon="8.32324432795057"><ele>343.0</ele><time>2026-04-27T09:42:20.999Z</time></trkpt><trkpt lat="44.44686283688361" lon="8.323644895516916"><ele>343.0</ele><time>2026-04-27T09:42:21.999Z</time></trkpt><trkpt lat="44.44691302541073" lon="8.32397150488658"><ele>343.0</ele><time>2026-04-27T09:42:22.999Z</time></trkpt><trkpt lat="44.44696661973613" lon="8.324337103175885"><ele>343.0</ele><time>2026-04-27T09:42:23.999Z</time></trkpt><trkpt lat="44.44701841117677" lon="8.324694784333861"><ele>343.0</ele><time>2026-04-27T09:42:24.999Z</time></trkpt><trkpt lat="44.44705829725988" lon="8.325037022299137"><ele>346.5</ele><time>2026-04-27T09:42:25.999Z</time></trkpt><trkpt lat="44.4470762523798" lon="8.325394633511468"><ele>350.0</ele><time>2026-04-27T09:42:26.999Z</time></trkpt><trkpt lat="44.447056875544185" lon="8.325746178376658"><ele>351.5</ele><time>2026-04-27T09:42:27.999Z</time></trkpt><trkpt lat="44.4470349125109" lon="8.326095310856854"><ele>353.0</ele><time>2026-04-27T09:42:28.999Z</time></trkpt><trkpt lat="44.447039680782524" lon="8.326422882127757"><ele>353.6666666666667</ele><time>2026-04-27T09:42:29.999Z</time></trkpt><trkpt lat="44.44707624149044" lon="8.326733671761431"><ele>354.3333333333333</ele><time>2026-04-27T09:42:30.999Z</time></trkpt><trkpt lat="44.447118699178866" lon="8.327034161098956"><ele>355.0</ele><time>2026-04-27T09:42:31.999Z</time></trkpt><trkpt lat="44.447174651745634" lon="8.327328282593244"><ele>351.5</ele><time>2026-04-27T09:42:32.999Z</time></trkpt><trkpt lat="44.44723847971531" lon="8.32762585068822"><ele>348.0</ele><time>2026-04-27T09:42:33.999Z</time></trkpt><trkpt lat="44.447313767812574" lon="8.327930936247617"><ele>347.0</ele><time>2026-04-27T09:42:34.999Z</time></trkpt><trkpt lat="44.44739270739403" lon="8.328245008048441"><ele>346.0</ele><time>2026-04-27T09:42:35.999Z</time></trkpt><trkpt lat="44.4474698738007" lon="8.3285620702112"><ele>346.0</ele><time>2026-04-27T09:42:36.999Z</time></trkpt><trkpt lat="44.44754760233988" lon="8.328872971395246"><ele>346.0</ele><time>2026-04-27T09:42:37.999Z</time></trkpt><trkpt lat="44.447624229831455" lon="8.329166794787877"><ele>347.75</ele><time>2026-04-27T09:42:38.999Z</time></trkpt><trkpt lat="44.44768897083822" lon="8.32942528338279"><ele>349.5</ele><time>2026-04-27T09:42:39.999Z</time></trkpt><trkpt lat="44.447742324239535" lon="8.329598586990356"><ele>351.25</ele><time>2026-04-27T09:42:40.999Z</time></trkpt><trkpt lat="44.44779673822826" lon="8.32969281609411"><ele>353.0</ele><time>2026-04-27T09:42:41.999Z</time></trkpt><trkpt lat="44.447880010207705" lon="8.32971823955481"><ele>353.0</ele><time>2026-04-27T09:42:42.999Z</time></trkpt><trkpt lat="44.44796187943245" lon="8.329660248607398"><ele>353.0</ele><time>2026-04-27T09:42:43.999Z</time></trkpt><trkpt lat="44.44800458662584" lon="8.32942018950926"><ele>353.0</ele><time>2026-04-27T09:42:44.999Z</time></trkpt><trkpt lat="44.44799912133769" lon="8.329199679243002"><ele>353.0</ele><time>2026-04-27T09:42:45.999Z</time></trkpt><trkpt lat="44.447956222101745" lon="8.328941523696166"><ele>351.25</ele><time>2026-04-27T09:42:46.999Z</time></trkpt><trkpt lat="44.44795656446505" lon="8.328714239519934"><ele>349.5</ele><time>2026-04-27T09:42:47.999Z</time></trkpt><trkpt lat="44.44805089516439" lon="8.328577313165267"><ele>347.75</ele><time>2026-04-27T09:42:48.999Z</time></trkpt><trkpt lat="44.44816503220589" lon="8.328520811720423"><ele>346.0</ele><time>2026-04-27T09:42:49.999Z</time></trkpt><trkpt lat="44.4483177704309" lon="8.32849598212427"><ele>350.66666666666663</ele><time>2026-04-27T09:42:50.999Z</time></trkpt><trkpt lat="44.448524828563905" lon="8.328453367471708"><ele>355.3333333333333</ele><time>2026-04-27T09:42:51.999Z</time></trkpt><trkpt lat="44.448732425708606" lon="8.328408722916743"><ele>360.0</ele><time>2026-04-27T09:42:52.999Z</time></trkpt><trkpt lat="44.44891124359024" lon="8.32833049537914"><ele>364.3333333333333</ele><time>2026-04-27T09:42:53.999Z</time></trkpt><trkpt lat="44.44906746456657" lon="8.328267371180255"><ele>368.66666666666663</ele><time>2026-04-27T09:42:54.999Z</time></trkpt><trkpt lat="44.44921229908033" lon="8.32822191477214"><ele>373.0</ele><time>2026-04-27T09:42:55.999Z</time></trkpt><trkpt lat="44.44936049358953" lon="8.328250614800767"><ele>373.0</ele><time>2026-04-27T09:42:56.999Z</time></trkpt><trkpt lat="44.44951573066794" lon="8.328304904072768"><ele>373.0</ele><time>2026-04-27T09:42:57.999Z</time></trkpt><trkpt lat="44.44972742840953" lon="8.328399256556331"><ele>373.0</ele><time>2026-04-27T09:42:58.999Z</time></trkpt><trkpt lat="44.449982706664315" lon="8.328472058641992"><ele>375.0</ele><time>2026-04-27T09:42:59.999Z</time></trkpt><trkpt lat="44.450226424346894" lon="8.328491914456404"><ele>377.0</ele><time>2026-04-27T09:43:00.999Z</time></trkpt><trkpt lat="44.45043668172467" lon="8.32850607902834"><ele>376.6666666666667</ele><time>2026-04-27T09:43:01.999Z</time></trkpt><trkpt lat="44.45062127332851" lon="8.32854823642286"><ele>376.3333333333333</ele><time>2026-04-27T09:43:02.999Z</time></trkpt><trkpt lat="44.45078212162223" lon="8.328622145941702"><ele>376.0</ele><time>2026-04-27T09:43:03.999Z</time></trkpt><trkpt lat="44.45093757876605" lon="8.32874440080319"><ele>385.3333333333333</ele><time>2026-04-27T09:43:04.999Z</time></trkpt><trkpt lat="44.451077927950344" lon="8.328923928239915"><ele>394.66666666666663</ele><time>2026-04-27T09:43:05.999Z</time></trkpt><trkpt lat="44.45118117418646" lon="8.329143084405642"><ele>404.0</ele><time>2026-04-27T09:43:06.999Z</time></trkpt><trkpt lat="44.451260912244685" lon="8.329387369852315"><ele>400.66666666666663</ele><time>2026-04-27T09:43:07.999Z</time></trkpt><trkpt lat="44.45132812851452" lon="8.329616053810454"><ele>397.33333333333337</ele><time>2026-04-27T09:43:08.999Z</time></trkpt><trkpt lat="44.4513987882675" lon="8.329802755118566"><ele>394.0</ele><time>2026-04-27T09:43:09.999Z</time></trkpt><trkpt lat="44.451445498485825" lon="8.329966483335607"><ele>394.0</ele><time>2026-04-27T09:43:10.999Z</time></trkpt><trkpt lat="44.451505353147624" lon="8.330102132879123"><ele>394.0</ele><time>2026-04-27T09:43:11.999Z</time></trkpt><trkpt lat="44.45156437339394" lon="8.330221128698668"><ele>394.0</ele><time>2026-04-27T09:43:12.999Z</time></trkpt><trkpt lat="44.45162748737221" lon="8.330305587383373"><ele>394.0</ele><time>2026-04-27T09:43:13.999Z</time></trkpt><trkpt lat="44.451669475512226" lon="8.330387366428223"><ele>394.0</ele><time>2026-04-27T09:43:14.999Z</time></trkpt><trkpt lat="44.45171099068239" lon="8.330496081555717"><ele>396.7142857142857</ele><time>2026-04-27T09:43:16.999Z</time></trkpt><trkpt lat="44.45176163080463" lon="8.330573406734228"><ele>399.42857142857144</ele><time>2026-04-27T09:44:26Z</time></trkpt><trkpt lat="44.45178328681518" lon="8.33067466852923"><ele>402.1428571428571</ele><time>2026-04-27T09:44:27Z</time></trkpt><trkpt lat="44.45181216735323" lon="8.330778074583593"><ele>404.8571428571429</ele><time>2026-04-27T09:44:28Z</time></trkpt><trkpt lat="44.451841427269386" lon="8.330866338964821"><ele>407.57142857142856</ele><time>2026-04-27T09:44:29Z</time></trkpt><trkpt lat="44.45186649965908" lon="8.330956868680541"><ele>410.2857142857143</ele><time>2026-04-27T09:44:30Z</time></trkpt><trkpt lat="44.451862512706356" lon="8.331061486409915"><ele>413.0</ele><time>2026-04-27T09:44:31Z</time></trkpt><trkpt lat="44.45186994546171" lon="8.331156432289514"><ele>412.99999999999994</ele><time>2026-04-27T09:44:32Z</time></trkpt><trkpt lat="44.45187773851038" lon="8.331256426064813"><ele>413.0</ele><time>2026-04-27T09:44:32.999Z</time></trkpt><trkpt lat="44.45188431147013" lon="8.33135613746546"><ele>413.0</ele><time>2026-04-27T09:44:33.999Z</time></trkpt><trkpt lat="44.451892335141984" lon="8.331483912085405"><ele>413.0</ele><time>2026-04-27T09:44:34.999Z</time></trkpt><trkpt lat="44.45189810951175" lon="8.331613384247069"><ele>412.99999999999994</ele><time>2026-04-27T09:44:35.999Z</time></trkpt><trkpt lat="44.45190429939573" lon="8.331752173061291"><ele>413.0</ele><time>2026-04-27T09:44:36.999Z</time></trkpt><trkpt lat="44.45191055083982" lon="8.331892342130011"><ele>416.25</ele><time>2026-04-27T09:44:37.999Z</time></trkpt><trkpt lat="44.4519168437475" lon="8.332032874067227"><ele>419.5</ele><time>2026-04-27T09:44:38.999Z</time></trkpt><trkpt lat="44.45193657190338" lon="8.332176149492232"><ele>422.75</ele><time>2026-04-27T09:44:39.999Z</time></trkpt><trkpt lat="44.45193515406915" lon="8.332337288175456"><ele>426.0</ele><time>2026-04-27T09:44:40.999Z</time></trkpt><trkpt lat="44.45194247121972" lon="8.332544277887642"><ele>426.33333333333337</ele><time>2026-04-27T09:44:41.999Z</time></trkpt><trkpt lat="44.45195828531701" lon="8.332762122189893"><ele>426.6666666666667</ele><time>2026-04-27T09:44:42.999Z</time></trkpt><trkpt lat="44.45197150503924" lon="8.332980911441734"><ele>427.0</ele><time>2026-04-27T09:44:43.999Z</time></trkpt><trkpt lat="44.45195161337188" lon="8.333213056959373"><ele>427.6666666666667</ele><time>2026-04-27T09:44:44.999Z</time></trkpt><trkpt lat="44.451926544067824" lon="8.333485107405673"><ele>428.33333333333337</ele><time>2026-04-27T09:44:45.999Z</time></trkpt><trkpt lat="44.45188593564912" lon="8.333813532796551"><ele>429.0</ele><time>2026-04-27T09:44:46.999Z</time></trkpt><trkpt lat="44.45182812835146" lon="8.334196795194371"><ele>429.5</ele><time>2026-04-27T09:44:47.999Z</time></trkpt><trkpt lat="44.45177326551802" lon="8.334595673562264"><ele>430.0</ele><time>2026-04-27T09:44:48.999Z</time></trkpt><trkpt lat="44.45170683858282" lon="8.33493436779778"><ele>430.6666666666667</ele><time>2026-04-27T09:44:49.999Z</time></trkpt><trkpt lat="44.45166088573487" lon="8.335226447135511"><ele>431.33333333333337</ele><time>2026-04-27T09:44:50.999Z</time></trkpt><trkpt lat="44.451624266443616" lon="8.335475865920516"><ele>432.0</ele><time>2026-04-27T09:44:51.999Z</time></trkpt><trkpt lat="44.45156821924636" lon="8.335693486825031"><ele>430.66666666666663</ele><time>2026-04-27T09:44:52.999Z</time></trkpt><trkpt lat="44.45146131211258" lon="8.335885289136517"><ele>429.3333333333333</ele><time>2026-04-27T09:44:53.999Z</time></trkpt><trkpt lat="44.451297947937995" lon="8.335994281178557"><ele>428.0</ele><time>2026-04-27T09:44:54.999Z</time></trkpt><trkpt lat="44.45111615040529" lon="8.336079898942657"><ele>432.66666666666663</ele><time>2026-04-27T09:44:55.999Z</time></trkpt><trkpt lat="44.450940058499306" lon="8.33617249379695"><ele>437.33333333333337</ele><time>2026-04-27T09:44:56.999Z</time></trkpt><trkpt lat="44.45082061201899" lon="8.336333242920418"><ele>442.0</ele><time>2026-04-27T09:44:57.999Z</time></trkpt><trkpt lat="44.45075223311323" lon="8.336536565781449"><ele>442.0</ele><time>2026-04-27T09:44:58.999Z</time></trkpt><trkpt lat="44.450728687235774" lon="8.336788023658235"><ele>442.0</ele><time>2026-04-27T09:44:59.999Z</time></trkpt><trkpt lat="44.450745416314646" lon="8.337066017932342"><ele>442.0</ele><time>2026-04-27T09:45:00.999Z</time></trkpt><trkpt lat="44.45076450259617" lon="8.337364469731563"><ele>442.0</ele><time>2026-04-27T09:45:01.999Z</time></trkpt><trkpt lat="44.45076438530039" lon="8.337672384367407"><ele>442.0</ele><time>2026-04-27T09:45:02.999Z</time></trkpt><trkpt lat="44.45078262699112" lon="8.337960221244641"><ele>442.0</ele><time>2026-04-27T09:45:03.999Z</time></trkpt><trkpt lat="44.450845401718986" lon="8.338214813923749"><ele>442.0</ele><time>2026-04-27T09:45:04.999Z</time></trkpt><trkpt lat="44.45097036973557" lon="8.338448654729538"><ele>442.0</ele><time>2026-04-27T09:45:05.999Z</time></trkpt><trkpt lat="44.45112422113138" lon="8.338692155730717"><ele>442.0</ele><time>2026-04-27T09:45:06.999Z</time></trkpt><trkpt lat="44.45130659361884" lon="8.33894854381533"><ele>442.0</ele><time>2026-04-27T09:45:07.999Z</time></trkpt><trkpt lat="44.451493664647806" lon="8.339209325433416"><ele>442.0</ele><time>2026-04-27T09:45:08.999Z</time></trkpt><trkpt lat="44.451684335208064" lon="8.339468301658062"><ele>442.0</ele><time>2026-04-27T09:45:09.999Z</time></trkpt><trkpt lat="44.45183966089657" lon="8.339706229950943"><ele>442.0</ele><time>2026-04-27T09:45:10.999Z</time></trkpt><trkpt lat="44.45196185880627" lon="8.339973179854905"><ele>442.33333333333337</ele><time>2026-04-27T09:45:11.999Z</time></trkpt><trkpt lat="44.45203688446445" lon="8.340261461061917"><ele>442.66666666666663</ele><time>2026-04-27T09:45:12.999Z</time></trkpt><trkpt lat="44.45206493999864" lon="8.340568526740123"><ele>443.0</ele><time>2026-04-27T09:45:13.999Z</time></trkpt><trkpt lat="44.45205210684262" lon="8.340881501281581"><ele>443.66666666666663</ele><time>2026-04-27T09:45:14.999Z</time></trkpt><trkpt lat="44.45202082189063" lon="8.34118982603576"><ele>444.33333333333337</ele><time>2026-04-27T09:45:15.999Z</time></trkpt><trkpt lat="44.451984716037344" lon="8.341463410536662"><ele>445.0</ele><time>2026-04-27T09:45:16.999Z</time></trkpt><trkpt lat="44.45196349661338" lon="8.34169487168708"><ele>445.33333333333337</ele><time>2026-04-27T09:45:17.999Z</time></trkpt><trkpt lat="44.45196892446882" lon="8.341911932105464"><ele>445.66666666666663</ele><time>2026-04-27T09:45:18.999Z</time></trkpt><trkpt lat="44.45201300645325" lon="8.342111638015592"><ele>446.0</ele><time>2026-04-27T09:45:19.999Z</time></trkpt><trkpt lat="44.45209778208268" lon="8.342277347592029"><ele>447.66666666666663</ele><time>2026-04-27T09:45:20.999Z</time></trkpt><trkpt lat="44.45222248218481" lon="8.342401706284369"><ele>449.33333333333337</ele><time>2026-04-27T09:45:21.999Z</time></trkpt><trkpt lat="44.452373589857835" lon="8.34249185856947"><ele>451.0</ele><time>2026-04-27T09:45:22.999Z</time></trkpt><trkpt lat="44.45255658316473" lon="8.34254820876288"><ele>451.0</ele><time>2026-04-27T09:45:23.999Z</time></trkpt><trkpt lat="44.45274914288218" lon="8.342603418208332"><ele>451.0</ele><time>2026-04-27T09:45:24.999Z</time></trkpt><trkpt lat="44.4529276299108" lon="8.342695151055164"><ele>451.0</ele><time>2026-04-27T09:45:25.999Z</time></trkpt><trkpt lat="44.45310558596818" lon="8.342778936508575"><ele>451.0</ele><time>2026-04-27T09:45:26.999Z</time></trkpt><trkpt lat="44.453244081881174" lon="8.34286270951885"><ele>451.0</ele><time>2026-04-27T09:45:27.999Z</time></trkpt><trkpt lat="44.45336149664556" lon="8.342963851680326"><ele>451.0</ele><time>2026-04-27T09:45:28.999Z</time></trkpt><trkpt lat="44.453519974178114" lon="8.34304448874807"><ele>451.33333333333337</ele><time>2026-04-27T09:45:29.999Z</time></trkpt><trkpt lat="44.45369211143182" lon="8.34310440076064"><ele>451.66666666666663</ele><time>2026-04-27T09:45:30.999Z</time></trkpt><trkpt lat="44.45386846030598" lon="8.343162063005439"><ele>452.0</ele><time>2026-04-27T09:45:31.999Z</time></trkpt><trkpt lat="44.45403470903503" lon="8.343203212246259"><ele>452.0</ele><time>2026-04-27T09:45:32.999Z</time></trkpt><trkpt lat="44.45418407408768" lon="8.34324375799564"><ele>452.0</ele><time>2026-04-27T09:45:33.999Z</time></trkpt><trkpt lat="44.45433642065167" lon="8.34325810091681"><ele>452.0</ele><time>2026-04-27T09:45:34.999Z</time></trkpt><trkpt lat="44.454485150641034" lon="8.34328562092234"><ele>450.5</ele><time>2026-04-27T09:45:35.999Z</time></trkpt><trkpt lat="44.45462892808283" lon="8.343339657147958"><ele>449.0</ele><time>2026-04-27T09:45:36.999Z</time></trkpt><trkpt lat="44.45477170303822" lon="8.3433787935446"><ele>447.5</ele><time>2026-04-27T09:45:37.999Z</time></trkpt><trkpt lat="44.45489995924606" lon="8.343399052476762"><ele>446.0</ele><time>2026-04-27T09:45:38.999Z</time></trkpt><trkpt lat="44.45502834385436" lon="8.34341893906207"><ele>446.0</ele><time>2026-04-27T09:45:39.999Z</time></trkpt><trkpt lat="44.45514819628116" lon="8.34350131384396"><ele>446.0</ele><time>2026-04-27T09:45:40.999Z</time></trkpt><trkpt lat="44.45527831505901" lon="8.343571977942553"><ele>446.0</ele><time>2026-04-27T09:45:41.999Z</time></trkpt><trkpt lat="44.45542637837574" lon="8.343603212185082"><ele>446.0</ele><time>2026-04-27T09:45:42.999Z</time></trkpt><trkpt lat="44.455568210483214" lon="8.343616678521242"><ele>445.5</ele><time>2026-04-27T09:45:43.999Z</time></trkpt><trkpt lat="44.4556837156887" lon="8.343654890768578"><ele>445.0</ele><time>2026-04-27T09:45:45Z</time></trkpt><trkpt lat="44.45577164871028" lon="8.343782054480556"><ele>444.5</ele><time>2026-04-27T09:45:46Z</time></trkpt><trkpt lat="44.45587102586574" lon="8.34391239938157"><ele>444.0</ele><time>2026-04-27T09:45:47Z</time></trkpt><trkpt lat="44.45595948440909" lon="8.344086883694425"><ele>443.33333333333337</ele><time>2026-04-27T09:45:48Z</time></trkpt><trkpt lat="44.45601370479095" lon="8.34422194331389"><ele>442.6666666666667</ele><time>2026-04-27T09:45:49Z</time></trkpt><trkpt lat="44.45625919636886" lon="8.344485695351644"><ele>442.0</ele><time>2026-04-27T09:45:50Z</time></trkpt><trkpt lat="44.45637824101776" lon="8.344542458651752"><ele>442.5</ele><time>2026-04-27T09:45:51Z</time></trkpt><trkpt lat="44.45646385056256" lon="8.344576239208479"><ele>443.0</ele><time>2026-04-27T09:45:52Z</time></trkpt><trkpt lat="44.456482709236724" lon="8.344734977619217"><ele>443.5</ele><time>2026-04-27T09:45:54Z</time></trkpt><trkpt lat="44.45632893615521" lon="8.3448145713298"><ele>444.0</ele><time>2026-04-27T09:45:55Z</time></trkpt><trkpt lat="44.45620050217804" lon="8.3449540035969"><ele>440.0</ele><time>2026-04-27T09:45:56Z</time></trkpt><trkpt lat="44.456060018668175" lon="8.345125030256696"><ele>436.0</ele><time>2026-04-27T09:45:57Z</time></trkpt><trkpt lat="44.45596835128534" lon="8.345292798459758"><ele>432.0</ele><time>2026-04-27T09:45:58Z</time></trkpt><trkpt lat="44.455921314461634" lon="8.345493161834982"><ele>429.66666666666663</ele><time>2026-04-27T09:45:59Z</time></trkpt><trkpt lat="44.45592752734363" lon="8.345743008394283"><ele>427.3333333333333</ele><time>2026-04-27T09:46:00Z</time></trkpt><trkpt lat="44.4559559177434" lon="8.346039065094656"><ele>425.0</ele><time>2026-04-27T09:46:01Z</time></trkpt><trkpt lat="44.45596649336289" lon="8.34632494848503"><ele>423.75</ele><time>2026-04-27T09:46:02Z</time></trkpt><trkpt lat="44.45596892687773" lon="8.346566488460358"><ele>422.5</ele><time>2026-04-27T09:46:03Z</time></trkpt><trkpt lat="44.455983769550414" lon="8.346752553909552"><ele>421.25</ele><time>2026-04-27T09:46:04Z</time></trkpt><trkpt lat="44.456022642400505" lon="8.346891853110131"><ele>420.0</ele><time>2026-04-27T09:46:05Z</time></trkpt><trkpt lat="44.45611223186653" lon="8.346985541850573"><ele>420.0</ele><time>2026-04-27T09:46:06Z</time></trkpt><trkpt lat="44.45623536092867" lon="8.34700928964356"><ele>420.0</ele><time>2026-04-27T09:46:07Z</time></trkpt><trkpt lat="44.45640790073746" lon="8.346981669885405"><ele>420.0</ele><time>2026-04-27T09:46:08Z</time></trkpt><trkpt lat="44.456602825890386" lon="8.346944296832998"><ele>421.75</ele><time>2026-04-27T09:46:09Z</time></trkpt><trkpt lat="44.45675716238133" lon="8.346926047055348"><ele>423.5</ele><time>2026-04-27T09:46:10Z</time></trkpt><trkpt lat="44.456849304389884" lon="8.346934377972236"><ele>425.25</ele><time>2026-04-27T09:46:11Z</time></trkpt><trkpt lat="44.45688825167651" lon="8.347089370309646"><ele>427.0</ele><time>2026-04-27T09:46:13Z</time></trkpt><trkpt lat="44.45681457309343" lon="8.347184665012708"><ele>425.6666666666667</ele><time>2026-04-27T09:46:14Z</time></trkpt><trkpt lat="44.456688485356345" lon="8.347245280956866"><ele>424.33333333333337</ele><time>2026-04-27T09:46:15Z</time></trkpt><trkpt lat="44.45653251203656" lon="8.34737328808473"><ele>423.0</ele><time>2026-04-27T09:46:16Z</time></trkpt><trkpt lat="44.45636203102088" lon="8.347513670374724"><ele>420.66666666666663</ele><time>2026-04-27T09:46:17Z</time></trkpt><trkpt lat="44.45618736643746" lon="8.347664377953285"><ele>418.3333333333333</ele><time>2026-04-27T09:46:18Z</time></trkpt><trkpt lat="44.456030692375435" lon="8.347804012498301"><ele>416.0</ele><time>2026-04-27T09:46:19Z</time></trkpt><trkpt lat="44.45587678307981" lon="8.347962140365583"><ele>415.3333333333333</ele><time>2026-04-27T09:46:20Z</time></trkpt><trkpt lat="44.4557804226864" lon="8.348126409462752"><ele>414.66666666666663</ele><time>2026-04-27T09:46:21Z</time></trkpt><trkpt lat="44.45572330132576" lon="8.34834711377728"><ele>414.0</ele><time>2026-04-27T09:46:22Z</time></trkpt><trkpt lat="44.45571788850498" lon="8.348609818132873"><ele>413.33333333333337</ele><time>2026-04-27T09:46:23Z</time></trkpt><trkpt lat="44.45573045962243" lon="8.348877504624465"><ele>412.6666666666667</ele><time>2026-04-27T09:46:24Z</time></trkpt><trkpt lat="44.455761030743055" lon="8.349115480351246"><ele>412.0</ele><time>2026-04-27T09:46:25Z</time></trkpt><trkpt lat="44.4558193156617" lon="8.34934319466289"><ele>412.0</ele><time>2026-04-27T09:46:26Z</time></trkpt><trkpt lat="44.455901451796976" lon="8.349594822933907"><ele>412.0</ele><time>2026-04-27T09:46:27Z</time></trkpt><trkpt lat="44.455989080803654" lon="8.349877363298484"><ele>412.0</ele><time>2026-04-27T09:46:28Z</time></trkpt><trkpt lat="44.45606490524626" lon="8.350167856181857"><ele>411.5</ele><time>2026-04-27T09:46:29Z</time></trkpt><trkpt lat="44.45616163240819" lon="8.350459931613212"><ele>411.0</ele><time>2026-04-27T09:46:30Z</time></trkpt><trkpt lat="44.45630104817614" lon="8.350745308089603"><ele>411.0</ele><time>2026-04-27T09:46:31Z</time></trkpt><trkpt lat="44.456472722720925" lon="8.351030638981669"><ele>411.0</ele><time>2026-04-27T09:46:32Z</time></trkpt><trkpt lat="44.456644631021646" lon="8.351332405209776"><ele>407.5</ele><time>2026-04-27T09:46:33Z</time></trkpt><trkpt lat="44.456812453911475" lon="8.351647127411438"><ele>404.0</ele><time>2026-04-27T09:46:34Z</time></trkpt><trkpt lat="44.45698016797085" lon="8.351956118067722"><ele>405.5</ele><time>2026-04-27T09:46:35Z</time></trkpt><trkpt lat="44.457137300588165" lon="8.352236150197573"><ele>407.0</ele><time>2026-04-27T09:46:36Z</time></trkpt><trkpt lat="44.45728683445727" lon="8.352507237364117"><ele>407.0</ele><time>2026-04-27T09:46:37Z</time></trkpt><trkpt lat="44.45741713134796" lon="8.352809238264085"><ele>407.0</ele><time>2026-04-27T09:46:38Z</time></trkpt><trkpt lat="44.457557065762686" lon="8.353092773320885"><ele>405.66666666666663</ele><time>2026-04-27T09:46:39Z</time></trkpt><trkpt lat="44.457679528596344" lon="8.353366621951587"><ele>404.33333333333337</ele><time>2026-04-27T09:46:40Z</time></trkpt><trkpt lat="44.45775731833377" lon="8.353642837495768"><ele>403.0</ele><time>2026-04-27T09:46:41Z</time></trkpt><trkpt lat="44.45780773135263" lon="8.353929497285813"><ele>403.0</ele><time>2026-04-27T09:46:42Z</time></trkpt><trkpt lat="44.457853651749154" lon="8.354202784884647"><ele>403.0</ele><time>2026-04-27T09:46:43Z</time></trkpt><trkpt lat="44.45788906718257" lon="8.354431856885952"><ele>403.0</ele><time>2026-04-27T09:46:44Z</time></trkpt><trkpt lat="44.45784088168734" lon="8.35464072484365"><ele>402.6666666666667</ele><time>2026-04-27T09:46:45Z</time></trkpt><trkpt lat="44.45777235822094" lon="8.354853626427653"><ele>402.33333333333337</ele><time>2026-04-27T09:46:46Z</time></trkpt><trkpt lat="44.45763422277174" lon="8.355032550111618"><ele>402.0</ele><time>2026-04-27T09:46:47Z</time></trkpt><trkpt lat="44.45746991543919" lon="8.355255670339336"><ele>402.0</ele><time>2026-04-27T09:46:47.999Z</time></trkpt><trkpt lat="44.45727120249722" lon="8.355480517045601"><ele>402.0</ele><time>2026-04-27T09:46:48.999Z</time></trkpt><trkpt lat="44.45706395915005" lon="8.355746829009668"><ele>408.0</ele><time>2026-04-27T09:46:49.999Z</time></trkpt><trkpt lat="44.456866161535075" lon="8.355993043392859"><ele>414.0</ele><time>2026-04-27T09:46:50.999Z</time></trkpt><trkpt lat="44.45669447286702" lon="8.356204888274837"><ele>409.66666666666663</ele><time>2026-04-27T09:46:51.999Z</time></trkpt><trkpt lat="44.456542348770675" lon="8.35642389312918"><ele>405.3333333333333</ele><time>2026-04-27T09:46:52.999Z</time></trkpt><trkpt lat="44.456417919728324" lon="8.356662341353227"><ele>401.0</ele><time>2026-04-27T09:46:53.999Z</time></trkpt><trkpt lat="44.4563040191489" lon="8.356922984268065"><ele>403.3333333333333</ele><time>2026-04-27T09:46:54.999Z</time></trkpt><trkpt lat="44.45621349511999" lon="8.357199128716436"><ele>405.66666666666663</ele><time>2026-04-27T09:46:55.999Z</time></trkpt><trkpt lat="44.45615138713528" lon="8.357505974538213"><ele>408.0</ele><time>2026-04-27T09:46:56.999Z</time></trkpt><trkpt lat="44.456093743054744" lon="8.35781099332719"><ele>405.0</ele><time>2026-04-27T09:46:57.999Z</time></trkpt><trkpt lat="44.45603063708476" lon="8.358120164517835"><ele>402.0</ele><time>2026-04-27T09:46:58.999Z</time></trkpt><trkpt lat="44.455960714140275" lon="8.358434772859745"><ele>402.0</ele><time>2026-04-27T09:46:59.999Z</time></trkpt><trkpt lat="44.45588991345201" lon="8.358748491738758"><ele>402.0</ele><time>2026-04-27T09:47:00.999Z</time></trkpt><trkpt lat="44.45581772247868" lon="8.359066480909881"><ele>401.0</ele><time>2026-04-27T09:47:01.999Z</time></trkpt><trkpt lat="44.45572774380293" lon="8.359381666564808"><ele>400.0</ele><time>2026-04-27T09:47:02.999Z</time></trkpt><trkpt lat="44.45566773858086" lon="8.359709912104945"><ele>400.0</ele><time>2026-04-27T09:47:03.999Z</time></trkpt><trkpt lat="44.4555871582119" lon="8.360035214657515"><ele>400.0</ele><time>2026-04-27T09:47:04.999Z</time></trkpt><trkpt lat="44.45551391035069" lon="8.360360163993116"><ele>400.5</ele><time>2026-04-27T09:47:05.999Z</time></trkpt><trkpt lat="44.45544027867586" lon="8.36067480534101"><ele>401.0</ele><time>2026-04-27T09:47:06.999Z</time></trkpt><trkpt lat="44.45537024745157" lon="8.360970649271202"><ele>401.0</ele><time>2026-04-27T09:47:07.999Z</time></trkpt><trkpt lat="44.45530521999493" lon="8.361252868982694"><ele>401.0</ele><time>2026-04-27T09:47:08.999Z</time></trkpt><trkpt lat="44.4552420090009" lon="8.36152647633931"><ele>401.0</ele><time>2026-04-27T09:47:09.999Z</time></trkpt><trkpt lat="44.45518920566698" lon="8.361786543559449"><ele>401.0</ele><time>2026-04-27T09:47:10.999Z</time></trkpt><trkpt lat="44.455157281438865" lon="8.362055811546595"><ele>401.0</ele><time>2026-04-27T09:47:11.999Z</time></trkpt><trkpt lat="44.455169492288626" lon="8.362336254753895"><ele>401.0</ele><time>2026-04-27T09:47:12.999Z</time></trkpt><trkpt lat="44.455224052705084" lon="8.362615829195697"><ele>401.3333333333333</ele><time>2026-04-27T09:47:13.999Z</time></trkpt><trkpt lat="44.4552954014721" lon="8.362903268559949"><ele>401.66666666666663</ele><time>2026-04-27T09:47:14.999Z</time></trkpt><trkpt lat="44.455358957850635" lon="8.363193007444728"><ele>402.0</ele><time>2026-04-27T09:47:15.999Z</time></trkpt><trkpt lat="44.45540837052258" lon="8.363487742948175"><ele>401.0</ele><time>2026-04-27T09:47:16.999Z</time></trkpt><trkpt lat="44.45545815046743" lon="8.363799381862368"><ele>400.0</ele><time>2026-04-27T09:47:17.999Z</time></trkpt><trkpt lat="44.455514712357974" lon="8.364098439518111"><ele>399.0</ele><time>2026-04-27T09:47:18.999Z</time></trkpt><trkpt lat="44.45557052522881" lon="8.364379859702096"><ele>398.66666666666663</ele><time>2026-04-27T09:47:19.999Z</time></trkpt><trkpt lat="44.4556208099708" lon="8.364652885093152"><ele>398.3333333333333</ele><time>2026-04-27T09:47:20.999Z</time></trkpt><trkpt lat="44.45567495886482" lon="8.364923512977722"><ele>398.0</ele><time>2026-04-27T09:47:21.999Z</time></trkpt><trkpt lat="44.45572806314787" lon="8.365194386866522"><ele>399.66666666666663</ele><time>2026-04-27T09:47:22.999Z</time></trkpt><trkpt lat="44.45577414207271" lon="8.365468171868455"><ele>401.33333333333337</ele><time>2026-04-27T09:47:23.999Z</time></trkpt><trkpt lat="44.45581685403337" lon="8.365743142376358"><ele>403.0</ele><time>2026-04-27T09:47:24.999Z</time></trkpt><trkpt lat="44.45585289183869" lon="8.366023667283477"><ele>403.6666666666667</ele><time>2026-04-27T09:47:25.999Z</time></trkpt><trkpt lat="44.45587961314863" lon="8.36630360593819"><ele>404.33333333333337</ele><time>2026-04-27T09:47:26.999Z</time></trkpt><trkpt lat="44.45589460432399" lon="8.366571080669672"><ele>405.0</ele><time>2026-04-27T09:47:27.999Z</time></trkpt><trkpt lat="44.45592362289167" lon="8.366828032030929"><ele>405.33333333333337</ele><time>2026-04-27T09:47:28.999Z</time></trkpt><trkpt lat="44.45595152410578" lon="8.367083650628459"><ele>405.6666666666667</ele><time>2026-04-27T09:47:29.999Z</time></trkpt><trkpt lat="44.45598094162519" lon="8.367342284007881"><ele>406.0</ele><time>2026-04-27T09:47:30.999Z</time></trkpt><trkpt lat="44.45600701168531" lon="8.367603802201947"><ele>406.0</ele><time>2026-04-27T09:47:31.999Z</time></trkpt><trkpt lat="44.456031657974066" lon="8.367863932006514"><ele>406.0</ele><time>2026-04-27T09:47:32.999Z</time></trkpt><trkpt lat="44.45605687486458" lon="8.36811978049922"><ele>406.0</ele><time>2026-04-27T09:47:33.999Z</time></trkpt><trkpt lat="44.456079600892956" lon="8.368368162891372"><ele>405.6666666666667</ele><time>2026-04-27T09:47:34.999Z</time></trkpt><trkpt lat="44.4560880399327" lon="8.368623431240852"><ele>405.33333333333337</ele><time>2026-04-27T09:47:35.999Z</time></trkpt><trkpt lat="44.45608718667941" lon="8.368884868743525"><ele>405.0</ele><time>2026-04-27T09:47:36.999Z</time></trkpt><trkpt lat="44.45608843048073" lon="8.369149378717518"><ele>405.0</ele><time>2026-04-27T09:47:37.999Z</time></trkpt><trkpt lat="44.45608754439054" lon="8.369423241108553"><ele>405.0</ele><time>2026-04-27T09:47:38.999Z</time></trkpt><trkpt lat="44.45608712837464" lon="8.369709691226843"><ele>405.0</ele><time>2026-04-27T09:47:39.999Z</time></trkpt><trkpt lat="44.456087667913906" lon="8.36999543169235"><ele>405.66666666666663</ele><time>2026-04-27T09:47:40.999Z</time></trkpt><trkpt lat="44.45608685580855" lon="8.370284132819442"><ele>406.3333333333333</ele><time>2026-04-27T09:47:41.999Z</time></trkpt><trkpt lat="44.45608304724565" lon="8.3705736035901"><ele>407.0</ele><time>2026-04-27T09:47:42.999Z</time></trkpt><trkpt lat="44.456079884822685" lon="8.370864075770346"><ele>407.66666666666663</ele><time>2026-04-27T09:47:43.999Z</time></trkpt><trkpt lat="44.45607729583372" lon="8.371157653725064"><ele>408.33333333333337</ele><time>2026-04-27T09:47:44.999Z</time></trkpt><trkpt lat="44.45607903912318" lon="8.371440059906442"><ele>409.0</ele><time>2026-04-27T09:47:45.999Z</time></trkpt><trkpt lat="44.456081867706104" lon="8.37171189326087"><ele>409.0</ele><time>2026-04-27T09:47:46.999Z</time></trkpt><trkpt lat="44.45609658461893" lon="8.371974796552257"><ele>409.0</ele><time>2026-04-27T09:47:47.999Z</time></trkpt><trkpt lat="44.45613090890192" lon="8.37223696956874"><ele>409.0</ele><time>2026-04-27T09:47:48.999Z</time></trkpt><trkpt lat="44.456192474142135" lon="8.37249319036704"><ele>409.0</ele><time>2026-04-27T09:47:49.999Z</time></trkpt><trkpt lat="44.45627895735533" lon="8.372740900980837"><ele>409.0</ele><time>2026-04-27T09:47:51Z</time></trkpt><trkpt lat="44.45638429291376" lon="8.372984329255717"><ele>409.0</ele><time>2026-04-27T09:47:52Z</time></trkpt><trkpt lat="44.45648829635306" lon="8.373239946807042"><ele>410.6666666666667</ele><time>2026-04-27T09:47:53Z</time></trkpt><trkpt lat="44.456593057623444" lon="8.37350379595646"><ele>412.33333333333337</ele><time>2026-04-27T09:47:54Z</time></trkpt><trkpt lat="44.45669493044556" lon="8.373776254329096"><ele>414.0</ele><time>2026-04-27T09:47:55Z</time></trkpt><trkpt lat="44.45678555947829" lon="8.374054608311988"><ele>414.0</ele><time>2026-04-27T09:47:56Z</time></trkpt><trkpt lat="44.456858741358886" lon="8.374347880873644"><ele>414.0</ele><time>2026-04-27T09:47:57Z</time></trkpt><trkpt lat="44.456911769307446" lon="8.374644004879505"><ele>414.0</ele><time>2026-04-27T09:47:58Z</time></trkpt><trkpt lat="44.456965770740716" lon="8.374921224739861"><ele>414.33333333333337</ele><time>2026-04-27T09:47:59Z</time></trkpt><trkpt lat="44.45706068076216" lon="8.375185559736334"><ele>414.6666666666667</ele><time>2026-04-27T09:48:00Z</time></trkpt><trkpt lat="44.45720194043111" lon="8.375438844994893"><ele>415.0</ele><time>2026-04-27T09:48:01Z</time></trkpt><trkpt lat="44.45735394232402" lon="8.375679811278136"><ele>415.0</ele><time>2026-04-27T09:48:02Z</time></trkpt><trkpt lat="44.4575074848406" lon="8.375915453850117"><ele>415.0</ele><time>2026-04-27T09:48:03Z</time></trkpt><trkpt lat="44.45767197347679" lon="8.376131998280698"><ele>415.0</ele><time>2026-04-27T09:48:04Z</time></trkpt><trkpt lat="44.4578570585651" lon="8.376343680099685"><ele>415.0</ele><time>2026-04-27T09:48:05Z</time></trkpt><trkpt lat="44.45804403674242" lon="8.376550916339289"><ele>418.5</ele><time>2026-04-27T09:48:06Z</time></trkpt><trkpt lat="44.458235218814764" lon="8.37676424689791"><ele>422.0</ele><time>2026-04-27T09:48:07Z</time></trkpt><trkpt lat="44.458429338986136" lon="8.376983380744147"><ele>419.0</ele><time>2026-04-27T09:48:08Z</time></trkpt><trkpt lat="44.45862901360679" lon="8.37720927020835"><ele>416.0</ele><time>2026-04-27T09:48:09Z</time></trkpt><trkpt lat="44.45884602479323" lon="8.377455915912826"><ele>424.0</ele><time>2026-04-27T09:48:10Z</time></trkpt><trkpt lat="44.45907539297264" lon="8.37770632857957"><ele>432.0</ele><time>2026-04-27T09:48:11Z</time></trkpt><trkpt lat="44.459296094967144" lon="8.377947890146542"><ele>436.0</ele><time>2026-04-27T09:48:12Z</time></trkpt><trkpt lat="44.459480958847585" lon="8.378176709176104"><ele>440.0</ele><time>2026-04-27T09:48:13Z</time></trkpt><trkpt lat="44.45966529540303" lon="8.378405423949712"><ele>440.0</ele><time>2026-04-27T09:48:14Z</time></trkpt><trkpt lat="44.45984807084589" lon="8.378624294351575"><ele>440.0</ele><time>2026-04-27T09:48:15Z</time></trkpt><trkpt lat="44.46001281506449" lon="8.378875994836905"><ele>432.5</ele><time>2026-04-27T09:48:16Z</time></trkpt><trkpt lat="44.460177100576374" lon="8.379136063487447"><ele>425.0</ele><time>2026-04-27T09:48:17Z</time></trkpt><trkpt lat="44.46032450578171" lon="8.379393112996986"><ele>428.66666666666663</ele><time>2026-04-27T09:48:18Z</time></trkpt><trkpt lat="44.4604506202086" lon="8.379629394987015"><ele>432.33333333333337</ele><time>2026-04-27T09:48:19Z</time></trkpt><trkpt lat="44.460567910459126" lon="8.379864096924319"><ele>436.0</ele><time>2026-04-27T09:48:20Z</time></trkpt><trkpt lat="44.46068618158895" lon="8.380099377925388"><ele>436.0</ele><time>2026-04-27T09:48:21Z</time></trkpt><trkpt lat="44.46075159535345" lon="8.380371526430595"><ele>436.0</ele><time>2026-04-27T09:48:22Z</time></trkpt><trkpt lat="44.46081419782569" lon="8.38065455297052"><ele>436.0</ele><time>2026-04-27T09:48:23Z</time></trkpt><trkpt lat="44.46086005060494" lon="8.38094358248077"><ele>433.33333333333337</ele><time>2026-04-27T09:48:24Z</time></trkpt><trkpt lat="44.46090318905971" lon="8.381233222615686"><ele>430.66666666666663</ele><time>2026-04-27T09:48:25Z</time></trkpt><trkpt lat="44.46093778584602" lon="8.38152293054943"><ele>428.0</ele><time>2026-04-27T09:48:26Z</time></trkpt><trkpt lat="44.460960752192626" lon="8.381811827732733"><ele>427.66666666666663</ele><time>2026-04-27T09:48:27Z</time></trkpt><trkpt lat="44.46096302594591" lon="8.38210278071149"><ele>427.33333333333337</ele><time>2026-04-27T09:48:28Z</time></trkpt><trkpt lat="44.46093662777088" lon="8.382387264970157"><ele>427.0</ele><time>2026-04-27T09:48:29Z</time></trkpt><trkpt lat="44.460887469786904" lon="8.382664892172134"><ele>427.0</ele><time>2026-04-27T09:48:30Z</time></trkpt><trkpt lat="44.46082999611867" lon="8.382941166960526"><ele>427.0</ele><time>2026-04-27T09:48:31Z</time></trkpt><trkpt lat="44.46072496404805" lon="8.383222230675663"><ele>427.0</ele><time>2026-04-27T09:48:32Z</time></trkpt><trkpt lat="44.460605626880394" lon="8.383510582999255"><ele>428.5</ele><time>2026-04-27T09:48:33Z</time></trkpt><trkpt lat="44.460479905397015" lon="8.383803637283556"><ele>430.0</ele><time>2026-04-27T09:48:34Z</time></trkpt><trkpt lat="44.460353205704244" lon="8.384098357163188"><ele>430.0</ele><time>2026-04-27T09:48:35Z</time></trkpt><trkpt lat="44.460228711044564" lon="8.384400659982127"><ele>430.0</ele><time>2026-04-27T09:48:36Z</time></trkpt><trkpt lat="44.460102075391816" lon="8.384701022515369"><ele>433.0</ele><time>2026-04-27T09:48:37Z</time></trkpt><trkpt lat="44.45998386479759" lon="8.384985012966853"><ele>436.0</ele><time>2026-04-27T09:48:38Z</time></trkpt><trkpt lat="44.45987368692571" lon="8.385253429543619"><ele>439.33333333333337</ele><time>2026-04-27T09:48:39Z</time></trkpt><trkpt lat="44.45978099305315" lon="8.385534460899008"><ele>442.66666666666663</ele><time>2026-04-27T09:48:40Z</time></trkpt><trkpt lat="44.459714773014895" lon="8.385837530876179"><ele>446.0</ele><time>2026-04-27T09:48:41Z</time></trkpt><trkpt lat="44.459672999023475" lon="8.386156181457224"><ele>450.0</ele><time>2026-04-27T09:48:42Z</time></trkpt><trkpt lat="44.45964341376286" lon="8.386481106299827"><ele>454.0</ele><time>2026-04-27T09:48:43Z</time></trkpt><trkpt lat="44.45961940030942" lon="8.386788664038741"><ele>448.6666666666667</ele><time>2026-04-27T09:48:44Z</time></trkpt><trkpt lat="44.459571541873984" lon="8.38704948932614"><ele>443.33333333333337</ele><time>2026-04-27T09:48:45Z</time></trkpt><trkpt lat="44.459492378307516" lon="8.387282244890223"><ele>438.0</ele><time>2026-04-27T09:48:46Z</time></trkpt><trkpt lat="44.45936691933643" lon="8.3874854553672"><ele>438.0</ele><time>2026-04-27T09:48:47Z</time></trkpt><trkpt lat="44.45921032485495" lon="8.38763854970349"><ele>438.0</ele><time>2026-04-27T09:48:47.999Z</time></trkpt><trkpt lat="44.45903872745108" lon="8.387775393329601"><ele>438.0</ele><time>2026-04-27T09:48:48.999Z</time></trkpt><trkpt lat="44.45885506427333" lon="8.387865956396896"><ele>439.0</ele><time>2026-04-27T09:48:49.999Z</time></trkpt><trkpt lat="44.45866182967206" lon="8.38791689453685"><ele>440.0</ele><time>2026-04-27T09:48:50.999Z</time></trkpt><trkpt lat="44.45845689227308" lon="8.387929024449384"><ele>441.0</ele><time>2026-04-27T09:48:51.999Z</time></trkpt><trkpt lat="44.45825138659589" lon="8.387935914074353"><ele>441.0</ele><time>2026-04-27T09:48:52.999Z</time></trkpt><trkpt lat="44.458057615619936" lon="8.387971646253838"><ele>441.0</ele><time>2026-04-27T09:48:53.999Z</time></trkpt><trkpt lat="44.45786639529844" lon="8.38806735288439"><ele>441.0</ele><time>2026-04-27T09:48:54.999Z</time></trkpt><trkpt lat="44.45769421317575" lon="8.388214996394359"><ele>441.33333333333337</ele><time>2026-04-27T09:48:55.999Z</time></trkpt><trkpt lat="44.45754470403918" lon="8.388414695641153"><ele>441.6666666666667</ele><time>2026-04-27T09:48:56.999Z</time></trkpt><trkpt lat="44.457427909849066" lon="8.388656548170468"><ele>442.0</ele><time>2026-04-27T09:48:57.999Z</time></trkpt><trkpt lat="44.457342532867635" lon="8.388923030852322"><ele>443.6666666666667</ele><time>2026-04-27T09:48:58.999Z</time></trkpt><trkpt lat="44.457264256777805" lon="8.38919989189905"><ele>445.33333333333337</ele><time>2026-04-27T09:48:59.999Z</time></trkpt><trkpt lat="44.45718137231477" lon="8.389474084813795"><ele>447.0</ele><time>2026-04-27T09:49:00.999Z</time></trkpt><trkpt lat="44.4570840255879" lon="8.389740802642683"><ele>447.0</ele><time>2026-04-27T09:49:01.999Z</time></trkpt><trkpt lat="44.45694469749156" lon="8.389983850476991"><ele>447.0</ele><time>2026-04-27T09:49:02.999Z</time></trkpt><trkpt lat="44.456773813456905" lon="8.390184980222104"><ele>447.0</ele><time>2026-04-27T09:49:03.999Z</time></trkpt><trkpt lat="44.456573520198454" lon="8.390347706669283"><ele>447.5</ele><time>2026-04-27T09:49:04.999Z</time></trkpt><trkpt lat="44.45635531551994" lon="8.390510306350526"><ele>448.0</ele><time>2026-04-27T09:49:05.999Z</time></trkpt><trkpt lat="44.456139806400344" lon="8.390686676914253"><ele>448.0</ele><time>2026-04-27T09:49:06.999Z</time></trkpt><trkpt lat="44.45591592276621" lon="8.390838770045745"><ele>448.0</ele><time>2026-04-27T09:49:07.999Z</time></trkpt><trkpt lat="44.455682647763645" lon="8.390956400946479"><ele>448.5</ele><time>2026-04-27T09:49:08.999Z</time></trkpt><trkpt lat="44.45543651866955" lon="8.391011773207671"><ele>449.0</ele><time>2026-04-27T09:49:09.999Z</time></trkpt><trkpt lat="44.4551712143303" lon="8.391085538234814"><ele>449.0</ele><time>2026-04-27T09:49:10.999Z</time></trkpt><trkpt lat="44.45491811354641" lon="8.391164237168752"><ele>449.0</ele><time>2026-04-27T09:49:11.999Z</time></trkpt><trkpt lat="44.454688078335515" lon="8.391229643948163"><ele>448.3333333333333</ele><time>2026-04-27T09:49:12.999Z</time></trkpt><trkpt lat="44.454471856278666" lon="8.391295194707242"><ele>447.66666666666663</ele><time>2026-04-27T09:49:13.999Z</time></trkpt><trkpt lat="44.45426909501453" lon="8.391360784769779"><ele>447.0</ele><time>2026-04-27T09:49:14.999Z</time></trkpt><trkpt lat="44.45408203334113" lon="8.391444325207502"><ele>447.0</ele><time>2026-04-27T09:49:15.999Z</time></trkpt><trkpt lat="44.45391840063672" lon="8.391570072465155"><ele>447.0</ele><time>2026-04-27T09:49:16.999Z</time></trkpt><trkpt lat="44.45376930188865" lon="8.391720678150842"><ele>447.0</ele><time>2026-04-27T09:49:17.999Z</time></trkpt><trkpt lat="44.45362363142187" lon="8.391887276135215"><ele>448.33333333333337</ele><time>2026-04-27T09:49:18.999Z</time></trkpt><trkpt lat="44.4534730706218" lon="8.392063313490992"><ele>449.6666666666667</ele><time>2026-04-27T09:49:19.999Z</time></trkpt><trkpt lat="44.4533197658732" lon="8.392244679978363"><ele>451.0</ele><time>2026-04-27T09:49:20.999Z</time></trkpt><trkpt lat="44.45315628719956" lon="8.392431023542308"><ele>451.0</ele><time>2026-04-27T09:49:21.999Z</time></trkpt><trkpt lat="44.452973835431" lon="8.39259149943351"><ele>451.0</ele><time>2026-04-27T09:49:22.999Z</time></trkpt><trkpt lat="44.45277194330547" lon="8.392688043389308"><ele>451.0</ele><time>2026-04-27T09:49:23.999Z</time></trkpt><trkpt lat="44.45258165788292" lon="8.392750004778437"><ele>450.6666666666667</ele><time>2026-04-27T09:49:24.999Z</time></trkpt><trkpt lat="44.452405485831946" lon="8.392821282622869"><ele>450.33333333333337</ele><time>2026-04-27T09:49:25.999Z</time></trkpt><trkpt lat="44.452244287276706" lon="8.392892648131058"><ele>450.0</ele><time>2026-04-27T09:49:26.999Z</time></trkpt><trkpt lat="44.45211080736619" lon="8.392966642039406"><ele>450.0</ele><time>2026-04-27T09:49:27.999Z</time></trkpt><trkpt lat="44.45197387986272" lon="8.393070759569232"><ele>450.0</ele><time>2026-04-27T09:49:28.999Z</time></trkpt><trkpt lat="44.45183319744007" lon="8.393200558774994"><ele>450.0</ele><time>2026-04-27T09:49:29.999Z</time></trkpt><trkpt lat="44.45172363366844" lon="8.393326801581766"><ele>450.0</ele><time>2026-04-27T09:49:30.999Z</time></trkpt><trkpt lat="44.451611063819755" lon="8.393442320704187"><ele>450.0</ele><time>2026-04-27T09:49:31.999Z</time></trkpt><trkpt lat="44.4515126798091" lon="8.39353312257265"><ele>450.0</ele><time>2026-04-27T09:49:32.999Z</time></trkpt><trkpt lat="44.45140685463882" lon="8.393556376032056"><ele>450.0</ele><time>2026-04-27T09:49:33.999Z</time></trkpt><trkpt lat="44.45129018190538" lon="8.393503838236994"><ele>450.25</ele><time>2026-04-27T09:49:34.999Z</time></trkpt><trkpt lat="44.45117412314641" lon="8.393402366452982"><ele>450.5</ele><time>2026-04-27T09:49:35.999Z</time></trkpt><trkpt lat="44.45105888170937" lon="8.393318814762717"><ele>450.75</ele><time>2026-04-27T09:49:36.999Z</time></trkpt><trkpt lat="44.450928444984854" lon="8.393299234965273"><ele>451.0</ele><time>2026-04-27T09:49:37.999Z</time></trkpt><trkpt lat="44.45080270486773" lon="8.393320821548098"><ele>451.0</ele><time>2026-04-27T09:49:38.999Z</time></trkpt><trkpt lat="44.45067767444311" lon="8.393354080690951"><ele>451.0</ele><time>2026-04-27T09:49:39.999Z</time></trkpt><trkpt lat="44.45055583304247" lon="8.393377358968442"><ele>451.0</ele><time>2026-04-27T09:49:40.999Z</time></trkpt><trkpt lat="44.45042820165583" lon="8.393385269419829"><ele>451.0</ele><time>2026-04-27T09:49:41.999Z</time></trkpt><trkpt lat="44.450287479136925" lon="8.393394048618116"><ele>451.25</ele><time>2026-04-27T09:49:42.999Z</time></trkpt><trkpt lat="44.45014836276911" lon="8.393411466569653"><ele>451.5</ele><time>2026-04-27T09:49:43.999Z</time></trkpt><trkpt lat="44.45000953655628" lon="8.393424723490307"><ele>451.75</ele><time>2026-04-27T09:49:44.999Z</time></trkpt><trkpt lat="44.44987607472244" lon="8.3934276983852"><ele>452.0</ele><time>2026-04-27T09:49:45.999Z</time></trkpt><trkpt lat="44.449756641976784" lon="8.393429792009412"><ele>452.0</ele><time>2026-04-27T09:49:46.999Z</time></trkpt><trkpt lat="44.44965116921955" lon="8.39346354251081"><ele>452.00000000000006</ele><time>2026-04-27T09:49:47.999Z</time></trkpt><trkpt lat="44.44954881406185" lon="8.393532965177691"><ele>452.00000000000006</ele><time>2026-04-27T09:49:48.999Z</time></trkpt><trkpt lat="44.449450369906906" lon="8.393616837369235"><ele>452.0</ele><time>2026-04-27T09:49:49.999Z</time></trkpt><trkpt lat="44.44935594933693" lon="8.393672002527264"><ele>452.0</ele><time>2026-04-27T09:49:50.999Z</time></trkpt><trkpt lat="44.449258748416575" lon="8.393735810442147"><ele>452.5</ele><time>2026-04-27T09:49:51.999Z</time></trkpt><trkpt lat="44.449163552511315" lon="8.393800687381841"><ele>453.0</ele><time>2026-04-27T09:49:52.999Z</time></trkpt><trkpt lat="44.449049168925015" lon="8.393873289318774"><ele>453.5</ele><time>2026-04-27T09:49:53.999Z</time></trkpt><trkpt lat="44.44894388699142" lon="8.39394960635479"><ele>454.0</ele><time>2026-04-27T09:49:54.999Z</time></trkpt><trkpt lat="44.44884204239578" lon="8.394013978898009"><ele>454.0</ele><time>2026-04-27T09:49:55.999Z</time></trkpt><trkpt lat="44.44875029833904" lon="8.394065264100842"><ele>454.0</ele><time>2026-04-27T09:49:57Z</time></trkpt><trkpt lat="44.448659825071914" lon="8.39412540938307"><ele>454.0</ele><time>2026-04-27T09:49:58Z</time></trkpt><trkpt lat="44.448574737620454" lon="8.394185765892194"><ele>454.0</ele><time>2026-04-27T09:49:59Z</time></trkpt><trkpt lat="44.448491589561705" lon="8.394246689145573"><ele>454.0</ele><time>2026-04-27T09:50:00Z</time></trkpt><trkpt lat="44.448410348571635" lon="8.394291714003437"><ele>454.0</ele><time>2026-04-27T09:50:01Z</time></trkpt><trkpt lat="44.44831534547452" lon="8.394345187068435"><ele>454.0</ele><time>2026-04-27T09:50:02Z</time></trkpt><trkpt lat="44.44820255480294" lon="8.39438945432657"><ele>454.0</ele><time>2026-04-27T09:50:03Z</time></trkpt><trkpt lat="44.448071141912365" lon="8.394424097179627"><ele>454.0</ele><time>2026-04-27T09:50:04Z</time></trkpt><trkpt lat="44.44792406437724" lon="8.394471029192"><ele>454.75</ele><time>2026-04-27T09:50:05Z</time></trkpt><trkpt lat="44.44778352525257" lon="8.39451785617319"><ele>455.5</ele><time>2026-04-27T09:50:06Z</time></trkpt><trkpt lat="44.44764827553655" lon="8.39456511209035"><ele>456.25</ele><time>2026-04-27T09:50:07Z</time></trkpt><trkpt lat="44.447527620735286" lon="8.394600001216668"><ele>457.0</ele><time>2026-04-27T09:50:08Z</time></trkpt><trkpt lat="44.447567649242224" lon="8.394510295066961"><ele>457.0</ele><time>2026-04-27T09:50:09Z</time></trkpt><trkpt lat="44.44746177094246" lon="8.394595574731753"><ele>457.00000000000006</ele><time>2026-04-27T09:50:10Z</time></trkpt><trkpt lat="44.44739033216956" lon="8.394721345274355"><ele>457.00000000000006</ele><time>2026-04-27T09:50:11Z</time></trkpt><trkpt lat="44.44736606951691" lon="8.394860854877978"><ele>457.0</ele><time>2026-04-27T09:50:12Z</time></trkpt><trkpt lat="44.44739109578948" lon="8.3950109756281"><ele>457.0</ele><time>2026-04-27T09:50:13Z</time></trkpt><trkpt lat="44.44744703450015" lon="8.39516747604269"><ele>457.25</ele><time>2026-04-27T09:50:14Z</time></trkpt><trkpt lat="44.447499413884955" lon="8.395332729711802"><ele>457.5</ele><time>2026-04-27T09:50:15Z</time></trkpt><trkpt lat="44.44754340100846" lon="8.395499356100213"><ele>457.75</ele><time>2026-04-27T09:50:16Z</time></trkpt><trkpt lat="44.44757562142658" lon="8.395662479802127"><ele>458.0</ele><time>2026-04-27T09:50:17Z</time></trkpt><trkpt lat="44.447601185677065" lon="8.395834862928226"><ele>458.75</ele><time>2026-04-27T09:50:18Z</time></trkpt><trkpt lat="44.44762394002125" lon="8.396022805246801"><ele>459.5</ele><time>2026-04-27T09:50:19Z</time></trkpt><trkpt lat="44.44763562840261" lon="8.396219979612923"><ele>460.25</ele><time>2026-04-27T09:50:20Z</time></trkpt><trkpt lat="44.447633356241994" lon="8.396427228752605"><ele>461.0</ele><time>2026-04-27T09:50:21Z</time></trkpt><trkpt lat="44.44760122818203" lon="8.396631251263363"><ele>461.6</ele><time>2026-04-27T09:50:22Z</time></trkpt><trkpt lat="44.4475682756367" lon="8.396802798039596"><ele>462.20000000000005</ele><time>2026-04-27T09:50:23Z</time></trkpt><trkpt lat="44.44752490879875" lon="8.396922447245418"><ele>462.79999999999995</ele><time>2026-04-27T09:50:24Z</time></trkpt><trkpt lat="44.447488274989425" lon="8.397040887639385"><ele>463.4</ele><time>2026-04-27T09:50:25Z</time></trkpt><trkpt lat="44.44747154771536" lon="8.397153098417744"><ele>464.0</ele><time>2026-04-27T09:50:26Z</time></trkpt><trkpt lat="44.44744352629404" lon="8.397275939686864"><ele>464.0</ele><time>2026-04-27T09:50:27Z</time></trkpt><trkpt lat="44.4474438045149" lon="8.39742495864854"><ele>464.0</ele><time>2026-04-27T09:50:28Z</time></trkpt><trkpt lat="44.44747160389388" lon="8.397581473313316"><ele>464.0</ele><time>2026-04-27T09:50:29Z</time></trkpt><trkpt lat="44.44751336701768" lon="8.39775062801531"><ele>464.0</ele><time>2026-04-27T09:50:30Z</time></trkpt><trkpt lat="44.44751473929056" lon="8.397932550764391"><ele>464.75</ele><time>2026-04-27T09:50:31Z</time></trkpt><trkpt lat="44.447481433543295" lon="8.39810234730165"><ele>465.5</ele><time>2026-04-27T09:50:32Z</time></trkpt><trkpt lat="44.44744522988225" lon="8.398287049317693"><ele>466.25</ele><time>2026-04-27T09:50:33Z</time></trkpt><trkpt lat="44.447400632459015" lon="8.398468133714614"><ele>467.0</ele><time>2026-04-27T09:50:34Z</time></trkpt><trkpt lat="44.447365297659765" lon="8.39861995845345"><ele>467.0</ele><time>2026-04-27T09:50:35Z</time></trkpt><trkpt lat="44.447333322949355" lon="8.398756828376742"><ele>467.00000000000006</ele><time>2026-04-27T09:50:36Z</time></trkpt><trkpt lat="44.4473069792207" lon="8.398893171742577"><ele>467.00000000000006</ele><time>2026-04-27T09:50:37Z</time></trkpt><trkpt lat="44.447278652651434" lon="8.399050863368313"><ele>467.0</ele><time>2026-04-27T09:50:38Z</time></trkpt><trkpt lat="44.447254933047866" lon="8.399194902636825"><ele>467.0</ele><time>2026-04-27T09:50:39Z</time></trkpt><trkpt lat="44.447234023881585" lon="8.399337329058426"><ele>467.40000000000003</ele><time>2026-04-27T09:50:40Z</time></trkpt><trkpt lat="44.44721079336774" lon="8.399471778714629"><ele>467.80000000000007</ele><time>2026-04-27T09:50:41Z</time></trkpt><trkpt lat="44.44718705354079" lon="8.399602813135775"><ele>468.2</ele><time>2026-04-27T09:50:42Z</time></trkpt><trkpt lat="44.447155029799085" lon="8.399732363586338"><ele>468.6</ele><time>2026-04-27T09:50:43Z</time></trkpt><trkpt lat="44.44711393704961" lon="8.399847211342642"><ele>469.0</ele><time>2026-04-27T09:50:44Z</time></trkpt><trkpt lat="44.44705401463993" lon="8.399930178595111"><ele>469.83333333333337</ele><time>2026-04-27T09:50:45Z</time></trkpt><trkpt lat="44.44702279350346" lon="8.40001532528303"><ele>470.6666666666667</ele><time>2026-04-27T09:50:46Z</time></trkpt><trkpt lat="44.44698615605012" lon="8.40009892464073"><ele>471.5</ele><time>2026-04-27T09:50:47Z</time></trkpt><trkpt lat="44.446968407355236" lon="8.400202889489632"><ele>472.33333333333337</ele><time>2026-04-27T09:50:48Z</time></trkpt><trkpt lat="44.44696524760677" lon="8.400321103050254"><ele>473.1666666666667</ele><time>2026-04-27T09:50:49Z</time></trkpt><trkpt lat="44.4469663839612" lon="8.400445424406254"><ele>474.0</ele><time>2026-04-27T09:50:50Z</time></trkpt><trkpt lat="44.44694985270477" lon="8.400583792584378"><ele>474.0</ele><time>2026-04-27T09:50:51Z</time></trkpt><trkpt lat="44.44694710366001" lon="8.400719927699432"><ele>474.0</ele><time>2026-04-27T09:50:51.999Z</time></trkpt><trkpt lat="44.44694052681527" lon="8.400866474681747"><ele>474.0</ele><time>2026-04-27T09:50:52.999Z</time></trkpt><trkpt lat="44.446951201455164" lon="8.401011481748846"><ele>474.0</ele><time>2026-04-27T09:50:53.999Z</time></trkpt><trkpt lat="44.446940228487684" lon="8.401141533910023"><ele>474.0</ele><time>2026-04-27T09:50:54.999Z</time></trkpt><trkpt lat="44.446936444770834" lon="8.4012548200129"><ele>474.3333333333333</ele><time>2026-04-27T09:50:55.999Z</time></trkpt><trkpt lat="44.4469409980215" lon="8.401360985792321"><ele>474.66666666666663</ele><time>2026-04-27T09:50:56.999Z</time></trkpt><trkpt lat="44.446951004729314" lon="8.40147599765905"><ele>475.0</ele><time>2026-04-27T09:50:57.999Z</time></trkpt><trkpt lat="44.446970653565366" lon="8.401603364703405"><ele>475.3333333333333</ele><time>2026-04-27T09:50:58.999Z</time></trkpt><trkpt lat="44.44700866998112" lon="8.401716343937865"><ele>475.66666666666663</ele><time>2026-04-27T09:50:59.999Z</time></trkpt><trkpt lat="44.447035952001215" lon="8.401843316393945"><ele>476.0</ele><time>2026-04-27T09:51:00.999Z</time></trkpt><trkpt lat="44.4470769112254" lon="8.40197160496339"><ele>476.0</ele><time>2026-04-27T09:51:01.999Z</time></trkpt><trkpt lat="44.44711402783624" lon="8.402098285397733"><ele>476.0</ele><time>2026-04-27T09:51:02.999Z</time></trkpt><trkpt lat="44.447150182708434" lon="8.40222202895985"><ele>476.0</ele><time>2026-04-27T09:51:03.999Z</time></trkpt><trkpt lat="44.44718568546793" lon="8.402343228027489"><ele>476.0</ele><time>2026-04-27T09:51:04.999Z</time></trkpt><trkpt lat="44.44722082249248" lon="8.402463178552992"><ele>476.0</ele><time>2026-04-27T09:51:05.999Z</time></trkpt><trkpt lat="44.447267419482614" lon="8.40257764994688"><ele>477.5</ele><time>2026-04-27T09:51:06.999Z</time></trkpt><trkpt lat="44.4472904511521" lon="8.402714633775863"><ele>479.0</ele><time>2026-04-27T09:51:07.999Z</time></trkpt><trkpt lat="44.44729106434327" lon="8.402872800612958"><ele>480.5</ele><time>2026-04-27T09:51:08.999Z</time></trkpt><trkpt lat="44.447309164124064" lon="8.40304176056427"><ele>482.0</ele><time>2026-04-27T09:51:09.999Z</time></trkpt><trkpt lat="44.447339371135" lon="8.403229300445568"><ele>482.0</ele><time>2026-04-27T09:51:10.999Z</time></trkpt><trkpt lat="44.447355395429774" lon="8.403433639133505"><ele>482.0</ele><time>2026-04-27T09:51:11.999Z</time></trkpt><trkpt lat="44.44736899421657" lon="8.403651531649631"><ele>482.0</ele><time>2026-04-27T09:51:12.999Z</time></trkpt><trkpt lat="44.447374253003325" lon="8.403893279222402"><ele>483.66666666666663</ele><time>2026-04-27T09:51:13.999Z</time></trkpt><trkpt lat="44.44736441407362" lon="8.404158525484723"><ele>485.33333333333337</ele><time>2026-04-27T09:51:14.999Z</time></trkpt><trkpt lat="44.44734929527558" lon="8.40443492586137"><ele>487.0</ele><time>2026-04-27T09:51:15.999Z</time></trkpt><trkpt lat="44.44736068125417" lon="8.404708062203058"><ele>489.0</ele><time>2026-04-27T09:51:16.999Z</time></trkpt><trkpt lat="44.44738318591395" lon="8.404997407675076"><ele>491.0</ele><time>2026-04-27T09:51:17.999Z</time></trkpt><trkpt lat="44.447418916270635" lon="8.40529266765408"><ele>493.0</ele><time>2026-04-27T09:51:18.999Z</time></trkpt><trkpt lat="44.44744773023486" lon="8.405600108512369"><ele>497.0</ele><time>2026-04-27T09:51:19.999Z</time></trkpt><trkpt lat="44.44747581201728" lon="8.405915074290107"><ele>501.0</ele><time>2026-04-27T09:51:20.999Z</time></trkpt><trkpt lat="44.447506663333556" lon="8.406233141409151"><ele>504.0</ele><time>2026-04-27T09:51:21.999Z</time></trkpt><trkpt lat="44.44753524539493" lon="8.406559853105112"><ele>507.0</ele><time>2026-04-27T09:51:22.999Z</time></trkpt><trkpt lat="44.44755656259959" lon="8.406898555515673"><ele>510.0</ele><time>2026-04-27T09:51:23.999Z</time></trkpt><trkpt lat="44.44757115891234" lon="8.407237511160984"><ele>513.0</ele><time>2026-04-27T09:51:24.999Z</time></trkpt><trkpt lat="44.447588151716225" lon="8.407567461115093"><ele>513.0</ele><time>2026-04-27T09:51:25.999Z</time></trkpt><trkpt lat="44.44759090876429" lon="8.407896153871647"><ele>513.0</ele><time>2026-04-27T09:51:26.999Z</time></trkpt><trkpt lat="44.44758358121457" lon="8.408174048746156"><ele>513.0</ele><time>2026-04-27T09:51:27.999Z</time></trkpt><trkpt lat="44.447549982022686" lon="8.408421619589534"><ele>514.25</ele><time>2026-04-27T09:51:28.999Z</time></trkpt><trkpt lat="44.44752071205148" lon="8.408618784305244"><ele>515.5</ele><time>2026-04-27T09:51:29.999Z</time></trkpt><trkpt lat="44.44751152684598" lon="8.408771708771567"><ele>516.75</ele><time>2026-04-27T09:51:30.999Z</time></trkpt><trkpt lat="44.44754957457273" lon="8.40891564252062"><ele>518.0</ele><time>2026-04-27T09:51:31.999Z</time></trkpt><trkpt lat="44.447653206250514" lon="8.40905148071744"><ele>518.8</ele><time>2026-04-27T09:51:32.999Z</time></trkpt><trkpt lat="44.44772013828042" lon="8.409219867888101"><ele>519.5999999999999</ele><time>2026-04-27T09:51:33.999Z</time></trkpt><trkpt lat="44.44771269546057" lon="8.409399516765706"><ele>520.4000000000001</ele><time>2026-04-27T09:51:34.999Z</time></trkpt><trkpt lat="44.44767352899394" lon="8.4095452556908"><ele>521.2</ele><time>2026-04-27T09:51:35.999Z</time></trkpt><trkpt lat="44.447623807728455" lon="8.409603436246263"><ele>522.0</ele><time>2026-04-27T09:51:36.999Z</time></trkpt><trkpt lat="44.44754033086276" lon="8.409557170824012"><ele>522.0</ele><time>2026-04-27T09:51:37.999Z</time></trkpt><trkpt lat="44.447466822457486" lon="8.40943873418967"><ele>522.0</ele><time>2026-04-27T09:51:38.999Z</time></trkpt><trkpt lat="44.44745380506661" lon="8.409258301584384"><ele>522.0</ele><time>2026-04-27T09:51:39.999Z</time></trkpt><trkpt lat="44.447425013718814" lon="8.409070180305184"><ele>522.0</ele><time>2026-04-27T09:51:40.999Z</time></trkpt><trkpt lat="44.44739188618836" lon="8.40894022134548"><ele>522.0</ele><time>2026-04-27T09:51:41.999Z</time></trkpt><trkpt lat="44.447323128451565" lon="8.40890197673491"><ele>522.0</ele><time>2026-04-27T09:51:42.999Z</time></trkpt><trkpt lat="44.44725314526174" lon="8.408947678196936"><ele>522.0</ele><time>2026-04-27T09:51:43.999Z</time></trkpt><trkpt lat="44.44720172869374" lon="8.409031093900303"><ele>522.0</ele><time>2026-04-27T09:51:44.999Z</time></trkpt><trkpt lat="44.447195410602966" lon="8.409211831925358"><ele>522.0</ele><time>2026-04-27T09:51:45.999Z</time></trkpt><trkpt lat="44.447275110541966" lon="8.409433414774112"><ele>522.0</ele><time>2026-04-27T09:51:46.999Z</time></trkpt><trkpt lat="44.44730667842716" lon="8.409655214637851"><ele>522.0</ele><time>2026-04-27T09:51:47.999Z</time></trkpt><trkpt lat="44.44728760051891" lon="8.409872384762904"><ele>522.0</ele><time>2026-04-27T09:51:48.999Z</time></trkpt><trkpt lat="44.44725856342819" lon="8.410149510935941"><ele>524.0</ele><time>2026-04-27T09:51:49.999Z</time></trkpt><trkpt lat="44.44725694088434" lon="8.4104440499543"><ele>526.0</ele><time>2026-04-27T09:51:50.999Z</time></trkpt><trkpt lat="44.44730374061334" lon="8.410745027946222"><ele>528.0</ele><time>2026-04-27T09:51:51.999Z</time></trkpt><trkpt lat="44.447370887496774" lon="8.411054507034622"><ele>532.3333333333334</ele><time>2026-04-27T09:51:52.999Z</time></trkpt><trkpt lat="44.44739689632522" lon="8.411329213369974"><ele>536.6666666666667</ele><time>2026-04-27T09:51:53.999Z</time></trkpt><trkpt lat="44.447415781759474" lon="8.411563639381988"><ele>541.0</ele><time>2026-04-27T09:51:54.999Z</time></trkpt><trkpt lat="44.447465956474936" lon="8.411746146580773"><ele>541.0</ele><time>2026-04-27T09:51:55.999Z</time></trkpt><trkpt lat="44.44754143451727" lon="8.41187677051783"><ele>541.0</ele><time>2026-04-27T09:51:56.999Z</time></trkpt><trkpt lat="44.44765666581604" lon="8.411941876219572"><ele>541.0</ele><time>2026-04-27T09:51:57.999Z</time></trkpt><trkpt lat="44.447788912148965" lon="8.412039703647315"><ele>541.0</ele><time>2026-04-27T09:51:58.999Z</time></trkpt><trkpt lat="44.44788027613248" lon="8.412211464905383"><ele>542.6666666666667</ele><time>2026-04-27T09:51:59.999Z</time></trkpt><trkpt lat="44.448001111973355" lon="8.412431294700351"><ele>544.3333333333334</ele><time>2026-04-27T09:52:00.999Z</time></trkpt><trkpt lat="44.44813088934002" lon="8.412652840977628"><ele>546.0</ele><time>2026-04-27T09:52:01.999Z</time></trkpt><trkpt lat="44.44823530225168" lon="8.412835816765194"><ele>546.0</ele><time>2026-04-27T09:52:03Z</time></trkpt><trkpt lat="44.448306677422785" lon="8.412962919846228"><ele>546.0</ele><time>2026-04-27T09:52:04Z</time></trkpt><trkpt lat="44.44838327243535" lon="8.413099318300619"><ele>546.0</ele><time>2026-04-27T09:52:05Z</time></trkpt><trkpt lat="44.448477170388585" lon="8.413263855727061"><ele>546.0</ele><time>2026-04-27T09:52:06Z</time></trkpt><trkpt lat="44.44858494608647" lon="8.413436597319631"><ele>546.75</ele><time>2026-04-27T09:52:07Z</time></trkpt><trkpt lat="44.44869730305728" lon="8.413581894207296"><ele>547.5</ele><time>2026-04-27T09:52:08Z</time></trkpt><trkpt lat="44.44880597766963" lon="8.41368386851518"><ele>548.25</ele><time>2026-04-27T09:52:09Z</time></trkpt><trkpt lat="44.44888453431818" lon="8.413796482290271"><ele>549.0</ele><time>2026-04-27T09:52:10Z</time></trkpt><trkpt lat="44.448939263225114" lon="8.41397405644714"><ele>551.8</ele><time>2026-04-27T09:52:11Z</time></trkpt><trkpt lat="44.44899364644203" lon="8.41415134024989"><ele>554.5999999999999</ele><time>2026-04-27T09:52:12Z</time></trkpt><trkpt lat="44.449033201249335" lon="8.414294824014098"><ele>557.4</ele><time>2026-04-27T09:52:13Z</time></trkpt><trkpt lat="44.44902675291947" lon="8.414409160703267"><ele>560.1999999999999</ele><time>2026-04-27T09:52:14Z</time></trkpt><trkpt lat="44.4489483350602" lon="8.414519115080529"><ele>563.0</ele><time>2026-04-27T09:52:15Z</time></trkpt><trkpt lat="44.44891103031661" lon="8.41465468467913"><ele>563.0</ele><time>2026-04-27T09:52:16Z</time></trkpt><trkpt lat="44.44888145500138" lon="8.414794099513905"><ele>563.0</ele><time>2026-04-27T09:52:17Z</time></trkpt><trkpt lat="44.44889570828061" lon="8.41495924158236"><ele>563.0</ele><time>2026-04-27T09:52:18Z</time></trkpt><trkpt lat="44.448874870317546" lon="8.41512324330655"><ele>563.0</ele><time>2026-04-27T09:52:19Z</time></trkpt><trkpt lat="44.44878158319507" lon="8.415277998315826"><ele>556.6666666666666</ele><time>2026-04-27T09:52:20Z</time></trkpt><trkpt lat="44.44864892431929" lon="8.415393928979833"><ele>550.3333333333334</ele><time>2026-04-27T09:52:21Z</time></trkpt><trkpt lat="44.4485155445621" lon="8.415535195928278"><ele>544.0</ele><time>2026-04-27T09:52:22Z</time></trkpt><trkpt lat="44.44839336197999" lon="8.415732549760426"><ele>544.0</ele><time>2026-04-27T09:52:23Z</time></trkpt><trkpt lat="44.44827601497014" lon="8.415945051189054"><ele>544.0</ele><time>2026-04-27T09:52:24Z</time></trkpt><trkpt lat="44.44817807787964" lon="8.416135660738814"><ele>544.0</ele><time>2026-04-27T09:52:25Z</time></trkpt><trkpt lat="44.44811107342738" lon="8.416313814512918"><ele>544.5</ele><time>2026-04-27T09:52:26Z</time></trkpt><trkpt lat="44.44808745623227" lon="8.416492366977588"><ele>545.0</ele><time>2026-04-27T09:52:27Z</time></trkpt><trkpt lat="44.448104766643546" lon="8.416680570570245"><ele>545.5</ele><time>2026-04-27T09:52:28Z</time></trkpt><trkpt lat="44.4481711406709" lon="8.416883260484262"><ele>546.0</ele><time>2026-04-27T09:52:29Z</time></trkpt><trkpt lat="44.44828391577768" lon="8.417071520841331"><ele>544.25</ele><time>2026-04-27T09:52:30Z</time></trkpt><trkpt lat="44.44835459511535" lon="8.41725027883845"><ele>542.5</ele><time>2026-04-27T09:52:31Z</time></trkpt><trkpt lat="44.448405064126575" lon="8.417399579844828"><ele>540.75</ele><time>2026-04-27T09:52:32Z</time></trkpt><trkpt lat="44.44839765287604" lon="8.417542254257508"><ele>539.0</ele><time>2026-04-27T09:52:33Z</time></trkpt><trkpt lat="44.448366881467436" lon="8.417696523657765"><ele>539.0</ele><time>2026-04-27T09:52:34Z</time></trkpt><trkpt lat="44.448239017764614" lon="8.417817268082128"><ele>539.0</ele><time>2026-04-27T09:52:35Z</time></trkpt><trkpt lat="44.44808208710554" lon="8.417928941814726"><ele>539.0</ele><time>2026-04-27T09:52:36Z</time></trkpt><trkpt lat="44.447960509906636" lon="8.418047188631316"><ele>535.0</ele><time>2026-04-27T09:52:37Z</time></trkpt><trkpt lat="44.447842005739886" lon="8.418137608838476"><ele>531.0</ele><time>2026-04-27T09:52:38Z</time></trkpt><trkpt lat="44.44774301414228" lon="8.418278441331683"><ele>527.0</ele><time>2026-04-27T09:52:39Z</time></trkpt><trkpt lat="44.44768735972346" lon="8.418457799119246"><ele>523.0</ele><time>2026-04-27T09:52:40Z</time></trkpt><trkpt lat="44.44768642616245" lon="8.418664784658079"><ele>525.0</ele><time>2026-04-27T09:52:41Z</time></trkpt><trkpt lat="44.44765658070224" lon="8.418862294067928"><ele>527.0</ele><time>2026-04-27T09:52:42Z</time></trkpt><trkpt lat="44.44758865617417" lon="8.41898457808859"><ele>529.0</ele><time>2026-04-27T09:52:43Z</time></trkpt><trkpt lat="44.44747093611608" lon="8.419062311521877"><ele>531.0</ele><time>2026-04-27T09:52:44Z</time></trkpt><trkpt lat="44.44730661615922" lon="8.419086621344913"><ele>531.0</ele><time>2026-04-27T09:52:45Z</time></trkpt><trkpt lat="44.44713341735386" lon="8.419122857676388"><ele>531.0</ele><time>2026-04-27T09:52:46Z</time></trkpt><trkpt lat="44.446984621977954" lon="8.419241808407362"><ele>531.0</ele><time>2026-04-27T09:52:47Z</time></trkpt><trkpt lat="44.44681666999092" lon="8.419397038921158"><ele>528.6666666666666</ele><time>2026-04-27T09:52:48Z</time></trkpt><trkpt lat="44.44664760808797" lon="8.4195158830359"><ele>526.3333333333333</ele><time>2026-04-27T09:52:49Z</time></trkpt><trkpt lat="44.44644702135486" lon="8.419637130758415"><ele>524.0</ele><time>2026-04-27T09:52:50Z</time></trkpt><trkpt lat="44.44623513319433" lon="8.419754653108967"><ele>524.0</ele><time>2026-04-27T09:52:51Z</time></trkpt><trkpt lat="44.44605792365938" lon="8.419893179338622"><ele>524.0</ele><time>2026-04-27T09:52:52Z</time></trkpt><trkpt lat="44.44590420252009" lon="8.420013710038168"><ele>524.0</ele><time>2026-04-27T09:52:53Z</time></trkpt><trkpt lat="44.44574887135081" lon="8.420067876681275"><ele>524.0</ele><time>2026-04-27T09:52:54Z</time></trkpt><trkpt lat="44.445588016061315" lon="8.420051153449089"><ele>524.0</ele><time>2026-04-27T09:52:55Z</time></trkpt><trkpt lat="44.44541283408164" lon="8.42006553792894"><ele>524.0</ele><time>2026-04-27T09:52:56Z</time></trkpt><trkpt lat="44.44527175123791" lon="8.420114072585145"><ele>521.0</ele><time>2026-04-27T09:52:57Z</time></trkpt><trkpt lat="44.4451503950488" lon="8.420194410614553"><ele>518.0</ele><time>2026-04-27T09:52:57.999Z</time></trkpt><trkpt lat="44.4450619850318" lon="8.420321091856142"><ele>515.0</ele><time>2026-04-27T09:52:58.999Z</time></trkpt><trkpt lat="44.444972638295624" lon="8.420420066247187"><ele>512.0</ele><time>2026-04-27T09:52:59.999Z</time></trkpt><trkpt lat="44.44486175075399" lon="8.420413275715033"><ele>512.0</ele><time>2026-04-27T09:53:00.999Z</time></trkpt><trkpt lat="44.44477759822896" lon="8.420294644272447"><ele>512.0</ele><time>2026-04-27T09:53:01.999Z</time></trkpt><trkpt lat="44.44464080811364" lon="8.420193770251492"><ele>512.0</ele><time>2026-04-27T09:53:02.999Z</time></trkpt><trkpt lat="44.44448312706481" lon="8.42015043409602"><ele>512.0</ele><time>2026-04-27T09:53:03.999Z</time></trkpt><trkpt lat="44.44431209189745" lon="8.420115162581242"><ele>510.0</ele><time>2026-04-27T09:53:04.999Z</time></trkpt><trkpt lat="44.44415150230046" lon="8.420085913398555"><ele>508.0</ele><time>2026-04-27T09:53:05.999Z</time></trkpt><trkpt lat="44.444005054708896" lon="8.42009531503818"><ele>506.0</ele><time>2026-04-27T09:53:06.999Z</time></trkpt><trkpt lat="44.44386259611818" lon="8.42018051385557"><ele>503.0</ele><time>2026-04-27T09:53:07.999Z</time></trkpt><trkpt lat="44.44375052782794" lon="8.420371156993555"><ele>500.0</ele><time>2026-04-27T09:53:08.999Z</time></trkpt><trkpt lat="44.443623273014914" lon="8.420576240543223"><ele>497.0</ele><time>2026-04-27T09:53:09.999Z</time></trkpt><trkpt lat="44.44351145022574" lon="8.42083288807425"><ele>497.0</ele><time>2026-04-27T09:53:10.999Z</time></trkpt><trkpt lat="44.44340062068222" lon="8.421145940478558"><ele>497.0</ele><time>2026-04-27T09:53:11.999Z</time></trkpt><trkpt lat="44.44330371651674" lon="8.42141926456624"><ele>498.0</ele><time>2026-04-27T09:53:12.999Z</time></trkpt><trkpt lat="44.44324871115256" lon="8.421702878058385"><ele>499.0</ele><time>2026-04-27T09:53:13.999Z</time></trkpt><trkpt lat="44.44322864638437" lon="8.421972560625008"><ele>500.0</ele><time>2026-04-27T09:53:14.999Z</time></trkpt><trkpt lat="44.443255287645336" lon="8.422230361202065"><ele>500.0</ele><time>2026-04-27T09:53:15.999Z</time></trkpt><trkpt lat="44.44333218200457" lon="8.422495970447182"><ele>500.0</ele><time>2026-04-27T09:53:16.999Z</time></trkpt><trkpt lat="44.443443516206" lon="8.422758912228298"><ele>500.0</ele><time>2026-04-27T09:53:17.999Z</time></trkpt><trkpt lat="44.44351803101797" lon="8.423027815670775"><ele>497.3333333333333</ele><time>2026-04-27T09:53:18.999Z</time></trkpt><trkpt lat="44.44356514324436" lon="8.423278181906404"><ele>494.66666666666663</ele><time>2026-04-27T09:53:19.999Z</time></trkpt><trkpt lat="44.44356395278407" lon="8.42355077776867"><ele>492.0</ele><time>2026-04-27T09:53:20.999Z</time></trkpt><trkpt lat="44.443567012348446" lon="8.423842621251806"><ele>489.33333333333337</ele><time>2026-04-27T09:53:21.999Z</time></trkpt><trkpt lat="44.44360547513832" lon="8.42410534961277"><ele>486.6666666666667</ele><time>2026-04-27T09:53:22.999Z</time></trkpt><trkpt lat="44.443669880853264" lon="8.424378427589728"><ele>484.0</ele><time>2026-04-27T09:53:23.999Z</time></trkpt><trkpt lat="44.4437695883069" lon="8.424644404013996"><ele>489.0</ele><time>2026-04-27T09:53:24.999Z</time></trkpt><trkpt lat="44.44386267188243" lon="8.424902094058744"><ele>494.0</ele><time>2026-04-27T09:53:25.999Z</time></trkpt><trkpt lat="44.44392727340864" lon="8.425154792505163"><ele>499.0</ele><time>2026-04-27T09:53:26.999Z</time></trkpt><trkpt lat="44.444029698690784" lon="8.42535279281161"><ele>492.33333333333337</ele><time>2026-04-27T09:53:27.999Z</time></trkpt><trkpt lat="44.44414554884078" lon="8.425535159503434"><ele>485.66666666666663</ele><time>2026-04-27T09:53:28.999Z</time></trkpt><trkpt lat="44.44431284518034" lon="8.425672842472093"><ele>479.0</ele><time>2026-04-27T09:53:29.999Z</time></trkpt><trkpt lat="44.44446482966334" lon="8.425784729657927"><ele>479.0</ele><time>2026-04-27T09:53:30.999Z</time></trkpt><trkpt lat="44.44456075090897" lon="8.425869552294932"><ele>479.0</ele><time>2026-04-27T09:53:31.999Z</time></trkpt><trkpt lat="44.44462034753963" lon="8.42592286851027"><ele>479.0</ele><time>2026-04-27T09:53:32.999Z</time></trkpt><trkpt lat="44.444610114084696" lon="8.426032741476421"><ele>479.0</ele><time>2026-04-27T09:53:33.999Z</time></trkpt><trkpt lat="44.444546138464695" lon="8.426096986936475"><ele>479.0</ele><time>2026-04-27T09:53:34.999Z</time></trkpt><trkpt lat="44.444438441943795" lon="8.4260755642566"><ele>479.0</ele><time>2026-04-27T09:53:35.999Z</time></trkpt><trkpt lat="44.444305501554815" lon="8.42597871924131"><ele>479.0</ele><time>2026-04-27T09:53:36.999Z</time></trkpt><trkpt lat="44.4441425857973" lon="8.42583276021383"><ele>479.0</ele><time>2026-04-27T09:53:37.999Z</time></trkpt><trkpt lat="44.44396811809778" lon="8.425668041378522"><ele>479.0</ele><time>2026-04-27T09:53:38.999Z</time></trkpt><trkpt lat="44.44380929041229" lon="8.42548058214443"><ele>479.0</ele><time>2026-04-27T09:53:39.999Z</time></trkpt><trkpt lat="44.44369113667109" lon="8.425285495939828"><ele>479.0</ele><time>2026-04-27T09:53:40.999Z</time></trkpt><trkpt lat="44.4436011660488" lon="8.425085219974271"><ele>477.79999999999995</ele><time>2026-04-27T09:53:41.999Z</time></trkpt><trkpt lat="44.44353063612958" lon="8.424903911569556"><ele>476.59999999999997</ele><time>2026-04-27T09:53:42.999Z</time></trkpt><trkpt lat="44.443462284797285" lon="8.424782746062276"><ele>475.4</ele><time>2026-04-27T09:53:43.999Z</time></trkpt><trkpt lat="44.44339813123376" lon="8.424711257815698"><ele>474.2</ele><time>2026-04-27T09:53:44.999Z</time></trkpt><trkpt lat="44.44331043576327" lon="8.424696631929356"><ele>473.0</ele><time>2026-04-27T09:53:45.999Z</time></trkpt><trkpt lat="44.44323412819032" lon="8.424760478058039"><ele>473.0</ele><time>2026-04-27T09:53:46.999Z</time></trkpt><trkpt lat="44.4432058515333" lon="8.424885404599424"><ele>473.0</ele><time>2026-04-27T09:53:47.999Z</time></trkpt><trkpt lat="44.443246999625956" lon="8.425026072068205"><ele>473.0</ele><time>2026-04-27T09:53:48.999Z</time></trkpt><trkpt lat="44.443347911745924" lon="8.425198446533226"><ele>473.0</ele><time>2026-04-27T09:53:49.999Z</time></trkpt><trkpt lat="44.44345714856775" lon="8.425400282995891"><ele>475.0</ele><time>2026-04-27T09:53:50.999Z</time></trkpt><trkpt lat="44.443581106404785" lon="8.425615950048314"><ele>477.0</ele><time>2026-04-27T09:53:51.999Z</time></trkpt><trkpt lat="44.443704449035884" lon="8.425850312686384"><ele>479.0</ele><time>2026-04-27T09:53:52.999Z</time></trkpt><trkpt lat="44.44385638339732" lon="8.426066319569534"><ele>479.0</ele><time>2026-04-27T09:53:53.999Z</time></trkpt><trkpt lat="44.44403135108612" lon="8.426261059778046"><ele>479.0</ele><time>2026-04-27T09:53:54.999Z</time></trkpt><trkpt lat="44.444187803793035" lon="8.426440240608025"><ele>479.0</ele><time>2026-04-27T09:53:55.999Z</time></trkpt><trkpt lat="44.444331234688796" lon="8.426602972350695"><ele>472.0</ele><time>2026-04-27T09:53:56.999Z</time></trkpt><trkpt lat="44.44447287013852" lon="8.426718006607654"><ele>465.0</ele><time>2026-04-27T09:53:57.999Z</time></trkpt><trkpt lat="44.44463248639686" lon="8.426753335256912"><ele>458.0</ele><time>2026-04-27T09:53:58.999Z</time></trkpt><trkpt lat="44.444795465001945" lon="8.426702159407489"><ele>455.0</ele><time>2026-04-27T09:53:59.999Z</time></trkpt><trkpt lat="44.44493912708673" lon="8.426559312775955"><ele>452.0</ele><time>2026-04-27T09:54:00.999Z</time></trkpt><trkpt lat="44.44506511191665" lon="8.426344657886737"><ele>449.0</ele><time>2026-04-27T09:54:01.999Z</time></trkpt><trkpt lat="44.445222306330976" lon="8.426108725477464"><ele>448.0</ele><time>2026-04-27T09:54:02.999Z</time></trkpt><trkpt lat="44.445384991013434" lon="8.425894831605438"><ele>447.0</ele><time>2026-04-27T09:54:03.999Z</time></trkpt><trkpt lat="44.44555604526862" lon="8.425738397254271"><ele>446.0</ele><time>2026-04-27T09:54:04.999Z</time></trkpt><trkpt lat="44.4457274502336" lon="8.425602504146314"><ele>446.0</ele><time>2026-04-27T09:54:05.999Z</time></trkpt><trkpt lat="44.44590492797298" lon="8.425489371139665"><ele>446.0</ele><time>2026-04-27T09:54:06.999Z</time></trkpt><trkpt lat="44.4460846610563" lon="8.425430129935707"><ele>446.0</ele><time>2026-04-27T09:54:07.999Z</time></trkpt><trkpt lat="44.44627471921276" lon="8.42540196672834"><ele>450.0</ele><time>2026-04-27T09:54:09Z</time></trkpt><trkpt lat="44.44648622632245" lon="8.425381409747965"><ele>454.0</ele><time>2026-04-27T09:54:10Z</time></trkpt><trkpt lat="44.44671133788903" lon="8.425339457712168"><ele>458.0</ele><time>2026-04-27T09:54:11Z</time></trkpt><trkpt lat="44.44693654350022" lon="8.42533816862636"><ele>456.66666666666663</ele><time>2026-04-27T09:54:12Z</time></trkpt><trkpt lat="44.44715262920306" lon="8.425319923646333"><ele>455.33333333333337</ele><time>2026-04-27T09:54:13Z</time></trkpt><trkpt lat="44.44736705735211" lon="8.42530854283698"><ele>454.0</ele><time>2026-04-27T09:54:14Z</time></trkpt><trkpt lat="44.4475590123124" lon="8.425326945725676"><ele>454.0</ele><time>2026-04-27T09:54:15Z</time></trkpt><trkpt lat="44.447716275214695" lon="8.425403760997979"><ele>454.0</ele><time>2026-04-27T09:54:16Z</time></trkpt><trkpt lat="44.44785314509316" lon="8.425540406306785"><ele>454.0</ele><time>2026-04-27T09:54:17Z</time></trkpt><trkpt lat="44.44798415252802" lon="8.42567237392136"><ele>448.6666666666667</ele><time>2026-04-27T09:54:18Z</time></trkpt><trkpt lat="44.44808329399281" lon="8.425862428419931"><ele>443.33333333333337</ele><time>2026-04-27T09:54:19Z</time></trkpt><trkpt lat="44.44816496207421" lon="8.426066794971026"><ele>438.0</ele><time>2026-04-27T09:54:20Z</time></trkpt><trkpt lat="44.44821280979502" lon="8.426301118343178"><ele>434.0</ele><time>2026-04-27T09:54:21Z</time></trkpt><trkpt lat="44.44821117482433" lon="8.42655175936914"><ele>430.0</ele><time>2026-04-27T09:54:22Z</time></trkpt><trkpt lat="44.448172577732485" lon="8.4267914076044"><ele>426.0</ele><time>2026-04-27T09:54:23Z</time></trkpt><trkpt lat="44.44810027970705" lon="8.426998289734081"><ele>425.0</ele><time>2026-04-27T09:54:24Z</time></trkpt><trkpt lat="44.448000717121516" lon="8.427191688868195"><ele>424.0</ele><time>2026-04-27T09:54:25Z</time></trkpt><trkpt lat="44.447879832498444" lon="8.427388400931852"><ele>423.0</ele><time>2026-04-27T09:54:26Z</time></trkpt><trkpt lat="44.44774220711983" lon="8.427599644651592"><ele>423.0</ele><time>2026-04-27T09:54:27Z</time></trkpt><trkpt lat="44.447602001491056" lon="8.427838515503037"><ele>423.0</ele><time>2026-04-27T09:54:28Z</time></trkpt><trkpt lat="44.44747066621146" lon="8.428081650928057"><ele>423.0</ele><time>2026-04-27T09:54:29Z</time></trkpt><trkpt lat="44.447337976433566" lon="8.428324571721774"><ele>421.5</ele><time>2026-04-27T09:54:30Z</time></trkpt><trkpt lat="44.44719558601762" lon="8.428580329251268"><ele>420.0</ele><time>2026-04-27T09:54:31Z</time></trkpt><trkpt lat="44.44704903928967" lon="8.428835946110775"><ele>420.0</ele><time>2026-04-27T09:54:32Z</time></trkpt><trkpt lat="44.44691404143521" lon="8.429094963910115"><ele>420.0</ele><time>2026-04-27T09:54:33Z</time></trkpt><trkpt lat="44.44679719774046" lon="8.429377820948195"><ele>420.5</ele><time>2026-04-27T09:54:34Z</time></trkpt><trkpt lat="44.446707434107154" lon="8.429678008853395"><ele>421.0</ele><time>2026-04-27T09:54:35Z</time></trkpt><trkpt lat="44.44663060945628" lon="8.429976494871662"><ele>421.0</ele><time>2026-04-27T09:54:36Z</time></trkpt><trkpt lat="44.446559623616736" lon="8.430263766082298"><ele>421.0</ele><time>2026-04-27T09:54:37Z</time></trkpt><trkpt lat="44.44648159653121" lon="8.430548316577191"><ele>421.0</ele><time>2026-04-27T09:54:38Z</time></trkpt><trkpt lat="44.446403223827105" lon="8.430813828933616"><ele>421.0</ele><time>2026-04-27T09:54:39Z</time></trkpt><trkpt lat="44.446328159997485" lon="8.431070622282432"><ele>421.0</ele><time>2026-04-27T09:54:40Z</time></trkpt><trkpt lat="44.44625064469682" lon="8.431326681330445"><ele>421.0</ele><time>2026-04-27T09:54:41Z</time></trkpt><trkpt lat="44.44618187883231" lon="8.43157434773728"><ele>424.0</ele><time>2026-04-27T09:54:42Z</time></trkpt><trkpt lat="44.446117462995204" lon="8.431815309853784"><ele>427.0</ele><time>2026-04-27T09:54:43Z</time></trkpt><trkpt lat="44.44605739359371" lon="8.432031815210284"><ele>430.0</ele><time>2026-04-27T09:54:44Z</time></trkpt><trkpt lat="44.44599768816497" lon="8.432240569066048"><ele>430.0</ele><time>2026-04-27T09:54:45Z</time></trkpt><trkpt lat="44.445936546120215" lon="8.432443324969176"><ele>430.0</ele><time>2026-04-27T09:54:46Z</time></trkpt><trkpt lat="44.44587765943882" lon="8.432623583972976"><ele>430.0</ele><time>2026-04-27T09:54:47Z</time></trkpt><trkpt lat="44.44581574422368" lon="8.432789548523445"><ele>430.0</ele><time>2026-04-27T09:54:48Z</time></trkpt><trkpt lat="44.44575919356647" lon="8.432937054107759"><ele>429.4</ele><time>2026-04-27T09:54:49Z</time></trkpt><trkpt lat="44.44570521131622" lon="8.4330729667984"><ele>428.8</ele><time>2026-04-27T09:54:50Z</time></trkpt><trkpt lat="44.445652607349125" lon="8.433196068461157"><ele>428.20000000000005</ele><time>2026-04-27T09:54:51Z</time></trkpt><trkpt lat="44.44560141816774" lon="8.43331918551579"><ele>427.6</ele><time>2026-04-27T09:54:52Z</time></trkpt><trkpt lat="44.445547767892116" lon="8.4334516368522"><ele>427.0</ele><time>2026-04-27T09:54:53Z</time></trkpt><trkpt lat="44.445487736319464" lon="8.433585570701085"><ele>427.20000000000005</ele><time>2026-04-27T09:54:54Z</time></trkpt><trkpt lat="44.44542585469713" lon="8.433709271932141"><ele>427.40000000000003</ele><time>2026-04-27T09:54:55Z</time></trkpt><trkpt lat="44.445367735239714" lon="8.433823952578146"><ele>427.59999999999997</ele><time>2026-04-27T09:54:56Z</time></trkpt><trkpt lat="44.44530136424106" lon="8.433926862134008"><ele>427.79999999999995</ele><time>2026-04-27T09:54:57Z</time></trkpt><trkpt lat="44.44522860294663" lon="8.434033986616749"><ele>428.0</ele><time>2026-04-27T09:54:58Z</time></trkpt><trkpt lat="44.44514496299066" lon="8.434138231139217"><ele>428.0</ele><time>2026-04-27T09:54:59Z</time></trkpt><trkpt lat="44.445054355033236" lon="8.434236762997045"><ele>427.99999999999994</ele><time>2026-04-27T09:55:00Z</time></trkpt><trkpt lat="44.44496764001068" lon="8.434330163625535"><ele>427.99999999999994</ele><time>2026-04-27T09:55:01Z</time></trkpt><trkpt lat="44.444886088039055" lon="8.434413494216498"><ele>428.0</ele><time>2026-04-27T09:55:01.999Z</time></trkpt><trkpt lat="44.444806507506144" lon="8.434503770105874"><ele>428.0</ele><time>2026-04-27T09:55:02.999Z</time></trkpt><trkpt lat="44.44472417357857" lon="8.434591126921863"><ele>428.0</ele><time>2026-04-27T09:55:03.999Z</time></trkpt><trkpt lat="44.44464468013172" lon="8.434676708651756"><ele>427.99999999999994</ele><time>2026-04-27T09:55:04.999Z</time></trkpt><trkpt lat="44.44457089304981" lon="8.43475655808663"><ele>427.99999999999994</ele><time>2026-04-27T09:55:05.999Z</time></trkpt><trkpt lat="44.44449526044858" lon="8.434848363851879"><ele>428.0</ele><time>2026-04-27T09:55:06.999Z</time></trkpt><trkpt lat="44.44441594581821" lon="8.434947672219918"><ele>428.0</ele><time>2026-04-27T09:55:07.999Z</time></trkpt><trkpt lat="44.444330256350675" lon="8.435049037456118"><ele>428.0</ele><time>2026-04-27T09:55:08.999Z</time></trkpt><trkpt lat="44.444243328536224" lon="8.435152977149572"><ele>428.0</ele><time>2026-04-27T09:55:09.999Z</time></trkpt><trkpt lat="44.44415650329806" lon="8.435259256803604"><ele>428.0</ele><time>2026-04-27T09:55:10.999Z</time></trkpt><trkpt lat="44.44406758270685" lon="8.435366887153917"><ele>428.0</ele><time>2026-04-27T09:55:11.999Z</time></trkpt><trkpt lat="44.44397228324987" lon="8.435480605397503"><ele>427.75</ele><time>2026-04-27T09:55:12.999Z</time></trkpt><trkpt lat="44.44386708308329" lon="8.43560272942086"><ele>427.5</ele><time>2026-04-27T09:55:13.999Z</time></trkpt><trkpt lat="44.44375896339577" lon="8.435735272718572"><ele>427.25</ele><time>2026-04-27T09:55:14.999Z</time></trkpt><trkpt lat="44.44364641698068" lon="8.435868302344499"><ele>427.0</ele><time>2026-04-27T09:55:15.999Z</time></trkpt><trkpt lat="44.44353203483742" lon="8.436010366059815"><ele>428.0</ele><time>2026-04-27T09:55:16.999Z</time></trkpt><trkpt lat="44.44341590347585" lon="8.436147185694798"><ele>429.0</ele><time>2026-04-27T09:55:17.999Z</time></trkpt><trkpt lat="44.44329860590354" lon="8.436297771427276"><ele>430.0</ele><time>2026-04-27T09:55:18.999Z</time></trkpt><trkpt lat="44.44316948932216" lon="8.436441484140882"><ele>430.0</ele><time>2026-04-27T09:55:19.999Z</time></trkpt><trkpt lat="44.44303050422974" lon="8.436583667353736"><ele>430.0</ele><time>2026-04-27T09:55:20.999Z</time></trkpt><trkpt lat="44.44287588310131" lon="8.436727307688406"><ele>430.0</ele><time>2026-04-27T09:55:21.999Z</time></trkpt><trkpt lat="44.442737527117714" lon="8.436856170052042"><ele>430.33333333333337</ele><time>2026-04-27T09:55:22.999Z</time></trkpt><trkpt lat="44.44259537183275" lon="8.436974528168145"><ele>430.66666666666663</ele><time>2026-04-27T09:55:23.999Z</time></trkpt><trkpt lat="44.442454102336185" lon="8.437099279048976"><ele>431.0</ele><time>2026-04-27T09:55:24.999Z</time></trkpt><trkpt lat="44.4423212425163" lon="8.437214712544083"><ele>431.0</ele><time>2026-04-27T09:55:25.999Z</time></trkpt><trkpt lat="44.442197131015725" lon="8.437327396963992"><ele>431.0</ele><time>2026-04-27T09:55:26.999Z</time></trkpt><trkpt lat="44.44208400787995" lon="8.43743159294905"><ele>431.0</ele><time>2026-04-27T09:55:27.999Z</time></trkpt><trkpt lat="44.441956182904335" lon="8.43755124704284"><ele>431.0</ele><time>2026-04-27T09:55:28.999Z</time></trkpt><trkpt lat="44.441816144140084" lon="8.437670452932105"><ele>431.0</ele><time>2026-04-27T09:55:29.999Z</time></trkpt><trkpt lat="44.44166672293348" lon="8.437797499733367"><ele>431.0</ele><time>2026-04-27T09:55:30.999Z</time></trkpt><trkpt lat="44.441519244234584" lon="8.437924383341784"><ele>431.0</ele><time>2026-04-27T09:55:31.999Z</time></trkpt><trkpt lat="44.44137467209396" lon="8.438057130313595"><ele>431.3333333333333</ele><time>2026-04-27T09:55:32.999Z</time></trkpt><trkpt lat="44.44123109859462" lon="8.438194120697904"><ele>431.66666666666663</ele><time>2026-04-27T09:55:33.999Z</time></trkpt><trkpt lat="44.44109015219222" lon="8.438341981904934"><ele>432.0</ele><time>2026-04-27T09:55:34.999Z</time></trkpt><trkpt lat="44.4409617771884" lon="8.438500212492391"><ele>432.0</ele><time>2026-04-27T09:55:35.999Z</time></trkpt><trkpt lat="44.44083755500287" lon="8.438656466261966"><ele>432.0</ele><time>2026-04-27T09:55:36.999Z</time></trkpt><trkpt lat="44.44071045674193" lon="8.438819985625111"><ele>432.0</ele><time>2026-04-27T09:55:37.999Z</time></trkpt><trkpt lat="44.44058000534953" lon="8.438983348114771"><ele>431.33333333333337</ele><time>2026-04-27T09:55:38.999Z</time></trkpt><trkpt lat="44.44045003205845" lon="8.439148713117454"><ele>430.6666666666667</ele><time>2026-04-27T09:55:39.999Z</time></trkpt><trkpt lat="44.44030362978891" lon="8.439331326133932"><ele>430.0</ele><time>2026-04-27T09:55:40.999Z</time></trkpt><trkpt lat="44.440153033346405" lon="8.439515927733606"><ele>431.33333333333337</ele><time>2026-04-27T09:55:41.999Z</time></trkpt><trkpt lat="44.440036950938385" lon="8.439672651626049"><ele>432.66666666666663</ele><time>2026-04-27T09:55:42.999Z</time></trkpt><trkpt lat="44.43989672663004" lon="8.439856135656171"><ele>434.0</ele><time>2026-04-27T09:55:43.999Z</time></trkpt><trkpt lat="44.439754659015584" lon="8.440036301797985"><ele>433.66666666666663</ele><time>2026-04-27T09:55:44.999Z</time></trkpt><trkpt lat="44.43960959299503" lon="8.440216566517627"><ele>433.33333333333337</ele><time>2026-04-27T09:55:45.999Z</time></trkpt><trkpt lat="44.439464939250186" lon="8.440405350960312"><ele>433.0</ele><time>2026-04-27T09:55:46.999Z</time></trkpt><trkpt lat="44.43931190463831" lon="8.440597843599093"><ele>434.0</ele><time>2026-04-27T09:55:47.999Z</time></trkpt><trkpt lat="44.43917142093396" lon="8.440781661483333"><ele>435.0</ele><time>2026-04-27T09:55:48.999Z</time></trkpt><trkpt lat="44.43904263841534" lon="8.44095826421706"><ele>436.0</ele><time>2026-04-27T09:55:49.999Z</time></trkpt><trkpt lat="44.43891767377322" lon="8.441145516361209"><ele>436.0</ele><time>2026-04-27T09:55:50.999Z</time></trkpt><trkpt lat="44.438807500374345" lon="8.441352203795576"><ele>436.0</ele><time>2026-04-27T09:55:51.999Z</time></trkpt><trkpt lat="44.438720939498204" lon="8.44158741029102"><ele>436.0</ele><time>2026-04-27T09:55:52.999Z</time></trkpt><trkpt lat="44.43865643891297" lon="8.441844413436185"><ele>436.0</ele><time>2026-04-27T09:55:53.999Z</time></trkpt><trkpt lat="44.43861922217555" lon="8.44212332542481"><ele>436.0</ele><time>2026-04-27T09:55:54.999Z</time></trkpt><trkpt lat="44.43861496382369" lon="8.4424247099781"><ele>436.0</ele><time>2026-04-27T09:55:55.999Z</time></trkpt><trkpt lat="44.43862605235088" lon="8.442725985483532"><ele>436.6666666666667</ele><time>2026-04-27T09:55:56.999Z</time></trkpt><trkpt lat="44.43861920392822" lon="8.443035174833648"><ele>437.33333333333337</ele><time>2026-04-27T09:55:57.999Z</time></trkpt><trkpt lat="44.43858719366113" lon="8.443346347556139"><ele>438.0</ele><time>2026-04-27T09:55:58.999Z</time></trkpt><trkpt lat="44.43852486708532" lon="8.44366173716099"><ele>440.0</ele><time>2026-04-27T09:55:59.999Z</time></trkpt><trkpt lat="44.43842120413321" lon="8.443957742809118"><ele>442.0</ele><time>2026-04-27T09:56:00.999Z</time></trkpt><trkpt lat="44.438311537365394" lon="8.444218459731319"><ele>442.0</ele><time>2026-04-27T09:56:01.999Z</time></trkpt><trkpt lat="44.43818912959511" lon="8.444465565894598"><ele>442.0</ele><time>2026-04-27T09:56:02.999Z</time></trkpt><trkpt lat="44.43805847456394" lon="8.444708504785526"><ele>442.0</ele><time>2026-04-27T09:56:03.999Z</time></trkpt><trkpt lat="44.43793790547532" lon="8.444959218475152"><ele>442.33333333333337</ele><time>2026-04-27T09:56:04.999Z</time></trkpt><trkpt lat="44.43779629699013" lon="8.44518892490189"><ele>442.66666666666663</ele><time>2026-04-27T09:56:05.999Z</time></trkpt><trkpt lat="44.43769467823095" lon="8.4454368497298"><ele>443.0</ele><time>2026-04-27T09:56:06.999Z</time></trkpt><trkpt lat="44.43759995478" lon="8.445700192031833"><ele>443.0</ele><time>2026-04-27T09:56:07.999Z</time></trkpt><trkpt lat="44.437512631587936" lon="8.445963167967198"><ele>443.0</ele><time>2026-04-27T09:56:08.999Z</time></trkpt><trkpt lat="44.437422648375204" lon="8.446227041101192"><ele>443.0</ele><time>2026-04-27T09:56:09.999Z</time></trkpt><trkpt lat="44.4373277093961" lon="8.446491430975351"><ele>445.3333333333333</ele><time>2026-04-27T09:56:10.999Z</time></trkpt><trkpt lat="44.43722831026241" lon="8.446751799462561"><ele>447.66666666666663</ele><time>2026-04-27T09:56:11.999Z</time></trkpt><trkpt lat="44.43712210897868" lon="8.44700498478595"><ele>450.0</ele><time>2026-04-27T09:56:12.999Z</time></trkpt><trkpt lat="44.437019645739575" lon="8.447246895278532"><ele>452.33333333333337</ele><time>2026-04-27T09:56:13.998Z</time></trkpt><trkpt lat="44.43692056437771" lon="8.44747005228397"><ele>454.6666666666667</ele><time>2026-04-27T09:56:15Z</time></trkpt><trkpt lat="44.43682789015957" lon="8.447679974305352"><ele>457.0</ele><time>2026-04-27T09:56:16Z</time></trkpt><trkpt lat="44.436746662798186" lon="8.447872641775447"><ele>458.5</ele><time>2026-04-27T09:56:17Z</time></trkpt><trkpt lat="44.43667712017844" lon="8.448042247602809"><ele>460.0</ele><time>2026-04-27T09:56:18Z</time></trkpt><trkpt lat="44.43660786148276" lon="8.44820907595719"><ele>461.5</ele><time>2026-04-27T09:56:19Z</time></trkpt><trkpt lat="44.43653724865416" lon="8.448383435923795"><ele>463.0</ele><time>2026-04-27T09:56:20Z</time></trkpt><trkpt lat="44.43646686327712" lon="8.448558225409691"><ele>463.0</ele><time>2026-04-27T09:56:21Z</time></trkpt><trkpt lat="44.436394245312385" lon="8.448736568130167"><ele>463.0</ele><time>2026-04-27T09:56:22Z</time></trkpt><trkpt lat="44.43632037021427" lon="8.448910993072355"><ele>463.0</ele><time>2026-04-27T09:56:23Z</time></trkpt><trkpt lat="44.436243615921974" lon="8.449094956409033"><ele>463.0</ele><time>2026-04-27T09:56:24Z</time></trkpt><trkpt lat="44.43616490853404" lon="8.449289928962271"><ele>467.33333333333337</ele><time>2026-04-27T09:56:25Z</time></trkpt><trkpt lat="44.43609556739076" lon="8.449504292401146"><ele>471.66666666666663</ele><time>2026-04-27T09:56:26Z</time></trkpt><trkpt lat="44.436041154805324" lon="8.449743564018469"><ele>476.0</ele><time>2026-04-27T09:56:27Z</time></trkpt><trkpt lat="44.43600522637656" lon="8.449993827873518"><ele>477.0</ele><time>2026-04-27T09:56:28Z</time></trkpt><trkpt lat="44.4359962943274" lon="8.450260169061513"><ele>478.0</ele><time>2026-04-27T09:56:29Z</time></trkpt><trkpt lat="44.4359691997386" lon="8.450534436244409"><ele>479.0</ele><time>2026-04-27T09:56:30Z</time></trkpt><trkpt lat="44.435951612295966" lon="8.450806560805024"><ele>479.0</ele><time>2026-04-27T09:56:31Z</time></trkpt><trkpt lat="44.43592271157148" lon="8.451072790395008"><ele>479.0</ele><time>2026-04-27T09:56:32Z</time></trkpt><trkpt lat="44.4358712792566" lon="8.451311801162497"><ele>479.0</ele><time>2026-04-27T09:56:33Z</time></trkpt><trkpt lat="44.43581316003422" lon="8.451530964974992"><ele>479.0</ele><time>2026-04-27T09:56:34Z</time></trkpt><trkpt lat="44.435735022209506" lon="8.451750896433818"><ele>479.0</ele><time>2026-04-27T09:56:35Z</time></trkpt><trkpt lat="44.435643773445854" lon="8.45198613429591"><ele>479.0</ele><time>2026-04-27T09:56:36Z</time></trkpt><trkpt lat="44.43551807490905" lon="8.45221099010762"><ele>475.66666666666663</ele><time>2026-04-27T09:56:37Z</time></trkpt><trkpt lat="44.43537995294312" lon="8.452426302555624"><ele>472.33333333333337</ele><time>2026-04-27T09:56:38Z</time></trkpt><trkpt lat="44.43522804387087" lon="8.452629806344909"><ele>469.0</ele><time>2026-04-27T09:56:39Z</time></trkpt><trkpt lat="44.435082927680526" lon="8.452821759984728"><ele>469.6666666666667</ele><time>2026-04-27T09:56:40Z</time></trkpt><trkpt lat="44.434942032676204" lon="8.453007060508092"><ele>470.33333333333337</ele><time>2026-04-27T09:56:41Z</time></trkpt><trkpt lat="44.43479408860812" lon="8.453192344240454"><ele>471.0</ele><time>2026-04-27T09:56:42Z</time></trkpt><trkpt lat="44.43464321831686" lon="8.453386875003039"><ele>468.66666666666663</ele><time>2026-04-27T09:56:43Z</time></trkpt><trkpt lat="44.434491543540844" lon="8.453586404461875"><ele>466.3333333333333</ele><time>2026-04-27T09:56:44Z</time></trkpt><trkpt lat="44.43434158704592" lon="8.453782889758303"><ele>464.0</ele><time>2026-04-27T09:56:45Z</time></trkpt><trkpt lat="44.434197088616614" lon="8.453968762600669"><ele>464.0</ele><time>2026-04-27T09:56:46Z</time></trkpt><trkpt lat="44.43404484123959" lon="8.454149310124345"><ele>464.0</ele><time>2026-04-27T09:56:47Z</time></trkpt><trkpt lat="44.43388154655939" lon="8.454323567556528"><ele>464.0</ele><time>2026-04-27T09:56:48Z</time></trkpt><trkpt lat="44.433709048022955" lon="8.454486549727"><ele>465.3333333333333</ele><time>2026-04-27T09:56:49Z</time></trkpt><trkpt lat="44.433532585296774" lon="8.454640133846539"><ele>466.66666666666663</ele><time>2026-04-27T09:56:50Z</time></trkpt><trkpt lat="44.43335343977148" lon="8.454791564712515"><ele>468.0</ele><time>2026-04-27T09:56:51Z</time></trkpt><trkpt lat="44.43317345778332" lon="8.454949656821338"><ele>468.0</ele><time>2026-04-27T09:56:52Z</time></trkpt><trkpt lat="44.43299273454374" lon="8.455113326644797"><ele>468.0</ele><time>2026-04-27T09:56:53Z</time></trkpt><trkpt lat="44.4328115589711" lon="8.455272300078533"><ele>468.0</ele><time>2026-04-27T09:56:54Z</time></trkpt><trkpt lat="44.43263557719739" lon="8.455441907418647"><ele>467.66666666666663</ele><time>2026-04-27T09:56:55Z</time></trkpt><trkpt lat="44.43248641811727" lon="8.455629696963971"><ele>467.3333333333333</ele><time>2026-04-27T09:56:56Z</time></trkpt><trkpt lat="44.43237298450002" lon="8.455853229571169"><ele>467.0</ele><time>2026-04-27T09:56:57Z</time></trkpt><trkpt lat="44.432282329037626" lon="8.456108629116306"><ele>467.66666666666663</ele><time>2026-04-27T09:56:58Z</time></trkpt><trkpt lat="44.43220170411269" lon="8.456375047520536"><ele>468.33333333333337</ele><time>2026-04-27T09:56:59Z</time></trkpt><trkpt lat="44.4321143654889" lon="8.45664648113032"><ele>469.0</ele><time>2026-04-27T09:57:00Z</time></trkpt><trkpt lat="44.432021671853036" lon="8.45692287167042"><ele>469.0</ele><time>2026-04-27T09:57:01Z</time></trkpt><trkpt lat="44.43192788824183" lon="8.457191461871323"><ele>469.0</ele><time>2026-04-27T09:57:02Z</time></trkpt><trkpt lat="44.431824974678335" lon="8.457455284038256"><ele>469.0</ele><time>2026-04-27T09:57:03Z</time></trkpt><trkpt lat="44.43170179120157" lon="8.457696764067038"><ele>469.0</ele><time>2026-04-27T09:57:04Z</time></trkpt><trkpt lat="44.43155140754298" lon="8.45790685150117"><ele>469.0</ele><time>2026-04-27T09:57:05Z</time></trkpt><trkpt lat="44.43138031514858" lon="8.458086802133305"><ele>469.0</ele><time>2026-04-27T09:57:06Z</time></trkpt><trkpt lat="44.431208372428245" lon="8.458230259495112"><ele>470.33333333333337</ele><time>2026-04-27T09:57:07Z</time></trkpt><trkpt lat="44.431043207163725" lon="8.458346446051674"><ele>471.66666666666663</ele><time>2026-04-27T09:57:07.999Z</time></trkpt><trkpt lat="44.430884283705495" lon="8.458455633763167"><ele>473.0</ele><time>2026-04-27T09:57:08.999Z</time></trkpt><trkpt lat="44.43073332567666" lon="8.458543599082839"><ele>473.0</ele><time>2026-04-27T09:57:09.999Z</time></trkpt><trkpt lat="44.430594748513876" lon="8.458580839637749"><ele>473.0</ele><time>2026-04-27T09:57:10.999Z</time></trkpt><trkpt lat="44.43045970019327" lon="8.45861328073551"><ele>473.0</ele><time>2026-04-27T09:57:11.999Z</time></trkpt><trkpt lat="44.43033937112585" lon="8.458688593090454"><ele>473.0</ele><time>2026-04-27T09:57:12.999Z</time></trkpt><trkpt lat="44.43023113150053" lon="8.458811116170196"><ele>473.3333333333333</ele><time>2026-04-27T09:57:13.999Z</time></trkpt><trkpt lat="44.43012486530026" lon="8.458955435631886"><ele>473.66666666666663</ele><time>2026-04-27T09:57:14.999Z</time></trkpt><trkpt lat="44.430033666537796" lon="8.459140541281982"><ele>474.0</ele><time>2026-04-27T09:57:15.999Z</time></trkpt><trkpt lat="44.42996409970488" lon="8.459356044653042"><ele>474.0</ele><time>2026-04-27T09:57:16.999Z</time></trkpt><trkpt lat="44.42990756636709" lon="8.459597564016283"><ele>474.0</ele><time>2026-04-27T09:57:17.999Z</time></trkpt><trkpt lat="44.42984282451121" lon="8.459859717284626"><ele>474.0</ele><time>2026-04-27T09:57:18.999Z</time></trkpt><trkpt lat="44.429773176428135" lon="8.4601214376118"><ele>476.33333333333337</ele><time>2026-04-27T09:57:19.999Z</time></trkpt><trkpt lat="44.42970102584979" lon="8.460391604359762"><ele>478.6666666666667</ele><time>2026-04-27T09:57:20.999Z</time></trkpt><trkpt lat="44.42962661262159" lon="8.460664636388897"><ele>481.0</ele><time>2026-04-27T09:57:21.999Z</time></trkpt><trkpt lat="44.42955973332889" lon="8.4609326544011"><ele>482.33333333333337</ele><time>2026-04-27T09:57:22.999Z</time></trkpt><trkpt lat="44.42950248586432" lon="8.461188057365515"><ele>483.66666666666663</ele><time>2026-04-27T09:57:23.999Z</time></trkpt><trkpt lat="44.42945735577459" lon="8.461451721195619"><ele>485.0</ele><time>2026-04-27T09:57:24.999Z</time></trkpt><trkpt lat="44.42941981037358" lon="8.461721026392865"><ele>486.3333333333333</ele><time>2026-04-27T09:57:25.999Z</time></trkpt><trkpt lat="44.429389759640344" lon="8.461976396372734"><ele>487.66666666666663</ele><time>2026-04-27T09:57:26.999Z</time></trkpt><trkpt lat="44.429362294747634" lon="8.462230949757817"><ele>489.0</ele><time>2026-04-27T09:57:27.999Z</time></trkpt><trkpt lat="44.42933911686448" lon="8.462473082362715"><ele>489.66666666666663</ele><time>2026-04-27T09:57:28.999Z</time></trkpt><trkpt lat="44.4293215004127" lon="8.462717185576356"><ele>490.3333333333333</ele><time>2026-04-27T09:57:29.999Z</time></trkpt><trkpt lat="44.42932053424845" lon="8.462972230312815"><ele>491.0</ele><time>2026-04-27T09:57:30.999Z</time></trkpt><trkpt lat="44.42934313857411" lon="8.463244242641672"><ele>491.0</ele><time>2026-04-27T09:57:31.999Z</time></trkpt><trkpt lat="44.42938036087305" lon="8.463516439088728"><ele>491.0</ele><time>2026-04-27T09:57:32.999Z</time></trkpt><trkpt lat="44.429412019657526" lon="8.463798819839063"><ele>491.0</ele><time>2026-04-27T09:57:33.999Z</time></trkpt><trkpt lat="44.429455183646745" lon="8.464078152499543"><ele>491.0</ele><time>2026-04-27T09:57:34.999Z</time></trkpt><trkpt lat="44.42949457448076" lon="8.464338143935723"><ele>491.0</ele><time>2026-04-27T09:57:35.999Z</time></trkpt><trkpt lat="44.4295324622988" lon="8.464590235860062"><ele>491.0</ele><time>2026-04-27T09:57:36.999Z</time></trkpt><trkpt lat="44.429568323541304" lon="8.464833526506949"><ele>491.3333333333333</ele><time>2026-04-27T09:57:37.999Z</time></trkpt><trkpt lat="44.429605617050896" lon="8.465086533975354"><ele>491.66666666666663</ele><time>2026-04-27T09:57:38.999Z</time></trkpt><trkpt lat="44.42965487304276" lon="8.465317090824858"><ele>492.0</ele><time>2026-04-27T09:57:39.999Z</time></trkpt><trkpt lat="44.42968014769441" lon="8.465558839928244"><ele>492.0</ele><time>2026-04-27T09:57:40.999Z</time></trkpt><trkpt lat="44.42970400598482" lon="8.46580073464127"><ele>492.0</ele><time>2026-04-27T09:57:41.999Z</time></trkpt><trkpt lat="44.42972067027677" lon="8.466059684636775"><ele>492.0</ele><time>2026-04-27T09:57:42.999Z</time></trkpt><trkpt lat="44.42974102639691" lon="8.46631908832569"><ele>492.0</ele><time>2026-04-27T09:57:43.999Z</time></trkpt><trkpt lat="44.429762166013695" lon="8.466587765344006"><ele>492.0</ele><time>2026-04-27T09:57:44.999Z</time></trkpt><trkpt lat="44.42977791196805" lon="8.466851529840486"><ele>492.0</ele><time>2026-04-27T09:57:45.999Z</time></trkpt><trkpt lat="44.42977792953609" lon="8.467106992578106"><ele>492.0</ele><time>2026-04-27T09:57:46.999Z</time></trkpt><trkpt lat="44.42975934699488" lon="8.467357260590862"><ele>492.0</ele><time>2026-04-27T09:57:47.999Z</time></trkpt><trkpt lat="44.4297058421553" lon="8.467585778905494"><ele>492.0</ele><time>2026-04-27T09:57:48.999Z</time></trkpt><trkpt lat="44.42966084582764" lon="8.467828350276598"><ele>494.33333333333337</ele><time>2026-04-27T09:57:49.999Z</time></trkpt><trkpt lat="44.42958695796651" lon="8.468063086637866"><ele>496.6666666666667</ele><time>2026-04-27T09:57:50.999Z</time></trkpt><trkpt lat="44.42949565085805" lon="8.468302289433481"><ele>499.0</ele><time>2026-04-27T09:57:51.999Z</time></trkpt><trkpt lat="44.42941001668626" lon="8.468548719957179"><ele>497.6666666666667</ele><time>2026-04-27T09:57:52.999Z</time></trkpt><trkpt lat="44.42931922775141" lon="8.468802357469498"><ele>496.33333333333337</ele><time>2026-04-27T09:57:53.999Z</time></trkpt><trkpt lat="44.429233476966786" lon="8.469056235633287"><ele>495.0</ele><time>2026-04-27T09:57:54.999Z</time></trkpt><trkpt lat="44.42914564968946" lon="8.469302887228375"><ele>495.0</ele><time>2026-04-27T09:57:55.999Z</time></trkpt><trkpt lat="44.42904712611434" lon="8.46953268177834"><ele>495.0</ele><time>2026-04-27T09:57:56.999Z</time></trkpt><trkpt lat="44.42897774671666" lon="8.46976597796395"><ele>495.0</ele><time>2026-04-27T09:57:57.999Z</time></trkpt><trkpt lat="44.428948297020476" lon="8.470026458585432"><ele>494.66666666666663</ele><time>2026-04-27T09:57:58.999Z</time></trkpt><trkpt lat="44.42892882602037" lon="8.470295951456915"><ele>494.3333333333333</ele><time>2026-04-27T09:57:59.999Z</time></trkpt><trkpt lat="44.42892215669436" lon="8.470582684483974"><ele>494.0</ele><time>2026-04-27T09:58:00.999Z</time></trkpt><trkpt lat="44.428921060536645" lon="8.470876631336552"><ele>494.66666666666663</ele><time>2026-04-27T09:58:01.999Z</time></trkpt><trkpt lat="44.4289155172552" lon="8.471185505905666"><ele>495.33333333333337</ele><time>2026-04-27T09:58:02.999Z</time></trkpt><trkpt lat="44.42891443283589" lon="8.471476381459771"><ele>496.0</ele><time>2026-04-27T09:58:03.999Z</time></trkpt><trkpt lat="44.42892420608467" lon="8.471756068348054"><ele>496.0</ele><time>2026-04-27T09:58:04.999Z</time></trkpt><trkpt lat="44.42894732482307" lon="8.47203033393376"><ele>496.0</ele><time>2026-04-27T09:58:05.999Z</time></trkpt><trkpt lat="44.42897895721068" lon="8.47229399219184"><ele>496.0</ele><time>2026-04-27T09:58:06.999Z</time></trkpt><trkpt lat="44.42899309200718" lon="8.472532488972485"><ele>496.75</ele><time>2026-04-27T09:58:07.999Z</time></trkpt><trkpt lat="44.42901313861779" lon="8.47273661924228"><ele>497.5</ele><time>2026-04-27T09:58:08.999Z</time></trkpt><trkpt lat="44.42903009828496" lon="8.472926109599907"><ele>498.25</ele><time>2026-04-27T09:58:09.999Z</time></trkpt><trkpt lat="44.4290426815209" lon="8.473080614179363"><ele>499.0</ele><time>2026-04-27T09:58:10.999Z</time></trkpt><trkpt lat="44.42905858142318" lon="8.473187273523575"><ele>499.6</ele><time>2026-04-27T09:58:11.999Z</time></trkpt><trkpt lat="44.42907078431056" lon="8.473282619811467"><ele>500.2</ele><time>2026-04-27T09:58:12.999Z</time></trkpt><trkpt lat="44.429068291099604" lon="8.473386541873795"><ele>500.80000000000007</ele><time>2026-04-27T09:58:13.999Z</time></trkpt><trkpt lat="44.42907368249835" lon="8.473535597454337"><ele>501.40000000000003</ele><time>2026-04-27T09:58:15.999Z</time></trkpt><trkpt lat="44.429198210177326" lon="8.473582975522694"><ele>502.0</ele><time>2026-04-27T09:58:17.999Z</time></trkpt><trkpt lat="44.429290306177755" lon="8.473602627677197"><ele>502.0</ele><time>2026-04-27T09:58:18.998Z</time></trkpt><trkpt lat="44.429388286628075" lon="8.473676915843432"><ele>502.0</ele><time>2026-04-27T09:58:19.998Z</time></trkpt><trkpt lat="44.429505954505444" lon="8.473704310990353"><ele>502.0</ele><time>2026-04-27T09:58:21Z</time></trkpt><trkpt lat="44.42962015257378" lon="8.473757907051702"><ele>502.0</ele><time>2026-04-27T09:58:22Z</time></trkpt><trkpt lat="44.42974165808468" lon="8.473813569980287"><ele>501.5</ele><time>2026-04-27T09:58:23Z</time></trkpt><trkpt lat="44.429861689801704" lon="8.473866834312503"><ele>501.0</ele><time>2026-04-27T09:58:24Z</time></trkpt><trkpt lat="44.429987719037214" lon="8.4739233503734"><ele>500.5</ele><time>2026-04-27T09:58:25Z</time></trkpt><trkpt lat="44.43010690895876" lon="8.473988280292806"><ele>500.0</ele><time>2026-04-27T09:58:26Z</time></trkpt><trkpt lat="44.43022833235566" lon="8.474065527174833"><ele>500.0</ele><time>2026-04-27T09:58:27Z</time></trkpt><trkpt lat="44.430347550666454" lon="8.474162725575985"><ele>500.0</ele><time>2026-04-27T09:58:28Z</time></trkpt><trkpt lat="44.430449334619226" lon="8.474278837573213"><ele>500.0</ele><time>2026-04-27T09:58:29Z</time></trkpt><trkpt lat="44.43055896556688" lon="8.47442632465142"><ele>500.0</ele><time>2026-04-27T09:58:30Z</time></trkpt><trkpt lat="44.43067391239623" lon="8.474596327082278"><ele>502.3333333333333</ele><time>2026-04-27T09:58:31Z</time></trkpt><trkpt lat="44.43080277679668" lon="8.474796784798063"><ele>504.66666666666663</ele><time>2026-04-27T09:58:32Z</time></trkpt><trkpt lat="44.43090313374422" lon="8.474906706202487"><ele>507.0</ele><time>2026-04-27T09:58:33Z</time></trkpt><trkpt lat="44.43099906158128" lon="8.475050789356931"><ele>507.0</ele><time>2026-04-27T09:58:34Z</time></trkpt><trkpt lat="44.43110886359643" lon="8.475171650319016"><ele>507.0</ele><time>2026-04-27T09:58:35Z</time></trkpt><trkpt lat="44.4311739262992" lon="8.475356943509018"><ele>507.0</ele><time>2026-04-27T09:58:36Z</time></trkpt><trkpt lat="44.43124338299249" lon="8.475576947157007"><ele>508.66666666666663</ele><time>2026-04-27T09:58:37Z</time></trkpt><trkpt lat="44.431318665337294" lon="8.475790255139938"><ele>510.3333333333333</ele><time>2026-04-27T09:58:38Z</time></trkpt><trkpt lat="44.431405825999555" lon="8.47598861387456"><ele>512.0</ele><time>2026-04-27T09:58:39Z</time></trkpt><trkpt lat="44.43150954166323" lon="8.476184430885942"><ele>512.25</ele><time>2026-04-27T09:58:40Z</time></trkpt><trkpt lat="44.43159799105855" lon="8.476378188999078"><ele>512.5</ele><time>2026-04-27T09:58:41Z</time></trkpt><trkpt lat="44.431638705705815" lon="8.476584461621165"><ele>512.75</ele><time>2026-04-27T09:58:42Z</time></trkpt><trkpt lat="44.431625728651966" lon="8.476767513669841"><ele>513.0</ele><time>2026-04-27T09:58:43Z</time></trkpt><trkpt lat="44.43157346269921" lon="8.476940031451527"><ele>513.0</ele><time>2026-04-27T09:58:44Z</time></trkpt><trkpt lat="44.43148471121715" lon="8.477100453327312"><ele>513.0</ele><time>2026-04-27T09:58:45Z</time></trkpt><trkpt lat="44.431400211598714" lon="8.47728934642595"><ele>513.0</ele><time>2026-04-27T09:58:46Z</time></trkpt><trkpt lat="44.43137453359107" lon="8.477520038465654"><ele>515.3333333333334</ele><time>2026-04-27T09:58:47Z</time></trkpt><trkpt lat="44.431357015383895" lon="8.477752690600608"><ele>517.6666666666667</ele><time>2026-04-27T09:58:48Z</time></trkpt><trkpt lat="44.43137391670385" lon="8.478000161610975"><ele>520.0</ele><time>2026-04-27T09:58:49Z</time></trkpt><trkpt lat="44.43140957260619" lon="8.47824713246611"><ele>519.6666666666667</ele><time>2026-04-27T09:58:50Z</time></trkpt><trkpt lat="44.43146514602589" lon="8.478493323072604"><ele>519.3333333333334</ele><time>2026-04-27T09:58:51Z</time></trkpt><trkpt lat="44.43155278044434" lon="8.478728299288855"><ele>519.0</ele><time>2026-04-27T09:58:52Z</time></trkpt><trkpt lat="44.43166698075695" lon="8.4789289210475"><ele>519.0</ele><time>2026-04-27T09:58:53Z</time></trkpt><trkpt lat="44.431789376515326" lon="8.47907466186218"><ele>519.0</ele><time>2026-04-27T09:58:54Z</time></trkpt><trkpt lat="44.43193719120294" lon="8.479195987472545"><ele>519.0</ele><time>2026-04-27T09:58:55Z</time></trkpt><trkpt lat="44.43209296791599" lon="8.47929992491067"><ele>520.3333333333334</ele><time>2026-04-27T09:58:56Z</time></trkpt><trkpt lat="44.43226068845684" lon="8.479389817647078"><ele>521.6666666666667</ele><time>2026-04-27T09:58:57Z</time></trkpt><trkpt lat="44.43244615638867" lon="8.479442044133725"><ele>523.0</ele><time>2026-04-27T09:58:58Z</time></trkpt><trkpt lat="44.432634104271216" lon="8.479463549448107"><ele>523.0</ele><time>2026-04-27T09:58:59Z</time></trkpt><trkpt lat="44.43281311484775" lon="8.47948351651691"><ele>523.0</ele><time>2026-04-27T09:59:00Z</time></trkpt><trkpt lat="44.432996908902055" lon="8.479516933483309"><ele>523.0</ele><time>2026-04-27T09:59:01Z</time></trkpt><trkpt lat="44.433183081372256" lon="8.479562898935026"><ele>524.6666666666667</ele><time>2026-04-27T09:59:02Z</time></trkpt><trkpt lat="44.43337565886937" lon="8.479624436695419"><ele>526.3333333333334</ele><time>2026-04-27T09:59:03Z</time></trkpt><trkpt lat="44.433563785910934" lon="8.479727486369226"><ele>528.0</ele><time>2026-04-27T09:59:04Z</time></trkpt><trkpt lat="44.43375377458045" lon="8.479842497975406"><ele>524.3333333333334</ele><time>2026-04-27T09:59:05Z</time></trkpt><trkpt lat="44.43394545834817" lon="8.47997373461231"><ele>520.6666666666667</ele><time>2026-04-27T09:59:06Z</time></trkpt><trkpt lat="44.434141050087774" lon="8.48011464610394"><ele>517.0</ele><time>2026-04-27T09:59:07Z</time></trkpt><trkpt lat="44.43434081969462" lon="8.480259184877921"><ele>517.0</ele><time>2026-04-27T09:59:08Z</time></trkpt><trkpt lat="44.434545930944616" lon="8.480407528010748"><ele>517.0</ele><time>2026-04-27T09:59:09Z</time></trkpt><trkpt lat="44.434759957658194" lon="8.480541889177825"><ele>518.0</ele><time>2026-04-27T09:59:10Z</time></trkpt><trkpt lat="44.4349720693044" lon="8.480697856790119"><ele>519.0</ele><time>2026-04-27T09:59:11Z</time></trkpt><trkpt lat="44.43519247044921" lon="8.48086810684293"><ele>519.0</ele><time>2026-04-27T09:59:12Z</time></trkpt><trkpt lat="44.43541187702398" lon="8.481035569760264"><ele>519.0</ele><time>2026-04-27T09:59:13Z</time></trkpt><trkpt lat="44.435636600011996" lon="8.481202272254766"><ele>516.5</ele><time>2026-04-27T09:59:13.999Z</time></trkpt><trkpt lat="44.435865109320446" lon="8.481365554331731"><ele>514.0</ele><time>2026-04-27T09:59:14.999Z</time></trkpt><trkpt lat="44.43609692488137" lon="8.481533661748335"><ele>514.0</ele><time>2026-04-27T09:59:15.999Z</time></trkpt><trkpt lat="44.43633371876787" lon="8.481697791792511"><ele>514.0</ele><time>2026-04-27T09:59:16.999Z</time></trkpt><trkpt lat="44.43657614094433" lon="8.481860992780133"><ele>514.0</ele><time>2026-04-27T09:59:17.999Z</time></trkpt><trkpt lat="44.43682735276336" lon="8.482010550274945"><ele>514.0</ele><time>2026-04-27T09:59:18.999Z</time></trkpt><trkpt lat="44.4370841948486" lon="8.482145733853182"><ele>513.0</ele><time>2026-04-27T09:59:19.999Z</time></trkpt><trkpt lat="44.4373459441298" lon="8.482280509276928"><ele>512.0</ele><time>2026-04-27T09:59:20.999Z</time></trkpt><trkpt lat="44.43761065316267" lon="8.482414549659921"><ele>512.0</ele><time>2026-04-27T09:59:21.999Z</time></trkpt><trkpt lat="44.43787722926657" lon="8.482553051630681"><ele>512.0</ele><time>2026-04-27T09:59:22.999Z</time></trkpt><trkpt lat="44.43813332537856" lon="8.482688494519644"><ele>513.0</ele><time>2026-04-27T09:59:23.999Z</time></trkpt><trkpt lat="44.43838280851746" lon="8.482821655742093"><ele>514.0</ele><time>2026-04-27T09:59:24.999Z</time></trkpt><trkpt lat="44.438627067742985" lon="8.482952075023556"><ele>512.5</ele><time>2026-04-27T09:59:25.999Z</time></trkpt><trkpt lat="44.438866342609806" lon="8.483104753214475"><ele>511.0</ele><time>2026-04-27T09:59:26.999Z</time></trkpt><trkpt lat="44.439117318398836" lon="8.483215791034858"><ele>511.0</ele><time>2026-04-27T09:59:27.999Z</time></trkpt><trkpt lat="44.43936187330609" lon="8.483350174452987"><ele>511.0</ele><time>2026-04-27T09:59:28.999Z</time></trkpt><trkpt lat="44.43959938780542" lon="8.483479977126393"><ele>509.5</ele><time>2026-04-27T09:59:29.999Z</time></trkpt><trkpt lat="44.43982806992896" lon="8.483611686155754"><ele>508.0</ele><time>2026-04-27T09:59:30.999Z</time></trkpt><trkpt lat="44.440050261183934" lon="8.483726429154434"><ele>507.0</ele><time>2026-04-27T09:59:31.999Z</time></trkpt><trkpt lat="44.440275452836616" lon="8.483849200833246"><ele>506.0</ele><time>2026-04-27T09:59:32.999Z</time></trkpt><trkpt lat="44.44049299516449" lon="8.483967800254122"><ele>506.0</ele><time>2026-04-27T09:59:33.999Z</time></trkpt><trkpt lat="44.440717593491875" lon="8.48408667750464"><ele>506.0</ele><time>2026-04-27T09:59:34.999Z</time></trkpt><trkpt lat="44.4409442575608" lon="8.484196019763244"><ele>506.0</ele><time>2026-04-27T09:59:35.999Z</time></trkpt><trkpt lat="44.441178845188475" lon="8.484284274866413"><ele>506.0</ele><time>2026-04-27T09:59:36.999Z</time></trkpt><trkpt lat="44.44141862145241" lon="8.484354256864707"><ele>506.5</ele><time>2026-04-27T09:59:37.999Z</time></trkpt><trkpt lat="44.44166427465139" lon="8.484389704984855"><ele>507.0</ele><time>2026-04-27T09:59:38.999Z</time></trkpt><trkpt lat="44.4419142995118" lon="8.484383052945693"><ele>507.0</ele><time>2026-04-27T09:59:39.999Z</time></trkpt><trkpt lat="44.44216543383897" lon="8.48436007411944"><ele>507.0</ele><time>2026-04-27T09:59:40.999Z</time></trkpt><trkpt lat="44.44241834103339" lon="8.484341529328358"><ele>507.0</ele><time>2026-04-27T09:59:41.999Z</time></trkpt><trkpt lat="44.44266601923292" lon="8.48432894469274"><ele>507.0</ele><time>2026-04-27T09:59:42.999Z</time></trkpt><trkpt lat="44.44290200186768" lon="8.484319633757243"><ele>506.0</ele><time>2026-04-27T09:59:43.999Z</time></trkpt><trkpt lat="44.44312761491773" lon="8.484318346453462"><ele>505.0</ele><time>2026-04-27T09:59:44.999Z</time></trkpt><trkpt lat="44.44335911067685" lon="8.484308345732593"><ele>505.0</ele><time>2026-04-27T09:59:45.999Z</time></trkpt><trkpt lat="44.44358223860806" lon="8.484266732510964"><ele>505.0</ele><time>2026-04-27T09:59:46.999Z</time></trkpt><trkpt lat="44.44380912143389" lon="8.484171193905427"><ele>507.5</ele><time>2026-04-27T09:59:47.999Z</time></trkpt><trkpt lat="44.444012504574516" lon="8.48401516049082"><ele>510.0</ele><time>2026-04-27T09:59:48.999Z</time></trkpt><trkpt lat="44.44419772141235" lon="8.48380661585647"><ele>505.5</ele><time>2026-04-27T09:59:49.999Z</time></trkpt><trkpt lat="44.44436691322527" lon="8.483563189831075"><ele>501.0</ele><time>2026-04-27T09:59:50.999Z</time></trkpt><trkpt lat="44.44453527737773" lon="8.483311228039716"><ele>500.0</ele><time>2026-04-27T09:59:51.999Z</time></trkpt><trkpt lat="44.44471373047164" lon="8.483059177610853"><ele>499.0</ele><time>2026-04-27T09:59:52.999Z</time></trkpt><trkpt lat="44.444899765901866" lon="8.482811173708"><ele>499.0</ele><time>2026-04-27T09:59:53.999Z</time></trkpt><trkpt lat="44.445094178914815" lon="8.482552086651946"><ele>499.0</ele><time>2026-04-27T09:59:54.999Z</time></trkpt><trkpt lat="44.44528938504999" lon="8.482290758445265"><ele>495.5</ele><time>2026-04-27T09:59:55.999Z</time></trkpt><trkpt lat="44.44547658742174" lon="8.482027756794405"><ele>492.0</ele><time>2026-04-27T09:59:56.999Z</time></trkpt><trkpt lat="44.44564880009187" lon="8.481761982830575"><ele>492.0</ele><time>2026-04-27T09:59:57.999Z</time></trkpt><trkpt lat="44.44579865947981" lon="8.481482070695115"><ele>492.0</ele><time>2026-04-27T09:59:58.999Z</time></trkpt><trkpt lat="44.44593467257676" lon="8.481194146547761"><ele>490.0</ele><time>2026-04-27T09:59:59.999Z</time></trkpt><trkpt lat="44.446065861326076" lon="8.480898196077993"><ele>488.0</ele><time>2026-04-27T10:00:00.999Z</time></trkpt><trkpt lat="44.446192736854535" lon="8.480603675202106"><ele>489.0</ele><time>2026-04-27T10:00:01.999Z</time></trkpt><trkpt lat="44.44631467082487" lon="8.480304833683853"><ele>490.0</ele><time>2026-04-27T10:00:02.999Z</time></trkpt><trkpt lat="44.44643601865689" lon="8.480011866879284"><ele>490.0</ele><time>2026-04-27T10:00:03.999Z</time></trkpt><trkpt lat="44.44655722874339" lon="8.479721436251324"><ele>490.0</ele><time>2026-04-27T10:00:04.999Z</time></trkpt><trkpt lat="44.44669024914092" lon="8.479442040960288"><ele>487.5</ele><time>2026-04-27T10:00:05.999Z</time></trkpt><trkpt lat="44.44682909736308" lon="8.479166021494336"><ele>485.0</ele><time>2026-04-27T10:00:06.999Z</time></trkpt><trkpt lat="44.44698613489815" lon="8.478892884195185"><ele>481.0</ele><time>2026-04-27T10:00:07.999Z</time></trkpt><trkpt lat="44.447139310961894" lon="8.478635337088967"><ele>477.0</ele><time>2026-04-27T10:00:08.999Z</time></trkpt><trkpt lat="44.447288272596296" lon="8.478408691593854"><ele>477.0</ele><time>2026-04-27T10:00:09.999Z</time></trkpt><trkpt lat="44.44741468784511" lon="8.478209403300665"><ele>477.0</ele><time>2026-04-27T10:00:10.999Z</time></trkpt><trkpt lat="44.447522858817486" lon="8.478029263410612"><ele>477.0</ele><time>2026-04-27T10:00:11.999Z</time></trkpt><trkpt lat="44.44761808440778" lon="8.477864371805586"><ele>474.6</ele><time>2026-04-27T10:00:12.999Z</time></trkpt><trkpt lat="44.447705433750905" lon="8.477720773346329"><ele>472.20000000000005</ele><time>2026-04-27T10:00:13.999Z</time></trkpt><trkpt lat="44.44778026078919" lon="8.477596995932755"><ele>469.8</ele><time>2026-04-27T10:00:14.999Z</time></trkpt><trkpt lat="44.44784158311195" lon="8.477508061817598"><ele>467.4</ele><time>2026-04-27T10:00:15.999Z</time></trkpt><trkpt lat="44.44788775815614" lon="8.47743376516783"><ele>465.0</ele><time>2026-04-27T10:00:16.999Z</time></trkpt><trkpt lat="44.447960458347126" lon="8.477330379183831"><ele>464.57142857142856</ele><time>2026-04-27T10:00:18.999Z</time></trkpt><trkpt lat="44.448008871064424" lon="8.477262906382373"><ele>464.14285714285717</ele><time>2026-04-27T10:00:21.999Z</time></trkpt><trkpt lat="44.448060399918816" lon="8.477162186338612"><ele>463.7142857142857</ele><time>2026-04-27T10:00:43Z</time></trkpt><trkpt lat="44.448100051130865" lon="8.477085959508086"><ele>463.2857142857143</ele><time>2026-04-27T10:00:44Z</time></trkpt><trkpt lat="44.44814994307029" lon="8.477024543738585"><ele>462.8571428571429</ele><time>2026-04-27T10:00:45Z</time></trkpt><trkpt lat="44.44821166254903" lon="8.476965061531235"><ele>462.42857142857144</ele><time>2026-04-27T10:00:46Z</time></trkpt><trkpt lat="44.448277198789945" lon="8.476920535596426"><ele>462.0</ele><time>2026-04-27T10:00:47Z</time></trkpt><trkpt lat="44.44835899908571" lon="8.476876569091901"><ele>461.0</ele><time>2026-04-27T10:00:48Z</time></trkpt><trkpt lat="44.44845679917521" lon="8.476842022823735"><ele>460.00000000000006</ele><time>2026-04-27T10:00:49Z</time></trkpt><trkpt lat="44.44855487059417" lon="8.476825785808279"><ele>459.00000000000006</ele><time>2026-04-27T10:00:50Z</time></trkpt><trkpt lat="44.44866063510595" lon="8.47687416712638"><ele>458.0</ele><time>2026-04-27T10:00:51Z</time></trkpt><trkpt lat="44.44877136035555" lon="8.476888989847541"><ele>457.0</ele><time>2026-04-27T10:00:52Z</time></trkpt><trkpt lat="44.44888081704433" lon="8.476936808302169"><ele>457.0</ele><time>2026-04-27T10:00:53Z</time></trkpt><trkpt lat="44.449011090104925" lon="8.477003171457289"><ele>457.0</ele><time>2026-04-27T10:00:54Z</time></trkpt><trkpt lat="44.44913338132219" lon="8.477127886287251"><ele>457.0</ele><time>2026-04-27T10:00:55Z</time></trkpt><trkpt lat="44.44925777644277" lon="8.477265273472868"><ele>457.0</ele><time>2026-04-27T10:00:56Z</time></trkpt><trkpt lat="44.44938641508781" lon="8.477396715173152"><ele>457.6666666666667</ele><time>2026-04-27T10:00:57Z</time></trkpt><trkpt lat="44.449538325153085" lon="8.477521420313378"><ele>458.33333333333337</ele><time>2026-04-27T10:00:58Z</time></trkpt><trkpt lat="44.449717190106185" lon="8.477629599628484"><ele>459.0</ele><time>2026-04-27T10:00:59Z</time></trkpt><trkpt lat="44.449902616470915" lon="8.477728346753745"><ele>459.0</ele><time>2026-04-27T10:01:00Z</time></trkpt><trkpt lat="44.450074956381044" lon="8.477863352758865"><ele>459.0</ele><time>2026-04-27T10:01:01Z</time></trkpt><trkpt lat="44.45025981230054" lon="8.47797253389512"><ele>459.0</ele><time>2026-04-27T10:01:02Z</time></trkpt><trkpt lat="44.45043906355809" lon="8.478105170087114"><ele>457.33333333333337</ele><time>2026-04-27T10:01:03Z</time></trkpt><trkpt lat="44.45062489409074" lon="8.478220045855918"><ele>455.6666666666667</ele><time>2026-04-27T10:01:04Z</time></trkpt><trkpt lat="44.45081251157458" lon="8.478341541594505"><ele>454.0</ele><time>2026-04-27T10:01:05Z</time></trkpt><trkpt lat="44.4510008200254" lon="8.478469396096319"><ele>454.0</ele><time>2026-04-27T10:01:06Z</time></trkpt><trkpt lat="44.45118309233505" lon="8.478595178580646"><ele>454.0</ele><time>2026-04-27T10:01:07Z</time></trkpt><trkpt lat="44.451352034821724" lon="8.478705568913751"><ele>454.0</ele><time>2026-04-27T10:01:08Z</time></trkpt><trkpt lat="44.451523545608325" lon="8.478801155331302"><ele>454.6666666666667</ele><time>2026-04-27T10:01:09Z</time></trkpt><trkpt lat="44.45170814986976" lon="8.478850778655316"><ele>455.33333333333337</ele><time>2026-04-27T10:01:10Z</time></trkpt><trkpt lat="44.45188450806899" lon="8.478840262787545"><ele>456.0</ele><time>2026-04-27T10:01:11Z</time></trkpt><trkpt lat="44.45204693603176" lon="8.478755017142582"><ele>453.66666666666663</ele><time>2026-04-27T10:01:12Z</time></trkpt><trkpt lat="44.452178283391596" lon="8.478611909594136"><ele>451.3333333333333</ele><time>2026-04-27T10:01:13Z</time></trkpt><trkpt lat="44.45230560801118" lon="8.478467619297643"><ele>449.0</ele><time>2026-04-27T10:01:14Z</time></trkpt><trkpt lat="44.45245301400194" lon="8.478402485192595"><ele>449.0</ele><time>2026-04-27T10:01:15Z</time></trkpt><trkpt lat="44.45259961089371" lon="8.478354137986763"><ele>449.0</ele><time>2026-04-27T10:01:16Z</time></trkpt><trkpt lat="44.45274229028323" lon="8.478325878087121"><ele>449.0</ele><time>2026-04-27T10:01:17Z</time></trkpt><trkpt lat="44.45287977616335" lon="8.478333152434873"><ele>449.0</ele><time>2026-04-27T10:01:17.999Z</time></trkpt><trkpt lat="44.453006714120846" lon="8.478389922562952"><ele>448.0</ele><time>2026-04-27T10:01:18.999Z</time></trkpt><trkpt lat="44.45310908720765" lon="8.478515200504837"><ele>447.0</ele><time>2026-04-27T10:01:19.999Z</time></trkpt><trkpt lat="44.45321000795717" lon="8.478675646782786"><ele>446.0</ele><time>2026-04-27T10:01:20.999Z</time></trkpt><trkpt lat="44.45332655256977" lon="8.478843919728773"><ele>443.66666666666663</ele><time>2026-04-27T10:01:21.999Z</time></trkpt><trkpt lat="44.45345595590973" lon="8.479021389428333"><ele>441.33333333333337</ele><time>2026-04-27T10:01:22.999Z</time></trkpt><trkpt lat="44.453637341193456" lon="8.479203397718488"><ele>439.0</ele><time>2026-04-27T10:01:23.999Z</time></trkpt><trkpt lat="44.45384084625047" lon="8.479358512533025"><ele>439.0</ele><time>2026-04-27T10:01:24.999Z</time></trkpt><trkpt lat="44.45402349674234" lon="8.479497636411603"><ele>439.0</ele><time>2026-04-27T10:01:25.999Z</time></trkpt><trkpt lat="44.45417330937186" lon="8.47966853998738"><ele>439.0</ele><time>2026-04-27T10:01:26.999Z</time></trkpt><trkpt lat="44.45436026011719" lon="8.479764410981199"><ele>439.0</ele><time>2026-04-27T10:01:27.999Z</time></trkpt><trkpt lat="44.45456747004882" lon="8.479824589572795"><ele>439.0</ele><time>2026-04-27T10:01:28.999Z</time></trkpt><trkpt lat="44.454763465882394" lon="8.479923139553025"><ele>439.0</ele><time>2026-04-27T10:01:29.999Z</time></trkpt><trkpt lat="44.45496446393485" lon="8.480020820047788"><ele>439.0</ele><time>2026-04-27T10:01:30.999Z</time></trkpt><trkpt lat="44.45514989470622" lon="8.480123662620645"><ele>439.0</ele><time>2026-04-27T10:01:31.999Z</time></trkpt><trkpt lat="44.455309282370756" lon="8.480180174702516"><ele>439.0</ele><time>2026-04-27T10:01:32.999Z</time></trkpt><trkpt lat="44.455468252449506" lon="8.480171914111235"><ele>437.0</ele><time>2026-04-27T10:01:33.999Z</time></trkpt><trkpt lat="44.45562178893406" lon="8.480074075058612"><ele>435.0</ele><time>2026-04-27T10:01:34.999Z</time></trkpt><trkpt lat="44.45577806948598" lon="8.479997644639763"><ele>433.0</ele><time>2026-04-27T10:01:35.999Z</time></trkpt><trkpt lat="44.45594630531734" lon="8.479989249127906"><ele>433.0</ele><time>2026-04-27T10:01:36.999Z</time></trkpt><trkpt lat="44.456138710501165" lon="8.480025571377514"><ele>433.0</ele><time>2026-04-27T10:01:37.999Z</time></trkpt><trkpt lat="44.45635428449793" lon="8.480071765774753"><ele>433.0</ele><time>2026-04-27T10:01:38.999Z</time></trkpt><trkpt lat="44.45656298759694" lon="8.480117790857497"><ele>430.0</ele><time>2026-04-27T10:01:39.999Z</time></trkpt><trkpt lat="44.456743295750044" lon="8.480213383042532"><ele>427.0</ele><time>2026-04-27T10:01:40.999Z</time></trkpt><trkpt lat="44.456918829762444" lon="8.48030641905906"><ele>424.0</ele><time>2026-04-27T10:01:41.999Z</time></trkpt><trkpt lat="44.457083072501604" lon="8.480388054758848"><ele>423.33333333333337</ele><time>2026-04-27T10:01:42.999Z</time></trkpt><trkpt lat="44.45724947316147" lon="8.480402356631844"><ele>422.66666666666663</ele><time>2026-04-27T10:01:43.999Z</time></trkpt><trkpt lat="44.45741177046349" lon="8.480320282650299"><ele>422.0</ele><time>2026-04-27T10:01:44.999Z</time></trkpt><trkpt lat="44.45754823230034" lon="8.480166374502032"><ele>422.0</ele><time>2026-04-27T10:01:45.999Z</time></trkpt><trkpt lat="44.45764866868229" lon="8.479996635863353"><ele>422.0</ele><time>2026-04-27T10:01:46.999Z</time></trkpt><trkpt lat="44.45777555048157" lon="8.479874734413636"><ele>422.0</ele><time>2026-04-27T10:01:47.999Z</time></trkpt><trkpt lat="44.45794353181192" lon="8.47984719946742"><ele>422.0</ele><time>2026-04-27T10:01:48.999Z</time></trkpt><trkpt lat="44.45813671200965" lon="8.479821156617488"><ele>422.0</ele><time>2026-04-27T10:01:49.999Z</time></trkpt><trkpt lat="44.45831093175763" lon="8.479783514456965"><ele>422.0</ele><time>2026-04-27T10:01:50.999Z</time></trkpt><trkpt lat="44.45845567854826" lon="8.479703621366323"><ele>422.0</ele><time>2026-04-27T10:01:51.999Z</time></trkpt><trkpt lat="44.458601110349136" lon="8.479659387550623"><ele>422.0</ele><time>2026-04-27T10:01:52.999Z</time></trkpt><trkpt lat="44.45874060017796" lon="8.479704487832192"><ele>422.0</ele><time>2026-04-27T10:01:53.999Z</time></trkpt><trkpt lat="44.45885863352959" lon="8.47981266984796"><ele>422.0</ele><time>2026-04-27T10:01:54.999Z</time></trkpt><trkpt lat="44.45900346585209" lon="8.479972586279585"><ele>423.66666666666663</ele><time>2026-04-27T10:01:55.999Z</time></trkpt><trkpt lat="44.45917039754907" lon="8.480151896869165"><ele>425.33333333333337</ele><time>2026-04-27T10:01:56.999Z</time></trkpt><trkpt lat="44.45935300135626" lon="8.480317002940046"><ele>427.0</ele><time>2026-04-27T10:01:57.999Z</time></trkpt><trkpt lat="44.459524362062474" lon="8.48048667443137"><ele>426.33333333333337</ele><time>2026-04-27T10:01:58.999Z</time></trkpt><trkpt lat="44.45967555877621" lon="8.48065514899122"><ele>425.66666666666663</ele><time>2026-04-27T10:01:59.999Z</time></trkpt><trkpt lat="44.45979300628756" lon="8.480801342619175"><ele>425.0</ele><time>2026-04-27T10:02:00.999Z</time></trkpt><trkpt lat="44.45985931650108" lon="8.480999566285432"><ele>425.0</ele><time>2026-04-27T10:02:01.999Z</time></trkpt><trkpt lat="44.459897107586386" lon="8.481201225361959"><ele>425.0</ele><time>2026-04-27T10:02:02.999Z</time></trkpt><trkpt lat="44.45997904486781" lon="8.481369512468271"><ele>425.0</ele><time>2026-04-27T10:02:03.999Z</time></trkpt><trkpt lat="44.460083974403126" lon="8.48152120129977"><ele>425.0</ele><time>2026-04-27T10:02:04.999Z</time></trkpt><trkpt lat="44.46025657415881" lon="8.481622283456778"><ele>426.3333333333333</ele><time>2026-04-27T10:02:05.999Z</time></trkpt><trkpt lat="44.46044318054419" lon="8.48170494154448"><ele>427.66666666666663</ele><time>2026-04-27T10:02:06.999Z</time></trkpt><trkpt lat="44.46064243936177" lon="8.481738869130014"><ele>429.0</ele><time>2026-04-27T10:02:07.999Z</time></trkpt><trkpt lat="44.46083232510851" lon="8.481841751332801"><ele>423.66666666666663</ele><time>2026-04-27T10:02:08.999Z</time></trkpt><trkpt lat="44.46102621688729" lon="8.481954827216597"><ele>418.3333333333333</ele><time>2026-04-27T10:02:09.999Z</time></trkpt><trkpt lat="44.46123344191523" lon="8.482070097505979"><ele>413.0</ele><time>2026-04-27T10:02:10.999Z</time></trkpt><trkpt lat="44.46145556578916" lon="8.482180441924122"><ele>413.0</ele><time>2026-04-27T10:02:11.999Z</time></trkpt><trkpt lat="44.461694240041155" lon="8.482257622642408"><ele>413.0</ele><time>2026-04-27T10:02:12.999Z</time></trkpt><trkpt lat="44.46193074509606" lon="8.482307352278703"><ele>410.66666666666663</ele><time>2026-04-27T10:02:13.999Z</time></trkpt><trkpt lat="44.46215569576696" lon="8.482375403972153"><ele>408.33333333333337</ele><time>2026-04-27T10:02:14.999Z</time></trkpt><trkpt lat="44.4623642722009" lon="8.48241146160512"><ele>406.0</ele><time>2026-04-27T10:02:15.999Z</time></trkpt><trkpt lat="44.46256581776593" lon="8.482440453401884"><ele>406.0</ele><time>2026-04-27T10:02:16.999Z</time></trkpt><trkpt lat="44.46275253520865" lon="8.482464848143279"><ele>406.0</ele><time>2026-04-27T10:02:17.999Z</time></trkpt><trkpt lat="44.462900267936924" lon="8.482596235744023"><ele>406.0</ele><time>2026-04-27T10:02:18.999Z</time></trkpt><trkpt lat="44.46304787910082" lon="8.482714442829524"><ele>404.33333333333337</ele><time>2026-04-27T10:02:19.999Z</time></trkpt><trkpt lat="44.463235998549344" lon="8.482796696006217"><ele>402.66666666666663</ele><time>2026-04-27T10:02:20.999Z</time></trkpt><trkpt lat="44.4634394525971" lon="8.482797611421658"><ele>401.0</ele><time>2026-04-27T10:02:21.999Z</time></trkpt><trkpt lat="44.46363995868036" lon="8.482837001340439"><ele>400.66666666666663</ele><time>2026-04-27T10:02:22.999Z</time></trkpt><trkpt lat="44.46383762507121" lon="8.48285085416476"><ele>400.33333333333337</ele><time>2026-04-27T10:02:23.999Z</time></trkpt><trkpt lat="44.464026936098705" lon="8.482873478522293"><ele>400.0</ele><time>2026-04-27T10:02:24.999Z</time></trkpt><trkpt lat="44.46422057693545" lon="8.482830773445647"><ele>400.0</ele><time>2026-04-27T10:02:25.998Z</time></trkpt><trkpt lat="44.46439779185481" lon="8.482737477316311"><ele>400.0</ele><time>2026-04-27T10:02:26.998Z</time></trkpt><trkpt lat="44.46455910561303" lon="8.482634346966615"><ele>400.0</ele><time>2026-04-27T10:02:27.998Z</time></trkpt><trkpt lat="44.46471513870215" lon="8.48257917154356"><ele>399.75</ele><time>2026-04-27T10:02:28.998Z</time></trkpt><trkpt lat="44.46482569698725" lon="8.482547155836379"><ele>399.5</ele><time>2026-04-27T10:02:29.998Z</time></trkpt><trkpt lat="44.46493844919988" lon="8.482539061505678"><ele>399.25</ele><time>2026-04-27T10:02:30.998Z</time></trkpt><trkpt lat="44.46505735989716" lon="8.482533097797194"><ele>399.0</ele><time>2026-04-27T10:02:31.998Z</time></trkpt><trkpt lat="44.46516835823814" lon="8.48254653746915"><ele>399.0</ele><time>2026-04-27T10:02:33Z</time></trkpt><trkpt lat="44.46527012373171" lon="8.482581985022682"><ele>399.0</ele><time>2026-04-27T10:02:34Z</time></trkpt><trkpt lat="44.46539363343248" lon="8.482607647359693"><ele>399.0</ele><time>2026-04-27T10:02:35Z</time></trkpt><trkpt lat="44.46567495043871" lon="8.4827837571509"><ele>396.33333333333337</ele><time>2026-04-27T10:02:36Z</time></trkpt><trkpt lat="44.46582322035722" lon="8.48294521076537"><ele>393.6666666666667</ele><time>2026-04-27T10:02:37Z</time></trkpt><trkpt lat="44.465982672542864" lon="8.483113611417838"><ele>391.0</ele><time>2026-04-27T10:02:38Z</time></trkpt><trkpt lat="44.466140420941784" lon="8.48327994770886"><ele>392.6666666666667</ele><time>2026-04-27T10:02:39Z</time></trkpt><trkpt lat="44.46630709171383" lon="8.483458164066162"><ele>394.33333333333337</ele><time>2026-04-27T10:02:40Z</time></trkpt><trkpt lat="44.46648073446055" lon="8.483646659442698"><ele>396.0</ele><time>2026-04-27T10:02:41Z</time></trkpt><trkpt lat="44.46666986498078" lon="8.48381547398004"><ele>396.0</ele><time>2026-04-27T10:02:42Z</time></trkpt><trkpt lat="44.46684793257024" lon="8.483987061413973"><ele>396.0</ele><time>2026-04-27T10:02:43Z</time></trkpt><trkpt lat="44.46703598853083" lon="8.4841288139261"><ele>396.0</ele><time>2026-04-27T10:02:44Z</time></trkpt><trkpt lat="44.467211805977406" lon="8.484267754253194"><ele>392.0</ele><time>2026-04-27T10:02:45Z</time></trkpt><trkpt lat="44.46738328300176" lon="8.484396276107718"><ele>388.0</ele><time>2026-04-27T10:02:46Z</time></trkpt><trkpt lat="44.46756051067166" lon="8.48449524978369"><ele>384.0</ele><time>2026-04-27T10:02:47Z</time></trkpt><trkpt lat="44.46772170666639" lon="8.48458277477008"><ele>387.0</ele><time>2026-04-27T10:02:48Z</time></trkpt><trkpt lat="44.46787332064536" lon="8.484662137443559"><ele>390.0</ele><time>2026-04-27T10:02:49Z</time></trkpt><trkpt lat="44.468017953408726" lon="8.484728296555888"><ele>393.0</ele><time>2026-04-27T10:02:50Z</time></trkpt><trkpt lat="44.468161520723115" lon="8.484751534100207"><ele>393.0</ele><time>2026-04-27T10:02:51Z</time></trkpt><trkpt lat="44.468295083741474" lon="8.484731340283371"><ele>393.0</ele><time>2026-04-27T10:02:52Z</time></trkpt><trkpt lat="44.46842538352227" lon="8.48468023386031"><ele>393.0</ele><time>2026-04-27T10:02:53Z</time></trkpt><trkpt lat="44.46854214709406" lon="8.484622230895104"><ele>393.0</ele><time>2026-04-27T10:02:54Z</time></trkpt><trkpt lat="44.468651946391944" lon="8.484580435591985"><ele>389.75</ele><time>2026-04-27T10:02:55Z</time></trkpt><trkpt lat="44.46876271618756" lon="8.484543738331045"><ele>386.5</ele><time>2026-04-27T10:02:56Z</time></trkpt><trkpt lat="44.46888236072248" lon="8.484505026836278"><ele>383.25</ele><time>2026-04-27T10:02:57Z</time></trkpt><trkpt lat="44.468998769625244" lon="8.484468278104739"><ele>380.0</ele><time>2026-04-27T10:02:58Z</time></trkpt><trkpt lat="44.46910470046962" lon="8.484422245483186"><ele>380.0</ele><time>2026-04-27T10:02:59Z</time></trkpt><trkpt lat="44.469213222788696" lon="8.484387186578816"><ele>380.0</ele><time>2026-04-27T10:03:00Z</time></trkpt><trkpt lat="44.46932128632512" lon="8.484358178830002"><ele>380.0</ele><time>2026-04-27T10:03:01Z</time></trkpt><trkpt lat="44.469429493935706" lon="8.484331390424968"><ele>380.0</ele><time>2026-04-27T10:03:02Z</time></trkpt><trkpt lat="44.46954422040947" lon="8.484297281539737"><ele>380.0</ele><time>2026-04-27T10:03:03Z</time></trkpt><trkpt lat="44.46966002666205" lon="8.48426283225705"><ele>380.5</ele><time>2026-04-27T10:03:04Z</time></trkpt><trkpt lat="44.46977313305323" lon="8.48423067072627"><ele>381.0</ele><time>2026-04-27T10:03:05Z</time></trkpt><trkpt lat="44.4698844185252" lon="8.48420214783927"><ele>381.5</ele><time>2026-04-27T10:03:06Z</time></trkpt><trkpt lat="44.469996909558155" lon="8.484179162341974"><ele>382.0</ele><time>2026-04-27T10:03:07Z</time></trkpt><trkpt lat="44.47010769681604" lon="8.484168235871351"><ele>382.0</ele><time>2026-04-27T10:03:08Z</time></trkpt><trkpt lat="44.47023625549879" lon="8.484193730717022"><ele>382.0</ele><time>2026-04-27T10:03:09Z</time></trkpt><trkpt lat="44.47036831747332" lon="8.48420686390848"><ele>382.0</ele><time>2026-04-27T10:03:10Z</time></trkpt><trkpt lat="44.470516521795915" lon="8.48422803983905"><ele>382.0</ele><time>2026-04-27T10:03:11Z</time></trkpt><trkpt lat="44.47067873337089" lon="8.484257640303799"><ele>381.25</ele><time>2026-04-27T10:03:12Z</time></trkpt><trkpt lat="44.47082562496658" lon="8.484284315352024"><ele>380.5</ele><time>2026-04-27T10:03:13Z</time></trkpt><trkpt lat="44.47097179478061" lon="8.484316102278608"><ele>379.75</ele><time>2026-04-27T10:03:14Z</time></trkpt><trkpt lat="44.47111342128895" lon="8.48435288131488"><ele>379.0</ele><time>2026-04-27T10:03:15Z</time></trkpt><trkpt lat="44.471232167787846" lon="8.484436455719274"><ele>378.66666666666663</ele><time>2026-04-27T10:03:16Z</time></trkpt><trkpt lat="44.471361704590166" lon="8.48454553904813"><ele>378.3333333333333</ele><time>2026-04-27T10:03:17Z</time></trkpt><trkpt lat="44.471496726994104" lon="8.484656732346929"><ele>378.0</ele><time>2026-04-27T10:03:18Z</time></trkpt><trkpt lat="44.4716185550989" lon="8.48477591189682"><ele>378.0</ele><time>2026-04-27T10:03:19Z</time></trkpt><trkpt lat="44.47173724512357" lon="8.484889365175986"><ele>378.0</ele><time>2026-04-27T10:03:19.999Z</time></trkpt><trkpt lat="44.47186599255764" lon="8.485004136993496"><ele>378.0</ele><time>2026-04-27T10:03:20.999Z</time></trkpt><trkpt lat="44.47199601140654" lon="8.485120491260453"><ele>377.6666666666667</ele><time>2026-04-27T10:03:21.999Z</time></trkpt><trkpt lat="44.47212908327825" lon="8.485236474152078"><ele>377.33333333333337</ele><time>2026-04-27T10:03:22.999Z</time></trkpt><trkpt lat="44.472256315395825" lon="8.48535953098662"><ele>377.0</ele><time>2026-04-27T10:03:23.999Z</time></trkpt><trkpt lat="44.47239002488333" lon="8.485481887728085"><ele>377.0</ele><time>2026-04-27T10:03:24.999Z</time></trkpt><trkpt lat="44.472527867798675" lon="8.485603806671865"><ele>377.0</ele><time>2026-04-27T10:03:25.999Z</time></trkpt><trkpt lat="44.47266689218944" lon="8.4857284313624"><ele>377.0</ele><time>2026-04-27T10:03:26.999Z</time></trkpt><trkpt lat="44.47281217314862" lon="8.485854205872364"><ele>374.75</ele><time>2026-04-27T10:03:27.999Z</time></trkpt><trkpt lat="44.472947679120786" lon="8.485971853966134"><ele>372.5</ele><time>2026-04-27T10:03:28.999Z</time></trkpt><trkpt lat="44.47306582251388" lon="8.48606699474966"><ele>370.25</ele><time>2026-04-27T10:03:29.999Z</time></trkpt><trkpt lat="44.473161467876494" lon="8.486147372133368"><ele>368.0</ele><time>2026-04-27T10:03:30.999Z</time></trkpt><trkpt lat="44.4732395080413" lon="8.486222611480212"><ele>370.4</ele><time>2026-04-27T10:03:31.999Z</time></trkpt><trkpt lat="44.47330158854217" lon="8.486270451469204"><ele>372.79999999999995</ele><time>2026-04-27T10:03:32.999Z</time></trkpt><trkpt lat="44.47339087172672" lon="8.486356643508588"><ele>375.2</ele><time>2026-04-27T10:03:34.999Z</time></trkpt><trkpt lat="44.47348587659952" lon="8.486435430865283"><ele>377.6</ele><time>2026-04-27T10:03:36.999Z</time></trkpt><trkpt lat="44.47360209326361" lon="8.486529281498916"><ele>380.0</ele><time>2026-04-27T10:03:38.999Z</time></trkpt><trkpt lat="44.473678378063966" lon="8.486595025092852"><ele>380.0</ele><time>2026-04-27T10:03:39.999Z</time></trkpt><trkpt lat="44.47377119907741" lon="8.48669914800111"><ele>380.0</ele><time>2026-04-27T10:03:40.999Z</time></trkpt><trkpt lat="44.47390179776931" lon="8.486798084638908"><ele>380.0</ele><time>2026-04-27T10:03:41.999Z</time></trkpt><trkpt lat="44.474019397003474" lon="8.486934205679116"><ele>380.0</ele><time>2026-04-27T10:03:42.999Z</time></trkpt><trkpt lat="44.47417154868298" lon="8.487062567712247"><ele>379.6666666666667</ele><time>2026-04-27T10:03:43.999Z</time></trkpt><trkpt lat="44.47433756608589" lon="8.487185124764702"><ele>379.3333333333333</ele><time>2026-04-27T10:03:44.999Z</time></trkpt><trkpt lat="44.474505877945504" lon="8.487290983524627"><ele>379.0</ele><time>2026-04-27T10:03:45.999Z</time></trkpt><trkpt lat="44.47469653049279" lon="8.487307796409706"><ele>377.66666666666663</ele><time>2026-04-27T10:03:46.999Z</time></trkpt><trkpt lat="44.47488574325762" lon="8.48725081921943"><ele>376.3333333333333</ele><time>2026-04-27T10:03:47.999Z</time></trkpt><trkpt lat="44.47508077799298" lon="8.487152195142059"><ele>375.0</ele><time>2026-04-27T10:03:48.999Z</time></trkpt><trkpt lat="44.475275292034375" lon="8.487103927635866"><ele>373.25</ele><time>2026-04-27T10:03:49.999Z</time></trkpt><trkpt lat="44.47542244472844" lon="8.487060795695356"><ele>371.5</ele><time>2026-04-27T10:03:50.999Z</time></trkpt><trkpt lat="44.4755397926664" lon="8.487045569266227"><ele>369.75</ele><time>2026-04-27T10:03:51.999Z</time></trkpt><trkpt lat="44.475659594672415" lon="8.487002069807911"><ele>368.0</ele><time>2026-04-27T10:03:52.999Z</time></trkpt><trkpt lat="44.47577883900501" lon="8.486870190233956"><ele>368.0</ele><time>2026-04-27T10:03:53.999Z</time></trkpt><trkpt lat="44.475884106447516" lon="8.486684489809955"><ele>368.0</ele><time>2026-04-27T10:03:54.999Z</time></trkpt><trkpt lat="44.4759980679859" lon="8.486502019042572"><ele>368.0</ele><time>2026-04-27T10:03:55.999Z</time></trkpt><trkpt lat="44.4761260906294" lon="8.486333521083568"><ele>367.0</ele><time>2026-04-27T10:03:56.999Z</time></trkpt><trkpt lat="44.47625945308181" lon="8.486150315338662"><ele>366.0</ele><time>2026-04-27T10:03:57.999Z</time></trkpt><trkpt lat="44.47637664353671" lon="8.485988148057523"><ele>365.0</ele><time>2026-04-27T10:03:58.999Z</time></trkpt><trkpt lat="44.47648312736056" lon="8.485840033172366"><ele>364.75</ele><time>2026-04-27T10:03:59.999Z</time></trkpt><trkpt lat="44.47659114135254" lon="8.485715342088637"><ele>364.5</ele><time>2026-04-27T10:04:00.999Z</time></trkpt><trkpt lat="44.4767167187667" lon="8.4856491008491"><ele>364.25</ele><time>2026-04-27T10:04:01.999Z</time></trkpt><trkpt lat="44.47684884320188" lon="8.485593131620286"><ele>364.0</ele><time>2026-04-27T10:04:02.999Z</time></trkpt><trkpt lat="44.47699351898026" lon="8.48561889407177"><ele>364.3333333333333</ele><time>2026-04-27T10:04:03.999Z</time></trkpt><trkpt lat="44.47713876290339" lon="8.48567855749134"><ele>364.6666666666667</ele><time>2026-04-27T10:04:04.999Z</time></trkpt><trkpt lat="44.4772934173278" lon="8.485801716672915"><ele>365.0</ele><time>2026-04-27T10:04:05.999Z</time></trkpt><trkpt lat="44.477462736656385" lon="8.485960925016522"><ele>365.0</ele><time>2026-04-27T10:04:06.999Z</time></trkpt><trkpt lat="44.47762429706963" lon="8.486099794846226"><ele>365.0</ele><time>2026-04-27T10:04:07.999Z</time></trkpt><trkpt lat="44.47773082757398" lon="8.486252414792899"><ele>365.0</ele><time>2026-04-27T10:04:08.999Z</time></trkpt><trkpt lat="44.477821198267215" lon="8.486406073888126"><ele>364.6666666666667</ele><time>2026-04-27T10:04:09.999Z</time></trkpt><trkpt lat="44.47789565869098" lon="8.486613229031535"><ele>364.3333333333333</ele><time>2026-04-27T10:04:10.999Z</time></trkpt><trkpt lat="44.47796296076156" lon="8.486843676941552"><ele>364.0</ele><time>2026-04-27T10:04:11.999Z</time></trkpt><trkpt lat="44.47803524043809" lon="8.48707708641263"><ele>368.0</ele><time>2026-04-27T10:04:12.999Z</time></trkpt><trkpt lat="44.478083089658824" lon="8.487284228739908"><ele>372.0</ele><time>2026-04-27T10:04:13.999Z</time></trkpt><trkpt lat="44.47811720859814" lon="8.487504516962925"><ele>376.0</ele><time>2026-04-27T10:04:14.999Z</time></trkpt><trkpt lat="44.478151435428764" lon="8.487723123747024"><ele>376.5</ele><time>2026-04-27T10:04:15.999Z</time></trkpt><trkpt lat="44.47816681389918" lon="8.487956384103445"><ele>377.0</ele><time>2026-04-27T10:04:16.999Z</time></trkpt><trkpt lat="44.47817131575077" lon="8.488169890548772"><ele>377.5</ele><time>2026-04-27T10:04:17.999Z</time></trkpt><trkpt lat="44.478164028328855" lon="8.488336928739749"><ele>378.0</ele><time>2026-04-27T10:04:18.999Z</time></trkpt><trkpt lat="44.478164675456924" lon="8.48850182646437"><ele>378.0</ele><time>2026-04-27T10:04:19.999Z</time></trkpt><trkpt lat="44.478192564929095" lon="8.48865948354024"><ele>378.0</ele><time>2026-04-27T10:04:20.999Z</time></trkpt><trkpt lat="44.478245978891685" lon="8.488759933859463"><ele>378.0</ele><time>2026-04-27T10:04:21.999Z</time></trkpt><trkpt lat="44.47833422848621" lon="8.488843321397166"><ele>378.0</ele><time>2026-04-27T10:04:22.999Z</time></trkpt><trkpt lat="44.47847619166844" lon="8.488855306752344"><ele>379.5</ele><time>2026-04-27T10:04:23.999Z</time></trkpt><trkpt lat="44.47865317173612" lon="8.488856058480991"><ele>381.0</ele><time>2026-04-27T10:04:24.999Z</time></trkpt><trkpt lat="44.47876380701245" lon="8.488883308579114"><ele>382.5</ele><time>2026-04-27T10:04:25.999Z</time></trkpt><trkpt lat="44.478878101378754" lon="8.488896957263304"><ele>384.0</ele><time>2026-04-27T10:04:26.999Z</time></trkpt><trkpt lat="44.47898654239896" lon="8.488917774295706"><ele>384.5</ele><time>2026-04-27T10:04:27.998Z</time></trkpt><trkpt lat="44.4790763246827" lon="8.488968966054347"><ele>385.0</ele><time>2026-04-27T10:04:28.998Z</time></trkpt><trkpt lat="44.47915016460085" lon="8.489070564575943"><ele>385.5</ele><time>2026-04-27T10:04:29.998Z</time></trkpt><trkpt lat="44.479165444416424" lon="8.489234662051972"><ele>386.0</ele><time>2026-04-27T10:04:30.998Z</time></trkpt><trkpt lat="44.47920426132632" lon="8.489424441658377"><ele>386.0</ele><time>2026-04-27T10:04:31.998Z</time></trkpt><trkpt lat="44.479234028387836" lon="8.489584249492884"><ele>386.0</ele><time>2026-04-27T10:04:32.998Z</time></trkpt><trkpt lat="44.47927995407015" lon="8.489701809838309"><ele>386.0</ele><time>2026-04-27T10:04:33.998Z</time></trkpt><trkpt lat="44.479308542225695" lon="8.48981830436466"><ele>386.0</ele><time>2026-04-27T10:04:34.998Z</time></trkpt><trkpt lat="44.47933811688452" lon="8.489964129793886"><ele>386.0</ele><time>2026-04-27T10:04:35.998Z</time></trkpt><trkpt lat="44.47938701299425" lon="8.490084229626605"><ele>386.3333333333333</ele><time>2026-04-27T10:04:36.998Z</time></trkpt><trkpt lat="44.479410017999555" lon="8.490174219076321"><ele>386.66666666666663</ele><time>2026-04-27T10:04:37.998Z</time></trkpt><trkpt lat="44.47940827764898" lon="8.490348964060255"><ele>387.0</ele><time>2026-04-27T10:04:40Z</time></trkpt><trkpt lat="44.47941606413765" lon="8.490448985475929"><ele>387.33333333333337</ele><time>2026-04-27T10:04:41Z</time></trkpt><trkpt lat="44.479427278671906" lon="8.490550725471506"><ele>387.6666666666667</ele><time>2026-04-27T10:04:42Z</time></trkpt><trkpt lat="44.47944064315298" lon="8.490653103361705"><ele>388.0</ele><time>2026-04-27T10:04:43Z</time></trkpt><trkpt lat="44.47945532119669" lon="8.490763570640356"><ele>388.0</ele><time>2026-04-27T10:04:44Z</time></trkpt><trkpt lat="44.4794693483887" lon="8.490867561075689"><ele>388.0</ele><time>2026-04-27T10:04:45Z</time></trkpt><trkpt lat="44.47948516481527" lon="8.490984816118758"><ele>388.0</ele><time>2026-04-27T10:04:46Z</time></trkpt><trkpt lat="44.47950197247128" lon="8.49110941942801"><ele>388.0</ele><time>2026-04-27T10:04:47Z</time></trkpt><trkpt lat="44.47952130034292" lon="8.491252706461731"><ele>388.0</ele><time>2026-04-27T10:04:48Z</time></trkpt><trkpt lat="44.47954387557041" lon="8.491399580833559"><ele>388.25</ele><time>2026-04-27T10:04:49Z</time></trkpt><trkpt lat="44.47956805044055" lon="8.491554567674896"><ele>388.5</ele><time>2026-04-27T10:04:50Z</time></trkpt><trkpt lat="44.479598691621085" lon="8.491709958281868"><ele>388.75</ele><time>2026-04-27T10:04:51Z</time></trkpt><trkpt lat="44.47963745318684" lon="8.491873897308697"><ele>389.0</ele><time>2026-04-27T10:04:52Z</time></trkpt><trkpt lat="44.47966717891045" lon="8.492047083545136"><ele>387.75</ele><time>2026-04-27T10:04:53Z</time></trkpt><trkpt lat="44.47971325041176" lon="8.492220990783188"><ele>386.5</ele><time>2026-04-27T10:04:54Z</time></trkpt><trkpt lat="44.47976553886333" lon="8.49240406019634"><ele>385.25</ele><time>2026-04-27T10:04:55Z</time></trkpt><trkpt lat="44.47980929910418" lon="8.49260313544724"><ele>384.0</ele><time>2026-04-27T10:04:56Z</time></trkpt><trkpt lat="44.479864430996166" lon="8.492797258398104"><ele>386.0</ele><time>2026-04-27T10:04:57Z</time></trkpt><trkpt lat="44.47991854388683" lon="8.493006093942096"><ele>388.0</ele><time>2026-04-27T10:04:58Z</time></trkpt><trkpt lat="44.479974981700835" lon="8.493213415469937"><ele>390.0</ele><time>2026-04-27T10:04:59Z</time></trkpt><trkpt lat="44.48004007099847" lon="8.49342334623686"><ele>390.0</ele><time>2026-04-27T10:05:00Z</time></trkpt><trkpt lat="44.48010421683896" lon="8.493640691959827"><ele>390.0</ele><time>2026-04-27T10:05:01Z</time></trkpt><trkpt lat="44.48019244899518" lon="8.493837833016194"><ele>390.0</ele><time>2026-04-27T10:05:02Z</time></trkpt><trkpt lat="44.48029989974372" lon="8.494027705246767"><ele>386.6666666666667</ele><time>2026-04-27T10:05:03Z</time></trkpt><trkpt lat="44.480429472445586" lon="8.494191744582457"><ele>383.33333333333337</ele><time>2026-04-27T10:05:04Z</time></trkpt><trkpt lat="44.480582988769214" lon="8.494322160203444"><ele>380.0</ele><time>2026-04-27T10:05:05Z</time></trkpt><trkpt lat="44.480745562931546" lon="8.494455611678793"><ele>385.0</ele><time>2026-04-27T10:05:06Z</time></trkpt><trkpt lat="44.48090924439308" lon="8.49459198936899"><ele>390.0</ele><time>2026-04-27T10:05:07Z</time></trkpt><trkpt lat="44.48107613627403" lon="8.49473974787898"><ele>395.0</ele><time>2026-04-27T10:05:08Z</time></trkpt><trkpt lat="44.48124110202196" lon="8.494905835034032"><ele>391.66666666666663</ele><time>2026-04-27T10:05:09Z</time></trkpt><trkpt lat="44.481395190410986" lon="8.495082877197637"><ele>388.33333333333337</ele><time>2026-04-27T10:05:10Z</time></trkpt><trkpt lat="44.481523029925775" lon="8.495295783838401"><ele>385.0</ele><time>2026-04-27T10:05:11Z</time></trkpt><trkpt lat="44.48163566788479" lon="8.495521749922148"><ele>385.0</ele><time>2026-04-27T10:05:12Z</time></trkpt><trkpt lat="44.48174460878207" lon="8.4957585400771"><ele>385.0</ele><time>2026-04-27T10:05:13Z</time></trkpt><trkpt lat="44.481838819351886" lon="8.495967436810055"><ele>385.0</ele><time>2026-04-27T10:05:14Z</time></trkpt><trkpt lat="44.48193030298418" lon="8.496165441000846"><ele>383.6666666666667</ele><time>2026-04-27T10:05:15Z</time></trkpt><trkpt lat="44.48201712511431" lon="8.496365817321477"><ele>382.33333333333337</ele><time>2026-04-27T10:05:16Z</time></trkpt><trkpt lat="44.48209979600395" lon="8.49656757028357"><ele>381.0</ele><time>2026-04-27T10:05:17Z</time></trkpt><trkpt lat="44.482180238750274" lon="8.496774419974317"><ele>381.0</ele><time>2026-04-27T10:05:18Z</time></trkpt><trkpt lat="44.482259447033805" lon="8.496996583209137"><ele>381.0</ele><time>2026-04-27T10:05:19Z</time></trkpt><trkpt lat="44.48233187588621" lon="8.497211559981954"><ele>381.0</ele><time>2026-04-27T10:05:20Z</time></trkpt><trkpt lat="44.48237961094808" lon="8.497395361137105"><ele>381.75</ele><time>2026-04-27T10:05:21Z</time></trkpt><trkpt lat="44.48243507837887" lon="8.497581379444567"><ele>382.5</ele><time>2026-04-27T10:05:22Z</time></trkpt><trkpt lat="44.48249409335944" lon="8.497772825322002"><ele>383.25</ele><time>2026-04-27T10:05:23Z</time></trkpt><trkpt lat="44.482553074878" lon="8.497967420433733"><ele>384.0</ele><time>2026-04-27T10:05:24Z</time></trkpt><trkpt lat="44.48261440695177" lon="8.498169033534028"><ele>384.66666666666663</ele><time>2026-04-27T10:05:25Z</time></trkpt><trkpt lat="44.48268703724827" lon="8.49836639583631"><ele>385.3333333333333</ele><time>2026-04-27T10:05:25.999Z</time></trkpt><trkpt lat="44.4827785224156" lon="8.498578717368503"><ele>386.0</ele><time>2026-04-27T10:05:26.999Z</time></trkpt><trkpt lat="44.482879790898025" lon="8.498784619063308"><ele>385.0</ele><time>2026-04-27T10:05:27.999Z</time></trkpt><trkpt lat="44.4829712309655" lon="8.498966915021363"><ele>384.0</ele><time>2026-04-27T10:05:28.999Z</time></trkpt><trkpt lat="44.48305919740798" lon="8.499152250894811"><ele>383.0</ele><time>2026-04-27T10:05:29.999Z</time></trkpt><trkpt lat="44.483147282337" lon="8.499329777047004"><ele>383.0</ele><time>2026-04-27T10:05:30.999Z</time></trkpt><trkpt lat="44.48323381067746" lon="8.499489171814826"><ele>383.0</ele><time>2026-04-27T10:05:31.999Z</time></trkpt><trkpt lat="44.48330718183559" lon="8.499633056589063"><ele>383.0</ele><time>2026-04-27T10:05:32.999Z</time></trkpt><trkpt lat="44.48336793663879" lon="8.499764910890661"><ele>383.0</ele><time>2026-04-27T10:05:33.999Z</time></trkpt><trkpt lat="44.48341710700019" lon="8.49991851798143"><ele>383.5</ele><time>2026-04-27T10:05:34.999Z</time></trkpt><trkpt lat="44.48345529625368" lon="8.500102607704623"><ele>384.0</ele><time>2026-04-27T10:05:35.999Z</time></trkpt><trkpt lat="44.48348027963862" lon="8.500300105010528"><ele>384.5</ele><time>2026-04-27T10:05:36.999Z</time></trkpt><trkpt lat="44.48349919796036" lon="8.500513619717585"><ele>385.0</ele><time>2026-04-27T10:05:37.999Z</time></trkpt><trkpt lat="44.48351332869743" lon="8.500734757147791"><ele>385.0</ele><time>2026-04-27T10:05:38.999Z</time></trkpt><trkpt lat="44.48352652609037" lon="8.500937519838201"><ele>385.0</ele><time>2026-04-27T10:05:39.999Z</time></trkpt><trkpt lat="44.48354677032413" lon="8.501119560661568"><ele>385.0</ele><time>2026-04-27T10:05:40.999Z</time></trkpt><trkpt lat="44.48358311509924" lon="8.50130108705226"><ele>385.0</ele><time>2026-04-27T10:05:41.999Z</time></trkpt><trkpt lat="44.48364287462644" lon="8.50145363796794"><ele>385.0</ele><time>2026-04-27T10:05:42.999Z</time></trkpt><trkpt lat="44.48372145553484" lon="8.50157249790242"><ele>385.0</ele><time>2026-04-27T10:05:43.999Z</time></trkpt><trkpt lat="44.48379371471587" lon="8.501658020138553"><ele>385.0</ele><time>2026-04-27T10:05:44.999Z</time></trkpt><trkpt lat="44.483867323211605" lon="8.501754133881441"><ele>385.0</ele><time>2026-04-27T10:05:45.999Z</time></trkpt><trkpt lat="44.48392678519306" lon="8.501877063877252"><ele>385.0</ele><time>2026-04-27T10:05:46.999Z</time></trkpt><trkpt lat="44.48397439833179" lon="8.502037721814334"><ele>385.75</ele><time>2026-04-27T10:05:47.999Z</time></trkpt><trkpt lat="44.48400010859107" lon="8.502245182843225"><ele>386.5</ele><time>2026-04-27T10:05:48.999Z</time></trkpt><trkpt lat="44.48404856506545" lon="8.502418121119844"><ele>387.25</ele><time>2026-04-27T10:05:49.999Z</time></trkpt><trkpt lat="44.48407290203667" lon="8.502575496739043"><ele>388.0</ele><time>2026-04-27T10:05:50.999Z</time></trkpt><trkpt lat="44.48409745924874" lon="8.502718477901725"><ele>388.0</ele><time>2026-04-27T10:05:51.999Z</time></trkpt><trkpt lat="44.48412137401449" lon="8.502865754468655"><ele>388.0</ele><time>2026-04-27T10:05:52.999Z</time></trkpt><trkpt lat="44.48413165157349" lon="8.50302181593566"><ele>388.0</ele><time>2026-04-27T10:05:53.999Z</time></trkpt><trkpt lat="44.48412325851268" lon="8.50318529265366"><ele>388.0</ele><time>2026-04-27T10:05:54.999Z</time></trkpt><trkpt lat="44.48408049420449" lon="8.503343230161192"><ele>388.59999999999997</ele><time>2026-04-27T10:05:55.999Z</time></trkpt><trkpt lat="44.48404759664725" lon="8.503546646998853"><ele>389.2</ele><time>2026-04-27T10:05:57.999Z</time></trkpt><trkpt lat="44.48401916993124" lon="8.503667219310845"><ele>389.8</ele><time>2026-04-27T10:05:58.999Z</time></trkpt><trkpt lat="44.484056281904756" lon="8.50379855511535"><ele>390.4</ele><time>2026-04-27T10:05:59.999Z</time></trkpt><trkpt lat="44.48411254206676" lon="8.503918003654613"><ele>391.0</ele><time>2026-04-27T10:06:00.999Z</time></trkpt><trkpt lat="44.484201503639866" lon="8.504021284423818"><ele>390.6666666666667</ele><time>2026-04-27T10:06:01.999Z</time></trkpt><trkpt lat="44.48433328520232" lon="8.504083548458802"><ele>390.33333333333337</ele><time>2026-04-27T10:06:02.999Z</time></trkpt><trkpt lat="44.48450708795298" lon="8.504149692196943"><ele>390.0</ele><time>2026-04-27T10:06:03.999Z</time></trkpt><trkpt lat="44.48468243773596" lon="8.50421511907025"><ele>390.0</ele><time>2026-04-27T10:06:04.999Z</time></trkpt><trkpt lat="44.48483537978513" lon="8.504206050385793"><ele>390.0</ele><time>2026-04-27T10:06:05.999Z</time></trkpt><trkpt lat="44.48496044369224" lon="8.504101286501353"><ele>390.0</ele><time>2026-04-27T10:06:06.999Z</time></trkpt><trkpt lat="44.48505273194619" lon="8.50392986603447"><ele>390.0</ele><time>2026-04-27T10:06:07.999Z</time></trkpt><trkpt lat="44.48512461677431" lon="8.503743998711426"><ele>390.0</ele><time>2026-04-27T10:06:08.999Z</time></trkpt><trkpt lat="44.48521314090874" lon="8.503658851692567"><ele>390.0</ele><time>2026-04-27T10:06:09.999Z</time></trkpt><trkpt lat="44.48530808955094" lon="8.503688862244799"><ele>390.0</ele><time>2026-04-27T10:06:10.999Z</time></trkpt><trkpt lat="44.48537559620001" lon="8.503855473557831"><ele>390.0</ele><time>2026-04-27T10:06:11.999Z</time></trkpt><trkpt lat="44.48549772525151" lon="8.504014713209262"><ele>390.0</ele><time>2026-04-27T10:06:12.999Z</time></trkpt><trkpt lat="44.485643483097135" lon="8.50418472919102"><ele>390.0</ele><time>2026-04-27T10:06:13.999Z</time></trkpt><trkpt lat="44.48581134453179" lon="8.504403354410584"><ele>390.0</ele><time>2026-04-27T10:06:14.999Z</time></trkpt><trkpt lat="44.485981037307845" lon="8.504626938123186"><ele>390.0</ele><time>2026-04-27T10:06:15.999Z</time></trkpt><trkpt lat="44.48615202133382" lon="8.504867584499369"><ele>390.0</ele><time>2026-04-27T10:06:16.999Z</time></trkpt><trkpt lat="44.4863042257425" lon="8.505071870790127"><ele>390.0</ele><time>2026-04-27T10:06:17.999Z</time></trkpt><trkpt lat="44.48645102150015" lon="8.505220196991894"><ele>390.0</ele><time>2026-04-27T10:06:18.999Z</time></trkpt><trkpt lat="44.48657772946487" lon="8.505280937836464"><ele>390.0</ele><time>2026-04-27T10:06:19.999Z</time></trkpt><trkpt lat="44.48671075102574" lon="8.505252750870897"><ele>390.0</ele><time>2026-04-27T10:06:20.999Z</time></trkpt><trkpt lat="44.48683061863047" lon="8.50512562059508"><ele>390.0</ele><time>2026-04-27T10:06:21.999Z</time></trkpt><trkpt lat="44.486930340749446" lon="8.504916356923543"><ele>390.0</ele><time>2026-04-27T10:06:22.999Z</time></trkpt><trkpt lat="44.48704979405258" lon="8.504751992631183"><ele>390.0</ele><time>2026-04-27T10:06:23.999Z</time></trkpt><trkpt lat="44.48718473011063" lon="8.504641788929762"><ele>390.0</ele><time>2026-04-27T10:06:24.999Z</time></trkpt><trkpt lat="44.487370554770884" lon="8.504652203844863"><ele>391.0</ele><time>2026-04-27T10:06:25.999Z</time></trkpt><trkpt lat="44.4875685979009" lon="8.504754872967924"><ele>392.0</ele><time>2026-04-27T10:06:26.999Z</time></trkpt><trkpt lat="44.487768718565476" lon="8.504927156476633"><ele>393.0</ele><time>2026-04-27T10:06:27.999Z</time></trkpt><trkpt lat="44.4879839688844" lon="8.50515926507009"><ele>394.0</ele><time>2026-04-27T10:06:28.999Z</time></trkpt><trkpt lat="44.48821510608502" lon="8.505401315807156"><ele>395.0</ele><time>2026-04-27T10:06:29.999Z</time></trkpt><trkpt lat="44.488451912186655" lon="8.505596345426778"><ele>395.0</ele><time>2026-04-27T10:06:30.999Z</time></trkpt><trkpt lat="44.488667693262904" lon="8.505749597276067"><ele>395.0</ele><time>2026-04-27T10:06:31.999Z</time></trkpt><trkpt lat="44.48885885866458" lon="8.505911103783534"><ele>396.5</ele><time>2026-04-27T10:06:32.999Z</time></trkpt><trkpt lat="44.489019924579175" lon="8.506114357467613"><ele>398.0</ele><time>2026-04-27T10:06:33.999Z</time></trkpt><trkpt lat="44.489141817001325" lon="8.506400917076375"><ele>398.0</ele><time>2026-04-27T10:06:34.999Z</time></trkpt><trkpt lat="44.489254988523854" lon="8.506753928803487"><ele>398.0</ele><time>2026-04-27T10:06:35.998Z</time></trkpt><trkpt lat="44.489400548319125" lon="8.507130751358735"><ele>398.5</ele><time>2026-04-27T10:06:36.998Z</time></trkpt><trkpt lat="44.48955752759126" lon="8.507499143033913"><ele>399.0</ele><time>2026-04-27T10:06:37.998Z</time></trkpt><trkpt lat="44.4896947760421" lon="8.507831817094777"><ele>403.5</ele><time>2026-04-27T10:06:38.998Z</time></trkpt><trkpt lat="44.489817134296416" lon="8.508134765229642"><ele>408.0</ele><time>2026-04-27T10:06:39.998Z</time></trkpt><trkpt lat="44.489937951934344" lon="8.50844499812496"><ele>408.5</ele><time>2026-04-27T10:06:40.998Z</time></trkpt><trkpt lat="44.490034385775" lon="8.508780058689979"><ele>409.0</ele><time>2026-04-27T10:06:41.998Z</time></trkpt><trkpt lat="44.490094982657816" lon="8.509105865726216"><ele>409.0</ele><time>2026-04-27T10:06:42.998Z</time></trkpt><trkpt lat="44.49014459970197" lon="8.509401669097223"><ele>409.0</ele><time>2026-04-27T10:06:43.998Z</time></trkpt><trkpt lat="44.49023313230321" lon="8.509660008827781"><ele>409.0</ele><time>2026-04-27T10:06:45Z</time></trkpt><trkpt lat="44.490373896730794" lon="8.509884598867053"><ele>414.5</ele><time>2026-04-27T10:06:46Z</time></trkpt><trkpt lat="44.4905500786582" lon="8.510124099984303"><ele>420.0</ele><time>2026-04-27T10:06:47Z</time></trkpt><trkpt lat="44.49073997250308" lon="8.510388730231176"><ele>417.0</ele><time>2026-04-27T10:06:48Z</time></trkpt><trkpt lat="44.4909338415597" lon="8.510668068627448"><ele>414.0</ele><time>2026-04-27T10:06:49Z</time></trkpt><trkpt lat="44.491129703194" lon="8.51095249972283"><ele>415.0</ele><time>2026-04-27T10:06:50Z</time></trkpt><trkpt lat="44.491331564252114" lon="8.511247717604064"><ele>416.0</ele><time>2026-04-27T10:06:51Z</time></trkpt><trkpt lat="44.491524509980415" lon="8.511525655421403"><ele>416.0</ele><time>2026-04-27T10:06:52Z</time></trkpt><trkpt lat="44.49169329337917" lon="8.511775873792223"><ele>416.0</ele><time>2026-04-27T10:06:53Z</time></trkpt><trkpt lat="44.491848106199754" lon="8.512002043894643"><ele>415.0</ele><time>2026-04-27T10:06:54Z</time></trkpt><trkpt lat="44.49198742333471" lon="8.512225285824266"><ele>414.0</ele><time>2026-04-27T10:06:55Z</time></trkpt><trkpt lat="44.492108143271565" lon="8.512460221046407"><ele>413.0</ele><time>2026-04-27T10:06:56Z</time></trkpt><trkpt lat="44.49220847181475" lon="8.51270592843942"><ele>415.3333333333333</ele><time>2026-04-27T10:06:57Z</time></trkpt><trkpt lat="44.49230208499756" lon="8.512927179526242"><ele>417.66666666666663</ele><time>2026-04-27T10:06:58Z</time></trkpt><trkpt lat="44.49239049090951" lon="8.513121359066432"><ele>420.0</ele><time>2026-04-27T10:06:59Z</time></trkpt><trkpt lat="44.49246895443023" lon="8.513300835902264"><ele>420.0</ele><time>2026-04-27T10:07:00Z</time></trkpt><trkpt lat="44.49254686093575" lon="8.5134845005942"><ele>420.0</ele><time>2026-04-27T10:07:01Z</time></trkpt><trkpt lat="44.492636089598555" lon="8.513694713452319"><ele>420.0</ele><time>2026-04-27T10:07:02Z</time></trkpt><trkpt lat="44.49272160260142" lon="8.513944570131661"><ele>420.33333333333337</ele><time>2026-04-27T10:07:03Z</time></trkpt><trkpt lat="44.49282413861513" lon="8.514180358136809"><ele>420.6666666666667</ele><time>2026-04-27T10:07:04Z</time></trkpt><trkpt lat="44.49291653033992" lon="8.514398433253323"><ele>421.0</ele><time>2026-04-27T10:07:05Z</time></trkpt><trkpt lat="44.492892699528994" lon="8.514665251271474"><ele>422.0</ele><time>2026-04-27T10:07:06Z</time></trkpt><trkpt lat="44.492949892663574" lon="8.514803610702383"><ele>423.0</ele><time>2026-04-27T10:07:07Z</time></trkpt><trkpt lat="44.493020263043924" lon="8.514937178568948"><ele>424.0</ele><time>2026-04-27T10:07:08Z</time></trkpt><trkpt lat="44.49315933468356" lon="8.514991246007021"><ele>425.0</ele><time>2026-04-27T10:07:09Z</time></trkpt><trkpt lat="44.49334790450742" lon="8.51501301012002"><ele>425.0</ele><time>2026-04-27T10:07:10Z</time></trkpt><trkpt lat="44.493559839130555" lon="8.515024637012676"><ele>425.0</ele><time>2026-04-27T10:07:11Z</time></trkpt><trkpt lat="44.49375629853442" lon="8.515059853537908"><ele>425.0</ele><time>2026-04-27T10:07:12Z</time></trkpt><trkpt lat="44.493913555552915" lon="8.515132349365745"><ele>426.66666666666663</ele><time>2026-04-27T10:07:13Z</time></trkpt><trkpt lat="44.494054318851354" lon="8.5152604427297"><ele>428.33333333333337</ele><time>2026-04-27T10:07:14Z</time></trkpt><trkpt lat="44.494176318366684" lon="8.515451561691949"><ele>430.0</ele><time>2026-04-27T10:07:15Z</time></trkpt><trkpt lat="44.49426138444013" lon="8.515717324086262"><ele>430.0</ele><time>2026-04-27T10:07:16Z</time></trkpt><trkpt lat="44.494352145255036" lon="8.5160618252505"><ele>430.0</ele><time>2026-04-27T10:07:17Z</time></trkpt><trkpt lat="44.49452325439561" lon="8.516397745051771"><ele>433.0</ele><time>2026-04-27T10:07:18Z</time></trkpt><trkpt lat="44.4947231243187" lon="8.516693848582337"><ele>436.0</ele><time>2026-04-27T10:07:19Z</time></trkpt><trkpt lat="44.494901163162005" lon="8.516993660596214"><ele>433.5</ele><time>2026-04-27T10:07:20Z</time></trkpt><trkpt lat="44.49503272300476" lon="8.51731094494637"><ele>431.0</ele><time>2026-04-27T10:07:21Z</time></trkpt><trkpt lat="44.495132789395285" lon="8.517639143930635"><ele>428.5</ele><time>2026-04-27T10:07:22Z</time></trkpt><trkpt lat="44.49523611608531" lon="8.517961163579761"><ele>426.0</ele><time>2026-04-27T10:07:23Z</time></trkpt><trkpt lat="44.495337744590394" lon="8.518259503952535"><ele>430.5</ele><time>2026-04-27T10:07:24Z</time></trkpt><trkpt lat="44.495433364674874" lon="8.518546603753114"><ele>435.0</ele><time>2026-04-27T10:07:25Z</time></trkpt><trkpt lat="44.495532285627945" lon="8.518832168055505"><ele>435.0</ele><time>2026-04-27T10:07:26Z</time></trkpt><trkpt lat="44.4956267127739" lon="8.51911605333069"><ele>435.0</ele><time>2026-04-27T10:07:27Z</time></trkpt><trkpt lat="44.49571908272529" lon="8.51937892397042"><ele>435.0</ele><time>2026-04-27T10:07:28Z</time></trkpt><trkpt lat="44.495813702037566" lon="8.51961943925058"><ele>434.33333333333337</ele><time>2026-04-27T10:07:28.999Z</time></trkpt><trkpt lat="44.49590129711345" lon="8.51985055627441"><ele>433.6666666666667</ele><time>2026-04-27T10:07:29.999Z</time></trkpt><trkpt lat="44.495956295603555" lon="8.520117197638626"><ele>433.0</ele><time>2026-04-27T10:07:30.999Z</time></trkpt><trkpt lat="44.495948041554435" lon="8.520425449886247"><ele>433.0</ele><time>2026-04-27T10:07:31.999Z</time></trkpt><trkpt lat="44.495924165574436" lon="8.520752102469006"><ele>433.0</ele><time>2026-04-27T10:07:32.999Z</time></trkpt><trkpt lat="44.49591852277995" lon="8.521043485129969"><ele>433.0</ele><time>2026-04-27T10:07:33.999Z</time></trkpt><trkpt lat="44.49590551879284" lon="8.521318425806399"><ele>433.0</ele><time>2026-04-27T10:07:34.999Z</time></trkpt><trkpt lat="44.49585226015511" lon="8.521583109980844"><ele>433.0</ele><time>2026-04-27T10:07:35.999Z</time></trkpt><trkpt lat="44.49577606249093" lon="8.521818437769488"><ele>433.0</ele><time>2026-04-27T10:07:36.999Z</time></trkpt><trkpt lat="44.49570192044112" lon="8.522019358485467"><ele>433.0</ele><time>2026-04-27T10:07:37.999Z</time></trkpt><trkpt lat="44.495604510317854" lon="8.522148057817487"><ele>433.0</ele><time>2026-04-27T10:07:38.999Z</time></trkpt><trkpt lat="44.495472349589235" lon="8.522210554631274"><ele>433.0</ele><time>2026-04-27T10:07:39.999Z</time></trkpt><trkpt lat="44.495319416510384" lon="8.522212283768416"><ele>433.0</ele><time>2026-04-27T10:07:40.999Z</time></trkpt><trkpt lat="44.49516031565718" lon="8.522230864441942"><ele>433.0</ele><time>2026-04-27T10:07:41.999Z</time></trkpt><trkpt lat="44.495043364774446" lon="8.522299927650344"><ele>433.0</ele><time>2026-04-27T10:07:42.999Z</time></trkpt><trkpt lat="44.49495018688593" lon="8.522454099773672"><ele>433.0</ele><time>2026-04-27T10:07:43.999Z</time></trkpt><trkpt lat="44.49489646082735" lon="8.522692470324063"><ele>433.0</ele><time>2026-04-27T10:07:44.999Z</time></trkpt><trkpt lat="44.49484488184622" lon="8.522985927560502"><ele>434.6666666666667</ele><time>2026-04-27T10:07:45.999Z</time></trkpt><trkpt lat="44.49477347527284" lon="8.523276098768257"><ele>436.33333333333337</ele><time>2026-04-27T10:07:46.999Z</time></trkpt><trkpt lat="44.49471006550193" lon="8.523562800948614"><ele>438.0</ele><time>2026-04-27T10:07:47.999Z</time></trkpt><trkpt lat="44.49468370886798" lon="8.523889277743626"><ele>439.5</ele><time>2026-04-27T10:07:48.999Z</time></trkpt><trkpt lat="44.49467248765437" lon="8.52423630990926"><ele>441.0</ele><time>2026-04-27T10:07:49.999Z</time></trkpt><trkpt lat="44.4946552768912" lon="8.524555395411388"><ele>442.66666666666663</ele><time>2026-04-27T10:07:50.999Z</time></trkpt><trkpt lat="44.49462014700659" lon="8.524828211797866"><ele>444.3333333333333</ele><time>2026-04-27T10:07:51.999Z</time></trkpt><trkpt lat="44.49453905228883" lon="8.525057168991285"><ele>446.0</ele><time>2026-04-27T10:07:52.999Z</time></trkpt><trkpt lat="44.49440375591878" lon="8.525239117736758"><ele>446.0</ele><time>2026-04-27T10:07:53.999Z</time></trkpt><trkpt lat="44.49428090051096" lon="8.525379524638307"><ele>446.0</ele><time>2026-04-27T10:07:54.999Z</time></trkpt><trkpt lat="44.49421637827053" lon="8.525548367427193"><ele>446.0</ele><time>2026-04-27T10:07:55.999Z</time></trkpt><trkpt lat="44.494202584194056" lon="8.525809963688534"><ele>448.66666666666663</ele><time>2026-04-27T10:07:56.999Z</time></trkpt><trkpt lat="44.49422151530831" lon="8.526057048471493"><ele>451.33333333333337</ele><time>2026-04-27T10:07:57.999Z</time></trkpt><trkpt lat="44.49428033803394" lon="8.526283497798085"><ele>454.0</ele><time>2026-04-27T10:07:58.999Z</time></trkpt><trkpt lat="44.49437432674763" lon="8.526509755198202"><ele>455.0</ele><time>2026-04-27T10:07:59.999Z</time></trkpt><trkpt lat="44.49445452462537" lon="8.526810169422188"><ele>456.0</ele><time>2026-04-27T10:08:00.999Z</time></trkpt><trkpt lat="44.49449956066804" lon="8.527117940086503"><ele>457.33333333333337</ele><time>2026-04-27T10:08:01.999Z</time></trkpt><trkpt lat="44.494492998516044" lon="8.527407793321892"><ele>458.6666666666667</ele><time>2026-04-27T10:08:02.999Z</time></trkpt><trkpt lat="44.49442496256889" lon="8.527687821869216"><ele>460.0</ele><time>2026-04-27T10:08:03.999Z</time></trkpt><trkpt lat="44.49435692651423" lon="8.527954326071384"><ele>463.0</ele><time>2026-04-27T10:08:04.999Z</time></trkpt><trkpt lat="44.49426899413653" lon="8.528151457906956"><ele>466.0</ele><time>2026-04-27T10:08:05.999Z</time></trkpt><trkpt lat="44.49414046387566" lon="8.528325436991445"><ele>469.0</ele><time>2026-04-27T10:08:06.999Z</time></trkpt><trkpt lat="44.494001761853355" lon="8.528491497435386"><ele>469.0</ele><time>2026-04-27T10:08:07.999Z</time></trkpt><trkpt lat="44.493926395896096" lon="8.528639397293329"><ele>469.0</ele><time>2026-04-27T10:08:08.999Z</time></trkpt><trkpt lat="44.49393345775206" lon="8.528806615411057"><ele>469.0</ele><time>2026-04-27T10:08:09.999Z</time></trkpt><trkpt lat="44.49400589116891" lon="8.529002448642311"><ele>469.0</ele><time>2026-04-27T10:08:10.999Z</time></trkpt><trkpt lat="44.49412664656945" lon="8.529227247401895"><ele>471.0</ele><time>2026-04-27T10:08:11.999Z</time></trkpt><trkpt lat="44.49425620268214" lon="8.529496160792089"><ele>473.0</ele><time>2026-04-27T10:08:12.999Z</time></trkpt><trkpt lat="44.494362983253545" lon="8.529753936968044"><ele>475.0</ele><time>2026-04-27T10:08:13.999Z</time></trkpt><trkpt lat="44.4944314537242" lon="8.529977249596742"><ele>475.0</ele><time>2026-04-27T10:08:14.999Z</time></trkpt><trkpt lat="44.494511459795696" lon="8.530156094097329"><ele>475.0</ele><time>2026-04-27T10:08:15.999Z</time></trkpt><trkpt lat="44.494646653349214" lon="8.530303367292605"><ele>475.0</ele><time>2026-04-27T10:08:16.999Z</time></trkpt><trkpt lat="44.49486052726788" lon="8.530440460363044"><ele>478.0</ele><time>2026-04-27T10:08:17.999Z</time></trkpt><trkpt lat="44.49507072231567" lon="8.530634723109547"><ele>481.0</ele><time>2026-04-27T10:08:18.999Z</time></trkpt><trkpt lat="44.49525384150679" lon="8.530858065652007"><ele>485.33333333333337</ele><time>2026-04-27T10:08:19.999Z</time></trkpt><trkpt lat="44.495423102049614" lon="8.531078175478763"><ele>489.66666666666663</ele><time>2026-04-27T10:08:20.999Z</time></trkpt><trkpt lat="44.4955833599604" lon="8.53124113181404"><ele>494.0</ele><time>2026-04-27T10:08:21.999Z</time></trkpt><trkpt lat="44.49570443201185" lon="8.531363337581961"><ele>494.0</ele><time>2026-04-27T10:08:22.999Z</time></trkpt><trkpt lat="44.49576398417697" lon="8.531485679042285"><ele>494.0</ele><time>2026-04-27T10:08:23.999Z</time></trkpt><trkpt lat="44.49577521135136" lon="8.531650801130082"><ele>494.0</ele><time>2026-04-27T10:08:24.999Z</time></trkpt><trkpt lat="44.49574961561315" lon="8.531873132564684"><ele>494.0</ele><time>2026-04-27T10:08:25.999Z</time></trkpt><trkpt lat="44.49568079512653" lon="8.532125532817497"><ele>494.5</ele><time>2026-04-27T10:08:26.999Z</time></trkpt><trkpt lat="44.495571493745224" lon="8.532298833162024"><ele>495.0</ele><time>2026-04-27T10:08:27.999Z</time></trkpt><trkpt lat="44.495552297423885" lon="8.532476562476102"><ele>495.5</ele><time>2026-04-27T10:08:28.999Z</time></trkpt><trkpt lat="44.49559169100863" lon="8.532627313400015"><ele>496.0</ele><time>2026-04-27T10:08:29.999Z</time></trkpt><trkpt lat="44.49565636581029" lon="8.532820493519642"><ele>498.33333333333337</ele><time>2026-04-27T10:08:30.999Z</time></trkpt><trkpt lat="44.495615258182575" lon="8.53300983564859"><ele>500.66666666666663</ele><time>2026-04-27T10:08:31.999Z</time></trkpt><trkpt lat="44.495567867832825" lon="8.53323601496933"><ele>503.0</ele><time>2026-04-27T10:08:32.999Z</time></trkpt><trkpt lat="44.49552952733433" lon="8.533470536002744"><ele>503.0</ele><time>2026-04-27T10:08:33.999Z</time></trkpt><trkpt lat="44.495538511424556" lon="8.533680873040016"><ele>503.0</ele><time>2026-04-27T10:08:34.999Z</time></trkpt><trkpt lat="44.49560525136277" lon="8.533897795639758"><ele>503.0</ele><time>2026-04-27T10:08:35.999Z</time></trkpt><trkpt lat="44.495672303694406" lon="8.534118824355536"><ele>503.3333333333333</ele><time>2026-04-27T10:08:36.999Z</time></trkpt><trkpt lat="44.495735218151026" lon="8.534314049532746"><ele>503.66666666666663</ele><time>2026-04-27T10:08:37.999Z</time></trkpt><trkpt lat="44.495860321830044" lon="8.534497623930905"><ele>504.0</ele><time>2026-04-27T10:08:38.999Z</time></trkpt><trkpt lat="44.49604793556151" lon="8.534678459369564"><ele>504.0</ele><time>2026-04-27T10:08:39.999Z</time></trkpt><trkpt lat="44.49621409366738" lon="8.534848460237383"><ele>504.0</ele><time>2026-04-27T10:08:40.998Z</time></trkpt><trkpt lat="44.496364524068895" lon="8.534969698666373"><ele>504.0</ele><time>2026-04-27T10:08:41.998Z</time></trkpt><trkpt lat="44.49647405939513" lon="8.53498149904053"><ele>504.0</ele><time>2026-04-27T10:08:42.998Z</time></trkpt><trkpt lat="44.49657039377389" lon="8.53494851109327"><ele>504.0</ele><time>2026-04-27T10:08:43.998Z</time></trkpt><trkpt lat="44.49665184558774" lon="8.534791274452838"><ele>504.0</ele><time>2026-04-27T10:08:44.998Z</time></trkpt><trkpt lat="44.49671457177322" lon="8.534571252164001"><ele>504.0</ele><time>2026-04-27T10:08:45.998Z</time></trkpt><trkpt lat="44.49678922601026" lon="8.53430898834408"><ele>506.75</ele><time>2026-04-27T10:08:46.998Z</time></trkpt><trkpt lat="44.49687925913402" lon="8.534140350632363"><ele>509.5</ele><time>2026-04-27T10:08:47.998Z</time></trkpt><trkpt lat="44.496960245410996" lon="8.534079857796447"><ele>512.25</ele><time>2026-04-27T10:08:48.998Z</time></trkpt><trkpt lat="44.49709716146163" lon="8.534113873197642"><ele>515.0</ele><time>2026-04-27T10:08:49.998Z</time></trkpt><trkpt lat="44.497236795550826" lon="8.534066164544086"><ele>515.0</ele><time>2026-04-27T10:08:51Z</time></trkpt><trkpt lat="44.49737526134888" lon="8.533922578850204"><ele>515.0</ele><time>2026-04-27T10:08:52Z</time></trkpt><trkpt lat="44.49751327596964" lon="8.533934958821765"><ele>515.0</ele><time>2026-04-27T10:08:53Z</time></trkpt><trkpt lat="44.49766952101693" lon="8.534041793342332"><ele>515.0</ele><time>2026-04-27T10:08:54Z</time></trkpt><trkpt lat="44.49787463818001" lon="8.534153805505591"><ele>515.0</ele><time>2026-04-27T10:08:55Z</time></trkpt><trkpt lat="44.49803712781995" lon="8.53429168427824"><ele>515.0</ele><time>2026-04-27T10:08:56Z</time></trkpt><trkpt lat="44.498176594876796" lon="8.534437808642348"><ele>517.0</ele><time>2026-04-27T10:08:57Z</time></trkpt><trkpt lat="44.498273298648144" lon="8.534651147454356"><ele>519.0</ele><time>2026-04-27T10:08:58Z</time></trkpt><trkpt lat="44.498347651197136" lon="8.534897653767876"><ele>521.0</ele><time>2026-04-27T10:08:59Z</time></trkpt><trkpt lat="44.498394129118736" lon="8.535186763110401"><ele>521.3333333333333</ele><time>2026-04-27T10:09:00Z</time></trkpt><trkpt lat="44.49839258651389" lon="8.535484700983528"><ele>521.6666666666666</ele><time>2026-04-27T10:09:01Z</time></trkpt><trkpt lat="44.49842223557686" lon="8.535799511645058"><ele>522.0</ele><time>2026-04-27T10:09:02Z</time></trkpt><trkpt lat="44.49842911155726" lon="8.536147343793676"><ele>526.0</ele><time>2026-04-27T10:09:03Z</time></trkpt><trkpt lat="44.49840338474983" lon="8.536525547373051"><ele>530.0</ele><time>2026-04-27T10:09:04Z</time></trkpt><trkpt lat="44.49839414376524" lon="8.536878630643333"><ele>531.6666666666666</ele><time>2026-04-27T10:09:05Z</time></trkpt><trkpt lat="44.49839503535376" lon="8.53713789001063"><ele>533.3333333333334</ele><time>2026-04-27T10:09:06Z</time></trkpt><trkpt lat="44.49839603362085" lon="8.537342915940219"><ele>535.0</ele><time>2026-04-27T10:09:07Z</time></trkpt><trkpt lat="44.49846214210728" lon="8.537545429457422"><ele>535.0</ele><time>2026-04-27T10:09:08Z</time></trkpt><trkpt lat="44.49857588249222" lon="8.537756148164702"><ele>535.0</ele><time>2026-04-27T10:09:09Z</time></trkpt><trkpt lat="44.49859845034663" lon="8.537993376257203"><ele>535.0</ele><time>2026-04-27T10:09:10Z</time></trkpt><trkpt lat="44.49856955304822" lon="8.538246745849838"><ele>534.3333333333334</ele><time>2026-04-27T10:09:11Z</time></trkpt><trkpt lat="44.49857157758591" lon="8.53845331022203"><ele>533.6666666666666</ele><time>2026-04-27T10:09:12Z</time></trkpt><trkpt lat="44.4986373644673" lon="8.538645402783333"><ele>533.0</ele><time>2026-04-27T10:09:13Z</time></trkpt><trkpt lat="44.49878121741803" lon="8.538869172780462"><ele>537.5</ele><time>2026-04-27T10:09:14Z</time></trkpt><trkpt lat="44.49893162939772" lon="8.539135491763146"><ele>542.0</ele><time>2026-04-27T10:09:15Z</time></trkpt><trkpt lat="44.49901999607812" lon="8.53946002821663"><ele>544.0</ele><time>2026-04-27T10:09:16Z</time></trkpt><trkpt lat="44.499144434209676" lon="8.53980742721254"><ele>546.0</ele><time>2026-04-27T10:09:17Z</time></trkpt><trkpt lat="44.49924601606413" lon="8.540139479726623"><ele>547.3333333333334</ele><time>2026-04-27T10:09:18Z</time></trkpt><trkpt lat="44.499331516419495" lon="8.540405587280617"><ele>548.6666666666667</ele><time>2026-04-27T10:09:19Z</time></trkpt><trkpt lat="44.499343497575175" lon="8.540650879156521"><ele>550.0</ele><time>2026-04-27T10:09:20Z</time></trkpt><trkpt lat="44.4993123156517" lon="8.54090461422205"><ele>550.0</ele><time>2026-04-27T10:09:21Z</time></trkpt><trkpt lat="44.49925590758191" lon="8.541185396445794"><ele>550.0</ele><time>2026-04-27T10:09:22Z</time></trkpt><trkpt lat="44.49922324672454" lon="8.541459050496897"><ele>550.0</ele><time>2026-04-27T10:09:23Z</time></trkpt><trkpt lat="44.499249936223606" lon="8.541742038703742"><ele>551.3333333333334</ele><time>2026-04-27T10:09:24Z</time></trkpt><trkpt lat="44.49932850721005" lon="8.542002082221114"><ele>552.6666666666666</ele><time>2026-04-27T10:09:25Z</time></trkpt><trkpt lat="44.49945875334585" lon="8.542223950572518"><ele>554.0</ele><time>2026-04-27T10:09:26Z</time></trkpt><trkpt lat="44.49962893564005" lon="8.542428344788185"><ele>560.3333333333333</ele><time>2026-04-27T10:09:27Z</time></trkpt><trkpt lat="44.49974864592411" lon="8.542645209400563"><ele>566.6666666666666</ele><time>2026-04-27T10:09:28Z</time></trkpt><trkpt lat="44.49981553223748" lon="8.542902590784227"><ele>573.0</ele><time>2026-04-27T10:09:29Z</time></trkpt><trkpt lat="44.499877595536894" lon="8.54321132365335"><ele>574.0</ele><time>2026-04-27T10:09:30Z</time></trkpt><trkpt lat="44.499958566814364" lon="8.543551786641546"><ele>575.0</ele><time>2026-04-27T10:09:31Z</time></trkpt><trkpt lat="44.50001359569896" lon="8.543878525983182"><ele>576.6666666666666</ele><time>2026-04-27T10:09:32Z</time></trkpt><trkpt lat="44.5000580441591" lon="8.544164685116275"><ele>578.3333333333334</ele><time>2026-04-27T10:09:33Z</time></trkpt><trkpt lat="44.50007611461043" lon="8.54438466143641"><ele>580.0</ele><time>2026-04-27T10:09:34Z</time></trkpt><trkpt lat="44.5000392318388" lon="8.544522247824869"><ele>582.75</ele><time>2026-04-27T10:09:35Z</time></trkpt><trkpt lat="44.49996175757104" lon="8.54462422530239"><ele>585.5</ele><time>2026-04-27T10:09:35.999Z</time></trkpt><trkpt lat="44.4998528060684" lon="8.544750289381728"><ele>588.25</ele><time>2026-04-27T10:09:36.999Z</time></trkpt><trkpt lat="44.49969754256618" lon="8.544702121102288"><ele>591.0</ele><time>2026-04-27T10:09:37.999Z</time></trkpt><trkpt lat="44.49953456549448" lon="8.54469241401916"><ele>591.6666666666666</ele><time>2026-04-27T10:09:38.999Z</time></trkpt><trkpt lat="44.499401982106846" lon="8.544751675766522"><ele>592.3333333333333</ele><time>2026-04-27T10:09:39.999Z</time></trkpt><trkpt lat="44.4992510994623" lon="8.544875872445555"><ele>593.0</ele><time>2026-04-27T10:09:40.999Z</time></trkpt><trkpt lat="44.49910888272625" lon="8.544915966966457"><ele>593.0</ele><time>2026-04-27T10:09:41.999Z</time></trkpt><trkpt lat="44.49903518528272" lon="8.54477826152954"><ele>593.0</ele><time>2026-04-27T10:09:42.999Z</time></trkpt><trkpt lat="44.49893570093083" lon="8.544637506118097"><ele>593.0</ele><time>2026-04-27T10:09:43.999Z</time></trkpt><trkpt lat="44.49881301378346" lon="8.544490278253045"><ele>593.0</ele><time>2026-04-27T10:09:44.999Z</time></trkpt><trkpt lat="44.498693493944145" lon="8.544431601956212"><ele>593.0</ele><time>2026-04-27T10:09:45.999Z</time></trkpt><trkpt lat="44.49856522907309" lon="8.544478437623397"><ele>593.0</ele><time>2026-04-27T10:09:46.999Z</time></trkpt><trkpt lat="44.49842432662983" lon="8.544624245173322"><ele>593.0</ele><time>2026-04-27T10:09:47.999Z</time></trkpt><trkpt lat="44.49826696296726" lon="8.544829492992687"><ele>593.0</ele><time>2026-04-27T10:09:48.999Z</time></trkpt><trkpt lat="44.49811977026285" lon="8.545041715891356"><ele>593.0</ele><time>2026-04-27T10:09:49.999Z</time></trkpt><trkpt lat="44.49801268225341" lon="8.545217251440327"><ele>593.0</ele><time>2026-04-27T10:09:50.999Z</time></trkpt><trkpt lat="44.497916346719954" lon="8.545354333812911"><ele>594.0</ele><time>2026-04-27T10:09:51.999Z</time></trkpt><trkpt lat="44.49783047074927" lon="8.545444914342013"><ele>595.0</ele><time>2026-04-27T10:09:52.999Z</time></trkpt><trkpt lat="44.497779083449366" lon="8.545501053552856"><ele>596.0</ele><time>2026-04-27T10:09:53.999Z</time></trkpt><trkpt lat="44.49778856467096" lon="8.54560239898099"><ele>597.0</ele><time>2026-04-27T10:09:55.999Z</time></trkpt><trkpt lat="44.49792374152868" lon="8.5455952404322"><ele>598.0</ele><time>2026-04-27T10:09:57.999Z</time></trkpt><trkpt lat="44.49802886586535" lon="8.54552433953179"><ele>598.6666666666667</ele><time>2026-04-27T10:09:58.999Z</time></trkpt><trkpt lat="44.49814942639312" lon="8.545473228616283"><ele>599.3333333333334</ele><time>2026-04-27T10:09:59.999Z</time></trkpt><trkpt lat="44.49829456845343" lon="8.54541009630239"><ele>600.0</ele><time>2026-04-27T10:10:00.999Z</time></trkpt><trkpt lat="44.49846337565982" lon="8.545360589637104"><ele>601.6666666666666</ele><time>2026-04-27T10:10:01.999Z</time></trkpt><trkpt lat="44.49861279182597" lon="8.54537559165242"><ele>603.3333333333333</ele><time>2026-04-27T10:10:02.999Z</time></trkpt><trkpt lat="44.49878483356149" lon="8.545463256509182"><ele>605.0</ele><time>2026-04-27T10:10:03.999Z</time></trkpt><trkpt lat="44.49895530815914" lon="8.545567030476105"><ele>605.0</ele><time>2026-04-27T10:10:04.999Z</time></trkpt><trkpt lat="44.499106638519024" lon="8.54565381178892"><ele>605.0</ele><time>2026-04-27T10:10:05.999Z</time></trkpt><trkpt lat="44.49924079967917" lon="8.545732928649043"><ele>605.0</ele><time>2026-04-27T10:10:06.999Z</time></trkpt><trkpt lat="44.49936904097312" lon="8.545806097617302"><ele>605.0</ele><time>2026-04-27T10:10:07.999Z</time></trkpt><trkpt lat="44.49949508370465" lon="8.545860596963253"><ele>603.5</ele><time>2026-04-27T10:10:08.999Z</time></trkpt><trkpt lat="44.49963753092228" lon="8.545880771273097"><ele>602.0</ele><time>2026-04-27T10:10:09.999Z</time></trkpt><trkpt lat="44.49977306244423" lon="8.545868883768817"><ele>600.5</ele><time>2026-04-27T10:10:10.999Z</time></trkpt><trkpt lat="44.49989614873022" lon="8.545784168850886"><ele>599.0</ele><time>2026-04-27T10:10:11.999Z</time></trkpt><trkpt lat="44.500010735582464" lon="8.545668369122582"><ele>599.0</ele><time>2026-04-27T10:10:12.999Z</time></trkpt><trkpt lat="44.50011980435755" lon="8.545514160248896"><ele>599.0</ele><time>2026-04-27T10:10:13.999Z</time></trkpt><trkpt lat="44.50023840415195" lon="8.545342609605957"><ele>599.0</ele><time>2026-04-27T10:10:14.999Z</time></trkpt><trkpt lat="44.50035462635744" lon="8.545226782095531"><ele>599.3333333333333</ele><time>2026-04-27T10:10:15.999Z</time></trkpt><trkpt lat="44.50049671320065" lon="8.54504653541535"><ele>599.6666666666666</ele><time>2026-04-27T10:10:16.999Z</time></trkpt><trkpt lat="44.50065485274697" lon="8.544873331598168"><ele>600.0</ele><time>2026-04-27T10:10:17.999Z</time></trkpt><trkpt lat="44.50083222639425" lon="8.544702827716762"><ele>599.0</ele><time>2026-04-27T10:10:18.999Z</time></trkpt><trkpt lat="44.50101409337852" lon="8.544520553818334"><ele>598.0</ele><time>2026-04-27T10:10:19.999Z</time></trkpt><trkpt lat="44.5011879411883" lon="8.544318047244408"><ele>604.3333333333334</ele><time>2026-04-27T10:10:20.999Z</time></trkpt><trkpt lat="44.5013478404833" lon="8.544115104002758"><ele>610.6666666666666</ele><time>2026-04-27T10:10:21.999Z</time></trkpt><trkpt lat="44.50148468287815" lon="8.543937519807976"><ele>617.0</ele><time>2026-04-27T10:10:22.999Z</time></trkpt><trkpt lat="44.501625225363675" lon="8.543786391037669"><ele>620.6666666666666</ele><time>2026-04-27T10:10:23.999Z</time></trkpt><trkpt lat="44.501771676826635" lon="8.543671540951651"><ele>624.3333333333334</ele><time>2026-04-27T10:10:24.999Z</time></trkpt><trkpt lat="44.501933009434225" lon="8.543627961463722"><ele>628.0</ele><time>2026-04-27T10:10:25.999Z</time></trkpt><trkpt lat="44.502109151690775" lon="8.543600653516659"><ele>628.0</ele><time>2026-04-27T10:10:26.999Z</time></trkpt><trkpt lat="44.50226187916869" lon="8.543466650989409"><ele>628.0</ele><time>2026-04-27T10:10:27.999Z</time></trkpt><trkpt lat="44.50240400770505" lon="8.543253709558561"><ele>628.0</ele><time>2026-04-27T10:10:28.999Z</time></trkpt><trkpt lat="44.5025375965693" lon="8.543005562481934"><ele>623.0</ele><time>2026-04-27T10:10:29.999Z</time></trkpt><trkpt lat="44.50264731098811" lon="8.542716866906963"><ele>618.0</ele><time>2026-04-27T10:10:30.999Z</time></trkpt><trkpt lat="44.502725939717976" lon="8.542371655438926"><ele>615.5</ele><time>2026-04-27T10:10:31.999Z</time></trkpt><trkpt lat="44.50279542382722" lon="8.541991054976036"><ele>613.0</ele><time>2026-04-27T10:10:32.999Z</time></trkpt><trkpt lat="44.50287812938865" lon="8.54159076894162"><ele>629.5</ele><time>2026-04-27T10:10:33.999Z</time></trkpt><trkpt lat="44.502974254946736" lon="8.541195457403736"><ele>646.0</ele><time>2026-04-27T10:10:34.999Z</time></trkpt><trkpt lat="44.5030806973057" lon="8.540818631810811"><ele>646.0</ele><time>2026-04-27T10:10:35.999Z</time></trkpt><trkpt lat="44.503171594604396" lon="8.54042861857395"><ele>646.0</ele><time>2026-04-27T10:10:36.999Z</time></trkpt><trkpt lat="44.50323068061516" lon="8.540014010654808"><ele>646.5</ele><time>2026-04-27T10:10:37.999Z</time></trkpt><trkpt lat="44.503246265156534" lon="8.539556628272864"><ele>647.0</ele><time>2026-04-27T10:10:38.999Z</time></trkpt><trkpt lat="44.503285917703494" lon="8.539119842363734"><ele>648.5</ele><time>2026-04-27T10:10:39.999Z</time></trkpt><trkpt lat="44.50333919393972" lon="8.538696710837952"><ele>650.0</ele><time>2026-04-27T10:10:40.999Z</time></trkpt><trkpt lat="44.50340250033591" lon="8.538318788195427"><ele>650.0</ele><time>2026-04-27T10:10:41.999Z</time></trkpt><trkpt lat="44.50346185944625" lon="8.537990152054872"><ele>650.0</ele><time>2026-04-27T10:10:42.999Z</time></trkpt><trkpt lat="44.5034969660727" lon="8.537699643611065"><ele>650.0</ele><time>2026-04-27T10:10:43.999Z</time></trkpt><trkpt lat="44.50351058025469" lon="8.537457785609101"><ele>650.0</ele><time>2026-04-27T10:10:44.999Z</time></trkpt><trkpt lat="44.50353209853699" lon="8.537256047417525"><ele>650.0</ele><time>2026-04-27T10:10:45.999Z</time></trkpt><trkpt lat="44.503582853073205" lon="8.537104796823852"><ele>650.0</ele><time>2026-04-27T10:10:46.999Z</time></trkpt><trkpt lat="44.50367031685773" lon="8.537014066171363"><ele>655.75</ele><time>2026-04-27T10:10:47.999Z</time></trkpt><trkpt lat="44.50379184252999" lon="8.537018602820039"><ele>661.5</ele><time>2026-04-27T10:10:48.998Z</time></trkpt><trkpt lat="44.50392838453858" lon="8.537024847015967"><ele>667.25</ele><time>2026-04-27T10:10:49.998Z</time></trkpt><trkpt lat="44.50406598425743" lon="8.537055246528425"><ele>673.0</ele><time>2026-04-27T10:10:50.998Z</time></trkpt><trkpt lat="44.50416982501716" lon="8.536979182780085"><ele>673.5</ele><time>2026-04-27T10:10:51.998Z</time></trkpt><trkpt lat="44.50422831012183" lon="8.536832952398171"><ele>674.0</ele><time>2026-04-27T10:10:52.998Z</time></trkpt><trkpt lat="44.5042448497669" lon="8.536622128988311"><ele>674.5</ele><time>2026-04-27T10:10:53.998Z</time></trkpt><trkpt lat="44.504268001723844" lon="8.536388827778188"><ele>675.0</ele><time>2026-04-27T10:10:54.998Z</time></trkpt><trkpt lat="44.504319061018485" lon="8.536228302261307"><ele>673.5</ele><time>2026-04-27T10:10:55.998Z</time></trkpt><trkpt lat="44.504438135829496" lon="8.536155325950197"><ele>672.0</ele><time>2026-04-27T10:10:57Z</time></trkpt><trkpt lat="44.5045809895995" lon="8.536107889341883"><ele>670.5</ele><time>2026-04-27T10:10:58Z</time></trkpt><trkpt lat="44.504727953145405" lon="8.536038379558724"><ele>669.0</ele><time>2026-04-27T10:10:59Z</time></trkpt><trkpt lat="44.504832164442576" lon="8.535977370557914"><ele>672.6</ele><time>2026-04-27T10:11:00Z</time></trkpt><trkpt lat="44.504906376712775" lon="8.53596033525276"><ele>676.2</ele><time>2026-04-27T10:11:01Z</time></trkpt><trkpt lat="44.504994610639926" lon="8.535922456948256"><ele>679.8000000000001</ele><time>2026-04-27T10:11:03Z</time></trkpt><trkpt lat="44.50506990279354" lon="8.53585667017722"><ele>683.4000000000001</ele><time>2026-04-27T10:13:51.999Z</time></trkpt><trkpt lat="44.505199455207965" lon="8.535813633060584"><ele>687.0</ele><time>2026-04-27T10:13:53.999Z</time></trkpt><trkpt lat="44.505283045307415" lon="8.535773479512578"><ele>687.0</ele><time>2026-04-27T10:13:54.999Z</time></trkpt><trkpt lat="44.50536493663626" lon="8.535734142023308"><ele>687.0</ele><time>2026-04-27T10:13:55.999Z</time></trkpt><trkpt lat="44.505461343922086" lon="8.535685261541671"><ele>687.0</ele><time>2026-04-27T10:13:56.999Z</time></trkpt><trkpt lat="44.50556671104212" lon="8.535643646279002"><ele>687.0</ele><time>2026-04-27T10:13:57.999Z</time></trkpt><trkpt lat="44.505682517972716" lon="8.535624154922033"><ele>687.0</ele><time>2026-04-27T10:13:58.999Z</time></trkpt><trkpt lat="44.50581338050006" lon="8.535693000388811"><ele>688.5</ele><time>2026-04-27T10:13:59.999Z</time></trkpt><trkpt lat="44.50591932476321" lon="8.535805780266482"><ele>690.0</ele><time>2026-04-27T10:14:00.999Z</time></trkpt><trkpt lat="44.50600809554854" lon="8.535944494189739"><ele>691.5</ele><time>2026-04-27T10:14:01.999Z</time></trkpt><trkpt lat="44.506090779910366" lon="8.536104805540582"><ele>693.0</ele><time>2026-04-27T10:14:02.999Z</time></trkpt><trkpt lat="44.506180201777966" lon="8.536275072642557"><ele>696.3333333333334</ele><time>2026-04-27T10:14:03.999Z</time></trkpt><trkpt lat="44.50627797436783" lon="8.536451214413429"><ele>699.6666666666667</ele><time>2026-04-27T10:14:04.999Z</time></trkpt><trkpt lat="44.50638679607807" lon="8.536606734398497"><ele>703.0</ele><time>2026-04-27T10:14:05.999Z</time></trkpt><trkpt lat="44.50650804885462" lon="8.536711717532908"><ele>703.0</ele><time>2026-04-27T10:14:06.999Z</time></trkpt><trkpt lat="44.50664456660102" lon="8.536763205302893"><ele>703.0</ele><time>2026-04-27T10:14:07.999Z</time></trkpt><trkpt lat="44.50677476203868" lon="8.536807728388924"><ele>703.0</ele><time>2026-04-27T10:14:08.999Z</time></trkpt><trkpt lat="44.50690303385399" lon="8.53685701116981"><ele>703.0</ele><time>2026-04-27T10:14:09.999Z</time></trkpt><trkpt lat="44.50701410366104" lon="8.536892466542144"><ele>703.75</ele><time>2026-04-27T10:14:10.999Z</time></trkpt><trkpt lat="44.50712205548857" lon="8.536987189806268"><ele>704.5</ele><time>2026-04-27T10:14:11.999Z</time></trkpt><trkpt lat="44.507216008519514" lon="8.537098986673795"><ele>705.25</ele><time>2026-04-27T10:14:12.999Z</time></trkpt><trkpt lat="44.507290015357" lon="8.537217517325727"><ele>706.0</ele><time>2026-04-27T10:14:13.999Z</time></trkpt><trkpt lat="44.507361350636806" lon="8.53734841956781"><ele>706.75</ele><time>2026-04-27T10:14:14.999Z</time></trkpt><trkpt lat="44.507434327299954" lon="8.537492857771543"><ele>707.5</ele><time>2026-04-27T10:14:15.999Z</time></trkpt><trkpt lat="44.50751605103404" lon="8.537650669834"><ele>708.25</ele><time>2026-04-27T10:14:16.999Z</time></trkpt><trkpt lat="44.50760179296479" lon="8.53781729215489"><ele>709.0</ele><time>2026-04-27T10:14:17.999Z</time></trkpt><trkpt lat="44.507683205739426" lon="8.53798087555093"><ele>709.5</ele><time>2026-04-27T10:14:18.999Z</time></trkpt><trkpt lat="44.507774549402434" lon="8.538136777752971"><ele>710.0</ele><time>2026-04-27T10:14:19.999Z</time></trkpt><trkpt lat="44.50785685733415" lon="8.538304265508305"><ele>710.5</ele><time>2026-04-27T10:14:20.999Z</time></trkpt><trkpt lat="44.50795899208015" lon="8.538446358217293"><ele>711.0</ele><time>2026-04-27T10:14:21.999Z</time></trkpt><trkpt lat="44.508067945438924" lon="8.53857758543019"><ele>712.5</ele><time>2026-04-27T10:14:22.999Z</time></trkpt><trkpt lat="44.50817558548974" lon="8.538699441274005"><ele>714.0</ele><time>2026-04-27T10:14:23.999Z</time></trkpt><trkpt lat="44.508279823999935" lon="8.53881336719559"><ele>715.5</ele><time>2026-04-27T10:14:24.999Z</time></trkpt><trkpt lat="44.50839632096884" lon="8.538913888654239"><ele>717.0</ele><time>2026-04-27T10:14:25.999Z</time></trkpt><trkpt lat="44.50849713376511" lon="8.539023840878182"><ele>718.5</ele><time>2026-04-27T10:14:26.999Z</time></trkpt><trkpt lat="44.508602573825904" lon="8.539118805472754"><ele>720.0</ele><time>2026-04-27T10:14:27.999Z</time></trkpt><trkpt lat="44.508716223242075" lon="8.53919898695031"><ele>721.5</ele><time>2026-04-27T10:14:28.999Z</time></trkpt><trkpt lat="44.50883605479351" lon="8.539256512421376"><ele>723.0</ele><time>2026-04-27T10:14:29.999Z</time></trkpt><trkpt lat="44.50896776806554" lon="8.539309639315166"><ele>725.6666666666666</ele><time>2026-04-27T10:14:30.999Z</time></trkpt><trkpt lat="44.50911211284844" lon="8.539316372831042"><ele>728.3333333333333</ele><time>2026-04-27T10:14:31.999Z</time></trkpt><trkpt lat="44.50928164465314" lon="8.539280158447657"><ele>731.0</ele><time>2026-04-27T10:14:32.999Z</time></trkpt><trkpt lat="44.509439451683726" lon="8.53919763744555"><ele>732.6666666666666</ele><time>2026-04-27T10:14:33.999Z</time></trkpt><trkpt lat="44.50961653144798" lon="8.539147821718453"><ele>734.3333333333334</ele><time>2026-04-27T10:14:34.999Z</time></trkpt><trkpt lat="44.50974447294774" lon="8.539092801104113"><ele>736.0</ele><time>2026-04-27T10:14:35.999Z</time></trkpt><trkpt lat="44.509914904543635" lon="8.539044866763096"><ele>736.0</ele><time>2026-04-27T10:14:36.999Z</time></trkpt><trkpt lat="44.510108757532755" lon="8.539044804852466"><ele>736.0</ele><time>2026-04-27T10:14:37.999Z</time></trkpt><trkpt lat="44.51031668439881" lon="8.53900365344921"><ele>736.0</ele><time>2026-04-27T10:14:38.999Z</time></trkpt><trkpt lat="44.51053042544087" lon="8.538988104770292"><ele>737.0</ele><time>2026-04-27T10:14:39.999Z</time></trkpt><trkpt lat="44.510739007233404" lon="8.538977615363383"><ele>738.0</ele><time>2026-04-27T10:14:40.999Z</time></trkpt><trkpt lat="44.51093763811848" lon="8.538969339672809"><ele>739.0</ele><time>2026-04-27T10:14:41.999Z</time></trkpt><trkpt lat="44.511127112774574" lon="8.538917127901858"><ele>738.0</ele><time>2026-04-27T10:14:42.999Z</time></trkpt><trkpt lat="44.5113119921314" lon="8.538788109941907"><ele>737.0</ele><time>2026-04-27T10:14:43.999Z</time></trkpt><trkpt lat="44.51149433505974" lon="8.538655126563546"><ele>736.0</ele><time>2026-04-27T10:14:44.999Z</time></trkpt><trkpt lat="44.511712402087205" lon="8.538637437899926"><ele>736.0</ele><time>2026-04-27T10:14:45.999Z</time></trkpt><trkpt lat="44.511945870707684" lon="8.538590896137416"><ele>736.0</ele><time>2026-04-27T10:14:46.999Z</time></trkpt><trkpt lat="44.51217131032852" lon="8.538547457407773"><ele>736.3333333333334</ele><time>2026-04-27T10:14:47.999Z</time></trkpt><trkpt lat="44.512391839140854" lon="8.538476739810767"><ele>736.6666666666666</ele><time>2026-04-27T10:14:48.999Z</time></trkpt><trkpt lat="44.51260291072923" lon="8.538434921730262"><ele>737.0</ele><time>2026-04-27T10:14:49.999Z</time></trkpt><trkpt lat="44.51278686768214" lon="8.538430727429477"><ele>737.0</ele><time>2026-04-27T10:14:50.999Z</time></trkpt><trkpt lat="44.512933658579065" lon="8.538473205506154"><ele>737.0</ele><time>2026-04-27T10:14:51.999Z</time></trkpt><trkpt lat="44.513040606686374" lon="8.538586921709285"><ele>737.0</ele><time>2026-04-27T10:14:52.999Z</time></trkpt><trkpt lat="44.51318826454625" lon="8.538737856523259"><ele>738.6666666666666</ele><time>2026-04-27T10:14:53.999Z</time></trkpt><trkpt lat="44.51334510152114" lon="8.538903387796204"><ele>740.3333333333334</ele><time>2026-04-27T10:14:54.999Z</time></trkpt><trkpt lat="44.51351625584395" lon="8.539084030002265"><ele>742.0</ele><time>2026-04-27T10:14:55.999Z</time></trkpt><trkpt lat="44.513696584306864" lon="8.539282947922194"><ele>744.0</ele><time>2026-04-27T10:14:56.999Z</time></trkpt><trkpt lat="44.51383571348331" lon="8.539518842268969"><ele>746.0</ele><time>2026-04-27T10:14:57.999Z</time></trkpt><trkpt lat="44.513954888421175" lon="8.539771963490743"><ele>748.0</ele><time>2026-04-27T10:14:58.999Z</time></trkpt><trkpt lat="44.51406520713267" lon="8.539928060056463"><ele>748.0</ele><time>2026-04-27T10:14:59.999Z</time></trkpt><trkpt lat="44.51420983620222" lon="8.540035141946612"><ele>748.0</ele><time>2026-04-27T10:15:00.999Z</time></trkpt><trkpt lat="44.514409429142155" lon="8.540094214802007"><ele>748.0</ele><time>2026-04-27T10:15:01.999Z</time></trkpt><trkpt lat="44.51464083487187" lon="8.540162189849918"><ele>748.5</ele><time>2026-04-27T10:15:02.999Z</time></trkpt><trkpt lat="44.514871926681444" lon="8.540256824323597"><ele>749.0</ele><time>2026-04-27T10:15:03.999Z</time></trkpt><trkpt lat="44.515088824681975" lon="8.540360022537559"><ele>749.6666666666666</ele><time>2026-04-27T10:15:04.999Z</time></trkpt><trkpt lat="44.515280662527864" lon="8.540449125397828"><ele>750.3333333333334</ele><time>2026-04-27T10:15:05.999Z</time></trkpt><trkpt lat="44.515459310943214" lon="8.540493063902456"><ele>751.0</ele><time>2026-04-27T10:15:06.998Z</time></trkpt><trkpt lat="44.515630689569285" lon="8.540467470848897"><ele>752.0</ele><time>2026-04-27T10:15:07.998Z</time></trkpt><trkpt lat="44.5157946109126" lon="8.540365828420777"><ele>753.0</ele><time>2026-04-27T10:15:09Z</time></trkpt><trkpt lat="44.515924363048455" lon="8.540178841596248"><ele>754.0</ele><time>2026-04-27T10:15:10Z</time></trkpt><trkpt lat="44.51605415658908" lon="8.539960534786882"><ele>754.0</ele><time>2026-04-27T10:15:11Z</time></trkpt><trkpt lat="44.51614418144543" lon="8.539695492384052"><ele>754.0</ele><time>2026-04-27T10:15:12Z</time></trkpt><trkpt lat="44.516185283939464" lon="8.539419308612672"><ele>754.0</ele><time>2026-04-27T10:15:13Z</time></trkpt><trkpt lat="44.516136592696476" lon="8.539189693953048"><ele>753.0</ele><time>2026-04-27T10:15:14Z</time></trkpt><trkpt lat="44.51612973479867" lon="8.539022607579772"><ele>752.0</ele><time>2026-04-27T10:15:15Z</time></trkpt><trkpt lat="44.51613398180107" lon="8.538909738819175"><ele>751.0</ele><time>2026-04-27T10:15:16Z</time></trkpt><trkpt lat="44.51618556151737" lon="8.538845042620506"><ele>750.0</ele><time>2026-04-27T10:15:17Z</time></trkpt><trkpt lat="44.51629774880666" lon="8.53885781899423"><ele>749.0</ele><time>2026-04-27T10:15:18Z</time></trkpt><trkpt lat="44.516445534368515" lon="8.538784976182832"><ele>750.3333333333333</ele><time>2026-04-27T10:15:19Z</time></trkpt><trkpt lat="44.51661491337167" lon="8.53875256620384"><ele>751.6666666666666</ele><time>2026-04-27T10:15:20Z</time></trkpt><trkpt lat="44.51679302719431" lon="8.538673496315326"><ele>753.0</ele><time>2026-04-27T10:15:21Z</time></trkpt><trkpt lat="44.5169656111428" lon="8.538513209708697"><ele>755.0</ele><time>2026-04-27T10:15:22Z</time></trkpt><trkpt lat="44.51712000040611" lon="8.538301608963364"><ele>757.0</ele><time>2026-04-27T10:15:23Z</time></trkpt><trkpt lat="44.51728188787111" lon="8.538082428274405"><ele>759.0</ele><time>2026-04-27T10:15:24Z</time></trkpt><trkpt lat="44.51745976314784" lon="8.537863645012715"><ele>759.0</ele><time>2026-04-27T10:15:25Z</time></trkpt><trkpt lat="44.517633245837565" lon="8.537667939891563"><ele>759.0</ele><time>2026-04-27T10:15:26Z</time></trkpt><trkpt lat="44.51775563815139" lon="8.537511027462049"><ele>759.0</ele><time>2026-04-27T10:15:27Z</time></trkpt><trkpt lat="44.51783018091256" lon="8.537350308163452"><ele>759.0</ele><time>2026-04-27T10:15:28Z</time></trkpt><trkpt lat="44.51785489740115" lon="8.537169891599971"><ele>759.0</ele><time>2026-04-27T10:15:29Z</time></trkpt><trkpt lat="44.517826519711" lon="8.536953251698925"><ele>759.0</ele><time>2026-04-27T10:15:30Z</time></trkpt><trkpt lat="44.517771375770884" lon="8.536747956241953"><ele>759.0</ele><time>2026-04-27T10:15:31Z</time></trkpt><trkpt lat="44.51777212743802" lon="8.536569354496484"><ele>758.75</ele><time>2026-04-27T10:15:32Z</time></trkpt><trkpt lat="44.51784481658911" lon="8.536417423437234"><ele>758.5</ele><time>2026-04-27T10:15:33Z</time></trkpt><trkpt lat="44.51793768784067" lon="8.536236084028"><ele>758.25</ele><time>2026-04-27T10:15:34Z</time></trkpt><trkpt lat="44.518019471639576" lon="8.536053064733233"><ele>758.0</ele><time>2026-04-27T10:15:35Z</time></trkpt><trkpt lat="44.51811423573734" lon="8.535943113812616"><ele>756.5</ele><time>2026-04-27T10:15:36Z</time></trkpt><trkpt lat="44.51822488351899" lon="8.53595773917255"><ele>755.0</ele><time>2026-04-27T10:15:37Z</time></trkpt><trkpt lat="44.5183390608787" lon="8.536016744572779"><ele>753.5</ele><time>2026-04-27T10:15:38Z</time></trkpt><trkpt lat="44.51844993760555" lon="8.536085282007702"><ele>752.0</ele><time>2026-04-27T10:15:39Z</time></trkpt><trkpt lat="44.51849344194554" lon="8.536213237322512"><ele>754.0</ele><time>2026-04-27T10:15:40Z</time></trkpt><trkpt lat="44.518473763260296" lon="8.53639580075272"><ele>756.0</ele><time>2026-04-27T10:15:41Z</time></trkpt><trkpt lat="44.51851473735584" lon="8.536580058127887"><ele>758.0</ele><time>2026-04-27T10:15:42Z</time></trkpt><trkpt lat="44.518596997587984" lon="8.53669525895921"><ele>760.0</ele><time>2026-04-27T10:15:43Z</time></trkpt><trkpt lat="44.51872687637272" lon="8.536729253725259"><ele>756.5</ele><time>2026-04-27T10:15:44Z</time></trkpt><trkpt lat="44.51888422224698" lon="8.536709215978277"><ele>753.0</ele><time>2026-04-27T10:15:44.999Z</time></trkpt><trkpt lat="44.519045395567986" lon="8.536710529189186"><ele>749.5</ele><time>2026-04-27T10:15:45.999Z</time></trkpt><trkpt lat="44.51917323362222" lon="8.53669754409687"><ele>746.0</ele><time>2026-04-27T10:15:46.999Z</time></trkpt><trkpt lat="44.519279987382" lon="8.536596866561549"><ele>746.0</ele><time>2026-04-27T10:15:47.999Z</time></trkpt><trkpt lat="44.51935645390774" lon="8.536416004750164"><ele>746.0</ele><time>2026-04-27T10:15:48.999Z</time></trkpt><trkpt lat="44.51941346900907" lon="8.536186109900775"><ele>746.0</ele><time>2026-04-27T10:15:49.999Z</time></trkpt><trkpt lat="44.51945175965726" lon="8.535937204914129"><ele>744.3333333333333</ele><time>2026-04-27T10:15:50.999Z</time></trkpt><trkpt lat="44.51948872071528" lon="8.535688314958792"><ele>742.6666666666666</ele><time>2026-04-27T10:15:51.999Z</time></trkpt><trkpt lat="44.519500445925715" lon="8.53544464203317"><ele>741.0</ele><time>2026-04-27T10:15:52.999Z</time></trkpt><trkpt lat="44.519468773325094" lon="8.535164578711516"><ele>738.0</ele><time>2026-04-27T10:15:53.999Z</time></trkpt><trkpt lat="44.51941176418055" lon="8.534876458763321"><ele>735.0</ele><time>2026-04-27T10:15:54.999Z</time></trkpt><trkpt lat="44.51937299738218" lon="8.534614247110067"><ele>732.0</ele><time>2026-04-27T10:15:55.999Z</time></trkpt><trkpt lat="44.519371701507765" lon="8.53443685035622"><ele>731.5</ele><time>2026-04-27T10:15:56.999Z</time></trkpt><trkpt lat="44.5193676251522" lon="8.534329576121849"><ele>731.0</ele><time>2026-04-27T10:15:57.999Z</time></trkpt><trkpt lat="44.519434402259755" lon="8.534233542639821"><ele>730.5</ele><time>2026-04-27T10:15:58.999Z</time></trkpt><trkpt lat="44.519559883818204" lon="8.534152327202683"><ele>730.0</ele><time>2026-04-27T10:15:59.999Z</time></trkpt><trkpt lat="44.51972677644683" lon="8.534161358177066"><ele>730.25</ele><time>2026-04-27T10:16:00.999Z</time></trkpt><trkpt lat="44.51986219861905" lon="8.53410322281578"><ele>730.5</ele><time>2026-04-27T10:16:01.999Z</time></trkpt><trkpt lat="44.519960648683096" lon="8.534004334277874"><ele>730.75</ele><time>2026-04-27T10:16:02.999Z</time></trkpt><trkpt lat="44.520000308617426" lon="8.533850281062568"><ele>731.0</ele><time>2026-04-27T10:16:03.999Z</time></trkpt><trkpt lat="44.51997838200272" lon="8.533658307268377"><ele>731.0</ele><time>2026-04-27T10:16:04.999Z</time></trkpt><trkpt lat="44.51990616999276" lon="8.533470442189175"><ele>731.0</ele><time>2026-04-27T10:16:05.999Z</time></trkpt><trkpt lat="44.519873383380265" lon="8.533311769833649"><ele>731.0</ele><time>2026-04-27T10:16:06.999Z</time></trkpt><trkpt lat="44.51991685244988" lon="8.533173987506467"><ele>731.0</ele><time>2026-04-27T10:16:07.999Z</time></trkpt><trkpt lat="44.520046654756634" lon="8.533094522646032"><ele>731.0</ele><time>2026-04-27T10:16:08.999Z</time></trkpt><trkpt lat="44.52017181827046" lon="8.532938140694528"><ele>731.0</ele><time>2026-04-27T10:16:09.999Z</time></trkpt><trkpt lat="44.52025208746198" lon="8.532730167010723"><ele>731.0</ele><time>2026-04-27T10:16:10.999Z</time></trkpt><trkpt lat="44.52028026664214" lon="8.532487155483976"><ele>730.6666666666666</ele><time>2026-04-27T10:16:11.999Z</time></trkpt><trkpt lat="44.520348075748295" lon="8.532289173124367"><ele>730.3333333333334</ele><time>2026-04-27T10:16:12.999Z</time></trkpt><trkpt lat="44.52050032137107" lon="8.532230209867123"><ele>730.0</ele><time>2026-04-27T10:16:13.999Z</time></trkpt><trkpt lat="44.520660911264265" lon="8.532106196431455"><ele>726.3333333333334</ele><time>2026-04-27T10:16:14.999Z</time></trkpt><trkpt lat="44.52081804164109" lon="8.531964875771648"><ele>722.6666666666666</ele><time>2026-04-27T10:16:15.999Z</time></trkpt><trkpt lat="44.520942122558495" lon="8.531795914581886"><ele>719.0</ele><time>2026-04-27T10:16:16.999Z</time></trkpt><trkpt lat="44.521024538479075" lon="8.531692787020733"><ele>719.0</ele><time>2026-04-27T10:16:17.999Z</time></trkpt><trkpt lat="44.52109484166766" lon="8.531658127821524"><ele>719.0</ele><time>2026-04-27T10:16:18.999Z</time></trkpt><trkpt lat="44.52116082245754" lon="8.531695683954153"><ele>719.0</ele><time>2026-04-27T10:16:19.999Z</time></trkpt><trkpt lat="44.52116737859307" lon="8.531842482820371"><ele>719.0</ele><time>2026-04-27T10:16:20.999Z</time></trkpt><trkpt lat="44.52120948443556" lon="8.53203463657423"><ele>719.0</ele><time>2026-04-27T10:16:21.999Z</time></trkpt><trkpt lat="44.52126144959395" lon="8.53226542039955"><ele>715.0</ele><time>2026-04-27T10:16:22.999Z</time></trkpt><trkpt lat="44.521317138336514" lon="8.532468654740173"><ele>711.0</ele><time>2026-04-27T10:16:23.999Z</time></trkpt><trkpt lat="44.52142445111431" lon="8.532602944645406"><ele>707.0</ele><time>2026-04-27T10:16:24.999Z</time></trkpt><trkpt lat="44.521570969326504" lon="8.532708655317574"><ele>707.0</ele><time>2026-04-27T10:16:25.999Z</time></trkpt><trkpt lat="44.52167704659582" lon="8.532882095488635"><ele>707.0</ele><time>2026-04-27T10:16:26.999Z</time></trkpt><trkpt lat="44.52174694730955" lon="8.533091809588644"><ele>707.0</ele><time>2026-04-27T10:16:27.999Z</time></trkpt><trkpt lat="44.5217977291263" lon="8.533253960580081"><ele>708.6</ele><time>2026-04-27T10:16:28.999Z</time></trkpt><trkpt lat="44.52184477507835" lon="8.53333918152894"><ele>710.2</ele><time>2026-04-27T10:16:29.999Z</time></trkpt><trkpt lat="44.52192363141009" lon="8.533349467007437"><ele>711.8</ele><time>2026-04-27T10:16:30.999Z</time></trkpt><trkpt lat="44.5219896064364" lon="8.53326917940164"><ele>713.4</ele><time>2026-04-27T10:16:31.999Z</time></trkpt><trkpt lat="44.52199430540699" lon="8.533130415096124"><ele>715.0</ele><time>2026-04-27T10:16:32.999Z</time></trkpt><trkpt lat="44.52193888254499" lon="8.532956504723035"><ele>712.3333333333334</ele><time>2026-04-27T10:16:33.999Z</time></trkpt><trkpt lat="44.52181655587273" lon="8.532753799098275"><ele>709.6666666666666</ele><time>2026-04-27T10:16:34.999Z</time></trkpt><trkpt lat="44.52172530736193" lon="8.532506952747548"><ele>707.0</ele><time>2026-04-27T10:16:35.999Z</time></trkpt><trkpt lat="44.52158632748963" lon="8.532319867911758"><ele>707.0</ele><time>2026-04-27T10:16:36.999Z</time></trkpt><trkpt lat="44.52150177371087" lon="8.532109159047"><ele>707.0</ele><time>2026-04-27T10:16:37.999Z</time></trkpt><trkpt lat="44.52145799830194" lon="8.531880770558478"><ele>707.0</ele><time>2026-04-27T10:16:38.999Z</time></trkpt><trkpt lat="44.521445405465094" lon="8.531693670290839"><ele>706.2</ele><time>2026-04-27T10:16:39.999Z</time></trkpt><trkpt lat="44.52143796181145" lon="8.531580530563811"><ele>705.4000000000001</ele><time>2026-04-27T10:16:40.999Z</time></trkpt><trkpt lat="44.52149586292487" lon="8.531512433369517"><ele>704.5999999999999</ele><time>2026-04-27T10:16:41.999Z</time></trkpt><trkpt lat="44.52158158817325" lon="8.531515002328547"><ele>703.8</ele><time>2026-04-27T10:16:42.999Z</time></trkpt><trkpt lat="44.521661749828176" lon="8.531643528009614"><ele>703.0</ele><time>2026-04-27T10:16:43.999Z</time></trkpt><trkpt lat="44.52178681196247" lon="8.531745585326364"><ele>703.0</ele><time>2026-04-27T10:16:44.999Z</time></trkpt><trkpt lat="44.52195409581454" lon="8.531811632853437"><ele>703.0</ele><time>2026-04-27T10:16:45.999Z</time></trkpt><trkpt lat="44.52215983672847" lon="8.531802764295751"><ele>703.0</ele><time>2026-04-27T10:16:46.999Z</time></trkpt><trkpt lat="44.52239060079704" lon="8.531804338769055"><ele>693.0</ele><time>2026-04-27T10:16:47.999Z</time></trkpt><trkpt lat="44.522629314004284" lon="8.531898294164149"><ele>683.0</ele><time>2026-04-27T10:16:48.999Z</time></trkpt><trkpt lat="44.522901344543044" lon="8.532049181669958"><ele>680.0</ele><time>2026-04-27T10:16:49.999Z</time></trkpt><trkpt lat="44.523164679791805" lon="8.53223493841893"><ele>677.0</ele><time>2026-04-27T10:16:50.999Z</time></trkpt><trkpt lat="44.52339967080299" lon="8.532353634883219"><ele>677.0</ele><time>2026-04-27T10:16:51.999Z</time></trkpt><trkpt lat="44.523600977629506" lon="8.532510763864034"><ele>677.0</ele><time>2026-04-27T10:16:52.999Z</time></trkpt><trkpt lat="44.52375945199609" lon="8.532636133085507"><ele>677.0</ele><time>2026-04-27T10:16:53.999Z</time></trkpt><trkpt lat="44.52388147674863" lon="8.532684589892161"><ele>680.3333333333333</ele><time>2026-04-27T10:16:54.999Z</time></trkpt><trkpt lat="44.52399423120718" lon="8.532629968751888"><ele>683.6666666666666</ele><time>2026-04-27T10:16:55.999Z</time></trkpt><trkpt lat="44.5240873482699" lon="8.532454358847644"><ele>687.0</ele><time>2026-04-27T10:16:56.999Z</time></trkpt><trkpt lat="44.52420587221261" lon="8.532245931980261"><ele>687.0</ele><time>2026-04-27T10:16:57.999Z</time></trkpt><trkpt lat="44.52431119450287" lon="8.532070439813824"><ele>687.0</ele><time>2026-04-27T10:16:58.999Z</time></trkpt><trkpt lat="44.52442171592536" lon="8.531974120484042"><ele>687.0</ele><time>2026-04-27T10:16:59.999Z</time></trkpt><trkpt lat="44.52454204593782" lon="8.532014520173783"><ele>687.0</ele><time>2026-04-27T10:17:00.999Z</time></trkpt><trkpt lat="44.52472611124552" lon="8.532055457434904"><ele>687.3333333333334</ele><time>2026-04-27T10:17:01.999Z</time></trkpt><trkpt lat="44.5249481447924" lon="8.532095410055657"><ele>687.6666666666667</ele><time>2026-04-27T10:17:02.999Z</time></trkpt><trkpt lat="44.52515376480198" lon="8.532070834655011"><ele>688.0</ele><time>2026-04-27T10:17:03.999Z</time></trkpt><trkpt lat="44.52536105338941" lon="8.531985035186167"><ele>689.0</ele><time>2026-04-27T10:17:04.999Z</time></trkpt><trkpt lat="44.525560032062884" lon="8.531964667738745"><ele>690.0</ele><time>2026-04-27T10:17:05.999Z</time></trkpt><trkpt lat="44.52572969563626" lon="8.532002225287222"><ele>691.0</ele><time>2026-04-27T10:17:06.999Z</time></trkpt><trkpt lat="44.52592378942266" lon="8.532025811686461"><ele>691.5</ele><time>2026-04-27T10:17:07.999Z</time></trkpt><trkpt lat="44.52614672037322" lon="8.532083817738089"><ele>692.0</ele><time>2026-04-27T10:17:08.999Z</time></trkpt><trkpt lat="44.526375579987565" lon="8.532139044838207"><ele>693.0</ele><time>2026-04-27T10:17:09.999Z</time></trkpt><trkpt lat="44.526579793161574" lon="8.53224206219618"><ele>694.0</ele><time>2026-04-27T10:17:10.998Z</time></trkpt><trkpt lat="44.52675214137715" lon="8.532390051832133"><ele>695.0</ele><time>2026-04-27T10:17:11.998Z</time></trkpt><trkpt lat="44.52693762797518" lon="8.53256156433068"><ele>696.3333333333333</ele><time>2026-04-27T10:17:12.998Z</time></trkpt><trkpt lat="44.527136488821" lon="8.532704950784945"><ele>697.6666666666666</ele><time>2026-04-27T10:17:13.998Z</time></trkpt><trkpt lat="44.52734494088459" lon="8.532827124767325"><ele>699.0</ele><time>2026-04-27T10:17:14.999Z</time></trkpt><trkpt lat="44.5275591488431" lon="8.53293898650699"><ele>699.0</ele><time>2026-04-27T10:17:15.999Z</time></trkpt><trkpt lat="44.52776384450912" lon="8.533025244788979"><ele>699.0</ele><time>2026-04-27T10:17:16.999Z</time></trkpt><trkpt lat="44.527972856277394" lon="8.533055249951556"><ele>699.0</ele><time>2026-04-27T10:17:17.999Z</time></trkpt><trkpt lat="44.528175204770974" lon="8.533063744909542"><ele>702.3333333333334</ele><time>2026-04-27T10:17:18.999Z</time></trkpt><trkpt lat="44.528351178206385" lon="8.533078046788702"><ele>705.6666666666667</ele><time>2026-04-27T10:17:19.999Z</time></trkpt><trkpt lat="44.528519360264006" lon="8.533105369633672"><ele>709.0</ele><time>2026-04-27T10:17:20.999Z</time></trkpt><trkpt lat="44.52867569908019" lon="8.53314497850019"><ele>711.6666666666667</ele><time>2026-04-27T10:17:21.999Z</time></trkpt><trkpt lat="44.52885105437658" lon="8.533179979595177"><ele>714.3333333333334</ele><time>2026-04-27T10:17:22.999Z</time></trkpt><trkpt lat="44.52901159380292" lon="8.533208446449933"><ele>717.0</ele><time>2026-04-27T10:17:23.999Z</time></trkpt><trkpt lat="44.52917810087435" lon="8.533191436170725"><ele>717.0</ele><time>2026-04-27T10:17:24.999Z</time></trkpt><trkpt lat="44.5293390570291" lon="8.533139175033675"><ele>717.0</ele><time>2026-04-27T10:17:25.999Z</time></trkpt><trkpt lat="44.52949215872635" lon="8.533052676619212"><ele>717.0</ele><time>2026-04-27T10:17:26.999Z</time></trkpt><trkpt lat="44.5296208454812" lon="8.532953658824928"><ele>717.0</ele><time>2026-04-27T10:17:27.999Z</time></trkpt><trkpt lat="44.529739387958855" lon="8.53288170187951"><ele>717.0</ele><time>2026-04-27T10:17:28.999Z</time></trkpt><trkpt lat="44.52984839296241" lon="8.532815731368817"><ele>717.0</ele><time>2026-04-27T10:17:29.999Z</time></trkpt><trkpt lat="44.52994919366578" lon="8.532749113216006"><ele>717.0</ele><time>2026-04-27T10:17:30.999Z</time></trkpt><trkpt lat="44.53005330135165" lon="8.532695278638263"><ele>717.0</ele><time>2026-04-27T10:17:31.999Z</time></trkpt><trkpt lat="44.53018964421311" lon="8.53266919415843"><ele>717.0</ele><time>2026-04-27T10:17:32.999Z</time></trkpt><trkpt lat="44.530321357333115" lon="8.532642168751151"><ele>717.0</ele><time>2026-04-27T10:17:33.999Z</time></trkpt><trkpt lat="44.530459298248886" lon="8.53262271048247"><ele>717.0</ele><time>2026-04-27T10:17:34.999Z</time></trkpt><trkpt lat="44.53058122555247" lon="8.532602319161564"><ele>718.25</ele><time>2026-04-27T10:17:35.999Z</time></trkpt><trkpt lat="44.53068881307281" lon="8.532610861784889"><ele>719.5</ele><time>2026-04-27T10:17:36.999Z</time></trkpt><trkpt lat="44.53079919966007" lon="8.532655979250006"><ele>720.75</ele><time>2026-04-27T10:17:37.999Z</time></trkpt><trkpt lat="44.53091855648769" lon="8.532763286576746"><ele>722.0</ele><time>2026-04-27T10:17:38.999Z</time></trkpt><trkpt lat="44.531027335619626" lon="8.532838626050987"><ele>722.25</ele><time>2026-04-27T10:17:39.999Z</time></trkpt><trkpt lat="44.53113477961068" lon="8.532901850343263"><ele>722.5</ele><time>2026-04-27T10:17:40.999Z</time></trkpt><trkpt lat="44.53124976803339" lon="8.532969153700686"><ele>722.75</ele><time>2026-04-27T10:17:41.999Z</time></trkpt><trkpt lat="44.531383945635476" lon="8.533035627014849"><ele>723.0</ele><time>2026-04-27T10:17:42.999Z</time></trkpt><trkpt lat="44.53154094704094" lon="8.533088162855739"><ele>726.0</ele><time>2026-04-27T10:17:43.999Z</time></trkpt><trkpt lat="44.53171007260637" lon="8.533131606869151"><ele>729.0</ele><time>2026-04-27T10:17:44.999Z</time></trkpt><trkpt lat="44.53188974387201" lon="8.533163203911094"><ele>732.0</ele><time>2026-04-27T10:17:45.999Z</time></trkpt><trkpt lat="44.532070229870925" lon="8.533206870879996"><ele>735.0</ele><time>2026-04-27T10:17:46.999Z</time></trkpt><trkpt lat="44.53225319949503" lon="8.533258558621611"><ele>738.0</ele><time>2026-04-27T10:17:47.999Z</time></trkpt><trkpt lat="44.532422362604635" lon="8.533311371249239"><ele>741.0</ele><time>2026-04-27T10:17:48.999Z</time></trkpt><trkpt lat="44.53258913716523" lon="8.53336049004454"><ele>741.0</ele><time>2026-04-27T10:17:49.999Z</time></trkpt><trkpt lat="44.532742998346016" lon="8.533399449935771"><ele>741.0</ele><time>2026-04-27T10:17:50.999Z</time></trkpt><trkpt lat="44.532900752455795" lon="8.5334485545364"><ele>741.0</ele><time>2026-04-27T10:17:51.999Z</time></trkpt><trkpt lat="44.53307904108276" lon="8.5335058734492"><ele>740.0</ele><time>2026-04-27T10:17:52.999Z</time></trkpt><trkpt lat="44.53326403738276" lon="8.533566361563366"><ele>739.0</ele><time>2026-04-27T10:17:53.999Z</time></trkpt><trkpt lat="44.53345123331829" lon="8.533621244797487"><ele>738.0</ele><time>2026-04-27T10:17:54.999Z</time></trkpt><trkpt lat="44.533640626473016" lon="8.533665000938797"><ele>737.0</ele><time>2026-04-27T10:17:55.999Z</time></trkpt><trkpt lat="44.5338233514896" lon="8.533692584729636"><ele>736.0</ele><time>2026-04-27T10:17:56.999Z</time></trkpt><trkpt lat="44.53399811315586" lon="8.533706947976686"><ele>735.0</ele><time>2026-04-27T10:17:57.999Z</time></trkpt><trkpt lat="44.534175585170814" lon="8.533705175473644"><ele>736.3333333333334</ele><time>2026-04-27T10:17:58.999Z</time></trkpt><trkpt lat="44.534348304557675" lon="8.53372889498932"><ele>737.6666666666667</ele><time>2026-04-27T10:17:59.999Z</time></trkpt><trkpt lat="44.534529642341155" lon="8.53376371537581"><ele>739.0</ele><time>2026-04-27T10:18:00.999Z</time></trkpt><trkpt lat="44.53472699503459" lon="8.533768662810706"><ele>739.0</ele><time>2026-04-27T10:18:01.999Z</time></trkpt><trkpt lat="44.53493764251164" lon="8.533791256243248"><ele>739.0</ele><time>2026-04-27T10:18:02.999Z</time></trkpt><trkpt lat="44.53511111696809" lon="8.533818300120338"><ele>739.0</ele><time>2026-04-27T10:18:03.999Z</time></trkpt><trkpt lat="44.53534667992454" lon="8.533909953691765"><ele>739.3333333333334</ele><time>2026-04-27T10:18:04.999Z</time></trkpt><trkpt lat="44.535539472057394" lon="8.53399348760503"><ele>739.6666666666666</ele><time>2026-04-27T10:18:05.999Z</time></trkpt><trkpt lat="44.53571670231477" lon="8.53408893510008"><ele>740.0</ele><time>2026-04-27T10:18:06.999Z</time></trkpt><trkpt lat="44.535892916619616" lon="8.534205987909809"><ele>740.0</ele><time>2026-04-27T10:18:07.999Z</time></trkpt><trkpt lat="44.536060006976406" lon="8.534348793275024"><ele>740.0</ele><time>2026-04-27T10:18:08.999Z</time></trkpt><trkpt lat="44.5362199590024" lon="8.534503593238856"><ele>740.0</ele><time>2026-04-27T10:18:09.999Z</time></trkpt><trkpt lat="44.536373034622585" lon="8.534671552801338"><ele>740.3333333333333</ele><time>2026-04-27T10:18:10.999Z</time></trkpt><trkpt lat="44.536514435140866" lon="8.534855748681691"><ele>740.6666666666666</ele><time>2026-04-27T10:18:11.999Z</time></trkpt><trkpt lat="44.536638324986235" lon="8.535040698535378"><ele>741.0</ele><time>2026-04-27T10:18:12.999Z</time></trkpt><trkpt lat="44.53675981648224" lon="8.535203276583562"><ele>741.0</ele><time>2026-04-27T10:18:13.999Z</time></trkpt><trkpt lat="44.53691185595906" lon="8.535340454262125"><ele>741.0</ele><time>2026-04-27T10:18:14.999Z</time></trkpt><trkpt lat="44.53707307458402" lon="8.535444418082298"><ele>741.0</ele><time>2026-04-27T10:18:15.999Z</time></trkpt><trkpt lat="44.537233286903565" lon="8.535491367765943"><ele>739.5</ele><time>2026-04-27T10:18:16.999Z</time></trkpt><trkpt lat="44.537391725500015" lon="8.535517196189135"><ele>738.0</ele><time>2026-04-27T10:18:17.999Z</time></trkpt><trkpt lat="44.537526183735395" lon="8.535582334832013"><ele>736.5</ele><time>2026-04-27T10:18:18.999Z</time></trkpt><trkpt lat="44.53764569945764" lon="8.535693099697419"><ele>735.0</ele><time>2026-04-27T10:18:19.999Z</time></trkpt><trkpt lat="44.53776051740016" lon="8.535849108697908"><ele>735.0</ele><time>2026-04-27T10:18:20.999Z</time></trkpt><trkpt lat="44.53786809327929" lon="8.536019944748205"><ele>735.0</ele><time>2026-04-27T10:18:21.999Z</time></trkpt><trkpt lat="44.53798317183312" lon="8.53619991082164"><ele>735.0</ele><time>2026-04-27T10:18:22.999Z</time></trkpt><trkpt lat="44.53809413672534" lon="8.536369147866996"><ele>733.25</ele><time>2026-04-27T10:18:23.999Z</time></trkpt><trkpt lat="44.538192280844264" lon="8.536496221386274"><ele>731.5</ele><time>2026-04-27T10:18:24.999Z</time></trkpt><trkpt lat="44.538308790784484" lon="8.536565554219608"><ele>729.75</ele><time>2026-04-27T10:18:25.999Z</time></trkpt><trkpt lat="44.5384423187114" lon="8.536558227743171"><ele>728.0</ele><time>2026-04-27T10:18:26.999Z</time></trkpt><trkpt lat="44.538590631137275" lon="8.536478650033914"><ele>729.0</ele><time>2026-04-27T10:18:27.999Z</time></trkpt><trkpt lat="44.538759539759354" lon="8.53637183033092"><ele>730.0</ele><time>2026-04-27T10:18:28.999Z</time></trkpt><trkpt lat="44.53893663192134" lon="8.536280467670549"><ele>731.0</ele><time>2026-04-27T10:18:29.999Z</time></trkpt><trkpt lat="44.53905134780776" lon="8.53623727682925"><ele>731.0</ele><time>2026-04-27T10:18:30.999Z</time></trkpt><trkpt lat="44.53917433138075" lon="8.536162275102864"><ele>731.0</ele><time>2026-04-27T10:18:31.999Z</time></trkpt><trkpt lat="44.539280295472096" lon="8.53613341337969"><ele>731.0</ele><time>2026-04-27T10:18:32.999Z</time></trkpt><trkpt lat="44.53935071684174" lon="8.536224198789133"><ele>731.0</ele><time>2026-04-27T10:18:33.999Z</time></trkpt><trkpt lat="44.53941053006591" lon="8.536293858237608"><ele>731.0</ele><time>2026-04-27T10:18:34.999Z</time></trkpt><trkpt lat="44.539491102058996" lon="8.53641408333684"><ele>729.0</ele><time>2026-04-27T10:18:35.999Z</time></trkpt><trkpt lat="44.53959332805696" lon="8.536544100460874"><ele>727.0</ele><time>2026-04-27T10:18:36.999Z</time></trkpt><trkpt lat="44.53973053576693" lon="8.536655395078267"><ele>725.0</ele><time>2026-04-27T10:18:37.999Z</time></trkpt><trkpt lat="44.53988541243923" lon="8.5367648322553"><ele>725.0</ele><time>2026-04-27T10:18:38.999Z</time></trkpt><trkpt lat="44.54007695853982" lon="8.536820635702563"><ele>725.0</ele><time>2026-04-27T10:18:39.999Z</time></trkpt><trkpt lat="44.540284968000165" lon="8.53684078667957"><ele>725.0</ele><time>2026-04-27T10:18:40.999Z</time></trkpt><trkpt lat="44.54049871984288" lon="8.536875624729669"><ele>724.0</ele><time>2026-04-27T10:18:41.999Z</time></trkpt><trkpt lat="44.540699680040454" lon="8.536921356108483"><ele>723.0</ele><time>2026-04-27T10:18:42.999Z</time></trkpt><trkpt lat="44.540866442068534" lon="8.536942527677168"><ele>722.0</ele><time>2026-04-27T10:18:43.999Z</time></trkpt><trkpt lat="44.54099025407093" lon="8.53688146294496"><ele>722.0</ele><time>2026-04-27T10:18:44.999Z</time></trkpt><trkpt lat="44.541098454760395" lon="8.536766131621443"><ele>722.0</ele><time>2026-04-27T10:18:45.999Z</time></trkpt><trkpt lat="44.54116324911578" lon="8.536569314031036"><ele>722.0</ele><time>2026-04-27T10:18:46.999Z</time></trkpt><trkpt lat="44.54125071540061" lon="8.536333010320131"><ele>724.0</ele><time>2026-04-27T10:18:47.999Z</time></trkpt><trkpt lat="44.54135667574527" lon="8.536069424974047"><ele>726.0</ele><time>2026-04-27T10:18:48.999Z</time></trkpt><trkpt lat="44.54147032629631" lon="8.53581440927746"><ele>728.0</ele><time>2026-04-27T10:18:49.999Z</time></trkpt><trkpt lat="44.541614259719424" lon="8.535595628495717"><ele>727.6666666666666</ele><time>2026-04-27T10:18:50.999Z</time></trkpt><trkpt lat="44.541764541822225" lon="8.535379726562025"><ele>727.3333333333334</ele><time>2026-04-27T10:18:51.999Z</time></trkpt><trkpt lat="44.54192555130147" lon="8.535150891988813"><ele>727.0</ele><time>2026-04-27T10:18:52.999Z</time></trkpt><trkpt lat="44.5421109168148" lon="8.534942191724857"><ele>727.0</ele><time>2026-04-27T10:18:53.999Z</time></trkpt><trkpt lat="44.54225047779403" lon="8.534725047151076"><ele>727.0</ele><time>2026-04-27T10:18:54.999Z</time></trkpt><trkpt lat="44.54240229646261" lon="8.534557943923918"><ele>727.0</ele><time>2026-04-27T10:18:55.999Z</time></trkpt><trkpt lat="44.54256770861272" lon="8.534446509813247"><ele>727.6666666666667</ele><time>2026-04-27T10:18:56.999Z</time></trkpt><trkpt lat="44.542730395546485" lon="8.534326269661443"><ele>728.3333333333334</ele><time>2026-04-27T10:18:57.999Z</time></trkpt><trkpt lat="44.54284899130323" lon="8.534112048431542"><ele>729.0</ele><time>2026-04-27T10:18:58.999Z</time></trkpt><trkpt lat="44.54295231815652" lon="8.533879931473653"><ele>729.0</ele><time>2026-04-27T10:18:59.999Z</time></trkpt><trkpt lat="44.54308468235387" lon="8.533745964140582"><ele>729.0</ele><time>2026-04-27T10:19:00.999Z</time></trkpt><trkpt lat="44.54318915801347" lon="8.533603569450769"><ele>729.0</ele><time>2026-04-27T10:19:01.999Z</time></trkpt><trkpt lat="44.543254084727515" lon="8.533389095702166"><ele>721.6666666666666</ele><time>2026-04-27T10:19:02.999Z</time></trkpt><trkpt lat="44.54328269213926" lon="8.533104576033523"><ele>714.3333333333333</ele><time>2026-04-27T10:19:03.999Z</time></trkpt><trkpt lat="44.54333770996385" lon="8.532866007598301"><ele>707.0</ele><time>2026-04-27T10:19:04.999Z</time></trkpt><trkpt lat="44.54345446073977" lon="8.532719924378195"><ele>700.6666666666666</ele><time>2026-04-27T10:19:05.999Z</time></trkpt><trkpt lat="44.543573644730664" lon="8.532561477256115"><ele>694.3333333333334</ele><time>2026-04-27T10:19:06.999Z</time></trkpt><trkpt lat="44.54365623156963" lon="8.532369512723909"><ele>688.0</ele><time>2026-04-27T10:19:07.999Z</time></trkpt><trkpt lat="44.543680683789965" lon="8.532157393215464"><ele>691.5</ele><time>2026-04-27T10:19:08.999Z</time></trkpt><trkpt lat="44.54372940423549" lon="8.532009658062993"><ele>695.0</ele><time>2026-04-27T10:19:09.999Z</time></trkpt><trkpt lat="44.54383453768129" lon="8.531987705303193"><ele>698.5</ele><time>2026-04-27T10:19:10.999Z</time></trkpt><trkpt lat="44.543966697321075" lon="8.532011858697723"><ele>702.0</ele><time>2026-04-27T10:19:11.999Z</time></trkpt><trkpt lat="44.54410447503915" lon="8.531990215132968"><ele>702.0</ele><time>2026-04-27T10:19:12.999Z</time></trkpt><trkpt lat="44.54418366833592" lon="8.53185826909637"><ele>702.0</ele><time>2026-04-27T10:19:13.999Z</time></trkpt><trkpt lat="44.544224535544615" lon="8.53165332322095"><ele>702.0</ele><time>2026-04-27T10:19:14.999Z</time></trkpt><trkpt lat="44.54423557416409" lon="8.531407263633382"><ele>696.3333333333334</ele><time>2026-04-27T10:19:15.999Z</time></trkpt><trkpt lat="44.54420646191448" lon="8.531146925106993"><ele>690.6666666666667</ele><time>2026-04-27T10:19:16.999Z</time></trkpt><trkpt lat="44.54423396942084" lon="8.5309550564477"><ele>685.0</ele><time>2026-04-27T10:19:17.999Z</time></trkpt><trkpt lat="44.54428876365401" lon="8.530799274043103"><ele>685.0</ele><time>2026-04-27T10:19:18.999Z</time></trkpt><trkpt lat="44.54439491813367" lon="8.530727911302092"><ele>685.0</ele><time>2026-04-27T10:19:19.999Z</time></trkpt><trkpt lat="44.54450221483551" lon="8.530798170254881"><ele>685.0</ele><time>2026-04-27T10:19:20.999Z</time></trkpt><trkpt lat="44.54464987724985" lon="8.530822086779933"><ele>685.0</ele><time>2026-04-27T10:19:21.999Z</time></trkpt><trkpt lat="44.54480072050692" lon="8.530802886719512"><ele>685.25</ele><time>2026-04-27T10:19:22.999Z</time></trkpt><trkpt lat="44.54492607310944" lon="8.530658036992817"><ele>685.5</ele><time>2026-04-27T10:19:23.999Z</time></trkpt><trkpt lat="44.54499530629951" lon="8.530459587977225"><ele>685.75</ele><time>2026-04-27T10:19:24.999Z</time></trkpt><trkpt lat="44.545058641169796" lon="8.530323439495746"><ele>686.0</ele><time>2026-04-27T10:19:25.999Z</time></trkpt><trkpt lat="44.545183769968034" lon="8.530335993804721"><ele>686.0</ele><time>2026-04-27T10:19:26.999Z</time></trkpt><trkpt lat="44.545352752933425" lon="8.530349572785596"><ele>686.0</ele><time>2026-04-27T10:19:28Z</time></trkpt><trkpt lat="44.54555556864356" lon="8.530347274271156"><ele>686.0</ele><time>2026-04-27T10:19:29Z</time></trkpt><trkpt lat="44.545763499241126" lon="8.53033884026393"><ele>689.0</ele><time>2026-04-27T10:19:30Z</time></trkpt><trkpt lat="44.54594866302863" lon="8.530326632037772"><ele>692.0</ele><time>2026-04-27T10:19:31Z</time></trkpt><trkpt lat="44.546117821572054" lon="8.53034147337801"><ele>695.0</ele><time>2026-04-27T10:19:32Z</time></trkpt><trkpt lat="44.54629041384681" lon="8.530365601506695"><ele>697.75</ele><time>2026-04-27T10:19:33Z</time></trkpt><trkpt lat="44.54644023733818" lon="8.530351656868602"><ele>700.5</ele><time>2026-04-27T10:19:34Z</time></trkpt><trkpt lat="44.546563278200544" lon="8.530289473727674"><ele>703.25</ele><time>2026-04-27T10:19:35Z</time></trkpt><trkpt lat="44.54668022083271" lon="8.530163977598928"><ele>706.0</ele><time>2026-04-27T10:19:36Z</time></trkpt><trkpt lat="44.54675181228946" lon="8.52999138475105"><ele>706.0</ele><time>2026-04-27T10:19:37Z</time></trkpt><trkpt lat="44.54678189809968" lon="8.529797582803214"><ele>706.0</ele><time>2026-04-27T10:19:38Z</time></trkpt><trkpt lat="44.54675160865509" lon="8.5295594513609"><ele>706.0</ele><time>2026-04-27T10:19:39Z</time></trkpt><trkpt lat="44.546734311584885" lon="8.52931067881449"><ele>703.3333333333334</ele><time>2026-04-27T10:19:40Z</time></trkpt><trkpt lat="44.54677386843263" lon="8.529063108445097"><ele>700.6666666666666</ele><time>2026-04-27T10:19:41Z</time></trkpt><trkpt lat="44.54683866512033" lon="8.528848568846723"><ele>698.0</ele><time>2026-04-27T10:19:42Z</time></trkpt><trkpt lat="44.54686966676859" lon="8.528608161645636"><ele>696.6666666666666</ele><time>2026-04-27T10:19:43Z</time></trkpt><trkpt lat="44.546837112459016" lon="8.528317324439245"><ele>695.3333333333334</ele><time>2026-04-27T10:19:44Z</time></trkpt><trkpt lat="44.54679749055883" lon="8.527986460686156"><ele>694.0</ele><time>2026-04-27T10:19:45Z</time></trkpt><trkpt lat="44.54677132541409" lon="8.527675825297452"><ele>693.6666666666667</ele><time>2026-04-27T10:19:46Z</time></trkpt><trkpt lat="44.54675773417046" lon="8.52743210426879"><ele>693.3333333333334</ele><time>2026-04-27T10:19:47Z</time></trkpt><trkpt lat="44.54678365861413" lon="8.527193564621214"><ele>693.0</ele><time>2026-04-27T10:19:48Z</time></trkpt><trkpt lat="44.5468416676821" lon="8.52695604264616"><ele>693.3333333333334</ele><time>2026-04-27T10:19:49Z</time></trkpt><trkpt lat="44.54688065080825" lon="8.52671370739847"><ele>693.6666666666667</ele><time>2026-04-27T10:19:50Z</time></trkpt><trkpt lat="44.54686077718747" lon="8.526416709470368"><ele>694.0</ele><time>2026-04-27T10:19:51Z</time></trkpt><trkpt lat="44.54682678427883" lon="8.526116283780558"><ele>694.0</ele><time>2026-04-27T10:19:52Z</time></trkpt><trkpt lat="44.54681513696902" lon="8.525789461893076"><ele>694.0</ele><time>2026-04-27T10:19:53Z</time></trkpt><trkpt lat="44.54684505204007" lon="8.525496789645157"><ele>694.0</ele><time>2026-04-27T10:19:54Z</time></trkpt><trkpt lat="44.54690940898904" lon="8.525251088602461"><ele>693.5</ele><time>2026-04-27T10:19:55Z</time></trkpt><trkpt lat="44.54698447010847" lon="8.525054044160045"><ele>693.0</ele><time>2026-04-27T10:19:56Z</time></trkpt><trkpt lat="44.54706334500142" lon="8.524887432580686"><ele>692.5</ele><time>2026-04-27T10:19:57Z</time></trkpt><trkpt lat="44.54714891320545" lon="8.524744776457078"><ele>692.0</ele><time>2026-04-27T10:19:58Z</time></trkpt><trkpt lat="44.547259772722505" lon="8.52463015442439"><ele>695.0</ele><time>2026-04-27T10:19:59Z</time></trkpt><trkpt lat="44.54739222339345" lon="8.524536343934397"><ele>698.0</ele><time>2026-04-27T10:20:00Z</time></trkpt><trkpt lat="44.54753405616155" lon="8.524424851266398"><ele>701.0</ele><time>2026-04-27T10:20:01Z</time></trkpt><trkpt lat="44.547669836029016" lon="8.524289860703044"><ele>701.0</ele><time>2026-04-27T10:20:02Z</time></trkpt><trkpt lat="44.547796546231304" lon="8.52413193872082"><ele>701.0</ele><time>2026-04-27T10:20:03Z</time></trkpt><trkpt lat="44.547909029429306" lon="8.523937567084644"><ele>701.0</ele><time>2026-04-27T10:20:03.999Z</time></trkpt><trkpt lat="44.5480187426954" lon="8.523731412538337"><ele>703.3333333333333</ele><time>2026-04-27T10:20:04.999Z</time></trkpt><trkpt lat="44.548140258982286" lon="8.52355319291484"><ele>705.6666666666666</ele><time>2026-04-27T10:20:05.999Z</time></trkpt><trkpt lat="44.548297245199414" lon="8.52344037078321"><ele>708.0</ele><time>2026-04-27T10:20:06.999Z</time></trkpt><trkpt lat="44.548448226250365" lon="8.523299442973949"><ele>708.0</ele><time>2026-04-27T10:20:07.999Z</time></trkpt><trkpt lat="44.54859734172013" lon="8.523145528004042"><ele>708.0</ele><time>2026-04-27T10:20:08.999Z</time></trkpt><trkpt lat="44.54872020228743" lon="8.522946338406566"><ele>708.0</ele><time>2026-04-27T10:20:09.999Z</time></trkpt><trkpt lat="44.548811185644226" lon="8.522758728873724"><ele>715.3333333333334</ele><time>2026-04-27T10:20:10.999Z</time></trkpt><trkpt lat="44.5488171260739" lon="8.522555208664345"><ele>722.6666666666667</ele><time>2026-04-27T10:20:11.999Z</time></trkpt><trkpt lat="44.54881296493268" lon="8.522317077341526"><ele>730.0</ele><time>2026-04-27T10:20:12.999Z</time></trkpt><trkpt lat="44.54878787341223" lon="8.522053276951448"><ele>730.0</ele><time>2026-04-27T10:20:13.999Z</time></trkpt><trkpt lat="44.548786769026414" lon="8.52178157636195"><ele>730.0</ele><time>2026-04-27T10:20:14.999Z</time></trkpt><trkpt lat="44.54880340515357" lon="8.521512156142183"><ele>730.0</ele><time>2026-04-27T10:20:15.999Z</time></trkpt><trkpt lat="44.548822119787275" lon="8.521245745765151"><ele>729.6666666666667</ele><time>2026-04-27T10:20:16.999Z</time></trkpt><trkpt lat="44.5488375324685" lon="8.520984795134682"><ele>729.3333333333334</ele><time>2026-04-27T10:20:17.999Z</time></trkpt><trkpt lat="44.54885352879944" lon="8.520751138516788"><ele>729.0</ele><time>2026-04-27T10:20:18.999Z</time></trkpt><trkpt lat="44.5488871750342" lon="8.520564475527634"><ele>729.0</ele><time>2026-04-27T10:20:19.999Z</time></trkpt><trkpt lat="44.5489678620213" lon="8.520428608158529"><ele>729.0</ele><time>2026-04-27T10:20:20.999Z</time></trkpt><trkpt lat="44.549116423530165" lon="8.520335779542933"><ele>729.0</ele><time>2026-04-27T10:20:21.999Z</time></trkpt><trkpt lat="44.549233295760224" lon="8.52019046150269"><ele>729.0</ele><time>2026-04-27T10:20:22.999Z</time></trkpt><trkpt lat="44.549404202940416" lon="8.520122295214579"><ele>729.0</ele><time>2026-04-27T10:20:23.999Z</time></trkpt><trkpt lat="44.54934438610468" lon="8.519712054393672"><ele>729.0</ele><time>2026-04-27T10:20:24.999Z</time></trkpt><trkpt lat="44.54936645415357" lon="8.51939904412733"><ele>729.0</ele><time>2026-04-27T10:20:25.999Z</time></trkpt><trkpt lat="44.549361212687856" lon="8.519075640005232"><ele>729.0</ele><time>2026-04-27T10:20:26.999Z</time></trkpt><trkpt lat="44.54936984395868" lon="8.518753688121558"><ele>730.0</ele><time>2026-04-27T10:20:27.999Z</time></trkpt><trkpt lat="44.54938636376941" lon="8.518439743649893"><ele>731.0</ele><time>2026-04-27T10:20:28.999Z</time></trkpt><trkpt lat="44.5494038543865" lon="8.518147780923039"><ele>732.0</ele><time>2026-04-27T10:20:29.999Z</time></trkpt><trkpt lat="44.54943283716143" lon="8.517877810338856"><ele>735.3333333333334</ele><time>2026-04-27T10:20:30.999Z</time></trkpt><trkpt lat="44.549511415319905" lon="8.51763972713211"><ele>738.6666666666667</ele><time>2026-04-27T10:20:31.999Z</time></trkpt><trkpt lat="44.54960084196921" lon="8.51739564952697"><ele>742.0</ele><time>2026-04-27T10:20:32.999Z</time></trkpt><trkpt lat="44.549670634854294" lon="8.51713279377966"><ele>737.0</ele><time>2026-04-27T10:20:33.999Z</time></trkpt><trkpt lat="44.54975238422513" lon="8.516862398753613"><ele>732.0</ele><time>2026-04-27T10:20:34.999Z</time></trkpt><trkpt lat="44.54986039417449" lon="8.516615072690456"><ele>727.0</ele><time>2026-04-27T10:20:35.999Z</time></trkpt><trkpt lat="44.549998867786805" lon="8.516382838752069"><ele>726.0</ele><time>2026-04-27T10:20:36.999Z</time></trkpt><trkpt lat="44.55012887650035" lon="8.516150887232858"><ele>725.0</ele><time>2026-04-27T10:20:37.999Z</time></trkpt><trkpt lat="44.55025461432469" lon="8.515916599241082"><ele>724.0</ele><time>2026-04-27T10:20:38.999Z</time></trkpt><trkpt lat="44.550392128314975" lon="8.515700151902497"><ele>724.0</ele><time>2026-04-27T10:20:39.999Z</time></trkpt><trkpt lat="44.550540150810555" lon="8.515500570952895"><ele>724.0</ele><time>2026-04-27T10:20:40.999Z</time></trkpt><trkpt lat="44.55068195274378" lon="8.515303664131478"><ele>724.0</ele><time>2026-04-27T10:20:41.999Z</time></trkpt><trkpt lat="44.55079645756708" lon="8.51507749001829"><ele>726.6666666666667</ele><time>2026-04-27T10:20:42.999Z</time></trkpt><trkpt lat="44.55088592976528" lon="8.514833482194769"><ele>729.3333333333334</ele><time>2026-04-27T10:20:43.999Z</time></trkpt><trkpt lat="44.55096182318349" lon="8.514603099407582"><ele>732.0</ele><time>2026-04-27T10:20:44.999Z</time></trkpt><trkpt lat="44.55103266372055" lon="8.514393540339691"><ele>732.0</ele><time>2026-04-27T10:20:45.999Z</time></trkpt><trkpt lat="44.551060417761455" lon="8.514182583378302"><ele>732.0</ele><time>2026-04-27T10:20:46.999Z</time></trkpt><trkpt lat="44.55102853103452" lon="8.513976011203246"><ele>732.0</ele><time>2026-04-27T10:20:47.999Z</time></trkpt><trkpt lat="44.550935290408034" lon="8.51378535395955"><ele>731.25</ele><time>2026-04-27T10:20:48.999Z</time></trkpt><trkpt lat="44.55084285241349" lon="8.513632641095183"><ele>730.5</ele><time>2026-04-27T10:20:49.999Z</time></trkpt><trkpt lat="44.550806594352835" lon="8.513456777193097"><ele>729.75</ele><time>2026-04-27T10:20:50.999Z</time></trkpt><trkpt lat="44.55087381099723" lon="8.513276571777553"><ele>729.0</ele><time>2026-04-27T10:20:51.999Z</time></trkpt><trkpt lat="44.55096665834001" lon="8.513097466770708"><ele>729.3333333333334</ele><time>2026-04-27T10:20:52.999Z</time></trkpt><trkpt lat="44.55107179232756" lon="8.512900088689186"><ele>729.6666666666667</ele><time>2026-04-27T10:20:53.999Z</time></trkpt><trkpt lat="44.55119068730081" lon="8.512693354500273"><ele>730.0</ele><time>2026-04-27T10:20:54.999Z</time></trkpt><trkpt lat="44.551279017788666" lon="8.512455934078563"><ele>726.3333333333334</ele><time>2026-04-27T10:20:55.999Z</time></trkpt><trkpt lat="44.55133103724486" lon="8.512214415360637"><ele>722.6666666666666</ele><time>2026-04-27T10:20:56.999Z</time></trkpt><trkpt lat="44.55143305171816" lon="8.512027050607808"><ele>719.0</ele><time>2026-04-27T10:20:57.999Z</time></trkpt><trkpt lat="44.55157332919016" lon="8.511825461505563"><ele>719.0</ele><time>2026-04-27T10:20:58.999Z</time></trkpt><trkpt lat="44.55171791306991" lon="8.511588176515868"><ele>719.0</ele><time>2026-04-27T10:20:59.999Z</time></trkpt><trkpt lat="44.55188414309482" lon="8.51137299095714"><ele>719.0</ele><time>2026-04-27T10:21:00.999Z</time></trkpt><trkpt lat="44.552067815468064" lon="8.511171542171013"><ele>716.0</ele><time>2026-04-27T10:21:01.999Z</time></trkpt><trkpt lat="44.552261228341244" lon="8.511037193291205"><ele>713.0</ele><time>2026-04-27T10:21:02.999Z</time></trkpt><trkpt lat="44.55243606775783" lon="8.510932077890564"><ele>710.0</ele><time>2026-04-27T10:21:03.999Z</time></trkpt><trkpt lat="44.552611021139974" lon="8.510919850469222"><ele>710.0</ele><time>2026-04-27T10:21:04.999Z</time></trkpt><trkpt lat="44.55276275282602" lon="8.510907977652396"><ele>710.0</ele><time>2026-04-27T10:21:05.999Z</time></trkpt><trkpt lat="44.55290748422688" lon="8.510877442475678"><ele>710.0</ele><time>2026-04-27T10:21:06.999Z</time></trkpt><trkpt lat="44.5530134650216" lon="8.510619833603666"><ele>710.6666666666666</ele><time>2026-04-27T10:21:07.999Z</time></trkpt><trkpt lat="44.553143457445366" lon="8.510412130754826"><ele>711.3333333333334</ele><time>2026-04-27T10:21:08.999Z</time></trkpt><trkpt lat="44.55332787985486" lon="8.510258965614664"><ele>712.0</ele><time>2026-04-27T10:21:09.999Z</time></trkpt><trkpt lat="44.55349351737668" lon="8.510143989622755"><ele>712.0</ele><time>2026-04-27T10:21:10.999Z</time></trkpt><trkpt lat="44.55360720828931" lon="8.509957578503313"><ele>712.0</ele><time>2026-04-27T10:21:11.999Z</time></trkpt><trkpt lat="44.55366335458738" lon="8.509707634844048"><ele>712.0</ele><time>2026-04-27T10:21:12.999Z</time></trkpt><trkpt lat="44.55366281848726" lon="8.509438861303817"><ele>714.6666666666667</ele><time>2026-04-27T10:21:13.999Z</time></trkpt><trkpt lat="44.55364208500034" lon="8.509177116966718"><ele>717.3333333333334</ele><time>2026-04-27T10:21:14.999Z</time></trkpt><trkpt lat="44.55366545264712" lon="8.508937638599948"><ele>720.0</ele><time>2026-04-27T10:21:15.999Z</time></trkpt><trkpt lat="44.55374014699346" lon="8.50869036446081"><ele>720.0</ele><time>2026-04-27T10:21:16.999Z</time></trkpt><trkpt lat="44.55385482033671" lon="8.508462909969218"><ele>720.0</ele><time>2026-04-27T10:21:17.999Z</time></trkpt><trkpt lat="44.55391969885492" lon="8.50823330415228"><ele>720.0</ele><time>2026-04-27T10:21:18.999Z</time></trkpt><trkpt lat="44.55393032577837" lon="8.507986308157902"><ele>717.0</ele><time>2026-04-27T10:21:19.999Z</time></trkpt><trkpt lat="44.553892665196216" lon="8.507780072369735"><ele>714.0</ele><time>2026-04-27T10:21:20.999Z</time></trkpt><trkpt lat="44.553848037558964" lon="8.507630001048897"><ele>711.0</ele><time>2026-04-27T10:21:21.999Z</time></trkpt><trkpt lat="44.553839611341964" lon="8.507488037163528"><ele>708.0</ele><time>2026-04-27T10:21:22.999Z</time></trkpt><trkpt lat="44.553885815453604" lon="8.507383898879725"><ele>708.0</ele><time>2026-04-27T10:21:23.999Z</time></trkpt><trkpt lat="44.553990953590215" lon="8.507350672883351"><ele>708.0</ele><time>2026-04-27T10:21:24.999Z</time></trkpt><trkpt lat="44.55413123361519" lon="8.507421832832785"><ele>708.0</ele><time>2026-04-27T10:21:25.999Z</time></trkpt><trkpt lat="44.55429787776331" lon="8.50746206454993"><ele>708.0</ele><time>2026-04-27T10:21:27Z</time></trkpt><trkpt lat="44.554456840022105" lon="8.50745017267212"><ele>709.0</ele><time>2026-04-27T10:21:28Z</time></trkpt><trkpt lat="44.55456978206205" lon="8.507306176538984"><ele>710.0</ele><time>2026-04-27T10:21:29Z</time></trkpt><trkpt lat="44.55470544669936" lon="8.507120932796607"><ele>711.0</ele><time>2026-04-27T10:21:30Z</time></trkpt><trkpt lat="44.55482264436623" lon="8.506861797071464"><ele>706.6666666666666</ele><time>2026-04-27T10:21:31Z</time></trkpt><trkpt lat="44.55493785716972" lon="8.506588322798063"><ele>702.3333333333333</ele><time>2026-04-27T10:21:32Z</time></trkpt><trkpt lat="44.555040240730236" lon="8.506350062736072"><ele>698.0</ele><time>2026-04-27T10:21:33Z</time></trkpt><trkpt lat="44.55511413498923" lon="8.5061475914685"><ele>694.75</ele><time>2026-04-27T10:21:34Z</time></trkpt><trkpt lat="44.55512860951247" lon="8.50595812288795"><ele>691.5</ele><time>2026-04-27T10:21:35Z</time></trkpt><trkpt lat="44.55507590236457" lon="8.505764431039351"><ele>688.25</ele><time>2026-04-27T10:21:36Z</time></trkpt><trkpt lat="44.55501926794879" lon="8.505590468984227"><ele>685.0</ele><time>2026-04-27T10:21:37Z</time></trkpt><trkpt lat="44.55502138891142" lon="8.505426880606558"><ele>682.0</ele><time>2026-04-27T10:21:38Z</time></trkpt><trkpt lat="44.55510054029026" lon="8.505289501940819"><ele>679.0</ele><time>2026-04-27T10:21:39Z</time></trkpt><trkpt lat="44.55526671769889" lon="8.505227969875449"><ele>676.0</ele><time>2026-04-27T10:21:40Z</time></trkpt><trkpt lat="44.55544537918089" lon="8.505119060791934"><ele>674.6666666666667</ele><time>2026-04-27T10:21:41Z</time></trkpt><trkpt lat="44.55559040989704" lon="8.504994070817489"><ele>673.3333333333334</ele><time>2026-04-27T10:21:42Z</time></trkpt><trkpt lat="44.55565495041271" lon="8.504795989451047"><ele>672.0</ele><time>2026-04-27T10:21:43Z</time></trkpt><trkpt lat="44.55566053312276" lon="8.504579480988406"><ele>670.6666666666666</ele><time>2026-04-27T10:21:44Z</time></trkpt><trkpt lat="44.55567055750965" lon="8.504331127325507"><ele>669.3333333333333</ele><time>2026-04-27T10:21:45Z</time></trkpt><trkpt lat="44.5556325327517" lon="8.504063514530168"><ele>668.0</ele><time>2026-04-27T10:21:46Z</time></trkpt><trkpt lat="44.5555693212626" lon="8.50374830382079"><ele>665.5</ele><time>2026-04-27T10:21:47Z</time></trkpt><trkpt lat="44.55549836692795" lon="8.503422887270316"><ele>663.0</ele><time>2026-04-27T10:21:48Z</time></trkpt><trkpt lat="44.5554136081245" lon="8.503146204695584"><ele>664.3333333333334</ele><time>2026-04-27T10:21:49Z</time></trkpt><trkpt lat="44.55530132931961" lon="8.502915245813679"><ele>665.6666666666667</ele><time>2026-04-27T10:21:50Z</time></trkpt><trkpt lat="44.555178742745035" lon="8.50270336147422"><ele>667.0</ele><time>2026-04-27T10:21:51Z</time></trkpt><trkpt lat="44.55506188133871" lon="8.502478130494431"><ele>670.3333333333334</ele><time>2026-04-27T10:21:52Z</time></trkpt><trkpt lat="44.5549558077968" lon="8.502236991558595"><ele>673.6666666666666</ele><time>2026-04-27T10:21:53Z</time></trkpt><trkpt lat="44.55485980874162" lon="8.501976567835259"><ele>677.0</ele><time>2026-04-27T10:21:54Z</time></trkpt><trkpt lat="44.55476011377169" lon="8.501727606634041"><ele>676.6666666666666</ele><time>2026-04-27T10:21:55Z</time></trkpt><trkpt lat="44.55465420468308" lon="8.501525773374999"><ele>676.3333333333334</ele><time>2026-04-27T10:21:56Z</time></trkpt><trkpt lat="44.55454100331556" lon="8.501370490274041"><ele>676.0</ele><time>2026-04-27T10:21:57Z</time></trkpt><trkpt lat="44.55445266108593" lon="8.501253312940104"><ele>676.8</ele><time>2026-04-27T10:21:58Z</time></trkpt><trkpt lat="44.55441576734883" lon="8.501139740931576"><ele>677.5999999999999</ele><time>2026-04-27T10:21:59Z</time></trkpt><trkpt lat="44.55444627823124" lon="8.501022672824346"><ele>678.4</ele><time>2026-04-27T10:22:00Z</time></trkpt><trkpt lat="44.55453499998644" lon="8.500942037399172"><ele>679.2</ele><time>2026-04-27T10:22:01Z</time></trkpt><trkpt lat="44.554679110973375" lon="8.50095894717516"><ele>680.0</ele><time>2026-04-27T10:22:02Z</time></trkpt><trkpt lat="44.55485280447501" lon="8.500930516984589"><ele>680.25</ele><time>2026-04-27T10:22:03Z</time></trkpt><trkpt lat="44.555005776821574" lon="8.50092039560765"><ele>680.5</ele><time>2026-04-27T10:22:04Z</time></trkpt><trkpt lat="44.55510463950118" lon="8.500832574238366"><ele>680.75</ele><time>2026-04-27T10:22:05Z</time></trkpt><trkpt lat="44.5551422885916" lon="8.500696494241453"><ele>681.0</ele><time>2026-04-27T10:22:06Z</time></trkpt><trkpt lat="44.55511908891074" lon="8.500517969871984"><ele>678.6666666666666</ele><time>2026-04-27T10:22:07Z</time></trkpt><trkpt lat="44.55507174585205" lon="8.500270873585167"><ele>676.3333333333333</ele><time>2026-04-27T10:22:08Z</time></trkpt><trkpt lat="44.55506221936386" lon="8.499975871375243"><ele>674.0</ele><time>2026-04-27T10:22:09Z</time></trkpt><trkpt lat="44.555108887665696" lon="8.499664863921913"><ele>671.5</ele><time>2026-04-27T10:22:10Z</time></trkpt><trkpt lat="44.55517552887348" lon="8.499329096142972"><ele>669.0</ele><time>2026-04-27T10:22:11Z</time></trkpt><trkpt lat="44.55521497673033" lon="8.498984982200506"><ele>669.0</ele><time>2026-04-27T10:22:12Z</time></trkpt><trkpt lat="44.55520853654436" lon="8.498661717928714"><ele>669.0</ele><time>2026-04-27T10:22:13Z</time></trkpt><trkpt lat="44.55517274316954" lon="8.49837715128082"><ele>669.0</ele><time>2026-04-27T10:22:14Z</time></trkpt><trkpt lat="44.55514270372572" lon="8.498113703031553"><ele>669.3333333333334</ele><time>2026-04-27T10:22:15Z</time></trkpt><trkpt lat="44.55516928640744" lon="8.497837357732793"><ele>669.6666666666667</ele><time>2026-04-27T10:22:16Z</time></trkpt><trkpt lat="44.55520471999653" lon="8.497531703016211"><ele>670.0</ele><time>2026-04-27T10:22:17Z</time></trkpt><trkpt lat="44.555236352962275" lon="8.497211287565943"><ele>669.0</ele><time>2026-04-27T10:22:18Z</time></trkpt><trkpt lat="44.5552985220728" lon="8.49690061758013"><ele>668.0</ele><time>2026-04-27T10:22:19Z</time></trkpt><trkpt lat="44.5553772125346" lon="8.496609359483791"><ele>669.6666666666666</ele><time>2026-04-27T10:22:20Z</time></trkpt><trkpt lat="44.55549945093458" lon="8.496361462539289"><ele>671.3333333333334</ele><time>2026-04-27T10:22:21Z</time></trkpt><trkpt lat="44.555606205068344" lon="8.49610084779199"><ele>673.0</ele><time>2026-04-27T10:22:22Z</time></trkpt><trkpt lat="44.555740327198286" lon="8.495857306183176"><ele>673.0</ele><time>2026-04-27T10:22:23Z</time></trkpt><trkpt lat="44.55585454681219" lon="8.495626187502761"><ele>673.0</ele><time>2026-04-27T10:22:24Z</time></trkpt><trkpt lat="44.555936325520584" lon="8.495396978248552"><ele>673.0</ele><time>2026-04-27T10:22:25Z</time></trkpt><trkpt lat="44.55597518014036" lon="8.495167275808054"><ele>673.3333333333334</ele><time>2026-04-27T10:22:26Z</time></trkpt><trkpt lat="44.55596996675921" lon="8.494929476789066"><ele>673.6666666666666</ele><time>2026-04-27T10:22:27Z</time></trkpt><trkpt lat="44.55592782501753" lon="8.494677882621138"><ele>674.0</ele><time>2026-04-27T10:22:28Z</time></trkpt><trkpt lat="44.55584197242044" lon="8.494412135372619"><ele>671.5</ele><time>2026-04-27T10:22:29Z</time></trkpt><trkpt lat="44.55571475028724" lon="8.494154166342454"><ele>669.0</ele><time>2026-04-27T10:22:30Z</time></trkpt><trkpt lat="44.55554586107573" lon="8.49393154673666"><ele>669.0</ele><time>2026-04-27T10:22:31Z</time></trkpt><trkpt lat="44.555373005842796" lon="8.49378931772411"><ele>669.0</ele><time>2026-04-27T10:22:31.999Z</time></trkpt><trkpt lat="44.55521951885984" lon="8.493670252414024"><ele>669.0</ele><time>2026-04-27T10:22:32.999Z</time></trkpt><trkpt lat="44.555111434378716" lon="8.493496538259249"><ele>671.6666666666666</ele><time>2026-04-27T10:22:33.999Z</time></trkpt><trkpt lat="44.5550378866101" lon="8.493254332785542"><ele>674.3333333333333</ele><time>2026-04-27T10:22:34.999Z</time></trkpt><trkpt lat="44.55499132894623" lon="8.493019194833959"><ele>677.0</ele><time>2026-04-27T10:22:35.999Z</time></trkpt><trkpt lat="44.554963785788914" lon="8.492766189021676"><ele>678.25</ele><time>2026-04-27T10:22:36.999Z</time></trkpt><trkpt lat="44.55496883944011" lon="8.492548048927533"><ele>679.5</ele><time>2026-04-27T10:22:37.999Z</time></trkpt><trkpt lat="44.554967494339856" lon="8.49236524805033"><ele>680.75</ele><time>2026-04-27T10:22:38.999Z</time></trkpt><trkpt lat="44.55491060187232" lon="8.49222338756098"><ele>682.0</ele><time>2026-04-27T10:22:39.999Z</time></trkpt><trkpt lat="44.55479813898335" lon="8.4920934089265"><ele>683.3333333333334</ele><time>2026-04-27T10:22:40.999Z</time></trkpt><trkpt lat="44.55464487057668" lon="8.49197593275856"><ele>684.6666666666666</ele><time>2026-04-27T10:22:41.999Z</time></trkpt><trkpt lat="44.55448853419069" lon="8.491820956901572"><ele>686.0</ele><time>2026-04-27T10:22:42.999Z</time></trkpt><trkpt lat="44.55433475536088" lon="8.491707338199319"><ele>686.0</ele><time>2026-04-27T10:22:43.999Z</time></trkpt><trkpt lat="44.55422670291133" lon="8.491562935189922"><ele>686.0</ele><time>2026-04-27T10:22:44.999Z</time></trkpt><trkpt lat="44.55417871459832" lon="8.491376169744257"><ele>686.0</ele><time>2026-04-27T10:22:45.999Z</time></trkpt><trkpt lat="44.554194158796214" lon="8.491167126611295"><ele>686.0</ele><time>2026-04-27T10:22:46.999Z</time></trkpt><trkpt lat="44.55422668487341" lon="8.49097257737154"><ele>685.0</ele><time>2026-04-27T10:22:47.999Z</time></trkpt><trkpt lat="44.554196770785865" lon="8.490733031495601"><ele>684.0</ele><time>2026-04-27T10:22:48.999Z</time></trkpt><trkpt lat="44.55414038541789" lon="8.49056040091759"><ele>683.0</ele><time>2026-04-27T10:22:49.999Z</time></trkpt><trkpt lat="44.55406528480123" lon="8.490368199371323"><ele>683.0</ele><time>2026-04-27T10:22:50.999Z</time></trkpt><trkpt lat="44.55405750940074" lon="8.490129817426396"><ele>683.0</ele><time>2026-04-27T10:22:51.999Z</time></trkpt><trkpt lat="44.55405245568411" lon="8.48998202162503"><ele>683.0</ele><time>2026-04-27T10:22:52.999Z</time></trkpt><trkpt lat="44.55402747334032" lon="8.489717149368861"><ele>684.0</ele><time>2026-04-27T10:22:53.999Z</time></trkpt><trkpt lat="44.55402062021769" lon="8.489449580611206"><ele>685.0</ele><time>2026-04-27T10:22:54.999Z</time></trkpt><trkpt lat="44.55400696105272" lon="8.489171617430486"><ele>686.0</ele><time>2026-04-27T10:22:55.999Z</time></trkpt><trkpt lat="44.554000402210605" lon="8.488885599254735"><ele>685.6666666666666</ele><time>2026-04-27T10:22:56.999Z</time></trkpt><trkpt lat="44.55400062047118" lon="8.488582592663292"><ele>685.3333333333334</ele><time>2026-04-27T10:22:57.999Z</time></trkpt><trkpt lat="44.55399984088596" lon="8.488272928719475"><ele>685.0</ele><time>2026-04-27T10:22:58.999Z</time></trkpt><trkpt lat="44.5540062797782" lon="8.487983027139407"><ele>686.3333333333334</ele><time>2026-04-27T10:22:59.999Z</time></trkpt><trkpt lat="44.55407172632706" lon="8.487754510871962"><ele>687.6666666666666</ele><time>2026-04-27T10:23:00.999Z</time></trkpt><trkpt lat="44.55415143754992" lon="8.487552870240593"><ele>689.0</ele><time>2026-04-27T10:23:01.999Z</time></trkpt><trkpt lat="44.55423343319073" lon="8.487354332071396"><ele>689.0</ele><time>2026-04-27T10:23:02.999Z</time></trkpt><trkpt lat="44.55429061226395" lon="8.487166496900743"><ele>689.0</ele><time>2026-04-27T10:23:03.999Z</time></trkpt><trkpt lat="44.55433655654154" lon="8.487003395241524"><ele>689.0</ele><time>2026-04-27T10:23:04.999Z</time></trkpt><trkpt lat="44.554346987114194" lon="8.486827217397693"><ele>689.0</ele><time>2026-04-27T10:23:05.999Z</time></trkpt><trkpt lat="44.55433178585779" lon="8.486630532208885"><ele>689.3333333333333</ele><time>2026-04-27T10:23:06.999Z</time></trkpt><trkpt lat="44.554304398396255" lon="8.486419020598138"><ele>689.6666666666666</ele><time>2026-04-27T10:23:07.999Z</time></trkpt><trkpt lat="44.55426661233708" lon="8.486201486727383"><ele>690.0</ele><time>2026-04-27T10:23:08.999Z</time></trkpt><trkpt lat="44.55419680812703" lon="8.485980953715625"><ele>690.0</ele><time>2026-04-27T10:23:09.999Z</time></trkpt><trkpt lat="44.55408293139835" lon="8.4857853725057"><ele>690.0</ele><time>2026-04-27T10:23:10.999Z</time></trkpt><trkpt lat="44.55395613050923" lon="8.48559375507854"><ele>690.0</ele><time>2026-04-27T10:23:11.999Z</time></trkpt><trkpt lat="44.55382451338893" lon="8.485409542878365"><ele>690.8</ele><time>2026-04-27T10:23:12.999Z</time></trkpt><trkpt lat="44.55370458835805" lon="8.48527049653548"><ele>691.6</ele><time>2026-04-27T10:23:13.999Z</time></trkpt><trkpt lat="44.553619889031225" lon="8.485184507670748"><ele>692.4000000000001</ele><time>2026-04-27T10:23:14.999Z</time></trkpt><trkpt lat="44.55362330188535" lon="8.485034100158996"><ele>693.2</ele><time>2026-04-27T10:23:16.999Z</time></trkpt><trkpt lat="44.553620599890984" lon="8.484921178735267"><ele>694.0</ele><time>2026-04-27T10:23:17.999Z</time></trkpt><trkpt lat="44.55355308713822" lon="8.484804171776473"><ele>694.0</ele><time>2026-04-27T10:23:18.999Z</time></trkpt><trkpt lat="44.55344432142313" lon="8.484723275076945"><ele>694.0</ele><time>2026-04-27T10:23:19.999Z</time></trkpt><trkpt lat="44.55334502522858" lon="8.484612066659114"><ele>694.0</ele><time>2026-04-27T10:23:20.999Z</time></trkpt><trkpt lat="44.55328181666473" lon="8.484443775652"><ele>694.0</ele><time>2026-04-27T10:23:21.999Z</time></trkpt><trkpt lat="44.55327564423388" lon="8.48424953163499"><ele>692.6666666666667</ele><time>2026-04-27T10:23:22.999Z</time></trkpt><trkpt lat="44.55326012296702" lon="8.48402844347901"><ele>691.3333333333334</ele><time>2026-04-27T10:23:23.999Z</time></trkpt><trkpt lat="44.55326752777772" lon="8.483792794410316"><ele>690.0</ele><time>2026-04-27T10:23:24.999Z</time></trkpt><trkpt lat="44.55325041487764" lon="8.483541506866489"><ele>687.3333333333334</ele><time>2026-04-27T10:23:25.999Z</time></trkpt><trkpt lat="44.55322546977277" lon="8.483297709646529"><ele>684.6666666666667</ele><time>2026-04-27T10:23:26.999Z</time></trkpt><trkpt lat="44.55318152041631" lon="8.48307832879769"><ele>682.0</ele><time>2026-04-27T10:23:27.999Z</time></trkpt><trkpt lat="44.55310788749706" lon="8.482893867081858"><ele>680.75</ele><time>2026-04-27T10:23:28.999Z</time></trkpt><trkpt lat="44.553004587620116" lon="8.482724715475843"><ele>679.5</ele><time>2026-04-27T10:23:29.999Z</time></trkpt><trkpt lat="44.5529101110994" lon="8.482575986147898"><ele>678.25</ele><time>2026-04-27T10:23:30.999Z</time></trkpt><trkpt lat="44.5528362063082" lon="8.482421186612486"><ele>677.0</ele><time>2026-04-27T10:23:31.999Z</time></trkpt><trkpt lat="44.55275921451551" lon="8.482283123317368"><ele>677.0</ele><time>2026-04-27T10:23:33Z</time></trkpt><trkpt lat="44.55272376633723" lon="8.482193866667581"><ele>677.0</ele><time>2026-04-27T10:23:34Z</time></trkpt><trkpt lat="44.55277010420524" lon="8.482095182492163"><ele>677.0</ele><time>2026-04-27T10:23:36Z</time></trkpt><trkpt lat="44.55289090323882" lon="8.482144189122726"><ele>677.0</ele><time>2026-04-27T10:23:38Z</time></trkpt><trkpt lat="44.55296984125969" lon="8.482232548973995"><ele>677.0</ele><time>2026-04-27T10:23:39Z</time></trkpt><trkpt lat="44.55307698908359" lon="8.482312080647548"><ele>675.6666666666666</ele><time>2026-04-27T10:23:40Z</time></trkpt><trkpt lat="44.55321557217021" lon="8.482330440857996"><ele>674.3333333333334</ele><time>2026-04-27T10:23:41Z</time></trkpt><trkpt lat="44.55338860216475" lon="8.482298373797086"><ele>673.0</ele><time>2026-04-27T10:23:42Z</time></trkpt><trkpt lat="44.55353991296727" lon="8.482238863565271"><ele>673.0</ele><time>2026-04-27T10:23:43Z</time></trkpt><trkpt lat="44.553668257482386" lon="8.482100451725"><ele>673.0</ele><time>2026-04-27T10:23:44Z</time></trkpt><trkpt lat="44.55378011889329" lon="8.481894777532194"><ele>673.0</ele><time>2026-04-27T10:23:45Z</time></trkpt><trkpt lat="44.55391942231065" lon="8.481734403162683"><ele>671.0</ele><time>2026-04-27T10:23:46Z</time></trkpt><trkpt lat="44.554063776781966" lon="8.481655407699208"><ele>669.0</ele><time>2026-04-27T10:23:47Z</time></trkpt><trkpt lat="44.55421204278509" lon="8.481656830758883"><ele>667.0</ele><time>2026-04-27T10:23:48Z</time></trkpt><trkpt lat="44.55435220357909" lon="8.481644677592078"><ele>665.0</ele><time>2026-04-27T10:23:49Z</time></trkpt><trkpt lat="44.554467056747995" lon="8.481588902214122"><ele>667.0</ele><time>2026-04-27T10:23:50Z</time></trkpt><trkpt lat="44.55454637654756" lon="8.481434631888982"><ele>669.0</ele><time>2026-04-27T10:23:51Z</time></trkpt><trkpt lat="44.55458359804077" lon="8.481219071291592"><ele>671.0</ele><time>2026-04-27T10:23:52Z</time></trkpt><trkpt lat="44.55458875374184" lon="8.480968694350036"><ele>671.0</ele><time>2026-04-27T10:23:53Z</time></trkpt><trkpt lat="44.55465962946196" lon="8.480729823786652"><ele>671.0</ele><time>2026-04-27T10:23:54Z</time></trkpt><trkpt lat="44.554758437000494" lon="8.48047887115022"><ele>671.0</ele><time>2026-04-27T10:23:55Z</time></trkpt><trkpt lat="44.5548483908244" lon="8.480220883154496"><ele>667.6666666666666</ele><time>2026-04-27T10:23:56Z</time></trkpt><trkpt lat="44.554956896411824" lon="8.479975884515097"><ele>664.3333333333334</ele><time>2026-04-27T10:23:57Z</time></trkpt><trkpt lat="44.555089634854" lon="8.479750628557866"><ele>661.0</ele><time>2026-04-27T10:23:58Z</time></trkpt><trkpt lat="44.555227959499696" lon="8.479536806682848"><ele>661.6666666666667</ele><time>2026-04-27T10:23:59Z</time></trkpt><trkpt lat="44.55534460791121" lon="8.479325772042719"><ele>662.3333333333334</ele><time>2026-04-27T10:24:00Z</time></trkpt><trkpt lat="44.55545111278934" lon="8.479133339766486"><ele>663.0</ele><time>2026-04-27T10:24:01Z</time></trkpt><trkpt lat="44.55557491650907" lon="8.479012933553271"><ele>663.0</ele><time>2026-04-27T10:24:02Z</time></trkpt><trkpt lat="44.55572277290865" lon="8.478927915602029"><ele>663.0</ele><time>2026-04-27T10:24:03Z</time></trkpt><trkpt lat="44.555842456327824" lon="8.478828881675293"><ele>663.0</ele><time>2026-04-27T10:24:04Z</time></trkpt><trkpt lat="44.55592520586376" lon="8.47869242293931"><ele>663.0</ele><time>2026-04-27T10:24:05Z</time></trkpt><trkpt lat="44.555954021139286" lon="8.478486359651116"><ele>661.25</ele><time>2026-04-27T10:24:06Z</time></trkpt><trkpt lat="44.55596403558781" lon="8.478296202036912"><ele>659.5</ele><time>2026-04-27T10:24:07Z</time></trkpt><trkpt lat="44.55603123304899" lon="8.478174778626485"><ele>657.75</ele><time>2026-04-27T10:24:08Z</time></trkpt><trkpt lat="44.5561664197112" lon="8.478155366495526"><ele>656.0</ele><time>2026-04-27T10:24:09Z</time></trkpt><trkpt lat="44.556317143278356" lon="8.478187481263877"><ele>656.0</ele><time>2026-04-27T10:24:10Z</time></trkpt><trkpt lat="44.556494566445096" lon="8.478189658598959"><ele>656.0</ele><time>2026-04-27T10:24:11Z</time></trkpt><trkpt lat="44.55667394210899" lon="8.478157371101299"><ele>656.0</ele><time>2026-04-27T10:24:12Z</time></trkpt><trkpt lat="44.55684537027515" lon="8.4780405377837"><ele>653.5</ele><time>2026-04-27T10:24:13Z</time></trkpt><trkpt lat="44.55698378194029" lon="8.477891632692158"><ele>651.0</ele><time>2026-04-27T10:24:14Z</time></trkpt><trkpt lat="44.55711147913885" lon="8.477838123044275"><ele>648.5</ele><time>2026-04-27T10:24:15Z</time></trkpt><trkpt lat="44.55722785364192" lon="8.477845229770459"><ele>646.0</ele><time>2026-04-27T10:24:16Z</time></trkpt><trkpt lat="44.55730022417042" lon="8.477967107482012"><ele>646.0</ele><time>2026-04-27T10:24:17Z</time></trkpt><trkpt lat="44.5573880904251" lon="8.478128673466792"><ele>646.0</ele><time>2026-04-27T10:24:18Z</time></trkpt><trkpt lat="44.557518026476146" lon="8.478273662305005"><ele>646.0</ele><time>2026-04-27T10:24:19Z</time></trkpt><trkpt lat="44.55768157547496" lon="8.478404639873231"><ele>645.0</ele><time>2026-04-27T10:24:20Z</time></trkpt><trkpt lat="44.55786904775481" lon="8.478494238042911"><ele>644.0</ele><time>2026-04-27T10:24:21Z</time></trkpt><trkpt lat="44.55805059671507" lon="8.47853328857572"><ele>643.0</ele><time>2026-04-27T10:24:22Z</time></trkpt><trkpt lat="44.558206927874" lon="8.478515467902888"><ele>643.0</ele><time>2026-04-27T10:24:23Z</time></trkpt><trkpt lat="44.558339230221215" lon="8.478422777399272"><ele>643.0</ele><time>2026-04-27T10:24:24Z</time></trkpt><trkpt lat="44.55846335446014" lon="8.478259776830354"><ele>643.0</ele><time>2026-04-27T10:24:25Z</time></trkpt><trkpt lat="44.55858165024739" lon="8.478040070496979"><ele>642.3333333333334</ele><time>2026-04-27T10:24:26Z</time></trkpt><trkpt lat="44.558701162791536" lon="8.477815066176351"><ele>641.6666666666666</ele><time>2026-04-27T10:24:27Z</time></trkpt><trkpt lat="44.55882564734572" lon="8.477592260890235"><ele>641.0</ele><time>2026-04-27T10:24:28Z</time></trkpt><trkpt lat="44.55895779161202" lon="8.477364413781864"><ele>641.0</ele><time>2026-04-27T10:24:29Z</time></trkpt><trkpt lat="44.55908663273696" lon="8.47712645381757"><ele>641.0</ele><time>2026-04-27T10:24:30Z</time></trkpt><trkpt lat="44.55920219138114" lon="8.47687680008049"><ele>641.0</ele><time>2026-04-27T10:24:31Z</time></trkpt><trkpt lat="44.55929665199899" lon="8.47665228130268"><ele>639.0</ele><time>2026-04-27T10:24:32Z</time></trkpt><trkpt lat="44.55938603835795" lon="8.476479617858729"><ele>637.0</ele><time>2026-04-27T10:24:33Z</time></trkpt><trkpt lat="44.55950310203531" lon="8.476388795995717"><ele>635.0</ele><time>2026-04-27T10:24:34Z</time></trkpt><trkpt lat="44.55964112816046" lon="8.476277019031928"><ele>633.0</ele><time>2026-04-27T10:24:35Z</time></trkpt><trkpt lat="44.55980378909779" lon="8.47615526083976"><ele>632.0</ele><time>2026-04-27T10:24:36Z</time></trkpt><trkpt lat="44.559962088985394" lon="8.475986209110063"><ele>631.0</ele><time>2026-04-27T10:24:37Z</time></trkpt><trkpt lat="44.560117068411124" lon="8.475788995739999"><ele>630.0</ele><time>2026-04-27T10:24:38Z</time></trkpt><trkpt lat="44.560269515722354" lon="8.47558800304999"><ele>628.0</ele><time>2026-04-27T10:24:39Z</time></trkpt><trkpt lat="44.56040990117695" lon="8.475404956011998"><ele>626.0</ele><time>2026-04-27T10:24:40Z</time></trkpt><trkpt lat="44.56052808538722" lon="8.475201557073817"><ele>624.0</ele><time>2026-04-27T10:24:41Z</time></trkpt><trkpt lat="44.56061158155326" lon="8.474951453797072"><ele>624.0</ele><time>2026-04-27T10:24:42Z</time></trkpt><trkpt lat="44.56068526308046" lon="8.47468567902133"><ele>624.0</ele><time>2026-04-27T10:24:43Z</time></trkpt><trkpt lat="44.56077440012829" lon="8.47443622133964"><ele>624.0</ele><time>2026-04-27T10:24:44Z</time></trkpt><trkpt lat="44.56089413548112" lon="8.474197197660665"><ele>624.0</ele><time>2026-04-27T10:24:45Z</time></trkpt><trkpt lat="44.56101838692211" lon="8.47396065228021"><ele>624.0</ele><time>2026-04-27T10:24:46Z</time></trkpt><trkpt lat="44.561148056980876" lon="8.473728295545026"><ele>624.0</ele><time>2026-04-27T10:24:47Z</time></trkpt><trkpt lat="44.56129510187116" lon="8.473512543741624"><ele>624.6666666666666</ele><time>2026-04-27T10:24:48Z</time></trkpt><trkpt lat="44.5614578434339" lon="8.473323948299544"><ele>625.3333333333333</ele><time>2026-04-27T10:24:49Z</time></trkpt><trkpt lat="44.56161030489129" lon="8.473172365249296"><ele>626.0</ele><time>2026-04-27T10:24:50Z</time></trkpt><trkpt lat="44.561736533436125" lon="8.472998970626046"><ele>629.3333333333333</ele><time>2026-04-27T10:24:51Z</time></trkpt><trkpt lat="44.56183313396239" lon="8.47277659556632"><ele>632.6666666666666</ele><time>2026-04-27T10:24:51.999Z</time></trkpt><trkpt lat="44.56191982232189" lon="8.47253580015342"><ele>636.0</ele><time>2026-04-27T10:24:52.999Z</time></trkpt><trkpt lat="44.56201355659746" lon="8.472333873966448"><ele>634.6666666666666</ele><time>2026-04-27T10:24:53.999Z</time></trkpt><trkpt lat="44.56212805150726" lon="8.47215792498081"><ele>633.3333333333333</ele><time>2026-04-27T10:24:54.999Z</time></trkpt><trkpt lat="44.56228006031396" lon="8.471993677693057"><ele>632.0</ele><time>2026-04-27T10:24:55.999Z</time></trkpt><trkpt lat="44.562449496845076" lon="8.471836025477176"><ele>630.6666666666666</ele><time>2026-04-27T10:24:56.999Z</time></trkpt><trkpt lat="44.56261895683007" lon="8.471643678522197"><ele>629.3333333333334</ele><time>2026-04-27T10:24:57.999Z</time></trkpt><trkpt lat="44.56275505744558" lon="8.471417057655747"><ele>628.0</ele><time>2026-04-27T10:24:58.999Z</time></trkpt><trkpt lat="44.56284061872134" lon="8.471156060233385"><ele>627.3333333333334</ele><time>2026-04-27T10:24:59.999Z</time></trkpt><trkpt lat="44.562928864292026" lon="8.470912338146901"><ele>626.6666666666666</ele><time>2026-04-27T10:25:00.999Z</time></trkpt><trkpt lat="44.56306564263051" lon="8.470685903686626"><ele>626.0</ele><time>2026-04-27T10:25:01.999Z</time></trkpt><trkpt lat="44.56322078195914" lon="8.470469048215831"><ele>625.6666666666666</ele><time>2026-04-27T10:25:02.999Z</time></trkpt><trkpt lat="44.563357461731385" lon="8.470267495585432"><ele>625.3333333333334</ele><time>2026-04-27T10:25:03.999Z</time></trkpt><trkpt lat="44.56347669022091" lon="8.470092978588717"><ele>625.0</ele><time>2026-04-27T10:25:04.999Z</time></trkpt><trkpt lat="44.56362371847668" lon="8.469987223471897"><ele>625.3333333333334</ele><time>2026-04-27T10:25:05.999Z</time></trkpt><trkpt lat="44.56379155812825" lon="8.469918143570148"><ele>625.6666666666666</ele><time>2026-04-27T10:25:06.999Z</time></trkpt><trkpt lat="44.56398221052151" lon="8.469835712887765"><ele>626.0</ele><time>2026-04-27T10:25:07.999Z</time></trkpt><trkpt lat="44.56417728282985" lon="8.469792901827189"><ele>626.0</ele><time>2026-04-27T10:25:08.999Z</time></trkpt><trkpt lat="44.5643798658344" lon="8.469755074579648"><ele>626.0</ele><time>2026-04-27T10:25:09.999Z</time></trkpt><trkpt lat="44.564580236148146" lon="8.469757438299755"><ele>626.0</ele><time>2026-04-27T10:25:10.999Z</time></trkpt><trkpt lat="44.5647834879684" lon="8.469816484113855"><ele>625.6666666666666</ele><time>2026-04-27T10:25:11.999Z</time></trkpt><trkpt lat="44.56499744928706" lon="8.46985092306679"><ele>625.3333333333334</ele><time>2026-04-27T10:25:12.999Z</time></trkpt><trkpt lat="44.56521916185477" lon="8.469905816609124"><ele>625.0</ele><time>2026-04-27T10:25:13.999Z</time></trkpt><trkpt lat="44.565450409101956" lon="8.469945658249815"><ele>625.0</ele><time>2026-04-27T10:25:14.999Z</time></trkpt><trkpt lat="44.565679673551166" lon="8.469970484466714"><ele>625.0</ele><time>2026-04-27T10:25:15.999Z</time></trkpt><trkpt lat="44.56591063686758" lon="8.469994359584554"><ele>625.0</ele><time>2026-04-27T10:25:16.999Z</time></trkpt><trkpt lat="44.56614801972958" lon="8.470013076236011"><ele>625.0</ele><time>2026-04-27T10:25:17.999Z</time></trkpt><trkpt lat="44.5663877036606" lon="8.470021020375762"><ele>623.5</ele><time>2026-04-27T10:25:18.999Z</time></trkpt><trkpt lat="44.566627249354" lon="8.470006120994778"><ele>622.0</ele><time>2026-04-27T10:25:19.999Z</time></trkpt><trkpt lat="44.5668625054106" lon="8.469984685449049"><ele>619.5</ele><time>2026-04-27T10:25:20.999Z</time></trkpt><trkpt lat="44.567092287136106" lon="8.4699900612102"><ele>617.0</ele><time>2026-04-27T10:25:21.999Z</time></trkpt><trkpt lat="44.567313673502156" lon="8.470048509867455"><ele>617.0</ele><time>2026-04-27T10:25:22.999Z</time></trkpt><trkpt lat="44.567529356471766" lon="8.470074167492127"><ele>617.0</ele><time>2026-04-27T10:25:23.999Z</time></trkpt><trkpt lat="44.567737616271586" lon="8.470136273728324"><ele>617.0</ele><time>2026-04-27T10:25:24.999Z</time></trkpt><trkpt lat="44.567935761799035" lon="8.470218427932274"><ele>616.6666666666666</ele><time>2026-04-27T10:25:25.999Z</time></trkpt><trkpt lat="44.56812569626745" lon="8.470326763731613"><ele>616.3333333333334</ele><time>2026-04-27T10:25:26.999Z</time></trkpt><trkpt lat="44.56831845237527" lon="8.470423053542996"><ele>616.0</ele><time>2026-04-27T10:25:27.999Z</time></trkpt><trkpt lat="44.56851682647064" lon="8.470486085467794"><ele>617.3333333333334</ele><time>2026-04-27T10:25:28.999Z</time></trkpt><trkpt lat="44.56870249798059" lon="8.4705204339048"><ele>618.6666666666666</ele><time>2026-04-27T10:25:29.999Z</time></trkpt><trkpt lat="44.56886814812058" lon="8.470552605449278"><ele>620.0</ele><time>2026-04-27T10:25:30.999Z</time></trkpt><trkpt lat="44.56903505935138" lon="8.47060944164662"><ele>620.0</ele><time>2026-04-27T10:25:31.999Z</time></trkpt><trkpt lat="44.569215242838695" lon="8.470691683991467"><ele>620.0</ele><time>2026-04-27T10:25:32.999Z</time></trkpt><trkpt lat="44.56940188220206" lon="8.47078426402032"><ele>620.0</ele><time>2026-04-27T10:25:33.999Z</time></trkpt><trkpt lat="44.56959945574752" lon="8.470870153635559"><ele>620.0</ele><time>2026-04-27T10:25:34.999Z</time></trkpt><trkpt lat="44.56979236461989" lon="8.47092892171745"><ele>620.0</ele><time>2026-04-27T10:25:35.999Z</time></trkpt><trkpt lat="44.56998165268972" lon="8.470964861116277"><ele>620.0</ele><time>2026-04-27T10:25:36.999Z</time></trkpt><trkpt lat="44.57016987389071" lon="8.4709870921317"><ele>618.3333333333333</ele><time>2026-04-27T10:25:37.999Z</time></trkpt><trkpt lat="44.570361325451245" lon="8.470992930788634"><ele>616.6666666666666</ele><time>2026-04-27T10:25:39Z</time></trkpt><trkpt lat="44.5705554623388" lon="8.470984745030966"><ele>615.0</ele><time>2026-04-27T10:25:40Z</time></trkpt><trkpt lat="44.57075040319377" lon="8.470988994510062"><ele>615.0</ele><time>2026-04-27T10:25:41Z</time></trkpt><trkpt lat="44.57093627577544" lon="8.470993872779697"><ele>615.0</ele><time>2026-04-27T10:25:42Z</time></trkpt><trkpt lat="44.57112239717632" lon="8.47095905364111"><ele>615.0</ele><time>2026-04-27T10:25:43Z</time></trkpt><trkpt lat="44.57129887228401" lon="8.47086283864709"><ele>614.0</ele><time>2026-04-27T10:25:44Z</time></trkpt><trkpt lat="44.571468079244895" lon="8.47071506799111"><ele>613.0</ele><time>2026-04-27T10:25:45Z</time></trkpt><trkpt lat="44.57161715440677" lon="8.47053511604147"><ele>612.0</ele><time>2026-04-27T10:25:46Z</time></trkpt><trkpt lat="44.571732654109695" lon="8.47032517020616"><ele>610.0</ele><time>2026-04-27T10:25:47Z</time></trkpt><trkpt lat="44.5718057809543" lon="8.470083532349916"><ele>608.0</ele><time>2026-04-27T10:25:48Z</time></trkpt><trkpt lat="44.57188390467623" lon="8.46984281872689"><ele>606.0</ele><time>2026-04-27T10:25:49Z</time></trkpt><trkpt lat="44.57201027207424" lon="8.469625551103857"><ele>604.3333333333334</ele><time>2026-04-27T10:25:50Z</time></trkpt><trkpt lat="44.572156285032214" lon="8.46942569954632"><ele>602.6666666666667</ele><time>2026-04-27T10:25:51Z</time></trkpt><trkpt lat="44.57228915654371" lon="8.469220971796343"><ele>601.0</ele><time>2026-04-27T10:25:52Z</time></trkpt><trkpt lat="44.57242517291596" lon="8.469033081112581"><ele>601.0</ele><time>2026-04-27T10:25:53Z</time></trkpt><trkpt lat="44.57257646946935" lon="8.468910415787503"><ele>601.0</ele><time>2026-04-27T10:25:54Z</time></trkpt><trkpt lat="44.57270590233579" lon="8.468789269801476"><ele>601.0</ele><time>2026-04-27T10:25:55Z</time></trkpt><trkpt lat="44.572842844988706" lon="8.468749677557689"><ele>601.5</ele><time>2026-04-27T10:25:56Z</time></trkpt><trkpt lat="44.57295607840422" lon="8.468721194164026"><ele>602.0</ele><time>2026-04-27T10:25:57Z</time></trkpt><trkpt lat="44.573037411523615" lon="8.468617557184348"><ele>602.5</ele><time>2026-04-27T10:25:58Z</time></trkpt><trkpt lat="44.57310205734039" lon="8.468471280810258"><ele>603.0</ele><time>2026-04-27T10:25:59Z</time></trkpt><trkpt lat="44.57315572547003" lon="8.468338032376554"><ele>603.0</ele><time>2026-04-27T10:26:00Z</time></trkpt><trkpt lat="44.573218783145236" lon="8.468225808016006"><ele>603.0</ele><time>2026-04-27T10:26:01Z</time></trkpt><trkpt lat="44.573305559347205" lon="8.468104832518721"><ele>603.0</ele><time>2026-04-27T10:26:02Z</time></trkpt><trkpt lat="44.57341547774543" lon="8.467988383484482"><ele>603.0</ele><time>2026-04-27T10:26:03Z</time></trkpt><trkpt lat="44.5735483359961" lon="8.467894688510052"><ele>600.3333333333334</ele><time>2026-04-27T10:26:04Z</time></trkpt><trkpt lat="44.57367239389773" lon="8.467760844594128"><ele>597.6666666666667</ele><time>2026-04-27T10:26:05Z</time></trkpt><trkpt lat="44.57381027166429" lon="8.467641775369152"><ele>595.0</ele><time>2026-04-27T10:26:06Z</time></trkpt><trkpt lat="44.57395560980106" lon="8.467541168690294"><ele>595.0</ele><time>2026-04-27T10:26:07Z</time></trkpt><trkpt lat="44.57409624552971" lon="8.467449058797772"><ele>595.0</ele><time>2026-04-27T10:26:08Z</time></trkpt><trkpt lat="44.57421338026159" lon="8.467310925041575"><ele>595.0</ele><time>2026-04-27T10:26:09Z</time></trkpt><trkpt lat="44.5743012767729" lon="8.467135081293305"><ele>594.5</ele><time>2026-04-27T10:26:10Z</time></trkpt><trkpt lat="44.57439616462969" lon="8.46696387845633"><ele>594.0</ele><time>2026-04-27T10:26:11Z</time></trkpt><trkpt lat="44.57448828003358" lon="8.466831795753931"><ele>593.5</ele><time>2026-04-27T10:26:12Z</time></trkpt><trkpt lat="44.57458685572944" lon="8.466736328974541"><ele>593.0</ele><time>2026-04-27T10:26:13Z</time></trkpt><trkpt lat="44.57469424332051" lon="8.466706175121853"><ele>593.0</ele><time>2026-04-27T10:26:14Z</time></trkpt><trkpt lat="44.574832088738546" lon="8.466646763057415"><ele>593.0</ele><time>2026-04-27T10:26:15Z</time></trkpt><trkpt lat="44.57495738986311" lon="8.466598070104688"><ele>593.0</ele><time>2026-04-27T10:26:16Z</time></trkpt><trkpt lat="44.57508459124482" lon="8.466571011456402"><ele>593.0</ele><time>2026-04-27T10:26:17Z</time></trkpt><trkpt lat="44.57523673582468" lon="8.46655644240427"><ele>593.3333333333333</ele><time>2026-04-27T10:26:18Z</time></trkpt><trkpt lat="44.57540344808478" lon="8.466555196038062"><ele>593.6666666666666</ele><time>2026-04-27T10:26:19Z</time></trkpt><trkpt lat="44.575586271990396" lon="8.466529002722615"><ele>594.0</ele><time>2026-04-27T10:26:20Z</time></trkpt><trkpt lat="44.57578273693983" lon="8.466483641068253"><ele>594.0</ele><time>2026-04-27T10:26:21Z</time></trkpt><trkpt lat="44.57597669878886" lon="8.466438688862246"><ele>594.0</ele><time>2026-04-27T10:26:22Z</time></trkpt><trkpt lat="44.576172479343576" lon="8.466409683633454"><ele>594.0</ele><time>2026-04-27T10:26:23Z</time></trkpt><trkpt lat="44.57636803012548" lon="8.466385774625124"><ele>595.6666666666666</ele><time>2026-04-27T10:26:24Z</time></trkpt><trkpt lat="44.57654980658066" lon="8.46634268813111"><ele>597.3333333333333</ele><time>2026-04-27T10:26:25Z</time></trkpt><trkpt lat="44.576713865744566" lon="8.46628497232235"><ele>599.0</ele><time>2026-04-27T10:26:26Z</time></trkpt><trkpt lat="44.57686331672313" lon="8.466160498436587"><ele>593.6666666666666</ele><time>2026-04-27T10:26:27Z</time></trkpt><trkpt lat="44.577003531954865" lon="8.46600882684056"><ele>588.3333333333334</ele><time>2026-04-27T10:26:28Z</time></trkpt><trkpt lat="44.57713770211266" lon="8.46584498697591"><ele>583.0</ele><time>2026-04-27T10:26:29Z</time></trkpt><trkpt lat="44.577277764794765" lon="8.465689588360412"><ele>583.0</ele><time>2026-04-27T10:26:30Z</time></trkpt><trkpt lat="44.57743420774227" lon="8.465562007420985"><ele>583.0</ele><time>2026-04-27T10:26:31Z</time></trkpt><trkpt lat="44.57758842661862" lon="8.46546778690584"><ele>583.0</ele><time>2026-04-27T10:26:32Z</time></trkpt><trkpt lat="44.57771714661834" lon="8.465350197832716"><ele>577.0</ele><time>2026-04-27T10:26:33Z</time></trkpt><trkpt lat="44.57782900155639" lon="8.465194903925665"><ele>571.0</ele><time>2026-04-27T10:26:34Z</time></trkpt><trkpt lat="44.577939602085" lon="8.465015971828066"><ele>565.0</ele><time>2026-04-27T10:26:35Z</time></trkpt><trkpt lat="44.57805511375488" lon="8.464827078888447"><ele>565.0</ele><time>2026-04-27T10:26:36Z</time></trkpt><trkpt lat="44.578181651987805" lon="8.464634377474452"><ele>565.0</ele><time>2026-04-27T10:26:37Z</time></trkpt><trkpt lat="44.57831099292274" lon="8.4644122893337"><ele>565.0</ele><time>2026-04-27T10:26:38Z</time></trkpt><trkpt lat="44.57843738906654" lon="8.464228541687959"><ele>563.0</ele><time>2026-04-27T10:26:39Z</time></trkpt><trkpt lat="44.57855992019567" lon="8.46405961319444"><ele>561.0</ele><time>2026-04-27T10:26:40Z</time></trkpt><trkpt lat="44.57868447358389" lon="8.463898670001239"><ele>559.0</ele><time>2026-04-27T10:26:41Z</time></trkpt><trkpt lat="44.5788031164274" lon="8.463754567877919"><ele>558.5</ele><time>2026-04-27T10:26:42Z</time></trkpt><trkpt lat="44.57889852529356" lon="8.46360590018367"><ele>558.0</ele><time>2026-04-27T10:26:43Z</time></trkpt><trkpt lat="44.578980631224276" lon="8.463468109496466"><ele>557.5</ele><time>2026-04-27T10:26:44Z</time></trkpt><trkpt lat="44.579084873828485" lon="8.463398586216785"><ele>557.0</ele><time>2026-04-27T10:26:45Z</time></trkpt><trkpt lat="44.57919077565167" lon="8.46331787431855"><ele>557.0</ele><time>2026-04-27T10:26:46Z</time></trkpt><trkpt lat="44.57931780062176" lon="8.46322193140615"><ele>557.0</ele><time>2026-04-27T10:26:47Z</time></trkpt><trkpt lat="44.57945270379815" lon="8.463125049523406"><ele>557.0</ele><time>2026-04-27T10:26:48Z</time></trkpt><trkpt lat="44.5795726619931" lon="8.4629722437846"><ele>558.3333333333333</ele><time>2026-04-27T10:26:49Z</time></trkpt><trkpt lat="44.579651038698735" lon="8.462773198618446"><ele>559.6666666666666</ele><time>2026-04-27T10:26:50Z</time></trkpt><trkpt lat="44.57974118704034" lon="8.462596049863219"><ele>561.0</ele><time>2026-04-27T10:26:51Z</time></trkpt><trkpt lat="44.57986035753488" lon="8.462473136131386"><ele>561.0</ele><time>2026-04-27T10:26:52Z</time></trkpt><trkpt lat="44.58000556608111" lon="8.462405235021258"><ele>561.0</ele><time>2026-04-27T10:26:53Z</time></trkpt><trkpt lat="44.58017236249727" lon="8.462346518593067"><ele>561.0</ele><time>2026-04-27T10:26:54Z</time></trkpt><trkpt lat="44.580343481101316" lon="8.462277237668644"><ele>561.3333333333334</ele><time>2026-04-27T10:26:55Z</time></trkpt><trkpt lat="44.58052763679504" lon="8.462227084017606"><ele>561.6666666666667</ele><time>2026-04-27T10:26:56Z</time></trkpt><trkpt lat="44.58070820349015" lon="8.462176135072642"><ele>562.0</ele><time>2026-04-27T10:26:57Z</time></trkpt><trkpt lat="44.580873891092935" lon="8.46210736681804"><ele>562.0</ele><time>2026-04-27T10:26:58Z</time></trkpt><trkpt lat="44.58100519869042" lon="8.461997844294062"><ele>562.0</ele><time>2026-04-27T10:26:59Z</time></trkpt><trkpt lat="44.58111844872529" lon="8.461835815659695"><ele>562.0</ele><time>2026-04-27T10:26:59.999Z</time></trkpt><trkpt lat="44.58122830239828" lon="8.461646217001638"><ele>559.0</ele><time>2026-04-27T10:27:00.999Z</time></trkpt><trkpt lat="44.581337548255064" lon="8.461434238963484"><ele>556.0</ele><time>2026-04-27T10:27:01.999Z</time></trkpt><trkpt lat="44.58145125468049" lon="8.461236003280488"><ele>553.0</ele><time>2026-04-27T10:27:02.999Z</time></trkpt><trkpt lat="44.58157654837288" lon="8.461065366913669"><ele>552.6666666666667</ele><time>2026-04-27T10:27:03.999Z</time></trkpt><trkpt lat="44.581710125235155" lon="8.460939013373386"><ele>552.3333333333334</ele><time>2026-04-27T10:27:04.999Z</time></trkpt><trkpt lat="44.58184820567589" lon="8.460861279947617"><ele>552.0</ele><time>2026-04-27T10:27:05.999Z</time></trkpt><trkpt lat="44.581995030566254" lon="8.460777692119564"><ele>554.0</ele><time>2026-04-27T10:27:06.999Z</time></trkpt><trkpt lat="44.58213604188657" lon="8.460677618013712"><ele>556.0</ele><time>2026-04-27T10:27:07.999Z</time></trkpt><trkpt lat="44.582244390441645" lon="8.460477001045373"><ele>558.0</ele><time>2026-04-27T10:27:08.999Z</time></trkpt><trkpt lat="44.582310569056446" lon="8.460223941322251"><ele>557.6666666666666</ele><time>2026-04-27T10:27:09.999Z</time></trkpt><trkpt lat="44.58238005236893" lon="8.459945224201556"><ele>557.3333333333333</ele><time>2026-04-27T10:27:10.999Z</time></trkpt><trkpt lat="44.58246507273149" lon="8.45968806866407"><ele>557.0</ele><time>2026-04-27T10:27:11.999Z</time></trkpt><trkpt lat="44.58253932922508" lon="8.459476152586104"><ele>557.0</ele><time>2026-04-27T10:27:12.999Z</time></trkpt><trkpt lat="44.58262242412833" lon="8.459341442909775"><ele>557.0</ele><time>2026-04-27T10:27:13.999Z</time></trkpt><trkpt lat="44.582669068823904" lon="8.459272024422546"><ele>557.0</ele><time>2026-04-27T10:27:14.999Z</time></trkpt><trkpt lat="44.5827309219281" lon="8.459314313443382"><ele>557.0</ele><time>2026-04-27T10:27:15.999Z</time></trkpt><trkpt lat="44.58272143200544" lon="8.459544830800619"><ele>557.0</ele><time>2026-04-27T10:27:17.999Z</time></trkpt><trkpt lat="44.58263770212575" lon="8.459664957725337"><ele>559.0</ele><time>2026-04-27T10:27:18.999Z</time></trkpt><trkpt lat="44.582545038349714" lon="8.459854667942738"><ele>561.0</ele><time>2026-04-27T10:27:19.999Z</time></trkpt><trkpt lat="44.58248250867852" lon="8.460037936571817"><ele>563.0</ele><time>2026-04-27T10:27:20.999Z</time></trkpt><trkpt lat="44.58247826174529" lon="8.460200247349238"><ele>565.0</ele><time>2026-04-27T10:27:21.999Z</time></trkpt><trkpt lat="44.58253085272714" lon="8.460333730753465"><ele>565.0</ele><time>2026-04-27T10:27:22.999Z</time></trkpt><trkpt lat="44.582636511011735" lon="8.460423726681874"><ele>565.0</ele><time>2026-04-27T10:27:23.999Z</time></trkpt><trkpt lat="44.5827838137094" lon="8.460453002512677"><ele>565.0</ele><time>2026-04-27T10:27:24.999Z</time></trkpt><trkpt lat="44.58298600875655" lon="8.460462606669873"><ele>569.0</ele><time>2026-04-27T10:27:25.999Z</time></trkpt><trkpt lat="44.58316983007341" lon="8.460523654055326"><ele>573.0</ele><time>2026-04-27T10:27:26.999Z</time></trkpt><trkpt lat="44.58336454367128" lon="8.46060777800447"><ele>577.0</ele><time>2026-04-27T10:27:27.999Z</time></trkpt><trkpt lat="44.58357171457191" lon="8.460665483171464"><ele>582.5</ele><time>2026-04-27T10:27:28.999Z</time></trkpt><trkpt lat="44.583798404666375" lon="8.460706522440569"><ele>588.0</ele><time>2026-04-27T10:27:29.999Z</time></trkpt><trkpt lat="44.58403393104418" lon="8.46073642453986"><ele>588.0</ele><time>2026-04-27T10:27:30.999Z</time></trkpt><trkpt lat="44.58425766288861" lon="8.460756157390438"><ele>588.0</ele><time>2026-04-27T10:27:31.999Z</time></trkpt><trkpt lat="44.58445953124757" lon="8.460765751302988"><ele>588.0</ele><time>2026-04-27T10:27:32.999Z</time></trkpt><trkpt lat="44.58463487299031" lon="8.460797369418328"><ele>588.75</ele><time>2026-04-27T10:27:33.999Z</time></trkpt><trkpt lat="44.584785986845546" lon="8.460863148094036"><ele>589.5</ele><time>2026-04-27T10:27:34.999Z</time></trkpt><trkpt lat="44.584902899876795" lon="8.460917262445696"><ele>590.25</ele><time>2026-04-27T10:27:35.999Z</time></trkpt><trkpt lat="44.58501373988512" lon="8.460889486440383"><ele>591.0</ele><time>2026-04-27T10:27:36.999Z</time></trkpt><trkpt lat="44.58512556123364" lon="8.460765635685075"><ele>591.0</ele><time>2026-04-27T10:27:37.999Z</time></trkpt><trkpt lat="44.585261501648546" lon="8.460596536384644"><ele>591.0</ele><time>2026-04-27T10:27:38.999Z</time></trkpt><trkpt lat="44.585432949764346" lon="8.460502545490554"><ele>591.0</ele><time>2026-04-27T10:27:39.999Z</time></trkpt><trkpt lat="44.585616648602766" lon="8.460417442982807"><ele>597.0</ele><time>2026-04-27T10:27:40.999Z</time></trkpt><trkpt lat="44.58579334051384" lon="8.460313680552815"><ele>603.0</ele><time>2026-04-27T10:27:41.999Z</time></trkpt><trkpt lat="44.585972907384296" lon="8.460237035434357"><ele>609.0</ele><time>2026-04-27T10:27:42.999Z</time></trkpt><trkpt lat="44.586125874194586" lon="8.46019578889008"><ele>607.6666666666666</ele><time>2026-04-27T10:27:43.999Z</time></trkpt><trkpt lat="44.58626048270511" lon="8.460229779524779"><ele>606.3333333333333</ele><time>2026-04-27T10:27:45Z</time></trkpt><trkpt lat="44.586409586924454" lon="8.460252378167601"><ele>605.0</ele><time>2026-04-27T10:27:46Z</time></trkpt><trkpt lat="44.58657484126961" lon="8.460257569071649"><ele>605.0</ele><time>2026-04-27T10:27:47Z</time></trkpt><trkpt lat="44.5867233241159" lon="8.460285216321697"><ele>605.0</ele><time>2026-04-27T10:27:48Z</time></trkpt><trkpt lat="44.586856507648136" lon="8.460303286710563"><ele>605.0</ele><time>2026-04-27T10:27:49Z</time></trkpt><trkpt lat="44.58697493017117" lon="8.460325549069998"><ele>605.0</ele><time>2026-04-27T10:27:50Z</time></trkpt><trkpt lat="44.58708300956673" lon="8.460348960320811"><ele>604.4</ele><time>2026-04-27T10:27:51Z</time></trkpt><trkpt lat="44.58718008865764" lon="8.460359783552889"><ele>603.8</ele><time>2026-04-27T10:27:52Z</time></trkpt><trkpt lat="44.58726697344232" lon="8.46033727765137"><ele>603.2</ele><time>2026-04-27T10:27:53Z</time></trkpt><trkpt lat="44.587339520822674" lon="8.460273885522025"><ele>602.6</ele><time>2026-04-27T10:27:54Z</time></trkpt><trkpt lat="44.58741009580182" lon="8.460175668490217"><ele>602.0</ele><time>2026-04-27T10:27:55Z</time></trkpt><trkpt lat="44.58748846851164" lon="8.46005608748287"><ele>602.0</ele><time>2026-04-27T10:27:56Z</time></trkpt><trkpt lat="44.58759263562355" lon="8.45994287387937"><ele>602.0</ele><time>2026-04-27T10:27:57Z</time></trkpt><trkpt lat="44.58770094208937" lon="8.459796660461638"><ele>602.0</ele><time>2026-04-27T10:27:58Z</time></trkpt><trkpt lat="44.58781119128272" lon="8.459654667785406"><ele>602.0</ele><time>2026-04-27T10:27:59Z</time></trkpt><trkpt lat="44.58790943256412" lon="8.459515276744764"><ele>602.0</ele><time>2026-04-27T10:28:00Z</time></trkpt><trkpt lat="44.58800270773117" lon="8.459406798079538"><ele>602.0</ele><time>2026-04-27T10:28:01Z</time></trkpt><trkpt lat="44.58808844927745" lon="8.459311403696486"><ele>602.0</ele><time>2026-04-27T10:28:02Z</time></trkpt><trkpt lat="44.58819202085117" lon="8.4592547547585"><ele>602.0</ele><time>2026-04-27T10:28:03Z</time></trkpt><trkpt lat="44.58830579436793" lon="8.45922952563057"><ele>602.0</ele><time>2026-04-27T10:28:04Z</time></trkpt><trkpt lat="44.58841996910125" lon="8.459287128848954"><ele>602.0</ele><time>2026-04-27T10:28:05Z</time></trkpt><trkpt lat="44.58854194377374" lon="8.459352042030476"><ele>602.0</ele><time>2026-04-27T10:28:06Z</time></trkpt><trkpt lat="44.58870052825475" lon="8.459413507400418"><ele>602.0</ele><time>2026-04-27T10:28:07Z</time></trkpt><trkpt lat="44.588857739116" lon="8.459492091012033"><ele>603.25</ele><time>2026-04-27T10:28:08Z</time></trkpt><trkpt lat="44.58900074994618" lon="8.459561611321755"><ele>604.5</ele><time>2026-04-27T10:28:09Z</time></trkpt><trkpt lat="44.589132683884976" lon="8.459627392139545"><ele>605.75</ele><time>2026-04-27T10:28:10Z</time></trkpt><trkpt lat="44.58927084168379" lon="8.459706285504488"><ele>607.0</ele><time>2026-04-27T10:28:11Z</time></trkpt><trkpt lat="44.58939181331867" lon="8.459832163607812"><ele>604.0</ele><time>2026-04-27T10:28:12Z</time></trkpt><trkpt lat="44.58953421819484" lon="8.45995301975458"><ele>601.0</ele><time>2026-04-27T10:28:13Z</time></trkpt><trkpt lat="44.58969029194057" lon="8.460029749419926"><ele>598.0</ele><time>2026-04-27T10:28:14Z</time></trkpt><trkpt lat="44.58983772472926" lon="8.460101843689113"><ele>598.0</ele><time>2026-04-27T10:28:15Z</time></trkpt><trkpt lat="44.58997369374647" lon="8.46018304068235"><ele>598.0</ele><time>2026-04-27T10:28:16Z</time></trkpt><trkpt lat="44.5901090582983" lon="8.460247824591587"><ele>598.0</ele><time>2026-04-27T10:28:17Z</time></trkpt><trkpt lat="44.590229239709984" lon="8.460310177633687"><ele>598.0</ele><time>2026-04-27T10:28:18Z</time></trkpt><trkpt lat="44.590323739186566" lon="8.46034221901193"><ele>598.0</ele><time>2026-04-27T10:28:19Z</time></trkpt><trkpt lat="44.59036152760492" lon="8.460455135548166"><ele>598.0</ele><time>2026-04-27T10:28:21Z</time></trkpt><trkpt lat="44.59022542620465" lon="8.460523305941647"><ele>598.0</ele><time>2026-04-27T10:28:23Z</time></trkpt><trkpt lat="44.59014721389971" lon="8.460404231173577"><ele>598.0</ele><time>2026-04-27T10:28:24Z</time></trkpt><trkpt lat="44.59002589622864" lon="8.460274192944622"><ele>598.0</ele><time>2026-04-27T10:28:25Z</time></trkpt><trkpt lat="44.589884524189806" lon="8.460173108496837"><ele>598.0</ele><time>2026-04-27T10:28:26Z</time></trkpt><trkpt lat="44.58972566499285" lon="8.460165869520804"><ele>598.0</ele><time>2026-04-27T10:28:27Z</time></trkpt><trkpt lat="44.58957746271658" lon="8.460227937064749"><ele>595.6</ele><time>2026-04-27T10:28:28Z</time></trkpt><trkpt lat="44.58945239854496" lon="8.460279207230808"><ele>593.1999999999999</ele><time>2026-04-27T10:28:29Z</time></trkpt><trkpt lat="44.5893437960734" lon="8.46025907160441"><ele>590.8</ele><time>2026-04-27T10:28:30Z</time></trkpt><trkpt lat="44.58926878743362" lon="8.46013816558185"><ele>588.4</ele><time>2026-04-27T10:28:31Z</time></trkpt><trkpt lat="44.58918974640192" lon="8.460081848296669"><ele>586.0</ele><time>2026-04-27T10:28:32Z</time></trkpt><trkpt lat="44.58907762793204" lon="8.460163732582535"><ele>586.0</ele><time>2026-04-27T10:28:34Z</time></trkpt><trkpt lat="44.589093776593856" lon="8.46030607400835"><ele>586.0</ele><time>2026-04-27T10:28:35Z</time></trkpt><trkpt lat="44.5891581277101" lon="8.460433773985791"><ele>586.0</ele><time>2026-04-27T10:28:36Z</time></trkpt><trkpt lat="44.589314500805564" lon="8.460472421446939"><ele>586.0</ele><time>2026-04-27T10:28:37Z</time></trkpt><trkpt lat="44.589480464781616" lon="8.460466953660195"><ele>590.0</ele><time>2026-04-27T10:28:38Z</time></trkpt><trkpt lat="44.58964723260808" lon="8.460430917625802"><ele>594.0</ele><time>2026-04-27T10:28:39Z</time></trkpt><trkpt lat="44.589797572727655" lon="8.460501309725977"><ele>598.0</ele><time>2026-04-27T10:28:40Z</time></trkpt><trkpt lat="44.589949487341805" lon="8.460625757293993"><ele>592.6666666666667</ele><time>2026-04-27T10:28:41Z</time></trkpt><trkpt lat="44.590118392915" lon="8.46076789194967"><ele>587.3333333333334</ele><time>2026-04-27T10:28:42Z</time></trkpt><trkpt lat="44.590306461884516" lon="8.460901374155714"><ele>582.0</ele><time>2026-04-27T10:28:43Z</time></trkpt><trkpt lat="44.590493183815724" lon="8.4610654375651"><ele>582.0</ele><time>2026-04-27T10:28:44Z</time></trkpt><trkpt lat="44.59067047800548" lon="8.461221068596245"><ele>582.0</ele><time>2026-04-27T10:28:45Z</time></trkpt><trkpt lat="44.59083825222891" lon="8.461363873655984"><ele>582.0</ele><time>2026-04-27T10:28:46Z</time></trkpt><trkpt lat="44.590995725743134" lon="8.461491472587374"><ele>574.75</ele><time>2026-04-27T10:28:47Z</time></trkpt><trkpt lat="44.59114048274401" lon="8.46158984539925"><ele>567.5</ele><time>2026-04-27T10:28:48Z</time></trkpt><trkpt lat="44.591280166740084" lon="8.461629600836128"><ele>560.25</ele><time>2026-04-27T10:28:49Z</time></trkpt><trkpt lat="44.59141216456831" lon="8.461573828874942"><ele>553.0</ele><time>2026-04-27T10:28:50Z</time></trkpt><trkpt lat="44.59154225754614" lon="8.461446961893586"><ele>552.3333333333334</ele><time>2026-04-27T10:28:51Z</time></trkpt><trkpt lat="44.5916943584648" lon="8.461395524374982"><ele>551.6666666666666</ele><time>2026-04-27T10:28:52Z</time></trkpt><trkpt lat="44.59187226176571" lon="8.461424556672805"><ele>551.0</ele><time>2026-04-27T10:28:53Z</time></trkpt><trkpt lat="44.592082726872235" lon="8.46145454243207"><ele>549.6666666666666</ele><time>2026-04-27T10:28:54Z</time></trkpt><trkpt lat="44.592293337516864" lon="8.461457861499344"><ele>548.3333333333334</ele><time>2026-04-27T10:28:55Z</time></trkpt><trkpt lat="44.592477967057576" lon="8.461508637115518"><ele>547.0</ele><time>2026-04-27T10:28:55.999Z</time></trkpt><trkpt lat="44.592633490702774" lon="8.461553806067933"><ele>547.0</ele><time>2026-04-27T10:28:56.999Z</time></trkpt><trkpt lat="44.59276829436903" lon="8.461653664577597"><ele>547.0</ele><time>2026-04-27T10:28:57.999Z</time></trkpt><trkpt lat="44.5928746350122" lon="8.461817422327773"><ele>547.0</ele><time>2026-04-27T10:28:58.999Z</time></trkpt><trkpt lat="44.59298888747797" lon="8.462025429488298"><ele>546.0</ele><time>2026-04-27T10:28:59.999Z</time></trkpt><trkpt lat="44.59311884915166" lon="8.462250123959272"><ele>545.0</ele><time>2026-04-27T10:29:00.999Z</time></trkpt><trkpt lat="44.59323760925585" lon="8.46250445893447"><ele>544.0</ele><time>2026-04-27T10:29:01.999Z</time></trkpt><trkpt lat="44.593356327624946" lon="8.462779660429783"><ele>538.3333333333334</ele><time>2026-04-27T10:29:02.999Z</time></trkpt><trkpt lat="44.593461862858085" lon="8.463058326442326"><ele>532.6666666666666</ele><time>2026-04-27T10:29:03.999Z</time></trkpt><trkpt lat="44.59355518316095" lon="8.463325361347412"><ele>527.0</ele><time>2026-04-27T10:29:04.999Z</time></trkpt><trkpt lat="44.59365595126155" lon="8.463589308030791"><ele>527.6666666666666</ele><time>2026-04-27T10:29:05.999Z</time></trkpt><trkpt lat="44.59376654792895" lon="8.463809333716096"><ele>528.3333333333334</ele><time>2026-04-27T10:29:06.999Z</time></trkpt><trkpt lat="44.59387062266525" lon="8.463995291668772"><ele>529.0</ele><time>2026-04-27T10:29:07.999Z</time></trkpt><trkpt lat="44.593952910156965" lon="8.464139972745278"><ele>529.0</ele><time>2026-04-27T10:29:08.999Z</time></trkpt><trkpt lat="44.594040795485824" lon="8.464246624518482"><ele>529.0</ele><time>2026-04-27T10:29:09.999Z</time></trkpt><trkpt lat="44.594151594384975" lon="8.464334956075577"><ele>529.0</ele><time>2026-04-27T10:29:10.999Z</time></trkpt><trkpt lat="44.59429894574594" lon="8.464401477247412"><ele>529.0</ele><time>2026-04-27T10:29:11.999Z</time></trkpt><trkpt lat="44.59445493594905" lon="8.464492485934144"><ele>525.0</ele><time>2026-04-27T10:29:12.999Z</time></trkpt><trkpt lat="44.594588467016344" lon="8.464633917413806"><ele>521.0</ele><time>2026-04-27T10:29:13.999Z</time></trkpt><trkpt lat="44.59472643509273" lon="8.464726964864806"><ele>517.0</ele><time>2026-04-27T10:29:14.999Z</time></trkpt><trkpt lat="44.594851762153404" lon="8.464785382600958"><ele>517.0</ele><time>2026-04-27T10:29:15.999Z</time></trkpt><trkpt lat="44.59498339099242" lon="8.464795151413796"><ele>517.0</ele><time>2026-04-27T10:29:16.999Z</time></trkpt><trkpt lat="44.595079439606714" lon="8.464892465657963"><ele>517.0</ele><time>2026-04-27T10:29:17.999Z</time></trkpt><trkpt lat="44.595110804972826" lon="8.465075887836903"><ele>517.0</ele><time>2026-04-27T10:29:18.999Z</time></trkpt><trkpt lat="44.595207989097624" lon="8.465255403285454"><ele>517.0</ele><time>2026-04-27T10:29:19.999Z</time></trkpt><trkpt lat="44.595289826624715" lon="8.465410955963186"><ele>517.0</ele><time>2026-04-27T10:29:20.999Z</time></trkpt><trkpt lat="44.59542318177616" lon="8.465485466420157"><ele>517.0</ele><time>2026-04-27T10:29:21.999Z</time></trkpt><trkpt lat="44.59558398062871" lon="8.465509928676633"><ele>517.0</ele><time>2026-04-27T10:29:22.999Z</time></trkpt><trkpt lat="44.5957129075834" lon="8.465490787934307"><ele>516.75</ele><time>2026-04-27T10:29:23.999Z</time></trkpt><trkpt lat="44.595814826769086" lon="8.465432097056325"><ele>516.5</ele><time>2026-04-27T10:29:24.999Z</time></trkpt><trkpt lat="44.5959124746962" lon="8.465311518050198"><ele>516.25</ele><time>2026-04-27T10:29:25.999Z</time></trkpt><trkpt lat="44.59602233599453" lon="8.465217038462088"><ele>516.0</ele><time>2026-04-27T10:29:26.999Z</time></trkpt><trkpt lat="44.596116956538054" lon="8.465148069169066"><ele>511.25</ele><time>2026-04-27T10:29:27.999Z</time></trkpt><trkpt lat="44.596208175680076" lon="8.465110884268265"><ele>506.5</ele><time>2026-04-27T10:29:28.999Z</time></trkpt><trkpt lat="44.59631363876712" lon="8.465084287087805"><ele>501.75</ele><time>2026-04-27T10:29:29.999Z</time></trkpt><trkpt lat="44.59645534118755" lon="8.465067280668679"><ele>497.0</ele><time>2026-04-27T10:29:30.999Z</time></trkpt><trkpt lat="44.59660069988094" lon="8.465069571402267"><ele>497.0</ele><time>2026-04-27T10:29:31.999Z</time></trkpt><trkpt lat="44.596716254825296" lon="8.465185816210994"><ele>497.0</ele><time>2026-04-27T10:29:32.999Z</time></trkpt><trkpt lat="44.59678887052332" lon="8.465357741271161"><ele>497.0</ele><time>2026-04-27T10:29:33.999Z</time></trkpt><trkpt lat="44.59690213656048" lon="8.465541087425139"><ele>492.66666666666663</ele><time>2026-04-27T10:29:34.999Z</time></trkpt><trkpt lat="44.597007352488056" lon="8.465720587603816"><ele>488.33333333333337</ele><time>2026-04-27T10:29:35.999Z</time></trkpt><trkpt lat="44.597137154873224" lon="8.465847813368205"><ele>484.0</ele><time>2026-04-27T10:29:36.999Z</time></trkpt><trkpt lat="44.597269084994025" lon="8.465914214237705"><ele>484.0</ele><time>2026-04-27T10:29:37.999Z</time></trkpt><trkpt lat="44.59738789580484" lon="8.465922140837494"><ele>484.0</ele><time>2026-04-27T10:29:38.999Z</time></trkpt><trkpt lat="44.59751197142087" lon="8.465854580707907"><ele>484.0</ele><time>2026-04-27T10:29:39.999Z</time></trkpt><trkpt lat="44.59763816097511" lon="8.46569470298184"><ele>484.0</ele><time>2026-04-27T10:29:40.999Z</time></trkpt><trkpt lat="44.59778271989339" lon="8.465557382518496"><ele>480.6666666666667</ele><time>2026-04-27T10:29:41.999Z</time></trkpt><trkpt lat="44.597972087138324" lon="8.465446283603937"><ele>477.33333333333337</ele><time>2026-04-27T10:29:42.999Z</time></trkpt><trkpt lat="44.59815774372969" lon="8.465354679775988"><ele>474.0</ele><time>2026-04-27T10:29:43.999Z</time></trkpt><trkpt lat="44.59834073412783" lon="8.465304477600922"><ele>474.0</ele><time>2026-04-27T10:29:44.999Z</time></trkpt><trkpt lat="44.598541237126696" lon="8.465311700538225"><ele>474.0</ele><time>2026-04-27T10:29:45.999Z</time></trkpt><trkpt lat="44.598747362866185" lon="8.465346511886318"><ele>474.0</ele><time>2026-04-27T10:29:46.999Z</time></trkpt><trkpt lat="44.59894389954571" lon="8.465395061687136"><ele>475.0</ele><time>2026-04-27T10:29:47.999Z</time></trkpt><trkpt lat="44.599139036447994" lon="8.46543939932301"><ele>476.0</ele><time>2026-04-27T10:29:48.999Z</time></trkpt><trkpt lat="44.5993204778759" lon="8.46551665731351"><ele>477.0</ele><time>2026-04-27T10:29:49.999Z</time></trkpt><trkpt lat="44.59950111052261" lon="8.465583513163732"><ele>476.0</ele><time>2026-04-27T10:29:51Z</time></trkpt><trkpt lat="44.59968062187558" lon="8.46559531033236"><ele>475.0</ele><time>2026-04-27T10:29:52Z</time></trkpt><trkpt lat="44.59985589158696" lon="8.465526915825322"><ele>474.0</ele><time>2026-04-27T10:29:53Z</time></trkpt><trkpt lat="44.600005272085724" lon="8.465385875937274"><ele>474.0</ele><time>2026-04-27T10:29:54Z</time></trkpt><trkpt lat="44.6001421908089" lon="8.465214521687187"><ele>474.0</ele><time>2026-04-27T10:29:55Z</time></trkpt><trkpt lat="44.60029966627678" lon="8.465101749596812"><ele>474.0</ele><time>2026-04-27T10:29:56Z</time></trkpt><trkpt lat="44.60044581117017" lon="8.46504385913287"><ele>475.0</ele><time>2026-04-27T10:29:57Z</time></trkpt><trkpt lat="44.60058292286683" lon="8.46500753565209"><ele>476.0</ele><time>2026-04-27T10:29:58Z</time></trkpt><trkpt lat="44.60070894998436" lon="8.465079262118316"><ele>477.0</ele><time>2026-04-27T10:29:59Z</time></trkpt><trkpt lat="44.600846265516736" lon="8.465163823041086"><ele>478.0</ele><time>2026-04-27T10:30:00Z</time></trkpt><trkpt lat="44.60099084972839" lon="8.465290762524184"><ele>478.0</ele><time>2026-04-27T10:30:01Z</time></trkpt><trkpt lat="44.60112919122573" lon="8.46540717664096"><ele>478.0</ele><time>2026-04-27T10:30:02Z</time></trkpt><trkpt lat="44.60125668364927" lon="8.46550988600286"><ele>478.0</ele><time>2026-04-27T10:30:03Z</time></trkpt><trkpt lat="44.60143294828158" lon="8.465506212048158"><ele>478.0</ele><time>2026-04-27T10:30:04Z</time></trkpt><trkpt lat="44.60162417721243" lon="8.465466204040275"><ele>478.0</ele><time>2026-04-27T10:30:05Z</time></trkpt><trkpt lat="44.60179548596007" lon="8.46550184612303"><ele>478.0</ele><time>2026-04-27T10:30:06Z</time></trkpt><trkpt lat="44.6019540776429" lon="8.46549372547127"><ele>471.6666666666667</ele><time>2026-04-27T10:30:07Z</time></trkpt><trkpt lat="44.602108218588434" lon="8.465397390594612"><ele>465.33333333333337</ele><time>2026-04-27T10:30:08Z</time></trkpt><trkpt lat="44.60226616790572" lon="8.465233966330953"><ele>459.0</ele><time>2026-04-27T10:30:09Z</time></trkpt><trkpt lat="44.60241543542318" lon="8.465073791023206"><ele>459.0</ele><time>2026-04-27T10:30:10Z</time></trkpt><trkpt lat="44.60254826415563" lon="8.46491496435661"><ele>459.0</ele><time>2026-04-27T10:30:11Z</time></trkpt><trkpt lat="44.60263115537918" lon="8.464730824787265"><ele>459.0</ele><time>2026-04-27T10:30:12Z</time></trkpt><trkpt lat="44.60265106751474" lon="8.464510199517383"><ele>455.33333333333337</ele><time>2026-04-27T10:30:13Z</time></trkpt><trkpt lat="44.60265404388264" lon="8.464279909353865"><ele>451.6666666666667</ele><time>2026-04-27T10:30:14Z</time></trkpt><trkpt lat="44.602713878993406" lon="8.464051035009406"><ele>448.0</ele><time>2026-04-27T10:30:15Z</time></trkpt><trkpt lat="44.60282005945261" lon="8.463823163166161"><ele>447.0</ele><time>2026-04-27T10:30:16Z</time></trkpt><trkpt lat="44.60290685609635" lon="8.463599341172653"><ele>446.0</ele><time>2026-04-27T10:30:17Z</time></trkpt><trkpt lat="44.602940659259644" lon="8.46338651601724"><ele>445.0</ele><time>2026-04-27T10:30:18Z</time></trkpt><trkpt lat="44.60293525411282" lon="8.463203876733546"><ele>445.0</ele><time>2026-04-27T10:30:19Z</time></trkpt><trkpt lat="44.60293467083094" lon="8.463073790513674"><ele>445.0</ele><time>2026-04-27T10:30:20Z</time></trkpt><trkpt lat="44.602984106271805" lon="8.462988620327499"><ele>445.0</ele><time>2026-04-27T10:30:21Z</time></trkpt><trkpt lat="44.60306644392522" lon="8.462981507093687"><ele>445.0</ele><time>2026-04-27T10:30:22Z</time></trkpt><trkpt lat="44.60315075788328" lon="8.463093748566607"><ele>445.0</ele><time>2026-04-27T10:30:23Z</time></trkpt><trkpt lat="44.603274019232785" lon="8.463233161156419"><ele>445.0</ele><time>2026-04-27T10:30:24Z</time></trkpt><trkpt lat="44.60339181851466" lon="8.46340123465827"><ele>445.0</ele><time>2026-04-27T10:30:25Z</time></trkpt><trkpt lat="44.60351718604589" lon="8.463505853175585"><ele>445.0</ele><time>2026-04-27T10:30:26Z</time></trkpt><trkpt lat="44.603655449432395" lon="8.463541581493715"><ele>440.6666666666667</ele><time>2026-04-27T10:30:27Z</time></trkpt><trkpt lat="44.6037978365398" lon="8.46349257848027"><ele>436.33333333333337</ele><time>2026-04-27T10:30:28Z</time></trkpt><trkpt lat="44.603941704979455" lon="8.463342158147054"><ele>432.0</ele><time>2026-04-27T10:30:29Z</time></trkpt><trkpt lat="44.60407206426272" lon="8.463178399973046"><ele>432.0</ele><time>2026-04-27T10:30:30Z</time></trkpt><trkpt lat="44.604239568985804" lon="8.463123375917268"><ele>432.0</ele><time>2026-04-27T10:30:31Z</time></trkpt><trkpt lat="44.60442690324256" lon="8.463086956921947"><ele>432.0</ele><time>2026-04-27T10:30:32Z</time></trkpt><trkpt lat="44.60461396110823" lon="8.463073374358396"><ele>433.33333333333337</ele><time>2026-04-27T10:30:33Z</time></trkpt><trkpt lat="44.60479050095107" lon="8.463092947667215"><ele>434.6666666666667</ele><time>2026-04-27T10:30:34Z</time></trkpt><trkpt lat="44.6049479576723" lon="8.463169121406002"><ele>436.0</ele><time>2026-04-27T10:30:35Z</time></trkpt><trkpt lat="44.605126194569465" lon="8.46321427296493"><ele>436.0</ele><time>2026-04-27T10:30:36Z</time></trkpt><trkpt lat="44.60530698310029" lon="8.463254329464487"><ele>436.0</ele><time>2026-04-27T10:30:37Z</time></trkpt><trkpt lat="44.605495029994536" lon="8.46324225712548"><ele>436.0</ele><time>2026-04-27T10:30:38Z</time></trkpt><trkpt lat="44.60565389626684" lon="8.463302528357627"><ele>437.6666666666667</ele><time>2026-04-27T10:30:39Z</time></trkpt><trkpt lat="44.60580068450856" lon="8.463406388440681"><ele>439.33333333333337</ele><time>2026-04-27T10:30:40Z</time></trkpt><trkpt lat="44.605948668990244" lon="8.463539672489777"><ele>441.0</ele><time>2026-04-27T10:30:41Z</time></trkpt><trkpt lat="44.60606939864731" lon="8.463700683746714"><ele>442.25</ele><time>2026-04-27T10:30:42Z</time></trkpt><trkpt lat="44.60618486526149" lon="8.463838362910453"><ele>443.5</ele><time>2026-04-27T10:30:43Z</time></trkpt><trkpt lat="44.606220447011125" lon="8.464040878905957"><ele>444.75</ele><time>2026-04-27T10:30:44Z</time></trkpt><trkpt lat="44.60629249379763" lon="8.464217782202597"><ele>446.0</ele><time>2026-04-27T10:30:45Z</time></trkpt><trkpt lat="44.606402660413025" lon="8.464372992266018"><ele>446.0</ele><time>2026-04-27T10:30:46Z</time></trkpt><trkpt lat="44.606564947751075" lon="8.464472376677268"><ele>446.0</ele><time>2026-04-27T10:30:47Z</time></trkpt><trkpt lat="44.60672009219552" lon="8.464606496182364"><ele>446.0</ele><time>2026-04-27T10:30:48Z</time></trkpt><trkpt lat="44.60690628691672" lon="8.464712139001447"><ele>441.66666666666663</ele><time>2026-04-27T10:30:48.999Z</time></trkpt><trkpt lat="44.607113451374964" lon="8.464779137294004"><ele>437.33333333333337</ele><time>2026-04-27T10:30:49.999Z</time></trkpt><trkpt lat="44.607288585745735" lon="8.46485881084025"><ele>433.0</ele><time>2026-04-27T10:30:50.999Z</time></trkpt><trkpt lat="44.607441441929645" lon="8.464881562108063"><ele>433.0</ele><time>2026-04-27T10:30:51.999Z</time></trkpt><trkpt lat="44.60758821173541" lon="8.464875085435855"><ele>433.0</ele><time>2026-04-27T10:30:52.999Z</time></trkpt><trkpt lat="44.60775281698699" lon="8.464793020885088"><ele>433.0</ele><time>2026-04-27T10:30:53.999Z</time></trkpt><trkpt lat="44.60790788075176" lon="8.464676907056784"><ele>433.33333333333337</ele><time>2026-04-27T10:30:54.999Z</time></trkpt><trkpt lat="44.60803865246111" lon="8.464511383170677"><ele>433.66666666666663</ele><time>2026-04-27T10:30:55.999Z</time></trkpt><trkpt lat="44.608124415388836" lon="8.46430827600252"><ele>434.0</ele><time>2026-04-27T10:30:56.999Z</time></trkpt><trkpt lat="44.60818427497223" lon="8.464098975556984"><ele>434.0</ele><time>2026-04-27T10:30:57.999Z</time></trkpt><trkpt lat="44.60829081980127" lon="8.463925819333674"><ele>434.0</ele><time>2026-04-27T10:30:58.999Z</time></trkpt><trkpt lat="44.60844373048429" lon="8.463817108932421"><ele>434.0</ele><time>2026-04-27T10:30:59.999Z</time></trkpt><trkpt lat="44.60862435060264" lon="8.463731295889662"><ele>432.0</ele><time>2026-04-27T10:31:00.999Z</time></trkpt><trkpt lat="44.608818685900445" lon="8.463622808356636"><ele>430.0</ele><time>2026-04-27T10:31:01.999Z</time></trkpt><trkpt lat="44.60902482278647" lon="8.463522960102468"><ele>428.0</ele><time>2026-04-27T10:31:02.999Z</time></trkpt><trkpt lat="44.60922704348981" lon="8.463471045710243"><ele>428.0</ele><time>2026-04-27T10:31:03.999Z</time></trkpt><trkpt lat="44.60942354039945" lon="8.463470304539078"><ele>428.0</ele><time>2026-04-27T10:31:04.999Z</time></trkpt><trkpt lat="44.60959531662562" lon="8.463472309125056"><ele>428.0</ele><time>2026-04-27T10:31:05.999Z</time></trkpt><trkpt lat="44.609745645916725" lon="8.46347533416859"><ele>430.25</ele><time>2026-04-27T10:31:06.999Z</time></trkpt><trkpt lat="44.60986540637405" lon="8.463381573158573"><ele>432.5</ele><time>2026-04-27T10:31:07.999Z</time></trkpt><trkpt lat="44.60997068396857" lon="8.463231333477852"><ele>434.75</ele><time>2026-04-27T10:31:08.999Z</time></trkpt><trkpt lat="44.61006526454816" lon="8.46310892150415"><ele>437.0</ele><time>2026-04-27T10:31:09.999Z</time></trkpt><trkpt lat="44.61019903653346" lon="8.46310803830031"><ele>440.0</ele><time>2026-04-27T10:31:10.999Z</time></trkpt><trkpt lat="44.610352484139604" lon="8.46310122208979"><ele>443.0</ele><time>2026-04-27T10:31:11.999Z</time></trkpt><trkpt lat="44.61053435943456" lon="8.463142351962572"><ele>446.0</ele><time>2026-04-27T10:31:12.999Z</time></trkpt><trkpt lat="44.610709124445584" lon="8.463138553121109"><ele>446.0</ele><time>2026-04-27T10:31:13.999Z</time></trkpt><trkpt lat="44.61085507817077" lon="8.463075966136849"><ele>446.0</ele><time>2026-04-27T10:31:14.999Z</time></trkpt><trkpt lat="44.610978917302845" lon="8.463001864047376"><ele>446.0</ele><time>2026-04-27T10:31:15.999Z</time></trkpt><trkpt lat="44.61110395243117" lon="8.463047979307095"><ele>446.0</ele><time>2026-04-27T10:31:16.999Z</time></trkpt><trkpt lat="44.61125379940234" lon="8.463126681118151"><ele>443.3333333333333</ele><time>2026-04-27T10:31:17.999Z</time></trkpt><trkpt lat="44.61143310196421" lon="8.463190388147193"><ele>440.66666666666663</ele><time>2026-04-27T10:31:18.999Z</time></trkpt><trkpt lat="44.61161822489758" lon="8.46326577823222"><ele>438.0</ele><time>2026-04-27T10:31:19.999Z</time></trkpt><trkpt lat="44.611819862059136" lon="8.463320604525885"><ele>439.66666666666663</ele><time>2026-04-27T10:31:20.999Z</time></trkpt><trkpt lat="44.61203477378874" lon="8.463348528720804"><ele>441.3333333333333</ele><time>2026-04-27T10:31:21.999Z</time></trkpt><trkpt lat="44.61224765992411" lon="8.463409249744807"><ele>443.0</ele><time>2026-04-27T10:31:22.999Z</time></trkpt><trkpt lat="44.61246136955844" lon="8.463454318303219"><ele>443.0</ele><time>2026-04-27T10:31:23.999Z</time></trkpt><trkpt lat="44.612644566161634" lon="8.463552120878221"><ele>443.0</ele><time>2026-04-27T10:31:24.999Z</time></trkpt><trkpt lat="44.61278128670963" lon="8.463673633931458"><ele>443.0</ele><time>2026-04-27T10:31:25.999Z</time></trkpt><trkpt lat="44.61287218277287" lon="8.463842808507472"><ele>445.75</ele><time>2026-04-27T10:31:26.999Z</time></trkpt><trkpt lat="44.612881359814494" lon="8.464082392765444"><ele>448.5</ele><time>2026-04-27T10:31:27.999Z</time></trkpt><trkpt lat="44.612944542169835" lon="8.464248601154488"><ele>451.25</ele><time>2026-04-27T10:31:28.999Z</time></trkpt><trkpt lat="44.61301583802414" lon="8.46435535989876"><ele>454.0</ele><time>2026-04-27T10:31:29.999Z</time></trkpt><trkpt lat="44.61314003324566" lon="8.464376343949617"><ele>454.0</ele><time>2026-04-27T10:31:30.999Z</time></trkpt><trkpt lat="44.613291776642235" lon="8.464335566020983"><ele>454.0</ele><time>2026-04-27T10:31:31.999Z</time></trkpt><trkpt lat="44.613467114000294" lon="8.464287201427515"><ele>454.0</ele><time>2026-04-27T10:31:32.999Z</time></trkpt><trkpt lat="44.61366318324182" lon="8.464321842015242"><ele>453.0</ele><time>2026-04-27T10:31:33.999Z</time></trkpt><trkpt lat="44.61386760204902" lon="8.464382166959094"><ele>452.0</ele><time>2026-04-27T10:31:34.999Z</time></trkpt><trkpt lat="44.61403609031229" lon="8.46446259223084"><ele>451.0</ele><time>2026-04-27T10:31:35.999Z</time></trkpt><trkpt lat="44.61417397599873" lon="8.464566124170604"><ele>445.6666666666667</ele><time>2026-04-27T10:31:36.999Z</time></trkpt><trkpt lat="44.614275498709794" lon="8.464722150518043"><ele>440.33333333333337</ele><time>2026-04-27T10:31:37.999Z</time></trkpt><trkpt lat="44.61439457301979" lon="8.464830529349575"><ele>435.0</ele><time>2026-04-27T10:31:38.999Z</time></trkpt><trkpt lat="44.614570897774904" lon="8.464859549057696"><ele>435.0</ele><time>2026-04-27T10:31:39.999Z</time></trkpt><trkpt lat="44.614766529210684" lon="8.464925363127815"><ele>435.0</ele><time>2026-04-27T10:31:40.999Z</time></trkpt><trkpt lat="44.614989229537606" lon="8.465005993036426"><ele>435.0</ele><time>2026-04-27T10:31:41.999Z</time></trkpt><trkpt lat="44.61522655795975" lon="8.465067206330364"><ele>434.5</ele><time>2026-04-27T10:31:42.999Z</time></trkpt><trkpt lat="44.61547033330374" lon="8.465101405754734"><ele>434.0</ele><time>2026-04-27T10:31:43.999Z</time></trkpt><trkpt lat="44.6157009436624" lon="8.46513599371249"><ele>434.0</ele><time>2026-04-27T10:31:44.999Z</time></trkpt><trkpt lat="44.615912033264074" lon="8.465162764787982"><ele>434.0</ele><time>2026-04-27T10:31:45.999Z</time></trkpt><trkpt lat="44.61609743647389" lon="8.46517915987971"><ele>434.0</ele><time>2026-04-27T10:31:46.999Z</time></trkpt><trkpt lat="44.61625549689349" lon="8.465150866046102"><ele>432.66666666666663</ele><time>2026-04-27T10:31:47.999Z</time></trkpt><trkpt lat="44.616398712980406" lon="8.46504606221902"><ele>431.33333333333337</ele><time>2026-04-27T10:31:48.999Z</time></trkpt><trkpt lat="44.616521104128594" lon="8.464866846913623"><ele>430.0</ele><time>2026-04-27T10:31:49.999Z</time></trkpt><trkpt lat="44.616625593294856" lon="8.464642670300066"><ele>429.33333333333337</ele><time>2026-04-27T10:31:50.999Z</time></trkpt><trkpt lat="44.616722483063654" lon="8.464386504622272"><ele>428.66666666666663</ele><time>2026-04-27T10:31:51.999Z</time></trkpt><trkpt lat="44.61681980740571" lon="8.464212913410858"><ele>428.0</ele><time>2026-04-27T10:31:52.999Z</time></trkpt><trkpt lat="44.61693707310419" lon="8.46410111260228"><ele>427.3333333333333</ele><time>2026-04-27T10:31:53.999Z</time></trkpt><trkpt lat="44.61709458477912" lon="8.464020633199928"><ele>426.66666666666663</ele><time>2026-04-27T10:31:54.999Z</time></trkpt><trkpt lat="44.6172719252026" lon="8.463984551372926"><ele>426.0</ele><time>2026-04-27T10:31:55.999Z</time></trkpt><trkpt lat="44.61746471724646" lon="8.463962695146474"><ele>426.0</ele><time>2026-04-27T10:31:57Z</time></trkpt><trkpt lat="44.61766048262732" lon="8.463950850772864"><ele>426.0</ele><time>2026-04-27T10:31:58Z</time></trkpt><trkpt lat="44.61785850746028" lon="8.463962742252267"><ele>426.0</ele><time>2026-04-27T10:31:59Z</time></trkpt><trkpt lat="44.61806390830989" lon="8.463979597091521"><ele>427.33333333333337</ele><time>2026-04-27T10:32:00Z</time></trkpt><trkpt lat="44.618269431136625" lon="8.46400867321595"><ele>428.6666666666667</ele><time>2026-04-27T10:32:01Z</time></trkpt><trkpt lat="44.618474887603305" lon="8.46404226228063"><ele>430.0</ele><time>2026-04-27T10:32:02Z</time></trkpt><trkpt lat="44.61868754412032" lon="8.464055016888269"><ele>433.6666666666667</ele><time>2026-04-27T10:32:03Z</time></trkpt><trkpt lat="44.61889362585117" lon="8.464035732528405"><ele>437.33333333333337</ele><time>2026-04-27T10:32:04Z</time></trkpt><trkpt lat="44.61907101414577" lon="8.463985404394121"><ele>441.0</ele><time>2026-04-27T10:32:05Z</time></trkpt><trkpt lat="44.619217960435186" lon="8.463959673769176"><ele>441.0</ele><time>2026-04-27T10:32:06Z</time></trkpt><trkpt lat="44.619347310577524" lon="8.463974232456467"><ele>441.0</ele><time>2026-04-27T10:32:07Z</time></trkpt><trkpt lat="44.61954198683686" lon="8.464044381292462"><ele>441.0</ele><time>2026-04-27T10:32:08Z</time></trkpt><trkpt lat="44.61971384051413" lon="8.464152409516348"><ele>439.66666666666663</ele><time>2026-04-27T10:32:09Z</time></trkpt><trkpt lat="44.61988540424023" lon="8.464250974869163"><ele>438.3333333333333</ele><time>2026-04-27T10:32:10Z</time></trkpt><trkpt lat="44.62005784360176" lon="8.464303755350093"><ele>437.0</ele><time>2026-04-27T10:32:11Z</time></trkpt><trkpt lat="44.62021849483081" lon="8.464285680962528"><ele>442.3333333333333</ele><time>2026-04-27T10:32:12Z</time></trkpt><trkpt lat="44.62037954609369" lon="8.464185530506589"><ele>447.66666666666663</ele><time>2026-04-27T10:32:13Z</time></trkpt><trkpt lat="44.62053542823093" lon="8.464033908236242"><ele>453.0</ele><time>2026-04-27T10:32:14Z</time></trkpt><trkpt lat="44.6207012297448" lon="8.463899577344296"><ele>448.66666666666663</ele><time>2026-04-27T10:32:15Z</time></trkpt><trkpt lat="44.62088458883498" lon="8.46375281910883"><ele>444.3333333333333</ele><time>2026-04-27T10:32:16Z</time></trkpt><trkpt lat="44.621074665514655" lon="8.463589706265896"><ele>440.0</ele><time>2026-04-27T10:32:17Z</time></trkpt><trkpt lat="44.62126727113821" lon="8.463417811125222"><ele>453.0</ele><time>2026-04-27T10:32:18Z</time></trkpt><trkpt lat="44.621464882154214" lon="8.46323537796042"><ele>466.0</ele><time>2026-04-27T10:32:19Z</time></trkpt><trkpt lat="44.62165120242163" lon="8.463033226063205"><ele>467.5</ele><time>2026-04-27T10:32:20Z</time></trkpt><trkpt lat="44.62182860317912" lon="8.462790102998058"><ele>469.0</ele><time>2026-04-27T10:32:21Z</time></trkpt><trkpt lat="44.62199868775961" lon="8.462531491915357"><ele>469.0</ele><time>2026-04-27T10:32:22Z</time></trkpt><trkpt lat="44.6221781570695" lon="8.462277235315387"><ele>469.0</ele><time>2026-04-27T10:32:23Z</time></trkpt><trkpt lat="44.622353970967225" lon="8.462051707637983"><ele>463.33333333333337</ele><time>2026-04-27T10:32:24Z</time></trkpt><trkpt lat="44.62251384258975" lon="8.46184967481078"><ele>457.66666666666663</ele><time>2026-04-27T10:32:25Z</time></trkpt><trkpt lat="44.62266063933551" lon="8.461650596416412"><ele>452.0</ele><time>2026-04-27T10:32:26Z</time></trkpt><trkpt lat="44.62278006839196" lon="8.461435738226411"><ele>454.66666666666663</ele><time>2026-04-27T10:32:27Z</time></trkpt><trkpt lat="44.62284911518322" lon="8.461195276624949"><ele>457.33333333333337</ele><time>2026-04-27T10:32:28Z</time></trkpt><trkpt lat="44.622902732960966" lon="8.460949052260663"><ele>460.0</ele><time>2026-04-27T10:32:29Z</time></trkpt><trkpt lat="44.622975154524305" lon="8.460733815340127"><ele>460.0</ele><time>2026-04-27T10:32:30Z</time></trkpt><trkpt lat="44.62308210230806" lon="8.46055717244094"><ele>460.0</ele><time>2026-04-27T10:32:31Z</time></trkpt><trkpt lat="44.623223283655435" lon="8.46043206885799"><ele>460.0</ele><time>2026-04-27T10:32:32Z</time></trkpt><trkpt lat="44.623351991772495" lon="8.460325049152289"><ele>457.33333333333337</ele><time>2026-04-27T10:32:33Z</time></trkpt><trkpt lat="44.62344587546913" lon="8.460161679801487"><ele>454.66666666666663</ele><time>2026-04-27T10:32:34Z</time></trkpt><trkpt lat="44.62353421001194" lon="8.460036986413508"><ele>452.0</ele><time>2026-04-27T10:32:35Z</time></trkpt><trkpt lat="44.62369599702331" lon="8.459901055592026"><ele>452.0</ele><time>2026-04-27T10:32:36Z</time></trkpt><trkpt lat="44.623841139495156" lon="8.459877080615614"><ele>452.0</ele><time>2026-04-27T10:32:37Z</time></trkpt><trkpt lat="44.624019772747104" lon="8.459858427235277"><ele>452.0</ele><time>2026-04-27T10:32:38Z</time></trkpt><trkpt lat="44.624201536529256" lon="8.459855206928086"><ele>452.0</ele><time>2026-04-27T10:32:39Z</time></trkpt><trkpt lat="44.62435728671268" lon="8.459904868944733"><ele>452.0</ele><time>2026-04-27T10:32:40Z</time></trkpt><trkpt lat="44.62450613111719" lon="8.460000234484765"><ele>452.0</ele><time>2026-04-27T10:32:41Z</time></trkpt><trkpt lat="44.624636497111354" lon="8.460078786867909"><ele>454.0</ele><time>2026-04-27T10:32:42Z</time></trkpt><trkpt lat="44.6247692131711" lon="8.460068367930509"><ele>456.0</ele><time>2026-04-27T10:32:43Z</time></trkpt><trkpt lat="44.62488143296719" lon="8.4599881486426"><ele>458.0</ele><time>2026-04-27T10:32:44Z</time></trkpt><trkpt lat="44.62500068756604" lon="8.459813158004694"><ele>460.0</ele><time>2026-04-27T10:32:45Z</time></trkpt><trkpt lat="44.625135648570314" lon="8.459604467828807"><ele>458.33333333333337</ele><time>2026-04-27T10:32:46Z</time></trkpt><trkpt lat="44.62531202972188" lon="8.459483606052048"><ele>456.66666666666663</ele><time>2026-04-27T10:32:47Z</time></trkpt><trkpt lat="44.6254870353206" lon="8.459401387676628"><ele>455.0</ele><time>2026-04-27T10:32:48Z</time></trkpt><trkpt lat="44.625655665340204" lon="8.459381962197387"><ele>455.0</ele><time>2026-04-27T10:32:49Z</time></trkpt><trkpt lat="44.6257944889125" lon="8.459336988846463"><ele>455.0</ele><time>2026-04-27T10:32:50Z</time></trkpt><trkpt lat="44.625931336536034" lon="8.459266859536733"><ele>455.0</ele><time>2026-04-27T10:32:51Z</time></trkpt><trkpt lat="44.62604369169664" lon="8.459085582263222"><ele>454.0</ele><time>2026-04-27T10:32:52Z</time></trkpt><trkpt lat="44.62614757263347" lon="8.458866859998565"><ele>453.0</ele><time>2026-04-27T10:32:53Z</time></trkpt><trkpt lat="44.626279717701195" lon="8.458690004103483"><ele>452.0</ele><time>2026-04-27T10:32:54Z</time></trkpt><trkpt lat="44.62645356692243" lon="8.458580929703503"><ele>452.0</ele><time>2026-04-27T10:32:55Z</time></trkpt><trkpt lat="44.626630856386555" lon="8.45847798196908"><ele>452.0</ele><time>2026-04-27T10:32:56Z</time></trkpt><trkpt lat="44.62679962497906" lon="8.458420921477819"><ele>452.0</ele><time>2026-04-27T10:32:57Z</time></trkpt><trkpt lat="44.62696641325729" lon="8.458438080099105"><ele>455.0</ele><time>2026-04-27T10:32:58Z</time></trkpt><trkpt lat="44.62715070922643" lon="8.458429605959001"><ele>458.0</ele><time>2026-04-27T10:32:59Z</time></trkpt><trkpt lat="44.62733317826936" lon="8.458361807360022"><ele>461.0</ele><time>2026-04-27T10:33:00Z</time></trkpt><trkpt lat="44.62750188607164" lon="8.458241296431103"><ele>461.0</ele><time>2026-04-27T10:33:01Z</time></trkpt><trkpt lat="44.627663236674294" lon="8.458094278736613"><ele>461.0</ele><time>2026-04-27T10:33:02Z</time></trkpt><trkpt lat="44.62783118430073" lon="8.457935277369396"><ele>461.0</ele><time>2026-04-27T10:33:02.999Z</time></trkpt><trkpt lat="44.62801200768977" lon="8.457777598298692"><ele>461.0</ele><time>2026-04-27T10:33:03.999Z</time></trkpt><trkpt lat="44.62819737236886" lon="8.457618800490549"><ele>461.0</ele><time>2026-04-27T10:33:04.999Z</time></trkpt><trkpt lat="44.628375573761865" lon="8.45745109374963"><ele>461.0</ele><time>2026-04-27T10:33:05.999Z</time></trkpt><trkpt lat="44.628539028423944" lon="8.457246153005567"><ele>459.5</ele><time>2026-04-27T10:33:06.999Z</time></trkpt><trkpt lat="44.62869050256059" lon="8.457017407602384"><ele>458.0</ele><time>2026-04-27T10:33:07.999Z</time></trkpt><trkpt lat="44.62884656981771" lon="8.456764224586157"><ele>458.0</ele><time>2026-04-27T10:33:08.999Z</time></trkpt><trkpt lat="44.62900664823473" lon="8.456553274777571"><ele>458.0</ele><time>2026-04-27T10:33:09.999Z</time></trkpt><trkpt lat="44.62915638564403" lon="8.456360248131523"><ele>458.0</ele><time>2026-04-27T10:33:10.999Z</time></trkpt><trkpt lat="44.629291965416265" lon="8.456190519078204"><ele>461.66666666666663</ele><time>2026-04-27T10:33:11.999Z</time></trkpt><trkpt lat="44.62941549792739" lon="8.45604098936065"><ele>465.33333333333337</ele><time>2026-04-27T10:33:12.999Z</time></trkpt><trkpt lat="44.62954055974668" lon="8.45592723964103"><ele>469.0</ele><time>2026-04-27T10:33:13.999Z</time></trkpt><trkpt lat="44.62967567646962" lon="8.45589009852178"><ele>469.25</ele><time>2026-04-27T10:33:14.999Z</time></trkpt><trkpt lat="44.62980715753331" lon="8.455893725514366"><ele>469.5</ele><time>2026-04-27T10:33:15.999Z</time></trkpt><trkpt lat="44.62995276740426" lon="8.45593529205209"><ele>469.75</ele><time>2026-04-27T10:33:16.999Z</time></trkpt><trkpt lat="44.630102546435005" lon="8.456016718360985"><ele>470.0</ele><time>2026-04-27T10:33:17.999Z</time></trkpt><trkpt lat="44.63026056739788" lon="8.456115358164254"><ele>470.66666666666663</ele><time>2026-04-27T10:33:18.999Z</time></trkpt><trkpt lat="44.630400099389064" lon="8.456236902126737"><ele>471.33333333333337</ele><time>2026-04-27T10:33:19.999Z</time></trkpt><trkpt lat="44.63052890057383" lon="8.456324887962507"><ele>472.0</ele><time>2026-04-27T10:33:20.999Z</time></trkpt><trkpt lat="44.63066977152883" lon="8.456377237231866"><ele>472.0</ele><time>2026-04-27T10:33:21.999Z</time></trkpt><trkpt lat="44.630833868267246" lon="8.456363777099634"><ele>472.0</ele><time>2026-04-27T10:33:22.999Z</time></trkpt><trkpt lat="44.631007990234956" lon="8.456285223244015"><ele>472.0</ele><time>2026-04-27T10:33:23.999Z</time></trkpt><trkpt lat="44.631184081597866" lon="8.456166145333656"><ele>468.6666666666667</ele><time>2026-04-27T10:33:24.999Z</time></trkpt><trkpt lat="44.631349938715815" lon="8.456029665553734"><ele>465.33333333333337</ele><time>2026-04-27T10:33:25.999Z</time></trkpt><trkpt lat="44.63150319035207" lon="8.45584363710879"><ele>462.0</ele><time>2026-04-27T10:33:26.999Z</time></trkpt><trkpt lat="44.63164774977326" lon="8.455654405361933"><ele>462.0</ele><time>2026-04-27T10:33:27.999Z</time></trkpt><trkpt lat="44.631788735722914" lon="8.455513128688628"><ele>462.0</ele><time>2026-04-27T10:33:28.999Z</time></trkpt><trkpt lat="44.63192859408128" lon="8.455421630903755"><ele>462.0</ele><time>2026-04-27T10:33:29.999Z</time></trkpt><trkpt lat="44.63206984788514" lon="8.455449897238195"><ele>461.5</ele><time>2026-04-27T10:33:30.999Z</time></trkpt><trkpt lat="44.63221779956013" lon="8.45549837229513"><ele>461.0</ele><time>2026-04-27T10:33:31.999Z</time></trkpt><trkpt lat="44.63235786316233" lon="8.455546756648461"><ele>460.5</ele><time>2026-04-27T10:33:32.999Z</time></trkpt><trkpt lat="44.63248403132212" lon="8.455641112930266"><ele>460.0</ele><time>2026-04-27T10:33:33.999Z</time></trkpt><trkpt lat="44.63262799971192" lon="8.455755544782514"><ele>460.0</ele><time>2026-04-27T10:33:34.999Z</time></trkpt><trkpt lat="44.63276966982333" lon="8.455954699596774"><ele>460.0</ele><time>2026-04-27T10:33:35.999Z</time></trkpt><trkpt lat="44.632934133402024" lon="8.456152163872472"><ele>460.0</ele><time>2026-04-27T10:33:36.999Z</time></trkpt><trkpt lat="44.633101234999735" lon="8.456350227353322"><ele>460.5</ele><time>2026-04-27T10:33:37.999Z</time></trkpt><trkpt lat="44.63327822683735" lon="8.456550697986458"><ele>461.0</ele><time>2026-04-27T10:33:38.999Z</time></trkpt><trkpt lat="44.633449151345104" lon="8.456754905237405"><ele>461.0</ele><time>2026-04-27T10:33:39.999Z</time></trkpt><trkpt lat="44.6336121949232" lon="8.456938103635471"><ele>461.0</ele><time>2026-04-27T10:33:40.999Z</time></trkpt><trkpt lat="44.63376544461904" lon="8.457100006580767"><ele>461.0</ele><time>2026-04-27T10:33:41.999Z</time></trkpt><trkpt lat="44.63393273846328" lon="8.457232225572241"><ele>460.3333333333333</ele><time>2026-04-27T10:33:42.999Z</time></trkpt><trkpt lat="44.634100512770765" lon="8.457335322196329"><ele>459.66666666666663</ele><time>2026-04-27T10:33:43.999Z</time></trkpt><trkpt lat="44.634249574292895" lon="8.457430176494684"><ele>459.0</ele><time>2026-04-27T10:33:44.999Z</time></trkpt><trkpt lat="44.63437204961903" lon="8.45748939033237"><ele>457.25</ele><time>2026-04-27T10:33:45.999Z</time></trkpt><trkpt lat="44.634483392068404" lon="8.4574888060382"><ele>455.5</ele><time>2026-04-27T10:33:46.999Z</time></trkpt><trkpt lat="44.63459065118233" lon="8.457414791255818"><ele>453.75</ele><time>2026-04-27T10:33:47.999Z</time></trkpt><trkpt lat="44.634660286582005" lon="8.457258515140293"><ele>452.0</ele><time>2026-04-27T10:33:48.999Z</time></trkpt><trkpt lat="44.634700028437614" lon="8.457040894405642"><ele>452.0</ele><time>2026-04-27T10:33:49.999Z</time></trkpt><trkpt lat="44.63472760744148" lon="8.45677750501164"><ele>452.0</ele><time>2026-04-27T10:33:50.999Z</time></trkpt><trkpt lat="44.63476707754115" lon="8.456481769882314"><ele>452.0</ele><time>2026-04-27T10:33:51.999Z</time></trkpt><trkpt lat="44.63481417622354" lon="8.456183136520362"><ele>452.0</ele><time>2026-04-27T10:33:52.999Z</time></trkpt><trkpt lat="44.63486783641172" lon="8.455864790187102"><ele>452.0</ele><time>2026-04-27T10:33:53.999Z</time></trkpt><trkpt lat="44.634924870102196" lon="8.455523381888074"><ele>451.5</ele><time>2026-04-27T10:33:54.999Z</time></trkpt><trkpt lat="44.63498599095153" lon="8.45516226345598"><ele>451.0</ele><time>2026-04-27T10:33:55.999Z</time></trkpt><trkpt lat="44.635039391254146" lon="8.454826871498259"><ele>449.5</ele><time>2026-04-27T10:33:56.999Z</time></trkpt><trkpt lat="44.63508959920625" lon="8.45451688746324"><ele>448.0</ele><time>2026-04-27T10:33:57.999Z</time></trkpt><trkpt lat="44.635146281874235" lon="8.454209341102308"><ele>448.0</ele><time>2026-04-27T10:33:58.999Z</time></trkpt><trkpt lat="44.63521944746932" lon="8.453890413561574"><ele>448.0</ele><time>2026-04-27T10:33:59.999Z</time></trkpt><trkpt lat="44.635302839177236" lon="8.453571577189644"><ele>441.5</ele><time>2026-04-27T10:34:00.999Z</time></trkpt><trkpt lat="44.63539223221031" lon="8.453254189192526"><ele>435.0</ele><time>2026-04-27T10:34:01.999Z</time></trkpt><trkpt lat="44.63548924990009" lon="8.452950545141105"><ele>435.0</ele><time>2026-04-27T10:34:03Z</time></trkpt><trkpt lat="44.635589234623026" lon="8.452690224414722"><ele>435.0</ele><time>2026-04-27T10:34:04Z</time></trkpt><trkpt lat="44.635682749419125" lon="8.4524775920805"><ele>435.0</ele><time>2026-04-27T10:34:05Z</time></trkpt><trkpt lat="44.63577999165811" lon="8.452296179227025"><ele>435.0</ele><time>2026-04-27T10:34:06Z</time></trkpt><trkpt lat="44.63592164279832" lon="8.452199216292094"><ele>435.0</ele><time>2026-04-27T10:34:07Z</time></trkpt><trkpt lat="44.636075224446614" lon="8.452106728017592"><ele>435.0</ele><time>2026-04-27T10:34:08Z</time></trkpt><trkpt lat="44.636230630665125" lon="8.452072787462622"><ele>435.75</ele><time>2026-04-27T10:34:09Z</time></trkpt><trkpt lat="44.636371450746175" lon="8.452109116558324"><ele>436.5</ele><time>2026-04-27T10:34:10Z</time></trkpt><trkpt lat="44.63651908876226" lon="8.452144568178992"><ele>437.25</ele><time>2026-04-27T10:34:11Z</time></trkpt><trkpt lat="44.6366546344772" lon="8.452211527738571"><ele>438.0</ele><time>2026-04-27T10:34:12Z</time></trkpt><trkpt lat="44.63678671131339" lon="8.452216922983153"><ele>433.66666666666663</ele><time>2026-04-27T10:34:13Z</time></trkpt><trkpt lat="44.63691991545524" lon="8.452144052231862"><ele>429.3333333333333</ele><time>2026-04-27T10:34:14Z</time></trkpt><trkpt lat="44.637039165105854" lon="8.451993175857721"><ele>425.0</ele><time>2026-04-27T10:34:15Z</time></trkpt><trkpt lat="44.63716430453874" lon="8.451798943747818"><ele>425.0</ele><time>2026-04-27T10:34:16Z</time></trkpt><trkpt lat="44.637314030331936" lon="8.451614279012045"><ele>425.0</ele><time>2026-04-27T10:34:17Z</time></trkpt><trkpt lat="44.637476218402895" lon="8.451492974398315"><ele>425.0</ele><time>2026-04-27T10:34:18Z</time></trkpt><trkpt lat="44.637608878363324" lon="8.451415813214762"><ele>425.0</ele><time>2026-04-27T10:34:19Z</time></trkpt><trkpt lat="44.63772768507449" lon="8.45147624970466"><ele>425.0</ele><time>2026-04-27T10:34:20Z</time></trkpt><trkpt lat="44.63786559788145" lon="8.451539680163544"><ele>425.0</ele><time>2026-04-27T10:34:21Z</time></trkpt><trkpt lat="44.638017517159426" lon="8.45158458987213"><ele>425.0</ele><time>2026-04-27T10:34:22Z</time></trkpt><trkpt lat="44.63815224791868" lon="8.451519566158854"><ele>420.66666666666663</ele><time>2026-04-27T10:34:23Z</time></trkpt><trkpt lat="44.638286798051446" lon="8.451392624966743"><ele>416.33333333333337</ele><time>2026-04-27T10:34:24Z</time></trkpt><trkpt lat="44.63845045783406" lon="8.451336579149135"><ele>412.0</ele><time>2026-04-27T10:34:25Z</time></trkpt><trkpt lat="44.638631642930875" lon="8.451365378876847"><ele>413.0</ele><time>2026-04-27T10:34:26Z</time></trkpt><trkpt lat="44.63881973120459" lon="8.451361624389977"><ele>414.0</ele><time>2026-04-27T10:34:27Z</time></trkpt><trkpt lat="44.63900334167859" lon="8.451260387035141"><ele>415.0</ele><time>2026-04-27T10:34:28Z</time></trkpt><trkpt lat="44.639164672865014" lon="8.451142004042836"><ele>415.0</ele><time>2026-04-27T10:34:29Z</time></trkpt><trkpt lat="44.639313959340086" lon="8.45106293594208"><ele>415.0</ele><time>2026-04-27T10:34:30Z</time></trkpt><trkpt lat="44.6394420499246" lon="8.45103110195236"><ele>415.0</ele><time>2026-04-27T10:34:31Z</time></trkpt><trkpt lat="44.63957365636519" lon="8.45106823445163"><ele>415.0</ele><time>2026-04-27T10:34:32Z</time></trkpt><trkpt lat="44.639703326273285" lon="8.451206419905805"><ele>411.0</ele><time>2026-04-27T10:34:33Z</time></trkpt><trkpt lat="44.63980306562411" lon="8.451405122195656"><ele>407.0</ele><time>2026-04-27T10:34:34Z</time></trkpt><trkpt lat="44.63992189511211" lon="8.451625978528632"><ele>403.0</ele><time>2026-04-27T10:34:35Z</time></trkpt><trkpt lat="44.64007022667264" lon="8.451810362671528"><ele>403.0</ele><time>2026-04-27T10:34:36Z</time></trkpt><trkpt lat="44.64020455709059" lon="8.451964385090163"><ele>403.0</ele><time>2026-04-27T10:34:37Z</time></trkpt><trkpt lat="44.640326657390425" lon="8.452094494836018"><ele>403.0</ele><time>2026-04-27T10:34:38Z</time></trkpt><trkpt lat="44.640445379779806" lon="8.45217001631467"><ele>404.0</ele><time>2026-04-27T10:34:39Z</time></trkpt><trkpt lat="44.64057457760349" lon="8.452175967185095"><ele>405.0</ele><time>2026-04-27T10:34:40Z</time></trkpt><trkpt lat="44.640705361722816" lon="8.452123865946135"><ele>406.0</ele><time>2026-04-27T10:34:41Z</time></trkpt><trkpt lat="44.640845722403164" lon="8.452028097741922"><ele>407.0</ele><time>2026-04-27T10:34:42Z</time></trkpt><trkpt lat="44.641004847640794" lon="8.451941554093723"><ele>402.3333333333333</ele><time>2026-04-27T10:34:43Z</time></trkpt><trkpt lat="44.6411977875231" lon="8.451880779502716"><ele>397.66666666666663</ele><time>2026-04-27T10:34:44Z</time></trkpt><trkpt lat="44.64139454306338" lon="8.45186303694971"><ele>393.0</ele><time>2026-04-27T10:34:45Z</time></trkpt><trkpt lat="44.641567059002476" lon="8.451813588370756"><ele>393.0</ele><time>2026-04-27T10:34:46Z</time></trkpt><trkpt lat="44.64171700405363" lon="8.45172768853544"><ele>393.0</ele><time>2026-04-27T10:34:47Z</time></trkpt><trkpt lat="44.641853457220876" lon="8.451640762734632"><ele>393.0</ele><time>2026-04-27T10:34:48Z</time></trkpt><trkpt lat="44.641995387219396" lon="8.451600281537246"><ele>391.75</ele><time>2026-04-27T10:34:49Z</time></trkpt><trkpt lat="44.642115110195746" lon="8.451612953607073"><ele>390.5</ele><time>2026-04-27T10:34:50Z</time></trkpt><trkpt lat="44.64221516179116" lon="8.451661069338655"><ele>389.25</ele><time>2026-04-27T10:34:51Z</time></trkpt><trkpt lat="44.642304391663174" lon="8.451764406829724"><ele>388.0</ele><time>2026-04-27T10:34:52Z</time></trkpt><trkpt lat="44.64243581985347" lon="8.45190575682665"><ele>388.0</ele><time>2026-04-27T10:34:53Z</time></trkpt><trkpt lat="44.642611217513824" lon="8.452090261690813"><ele>388.0</ele><time>2026-04-27T10:34:54Z</time></trkpt><trkpt lat="44.64279447447557" lon="8.452279996344108"><ele>388.0</ele><time>2026-04-27T10:34:55Z</time></trkpt><trkpt lat="44.642970410648175" lon="8.452450292176673"><ele>386.0</ele><time>2026-04-27T10:34:56Z</time></trkpt><trkpt lat="44.643121214721276" lon="8.452649425756102"><ele>384.0</ele><time>2026-04-27T10:34:57Z</time></trkpt><trkpt lat="44.64322692148952" lon="8.452893997757682"><ele>382.0</ele><time>2026-04-27T10:34:58Z</time></trkpt><trkpt lat="44.643347170034176" lon="8.453109939516494"><ele>376.0</ele><time>2026-04-27T10:34:59Z</time></trkpt><trkpt lat="44.64347264100383" lon="8.453298907343347"><ele>370.0</ele><time>2026-04-27T10:35:00Z</time></trkpt><trkpt lat="44.64360329529276" lon="8.453425078023336"><ele>364.0</ele><time>2026-04-27T10:35:01Z</time></trkpt><trkpt lat="44.643708625248934" lon="8.45350718348788"><ele>362.75</ele><time>2026-04-27T10:35:02Z</time></trkpt><trkpt lat="44.64380985280509" lon="8.453547392028254"><ele>361.5</ele><time>2026-04-27T10:35:03Z</time></trkpt><trkpt lat="44.643918049097735" lon="8.45349884090156"><ele>360.25</ele><time>2026-04-27T10:35:04Z</time></trkpt><trkpt lat="44.64403048419986" lon="8.453354971124527"><ele>359.0</ele><time>2026-04-27T10:35:05Z</time></trkpt><trkpt lat="44.64414093279954" lon="8.453161708317317"><ele>359.0</ele><time>2026-04-27T10:35:06Z</time></trkpt><trkpt lat="44.6442324064657" lon="8.452965334638128"><ele>359.0</ele><time>2026-04-27T10:35:07Z</time></trkpt><trkpt lat="44.644337678447386" lon="8.452861266387133"><ele>359.0</ele><time>2026-04-27T10:35:08Z</time></trkpt><trkpt lat="44.64445133229459" lon="8.45282286088476"><ele>359.0</ele><time>2026-04-27T10:35:09Z</time></trkpt><trkpt lat="44.64458863420059" lon="8.452847928402418"><ele>359.33333333333337</ele><time>2026-04-27T10:35:10Z</time></trkpt><trkpt lat="44.6447264783053" lon="8.452920072519456"><ele>359.6666666666667</ele><time>2026-04-27T10:35:11Z</time></trkpt><trkpt lat="44.644858210181425" lon="8.453045168669158"><ele>360.0</ele><time>2026-04-27T10:35:12Z</time></trkpt><trkpt lat="44.64499001736677" lon="8.453213635292196"><ele>360.0</ele><time>2026-04-27T10:35:13Z</time></trkpt><trkpt lat="44.64510994703825" lon="8.453413923306703"><ele>360.0</ele><time>2026-04-27T10:35:14Z</time></trkpt><trkpt lat="44.645196904987976" lon="8.453620615458437"><ele>360.0</ele><time>2026-04-27T10:35:15Z</time></trkpt><trkpt lat="44.64523643885324" lon="8.45382510557378"><ele>361.6666666666667</ele><time>2026-04-27T10:35:16Z</time></trkpt><trkpt lat="44.64528892087473" lon="8.454035007382423"><ele>363.33333333333337</ele><time>2026-04-27T10:35:17Z</time></trkpt><trkpt lat="44.64536108649715" lon="8.454241779003004"><ele>365.0</ele><time>2026-04-27T10:35:17.999Z</time></trkpt><trkpt lat="44.64545819409776" lon="8.454439062360782"><ele>358.33333333333337</ele><time>2026-04-27T10:35:18.999Z</time></trkpt><trkpt lat="44.645520412792905" lon="8.454644260627628"><ele>351.6666666666667</ele><time>2026-04-27T10:35:19.999Z</time></trkpt><trkpt lat="44.64562345588878" lon="8.454827824562496"><ele>345.0</ele><time>2026-04-27T10:35:20.999Z</time></trkpt><trkpt lat="44.64572421931762" lon="8.45498458198907"><ele>345.0</ele><time>2026-04-27T10:35:21.999Z</time></trkpt><trkpt lat="44.64580404002047" lon="8.45510326517981"><ele>345.0</ele><time>2026-04-27T10:35:22.999Z</time></trkpt><trkpt lat="44.64588855735745" lon="8.455161081948088"><ele>345.0</ele><time>2026-04-27T10:35:23.999Z</time></trkpt><trkpt lat="44.64597881918427" lon="8.455179719409227"><ele>345.0</ele><time>2026-04-27T10:35:24.999Z</time></trkpt><trkpt lat="44.646066333500364" lon="8.455053212969363"><ele>345.0</ele><time>2026-04-27T10:35:25.999Z</time></trkpt><trkpt lat="44.64613989499327" lon="8.454924101037706"><ele>345.5</ele><time>2026-04-27T10:35:26.999Z</time></trkpt><trkpt lat="44.646225724335" lon="8.454851080339571"><ele>346.0</ele><time>2026-04-27T10:35:27.999Z</time></trkpt><trkpt lat="44.64632632839205" lon="8.454837363122959"><ele>346.5</ele><time>2026-04-27T10:35:28.999Z</time></trkpt><trkpt lat="44.64644007705753" lon="8.454932154025592"><ele>347.0</ele><time>2026-04-27T10:35:29.999Z</time></trkpt><trkpt lat="44.646586576269826" lon="8.455015315439935"><ele>347.0</ele><time>2026-04-27T10:35:30.999Z</time></trkpt><trkpt lat="44.646745391227455" lon="8.455079174746475"><ele>347.0</ele><time>2026-04-27T10:35:31.999Z</time></trkpt><trkpt lat="44.64694466584437" lon="8.455078440152278"><ele>347.0</ele><time>2026-04-27T10:35:32.999Z</time></trkpt><trkpt lat="44.647161102462654" lon="8.455076546140905"><ele>345.6666666666667</ele><time>2026-04-27T10:35:33.999Z</time></trkpt><trkpt lat="44.64736879447143" lon="8.455100448198616"><ele>344.3333333333333</ele><time>2026-04-27T10:35:34.999Z</time></trkpt><trkpt lat="44.647565454030556" lon="8.455112984362243"><ele>343.0</ele><time>2026-04-27T10:35:35.999Z</time></trkpt><trkpt lat="44.64776904064656" lon="8.455081573181882"><ele>339.0</ele><time>2026-04-27T10:35:36.999Z</time></trkpt><trkpt lat="44.64798103852798" lon="8.455041942620705"><ele>335.0</ele><time>2026-04-27T10:35:37.999Z</time></trkpt><trkpt lat="44.64819696569262" lon="8.454981810731294"><ele>331.0</ele><time>2026-04-27T10:35:38.999Z</time></trkpt><trkpt lat="44.64841075382998" lon="8.454906316057881"><ele>331.0</ele><time>2026-04-27T10:35:39.999Z</time></trkpt><trkpt lat="44.64860786271787" lon="8.454826710457851"><ele>331.0</ele><time>2026-04-27T10:35:40.999Z</time></trkpt><trkpt lat="44.6487831350289" lon="8.454777208210146"><ele>331.0</ele><time>2026-04-27T10:35:41.999Z</time></trkpt><trkpt lat="44.648943620603966" lon="8.454756616904577"><ele>330.25</ele><time>2026-04-27T10:35:42.999Z</time></trkpt><trkpt lat="44.64907658852907" lon="8.454771383113645"><ele>329.5</ele><time>2026-04-27T10:35:43.999Z</time></trkpt><trkpt lat="44.649209391091375" lon="8.454865464180903"><ele>328.75</ele><time>2026-04-27T10:35:44.999Z</time></trkpt><trkpt lat="44.64935626117808" lon="8.454960590308554"><ele>328.0</ele><time>2026-04-27T10:35:45.999Z</time></trkpt><trkpt lat="44.649460805017235" lon="8.455141975208743"><ele>328.0</ele><time>2026-04-27T10:35:46.999Z</time></trkpt><trkpt lat="44.649557222957675" lon="8.455289428384901"><ele>328.0</ele><time>2026-04-27T10:35:47.999Z</time></trkpt><trkpt lat="44.64962587930233" lon="8.455407187981928"><ele>328.0</ele><time>2026-04-27T10:35:48.999Z</time></trkpt><trkpt lat="44.64976388642423" lon="8.455402298331922"><ele>328.0</ele><time>2026-04-27T10:35:49.999Z</time></trkpt><trkpt lat="44.64992676924206" lon="8.455393594441183"><ele>320.3333333333333</ele><time>2026-04-27T10:35:50.999Z</time></trkpt><trkpt lat="44.650089007251886" lon="8.455469492586142"><ele>312.6666666666667</ele><time>2026-04-27T10:35:51.999Z</time></trkpt><trkpt lat="44.650216805379465" lon="8.45558996119317"><ele>305.0</ele><time>2026-04-27T10:35:52.999Z</time></trkpt><trkpt lat="44.650335545122644" lon="8.455688457893348"><ele>304.0</ele><time>2026-04-27T10:35:53.999Z</time></trkpt><trkpt lat="44.650476146660246" lon="8.455737813438237"><ele>303.0</ele><time>2026-04-27T10:35:54.999Z</time></trkpt><trkpt lat="44.65065628848374" lon="8.45574203223152"><ele>302.0</ele><time>2026-04-27T10:35:55.999Z</time></trkpt><trkpt lat="44.650847036851474" lon="8.455716059772673"><ele>302.0</ele><time>2026-04-27T10:35:56.999Z</time></trkpt><trkpt lat="44.65105219001614" lon="8.45567223197189"><ele>302.0</ele><time>2026-04-27T10:35:57.999Z</time></trkpt><trkpt lat="44.65125829385467" lon="8.455622908472145"><ele>302.0</ele><time>2026-04-27T10:35:58.999Z</time></trkpt><trkpt lat="44.65144030677724" lon="8.455599207941095"><ele>301.6666666666667</ele><time>2026-04-27T10:35:59.999Z</time></trkpt><trkpt lat="44.651607508403444" lon="8.455628368780765"><ele>301.3333333333333</ele><time>2026-04-27T10:36:00.999Z</time></trkpt><trkpt lat="44.65175976777639" lon="8.455711152711116"><ele>301.0</ele><time>2026-04-27T10:36:01.999Z</time></trkpt><trkpt lat="44.651917148127914" lon="8.455834128967181"><ele>300.66666666666663</ele><time>2026-04-27T10:36:02.999Z</time></trkpt><trkpt lat="44.652092194849764" lon="8.455915305107837"><ele>300.3333333333333</ele><time>2026-04-27T10:36:03.999Z</time></trkpt><trkpt lat="44.65230558804331" lon="8.455938768375711"><ele>300.0</ele><time>2026-04-27T10:36:04.999Z</time></trkpt><trkpt lat="44.65251611133267" lon="8.455898145883356"><ele>300.0</ele><time>2026-04-27T10:36:05.999Z</time></trkpt><trkpt lat="44.652733089977446" lon="8.45579809911116"><ele>300.0</ele><time>2026-04-27T10:36:06.999Z</time></trkpt><trkpt lat="44.65296903157228" lon="8.455795421535484"><ele>300.3333333333333</ele><time>2026-04-27T10:36:07.999Z</time></trkpt><trkpt lat="44.65319060087147" lon="8.455761331660423"><ele>300.66666666666663</ele><time>2026-04-27T10:36:09Z</time></trkpt><trkpt lat="44.65340159544513" lon="8.45568372204386"><ele>301.0</ele><time>2026-04-27T10:36:10Z</time></trkpt><trkpt lat="44.65359746889019" lon="8.45559071561601"><ele>299.3333333333333</ele><time>2026-04-27T10:36:11Z</time></trkpt><trkpt lat="44.653784360930096" lon="8.455510816764013"><ele>297.6666666666667</ele><time>2026-04-27T10:36:12Z</time></trkpt><trkpt lat="44.653981782972544" lon="8.45546066325206"><ele>296.0</ele><time>2026-04-27T10:36:13Z</time></trkpt><trkpt lat="44.654190023630356" lon="8.455498156430773"><ele>296.0</ele><time>2026-04-27T10:36:14Z</time></trkpt><trkpt lat="44.6543824305347" lon="8.455494651199725"><ele>296.0</ele><time>2026-04-27T10:36:15Z</time></trkpt><trkpt lat="44.65454978057117" lon="8.455515371728556"><ele>296.0</ele><time>2026-04-27T10:36:16Z</time></trkpt><trkpt lat="44.65469222328028" lon="8.45559773647822"><ele>296.33333333333337</ele><time>2026-04-27T10:36:17Z</time></trkpt><trkpt lat="44.65483274829378" lon="8.45571449480571"><ele>296.6666666666667</ele><time>2026-04-27T10:36:18Z</time></trkpt><trkpt lat="44.65498661026567" lon="8.45583470538902"><ele>297.0</ele><time>2026-04-27T10:36:19Z</time></trkpt><trkpt lat="44.65512724743271" lon="8.455966579456076"><ele>297.0</ele><time>2026-04-27T10:36:20Z</time></trkpt><trkpt lat="44.655245380790646" lon="8.456077569120946"><ele>297.0</ele><time>2026-04-27T10:36:21Z</time></trkpt><trkpt lat="44.65534903989958" lon="8.456153821785556"><ele>297.0</ele><time>2026-04-27T10:36:22Z</time></trkpt><trkpt lat="44.655454899486585" lon="8.456174378645436"><ele>297.0</ele><time>2026-04-27T10:36:23Z</time></trkpt><trkpt lat="44.65556026356697" lon="8.45612407077328"><ele>295.5</ele><time>2026-04-27T10:36:24Z</time></trkpt><trkpt lat="44.65565225365389" lon="8.456005360011865"><ele>294.0</ele><time>2026-04-27T10:36:25Z</time></trkpt><trkpt lat="44.65573883180912" lon="8.455848121359757"><ele>292.5</ele><time>2026-04-27T10:36:26Z</time></trkpt><trkpt lat="44.65583320392973" lon="8.455673436528988"><ele>291.0</ele><time>2026-04-27T10:36:27Z</time></trkpt><trkpt lat="44.6559344290588" lon="8.455507594514396"><ele>290.40000000000003</ele><time>2026-04-27T10:36:28Z</time></trkpt><trkpt lat="44.656017119353265" lon="8.455374565140138"><ele>289.8</ele><time>2026-04-27T10:36:29Z</time></trkpt><trkpt lat="44.656059645258836" lon="8.455249401831752"><ele>289.20000000000005</ele><time>2026-04-27T10:36:30Z</time></trkpt><trkpt lat="44.656042721347674" lon="8.45511097898868"><ele>288.6</ele><time>2026-04-27T10:36:31Z</time></trkpt><trkpt lat="44.655982326781256" lon="8.454977614702031"><ele>288.0</ele><time>2026-04-27T10:36:32Z</time></trkpt><trkpt lat="44.65590609465806" lon="8.454871708374217"><ele>288.0</ele><time>2026-04-27T10:36:33Z</time></trkpt><trkpt lat="44.65587753541054" lon="8.454754989294477"><ele>288.0</ele><time>2026-04-27T10:36:34Z</time></trkpt><trkpt lat="44.65590491967836" lon="8.45465097688794"><ele>288.0</ele><time>2026-04-27T10:36:35Z</time></trkpt><trkpt lat="44.6559696224661" lon="8.454588588926919"><ele>288.0</ele><time>2026-04-27T10:36:36Z</time></trkpt><trkpt lat="44.656050728593975" lon="8.454581856193363"><ele>288.0</ele><time>2026-04-27T10:36:37Z</time></trkpt><trkpt lat="44.65613251328652" lon="8.454641354020376"><ele>288.0</ele><time>2026-04-27T10:36:38Z</time></trkpt><trkpt lat="44.65615993796395" lon="8.45477897668291"><ele>282.0</ele><time>2026-04-27T10:36:39Z</time></trkpt><trkpt lat="44.656189933493756" lon="8.45497270478954"><ele>276.0</ele><time>2026-04-27T10:36:40Z</time></trkpt><trkpt lat="44.65623229794738" lon="8.455208134864789"><ele>270.0</ele><time>2026-04-27T10:36:41Z</time></trkpt><trkpt lat="44.65628704125543" lon="8.45545057381908"><ele>272.0</ele><time>2026-04-27T10:36:42Z</time></trkpt><trkpt lat="44.656322880682836" lon="8.455667647405429"><ele>274.0</ele><time>2026-04-27T10:36:43Z</time></trkpt><trkpt lat="44.65638062688282" lon="8.455811526070988"><ele>276.0</ele><time>2026-04-27T10:36:44Z</time></trkpt><trkpt lat="44.656476913728504" lon="8.455895862749093"><ele>278.0</ele><time>2026-04-27T10:36:45Z</time></trkpt><trkpt lat="44.656607393816984" lon="8.4559129951869"><ele>278.0</ele><time>2026-04-27T10:36:46Z</time></trkpt><trkpt lat="44.65676950527342" lon="8.455859392293364"><ele>278.0</ele><time>2026-04-27T10:36:47Z</time></trkpt><trkpt lat="44.65694557250012" lon="8.455781248058416"><ele>278.0</ele><time>2026-04-27T10:36:48Z</time></trkpt><trkpt lat="44.65713548933931" lon="8.455718659557212"><ele>276.5</ele><time>2026-04-27T10:36:49Z</time></trkpt><trkpt lat="44.657304080240415" lon="8.455669496392913"><ele>275.0</ele><time>2026-04-27T10:36:50Z</time></trkpt><trkpt lat="44.65743027827057" lon="8.45563203426806"><ele>273.5</ele><time>2026-04-27T10:36:51Z</time></trkpt><trkpt lat="44.65754453816235" lon="8.455574694291148"><ele>272.0</ele><time>2026-04-27T10:36:52Z</time></trkpt><trkpt lat="44.65762845495065" lon="8.455445500219412"><ele>269.25</ele><time>2026-04-27T10:36:53Z</time></trkpt><trkpt lat="44.65768161096718" lon="8.455265403784491"><ele>266.5</ele><time>2026-04-27T10:36:54Z</time></trkpt><trkpt lat="44.65773989211436" lon="8.455115730643834"><ele>263.75</ele><time>2026-04-27T10:36:55Z</time></trkpt><trkpt lat="44.65783819326351" lon="8.455027229064772"><ele>261.0</ele><time>2026-04-27T10:36:56Z</time></trkpt><trkpt lat="44.657981706550004" lon="8.455048412213001"><ele>260.6666666666667</ele><time>2026-04-27T10:36:57Z</time></trkpt><trkpt lat="44.65814855968093" lon="8.45502748608933"><ele>260.33333333333337</ele><time>2026-04-27T10:36:58Z</time></trkpt><trkpt lat="44.65829268591808" lon="8.455003412225267"><ele>260.0</ele><time>2026-04-27T10:36:59Z</time></trkpt><trkpt lat="44.65840834262617" lon="8.454870633678235"><ele>260.0</ele><time>2026-04-27T10:37:00Z</time></trkpt><trkpt lat="44.658525468463566" lon="8.454677423721128"><ele>260.0</ele><time>2026-04-27T10:37:01Z</time></trkpt><trkpt lat="44.658633536847866" lon="8.454482138912935"><ele>260.0</ele><time>2026-04-27T10:37:02Z</time></trkpt><trkpt lat="44.658718349769885" lon="8.454360651266573"><ele>258.6</ele><time>2026-04-27T10:37:03Z</time></trkpt><trkpt lat="44.6588060193923" lon="8.454286581333493"><ele>257.2</ele><time>2026-04-27T10:37:04Z</time></trkpt><trkpt lat="44.65889029370987" lon="8.454304906157578"><ele>255.8</ele><time>2026-04-27T10:37:05Z</time></trkpt><trkpt lat="44.65896323335694" lon="8.45439018053605"><ele>254.4</ele><time>2026-04-27T10:37:06Z</time></trkpt><trkpt lat="44.65904426581365" lon="8.454535652476679"><ele>253.0</ele><time>2026-04-27T10:37:07Z</time></trkpt><trkpt lat="44.65917373696936" lon="8.454672348088165"><ele>253.0</ele><time>2026-04-27T10:37:08Z</time></trkpt><trkpt lat="44.65934297485853" lon="8.454723795298193"><ele>253.0</ele><time>2026-04-27T10:37:09Z</time></trkpt><trkpt lat="44.65949080068547" lon="8.454758022068932"><ele>253.0</ele><time>2026-04-27T10:37:10Z</time></trkpt><trkpt lat="44.65960709562614" lon="8.454836320911507"><ele>250.5</ele><time>2026-04-27T10:37:11Z</time></trkpt><trkpt lat="44.65967427440102" lon="8.454969299471545"><ele>248.0</ele><time>2026-04-27T10:37:12Z</time></trkpt><trkpt lat="44.65966853034969" lon="8.455121185440309"><ele>245.5</ele><time>2026-04-27T10:37:13Z</time></trkpt><trkpt lat="44.65968130929286" lon="8.45530144221989"><ele>243.0</ele><time>2026-04-27T10:37:14Z</time></trkpt><trkpt lat="44.65969926021002" lon="8.455485859067883"><ele>243.0</ele><time>2026-04-27T10:37:15Z</time></trkpt><trkpt lat="44.65976783536367" lon="8.455655329234613"><ele>243.0</ele><time>2026-04-27T10:37:16Z</time></trkpt><trkpt lat="44.659911244323766" lon="8.4557458931176"><ele>243.0</ele><time>2026-04-27T10:37:17Z</time></trkpt><trkpt lat="44.66008763494912" lon="8.45581283145802"><ele>243.0</ele><time>2026-04-27T10:37:18Z</time></trkpt><trkpt lat="44.66028043918255" lon="8.455896445922313"><ele>243.0</ele><time>2026-04-27T10:37:19Z</time></trkpt><trkpt lat="44.66048704151037" lon="8.456006772370085"><ele>243.0</ele><time>2026-04-27T10:37:20Z</time></trkpt><trkpt lat="44.66069707013568" lon="8.456072599892883"><ele>236.5</ele><time>2026-04-27T10:37:21Z</time></trkpt><trkpt lat="44.6609156898761" lon="8.456077005765332"><ele>230.0</ele><time>2026-04-27T10:37:22Z</time></trkpt><trkpt lat="44.66115106061713" lon="8.45606695899726"><ele>225.66666666666669</ele><time>2026-04-27T10:37:23Z</time></trkpt><trkpt lat="44.66136064431191" lon="8.456050549593547"><ele>221.33333333333331</ele><time>2026-04-27T10:37:24Z</time></trkpt><trkpt lat="44.6615659954556" lon="8.456043745461963"><ele>217.0</ele><time>2026-04-27T10:37:25Z</time></trkpt><trkpt lat="44.661759851552134" lon="8.456044412901635"><ele>217.0</ele><time>2026-04-27T10:37:26Z</time></trkpt><trkpt lat="44.66194418623686" lon="8.456072221434567"><ele>217.0</ele><time>2026-04-27T10:37:26.999Z</time></trkpt><trkpt lat="44.662127758032774" lon="8.456132373604317"><ele>217.0</ele><time>2026-04-27T10:37:27.999Z</time></trkpt><trkpt lat="44.66230483434102" lon="8.456233832956682"><ele>216.25</ele><time>2026-04-27T10:37:28.999Z</time></trkpt><trkpt lat="44.662440733036725" lon="8.456335733535374"><ele>215.5</ele><time>2026-04-27T10:37:29.999Z</time></trkpt><trkpt lat="44.66253439199027" lon="8.456459003096265"><ele>214.75</ele><time>2026-04-27T10:37:30.999Z</time></trkpt><trkpt lat="44.66259169012607" lon="8.456631694617121"><ele>214.0</ele><time>2026-04-27T10:37:31.999Z</time></trkpt><trkpt lat="44.662596667536526" lon="8.45682612530369"><ele>214.0</ele><time>2026-04-27T10:37:32.999Z</time></trkpt><trkpt lat="44.66255992884947" lon="8.45709581500181"><ele>214.0</ele><time>2026-04-27T10:37:33.999Z</time></trkpt><trkpt lat="44.6625406558307" lon="8.457350799629994"><ele>214.0</ele><time>2026-04-27T10:37:34.999Z</time></trkpt><trkpt lat="44.66252784713276" lon="8.457622793524925"><ele>212.66666666666666</ele><time>2026-04-27T10:37:35.999Z</time></trkpt><trkpt lat="44.66255683058788" lon="8.45791905598885"><ele>211.33333333333331</ele><time>2026-04-27T10:37:36.999Z</time></trkpt><trkpt lat="44.66257643888492" lon="8.458171167146483"><ele>210.0</ele><time>2026-04-27T10:37:37.999Z</time></trkpt><trkpt lat="44.66266208530239" lon="8.458412678889788"><ele>210.0</ele><time>2026-04-27T10:37:38.999Z</time></trkpt><trkpt lat="44.66275164301997" lon="8.458656206954409"><ele>210.0</ele><time>2026-04-27T10:37:39.999Z</time></trkpt><trkpt lat="44.66278761107103" lon="8.458911857808218"><ele>210.0</ele><time>2026-04-27T10:37:40.999Z</time></trkpt><trkpt lat="44.662797971497305" lon="8.459163372850396"><ele>202.66666666666666</ele><time>2026-04-27T10:37:41.999Z</time></trkpt><trkpt lat="44.66280748418606" lon="8.459415197246347"><ele>195.33333333333331</ele><time>2026-04-27T10:37:42.999Z</time></trkpt><trkpt lat="44.662817460294946" lon="8.459649057297126"><ele>188.0</ele><time>2026-04-27T10:37:43.999Z</time></trkpt><trkpt lat="44.66282604704077" lon="8.459862687476614"><ele>187.5</ele><time>2026-04-27T10:37:44.999Z</time></trkpt><trkpt lat="44.66282283476134" lon="8.46003254337409"><ele>187.0</ele><time>2026-04-27T10:37:45.999Z</time></trkpt><trkpt lat="44.662781014043716" lon="8.4601830915584"><ele>186.5</ele><time>2026-04-27T10:37:46.999Z</time></trkpt><trkpt lat="44.662765840506395" lon="8.460349204199462"><ele>186.0</ele><time>2026-04-27T10:37:47.999Z</time></trkpt><trkpt lat="44.66275961830296" lon="8.460512360863477"><ele>185.25</ele><time>2026-04-27T10:37:48.999Z</time></trkpt><trkpt lat="44.66279369489167" lon="8.460674133561726"><ele>184.5</ele><time>2026-04-27T10:37:49.999Z</time></trkpt><trkpt lat="44.662864674860465" lon="8.46081548143125"><ele>183.75</ele><time>2026-04-27T10:37:50.999Z</time></trkpt><trkpt lat="44.662966315752385" lon="8.460934318406345"><ele>183.0</ele><time>2026-04-27T10:37:51.999Z</time></trkpt><trkpt lat="44.663069331918244" lon="8.461051768593103"><ele>183.0</ele><time>2026-04-27T10:37:52.999Z</time></trkpt><trkpt lat="44.66316300934585" lon="8.46118095597667"><ele>183.0</ele><time>2026-04-27T10:37:53.999Z</time></trkpt><trkpt lat="44.663262277617676" lon="8.461312554314558"><ele>183.0</ele><time>2026-04-27T10:37:54.999Z</time></trkpt><trkpt lat="44.6633589355855" lon="8.461445203094263"><ele>183.0</ele><time>2026-04-27T10:37:55.999Z</time></trkpt><trkpt lat="44.66342280487276" lon="8.461609245619313"><ele>182.5</ele><time>2026-04-27T10:37:56.999Z</time></trkpt><trkpt lat="44.66345170730554" lon="8.461786508805156"><ele>182.0</ele><time>2026-04-27T10:37:57.999Z</time></trkpt><trkpt lat="44.66346541426288" lon="8.461973966926378"><ele>181.5</ele><time>2026-04-27T10:37:58.999Z</time></trkpt><trkpt lat="44.663481932928505" lon="8.462171503843713"><ele>181.0</ele><time>2026-04-27T10:37:59.999Z</time></trkpt><trkpt lat="44.66350764231323" lon="8.462383643276494"><ele>179.75</ele><time>2026-04-27T10:38:00.999Z</time></trkpt><trkpt lat="44.66352955217016" lon="8.46258320864736"><ele>178.5</ele><time>2026-04-27T10:38:01.999Z</time></trkpt><trkpt lat="44.66352077270812" lon="8.462777471882255"><ele>177.25</ele><time>2026-04-27T10:38:02.999Z</time></trkpt><trkpt lat="44.66350073607784" lon="8.46298652162579"><ele>176.0</ele><time>2026-04-27T10:38:03.999Z</time></trkpt><trkpt lat="44.66344979535355" lon="8.463213566224919"><ele>174.33333333333331</ele><time>2026-04-27T10:38:04.999Z</time></trkpt><trkpt lat="44.66340323770503" lon="8.463480577892811"><ele>172.66666666666666</ele><time>2026-04-27T10:38:05.999Z</time></trkpt><trkpt lat="44.66333295178481" lon="8.463742611001694"><ele>171.0</ele><time>2026-04-27T10:38:06.999Z</time></trkpt><trkpt lat="44.6632747096145" lon="8.463980339418283"><ele>169.75</ele><time>2026-04-27T10:38:07.999Z</time></trkpt><trkpt lat="44.66324201087111" lon="8.464191274386204"><ele>168.5</ele><time>2026-04-27T10:38:08.999Z</time></trkpt><trkpt lat="44.663246497719136" lon="8.464358906633928"><ele>167.25</ele><time>2026-04-27T10:38:09.999Z</time></trkpt><trkpt lat="44.66328085081616" lon="8.464495782577663"><ele>166.0</ele><time>2026-04-27T10:38:10.999Z</time></trkpt><trkpt lat="44.66331628879175" lon="8.464600446831017"><ele>165.5</ele><time>2026-04-27T10:38:11.999Z</time></trkpt><trkpt lat="44.66333694911309" lon="8.464747378707074"><ele>165.0</ele><time>2026-04-27T10:38:13.999Z</time></trkpt><trkpt lat="44.66333584968484" lon="8.464870505579098"><ele>164.5</ele><time>2026-04-27T10:38:15Z</time></trkpt><trkpt lat="44.663327042575794" lon="8.465038714684509"><ele>164.0</ele><time>2026-04-27T10:38:16Z</time></trkpt><trkpt lat="44.663316561035224" lon="8.4652298849163"><ele>164.0</ele><time>2026-04-27T10:38:17Z</time></trkpt><trkpt lat="44.66331473510353" lon="8.465440175138097"><ele>164.0</ele><time>2026-04-27T10:38:18Z</time></trkpt><trkpt lat="44.66331147371842" lon="8.465668129154798"><ele>164.0</ele><time>2026-04-27T10:38:19Z</time></trkpt><trkpt lat="44.66330516363389" lon="8.46590934221389"><ele>163.0</ele><time>2026-04-27T10:38:20Z</time></trkpt><trkpt lat="44.663296460313454" lon="8.4661547067906"><ele>162.0</ele><time>2026-04-27T10:38:21Z</time></trkpt><trkpt lat="44.66328726503222" lon="8.466408176953472"><ele>161.0</ele><time>2026-04-27T10:38:22Z</time></trkpt><trkpt lat="44.66328030520248" lon="8.466654046126413"><ele>159.66666666666666</ele><time>2026-04-27T10:38:23Z</time></trkpt><trkpt lat="44.663274501876344" lon="8.466871242163364"><ele>158.33333333333334</ele><time>2026-04-27T10:38:24Z</time></trkpt><trkpt lat="44.663268946984346" lon="8.467090397672633"><ele>157.0</ele><time>2026-04-27T10:38:25Z</time></trkpt><trkpt lat="44.6632611040655" lon="8.467309185168192"><ele>157.0</ele><time>2026-04-27T10:38:26Z</time></trkpt><trkpt lat="44.66325303940114" lon="8.467526847821707"><ele>157.0</ele><time>2026-04-27T10:38:27Z</time></trkpt><trkpt lat="44.66324394361606" lon="8.467750783540723"><ele>157.0</ele><time>2026-04-27T10:38:28Z</time></trkpt><trkpt lat="44.66323568499739" lon="8.467976526340609"><ele>157.0</ele><time>2026-04-27T10:38:29Z</time></trkpt><trkpt lat="44.66322928910612" lon="8.468182302317718"><ele>157.0</ele><time>2026-04-27T10:38:30Z</time></trkpt><trkpt lat="44.663258809910495" lon="8.468373801903208"><ele>157.0</ele><time>2026-04-27T10:38:31Z</time></trkpt><trkpt lat="44.66332713434981" lon="8.468524148870783"><ele>157.0</ele><time>2026-04-27T10:38:32Z</time></trkpt><trkpt lat="44.66342291655642" lon="8.46862395539848"><ele>157.0</ele><time>2026-04-27T10:38:33Z</time></trkpt><trkpt lat="44.66351902388588" lon="8.468684942631038"><ele>157.0</ele><time>2026-04-27T10:38:34Z</time></trkpt><trkpt lat="44.66361442953226" lon="8.468714448237872"><ele>157.0</ele><time>2026-04-27T10:38:35Z</time></trkpt><trkpt lat="44.66370627289297" lon="8.468752677284037"><ele>157.0</ele><time>2026-04-27T10:38:36Z</time></trkpt><trkpt lat="44.663812061250354" lon="8.46877983642124"><ele>157.0</ele><time>2026-04-27T10:38:37Z</time></trkpt><trkpt lat="44.6639236873024" lon="8.46876449610587"><ele>156.25</ele><time>2026-04-27T10:38:38Z</time></trkpt><trkpt lat="44.66404483293896" lon="8.468720978873112"><ele>155.5</ele><time>2026-04-27T10:38:39Z</time></trkpt><trkpt lat="44.66417964562504" lon="8.468684578209396"><ele>154.75</ele><time>2026-04-27T10:38:40Z</time></trkpt><trkpt lat="44.66433140636873" lon="8.468687685596954"><ele>154.0</ele><time>2026-04-27T10:38:41Z</time></trkpt><trkpt lat="44.66448029683536" lon="8.46869820841065"><ele>154.0</ele><time>2026-04-27T10:38:42Z</time></trkpt><trkpt lat="44.66463121735554" lon="8.468701354241674"><ele>154.0</ele><time>2026-04-27T10:38:43Z</time></trkpt><trkpt lat="44.66476425755105" lon="8.468696579723101"><ele>154.0</ele><time>2026-04-27T10:38:44Z</time></trkpt><trkpt lat="44.66487299854158" lon="8.468697205803124"><ele>154.0</ele><time>2026-04-27T10:38:45Z</time></trkpt><trkpt lat="44.6649678965194" lon="8.468695882851991"><ele>154.0</ele><time>2026-04-27T10:38:46Z</time></trkpt><trkpt lat="44.665052005602796" lon="8.46870083122224"><ele>154.0</ele><time>2026-04-27T10:38:47Z</time></trkpt><trkpt lat="44.665121216883264" lon="8.468735304477343"><ele>154.0</ele><time>2026-04-27T10:38:48Z</time></trkpt><trkpt lat="44.6651721127565" lon="8.468808962124815"><ele>154.0</ele><time>2026-04-27T10:38:49Z</time></trkpt><trkpt lat="44.66520165307218" lon="8.468895158307161"><ele>154.0</ele><time>2026-04-27T10:38:50Z</time></trkpt><trkpt lat="44.665297815263436" lon="8.468930683725638"><ele>154.0</ele><time>2026-04-27T10:38:52Z</time></trkpt><trkpt lat="44.66537739717303" lon="8.46878238464148"><ele>153.16666666666669</ele><time>2026-04-27T10:38:54Z</time></trkpt><trkpt lat="44.665433507735216" lon="8.46871084192811"><ele>152.33333333333334</ele><time>2026-04-27T10:38:55Z</time></trkpt><trkpt lat="44.66550483602789" lon="8.468699751044426"><ele>151.5</ele><time>2026-04-27T10:38:56Z</time></trkpt><trkpt lat="44.66559074315945" lon="8.468711288515596"><ele>150.66666666666666</ele><time>2026-04-27T10:38:57Z</time></trkpt><trkpt lat="44.66569015944823" lon="8.468718603422166"><ele>149.83333333333331</ele><time>2026-04-27T10:38:58Z</time></trkpt><trkpt lat="44.66579609764281" lon="8.46872193818004"><ele>149.0</ele><time>2026-04-27T10:38:59Z</time></trkpt><trkpt lat="44.66588968859907" lon="8.46872345316639"><ele>149.0</ele><time>2026-04-27T10:39:00Z</time></trkpt><trkpt lat="44.66598942960435" lon="8.468715886948685"><ele>149.0</ele><time>2026-04-27T10:39:01Z</time></trkpt><trkpt lat="44.66608263306463" lon="8.46871529948402"><ele>149.0</ele><time>2026-04-27T10:39:02Z</time></trkpt><trkpt lat="44.66618000620984" lon="8.468718683124395"><ele>149.0</ele><time>2026-04-27T10:39:03Z</time></trkpt><trkpt lat="44.66626927393319" lon="8.468719607083512"><ele>149.0</ele><time>2026-04-27T10:39:04Z</time></trkpt><trkpt lat="44.666354886484534" lon="8.468718927991633"><ele>147.6</ele><time>2026-04-27T10:39:05Z</time></trkpt><trkpt lat="44.66645030252953" lon="8.46872048698494"><ele>146.2</ele><time>2026-04-27T10:39:06Z</time></trkpt><trkpt lat="44.66654877891411" lon="8.468725130328114"><ele>144.79999999999998</ele><time>2026-04-27T10:39:07Z</time></trkpt><trkpt lat="44.666648331305296" lon="8.468729436549397"><ele>143.4</ele><time>2026-04-27T10:39:08Z</time></trkpt><trkpt lat="44.666742493809" lon="8.468732576357073"><ele>142.0</ele><time>2026-04-27T10:39:09Z</time></trkpt><trkpt lat="44.66683653834813" lon="8.468733354664192"><ele>142.0</ele><time>2026-04-27T10:39:10Z</time></trkpt><trkpt lat="44.66692547153984" lon="8.468729377838752"><ele>142.0</ele><time>2026-04-27T10:39:11Z</time></trkpt><trkpt lat="44.66700333328824" lon="8.468727899550027"><ele>142.0</ele><time>2026-04-27T10:39:12Z</time></trkpt><trkpt lat="44.66707130256023" lon="8.468728826973983"><ele>142.0</ele><time>2026-04-27T10:39:13Z</time></trkpt><trkpt lat="44.66717138711199" lon="8.468734710551765"><ele>142.0</ele><time>2026-04-27T10:39:15Z</time></trkpt><trkpt lat="44.66726992059389" lon="8.468739350771067"><ele>142.0</ele><time>2026-04-27T10:39:17Z</time></trkpt><trkpt lat="44.66737492169122" lon="8.46878926874936"><ele>144.16666666666669</ele><time>2026-04-27T10:39:22Z</time></trkpt><trkpt lat="44.667403628164735" lon="8.46887902648189"><ele>146.33333333333334</ele><time>2026-04-27T10:39:25.999Z</time></trkpt><trkpt lat="44.667388646168845" lon="8.46901991498857"><ele>148.5</ele><time>2026-04-27T10:39:28.999Z</time></trkpt><trkpt lat="44.66736444211778" lon="8.469120535696403"><ele>150.66666666666666</ele><time>2026-04-27T10:39:29.999Z</time></trkpt><trkpt lat="44.667301155081226" lon="8.469223785679079"><ele>152.83333333333331</ele><time>2026-04-27T10:39:30.999Z</time></trkpt><trkpt lat="44.667290541260805" lon="8.46936866060965"><ele>155.0</ele><time>2026-04-27T10:39:31.999Z</time></trkpt><trkpt lat="44.667238810788255" lon="8.469516339584906"><ele>155.5</ele><time>2026-04-27T10:39:32.999Z</time></trkpt><trkpt lat="44.667188661467726" lon="8.469666839469376"><ele>156.0</ele><time>2026-04-27T10:39:33.999Z</time></trkpt><trkpt lat="44.66712254443168" lon="8.469824930608317"><ele>156.5</ele><time>2026-04-27T10:39:34.999Z</time></trkpt><trkpt lat="44.667042184408125" lon="8.469995355194872"><ele>157.0</ele><time>2026-04-27T10:39:35.999Z</time></trkpt><trkpt lat="44.66698053320637" lon="8.47018890976659"><ele>153.33333333333334</ele><time>2026-04-27T10:39:36.999Z</time></trkpt><trkpt lat="44.666928556341404" lon="8.470396437190162"><ele>149.66666666666666</ele><time>2026-04-27T10:39:37.999Z</time></trkpt><trkpt lat="44.666883993527364" lon="8.47059908081869"><ele>146.0</ele><time>2026-04-27T10:39:38.999Z</time></trkpt><trkpt lat="44.6668350898662" lon="8.470811689276214"><ele>146.0</ele><time>2026-04-27T10:39:39.999Z</time></trkpt><trkpt lat="44.6667942887371" lon="8.471037504783027"><ele>146.0</ele><time>2026-04-27T10:39:40.999Z</time></trkpt><trkpt lat="44.666767728686274" lon="8.471268220803337"><ele>146.0</ele><time>2026-04-27T10:39:41.999Z</time></trkpt><trkpt lat="44.666745955935426" lon="8.471508141408936"><ele>147.66666666666666</ele><time>2026-04-27T10:39:42.999Z</time></trkpt><trkpt lat="44.66672868028779" lon="8.4717456541453"><ele>149.33333333333334</ele><time>2026-04-27T10:39:43.999Z</time></trkpt><trkpt lat="44.66670698912893" lon="8.471961106416932"><ele>151.0</ele><time>2026-04-27T10:39:44.999Z</time></trkpt><trkpt lat="44.666692412148585" lon="8.472162541891821"><ele>151.0</ele><time>2026-04-27T10:39:45.999Z</time></trkpt><trkpt lat="44.66668832055461" lon="8.47231508421318"><ele>151.0</ele><time>2026-04-27T10:39:46.999Z</time></trkpt><trkpt lat="44.666686632243064" lon="8.472451641301152"><ele>151.0</ele><time>2026-04-27T10:39:47.999Z</time></trkpt><trkpt lat="44.6666855748051" lon="8.472617711696632"><ele>151.0</ele><time>2026-04-27T10:39:48.999Z</time></trkpt><trkpt lat="44.66665929881705" lon="8.47282266236512"><ele>150.33333333333334</ele><time>2026-04-27T10:39:49.999Z</time></trkpt><trkpt lat="44.66663657055971" lon="8.473061374408385"><ele>149.66666666666666</ele><time>2026-04-27T10:39:50.999Z</time></trkpt><trkpt lat="44.6666140687753" lon="8.473297707734393"><ele>149.0</ele><time>2026-04-27T10:39:51.999Z</time></trkpt><trkpt lat="44.666591221715" lon="8.473536255786163"><ele>148.33333333333331</ele><time>2026-04-27T10:39:52.999Z</time></trkpt><trkpt lat="44.66657642176899" lon="8.473786085555169"><ele>147.66666666666666</ele><time>2026-04-27T10:39:53.999Z</time></trkpt><trkpt lat="44.66655544501629" lon="8.474038811283217"><ele>147.0</ele><time>2026-04-27T10:39:54.999Z</time></trkpt><trkpt lat="44.66653465012049" lon="8.474296553132367"><ele>147.0</ele><time>2026-04-27T10:39:55.999Z</time></trkpt><trkpt lat="44.666513661003236" lon="8.474562028786757"><ele>147.0</ele><time>2026-04-27T10:39:56.999Z</time></trkpt><trkpt lat="44.666503069299196" lon="8.474832219568675"><ele>147.0</ele><time>2026-04-27T10:39:57.999Z</time></trkpt><trkpt lat="44.66650132955635" lon="8.475104242573305"><ele>147.0</ele><time>2026-04-27T10:39:58.999Z</time></trkpt><trkpt lat="44.666508796579414" lon="8.475378192697539"><ele>147.0</ele><time>2026-04-27T10:39:59.999Z</time></trkpt><trkpt lat="44.6665181104406" lon="8.47563833147815"><ele>147.0</ele><time>2026-04-27T10:40:00.999Z</time></trkpt><trkpt lat="44.66653674129014" lon="8.475887378812262"><ele>147.66666666666666</ele><time>2026-04-27T10:40:01.999Z</time></trkpt><trkpt lat="44.66656593126854" lon="8.476139067664661"><ele>148.33333333333331</ele><time>2026-04-27T10:40:02.999Z</time></trkpt><trkpt lat="44.66659726470845" lon="8.476392795451355"><ele>149.0</ele><time>2026-04-27T10:40:03.999Z</time></trkpt><trkpt lat="44.66663608242269" lon="8.476639880580738"><ele>149.0</ele><time>2026-04-27T10:40:04.999Z</time></trkpt><trkpt lat="44.66667621087847" lon="8.476878541703813"><ele>149.0</ele><time>2026-04-27T10:40:05.999Z</time></trkpt><trkpt lat="44.66672449411484" lon="8.477113687217152"><ele>149.0</ele><time>2026-04-27T10:40:06.999Z</time></trkpt><trkpt lat="44.666785482940895" lon="8.477355163579986"><ele>148.33333333333331</ele><time>2026-04-27T10:40:07.999Z</time></trkpt><trkpt lat="44.666855630266284" lon="8.477592945592068"><ele>147.66666666666666</ele><time>2026-04-27T10:40:08.999Z</time></trkpt><trkpt lat="44.66693229923339" lon="8.477829219525784"><ele>147.0</ele><time>2026-04-27T10:40:09.999Z</time></trkpt><trkpt lat="44.66701723126417" lon="8.478055770318068"><ele>146.66666666666666</ele><time>2026-04-27T10:40:10.999Z</time></trkpt><trkpt lat="44.66710498050097" lon="8.478287945144434"><ele>146.33333333333331</ele><time>2026-04-27T10:40:11.999Z</time></trkpt><trkpt lat="44.66720509937443" lon="8.478516156035688"><ele>146.0</ele><time>2026-04-27T10:40:12.999Z</time></trkpt><trkpt lat="44.66731091902923" lon="8.478733383389555"><ele>145.33333333333331</ele><time>2026-04-27T10:40:13.999Z</time></trkpt><trkpt lat="44.66741969861302" lon="8.478945482837997"><ele>144.66666666666666</ele><time>2026-04-27T10:40:14.999Z</time></trkpt><trkpt lat="44.66753421282803" lon="8.479143493734961"><ele>144.0</ele><time>2026-04-27T10:40:15.999Z</time></trkpt><trkpt lat="44.667660261506" lon="8.479340689403207"><ele>144.0</ele><time>2026-04-27T10:40:16.999Z</time></trkpt><trkpt lat="44.667790682430315" lon="8.479527258749116"><ele>144.0</ele><time>2026-04-27T10:40:17.999Z</time></trkpt><trkpt lat="44.66792299210292" lon="8.479710757452652"><ele>144.0</ele><time>2026-04-27T10:40:18.999Z</time></trkpt><trkpt lat="44.66804987345516" lon="8.479872144369097"><ele>144.75</ele><time>2026-04-27T10:40:19.999Z</time></trkpt><trkpt lat="44.6681698829372" lon="8.480015794006341"><ele>145.5</ele><time>2026-04-27T10:40:21Z</time></trkpt><trkpt lat="44.66828379771488" lon="8.48014188774245"><ele>146.25</ele><time>2026-04-27T10:40:22Z</time></trkpt><trkpt lat="44.66840019104945" lon="8.480256674380716"><ele>147.0</ele><time>2026-04-27T10:40:23Z</time></trkpt><trkpt lat="44.668526578351816" lon="8.480381579129428"><ele>146.66666666666666</ele><time>2026-04-27T10:40:24Z</time></trkpt><trkpt lat="44.668655717309356" lon="8.480509152412647"><ele>146.33333333333331</ele><time>2026-04-27T10:40:25Z</time></trkpt><trkpt lat="44.6687845232877" lon="8.480635556106888"><ele>146.0</ele><time>2026-04-27T10:40:26Z</time></trkpt><trkpt lat="44.66891220907938" lon="8.48076227702695"><ele>146.0</ele><time>2026-04-27T10:40:27Z</time></trkpt><trkpt lat="44.66902805496914" lon="8.480883115857853"><ele>146.0</ele><time>2026-04-27T10:40:28Z</time></trkpt><trkpt lat="44.66913511083771" lon="8.48099560767416"><ele>146.0</ele><time>2026-04-27T10:40:29Z</time></trkpt><trkpt lat="44.66923374584423" lon="8.481095212470073"><ele>146.0</ele><time>2026-04-27T10:40:30Z</time></trkpt><trkpt lat="44.66931684058363" lon="8.481184434791915"><ele>146.0</ele><time>2026-04-27T10:40:31Z</time></trkpt><trkpt lat="44.669382370449966" lon="8.481280082326784"><ele>146.0</ele><time>2026-04-27T10:40:32Z</time></trkpt><trkpt lat="44.66942634586099" lon="8.48138833976197"><ele>146.0</ele><time>2026-04-27T10:40:33Z</time></trkpt><trkpt lat="44.669452938191306" lon="8.48151997890636"><ele>146.0</ele><time>2026-04-27T10:40:34Z</time></trkpt><trkpt lat="44.66946823523952" lon="8.481663947860929"><ele>146.0</ele><time>2026-04-27T10:40:35Z</time></trkpt><trkpt lat="44.6695005556107" lon="8.48180684027581"><ele>146.2</ele><time>2026-04-27T10:40:36Z</time></trkpt><trkpt lat="44.669565973713134" lon="8.481917144748957"><ele>146.39999999999998</ele><time>2026-04-27T10:40:37Z</time></trkpt><trkpt lat="44.669650611085046" lon="8.481981458014003"><ele>146.6</ele><time>2026-04-27T10:40:38Z</time></trkpt><trkpt lat="44.66974486833224" lon="8.48199163402363"><ele>146.79999999999998</ele><time>2026-04-27T10:40:39Z</time></trkpt><trkpt lat="44.669845390780544" lon="8.481971658642955"><ele>147.0</ele><time>2026-04-27T10:40:40Z</time></trkpt><trkpt lat="44.669946428203595" lon="8.481955284313345"><ele>147.0</ele><time>2026-04-27T10:40:41Z</time></trkpt><trkpt lat="44.6700565446397" lon="8.481970432509536"><ele>147.0</ele><time>2026-04-27T10:40:42Z</time></trkpt><trkpt lat="44.670176749396035" lon="8.482036755976313"><ele>147.0</ele><time>2026-04-27T10:40:43Z</time></trkpt><trkpt lat="44.67028865091516" lon="8.482152661777404"><ele>147.0</ele><time>2026-04-27T10:40:44Z</time></trkpt><trkpt lat="44.670426363941964" lon="8.482294890467157"><ele>147.33333333333334</ele><time>2026-04-27T10:40:45Z</time></trkpt><trkpt lat="44.67056982067718" lon="8.48245645528928"><ele>147.66666666666669</ele><time>2026-04-27T10:40:46Z</time></trkpt><trkpt lat="44.67073156824062" lon="8.482619286996872"><ele>148.0</ele><time>2026-04-27T10:40:47Z</time></trkpt><trkpt lat="44.670906760112935" lon="8.48279613917399"><ele>147.0</ele><time>2026-04-27T10:40:48Z</time></trkpt><trkpt lat="44.67107793032022" lon="8.482969055011692"><ele>146.0</ele><time>2026-04-27T10:40:49Z</time></trkpt><trkpt lat="44.67125068901039" lon="8.483127419095853"><ele>145.0</ele><time>2026-04-27T10:40:50Z</time></trkpt><trkpt lat="44.671405477420336" lon="8.483288024159423"><ele>145.0</ele><time>2026-04-27T10:40:51Z</time></trkpt><trkpt lat="44.67154849308057" lon="8.48342927904229"><ele>145.0</ele><time>2026-04-27T10:40:52Z</time></trkpt><trkpt lat="44.671694297587806" lon="8.483582570043552"><ele>145.0</ele><time>2026-04-27T10:40:53Z</time></trkpt><trkpt lat="44.671843533110064" lon="8.483733193218498"><ele>145.0</ele><time>2026-04-27T10:40:54Z</time></trkpt><trkpt lat="44.67198643954974" lon="8.483877865114158"><ele>145.0</ele><time>2026-04-27T10:40:55Z</time></trkpt><trkpt lat="44.67213024805687" lon="8.484022802973099"><ele>145.0</ele><time>2026-04-27T10:40:56Z</time></trkpt><trkpt lat="44.67228012531318" lon="8.484158161118154"><ele>145.0</ele><time>2026-04-27T10:40:57Z</time></trkpt><trkpt lat="44.67244294309954" lon="8.484277043440898"><ele>145.0</ele><time>2026-04-27T10:40:58Z</time></trkpt><trkpt lat="44.67261679538684" lon="8.484383186772307"><ele>145.0</ele><time>2026-04-27T10:40:59Z</time></trkpt><trkpt lat="44.67279752529079" lon="8.484486075965112"><ele>145.33333333333334</ele><time>2026-04-27T10:41:00Z</time></trkpt><trkpt lat="44.67298178685298" lon="8.484591297316133"><ele>145.66666666666666</ele><time>2026-04-27T10:41:01Z</time></trkpt><trkpt lat="44.673167627646606" lon="8.484702097151917"><ele>146.0</ele><time>2026-04-27T10:41:02Z</time></trkpt><trkpt lat="44.673359315410664" lon="8.484818687916041"><ele>144.66666666666666</ele><time>2026-04-27T10:41:03Z</time></trkpt><trkpt lat="44.67355312086915" lon="8.484936972911887"><ele>143.33333333333334</ele><time>2026-04-27T10:41:04Z</time></trkpt><trkpt lat="44.67374369228192" lon="8.485051707023196"><ele>142.0</ele><time>2026-04-27T10:41:05Z</time></trkpt><trkpt lat="44.673929656815254" lon="8.485160622210252"><ele>142.0</ele><time>2026-04-27T10:41:06Z</time></trkpt><trkpt lat="44.67410884332146" lon="8.485266799777737"><ele>142.0</ele><time>2026-04-27T10:41:07Z</time></trkpt><trkpt lat="44.674284273935115" lon="8.485376200736274"><ele>142.0</ele><time>2026-04-27T10:41:08Z</time></trkpt><trkpt lat="44.674465586761855" lon="8.485486377824795"><ele>142.66666666666669</ele><time>2026-04-27T10:41:09Z</time></trkpt><trkpt lat="44.674651817838246" lon="8.48559396861412"><ele>143.33333333333334</ele><time>2026-04-27T10:41:10Z</time></trkpt><trkpt lat="44.6748469306037" lon="8.485696041672213"><ele>144.0</ele><time>2026-04-27T10:41:11Z</time></trkpt><trkpt lat="44.675026679882585" lon="8.485823399852261"><ele>144.0</ele><time>2026-04-27T10:41:12Z</time></trkpt><trkpt lat="44.67520493226641" lon="8.485929473826051"><ele>144.0</ele><time>2026-04-27T10:41:13Z</time></trkpt><trkpt lat="44.67538501660108" lon="8.486037213915226"><ele>144.0</ele><time>2026-04-27T10:41:14Z</time></trkpt><trkpt lat="44.67556645390327" lon="8.486146955120931"><ele>144.33333333333334</ele><time>2026-04-27T10:41:15Z</time></trkpt><trkpt lat="44.67575345127826" lon="8.486260059338958"><ele>144.66666666666669</ele><time>2026-04-27T10:41:16Z</time></trkpt><trkpt lat="44.67595494972743" lon="8.486381934263214"><ele>145.0</ele><time>2026-04-27T10:41:17Z</time></trkpt><trkpt lat="44.67619137794591" lon="8.486519826804354"><ele>146.0</ele><time>2026-04-27T10:41:18Z</time></trkpt><trkpt lat="44.67639940269125" lon="8.48671508651115"><ele>147.0</ele><time>2026-04-27T10:41:19Z</time></trkpt><trkpt lat="44.67658794254944" lon="8.486885804096682"><ele>147.0</ele><time>2026-04-27T10:41:20Z</time></trkpt><trkpt lat="44.67675346755179" lon="8.487043969698354"><ele>147.0</ele><time>2026-04-27T10:41:21Z</time></trkpt><trkpt lat="44.6769130832255" lon="8.487215748449964"><ele>147.0</ele><time>2026-04-27T10:41:22Z</time></trkpt><trkpt lat="44.67707448318715" lon="8.487406605580796"><ele>146.66666666666666</ele><time>2026-04-27T10:41:23Z</time></trkpt><trkpt lat="44.67724198583703" lon="8.487607112732459"><ele>146.33333333333331</ele><time>2026-04-27T10:41:24Z</time></trkpt><trkpt lat="44.67739818691227" lon="8.48780666303155"><ele>146.0</ele><time>2026-04-27T10:41:25Z</time></trkpt><trkpt lat="44.677551710065664" lon="8.488008937941986"><ele>146.0</ele><time>2026-04-27T10:41:26Z</time></trkpt><trkpt lat="44.677720259199276" lon="8.488222880029102"><ele>146.0</ele><time>2026-04-27T10:41:27Z</time></trkpt><trkpt lat="44.677898129318976" lon="8.48844470383735"><ele>146.0</ele><time>2026-04-27T10:41:28Z</time></trkpt><trkpt lat="44.678080477109894" lon="8.488662519263185"><ele>146.0</ele><time>2026-04-27T10:41:29Z</time></trkpt><trkpt lat="44.6782523402411" lon="8.48887575396567"><ele>146.66666666666666</ele><time>2026-04-27T10:41:30Z</time></trkpt><trkpt lat="44.678420449695594" lon="8.489085425802495"><ele>147.33333333333334</ele><time>2026-04-27T10:41:31Z</time></trkpt><trkpt lat="44.67858738642934" lon="8.489295143467134"><ele>148.0</ele><time>2026-04-27T10:41:32Z</time></trkpt><trkpt lat="44.67875596130675" lon="8.4895057194409"><ele>148.0</ele><time>2026-04-27T10:41:33Z</time></trkpt><trkpt lat="44.678920936130886" lon="8.489710542849513"><ele>148.0</ele><time>2026-04-27T10:41:34Z</time></trkpt><trkpt lat="44.679083499998285" lon="8.489919295715746"><ele>148.0</ele><time>2026-04-27T10:41:35Z</time></trkpt><trkpt lat="44.679247004237794" lon="8.490138767451322"><ele>148.0</ele><time>2026-04-27T10:41:36Z</time></trkpt><trkpt lat="44.67943174623311" lon="8.490399717875626"><ele>148.0</ele><time>2026-04-27T10:41:37Z</time></trkpt><trkpt lat="44.679622537446484" lon="8.4906649830844"><ele>150.0</ele><time>2026-04-27T10:41:38Z</time></trkpt><trkpt lat="44.679814219361035" lon="8.490943910063194"><ele>152.0</ele><time>2026-04-27T10:41:39Z</time></trkpt><trkpt lat="44.6800096355891" lon="8.491127750984363"><ele>151.66666666666666</ele><time>2026-04-27T10:41:41Z</time></trkpt><trkpt lat="44.68012018215423" lon="8.491360465396179"><ele>151.33333333333334</ele><time>2026-04-27T10:41:42Z</time></trkpt><trkpt lat="44.68022533722839" lon="8.491590748695815"><ele>151.0</ele><time>2026-04-27T10:41:43Z</time></trkpt><trkpt lat="44.68031868245701" lon="8.49183020124935"><ele>156.66666666666669</ele><time>2026-04-27T10:41:44Z</time></trkpt><trkpt lat="44.68040190388914" lon="8.49207801209259"><ele>162.33333333333334</ele><time>2026-04-27T10:41:45Z</time></trkpt><trkpt lat="44.68047351941162" lon="8.492338602472909"><ele>168.0</ele><time>2026-04-27T10:41:46Z</time></trkpt><trkpt lat="44.680532666964936" lon="8.492610580606936"><ele>168.0</ele><time>2026-04-27T10:41:47Z</time></trkpt><trkpt lat="44.68057555420392" lon="8.492892236022586"><ele>168.0</ele><time>2026-04-27T10:41:48Z</time></trkpt><trkpt lat="44.68060584296426" lon="8.493185777526772"><ele>168.0</ele><time>2026-04-27T10:41:49Z</time></trkpt><trkpt lat="44.68061332213897" lon="8.49348402588844"><ele>166.0</ele><time>2026-04-27T10:41:50Z</time></trkpt><trkpt lat="44.68060736890066" lon="8.49378525986434"><ele>164.0</ele><time>2026-04-27T10:41:51Z</time></trkpt><trkpt lat="44.68058442452895" lon="8.494088435622954"><ele>162.0</ele><time>2026-04-27T10:41:52Z</time></trkpt><trkpt lat="44.68054926303297" lon="8.494379218329538"><ele>162.0</ele><time>2026-04-27T10:41:53Z</time></trkpt><trkpt lat="44.68051276142759" lon="8.494652072851052"><ele>162.0</ele><time>2026-04-27T10:41:54Z</time></trkpt><trkpt lat="44.680477822665814" lon="8.49491011082275"><ele>162.0</ele><time>2026-04-27T10:41:55Z</time></trkpt><trkpt lat="44.68044569137299" lon="8.495147414393665"><ele>162.0</ele><time>2026-04-27T10:41:56Z</time></trkpt><trkpt lat="44.68041609407204" lon="8.495373768398117"><ele>162.0</ele><time>2026-04-27T10:41:56.999Z</time></trkpt><trkpt lat="44.68039994647674" lon="8.495587249925112"><ele>162.0</ele><time>2026-04-27T10:41:57.999Z</time></trkpt><trkpt lat="44.680392678703555" lon="8.495782331406058"><ele>162.25</ele><time>2026-04-27T10:41:58.999Z</time></trkpt><trkpt lat="44.68038640723088" lon="8.495950670205016"><ele>162.5</ele><time>2026-04-27T10:41:59.999Z</time></trkpt><trkpt lat="44.680390200061666" lon="8.49609888535485"><ele>162.75</ele><time>2026-04-27T10:42:00.999Z</time></trkpt><trkpt lat="44.68032263401005" lon="8.49620982180893"><ele>163.0</ele><time>2026-04-27T10:42:01.999Z</time></trkpt><trkpt lat="44.680298945232806" lon="8.4963807464208"><ele>163.0</ele><time>2026-04-27T10:42:02.999Z</time></trkpt><trkpt lat="44.68030259595539" lon="8.49657271316946"><ele>163.0</ele><time>2026-04-27T10:42:03.999Z</time></trkpt><trkpt lat="44.680321886320584" lon="8.496781442938829"><ele>163.0</ele><time>2026-04-27T10:42:04.999Z</time></trkpt><trkpt lat="44.68034064468274" lon="8.49700233187247"><ele>163.0</ele><time>2026-04-27T10:42:05.999Z</time></trkpt><trkpt lat="44.680361815502806" lon="8.497228926123185"><ele>162.66666666666669</ele><time>2026-04-27T10:42:06.999Z</time></trkpt><trkpt lat="44.680394391522825" lon="8.497464403431572"><ele>162.33333333333334</ele><time>2026-04-27T10:42:07.999Z</time></trkpt><trkpt lat="44.68044158227018" lon="8.497704813375325"><ele>162.0</ele><time>2026-04-27T10:42:08.999Z</time></trkpt><trkpt lat="44.6805006491252" lon="8.497926914332679"><ele>162.0</ele><time>2026-04-27T10:42:09.999Z</time></trkpt><trkpt lat="44.680556215169496" lon="8.498127044534103"><ele>162.0</ele><time>2026-04-27T10:42:10.999Z</time></trkpt><trkpt lat="44.68061175007008" lon="8.498328454886773"><ele>162.0</ele><time>2026-04-27T10:42:11.999Z</time></trkpt><trkpt lat="44.680666509741776" lon="8.49853911959192"><ele>161.33333333333334</ele><time>2026-04-27T10:42:12.999Z</time></trkpt><trkpt lat="44.68072544201424" lon="8.498757576658294"><ele>160.66666666666669</ele><time>2026-04-27T10:42:13.999Z</time></trkpt><trkpt lat="44.68078530382438" lon="8.498982976226717"><ele>160.0</ele><time>2026-04-27T10:42:14.999Z</time></trkpt><trkpt lat="44.680846509646756" lon="8.499215067313482"><ele>160.0</ele><time>2026-04-27T10:42:15.999Z</time></trkpt><trkpt lat="44.680909338207655" lon="8.4994542395631"><ele>160.0</ele><time>2026-04-27T10:42:16.999Z</time></trkpt><trkpt lat="44.68097004437753" lon="8.499695142132817"><ele>160.0</ele><time>2026-04-27T10:42:17.999Z</time></trkpt><trkpt lat="44.681030383575546" lon="8.49993181104362"><ele>160.0</ele><time>2026-04-27T10:42:18.999Z</time></trkpt><trkpt lat="44.68109412118113" lon="8.500176940357917"><ele>160.0</ele><time>2026-04-27T10:42:19.999Z</time></trkpt><trkpt lat="44.681160434051534" lon="8.500415081520943"><ele>160.0</ele><time>2026-04-27T10:42:20.999Z</time></trkpt><trkpt lat="44.68122708718889" lon="8.500657432188056"><ele>160.66666666666669</ele><time>2026-04-27T10:42:21.999Z</time></trkpt><trkpt lat="44.681299399825846" lon="8.500911088477693"><ele>161.33333333333334</ele><time>2026-04-27T10:42:22.999Z</time></trkpt><trkpt lat="44.68136530404194" lon="8.501156245655979"><ele>162.0</ele><time>2026-04-27T10:42:23.999Z</time></trkpt><trkpt lat="44.68142537592839" lon="8.501392947555809"><ele>162.0</ele><time>2026-04-27T10:42:24.999Z</time></trkpt><trkpt lat="44.68148517111522" lon="8.501626618709675"><ele>162.0</ele><time>2026-04-27T10:42:25.999Z</time></trkpt><trkpt lat="44.68154425713651" lon="8.501858862046186"><ele>162.0</ele><time>2026-04-27T10:42:27Z</time></trkpt><trkpt lat="44.68160330012765" lon="8.50207993603047"><ele>160.75</ele><time>2026-04-27T10:42:28Z</time></trkpt><trkpt lat="44.681656991511076" lon="8.502285665639494"><ele>159.5</ele><time>2026-04-27T10:42:29Z</time></trkpt><trkpt lat="44.68170576265084" lon="8.502484266661307"><ele>158.25</ele><time>2026-04-27T10:42:30Z</time></trkpt><trkpt lat="44.681751168596854" lon="8.502670026466124"><ele>157.0</ele><time>2026-04-27T10:42:31Z</time></trkpt><trkpt lat="44.68179629647822" lon="8.502851519944793"><ele>156.0</ele><time>2026-04-27T10:42:32Z</time></trkpt><trkpt lat="44.68183861445521" lon="8.503015873015304"><ele>155.0</ele><time>2026-04-27T10:42:33Z</time></trkpt><trkpt lat="44.681873911059455" lon="8.503154450459425"><ele>154.0</ele><time>2026-04-27T10:42:34Z</time></trkpt><trkpt lat="44.681895754356795" lon="8.503283276696898"><ele>153.0</ele><time>2026-04-27T10:42:35Z</time></trkpt><trkpt lat="44.681896163382056" lon="8.50340125297821"><ele>152.0</ele><time>2026-04-27T10:42:36Z</time></trkpt><trkpt lat="44.68186810259002" lon="8.50353246585234"><ele>152.0</ele><time>2026-04-27T10:42:37Z</time></trkpt><trkpt lat="44.68183744789392" lon="8.503649591905198"><ele>152.0</ele><time>2026-04-27T10:42:38Z</time></trkpt><trkpt lat="44.681824634342696" lon="8.503749439483068"><ele>152.0</ele><time>2026-04-27T10:42:39Z</time></trkpt><trkpt lat="44.68183985231844" lon="8.503837391477289"><ele>152.0</ele><time>2026-04-27T10:42:40Z</time></trkpt><trkpt lat="44.6819126352033" lon="8.503965538640317"><ele>152.0</ele><time>2026-04-27T10:42:42Z</time></trkpt><trkpt lat="44.68201849535919" lon="8.504061086336923"><ele>152.16666666666666</ele><time>2026-04-27T10:42:44Z</time></trkpt><trkpt lat="44.68207740013847" lon="8.504116387751058"><ele>152.33333333333331</ele><time>2026-04-27T10:42:45Z</time></trkpt><trkpt lat="44.68213490345135" lon="8.504192682981229"><ele>152.5</ele><time>2026-04-27T10:42:46Z</time></trkpt><trkpt lat="44.68218099897311" lon="8.504298404153916"><ele>152.66666666666666</ele><time>2026-04-27T10:42:47Z</time></trkpt><trkpt lat="44.68221171743044" lon="8.50441709173408"><ele>152.83333333333334</ele><time>2026-04-27T10:42:48Z</time></trkpt><trkpt lat="44.682230014364826" lon="8.50453108933467"><ele>153.0</ele><time>2026-04-27T10:42:49Z</time></trkpt><trkpt lat="44.68224991400923" lon="8.504635029471533"><ele>153.20000000000002</ele><time>2026-04-27T10:42:50Z</time></trkpt><trkpt lat="44.6822801683427" lon="8.504758150571854"><ele>153.4</ele><time>2026-04-27T10:42:51Z</time></trkpt><trkpt lat="44.68231423550835" lon="8.504893829233303"><ele>153.60000000000002</ele><time>2026-04-27T10:42:52Z</time></trkpt><trkpt lat="44.68234942089611" lon="8.50503556474663"><ele>153.8</ele><time>2026-04-27T10:42:53Z</time></trkpt><trkpt lat="44.68238645770219" lon="8.50518295752969"><ele>154.0</ele><time>2026-04-27T10:42:54Z</time></trkpt><trkpt lat="44.68242319509896" lon="8.505321741568565"><ele>153.8</ele><time>2026-04-27T10:42:55Z</time></trkpt><trkpt lat="44.68245960010476" lon="8.50545998897087"><ele>153.60000000000002</ele><time>2026-04-27T10:42:56Z</time></trkpt><trkpt lat="44.68249316587114" lon="8.505597315851473"><ele>153.4</ele><time>2026-04-27T10:42:57Z</time></trkpt><trkpt lat="44.6825302455632" lon="8.50574241666665"><ele>153.20000000000002</ele><time>2026-04-27T10:42:58Z</time></trkpt><trkpt lat="44.682571165248916" lon="8.50589790162398"><ele>153.0</ele><time>2026-04-27T10:42:59Z</time></trkpt><trkpt lat="44.68262008130074" lon="8.506077489313121"><ele>153.0</ele><time>2026-04-27T10:43:00Z</time></trkpt><trkpt lat="44.68266957927583" lon="8.506261726137701"><ele>153.0</ele><time>2026-04-27T10:43:01Z</time></trkpt><trkpt lat="44.682714656366116" lon="8.50644633478549"><ele>153.0</ele><time>2026-04-27T10:43:02Z</time></trkpt><trkpt lat="44.68276004395833" lon="8.506628062187994"><ele>153.0</ele><time>2026-04-27T10:43:03Z</time></trkpt><trkpt lat="44.68280514430019" lon="8.50680579042037"><ele>152.5</ele><time>2026-04-27T10:43:04Z</time></trkpt><trkpt lat="44.682849938076444" lon="8.506979399618645"><ele>152.0</ele><time>2026-04-27T10:43:05Z</time></trkpt><trkpt lat="44.68289499854193" lon="8.50715404805669"><ele>151.5</ele><time>2026-04-27T10:43:06Z</time></trkpt><trkpt lat="44.68294112012256" lon="8.507331258210327"><ele>151.0</ele><time>2026-04-27T10:43:07Z</time></trkpt><trkpt lat="44.682989169807996" lon="8.507504495675503"><ele>151.0</ele><time>2026-04-27T10:43:08Z</time></trkpt><trkpt lat="44.68303945814613" lon="8.507683329718368"><ele>151.0</ele><time>2026-04-27T10:43:09Z</time></trkpt><trkpt lat="44.683083660263414" lon="8.507853247032825"><ele>151.0</ele><time>2026-04-27T10:43:10Z</time></trkpt><trkpt lat="44.68312136778068" lon="8.508012539784703"><ele>151.0</ele><time>2026-04-27T10:43:11Z</time></trkpt><trkpt lat="44.68315003973217" lon="8.508152913509418"><ele>150.83333333333334</ele><time>2026-04-27T10:43:12Z</time></trkpt><trkpt lat="44.683157157469594" lon="8.508252780674205"><ele>150.66666666666669</ele><time>2026-04-27T10:43:13Z</time></trkpt><trkpt lat="44.68317437605855" lon="8.508384223019336"><ele>150.5</ele><time>2026-04-27T10:43:15Z</time></trkpt><trkpt lat="44.683201744611964" lon="8.508495640836998"><ele>150.33333333333334</ele><time>2026-04-27T10:43:17Z</time></trkpt><trkpt lat="44.68323189907754" lon="8.508589534021965"><ele>150.16666666666666</ele><time>2026-04-27T10:45:10Z</time></trkpt><trkpt lat="44.68326739206853" lon="8.508701145658344"><ele>150.0</ele><time>2026-04-27T10:45:12Z</time></trkpt><trkpt lat="44.68329439199214" lon="8.508795735635703"><ele>150.0</ele><time>2026-04-27T10:45:13Z</time></trkpt><trkpt lat="44.68333335825802" lon="8.508913918223591"><ele>150.0</ele><time>2026-04-27T10:45:14Z</time></trkpt><trkpt lat="44.68337480563656" lon="8.509029254163465"><ele>150.0</ele><time>2026-04-27T10:45:15Z</time></trkpt><trkpt lat="44.68342003975122" lon="8.509167824872753"><ele>150.0</ele><time>2026-04-27T10:45:16Z</time></trkpt><trkpt lat="44.6834595816396" lon="8.50931881805352"><ele>150.0</ele><time>2026-04-27T10:45:17Z</time></trkpt><trkpt lat="44.68349837156866" lon="8.50946867527737"><ele>150.0</ele><time>2026-04-27T10:45:18Z</time></trkpt><trkpt lat="44.683542085779585" lon="8.509623934275744"><ele>150.0</ele><time>2026-04-27T10:45:19Z</time></trkpt><trkpt lat="44.68358777853726" lon="8.509786143624313"><ele>150.0</ele><time>2026-04-27T10:45:20Z</time></trkpt><trkpt lat="44.683631057352514" lon="8.50995198274841"><ele>150.0</ele><time>2026-04-27T10:45:21Z</time></trkpt><trkpt lat="44.683666212185194" lon="8.51013250424978"><ele>150.75</ele><time>2026-04-27T10:45:22Z</time></trkpt><trkpt lat="44.68368743388473" lon="8.510318964672171"><ele>151.5</ele><time>2026-04-27T10:45:23Z</time></trkpt><trkpt lat="44.683699666084834" lon="8.510517497767777"><ele>152.25</ele><time>2026-04-27T10:45:24Z</time></trkpt><trkpt lat="44.68370446341535" lon="8.510744669532748"><ele>153.0</ele><time>2026-04-27T10:45:25Z</time></trkpt><trkpt lat="44.68370505501621" lon="8.510957974229052"><ele>153.25</ele><time>2026-04-27T10:45:26Z</time></trkpt><trkpt lat="44.683703435076424" lon="8.511162827258683"><ele>153.5</ele><time>2026-04-27T10:45:27Z</time></trkpt><trkpt lat="44.68368739970655" lon="8.511356154012772"><ele>153.75</ele><time>2026-04-27T10:45:28Z</time></trkpt><trkpt lat="44.6836810663511" lon="8.511546224666905"><ele>154.0</ele><time>2026-04-27T10:45:29Z</time></trkpt><trkpt lat="44.68369118003909" lon="8.511708311146789"><ele>154.0</ele><time>2026-04-27T10:45:30Z</time></trkpt><trkpt lat="44.683668049069226" lon="8.511838664422013"><ele>154.0</ele><time>2026-04-27T10:45:31Z</time></trkpt><trkpt lat="44.68360956828823" lon="8.511923730630002"><ele>154.0</ele><time>2026-04-27T10:45:32Z</time></trkpt><trkpt lat="44.68352155241449" lon="8.511995385483566"><ele>154.0</ele><time>2026-04-27T10:45:33Z</time></trkpt><trkpt lat="44.68343907090024" lon="8.51209642913701"><ele>154.0</ele><time>2026-04-27T10:45:34Z</time></trkpt><trkpt lat="44.68339961997805" lon="8.51222266748461"><ele>153.8</ele><time>2026-04-27T10:45:35Z</time></trkpt><trkpt lat="44.68340442259363" lon="8.512356044053261"><ele>153.60000000000002</ele><time>2026-04-27T10:45:36Z</time></trkpt><trkpt lat="44.68344799815848" lon="8.512460138847041"><ele>153.4</ele><time>2026-04-27T10:45:37Z</time></trkpt><trkpt lat="44.683516730960655" lon="8.512545199775165"><ele>153.20000000000002</ele><time>2026-04-27T10:45:38Z</time></trkpt><trkpt lat="44.68360141094064" lon="8.51263901931228"><ele>153.0</ele><time>2026-04-27T10:45:39Z</time></trkpt><trkpt lat="44.683696909371584" lon="8.512712662184768"><ele>154.66666666666666</ele><time>2026-04-27T10:45:40Z</time></trkpt><trkpt lat="44.68368032200301" lon="8.51298556333061"><ele>156.33333333333331</ele><time>2026-04-27T10:45:41Z</time></trkpt><trkpt lat="44.68370703098342" lon="8.513203680004958"><ele>158.0</ele><time>2026-04-27T10:45:42Z</time></trkpt><trkpt lat="44.683701417743656" lon="8.513401323064635"><ele>158.0</ele><time>2026-04-27T10:45:43Z</time></trkpt><trkpt lat="44.68370503615633" lon="8.51359484956878"><ele>158.0</ele><time>2026-04-27T10:45:44Z</time></trkpt><trkpt lat="44.68371492582653" lon="8.513791204169317"><ele>158.0</ele><time>2026-04-27T10:45:45Z</time></trkpt><trkpt lat="44.68373182514572" lon="8.513993282335852"><ele>158.0</ele><time>2026-04-27T10:45:46Z</time></trkpt><trkpt lat="44.683748963188684" lon="8.514194973388683"><ele>158.66666666666666</ele><time>2026-04-27T10:45:47Z</time></trkpt><trkpt lat="44.68376735589403" lon="8.514405793556572"><ele>159.33333333333334</ele><time>2026-04-27T10:45:48Z</time></trkpt><trkpt lat="44.68379496225927" lon="8.514619389915365"><ele>160.0</ele><time>2026-04-27T10:45:49Z</time></trkpt><trkpt lat="44.68382885053061" lon="8.514832365436403"><ele>160.0</ele><time>2026-04-27T10:45:50Z</time></trkpt><trkpt lat="44.68386484218722" lon="8.515046514330471"><ele>160.0</ele><time>2026-04-27T10:45:51Z</time></trkpt><trkpt lat="44.683905843820796" lon="8.515260894046165"><ele>160.0</ele><time>2026-04-27T10:45:52Z</time></trkpt><trkpt lat="44.683951152310875" lon="8.515471062739994"><ele>159.66666666666669</ele><time>2026-04-27T10:45:53Z</time></trkpt><trkpt lat="44.684006605839855" lon="8.515677991341098"><ele>159.33333333333334</ele><time>2026-04-27T10:45:54Z</time></trkpt><trkpt lat="44.684062100436286" lon="8.515882876310497"><ele>159.0</ele><time>2026-04-27T10:45:55Z</time></trkpt><trkpt lat="44.68411664126026" lon="8.516069072460539"><ele>158.0</ele><time>2026-04-27T10:45:56Z</time></trkpt><trkpt lat="44.684177664274735" lon="8.51625417835824"><ele>157.0</ele><time>2026-04-27T10:45:57Z</time></trkpt><trkpt lat="44.68424174302045" lon="8.516425946510882"><ele>156.0</ele><time>2026-04-27T10:45:58Z</time></trkpt><trkpt lat="44.68430195673426" lon="8.516606323012205"><ele>155.0</ele><time>2026-04-27T10:45:59Z</time></trkpt><trkpt lat="44.684366542142435" lon="8.516786923980636"><ele>155.0</ele><time>2026-04-27T10:46:00Z</time></trkpt><trkpt lat="44.68442784216017" lon="8.516968401396962"><ele>155.0</ele><time>2026-04-27T10:46:01Z</time></trkpt><trkpt lat="44.684494161611035" lon="8.517159396082878"><ele>155.0</ele><time>2026-04-27T10:46:02Z</time></trkpt><trkpt lat="44.684558982959054" lon="8.517356782374506"><ele>155.0</ele><time>2026-04-27T10:46:03Z</time></trkpt><trkpt lat="44.68462998724791" lon="8.517557745321037"><ele>154.66666666666666</ele><time>2026-04-27T10:46:04Z</time></trkpt><trkpt lat="44.684701245563424" lon="8.517760532698132"><ele>154.33333333333334</ele><time>2026-04-27T10:46:05Z</time></trkpt><trkpt lat="44.684770160037814" lon="8.517958684084617"><ele>154.0</ele><time>2026-04-27T10:46:06Z</time></trkpt><trkpt lat="44.68483841483757" lon="8.518155704912346"><ele>154.0</ele><time>2026-04-27T10:46:07Z</time></trkpt><trkpt lat="44.684905480152665" lon="8.518349526445448"><ele>154.0</ele><time>2026-04-27T10:46:08Z</time></trkpt><trkpt lat="44.684976378967" lon="8.51854859860977"><ele>154.0</ele><time>2026-04-27T10:46:09Z</time></trkpt><trkpt lat="44.685046644596675" lon="8.518745172536713"><ele>153.33333333333334</ele><time>2026-04-27T10:46:10Z</time></trkpt><trkpt lat="44.6851113688622" lon="8.518940981584565"><ele>152.66666666666666</ele><time>2026-04-27T10:46:11Z</time></trkpt><trkpt lat="44.685178216301544" lon="8.51913567468003"><ele>152.0</ele><time>2026-04-27T10:46:12Z</time></trkpt><trkpt lat="44.685242307684995" lon="8.519325225072732"><ele>151.75</ele><time>2026-04-27T10:46:13Z</time></trkpt><trkpt lat="44.685303604197784" lon="8.51951203357117"><ele>151.5</ele><time>2026-04-27T10:46:14Z</time></trkpt><trkpt lat="44.685365250250776" lon="8.519701524082242"><ele>151.25</ele><time>2026-04-27T10:46:15Z</time></trkpt><trkpt lat="44.68542788680004" lon="8.519888085919401"><ele>151.0</ele><time>2026-04-27T10:46:16Z</time></trkpt><trkpt lat="44.68549323961644" lon="8.520074157953525"><ele>150.33333333333334</ele><time>2026-04-27T10:46:17Z</time></trkpt><trkpt lat="44.6855569127618" lon="8.520261751310796"><ele>149.66666666666666</ele><time>2026-04-27T10:46:18Z</time></trkpt><trkpt lat="44.68562477204779" lon="8.520462048554633"><ele>149.0</ele><time>2026-04-27T10:46:19Z</time></trkpt><trkpt lat="44.68569230000997" lon="8.520662780522633"><ele>146.66666666666666</ele><time>2026-04-27T10:46:20Z</time></trkpt><trkpt lat="44.68575935145165" lon="8.52086500365569"><ele>144.33333333333334</ele><time>2026-04-27T10:46:21Z</time></trkpt><trkpt lat="44.68582996490501" lon="8.521067500186335"><ele>142.0</ele><time>2026-04-27T10:46:22Z</time></trkpt><trkpt lat="44.68590169283163" lon="8.521267877855948"><ele>140.33333333333334</ele><time>2026-04-27T10:46:23Z</time></trkpt><trkpt lat="44.68597396018972" lon="8.521469937807792"><ele>138.66666666666666</ele><time>2026-04-27T10:46:24Z</time></trkpt><trkpt lat="44.68605183041126" lon="8.521660398695929"><ele>137.0</ele><time>2026-04-27T10:46:25Z</time></trkpt><trkpt lat="44.68613690913927" lon="8.521850475389012"><ele>137.0</ele><time>2026-04-27T10:46:26Z</time></trkpt><trkpt lat="44.68623040889901" lon="8.522027980007131"><ele>137.0</ele><time>2026-04-27T10:46:27Z</time></trkpt><trkpt lat="44.686333328501505" lon="8.52219368050653"><ele>137.0</ele><time>2026-04-27T10:46:28Z</time></trkpt><trkpt lat="44.686440000460884" lon="8.522353763542036"><ele>136.33333333333331</ele><time>2026-04-27T10:46:29Z</time></trkpt><trkpt lat="44.68655363013369" lon="8.522502098074598"><ele>135.66666666666666</ele><time>2026-04-27T10:46:30Z</time></trkpt><trkpt lat="44.686679355570824" lon="8.522646330246099"><ele>135.0</ele><time>2026-04-27T10:46:31Z</time></trkpt><trkpt lat="44.686811408065964" lon="8.522778659087347"><ele>137.0</ele><time>2026-04-27T10:46:32Z</time></trkpt><trkpt lat="44.68694926624943" lon="8.52290525131015"><ele>139.0</ele><time>2026-04-27T10:46:32.999Z</time></trkpt><trkpt lat="44.687094871662445" lon="8.523021926294332"><ele>141.0</ele><time>2026-04-27T10:46:33.999Z</time></trkpt><trkpt lat="44.687245084023886" lon="8.523124180412239"><ele>141.0</ele><time>2026-04-27T10:46:34.999Z</time></trkpt><trkpt lat="44.687395401154554" lon="8.523219011741523"><ele>141.0</ele><time>2026-04-27T10:46:35.999Z</time></trkpt><trkpt lat="44.68754186757015" lon="8.523302506408651"><ele>141.0</ele><time>2026-04-27T10:46:36.999Z</time></trkpt><trkpt lat="44.68768794878794" lon="8.52338506043411"><ele>139.0</ele><time>2026-04-27T10:46:37.999Z</time></trkpt><trkpt lat="44.68783544095911" lon="8.523472187932219"><ele>137.0</ele><time>2026-04-27T10:46:38.999Z</time></trkpt><trkpt lat="44.68798303857452" lon="8.52356199190981"><ele>135.0</ele><time>2026-04-27T10:46:39.999Z</time></trkpt><trkpt lat="44.68813614283427" lon="8.52365439513534"><ele>133.33333333333334</ele><time>2026-04-27T10:46:40.999Z</time></trkpt><trkpt lat="44.68828566826148" lon="8.52374304279121"><ele>131.66666666666669</ele><time>2026-04-27T10:46:41.999Z</time></trkpt><trkpt lat="44.68843789279291" lon="8.523835471615604"><ele>130.0</ele><time>2026-04-27T10:46:42.999Z</time></trkpt><trkpt lat="44.68858626092937" lon="8.5239243972026"><ele>130.0</ele><time>2026-04-27T10:46:43.999Z</time></trkpt><trkpt lat="44.68873866613489" lon="8.524013511264847"><ele>130.0</ele><time>2026-04-27T10:46:44.999Z</time></trkpt><trkpt lat="44.68888698319284" lon="8.524102664538693"><ele>130.0</ele><time>2026-04-27T10:46:45.999Z</time></trkpt><trkpt lat="44.68903588723783" lon="8.524190635200544"><ele>130.0</ele><time>2026-04-27T10:46:46.999Z</time></trkpt><trkpt lat="44.689182807692724" lon="8.524277939774683"><ele>130.0</ele><time>2026-04-27T10:46:47.999Z</time></trkpt><trkpt lat="44.68932936960729" lon="8.524365124404659"><ele>130.0</ele><time>2026-04-27T10:46:48.999Z</time></trkpt><trkpt lat="44.689474363608696" lon="8.524450197108335"><ele>130.0</ele><time>2026-04-27T10:46:49.999Z</time></trkpt><trkpt lat="44.689619868785144" lon="8.524534096779584"><ele>130.0</ele><time>2026-04-27T10:46:50.999Z</time></trkpt><trkpt lat="44.68976783399464" lon="8.524620774057693"><ele>130.0</ele><time>2026-04-27T10:46:51.999Z</time></trkpt><trkpt lat="44.68991282851228" lon="8.524705198707519"><ele>130.0</ele><time>2026-04-27T10:46:53Z</time></trkpt><trkpt lat="44.69006002073366" lon="8.524786082795968"><ele>130.0</ele><time>2026-04-27T10:46:54Z</time></trkpt><trkpt lat="44.69020113134278" lon="8.524873766849616"><ele>130.0</ele><time>2026-04-27T10:46:55Z</time></trkpt><trkpt lat="44.69034208505718" lon="8.524966988943847"><ele>133.0</ele><time>2026-04-27T10:46:56Z</time></trkpt><trkpt lat="44.690482262933244" lon="8.525067985964357"><ele>136.0</ele><time>2026-04-27T10:46:57Z</time></trkpt><trkpt lat="44.690621344415796" lon="8.525175353926478"><ele>139.0</ele><time>2026-04-27T10:46:58Z</time></trkpt><trkpt lat="44.690758351108435" lon="8.52528810699584"><ele>138.66666666666669</ele><time>2026-04-27T10:46:59Z</time></trkpt><trkpt lat="44.69089383422124" lon="8.52541027208439"><ele>138.33333333333334</ele><time>2026-04-27T10:47:00Z</time></trkpt><trkpt lat="44.69102878234194" lon="8.525535488873851"><ele>138.0</ele><time>2026-04-27T10:47:01Z</time></trkpt><trkpt lat="44.6911571644242" lon="8.525654010969403"><ele>138.0</ele><time>2026-04-27T10:47:02Z</time></trkpt><trkpt lat="44.69129447463621" lon="8.525782345289953"><ele>138.0</ele><time>2026-04-27T10:47:03Z</time></trkpt><trkpt lat="44.69142585362252" lon="8.525904263779571"><ele>138.0</ele><time>2026-04-27T10:47:04Z</time></trkpt><trkpt lat="44.69156221192286" lon="8.526025211750632"><ele>138.0</ele><time>2026-04-27T10:47:05Z</time></trkpt><trkpt lat="44.6916962133762" lon="8.526146277542564"><ele>138.0</ele><time>2026-04-27T10:47:06Z</time></trkpt><trkpt lat="44.69183211601209" lon="8.52627110764689"><ele>138.0</ele><time>2026-04-27T10:47:07Z</time></trkpt><trkpt lat="44.69196392206985" lon="8.526389139405754"><ele>136.0</ele><time>2026-04-27T10:47:08Z</time></trkpt><trkpt lat="44.692102341068136" lon="8.526504634538496"><ele>134.0</ele><time>2026-04-27T10:47:09Z</time></trkpt><trkpt lat="44.69223577626072" lon="8.526621737858752"><ele>132.0</ele><time>2026-04-27T10:47:10Z</time></trkpt><trkpt lat="44.692367176014926" lon="8.52673962207913"><ele>132.0</ele><time>2026-04-27T10:47:11Z</time></trkpt><trkpt lat="44.692499770184966" lon="8.526861279557359"><ele>132.0</ele><time>2026-04-27T10:47:12Z</time></trkpt><trkpt lat="44.69262728756224" lon="8.526983561687617"><ele>132.0</ele><time>2026-04-27T10:47:13Z</time></trkpt><trkpt lat="44.69275454441527" lon="8.52710774598435"><ele>131.33333333333334</ele><time>2026-04-27T10:47:14Z</time></trkpt><trkpt lat="44.692882906855246" lon="8.5272356975551"><ele>130.66666666666669</ele><time>2026-04-27T10:47:15Z</time></trkpt><trkpt lat="44.693018713229826" lon="8.527361260499355"><ele>130.0</ele><time>2026-04-27T10:47:16Z</time></trkpt><trkpt lat="44.69315309531014" lon="8.527482575394705"><ele>130.0</ele><time>2026-04-27T10:47:17Z</time></trkpt><trkpt lat="44.69329072882416" lon="8.527604139831382"><ele>130.0</ele><time>2026-04-27T10:47:18Z</time></trkpt><trkpt lat="44.6934334724207" lon="8.527727249223078"><ele>130.0</ele><time>2026-04-27T10:47:19Z</time></trkpt><trkpt lat="44.693576645629925" lon="8.52784030993118"><ele>129.33333333333334</ele><time>2026-04-27T10:47:20Z</time></trkpt><trkpt lat="44.693720440962956" lon="8.52794860608791"><ele>128.66666666666666</ele><time>2026-04-27T10:47:21Z</time></trkpt><trkpt lat="44.693867099055424" lon="8.528054547165317"><ele>128.0</ele><time>2026-04-27T10:47:22Z</time></trkpt><trkpt lat="44.694016309035405" lon="8.528162211001089"><ele>128.0</ele><time>2026-04-27T10:47:23Z</time></trkpt><trkpt lat="44.69416511290463" lon="8.528262970309346"><ele>128.0</ele><time>2026-04-27T10:47:24Z</time></trkpt><trkpt lat="44.69429990470145" lon="8.528352572465748"><ele>128.0</ele><time>2026-04-27T10:47:25Z</time></trkpt><trkpt lat="44.69443789229165" lon="8.528445785358123"><ele>128.0</ele><time>2026-04-27T10:47:26Z</time></trkpt><trkpt lat="44.69458020472685" lon="8.528541405800036"><ele>128.0</ele><time>2026-04-27T10:47:27Z</time></trkpt><trkpt lat="44.694721879633214" lon="8.528637401134292"><ele>128.0</ele><time>2026-04-27T10:47:28Z</time></trkpt><trkpt lat="44.69485991566666" lon="8.52872981486277"><ele>128.0</ele><time>2026-04-27T10:47:29Z</time></trkpt><trkpt lat="44.69500316518398" lon="8.528826591787153"><ele>128.0</ele><time>2026-04-27T10:47:30Z</time></trkpt><trkpt lat="44.695145562943246" lon="8.528922196042139"><ele>128.0</ele><time>2026-04-27T10:47:31Z</time></trkpt><trkpt lat="44.6952867614761" lon="8.5290177762991"><ele>128.0</ele><time>2026-04-27T10:47:32Z</time></trkpt><trkpt lat="44.69542363561255" lon="8.529112109736712"><ele>128.0</ele><time>2026-04-27T10:47:33Z</time></trkpt><trkpt lat="44.69555840599112" lon="8.529210850951905"><ele>128.0</ele><time>2026-04-27T10:47:34Z</time></trkpt><trkpt lat="44.69569725012084" lon="8.529313758107753"><ele>128.0</ele><time>2026-04-27T10:47:35Z</time></trkpt><trkpt lat="44.695831696545135" lon="8.529422677663241"><ele>128.0</ele><time>2026-04-27T10:47:36Z</time></trkpt><trkpt lat="44.69596600238008" lon="8.529541328496704"><ele>128.0</ele><time>2026-04-27T10:47:37Z</time></trkpt><trkpt lat="44.696091172845314" lon="8.52966323747879"><ele>127.75</ele><time>2026-04-27T10:47:38Z</time></trkpt><trkpt lat="44.69621398177977" lon="8.529791283036063"><ele>127.5</ele><time>2026-04-27T10:47:39Z</time></trkpt><trkpt lat="44.69633066677971" lon="8.529925834082572"><ele>127.25</ele><time>2026-04-27T10:47:40Z</time></trkpt><trkpt lat="44.696439542080505" lon="8.530055264854308"><ele>127.0</ele><time>2026-04-27T10:47:41Z</time></trkpt><trkpt lat="44.696545490448074" lon="8.530195110241786"><ele>127.0</ele><time>2026-04-27T10:47:42Z</time></trkpt><trkpt lat="44.69664983763347" lon="8.530346888217451"><ele>127.0</ele><time>2026-04-27T10:47:43Z</time></trkpt><trkpt lat="44.6967547567141" lon="8.530503918480008"><ele>127.0</ele><time>2026-04-27T10:47:44Z</time></trkpt><trkpt lat="44.696850698664065" lon="8.530662769244769"><ele>127.33333333333334</ele><time>2026-04-27T10:47:45Z</time></trkpt><trkpt lat="44.69694887246968" lon="8.530833491022765"><ele>127.66666666666666</ele><time>2026-04-27T10:47:46Z</time></trkpt><trkpt lat="44.69704298640383" lon="8.53101263883797"><ele>128.0</ele><time>2026-04-27T10:47:47Z</time></trkpt><trkpt lat="44.697126950301175" lon="8.531188445501344"><ele>127.66666666666666</ele><time>2026-04-27T10:47:48Z</time></trkpt><trkpt lat="44.69721141083394" lon="8.531378565065983"><ele>127.33333333333334</ele><time>2026-04-27T10:47:49Z</time></trkpt><trkpt lat="44.69728649626668" lon="8.531561714955474"><ele>127.0</ele><time>2026-04-27T10:47:50Z</time></trkpt><trkpt lat="44.69736215248322" lon="8.531749309216828"><ele>127.0</ele><time>2026-04-27T10:47:51Z</time></trkpt><trkpt lat="44.697436092310234" lon="8.531934975917581"><ele>127.0</ele><time>2026-04-27T10:47:52Z</time></trkpt><trkpt lat="44.697510717737906" lon="8.532116068544708"><ele>127.0</ele><time>2026-04-27T10:47:53Z</time></trkpt><trkpt lat="44.697581009706724" lon="8.53229238521969"><ele>127.0</ele><time>2026-04-27T10:47:54Z</time></trkpt><trkpt lat="44.697652738742285" lon="8.532465497038284"><ele>127.0</ele><time>2026-04-27T10:47:55Z</time></trkpt><trkpt lat="44.6977334115951" lon="8.53263400428125"><ele>127.0</ele><time>2026-04-27T10:47:56Z</time></trkpt><trkpt lat="44.697815951343664" lon="8.532790458061154"><ele>127.0</ele><time>2026-04-27T10:47:57Z</time></trkpt><trkpt lat="44.69790752930892" lon="8.532952839741283"><ele>127.0</ele><time>2026-04-27T10:47:58Z</time></trkpt><trkpt lat="44.69799623557217" lon="8.53310988015944"><ele>127.0</ele><time>2026-04-27T10:47:59Z</time></trkpt><trkpt lat="44.698096037805875" lon="8.533262615466183"><ele>127.0</ele><time>2026-04-27T10:48:00Z</time></trkpt><trkpt lat="44.69819396754349" lon="8.533414248589162"><ele>127.0</ele><time>2026-04-27T10:48:01Z</time></trkpt><trkpt lat="44.698299538331725" lon="8.533564700127364"><ele>127.0</ele><time>2026-04-27T10:48:02Z</time></trkpt><trkpt lat="44.69840528963557" lon="8.533707339468533"><ele>126.25</ele><time>2026-04-27T10:48:03Z</time></trkpt><trkpt lat="44.69851222623062" lon="8.533836345370055"><ele>125.5</ele><time>2026-04-27T10:48:04Z</time></trkpt><trkpt lat="44.69862099888015" lon="8.533959154707592"><ele>124.75</ele><time>2026-04-27T10:48:05Z</time></trkpt><trkpt lat="44.6987298216239" lon="8.534077442948323"><ele>124.0</ele><time>2026-04-27T10:48:06Z</time></trkpt><trkpt lat="44.69883621898013" lon="8.534196333207575"><ele>124.0</ele><time>2026-04-27T10:48:07Z</time></trkpt><trkpt lat="44.69895249192483" lon="8.534308964548291"><ele>124.0</ele><time>2026-04-27T10:48:08Z</time></trkpt><trkpt lat="44.69907892967024" lon="8.534406676327016"><ele>124.0</ele><time>2026-04-27T10:48:08.999Z</time></trkpt><trkpt lat="44.69920041365232" lon="8.534499880006441"><ele>124.0</ele><time>2026-04-27T10:48:09.999Z</time></trkpt><trkpt lat="44.69932517236565" lon="8.534586464516776"><ele>124.75</ele><time>2026-04-27T10:48:10.999Z</time></trkpt><trkpt lat="44.69945495036253" lon="8.534670137092084"><ele>125.5</ele><time>2026-04-27T10:48:11.999Z</time></trkpt><trkpt lat="44.699586830399724" lon="8.534748286677322"><ele>126.25</ele><time>2026-04-27T10:48:12.999Z</time></trkpt><trkpt lat="44.699720190727774" lon="8.53481997531514"><ele>127.0</ele><time>2026-04-27T10:48:13.999Z</time></trkpt><trkpt lat="44.699855008965756" lon="8.534889334866927"><ele>127.0</ele><time>2026-04-27T10:48:14.999Z</time></trkpt><trkpt lat="44.69998901639704" lon="8.53495384783446"><ele>127.0</ele><time>2026-04-27T10:48:15.999Z</time></trkpt><trkpt lat="44.700127260179805" lon="8.53501603348428"><ele>127.0</ele><time>2026-04-27T10:48:16.999Z</time></trkpt><trkpt lat="44.70026982053972" lon="8.535071351103376"><ele>127.0</ele><time>2026-04-27T10:48:17.999Z</time></trkpt><trkpt lat="44.70041793620233" lon="8.535118166954808"><ele>127.0</ele><time>2026-04-27T10:48:18.999Z</time></trkpt><trkpt lat="44.70057080248626" lon="8.535160555074158"><ele>127.0</ele><time>2026-04-27T10:48:19.999Z</time></trkpt><trkpt lat="44.70073456298583" lon="8.535194999863766"><ele>127.0</ele><time>2026-04-27T10:48:20.999Z</time></trkpt><trkpt lat="44.7008967470136" lon="8.53522268846155"><ele>127.0</ele><time>2026-04-27T10:48:21.999Z</time></trkpt><trkpt lat="44.70106006790447" lon="8.535247755173623"><ele>127.0</ele><time>2026-04-27T10:48:22.999Z</time></trkpt><trkpt lat="44.70121984908283" lon="8.535274376526901"><ele>127.0</ele><time>2026-04-27T10:48:23.999Z</time></trkpt><trkpt lat="44.70137820882069" lon="8.535303716075505"><ele>126.66666666666667</ele><time>2026-04-27T10:48:24.999Z</time></trkpt><trkpt lat="44.701536704699514" lon="8.535332085246678"><ele>126.33333333333334</ele><time>2026-04-27T10:48:25.999Z</time></trkpt><trkpt lat="44.701693827430454" lon="8.535357031735652"><ele>126.0</ele><time>2026-04-27T10:48:26.999Z</time></trkpt><trkpt lat="44.701847589122444" lon="8.535381157364833"><ele>126.33333333333334</ele><time>2026-04-27T10:48:27.999Z</time></trkpt><trkpt lat="44.702003147623834" lon="8.535406185787233"><ele>126.66666666666667</ele><time>2026-04-27T10:48:28.999Z</time></trkpt><trkpt lat="44.70215819888514" lon="8.53543462554959"><ele>127.0</ele><time>2026-04-27T10:48:29.999Z</time></trkpt><trkpt lat="44.70231490133343" lon="8.535460100342037"><ele>127.0</ele><time>2026-04-27T10:48:30.999Z</time></trkpt><trkpt lat="44.70247385314979" lon="8.535487824147571"><ele>127.0</ele><time>2026-04-27T10:48:31.999Z</time></trkpt><trkpt lat="44.70263086056204" lon="8.535516632953426"><ele>127.0</ele><time>2026-04-27T10:48:32.999Z</time></trkpt><trkpt lat="44.70278553821237" lon="8.535537315588"><ele>128.33333333333334</ele><time>2026-04-27T10:48:33.999Z</time></trkpt><trkpt lat="44.702944335299975" lon="8.535554188900386"><ele>129.66666666666666</ele><time>2026-04-27T10:48:34.999Z</time></trkpt><trkpt lat="44.70310504951539" lon="8.535569255736522"><ele>131.0</ele><time>2026-04-27T10:48:35.999Z</time></trkpt><trkpt lat="44.7032692580483" lon="8.535570564577679"><ele>131.0</ele><time>2026-04-27T10:48:36.999Z</time></trkpt><trkpt lat="44.70343073646865" lon="8.535552799762266"><ele>131.0</ele><time>2026-04-27T10:48:37.999Z</time></trkpt><trkpt lat="44.70358944115789" lon="8.535533269052014"><ele>131.0</ele><time>2026-04-27T10:48:38.999Z</time></trkpt><trkpt lat="44.703749047766685" lon="8.535511476077795"><ele>131.25</ele><time>2026-04-27T10:48:39.999Z</time></trkpt><trkpt lat="44.70389568805106" lon="8.535489909846927"><ele>131.5</ele><time>2026-04-27T10:48:40.999Z</time></trkpt><trkpt lat="44.704038746196126" lon="8.535452702136155"><ele>131.75</ele><time>2026-04-27T10:48:41.999Z</time></trkpt><trkpt lat="44.70418480527789" lon="8.535399901905318"><ele>132.0</ele><time>2026-04-27T10:48:42.999Z</time></trkpt><trkpt lat="44.704331961273944" lon="8.535344344046667"><ele>132.66666666666666</ele><time>2026-04-27T10:48:43.999Z</time></trkpt><trkpt lat="44.70448139478263" lon="8.535280908311954"><ele>133.33333333333331</ele><time>2026-04-27T10:48:44.999Z</time></trkpt><trkpt lat="44.7046337485206" lon="8.535204543393311"><ele>134.0</ele><time>2026-04-27T10:48:45.999Z</time></trkpt><trkpt lat="44.70479010377979" lon="8.535115910271468"><ele>134.0</ele><time>2026-04-27T10:48:46.999Z</time></trkpt><trkpt lat="44.70494374450823" lon="8.535022160846093"><ele>134.0</ele><time>2026-04-27T10:48:47.999Z</time></trkpt><trkpt lat="44.705091849188115" lon="8.534923498204074"><ele>134.0</ele><time>2026-04-27T10:48:48.999Z</time></trkpt><trkpt lat="44.705238774930585" lon="8.534820604508447"><ele>134.33333333333331</ele><time>2026-04-27T10:48:49.999Z</time></trkpt><trkpt lat="44.70538454528829" lon="8.534723444957761"><ele>134.66666666666666</ele><time>2026-04-27T10:48:50.999Z</time></trkpt><trkpt lat="44.70552728027269" lon="8.534629087584433"><ele>135.0</ele><time>2026-04-27T10:48:51.999Z</time></trkpt><trkpt lat="44.705669700007434" lon="8.534531963767696"><ele>135.0</ele><time>2026-04-27T10:48:52.999Z</time></trkpt><trkpt lat="44.70580819918265" lon="8.534435721137845"><ele>135.0</ele><time>2026-04-27T10:48:53.999Z</time></trkpt><trkpt lat="44.70594555843385" lon="8.534337322914919"><ele>135.0</ele><time>2026-04-27T10:48:54.999Z</time></trkpt><trkpt lat="44.70608091036931" lon="8.534241262041498"><ele>132.33333333333334</ele><time>2026-04-27T10:48:55.999Z</time></trkpt><trkpt lat="44.7062183821371" lon="8.534150969799349"><ele>129.66666666666669</ele><time>2026-04-27T10:48:56.999Z</time></trkpt><trkpt lat="44.70635300012461" lon="8.534062830598208"><ele>127.0</ele><time>2026-04-27T10:48:57.999Z</time></trkpt><trkpt lat="44.70648822360399" lon="8.533965329863802"><ele>127.0</ele><time>2026-04-27T10:48:59Z</time></trkpt><trkpt lat="44.70662918710465" lon="8.533860195925751"><ele>127.0</ele><time>2026-04-27T10:49:00Z</time></trkpt><trkpt lat="44.70677598739508" lon="8.53375506068172"><ele>127.0</ele><time>2026-04-27T10:49:01Z</time></trkpt><trkpt lat="44.706928488271366" lon="8.533655267335332"><ele>128.33333333333334</ele><time>2026-04-27T10:49:02Z</time></trkpt><trkpt lat="44.70708250526349" lon="8.533551919914448"><ele>129.66666666666666</ele><time>2026-04-27T10:49:03Z</time></trkpt><trkpt lat="44.70723170977104" lon="8.533459657843588"><ele>131.0</ele><time>2026-04-27T10:49:04Z</time></trkpt><trkpt lat="44.70736680041699" lon="8.533373037810293"><ele>131.0</ele><time>2026-04-27T10:49:05Z</time></trkpt><trkpt lat="44.70749757499438" lon="8.533290656644683"><ele>131.0</ele><time>2026-04-27T10:49:06Z</time></trkpt><trkpt lat="44.707642061540646" lon="8.533212852355952"><ele>131.0</ele><time>2026-04-27T10:49:07Z</time></trkpt><trkpt lat="44.707788691338386" lon="8.533142546467964"><ele>131.33333333333331</ele><time>2026-04-27T10:49:08Z</time></trkpt><trkpt lat="44.707934475804834" lon="8.533066019804943"><ele>131.66666666666666</ele><time>2026-04-27T10:49:09Z</time></trkpt><trkpt lat="44.70808976005594" lon="8.533000158461261"><ele>132.0</ele><time>2026-04-27T10:49:10Z</time></trkpt><trkpt lat="44.70825042438503" lon="8.532946905305751"><ele>132.0</ele><time>2026-04-27T10:49:11Z</time></trkpt><trkpt lat="44.708414896721905" lon="8.532904372764502"><ele>132.0</ele><time>2026-04-27T10:49:12Z</time></trkpt><trkpt lat="44.70858546131635" lon="8.532868432059137"><ele>132.0</ele><time>2026-04-27T10:49:13Z</time></trkpt><trkpt lat="44.70875548775903" lon="8.532840477146726"><ele>133.0</ele><time>2026-04-27T10:49:14Z</time></trkpt><trkpt lat="44.70892039498309" lon="8.53281732097407"><ele>134.0</ele><time>2026-04-27T10:49:15Z</time></trkpt><trkpt lat="44.70907966470569" lon="8.532792658062164"><ele>135.0</ele><time>2026-04-27T10:49:16Z</time></trkpt><trkpt lat="44.70923788062021" lon="8.532772036136674"><ele>135.0</ele><time>2026-04-27T10:49:17Z</time></trkpt><trkpt lat="44.70939667008668" lon="8.532746954774838"><ele>135.0</ele><time>2026-04-27T10:49:18Z</time></trkpt><trkpt lat="44.70955432828868" lon="8.532722055534968"><ele>135.0</ele><time>2026-04-27T10:49:19Z</time></trkpt><trkpt lat="44.70971208377524" lon="8.532697205949033"><ele>133.66666666666666</ele><time>2026-04-27T10:49:20Z</time></trkpt><trkpt lat="44.709870935651544" lon="8.532674456021148"><ele>132.33333333333331</ele><time>2026-04-27T10:49:21Z</time></trkpt><trkpt lat="44.71003043102369" lon="8.53265136211866"><ele>131.0</ele><time>2026-04-27T10:49:22Z</time></trkpt><trkpt lat="44.71018878135033" lon="8.5326286640321"><ele>131.0</ele><time>2026-04-27T10:49:23Z</time></trkpt><trkpt lat="44.710353265199274" lon="8.53260667292273"><ele>131.0</ele><time>2026-04-27T10:49:24Z</time></trkpt><trkpt lat="44.71051678421855" lon="8.532580402133144"><ele>131.0</ele><time>2026-04-27T10:49:25Z</time></trkpt><trkpt lat="44.710679405007234" lon="8.532555804796699"><ele>131.0</ele><time>2026-04-27T10:49:26Z</time></trkpt><trkpt lat="44.7108373109549" lon="8.532535229484719"><ele>131.0</ele><time>2026-04-27T10:49:27Z</time></trkpt><trkpt lat="44.71099285629833" lon="8.532510600603915"><ele>131.0</ele><time>2026-04-27T10:49:28Z</time></trkpt><trkpt lat="44.71114623947576" lon="8.532484583342127"><ele>130.33333333333331</ele><time>2026-04-27T10:49:29Z</time></trkpt><trkpt lat="44.7112992549196" lon="8.532461176162482"><ele>129.66666666666666</ele><time>2026-04-27T10:49:30Z</time></trkpt><trkpt lat="44.711454249705135" lon="8.532436013593285"><ele>129.0</ele><time>2026-04-27T10:49:31Z</time></trkpt><trkpt lat="44.71161496008931" lon="8.532413082657145"><ele>129.0</ele><time>2026-04-27T10:49:32Z</time></trkpt><trkpt lat="44.711776098467666" lon="8.532391471744537"><ele>129.0</ele><time>2026-04-27T10:49:33Z</time></trkpt><trkpt lat="44.711937607300094" lon="8.532364786732485"><ele>129.0</ele><time>2026-04-27T10:49:34Z</time></trkpt><trkpt lat="44.712106397611635" lon="8.532349721444437"><ele>129.5</ele><time>2026-04-27T10:49:35Z</time></trkpt><trkpt lat="44.712251704941075" lon="8.532318975460356"><ele>130.0</ele><time>2026-04-27T10:49:36Z</time></trkpt><trkpt lat="44.71239929606795" lon="8.53228979812589"><ele>130.5</ele><time>2026-04-27T10:49:37Z</time></trkpt><trkpt lat="44.71255051487735" lon="8.53225322646546"><ele>131.0</ele><time>2026-04-27T10:49:38Z</time></trkpt><trkpt lat="44.712700524985756" lon="8.532217682230025"><ele>130.33333333333331</ele><time>2026-04-27T10:49:39Z</time></trkpt><trkpt lat="44.7128497284451" lon="8.532167885580789"><ele>129.66666666666666</ele><time>2026-04-27T10:49:40Z</time></trkpt><trkpt lat="44.713001144039765" lon="8.532113939969106"><ele>129.0</ele><time>2026-04-27T10:49:41Z</time></trkpt><trkpt lat="44.71315095327896" lon="8.532062615197926"><ele>128.66666666666666</ele><time>2026-04-27T10:49:42Z</time></trkpt><trkpt lat="44.71330005472737" lon="8.5320142128489"><ele>128.33333333333331</ele><time>2026-04-27T10:49:43Z</time></trkpt><trkpt lat="44.71344963832838" lon="8.531952757652698"><ele>128.0</ele><time>2026-04-27T10:49:44Z</time></trkpt><trkpt lat="44.713604425911214" lon="8.531883326451664"><ele>128.0</ele><time>2026-04-27T10:49:45Z</time></trkpt><trkpt lat="44.71375468439001" lon="8.531816435823995"><ele>128.0</ele><time>2026-04-27T10:49:46Z</time></trkpt><trkpt lat="44.713899769111855" lon="8.531752350698568"><ele>128.0</ele><time>2026-04-27T10:49:47Z</time></trkpt><trkpt lat="44.71404078816967" lon="8.531690528283997"><ele>128.0</ele><time>2026-04-27T10:49:48Z</time></trkpt><trkpt lat="44.71418484169154" lon="8.53162597371991"><ele>128.0</ele><time>2026-04-27T10:49:49Z</time></trkpt><trkpt lat="44.71432732521938" lon="8.531565925207058"><ele>128.0</ele><time>2026-04-27T10:49:50Z</time></trkpt><trkpt lat="44.714471996958885" lon="8.531510004985709"><ele>128.33333333333331</ele><time>2026-04-27T10:49:51Z</time></trkpt><trkpt lat="44.71461984933566" lon="8.531448109024959"><ele>128.66666666666666</ele><time>2026-04-27T10:49:52Z</time></trkpt><trkpt lat="44.7147696960775" lon="8.531379940065483"><ele>129.0</ele><time>2026-04-27T10:49:53Z</time></trkpt><trkpt lat="44.714914701589464" lon="8.531314510705265"><ele>129.0</ele><time>2026-04-27T10:49:54Z</time></trkpt><trkpt lat="44.715063231852966" lon="8.531254239494451"><ele>129.0</ele><time>2026-04-27T10:49:55Z</time></trkpt><trkpt lat="44.7152134271677" lon="8.531190630136608"><ele>129.0</ele><time>2026-04-27T10:49:56Z</time></trkpt><trkpt lat="44.71536574115804" lon="8.531120134302647"><ele>129.25</ele><time>2026-04-27T10:49:57Z</time></trkpt><trkpt lat="44.715514742950795" lon="8.531054913499087"><ele>129.5</ele><time>2026-04-27T10:49:58Z</time></trkpt><trkpt lat="44.7156512750599" lon="8.530988868588658"><ele>129.75</ele><time>2026-04-27T10:49:59Z</time></trkpt><trkpt lat="44.715777704538596" lon="8.530929666210497"><ele>130.0</ele><time>2026-04-27T10:50:00Z</time></trkpt><trkpt lat="44.71589101443247" lon="8.530886214204898"><ele>130.0</ele><time>2026-04-27T10:50:01Z</time></trkpt><trkpt lat="44.715993132447466" lon="8.53087792671528"><ele>130.0</ele><time>2026-04-27T10:50:02Z</time></trkpt><trkpt lat="44.716085204272254" lon="8.530934252719023"><ele>130.0</ele><time>2026-04-27T10:50:03Z</time></trkpt><trkpt lat="44.716176573199576" lon="8.531011223871271"><ele>130.0</ele><time>2026-04-27T10:50:04Z</time></trkpt><trkpt lat="44.71627960033408" lon="8.53104963525551"><ele>130.0</ele><time>2026-04-27T10:50:05Z</time></trkpt><trkpt lat="44.71637654691924" lon="8.53101759744121"><ele>130.0</ele><time>2026-04-27T10:50:06Z</time></trkpt><trkpt lat="44.71644252525032" lon="8.530937813885672"><ele>130.0</ele><time>2026-04-27T10:50:07Z</time></trkpt><trkpt lat="44.71650977305621" lon="8.530827128968808"><ele>130.0</ele><time>2026-04-27T10:50:08Z</time></trkpt><trkpt lat="44.71660383437914" lon="8.53070607777418"><ele>130.0</ele><time>2026-04-27T10:50:09Z</time></trkpt><trkpt lat="44.7167251174736" lon="8.530621883806601"><ele>130.0</ele><time>2026-04-27T10:50:10Z</time></trkpt><trkpt lat="44.71687331502467" lon="8.530617714362805"><ele>130.0</ele><time>2026-04-27T10:50:11Z</time></trkpt><trkpt lat="44.71704149633111" lon="8.530596918608428"><ele>130.0</ele><time>2026-04-27T10:50:12Z</time></trkpt><trkpt lat="44.71720627624098" lon="8.530583363328581"><ele>130.0</ele><time>2026-04-27T10:50:13Z</time></trkpt><trkpt lat="44.71735391444698" lon="8.530563173384753"><ele>130.0</ele><time>2026-04-27T10:50:14Z</time></trkpt><trkpt lat="44.71750280511658" lon="8.53054215488547"><ele>130.0</ele><time>2026-04-27T10:50:15Z</time></trkpt><trkpt lat="44.717653308949714" lon="8.530518745082382"><ele>130.0</ele><time>2026-04-27T10:50:16Z</time></trkpt><trkpt lat="44.71781085225234" lon="8.530490991753842"><ele>129.33333333333334</ele><time>2026-04-27T10:50:17Z</time></trkpt><trkpt lat="44.71796784714482" lon="8.53046117690513"><ele>128.66666666666666</ele><time>2026-04-27T10:50:18Z</time></trkpt><trkpt lat="44.71811929060232" lon="8.530437030901785"><ele>128.0</ele><time>2026-04-27T10:50:19Z</time></trkpt><trkpt lat="44.718263798320386" lon="8.530414388862127"><ele>128.0</ele><time>2026-04-27T10:50:20Z</time></trkpt><trkpt lat="44.71841363642836" lon="8.530391634456599"><ele>128.0</ele><time>2026-04-27T10:50:21Z</time></trkpt><trkpt lat="44.718565463881156" lon="8.53036131822028"><ele>128.0</ele><time>2026-04-27T10:50:22Z</time></trkpt><trkpt lat="44.71872429040092" lon="8.530329077498507"><ele>128.0</ele><time>2026-04-27T10:50:23Z</time></trkpt><trkpt lat="44.71888307821678" lon="8.530287052935256"><ele>128.0</ele><time>2026-04-27T10:50:24Z</time></trkpt><trkpt lat="44.71903600697969" lon="8.530230290063802"><ele>128.0</ele><time>2026-04-27T10:50:25Z</time></trkpt><trkpt lat="44.719182579181606" lon="8.530154429429258"><ele>128.0</ele><time>2026-04-27T10:50:26Z</time></trkpt><trkpt lat="44.719332074351016" lon="8.530066926580943"><ele>128.0</ele><time>2026-04-27T10:50:27Z</time></trkpt><trkpt lat="44.719486092634206" lon="8.529985902513717"><ele>128.0</ele><time>2026-04-27T10:50:28Z</time></trkpt><trkpt lat="44.719639121549214" lon="8.529904518388134"><ele>128.0</ele><time>2026-04-27T10:50:29Z</time></trkpt><trkpt lat="44.71979404532927" lon="8.52982570834241"><ele>128.0</ele><time>2026-04-27T10:50:30Z</time></trkpt><trkpt lat="44.71994344603383" lon="8.529750041374722"><ele>128.0</ele><time>2026-04-27T10:50:31Z</time></trkpt><trkpt lat="44.72009339387831" lon="8.529675967168224"><ele>128.33333333333331</ele><time>2026-04-27T10:50:32Z</time></trkpt><trkpt lat="44.72024972927489" lon="8.529596366531766"><ele>128.66666666666666</ele><time>2026-04-27T10:50:33Z</time></trkpt><trkpt lat="44.720411258629575" lon="8.529511288342805"><ele>129.0</ele><time>2026-04-27T10:50:34Z</time></trkpt><trkpt lat="44.72057214600203" lon="8.529422690289039"><ele>128.33333333333334</ele><time>2026-04-27T10:50:35Z</time></trkpt><trkpt lat="44.720726588692195" lon="8.529338815019926"><ele>127.66666666666667</ele><time>2026-04-27T10:50:36Z</time></trkpt><trkpt lat="44.720878149633336" lon="8.529263128248761"><ele>127.0</ele><time>2026-04-27T10:50:37Z</time></trkpt><trkpt lat="44.72102855143757" lon="8.529191063364294"><ele>126.33333333333334</ele><time>2026-04-27T10:50:38Z</time></trkpt><trkpt lat="44.72118675239042" lon="8.529113422056502"><ele>125.66666666666666</ele><time>2026-04-27T10:50:39Z</time></trkpt><trkpt lat="44.72134617692243" lon="8.529031535800582"><ele>125.0</ele><time>2026-04-27T10:50:40Z</time></trkpt><trkpt lat="44.72149855865152" lon="8.528954813759878"><ele>125.0</ele><time>2026-04-27T10:50:41Z</time></trkpt><trkpt lat="44.72165161234657" lon="8.528873965282422"><ele>125.0</ele><time>2026-04-27T10:50:42Z</time></trkpt><trkpt lat="44.72180127534823" lon="8.528792878912396"><ele>125.0</ele><time>2026-04-27T10:50:43Z</time></trkpt><trkpt lat="44.721953207025045" lon="8.528714046676"><ele>126.0</ele><time>2026-04-27T10:50:44Z</time></trkpt><trkpt lat="44.72210803131457" lon="8.528637392092493"><ele>127.0</ele><time>2026-04-27T10:50:45Z</time></trkpt><trkpt lat="44.72226606191514" lon="8.528555405932575"><ele>128.0</ele><time>2026-04-27T10:50:46Z</time></trkpt><trkpt lat="44.72242080105822" lon="8.528474605123353"><ele>128.0</ele><time>2026-04-27T10:50:47Z</time></trkpt><trkpt lat="44.722577544262734" lon="8.528393013149344"><ele>128.0</ele><time>2026-04-27T10:50:48Z</time></trkpt><trkpt lat="44.72273001665222" lon="8.52831495830306"><ele>128.0</ele><time>2026-04-27T10:50:49Z</time></trkpt><trkpt lat="44.72288260624957" lon="8.528234615858986"><ele>127.66666666666666</ele><time>2026-04-27T10:50:50Z</time></trkpt><trkpt lat="44.7230342782023" lon="8.52815488053944"><ele>127.33333333333334</ele><time>2026-04-27T10:50:51Z</time></trkpt><trkpt lat="44.723180952125674" lon="8.528084651449827"><ele>127.0</ele><time>2026-04-27T10:50:52Z</time></trkpt><trkpt lat="44.723331753940386" lon="8.528002771694537"><ele>127.0</ele><time>2026-04-27T10:50:53Z</time></trkpt><trkpt lat="44.723483917240266" lon="8.527925481840537"><ele>127.0</ele><time>2026-04-27T10:50:54Z</time></trkpt><trkpt lat="44.723636119969825" lon="8.52784678850698"><ele>127.0</ele><time>2026-04-27T10:50:55Z</time></trkpt><trkpt lat="44.72379016788014" lon="8.527767443418375"><ele>126.33333333333334</ele><time>2026-04-27T10:50:56Z</time></trkpt><trkpt lat="44.72394831679669" lon="8.52768878667736"><ele>125.66666666666666</ele><time>2026-04-27T10:50:57Z</time></trkpt><trkpt lat="44.724099589354594" lon="8.527610151406597"><ele>125.0</ele><time>2026-04-27T10:50:58Z</time></trkpt><trkpt lat="44.724245499591916" lon="8.52753576592313"><ele>125.0</ele><time>2026-04-27T10:50:59Z</time></trkpt><trkpt lat="44.72438879930961" lon="8.527457413318587"><ele>125.0</ele><time>2026-04-27T10:51:00Z</time></trkpt><trkpt lat="44.72453339525186" lon="8.527382093785613"><ele>125.0</ele><time>2026-04-27T10:51:01Z</time></trkpt><trkpt lat="44.724676655961616" lon="8.527306538294383"><ele>125.0</ele><time>2026-04-27T10:51:02Z</time></trkpt><trkpt lat="44.72482900609393" lon="8.527230955170454"><ele>125.0</ele><time>2026-04-27T10:51:03Z</time></trkpt><trkpt lat="44.72498178549608" lon="8.527153028825127"><ele>125.0</ele><time>2026-04-27T10:51:04Z</time></trkpt><trkpt lat="44.72513168616748" lon="8.527073540140185"><ele>125.33333333333333</ele><time>2026-04-27T10:51:05Z</time></trkpt><trkpt lat="44.72528145673822" lon="8.526991678543123"><ele>125.66666666666666</ele><time>2026-04-27T10:51:06Z</time></trkpt><trkpt lat="44.72543301387716" lon="8.526904070703894"><ele>126.0</ele><time>2026-04-27T10:51:07Z</time></trkpt><trkpt lat="44.72557491436709" lon="8.526808022278178"><ele>126.0</ele><time>2026-04-27T10:51:08Z</time></trkpt><trkpt lat="44.72571516168968" lon="8.526699173861322"><ele>126.0</ele><time>2026-04-27T10:51:09Z</time></trkpt><trkpt lat="44.725854509919046" lon="8.526578912256548"><ele>126.0</ele><time>2026-04-27T10:51:10Z</time></trkpt><trkpt lat="44.72599847098172" lon="8.526456934708522"><ele>126.66666666666666</ele><time>2026-04-27T10:51:11Z</time></trkpt><trkpt lat="44.72615157715419" lon="8.526337043782288"><ele>127.33333333333333</ele><time>2026-04-27T10:51:12Z</time></trkpt><trkpt lat="44.72630848709373" lon="8.526206904166932"><ele>128.0</ele><time>2026-04-27T10:51:13Z</time></trkpt><trkpt lat="44.72647131095445" lon="8.526070747423335"><ele>128.0</ele><time>2026-04-27T10:51:14Z</time></trkpt><trkpt lat="44.72664360801482" lon="8.525934289695668"><ele>128.0</ele><time>2026-04-27T10:51:15Z</time></trkpt><trkpt lat="44.72682250224829" lon="8.5257885923463"><ele>128.0</ele><time>2026-04-27T10:51:16Z</time></trkpt><trkpt lat="44.72700693361743" lon="8.525636563467332"><ele>127.0</ele><time>2026-04-27T10:51:17Z</time></trkpt><trkpt lat="44.72719118461971" lon="8.525474293468454"><ele>126.0</ele><time>2026-04-27T10:51:18Z</time></trkpt><trkpt lat="44.72737813559484" lon="8.525312312720718"><ele>125.0</ele><time>2026-04-27T10:51:19Z</time></trkpt><trkpt lat="44.72757080104327" lon="8.525147711522521"><ele>123.66666666666666</ele><time>2026-04-27T10:51:20Z</time></trkpt><trkpt lat="44.72775633218185" lon="8.524986073236862"><ele>122.33333333333334</ele><time>2026-04-27T10:51:21Z</time></trkpt><trkpt lat="44.72794404899554" lon="8.524821949320739"><ele>121.0</ele><time>2026-04-27T10:51:22Z</time></trkpt><trkpt lat="44.72813289894617" lon="8.52465653815498"><ele>121.0</ele><time>2026-04-27T10:51:23Z</time></trkpt><trkpt lat="44.72832206685356" lon="8.524489098532335"><ele>121.0</ele><time>2026-04-27T10:51:24Z</time></trkpt><trkpt lat="44.728514845673864" lon="8.524319960421948"><ele>120.5</ele><time>2026-04-27T10:51:25Z</time></trkpt><trkpt lat="44.72871041363382" lon="8.524150952133393"><ele>120.0</ele><time>2026-04-27T10:51:26Z</time></trkpt><trkpt lat="44.7289037660538" lon="8.523983053196623"><ele>120.0</ele><time>2026-04-27T10:51:27Z</time></trkpt><trkpt lat="44.7291002493605" lon="8.523824747813203"><ele>120.0</ele><time>2026-04-27T10:51:28Z</time></trkpt><trkpt lat="44.72929381841546" lon="8.523661707798603"><ele>120.66666666666666</ele><time>2026-04-27T10:51:29Z</time></trkpt><trkpt lat="44.72948577896474" lon="8.523498018091985"><ele>121.33333333333333</ele><time>2026-04-27T10:51:30Z</time></trkpt><trkpt lat="44.72967461078239" lon="8.52333154457825"><ele>122.0</ele><time>2026-04-27T10:51:31Z</time></trkpt><trkpt lat="44.72986468797733" lon="8.523162885244078"><ele>122.0</ele><time>2026-04-27T10:51:32Z</time></trkpt><trkpt lat="44.73005423865056" lon="8.523001830935808"><ele>122.0</ele><time>2026-04-27T10:51:33Z</time></trkpt><trkpt lat="44.73023827466726" lon="8.522843167377893"><ele>122.0</ele><time>2026-04-27T10:51:34Z</time></trkpt><trkpt lat="44.730424826231726" lon="8.522682890266148"><ele>122.0</ele><time>2026-04-27T10:51:35Z</time></trkpt><trkpt lat="44.730608441118775" lon="8.52252262572729"><ele>122.0</ele><time>2026-04-27T10:51:36Z</time></trkpt><trkpt lat="44.73079127005398" lon="8.522362606596717"><ele>122.0</ele><time>2026-04-27T10:51:37Z</time></trkpt><trkpt lat="44.73097238833421" lon="8.522203932123679"><ele>122.33333333333333</ele><time>2026-04-27T10:51:38Z</time></trkpt><trkpt lat="44.73114976840666" lon="8.522048509233278"><ele>122.66666666666666</ele><time>2026-04-27T10:51:39Z</time></trkpt><trkpt lat="44.73132659593565" lon="8.521891840285864"><ele>123.0</ele><time>2026-04-27T10:51:40Z</time></trkpt><trkpt lat="44.731503713813645" lon="8.521733236298735"><ele>123.0</ele><time>2026-04-27T10:51:41Z</time></trkpt><trkpt lat="44.731682062053" lon="8.521579049201193"><ele>123.0</ele><time>2026-04-27T10:51:42Z</time></trkpt><trkpt lat="44.73185475431268" lon="8.52142597570513"><ele>123.0</ele><time>2026-04-27T10:51:43Z</time></trkpt><trkpt lat="44.73202885513908" lon="8.52127290663709"><ele>123.0</ele><time>2026-04-27T10:51:44Z</time></trkpt><trkpt lat="44.73220215116816" lon="8.521120508670329"><ele>123.0</ele><time>2026-04-27T10:51:45Z</time></trkpt><trkpt lat="44.732378601762996" lon="8.52096377622697"><ele>123.0</ele><time>2026-04-27T10:51:46Z</time></trkpt><trkpt lat="44.732553344051865" lon="8.520807900384883"><ele>123.33333333333334</ele><time>2026-04-27T10:51:47Z</time></trkpt><trkpt lat="44.732729352684046" lon="8.520656318063995"><ele>123.66666666666667</ele><time>2026-04-27T10:51:48Z</time></trkpt><trkpt lat="44.732903655751855" lon="8.520501871312735"><ele>124.0</ele><time>2026-04-27T10:51:49Z</time></trkpt><trkpt lat="44.73307821386644" lon="8.520352294579826"><ele>124.0</ele><time>2026-04-27T10:51:50Z</time></trkpt><trkpt lat="44.73325172128883" lon="8.52020415819304"><ele>124.0</ele><time>2026-04-27T10:51:51Z</time></trkpt><trkpt lat="44.73342273526346" lon="8.520051211673678"><ele>124.0</ele><time>2026-04-27T10:51:52Z</time></trkpt><trkpt lat="44.733593038819556" lon="8.519900267940875"><ele>124.0</ele><time>2026-04-27T10:51:53Z</time></trkpt><trkpt lat="44.73376478894159" lon="8.519754376844219"><ele>124.0</ele><time>2026-04-27T10:51:54Z</time></trkpt><trkpt lat="44.7339383699863" lon="8.519609103518649"><ele>124.0</ele><time>2026-04-27T10:51:55Z</time></trkpt><trkpt lat="44.7341033653849" lon="8.519457148841653"><ele>124.0</ele><time>2026-04-27T10:51:56Z</time></trkpt><trkpt lat="44.7342650931673" lon="8.51930843860658"><ele>124.0</ele><time>2026-04-27T10:51:57Z</time></trkpt><trkpt lat="44.73443390722964" lon="8.519164090422121"><ele>124.0</ele><time>2026-04-27T10:51:58Z</time></trkpt><trkpt lat="44.73460620574659" lon="8.519023300045513"><ele>124.0</ele><time>2026-04-27T10:51:59Z</time></trkpt><trkpt lat="44.734774610686614" lon="8.518891229806124"><ele>124.0</ele><time>2026-04-27T10:52:00Z</time></trkpt><trkpt lat="44.73494934029286" lon="8.518765630826348"><ele>124.0</ele><time>2026-04-27T10:52:01Z</time></trkpt><trkpt lat="44.73513163593494" lon="8.518658146153587"><ele>123.66666666666667</ele><time>2026-04-27T10:52:02Z</time></trkpt><trkpt lat="44.73532373184017" lon="8.518563033729139"><ele>123.33333333333334</ele><time>2026-04-27T10:52:03Z</time></trkpt><trkpt lat="44.73551959983777" lon="8.51846887667147"><ele>123.0</ele><time>2026-04-27T10:52:04Z</time></trkpt><trkpt lat="44.73572073034597" lon="8.51838723427444"><ele>123.0</ele><time>2026-04-27T10:52:05Z</time></trkpt><trkpt lat="44.73592670322276" lon="8.518321068918112"><ele>123.0</ele><time>2026-04-27T10:52:06Z</time></trkpt><trkpt lat="44.736137085134025" lon="8.518264568271007"><ele>123.0</ele><time>2026-04-27T10:52:07Z</time></trkpt><trkpt lat="44.73634688296873" lon="8.518228322022964"><ele>123.0</ele><time>2026-04-27T10:52:08Z</time></trkpt><trkpt lat="44.736550701703685" lon="8.518192328879941"><ele>123.0</ele><time>2026-04-27T10:52:09Z</time></trkpt><trkpt lat="44.73676691794638" lon="8.518215667991603"><ele>123.0</ele><time>2026-04-27T10:52:10Z</time></trkpt><trkpt lat="44.736994535911236" lon="8.518231063818039"><ele>125.0</ele><time>2026-04-27T10:52:11Z</time></trkpt><trkpt lat="44.7372125056232" lon="8.518259607294846"><ele>127.0</ele><time>2026-04-27T10:52:12Z</time></trkpt><trkpt lat="44.73743216066169" lon="8.51830198411456"><ele>129.0</ele><time>2026-04-27T10:52:13Z</time></trkpt><trkpt lat="44.737649920391085" lon="8.51835681106419"><ele>128.33333333333334</ele><time>2026-04-27T10:52:14Z</time></trkpt><trkpt lat="44.73786204509463" lon="8.518425517553464"><ele>127.66666666666667</ele><time>2026-04-27T10:52:15Z</time></trkpt><trkpt lat="44.7380667640292" lon="8.51850984281378"><ele>127.0</ele><time>2026-04-27T10:52:16Z</time></trkpt><trkpt lat="44.73827109152211" lon="8.518598383306689"><ele>127.0</ele><time>2026-04-27T10:52:17Z</time></trkpt><trkpt lat="44.73848040905572" lon="8.518694052952442"><ele>127.0</ele><time>2026-04-27T10:52:18Z</time></trkpt><trkpt lat="44.73868925520022" lon="8.518792633359581"><ele>127.0</ele><time>2026-04-27T10:52:19Z</time></trkpt><trkpt lat="44.73889922613752" lon="8.518891095797786"><ele>127.0</ele><time>2026-04-27T10:52:20Z</time></trkpt><trkpt lat="44.73910444086299" lon="8.518988383087695"><ele>127.0</ele><time>2026-04-27T10:52:21Z</time></trkpt><trkpt lat="44.73930859716013" lon="8.519082848218813"><ele>127.0</ele><time>2026-04-27T10:52:22Z</time></trkpt><trkpt lat="44.739509360395964" lon="8.51917701036407"><ele>127.0</ele><time>2026-04-27T10:52:23Z</time></trkpt><trkpt lat="44.73971112327739" lon="8.519272474645176"><ele>127.0</ele><time>2026-04-27T10:52:24Z</time></trkpt><trkpt lat="44.73991273153336" lon="8.519368974764392"><ele>127.0</ele><time>2026-04-27T10:52:25Z</time></trkpt><trkpt lat="44.74011401224609" lon="8.519467340132978"><ele>128.0</ele><time>2026-04-27T10:52:26Z</time></trkpt><trkpt lat="44.740314169729494" lon="8.519566247376748"><ele>129.0</ele><time>2026-04-27T10:52:27Z</time></trkpt><trkpt lat="44.7405181372457" lon="8.519665435351616"><ele>130.0</ele><time>2026-04-27T10:52:28Z</time></trkpt><trkpt lat="44.74071613250888" lon="8.51975875368522"><ele>128.66666666666669</ele><time>2026-04-27T10:52:29Z</time></trkpt><trkpt lat="44.74091369875667" lon="8.519854198580349"><ele>127.33333333333334</ele><time>2026-04-27T10:52:30Z</time></trkpt><trkpt lat="44.74111096856464" lon="8.519951725362214"><ele>126.0</ele><time>2026-04-27T10:52:31Z</time></trkpt><trkpt lat="44.74130673976279" lon="8.520048548405882"><ele>126.0</ele><time>2026-04-27T10:52:32Z</time></trkpt><trkpt lat="44.7415025670905" lon="8.52014401209927"><ele>126.0</ele><time>2026-04-27T10:52:33Z</time></trkpt><trkpt lat="44.741701540333054" lon="8.520236934348366"><ele>126.0</ele><time>2026-04-27T10:52:34Z</time></trkpt><trkpt lat="44.741899707899925" lon="8.520333119768331"><ele>125.33333333333334</ele><time>2026-04-27T10:52:35Z</time></trkpt><trkpt lat="44.74209225167523" lon="8.520425862003917"><ele>124.66666666666667</ele><time>2026-04-27T10:52:36Z</time></trkpt><trkpt lat="44.742287334932136" lon="8.520519876211434"><ele>124.0</ele><time>2026-04-27T10:52:37Z</time></trkpt><trkpt lat="44.74248423352443" lon="8.520619327921628"><ele>124.0</ele><time>2026-04-27T10:52:38Z</time></trkpt><trkpt lat="44.742676422538906" lon="8.520715856225216"><ele>124.0</ele><time>2026-04-27T10:52:39Z</time></trkpt><trkpt lat="44.74286973791125" lon="8.520808853526832"><ele>124.0</ele><time>2026-04-27T10:52:40Z</time></trkpt><trkpt lat="44.74306256842128" lon="8.520899743790519"><ele>124.66666666666667</ele><time>2026-04-27T10:52:41Z</time></trkpt><trkpt lat="44.743253423869575" lon="8.520989695022443"><ele>125.33333333333334</ele><time>2026-04-27T10:52:42Z</time></trkpt><trkpt lat="44.74344566346731" lon="8.52108258354278"><ele>126.0</ele><time>2026-04-27T10:52:43Z</time></trkpt><trkpt lat="44.743636540450964" lon="8.521177388934856"><ele>124.66666666666666</ele><time>2026-04-27T10:52:44Z</time></trkpt><trkpt lat="44.74383231430426" lon="8.521270575895263"><ele>123.33333333333333</ele><time>2026-04-27T10:52:45Z</time></trkpt><trkpt lat="44.74403124086037" lon="8.521365196420724"><ele>122.0</ele><time>2026-04-27T10:52:46Z</time></trkpt><trkpt lat="44.744225216970776" lon="8.521463875948987"><ele>124.33333333333333</ele><time>2026-04-27T10:52:47Z</time></trkpt><trkpt lat="44.744423417285745" lon="8.52157526548343"><ele>126.66666666666666</ele><time>2026-04-27T10:52:48Z</time></trkpt><trkpt lat="44.74462041663696" lon="8.521701989274264"><ele>129.0</ele><time>2026-04-27T10:52:49Z</time></trkpt><trkpt lat="44.744808259220754" lon="8.521854203262393"><ele>129.0</ele><time>2026-04-27T10:52:50Z</time></trkpt><trkpt lat="44.74498126692503" lon="8.522026690638482"><ele>129.0</ele><time>2026-04-27T10:52:51Z</time></trkpt><trkpt lat="44.74515521381244" lon="8.522218741149143"><ele>129.0</ele><time>2026-04-27T10:52:52Z</time></trkpt><trkpt lat="44.7453188660639" lon="8.522430235898481"><ele>128.5</ele><time>2026-04-27T10:52:53Z</time></trkpt><trkpt lat="44.74547147468748" lon="8.522662221010258"><ele>128.0</ele><time>2026-04-27T10:52:54Z</time></trkpt><trkpt lat="44.74562108529357" lon="8.522907605273382"><ele>128.0</ele><time>2026-04-27T10:52:55Z</time></trkpt><trkpt lat="44.74576742106707" lon="8.523163938261048"><ele>128.0</ele><time>2026-04-27T10:52:56Z</time></trkpt><trkpt lat="44.74590287461919" lon="8.523430237234413"><ele>128.0</ele><time>2026-04-27T10:52:57Z</time></trkpt><trkpt lat="44.74602546552789" lon="8.523701831643656"><ele>128.0</ele><time>2026-04-27T10:52:58Z</time></trkpt><trkpt lat="44.74613696824586" lon="8.523972653300726"><ele>131.0</ele><time>2026-04-27T10:52:59Z</time></trkpt><trkpt lat="44.746237106285896" lon="8.524243499037043"><ele>134.0</ele><time>2026-04-27T10:53:00Z</time></trkpt><trkpt lat="44.746327792690685" lon="8.52451643337293"><ele>137.0</ele><time>2026-04-27T10:53:01Z</time></trkpt><trkpt lat="44.74640875718454" lon="8.524791525107567"><ele>137.0</ele><time>2026-04-27T10:53:02Z</time></trkpt><trkpt lat="44.7464879265825" lon="8.525076535196085"><ele>137.0</ele><time>2026-04-27T10:53:03Z</time></trkpt><trkpt lat="44.74655452523714" lon="8.525366054874729"><ele>137.0</ele><time>2026-04-27T10:53:04Z</time></trkpt><trkpt lat="44.74660966898153" lon="8.525659625429437"><ele>134.0</ele><time>2026-04-27T10:53:05Z</time></trkpt><trkpt lat="44.74666125549677" lon="8.525953055215906"><ele>131.0</ele><time>2026-04-27T10:53:06Z</time></trkpt><trkpt lat="44.74671849492785" lon="8.526244143191803"><ele>128.0</ele><time>2026-04-27T10:53:07Z</time></trkpt><trkpt lat="44.746777634146035" lon="8.526530753247409"><ele>127.0</ele><time>2026-04-27T10:53:08Z</time></trkpt><trkpt lat="44.74683622304388" lon="8.526821792454024"><ele>126.0</ele><time>2026-04-27T10:53:09Z</time></trkpt><trkpt lat="44.746891930589314" lon="8.527107542002936"><ele>125.0</ele><time>2026-04-27T10:53:10Z</time></trkpt><trkpt lat="44.74694816883963" lon="8.52739047567571"><ele>130.66666666666666</ele><time>2026-04-27T10:53:11Z</time></trkpt><trkpt lat="44.747000972296036" lon="8.527660895356352"><ele>136.33333333333334</ele><time>2026-04-27T10:53:12Z</time></trkpt><trkpt lat="44.747049485603675" lon="8.527925259588763"><ele>142.0</ele><time>2026-04-27T10:53:13Z</time></trkpt><trkpt lat="44.7471003212115" lon="8.528186448696637"><ele>142.0</ele><time>2026-04-27T10:53:14Z</time></trkpt><trkpt lat="44.74715551436782" lon="8.528444482004446"><ele>142.0</ele><time>2026-04-27T10:53:15Z</time></trkpt><trkpt lat="44.74720502115867" lon="8.528684271696397"><ele>142.0</ele><time>2026-04-27T10:53:16Z</time></trkpt><trkpt lat="44.74725830009024" lon="8.528924545994599"><ele>140.0</ele><time>2026-04-27T10:53:17Z</time></trkpt><trkpt lat="44.74732361946336" lon="8.529164780342176"><ele>138.0</ele><time>2026-04-27T10:53:18Z</time></trkpt><trkpt lat="44.74741180523608" lon="8.529393009620721"><ele>136.0</ele><time>2026-04-27T10:53:19Z</time></trkpt><trkpt lat="44.74752923076836" lon="8.529604800921177"><ele>135.66666666666669</ele><time>2026-04-27T10:53:20Z</time></trkpt><trkpt lat="44.747664038078256" lon="8.529810221072117"><ele>135.33333333333334</ele><time>2026-04-27T10:53:21Z</time></trkpt><trkpt lat="44.7478088340762" lon="8.529998182724025"><ele>135.0</ele><time>2026-04-27T10:53:22Z</time></trkpt><trkpt lat="44.74794750261939" lon="8.530183936184768"><ele>135.0</ele><time>2026-04-27T10:53:23Z</time></trkpt><trkpt lat="44.74808078895014" lon="8.530364816125271"><ele>135.0</ele><time>2026-04-27T10:53:24Z</time></trkpt><trkpt lat="44.74820725398014" lon="8.530484613437865"><ele>135.0</ele><time>2026-04-27T10:53:25Z</time></trkpt><trkpt lat="44.748379457327275" lon="8.530535428999018"><ele>135.0</ele><time>2026-04-27T10:53:26Z</time></trkpt><trkpt lat="44.74853747582183" lon="8.530531192546379"><ele>135.0</ele><time>2026-04-27T10:53:27Z</time></trkpt><trkpt lat="44.748687177994604" lon="8.530460749931585"><ele>135.0</ele><time>2026-04-27T10:53:28Z</time></trkpt><trkpt lat="44.74881433523428" lon="8.530348531114576"><ele>134.66666666666666</ele><time>2026-04-27T10:53:29Z</time></trkpt><trkpt lat="44.748936814521585" lon="8.530230039197193"><ele>134.33333333333331</ele><time>2026-04-27T10:53:30Z</time></trkpt><trkpt lat="44.749078125901065" lon="8.530095365113008"><ele>134.0</ele><time>2026-04-27T10:53:31Z</time></trkpt><trkpt lat="44.749236813246085" lon="8.529989700135369"><ele>133.66666666666666</ele><time>2026-04-27T10:53:32Z</time></trkpt><trkpt lat="44.749411031954104" lon="8.52990068185463"><ele>133.33333333333334</ele><time>2026-04-27T10:53:33Z</time></trkpt><trkpt lat="44.7495915795466" lon="8.529829195821625"><ele>133.0</ele><time>2026-04-27T10:53:34Z</time></trkpt><trkpt lat="44.74977305848094" lon="8.529774781780171"><ele>133.0</ele><time>2026-04-27T10:53:35Z</time></trkpt><trkpt lat="44.7499493447131" lon="8.529725015984845"><ele>133.0</ele><time>2026-04-27T10:53:36Z</time></trkpt><trkpt lat="44.7501089201339" lon="8.529674056593915"><ele>133.0</ele><time>2026-04-27T10:53:37Z</time></trkpt><trkpt lat="44.750252991162384" lon="8.529629519701201"><ele>133.75</ele><time>2026-04-27T10:53:38Z</time></trkpt><trkpt lat="44.75040402282181" lon="8.529578439414207"><ele>134.5</ele><time>2026-04-27T10:53:39Z</time></trkpt><trkpt lat="44.75054303135637" lon="8.529524462212256"><ele>135.25</ele><time>2026-04-27T10:53:40Z</time></trkpt><trkpt lat="44.75067693263472" lon="8.529471302919012"><ele>136.0</ele><time>2026-04-27T10:53:41Z</time></trkpt><trkpt lat="44.750803882243076" lon="8.529420621700693"><ele>136.0</ele><time>2026-04-27T10:53:42Z</time></trkpt><trkpt lat="44.75093917326876" lon="8.529370402896435"><ele>136.0</ele><time>2026-04-27T10:53:43Z</time></trkpt><trkpt lat="44.751062847570815" lon="8.529323810456813"><ele>136.0</ele><time>2026-04-27T10:53:44Z</time></trkpt><trkpt lat="44.751181363796675" lon="8.529277879913952"><ele>136.0</ele><time>2026-04-27T10:53:45Z</time></trkpt><trkpt lat="44.75129017044746" lon="8.529232486844586"><ele>136.0</ele><time>2026-04-27T10:53:46Z</time></trkpt><trkpt lat="44.751381045476805" lon="8.529194095403765"><ele>136.0</ele><time>2026-04-27T10:53:47Z</time></trkpt><trkpt lat="44.75145825320269" lon="8.529157870410176"><ele>136.0</ele><time>2026-04-27T10:53:48Z</time></trkpt><trkpt lat="44.75152795645203" lon="8.529129850859135"><ele>136.0</ele><time>2026-04-27T10:53:49Z</time></trkpt><trkpt lat="44.75162724494124" lon="8.529093837037019"><ele>136.0</ele><time>2026-04-27T10:53:51Z</time></trkpt><trkpt lat="44.75168906103827" lon="8.52907154847071"><ele>136.0</ele><time>2026-04-27T10:53:53Z</time></trkpt><trkpt lat="44.75174768380658" lon="8.529020573066152"><ele>136.0</ele><time>2026-04-27T10:55:30Z</time></trkpt><trkpt lat="44.75185698428537" lon="8.528975551018824"><ele>136.0</ele><time>2026-04-27T10:55:32Z</time></trkpt><trkpt lat="44.751919205706024" lon="8.528949418241515"><ele>136.0</ele><time>2026-04-27T10:55:33Z</time></trkpt><trkpt lat="44.75203168916543" lon="8.528904349252368"><ele>136.0</ele><time>2026-04-27T10:55:35Z</time></trkpt><trkpt lat="44.75214591886237" lon="8.528857266141607"><ele>136.0</ele><time>2026-04-27T10:55:37Z</time></trkpt><trkpt lat="44.75220669446046" lon="8.528828766999732"><ele>135.57142857142856</ele><time>2026-04-27T10:55:38Z</time></trkpt><trkpt lat="44.752271875945354" lon="8.528796500607424"><ele>135.14285714285714</ele><time>2026-04-27T10:55:39Z</time></trkpt><trkpt lat="44.75233837952898" lon="8.528765327351534"><ele>134.71428571428572</ele><time>2026-04-27T10:55:40Z</time></trkpt><trkpt lat="44.75240171661926" lon="8.528736586213405"><ele>134.28571428571428</ele><time>2026-04-27T10:55:41Z</time></trkpt><trkpt lat="44.75247184736369" lon="8.528702546902963"><ele>133.85714285714286</ele><time>2026-04-27T10:55:42Z</time></trkpt><trkpt lat="44.75254676308577" lon="8.528670711412822"><ele>133.42857142857142</ele><time>2026-04-27T10:55:43Z</time></trkpt><trkpt lat="44.752631464483365" lon="8.528688572221819"><ele>133.0</ele><time>2026-04-27T10:55:44Z</time></trkpt><trkpt lat="44.75271443810441" lon="8.528656084285645"><ele>132.83333333333334</ele><time>2026-04-27T10:55:45Z</time></trkpt><trkpt lat="44.752791210110075" lon="8.52862577766477"><ele>132.66666666666669</ele><time>2026-04-27T10:55:46Z</time></trkpt><trkpt lat="44.75287318778155" lon="8.52859353423749"><ele>132.5</ele><time>2026-04-27T10:55:47Z</time></trkpt><trkpt lat="44.75296201467321" lon="8.52855859686988"><ele>132.33333333333334</ele><time>2026-04-27T10:55:48Z</time></trkpt><trkpt lat="44.75304936656866" lon="8.52852423964748"><ele>132.16666666666666</ele><time>2026-04-27T10:55:49Z</time></trkpt><trkpt lat="44.75313621719055" lon="8.528489907946854"><ele>132.0</ele><time>2026-04-27T10:55:50Z</time></trkpt><trkpt lat="44.753210126389654" lon="8.528460549721462"><ele>132.0</ele><time>2026-04-27T10:55:51Z</time></trkpt><trkpt lat="44.75327572337021" lon="8.528434493284777"><ele>132.0</ele><time>2026-04-27T10:55:52Z</time></trkpt><trkpt lat="44.75334452069092" lon="8.528407165601063"><ele>132.0</ele><time>2026-04-27T10:55:53Z</time></trkpt><trkpt lat="44.75341834196026" lon="8.528378453623876"><ele>132.0</ele><time>2026-04-27T10:55:54Z</time></trkpt><trkpt lat="44.75349643805479" lon="8.528349697794768"><ele>132.0</ele><time>2026-04-27T10:55:55Z</time></trkpt><trkpt lat="44.75359414295757" lon="8.528315293629358"><ele>132.0</ele><time>2026-04-27T10:55:56Z</time></trkpt><trkpt lat="44.753686453984386" lon="8.52827752784587"><ele>132.0</ele><time>2026-04-27T10:55:57Z</time></trkpt><trkpt lat="44.753785305101154" lon="8.528250323281195"><ele>132.0</ele><time>2026-04-27T10:55:58Z</time></trkpt><trkpt lat="44.75389638253844" lon="8.52821085497711"><ele>132.0</ele><time>2026-04-27T10:55:59Z</time></trkpt><trkpt lat="44.7540150913038" lon="8.528172126678996"><ele>132.0</ele><time>2026-04-27T10:56:00Z</time></trkpt><trkpt lat="44.75414318658039" lon="8.528130170540097"><ele>132.0</ele><time>2026-04-27T10:56:01Z</time></trkpt><trkpt lat="44.75427426801114" lon="8.528092906489425"><ele>132.0</ele><time>2026-04-27T10:56:02Z</time></trkpt><trkpt lat="44.75440769347547" lon="8.528055274384466"><ele>132.0</ele><time>2026-04-27T10:56:03Z</time></trkpt><trkpt lat="44.754540721592434" lon="8.528021410623673"><ele>132.0</ele><time>2026-04-27T10:56:04Z</time></trkpt><trkpt lat="44.75465905266777" lon="8.527990523265924"><ele>131.75</ele><time>2026-04-27T10:56:05Z</time></trkpt><trkpt lat="44.75478708164302" lon="8.527940737859279"><ele>131.5</ele><time>2026-04-27T10:56:06Z</time></trkpt><trkpt lat="44.754914551303855" lon="8.527895518643346"><ele>131.25</ele><time>2026-04-27T10:56:07Z</time></trkpt><trkpt lat="44.75504771985701" lon="8.527852434753841"><ele>131.0</ele><time>2026-04-27T10:56:08Z</time></trkpt><trkpt lat="44.755185485415204" lon="8.527811720591153"><ele>131.0</ele><time>2026-04-27T10:56:09Z</time></trkpt><trkpt lat="44.75532598799114" lon="8.527772596870978"><ele>131.0</ele><time>2026-04-27T10:56:10Z</time></trkpt><trkpt lat="44.755465270031465" lon="8.527733958686506"><ele>131.0</ele><time>2026-04-27T10:56:11Z</time></trkpt><trkpt lat="44.755611428738675" lon="8.527690851831247"><ele>131.0</ele><time>2026-04-27T10:56:12Z</time></trkpt><trkpt lat="44.75576847241983" lon="8.527645127286373"><ele>131.0</ele><time>2026-04-27T10:56:13Z</time></trkpt><trkpt lat="44.75592865520257" lon="8.527597952149518"><ele>131.0</ele><time>2026-04-27T10:56:14Z</time></trkpt><trkpt lat="44.75609368115576" lon="8.5275503070001"><ele>131.0</ele><time>2026-04-27T10:56:15Z</time></trkpt><trkpt lat="44.756242447587134" lon="8.527501597405136"><ele>130.5</ele><time>2026-04-27T10:56:16Z</time></trkpt><trkpt lat="44.756368737609286" lon="8.527458479487315"><ele>130.0</ele><time>2026-04-27T10:56:17Z</time></trkpt><trkpt lat="44.7564806787941" lon="8.52743744088908"><ele>129.5</ele><time>2026-04-27T10:56:18Z</time></trkpt><trkpt lat="44.756587602787356" lon="8.527408845807205"><ele>129.0</ele><time>2026-04-27T10:56:19Z</time></trkpt><trkpt lat="44.7567048646004" lon="8.527371423919782"><ele>129.0</ele><time>2026-04-27T10:56:20Z</time></trkpt><trkpt lat="44.75679383176062" lon="8.527341046057078"><ele>129.0</ele><time>2026-04-27T10:56:21Z</time></trkpt><trkpt lat="44.75714875624025" lon="8.527247862791944"><ele>128.33333333333334</ele><time>2026-04-27T10:56:22Z</time></trkpt><trkpt lat="44.75731145136703" lon="8.527195580954984"><ele>127.66666666666667</ele><time>2026-04-27T10:56:23Z</time></trkpt><trkpt lat="44.75747954452343" lon="8.527143592921956"><ele>127.0</ele><time>2026-04-27T10:56:24Z</time></trkpt><trkpt lat="44.75764873122672" lon="8.527089263644998"><ele>126.66666666666667</ele><time>2026-04-27T10:56:25Z</time></trkpt><trkpt lat="44.7578234327583" lon="8.52702881399522"><ele>126.33333333333334</ele><time>2026-04-27T10:56:26Z</time></trkpt><trkpt lat="44.75799436334588" lon="8.52698103595388"><ele>126.0</ele><time>2026-04-27T10:56:27Z</time></trkpt><trkpt lat="44.758168906632825" lon="8.526943426479672"><ele>126.0</ele><time>2026-04-27T10:56:28Z</time></trkpt><trkpt lat="44.75834441901874" lon="8.52691186510788"><ele>126.0</ele><time>2026-04-27T10:56:29Z</time></trkpt><trkpt lat="44.75851643973509" lon="8.526886309128885"><ele>126.0</ele><time>2026-04-27T10:56:30Z</time></trkpt><trkpt lat="44.75868335236521" lon="8.526869145939"><ele>126.33333333333334</ele><time>2026-04-27T10:56:31Z</time></trkpt><trkpt lat="44.75884368432821" lon="8.526856039736684"><ele>126.66666666666667</ele><time>2026-04-27T10:56:32Z</time></trkpt><trkpt lat="44.758998853824515" lon="8.526841593611008"><ele>127.0</ele><time>2026-04-27T10:56:33Z</time></trkpt><trkpt lat="44.75915760658169" lon="8.526836138959581"><ele>127.0</ele><time>2026-04-27T10:56:34Z</time></trkpt><trkpt lat="44.75932058620435" lon="8.52683544047502"><ele>127.0</ele><time>2026-04-27T10:56:35Z</time></trkpt><trkpt lat="44.759488936426834" lon="8.526845162126962"><ele>127.0</ele><time>2026-04-27T10:56:36Z</time></trkpt><trkpt lat="44.7596633138281" lon="8.526868188004267"><ele>127.0</ele><time>2026-04-27T10:56:37Z</time></trkpt><trkpt lat="44.75983941193456" lon="8.526892809349873"><ele>127.0</ele><time>2026-04-27T10:56:38Z</time></trkpt><trkpt lat="44.760019341795356" lon="8.526922455861513"><ele>127.0</ele><time>2026-04-27T10:56:39Z</time></trkpt><trkpt lat="44.760200593146465" lon="8.526955448306751"><ele>127.0</ele><time>2026-04-27T10:56:40Z</time></trkpt><trkpt lat="44.760377348675995" lon="8.526994359574415"><ele>127.0</ele><time>2026-04-27T10:56:41Z</time></trkpt><trkpt lat="44.76055995088311" lon="8.527035239646018"><ele>127.0</ele><time>2026-04-27T10:56:42Z</time></trkpt><trkpt lat="44.76074487127681" lon="8.527068396456162"><ele>126.33333333333334</ele><time>2026-04-27T10:56:43Z</time></trkpt><trkpt lat="44.760930816785994" lon="8.527120214365176"><ele>125.66666666666666</ele><time>2026-04-27T10:56:44Z</time></trkpt><trkpt lat="44.7611109796648" lon="8.527152432813187"><ele>125.0</ele><time>2026-04-27T10:56:45Z</time></trkpt><trkpt lat="44.76127246856774" lon="8.527181603664962"><ele>125.0</ele><time>2026-04-27T10:56:46Z</time></trkpt><trkpt lat="44.76142624856886" lon="8.52720919651642"><ele>125.0</ele><time>2026-04-27T10:56:47Z</time></trkpt><trkpt lat="44.761581553013926" lon="8.527241026530927"><ele>125.0</ele><time>2026-04-27T10:56:48Z</time></trkpt><trkpt lat="44.761738516501985" lon="8.52727220191063"><ele>126.0</ele><time>2026-04-27T10:56:49Z</time></trkpt><trkpt lat="44.761899692236575" lon="8.527302323080633"><ele>127.0</ele><time>2026-04-27T10:56:50Z</time></trkpt><trkpt lat="44.76206497150821" lon="8.527333185756964"><ele>128.0</ele><time>2026-04-27T10:56:51Z</time></trkpt><trkpt lat="44.76222796633324" lon="8.527366759849494"><ele>128.0</ele><time>2026-04-27T10:56:52Z</time></trkpt><trkpt lat="44.76239597299548" lon="8.527400386803974"><ele>128.0</ele><time>2026-04-27T10:56:53Z</time></trkpt><trkpt lat="44.76256032428095" lon="8.527434225761404"><ele>128.0</ele><time>2026-04-27T10:56:54Z</time></trkpt><trkpt lat="44.76272357153821" lon="8.527467832391256"><ele>128.33333333333331</ele><time>2026-04-27T10:56:55Z</time></trkpt><trkpt lat="44.762890798787254" lon="8.527502687621327"><ele>128.66666666666666</ele><time>2026-04-27T10:56:56Z</time></trkpt><trkpt lat="44.76306625818437" lon="8.527548991482357"><ele>129.0</ele><time>2026-04-27T10:56:57Z</time></trkpt><trkpt lat="44.763239999685844" lon="8.527612576677148"><ele>129.0</ele><time>2026-04-27T10:56:58Z</time></trkpt><trkpt lat="44.763409840150445" lon="8.52769554818906"><ele>129.0</ele><time>2026-04-27T10:56:59Z</time></trkpt><trkpt lat="44.7635790257662" lon="8.527797202408268"><ele>129.0</ele><time>2026-04-27T10:57:00Z</time></trkpt><trkpt lat="44.76375509286645" lon="8.527906102110206"><ele>128.66666666666666</ele><time>2026-04-27T10:57:01Z</time></trkpt><trkpt lat="44.76393161018218" lon="8.52802571583563"><ele>128.33333333333331</ele><time>2026-04-27T10:57:02Z</time></trkpt><trkpt lat="44.76409993143256" lon="8.528154332219305"><ele>128.0</ele><time>2026-04-27T10:57:03Z</time></trkpt><trkpt lat="44.76426333843154" lon="8.52830425825303"><ele>127.66666666666666</ele><time>2026-04-27T10:57:04Z</time></trkpt><trkpt lat="44.764419331836685" lon="8.528461384828116"><ele>127.33333333333334</ele><time>2026-04-27T10:57:05Z</time></trkpt><trkpt lat="44.76457143719579" lon="8.52861646177556"><ele>127.0</ele><time>2026-04-27T10:57:06Z</time></trkpt><trkpt lat="44.76471950421665" lon="8.528768043235443"><ele>127.0</ele><time>2026-04-27T10:57:07Z</time></trkpt><trkpt lat="44.76486142613397" lon="8.528910207595079"><ele>127.0</ele><time>2026-04-27T10:57:08Z</time></trkpt><trkpt lat="44.7649923398625" lon="8.529041809710094"><ele>127.0</ele><time>2026-04-27T10:57:09Z</time></trkpt><trkpt lat="44.76511021472572" lon="8.529159308288667"><ele>127.0</ele><time>2026-04-27T10:57:10Z</time></trkpt><trkpt lat="44.76522357440672" lon="8.529271464663102"><ele>126.99999999999999</ele><time>2026-04-27T10:57:11Z</time></trkpt><trkpt lat="44.76532384428972" lon="8.52937638114307"><ele>126.99999999999999</ele><time>2026-04-27T10:57:12Z</time></trkpt><trkpt lat="44.76539842440181" lon="8.529456898220799"><ele>127.0</ele><time>2026-04-27T10:57:13Z</time></trkpt><trkpt lat="44.765454819384836" lon="8.529520108858787"><ele>127.0</ele><time>2026-04-27T10:57:14Z</time></trkpt><trkpt lat="44.76552299969741" lon="8.529591955854968"><ele>127.0</ele><time>2026-04-27T10:57:16Z</time></trkpt><trkpt lat="44.76558484624565" lon="8.52965571721708"><ele>126.99999999999999</ele><time>2026-04-27T10:57:20Z</time></trkpt><trkpt lat="44.76567804736067" lon="8.529739630744997"><ele>126.99999999999999</ele><time>2026-04-27T10:57:22Z</time></trkpt><trkpt lat="44.76574568023076" lon="8.52980488333244"><ele>127.0</ele><time>2026-04-27T10:57:23Z</time></trkpt><trkpt lat="44.76581460937779" lon="8.529873189076081"><ele>127.0</ele><time>2026-04-27T10:57:24Z</time></trkpt><trkpt lat="44.765893751850435" lon="8.52995104379088"><ele>127.0</ele><time>2026-04-27T10:57:25Z</time></trkpt><trkpt lat="44.7659853340937" lon="8.530044741539712"><ele>127.0</ele><time>2026-04-27T10:57:26Z</time></trkpt><trkpt lat="44.766093296322374" lon="8.530150586848922"><ele>127.0</ele><time>2026-04-27T10:57:27Z</time></trkpt><trkpt lat="44.76620830711731" lon="8.530265225531283"><ele>127.0</ele><time>2026-04-27T10:57:28Z</time></trkpt><trkpt lat="44.766338200366185" lon="8.530394576516631"><ele>126.33333333333334</ele><time>2026-04-27T10:57:29Z</time></trkpt><trkpt lat="44.76647363225512" lon="8.530528157463705"><ele>125.66666666666666</ele><time>2026-04-27T10:57:30Z</time></trkpt><trkpt lat="44.76661393193592" lon="8.530666392111025"><ele>125.0</ele><time>2026-04-27T10:57:31Z</time></trkpt><trkpt lat="44.766751408389524" lon="8.53080626052837"><ele>124.33333333333333</ele><time>2026-04-27T10:57:32Z</time></trkpt><trkpt lat="44.76687980949566" lon="8.5309363350091"><ele>123.66666666666666</ele><time>2026-04-27T10:57:33Z</time></trkpt><trkpt lat="44.767006220685005" lon="8.531060828000216"><ele>123.0</ele><time>2026-04-27T10:57:34Z</time></trkpt><trkpt lat="44.767135184242825" lon="8.53118445065104"><ele>123.33333333333334</ele><time>2026-04-27T10:57:35Z</time></trkpt><trkpt lat="44.767270943207805" lon="8.531319124878108"><ele>123.66666666666667</ele><time>2026-04-27T10:57:36Z</time></trkpt><trkpt lat="44.76741276710654" lon="8.53145873975453"><ele>124.0</ele><time>2026-04-27T10:57:37Z</time></trkpt><trkpt lat="44.76755647425167" lon="8.531598695233653"><ele>124.0</ele><time>2026-04-27T10:57:38Z</time></trkpt><trkpt lat="44.76770490235683" lon="8.53174604275547"><ele>124.0</ele><time>2026-04-27T10:57:39Z</time></trkpt><trkpt lat="44.76785899813312" lon="8.531890933138028"><ele>124.0</ele><time>2026-04-27T10:57:40Z</time></trkpt><trkpt lat="44.768016877501644" lon="8.532042155965563"><ele>124.33333333333334</ele><time>2026-04-27T10:57:41Z</time></trkpt><trkpt lat="44.76817402506044" lon="8.532195602395836"><ele>124.66666666666666</ele><time>2026-04-27T10:57:42Z</time></trkpt><trkpt lat="44.76833235097358" lon="8.53235022909362"><ele>125.0</ele><time>2026-04-27T10:57:43Z</time></trkpt><trkpt lat="44.76849403922778" lon="8.532510254534689"><ele>124.33333333333333</ele><time>2026-04-27T10:57:44Z</time></trkpt><trkpt lat="44.7686558212061" lon="8.53267146783602"><ele>123.66666666666666</ele><time>2026-04-27T10:57:45Z</time></trkpt><trkpt lat="44.768819111657955" lon="8.532831650675515"><ele>123.0</ele><time>2026-04-27T10:57:46Z</time></trkpt><trkpt lat="44.76898682459849" lon="8.532996533046518"><ele>123.0</ele><time>2026-04-27T10:57:47Z</time></trkpt><trkpt lat="44.76915335590064" lon="8.533162734684142"><ele>123.0</ele><time>2026-04-27T10:57:48Z</time></trkpt><trkpt lat="44.769323236394776" lon="8.53332918344544"><ele>123.0</ele><time>2026-04-27T10:57:49Z</time></trkpt><trkpt lat="44.76949510648043" lon="8.53349775389883"><ele>123.0</ele><time>2026-04-27T10:57:50Z</time></trkpt><trkpt lat="44.769666882534786" lon="8.533669545667433"><ele>123.0</ele><time>2026-04-27T10:57:51Z</time></trkpt><trkpt lat="44.769844812427564" lon="8.533843929845883"><ele>123.0</ele><time>2026-04-27T10:57:52Z</time></trkpt><trkpt lat="44.77001969640174" lon="8.534015568844321"><ele>122.66666666666666</ele><time>2026-04-27T10:57:53Z</time></trkpt><trkpt lat="44.77019020754371" lon="8.534182341602591"><ele>122.33333333333333</ele><time>2026-04-27T10:57:54Z</time></trkpt><trkpt lat="44.77036019630108" lon="8.534347131990929"><ele>122.0</ele><time>2026-04-27T10:57:55Z</time></trkpt><trkpt lat="44.77052773509368" lon="8.53450917600175"><ele>121.0</ele><time>2026-04-27T10:57:56Z</time></trkpt><trkpt lat="44.77069120015527" lon="8.534673046914069"><ele>120.0</ele><time>2026-04-27T10:57:57Z</time></trkpt><trkpt lat="44.77085362199512" lon="8.534836873123979"><ele>119.0</ele><time>2026-04-27T10:57:58Z</time></trkpt><trkpt lat="44.77101419352003" lon="8.534996059483884"><ele>119.33333333333333</ele><time>2026-04-27T10:57:59Z</time></trkpt><trkpt lat="44.771174366913655" lon="8.535153219712118"><ele>119.66666666666666</ele><time>2026-04-27T10:58:00Z</time></trkpt><trkpt lat="44.771332612939084" lon="8.535310574140812"><ele>120.0</ele><time>2026-04-27T10:58:01Z</time></trkpt><trkpt lat="44.771485833590276" lon="8.535466214742016"><ele>120.0</ele><time>2026-04-27T10:58:02Z</time></trkpt><trkpt lat="44.771636458685094" lon="8.535613206231956"><ele>120.0</ele><time>2026-04-27T10:58:03Z</time></trkpt><trkpt lat="44.7717615057708" lon="8.535726965679897"><ele>120.0</ele><time>2026-04-27T10:58:04Z</time></trkpt><trkpt lat="44.771878048299044" lon="8.535837714479632"><ele>120.75</ele><time>2026-04-27T10:58:05Z</time></trkpt><trkpt lat="44.77199014502069" lon="8.535950491692248"><ele>121.5</ele><time>2026-04-27T10:58:06Z</time></trkpt><trkpt lat="44.77210765233444" lon="8.536061119619733"><ele>122.25</ele><time>2026-04-27T10:58:07Z</time></trkpt><trkpt lat="44.77223121419156" lon="8.53616553473269"><ele>123.0</ele><time>2026-04-27T10:58:08Z</time></trkpt><trkpt lat="44.77236245901155" lon="8.536263921473521"><ele>123.0</ele><time>2026-04-27T10:58:09Z</time></trkpt><trkpt lat="44.77249504561314" lon="8.536360728516355"><ele>123.0</ele><time>2026-04-27T10:58:10Z</time></trkpt><trkpt lat="44.77263085657342" lon="8.53645932694843"><ele>123.0</ele><time>2026-04-27T10:58:11Z</time></trkpt><trkpt lat="44.772769658235674" lon="8.536558312381157"><ele>123.75</ele><time>2026-04-27T10:58:12Z</time></trkpt><trkpt lat="44.77289939042995" lon="8.536653811860036"><ele>124.5</ele><time>2026-04-27T10:58:13Z</time></trkpt><trkpt lat="44.77303080141702" lon="8.536752387087038"><ele>125.25</ele><time>2026-04-27T10:58:14Z</time></trkpt><trkpt lat="44.77315881717308" lon="8.536848651530772"><ele>126.0</ele><time>2026-04-27T10:58:15Z</time></trkpt><trkpt lat="44.773283254402884" lon="8.536934679512937"><ele>126.0</ele><time>2026-04-27T10:58:16Z</time></trkpt><trkpt lat="44.77340897916446" lon="8.537024497572093"><ele>126.0</ele><time>2026-04-27T10:58:17Z</time></trkpt><trkpt lat="44.773534508783655" lon="8.537116652676731"><ele>126.0</ele><time>2026-04-27T10:58:18Z</time></trkpt><trkpt lat="44.77366652457688" lon="8.537213850648165"><ele>126.0</ele><time>2026-04-27T10:58:19Z</time></trkpt><trkpt lat="44.77379986448584" lon="8.537306822710283"><ele>125.0</ele><time>2026-04-27T10:58:20Z</time></trkpt><trkpt lat="44.773942997674396" lon="8.537406792451527"><ele>124.0</ele><time>2026-04-27T10:58:21Z</time></trkpt><trkpt lat="44.77408293607403" lon="8.537497807638633"><ele>123.0</ele><time>2026-04-27T10:58:22Z</time></trkpt><trkpt lat="44.77423291489134" lon="8.537587562310577"><ele>123.0</ele><time>2026-04-27T10:58:23Z</time></trkpt><trkpt lat="44.774390170232095" lon="8.537679351052562"><ele>123.0</ele><time>2026-04-27T10:58:24Z</time></trkpt><trkpt lat="44.77454938612157" lon="8.53775707320971"><ele>123.0</ele><time>2026-04-27T10:58:25Z</time></trkpt><trkpt lat="44.77472206107258" lon="8.537827587906525"><ele>121.66666666666666</ele><time>2026-04-27T10:58:26Z</time></trkpt><trkpt lat="44.77490078869186" lon="8.537890849019842"><ele>120.33333333333333</ele><time>2026-04-27T10:58:27Z</time></trkpt><trkpt lat="44.77509079197445" lon="8.537944311270902"><ele>119.0</ele><time>2026-04-27T10:58:28Z</time></trkpt><trkpt lat="44.77528618030239" lon="8.53798623334868"><ele>118.66666666666666</ele><time>2026-04-27T10:58:29Z</time></trkpt><trkpt lat="44.77548972547775" lon="8.53801720225282"><ele>118.33333333333334</ele><time>2026-04-27T10:58:30Z</time></trkpt><trkpt lat="44.77569616294686" lon="8.538039512165337"><ele>118.0</ele><time>2026-04-27T10:58:31Z</time></trkpt><trkpt lat="44.775906534910135" lon="8.53804217288414"><ele>118.33333333333334</ele><time>2026-04-27T10:58:32Z</time></trkpt><trkpt lat="44.776123918484295" lon="8.53803398591286"><ele>118.66666666666666</ele><time>2026-04-27T10:58:33Z</time></trkpt><trkpt lat="44.77634130665318" lon="8.53801802971375"><ele>119.0</ele><time>2026-04-27T10:58:34Z</time></trkpt><trkpt lat="44.7765643380791" lon="8.537985252276405"><ele>119.0</ele><time>2026-04-27T10:58:35Z</time></trkpt><trkpt lat="44.77678156127143" lon="8.537935959682573"><ele>119.0</ele><time>2026-04-27T10:58:36Z</time></trkpt><trkpt lat="44.77699721451463" lon="8.537871223409558"><ele>119.0</ele><time>2026-04-27T10:58:37Z</time></trkpt><trkpt lat="44.77720867866384" lon="8.537787705153562"><ele>119.33333333333333</ele><time>2026-04-27T10:58:38Z</time></trkpt><trkpt lat="44.77742058989848" lon="8.537697976276704"><ele>119.66666666666666</ele><time>2026-04-27T10:58:39Z</time></trkpt><trkpt lat="44.77762248744052" lon="8.537615667834144"><ele>120.0</ele><time>2026-04-27T10:58:40Z</time></trkpt><trkpt lat="44.777816395677405" lon="8.537542733381846"><ele>119.33333333333334</ele><time>2026-04-27T10:58:41Z</time></trkpt><trkpt lat="44.77800760863831" lon="8.537471748206672"><ele>118.66666666666667</ele><time>2026-04-27T10:58:42Z</time></trkpt><trkpt lat="44.778191869845934" lon="8.537402465159479"><ele>118.0</ele><time>2026-04-27T10:58:43Z</time></trkpt><trkpt lat="44.77836621362991" lon="8.53733847515225"><ele>118.0</ele><time>2026-04-27T10:58:44Z</time></trkpt><trkpt lat="44.77853023719692" lon="8.537275097905784"><ele>118.0</ele><time>2026-04-27T10:58:45Z</time></trkpt><trkpt lat="44.77868256863742" lon="8.537215487385353"><ele>118.0</ele><time>2026-04-27T10:58:46Z</time></trkpt><trkpt lat="44.77883159069678" lon="8.537159965742699"><ele>118.0</ele><time>2026-04-27T10:58:47Z</time></trkpt><trkpt lat="44.778987618102" lon="8.537113124069466"><ele>118.0</ele><time>2026-04-27T10:58:48Z</time></trkpt><trkpt lat="44.77914366182583" lon="8.537067371748682"><ele>118.0</ele><time>2026-04-27T10:58:49Z</time></trkpt><trkpt lat="44.779304619224014" lon="8.537028112300904"><ele>118.66666666666667</ele><time>2026-04-27T10:58:50Z</time></trkpt><trkpt lat="44.77946489531302" lon="8.536996860561787"><ele>119.33333333333334</ele><time>2026-04-27T10:58:51Z</time></trkpt><trkpt lat="44.77962849753741" lon="8.536958850751015"><ele>120.0</ele><time>2026-04-27T10:58:52Z</time></trkpt><trkpt lat="44.77979187352658" lon="8.536915895972466"><ele>120.0</ele><time>2026-04-27T10:58:53Z</time></trkpt><trkpt lat="44.77995813382768" lon="8.536869409164531"><ele>120.0</ele><time>2026-04-27T10:58:54Z</time></trkpt><trkpt lat="44.78012027134688" lon="8.536825613201207"><ele>120.0</ele><time>2026-04-27T10:58:55Z</time></trkpt><trkpt lat="44.78029263110861" lon="8.536789835189417"><ele>120.33333333333334</ele><time>2026-04-27T10:58:56Z</time></trkpt><trkpt lat="44.78046433175206" lon="8.536760124917427"><ele>120.66666666666667</ele><time>2026-04-27T10:58:57Z</time></trkpt><trkpt lat="44.78063791657728" lon="8.536739093890096"><ele>121.0</ele><time>2026-04-27T10:58:58Z</time></trkpt><trkpt lat="44.78080815034196" lon="8.536748074937046"><ele>121.0</ele><time>2026-04-27T10:58:59Z</time></trkpt><trkpt lat="44.78097805926891" lon="8.536771455866248"><ele>121.0</ele><time>2026-04-27T10:59:00Z</time></trkpt><trkpt lat="44.78114795607246" lon="8.536819450764717"><ele>121.0</ele><time>2026-04-27T10:59:01Z</time></trkpt><trkpt lat="44.7813100820314" lon="8.536873584507743"><ele>120.66666666666667</ele><time>2026-04-27T10:59:02Z</time></trkpt><trkpt lat="44.78146879332423" lon="8.536935997970325"><ele>120.33333333333334</ele><time>2026-04-27T10:59:03Z</time></trkpt><trkpt lat="44.7816221831884" lon="8.536996067044363"><ele>120.0</ele><time>2026-04-27T10:59:04Z</time></trkpt><trkpt lat="44.781769659741435" lon="8.53705578569569"><ele>118.66666666666666</ele><time>2026-04-27T10:59:05Z</time></trkpt><trkpt lat="44.78191752420419" lon="8.537108361811748"><ele>117.33333333333333</ele><time>2026-04-27T10:59:06Z</time></trkpt><trkpt lat="44.782065641761015" lon="8.53716433479206"><ele>116.0</ele><time>2026-04-27T10:59:07Z</time></trkpt><trkpt lat="44.782218479946096" lon="8.537221351515889"><ele>116.0</ele><time>2026-04-27T10:59:08Z</time></trkpt><trkpt lat="44.782371057641946" lon="8.537281238474247"><ele>116.0</ele><time>2026-04-27T10:59:09Z</time></trkpt><trkpt lat="44.78252506606435" lon="8.537344446019905"><ele>116.0</ele><time>2026-04-27T10:59:10Z</time></trkpt><trkpt lat="44.78267716108759" lon="8.537406741408267"><ele>116.33333333333333</ele><time>2026-04-27T10:59:11Z</time></trkpt><trkpt lat="44.78282834686106" lon="8.537466812703297"><ele>116.66666666666666</ele><time>2026-04-27T10:59:12Z</time></trkpt><trkpt lat="44.78298491192623" lon="8.53752157592419"><ele>117.0</ele><time>2026-04-27T10:59:13Z</time></trkpt><trkpt lat="44.78314048730417" lon="8.537580178501528"><ele>117.0</ele><time>2026-04-27T10:59:14Z</time></trkpt><trkpt lat="44.78329890168599" lon="8.537640510779385"><ele>117.0</ele><time>2026-04-27T10:59:15Z</time></trkpt><trkpt lat="44.78345883588519" lon="8.537697212390903"><ele>117.0</ele><time>2026-04-27T10:59:16Z</time></trkpt><trkpt lat="44.7836161492551" lon="8.537759921094738"><ele>117.0</ele><time>2026-04-27T10:59:17Z</time></trkpt><trkpt lat="44.783775312516404" lon="8.537824400433282"><ele>117.0</ele><time>2026-04-27T10:59:18Z</time></trkpt><trkpt lat="44.78392428499021" lon="8.537892577403"><ele>117.0</ele><time>2026-04-27T10:59:19Z</time></trkpt><trkpt lat="44.78407420665548" lon="8.537960501238464"><ele>117.0</ele><time>2026-04-27T10:59:20Z</time></trkpt><trkpt lat="44.78421791489936" lon="8.53802835966583"><ele>117.0</ele><time>2026-04-27T10:59:21Z</time></trkpt><trkpt lat="44.78435515234318" lon="8.538114276056415"><ele>117.0</ele><time>2026-04-27T10:59:22Z</time></trkpt><trkpt lat="44.78450559701551" lon="8.53817858168395"><ele>116.0</ele><time>2026-04-27T10:59:23Z</time></trkpt><trkpt lat="44.78465089913911" lon="8.53825035556311"><ele>115.0</ele><time>2026-04-27T10:59:24Z</time></trkpt><trkpt lat="44.78487123781174" lon="8.538283733644507"><ele>114.0</ele><time>2026-04-27T10:59:25Z</time></trkpt><trkpt lat="44.78504864654442" lon="8.538352343590532"><ele>114.0</ele><time>2026-04-27T10:59:26Z</time></trkpt><trkpt lat="44.78522630254658" lon="8.538417944385692"><ele>114.0</ele><time>2026-04-27T10:59:27Z</time></trkpt><trkpt lat="44.78541170067053" lon="8.538478924887771"><ele>114.0</ele><time>2026-04-27T10:59:28Z</time></trkpt><trkpt lat="44.78560097215758" lon="8.538536414331725"><ele>114.0</ele><time>2026-04-27T10:59:29Z</time></trkpt><trkpt lat="44.7857935664211" lon="8.53859759609536"><ele>114.0</ele><time>2026-04-27T10:59:30Z</time></trkpt><trkpt lat="44.78598033290911" lon="8.538691868421965"><ele>114.0</ele><time>2026-04-27T10:59:31Z</time></trkpt><trkpt lat="44.78616927036212" lon="8.538767737434913"><ele>114.33333333333334</ele><time>2026-04-27T10:59:32Z</time></trkpt><trkpt lat="44.78635351908877" lon="8.538840906903474"><ele>114.66666666666667</ele><time>2026-04-27T10:59:33Z</time></trkpt><trkpt lat="44.78650655722802" lon="8.53890690789928"><ele>115.0</ele><time>2026-04-27T10:59:34Z</time></trkpt><trkpt lat="44.786694312740394" lon="8.53898343177759"><ele>115.0</ele><time>2026-04-27T10:59:35Z</time></trkpt><trkpt lat="44.78688512922657" lon="8.53905280922732"><ele>115.0</ele><time>2026-04-27T10:59:36Z</time></trkpt><trkpt lat="44.78707945069509" lon="8.539126580761163"><ele>115.0</ele><time>2026-04-27T10:59:37Z</time></trkpt><trkpt lat="44.78727401641502" lon="8.539201309181687"><ele>115.0</ele><time>2026-04-27T10:59:38Z</time></trkpt><trkpt lat="44.78746960082475" lon="8.539276989287423"><ele>115.0</ele><time>2026-04-27T10:59:39Z</time></trkpt><trkpt lat="44.787665652052574" lon="8.539355981879401"><ele>115.0</ele><time>2026-04-27T10:59:40Z</time></trkpt><trkpt lat="44.78786037720296" lon="8.539435584983545"><ele>115.0</ele><time>2026-04-27T10:59:41Z</time></trkpt><trkpt lat="44.78805608902997" lon="8.53951175629195"><ele>115.0</ele><time>2026-04-27T10:59:42Z</time></trkpt><trkpt lat="44.788256182783584" lon="8.539587652236804"><ele>115.0</ele><time>2026-04-27T10:59:43Z</time></trkpt><trkpt lat="44.78845949701832" lon="8.539665141815561"><ele>115.33333333333334</ele><time>2026-04-27T10:59:44Z</time></trkpt><trkpt lat="44.788663747918555" lon="8.53974344449706"><ele>115.66666666666666</ele><time>2026-04-27T10:59:45Z</time></trkpt><trkpt lat="44.78886888479981" lon="8.539824784722573"><ele>116.0</ele><time>2026-04-27T10:59:46Z</time></trkpt><trkpt lat="44.789077404968175" lon="8.539898509377439"><ele>116.0</ele><time>2026-04-27T10:59:47Z</time></trkpt><trkpt lat="44.78927898575285" lon="8.539975611970448"><ele>116.0</ele><time>2026-04-27T10:59:48Z</time></trkpt><trkpt lat="44.789487488316006" lon="8.540049030925527"><ele>116.0</ele><time>2026-04-27T10:59:49Z</time></trkpt><trkpt lat="44.789694255220475" lon="8.540128354801888"><ele>116.66666666666666</ele><time>2026-04-27T10:59:50Z</time></trkpt><trkpt lat="44.78990279421702" lon="8.540210704566347"><ele>117.33333333333334</ele><time>2026-04-27T10:59:51Z</time></trkpt><trkpt lat="44.7901097391297" lon="8.540300575217778"><ele>118.0</ele><time>2026-04-27T10:59:52Z</time></trkpt><trkpt lat="44.790315047520714" lon="8.540379066609876"><ele>118.0</ele><time>2026-04-27T10:59:53Z</time></trkpt><trkpt lat="44.79051873139269" lon="8.540456122557897"><ele>118.0</ele><time>2026-04-27T10:59:54Z</time></trkpt><trkpt lat="44.790724547920966" lon="8.540530346633574"><ele>118.0</ele><time>2026-04-27T10:59:55Z</time></trkpt><trkpt lat="44.79092930890949" lon="8.54060882850447"><ele>118.66666666666667</ele><time>2026-04-27T10:59:56Z</time></trkpt><trkpt lat="44.79113427992955" lon="8.540694444164684"><ele>119.33333333333334</ele><time>2026-04-27T10:59:57Z</time></trkpt><trkpt lat="44.791328136510444" lon="8.54076252692843"><ele>120.0</ele><time>2026-04-27T10:59:58Z</time></trkpt><trkpt lat="44.791522026488394" lon="8.540842796127674"><ele>120.0</ele><time>2026-04-27T10:59:59Z</time></trkpt><trkpt lat="44.79171950254494" lon="8.540914047109942"><ele>120.0</ele><time>2026-04-27T11:00:00Z</time></trkpt><trkpt lat="44.791922361602154" lon="8.540974857241586"><ele>120.0</ele><time>2026-04-27T11:00:01Z</time></trkpt><trkpt lat="44.792128439136135" lon="8.541024750356442"><ele>119.0</ele><time>2026-04-27T11:00:02Z</time></trkpt><trkpt lat="44.792342911125516" lon="8.541046598201392"><ele>118.0</ele><time>2026-04-27T11:00:03Z</time></trkpt><trkpt lat="44.79255481966002" lon="8.541055820613819"><ele>117.0</ele><time>2026-04-27T11:00:04Z</time></trkpt><trkpt lat="44.792765196854994" lon="8.54105670663284"><ele>116.66666666666666</ele><time>2026-04-27T11:00:05Z</time></trkpt><trkpt lat="44.79297571796728" lon="8.541044860441053"><ele>116.33333333333333</ele><time>2026-04-27T11:00:06Z</time></trkpt><trkpt lat="44.793181089642616" lon="8.541021245166268"><ele>116.0</ele><time>2026-04-27T11:00:07Z</time></trkpt><trkpt lat="44.79339091084207" lon="8.540992810511534"><ele>117.33333333333333</ele><time>2026-04-27T11:00:08Z</time></trkpt><trkpt lat="44.7935982645934" lon="8.540955026929398"><ele>118.66666666666666</ele><time>2026-04-27T11:00:09Z</time></trkpt><trkpt lat="44.7938066091505" lon="8.540890675127947"><ele>120.0</ele><time>2026-04-27T11:00:10Z</time></trkpt><trkpt lat="44.79401597227607" lon="8.54080466332102"><ele>120.0</ele><time>2026-04-27T11:00:11Z</time></trkpt><trkpt lat="44.7942216569178" lon="8.540718952941312"><ele>120.0</ele><time>2026-04-27T11:00:12Z</time></trkpt><trkpt lat="44.79442465856552" lon="8.540620183684096"><ele>120.0</ele><time>2026-04-27T11:00:13Z</time></trkpt><trkpt lat="44.79463196337191" lon="8.54051428591782"><ele>121.0</ele><time>2026-04-27T11:00:14Z</time></trkpt><trkpt lat="44.79482459892144" lon="8.540377388612882"><ele>122.0</ele><time>2026-04-27T11:00:15Z</time></trkpt><trkpt lat="44.79501448012408" lon="8.540236530951368"><ele>123.0</ele><time>2026-04-27T11:00:16Z</time></trkpt><trkpt lat="44.7952027460633" lon="8.540093279502411"><ele>123.66666666666666</ele><time>2026-04-27T11:00:17Z</time></trkpt><trkpt lat="44.79538930823145" lon="8.539950757209716"><ele>124.33333333333333</ele><time>2026-04-27T11:00:18Z</time></trkpt><trkpt lat="44.79557459411105" lon="8.539811376686533"><ele>125.0</ele><time>2026-04-27T11:00:19Z</time></trkpt><trkpt lat="44.79575774451216" lon="8.539678343556103"><ele>124.66666666666666</ele><time>2026-04-27T11:00:20Z</time></trkpt><trkpt lat="44.79594239256455" lon="8.539543658074734"><ele>124.33333333333334</ele><time>2026-04-27T11:00:21Z</time></trkpt><trkpt lat="44.79612926095929" lon="8.539408545934577"><ele>124.0</ele><time>2026-04-27T11:00:22Z</time></trkpt><trkpt lat="44.79631444281087" lon="8.539270121179264"><ele>127.0</ele><time>2026-04-27T11:00:23Z</time></trkpt><trkpt lat="44.79650414977322" lon="8.539135171155166"><ele>130.0</ele><time>2026-04-27T11:00:24Z</time></trkpt><trkpt lat="44.79669444335721" lon="8.539000193137326"><ele>133.0</ele><time>2026-04-27T11:00:25Z</time></trkpt><trkpt lat="44.79688442227064" lon="8.538861355647356"><ele>135.66666666666669</ele><time>2026-04-27T11:00:26Z</time></trkpt><trkpt lat="44.797074741336544" lon="8.538723875434144"><ele>138.33333333333334</ele><time>2026-04-27T11:00:27Z</time></trkpt><trkpt lat="44.79726497094331" lon="8.538584426383512"><ele>141.0</ele><time>2026-04-27T11:00:28Z</time></trkpt><trkpt lat="44.79745632413965" lon="8.538447011648861"><ele>141.0</ele><time>2026-04-27T11:00:29Z</time></trkpt><trkpt lat="44.797650758367865" lon="8.538311999758992"><ele>141.0</ele><time>2026-04-27T11:00:30Z</time></trkpt><trkpt lat="44.79784695976483" lon="8.538182514903522"><ele>141.0</ele><time>2026-04-27T11:00:31Z</time></trkpt><trkpt lat="44.79804161997687" lon="8.538064487677541"><ele>143.66666666666666</ele><time>2026-04-27T11:00:32Z</time></trkpt><trkpt lat="44.798234784666974" lon="8.537969315405123"><ele>146.33333333333331</ele><time>2026-04-27T11:00:33Z</time></trkpt><trkpt lat="44.79842826731843" lon="8.537890529402041"><ele>149.0</ele><time>2026-04-27T11:00:34Z</time></trkpt><trkpt lat="44.79862595932623" lon="8.537833104662772"><ele>150.0</ele><time>2026-04-27T11:00:35Z</time></trkpt><trkpt lat="44.79882490610255" lon="8.537797979019182"><ele>151.0</ele><time>2026-04-27T11:00:36Z</time></trkpt><trkpt lat="44.79902300182972" lon="8.537799348996225"><ele>152.0</ele><time>2026-04-27T11:00:37Z</time></trkpt><trkpt lat="44.799226963843765" lon="8.537791146932378"><ele>151.66666666666666</ele><time>2026-04-27T11:00:38Z</time></trkpt><trkpt lat="44.79943159852085" lon="8.537793242766515"><ele>151.33333333333334</ele><time>2026-04-27T11:00:39Z</time></trkpt><trkpt lat="44.799640493060025" lon="8.537795077793058"><ele>151.0</ele><time>2026-04-27T11:00:40Z</time></trkpt><trkpt lat="44.799852960876294" lon="8.537788126830051"><ele>151.0</ele><time>2026-04-27T11:00:41Z</time></trkpt><trkpt lat="44.800068117606564" lon="8.537781092082264"><ele>151.0</ele><time>2026-04-27T11:00:42Z</time></trkpt><trkpt lat="44.80028358945931" lon="8.537772548401305"><ele>151.0</ele><time>2026-04-27T11:00:43Z</time></trkpt><trkpt lat="44.800496886918225" lon="8.537765889132054"><ele>150.33333333333334</ele><time>2026-04-27T11:00:44Z</time></trkpt><trkpt lat="44.800708764931095" lon="8.537760499986147"><ele>149.66666666666666</ele><time>2026-04-27T11:00:45Z</time></trkpt><trkpt lat="44.800919769390596" lon="8.537756035398969"><ele>149.0</ele><time>2026-04-27T11:00:46Z</time></trkpt><trkpt lat="44.80112962712195" lon="8.537754564942107"><ele>148.0</ele><time>2026-04-27T11:00:47Z</time></trkpt><trkpt lat="44.80134031910808" lon="8.537750983733973"><ele>147.0</ele><time>2026-04-27T11:00:48Z</time></trkpt><trkpt lat="44.80154754906882" lon="8.537744433447099"><ele>146.0</ele><time>2026-04-27T11:00:49Z</time></trkpt><trkpt lat="44.801758118253495" lon="8.537742769100914"><ele>145.33333333333331</ele><time>2026-04-27T11:00:50Z</time></trkpt><trkpt lat="44.801968932531146" lon="8.537738524782867"><ele>144.66666666666666</ele><time>2026-04-27T11:00:51Z</time></trkpt><trkpt lat="44.80217784197074" lon="8.537731290604977"><ele>144.0</ele><time>2026-04-27T11:00:52Z</time></trkpt><trkpt lat="44.802378600138326" lon="8.53772699769331"><ele>144.0</ele><time>2026-04-27T11:00:53Z</time></trkpt><trkpt lat="44.80257934453661" lon="8.537726442244075"><ele>144.0</ele><time>2026-04-27T11:00:54Z</time></trkpt><trkpt lat="44.80277578476072" lon="8.53772357899209"><ele>144.0</ele><time>2026-04-27T11:00:55Z</time></trkpt><trkpt lat="44.80297076092288" lon="8.537719697795797"><ele>144.0</ele><time>2026-04-27T11:00:56Z</time></trkpt><trkpt lat="44.80316607027261" lon="8.537712507341725"><ele>144.0</ele><time>2026-04-27T11:00:57Z</time></trkpt><trkpt lat="44.80336088058906" lon="8.537706620536929"><ele>144.0</ele><time>2026-04-27T11:00:58Z</time></trkpt><trkpt lat="44.803561240250616" lon="8.537704927785473"><ele>144.0</ele><time>2026-04-27T11:00:59Z</time></trkpt><trkpt lat="44.80376163847255" lon="8.537702546028967"><ele>144.0</ele><time>2026-04-27T11:01:00Z</time></trkpt><trkpt lat="44.80396346609468" lon="8.537697133146864"><ele>144.0</ele><time>2026-04-27T11:01:01Z</time></trkpt><trkpt lat="44.804168658053555" lon="8.537692745718283"><ele>144.0</ele><time>2026-04-27T11:01:02Z</time></trkpt><trkpt lat="44.80437255913669" lon="8.537685435365434"><ele>144.0</ele><time>2026-04-27T11:01:03Z</time></trkpt><trkpt lat="44.80458005841013" lon="8.53767795596471"><ele>144.0</ele><time>2026-04-27T11:01:04Z</time></trkpt><trkpt lat="44.804783199176114" lon="8.537671871004191"><ele>144.0</ele><time>2026-04-27T11:01:05Z</time></trkpt><trkpt lat="44.804995807010634" lon="8.537665513961851"><ele>144.0</ele><time>2026-04-27T11:01:06Z</time></trkpt><trkpt lat="44.80518480997532" lon="8.537667576291943"><ele>144.0</ele><time>2026-04-27T11:01:07Z</time></trkpt><trkpt lat="44.805379119224995" lon="8.537663599633479"><ele>143.0</ele><time>2026-04-27T11:01:08Z</time></trkpt><trkpt lat="44.80557092505092" lon="8.53766394705149"><ele>142.0</ele><time>2026-04-27T11:01:09Z</time></trkpt><trkpt lat="44.80575557631616" lon="8.537660875304038"><ele>141.0</ele><time>2026-04-27T11:01:10Z</time></trkpt><trkpt lat="44.8059433828502" lon="8.537656159678773"><ele>141.0</ele><time>2026-04-27T11:01:11Z</time></trkpt><trkpt lat="44.80613063593089" lon="8.537652225989843"><ele>141.0</ele><time>2026-04-27T11:01:12Z</time></trkpt><trkpt lat="44.80632019764044" lon="8.537646879978007"><ele>141.0</ele><time>2026-04-27T11:01:13Z</time></trkpt><trkpt lat="44.80651905990664" lon="8.537643423901402"><ele>141.0</ele><time>2026-04-27T11:01:14Z</time></trkpt><trkpt lat="44.806718278732426" lon="8.537637019383482"><ele>141.0</ele><time>2026-04-27T11:01:15Z</time></trkpt><trkpt lat="44.806920507016734" lon="8.537634739401083"><ele>141.0</ele><time>2026-04-27T11:01:16Z</time></trkpt><trkpt lat="44.807124316208956" lon="8.53763175538814"><ele>141.0</ele><time>2026-04-27T11:01:17Z</time></trkpt><trkpt lat="44.80733249389645" lon="8.53762748502583"><ele>141.0</ele><time>2026-04-27T11:01:18Z</time></trkpt><trkpt lat="44.80754195776549" lon="8.5376223195567"><ele>141.0</ele><time>2026-04-27T11:01:19Z</time></trkpt><trkpt lat="44.80775171539124" lon="8.537622643848076"><ele>139.66666666666666</ele><time>2026-04-27T11:01:20Z</time></trkpt><trkpt lat="44.807959203146886" lon="8.537618853034736"><ele>138.33333333333331</ele><time>2026-04-27T11:01:21Z</time></trkpt><trkpt lat="44.808163877366" lon="8.537612861346838"><ele>137.0</ele><time>2026-04-27T11:01:22Z</time></trkpt><trkpt lat="44.808367724189864" lon="8.537607236865222"><ele>136.0</ele><time>2026-04-27T11:01:23Z</time></trkpt><trkpt lat="44.80856716945918" lon="8.537603658654213"><ele>135.0</ele><time>2026-04-27T11:01:24Z</time></trkpt><trkpt lat="44.80876343548281" lon="8.537597630762928"><ele>134.0</ele><time>2026-04-27T11:01:25Z</time></trkpt><trkpt lat="44.80895640181548" lon="8.537594272946889"><ele>134.0</ele><time>2026-04-27T11:01:26Z</time></trkpt><trkpt lat="44.80914530488186" lon="8.537594940778654"><ele>134.0</ele><time>2026-04-27T11:01:27Z</time></trkpt><trkpt lat="44.8093372719142" lon="8.537594016202153"><ele>134.0</ele><time>2026-04-27T11:01:28Z</time></trkpt><trkpt lat="44.809531504616274" lon="8.537597114369047"><ele>132.66666666666666</ele><time>2026-04-27T11:01:29Z</time></trkpt><trkpt lat="44.809723901020035" lon="8.537602807716695"><ele>131.33333333333334</ele><time>2026-04-27T11:01:30Z</time></trkpt><trkpt lat="44.80991450194502" lon="8.537613751696645"><ele>130.0</ele><time>2026-04-27T11:01:31Z</time></trkpt><trkpt lat="44.81010876364888" lon="8.537627503726972"><ele>130.0</ele><time>2026-04-27T11:01:32Z</time></trkpt><trkpt lat="44.810301727966376" lon="8.537644899950106"><ele>130.0</ele><time>2026-04-27T11:01:33Z</time></trkpt><trkpt lat="44.810494102910084" lon="8.5376546665991"><ele>130.0</ele><time>2026-04-27T11:01:34Z</time></trkpt><trkpt lat="44.810685368787446" lon="8.537667656877261"><ele>130.0</ele><time>2026-04-27T11:01:35Z</time></trkpt><trkpt lat="44.810876612608375" lon="8.537682888870012"><ele>130.0</ele><time>2026-04-27T11:01:36Z</time></trkpt><trkpt lat="44.81106662336434" lon="8.537693962726596"><ele>130.0</ele><time>2026-04-27T11:01:37Z</time></trkpt><trkpt lat="44.81125726749956" lon="8.537706620751244"><ele>130.0</ele><time>2026-04-27T11:01:38Z</time></trkpt><trkpt lat="44.81145224833971" lon="8.537719011024828"><ele>130.0</ele><time>2026-04-27T11:01:39Z</time></trkpt><trkpt lat="44.81164588867737" lon="8.537737124749832"><ele>130.0</ele><time>2026-04-27T11:01:40Z</time></trkpt><trkpt lat="44.81183783871827" lon="8.537752572700663"><ele>129.33333333333334</ele><time>2026-04-27T11:01:41Z</time></trkpt><trkpt lat="44.812032191699956" lon="8.53776993860334"><ele>128.66666666666666</ele><time>2026-04-27T11:01:42Z</time></trkpt><trkpt lat="44.81222472985921" lon="8.537781311016875"><ele>128.0</ele><time>2026-04-27T11:01:43Z</time></trkpt><trkpt lat="44.81241634771615" lon="8.537794591374842"><ele>128.0</ele><time>2026-04-27T11:01:44Z</time></trkpt><trkpt lat="44.812606295808784" lon="8.537805676871624"><ele>128.0</ele><time>2026-04-27T11:01:45Z</time></trkpt><trkpt lat="44.81279588237423" lon="8.537820672028726"><ele>128.0</ele><time>2026-04-27T11:01:46Z</time></trkpt><trkpt lat="44.812988098260206" lon="8.537836019604967"><ele>126.0</ele><time>2026-04-27T11:01:47Z</time></trkpt><trkpt lat="44.81317948026253" lon="8.53785530620588"><ele>124.0</ele><time>2026-04-27T11:01:48Z</time></trkpt><trkpt lat="44.813365825852436" lon="8.537874563909035"><ele>122.0</ele><time>2026-04-27T11:01:49Z</time></trkpt><trkpt lat="44.81354994903618" lon="8.537891495745983"><ele>119.66666666666666</ele><time>2026-04-27T11:01:50Z</time></trkpt><trkpt lat="44.81372904361583" lon="8.537898025779283"><ele>117.33333333333334</ele><time>2026-04-27T11:01:51Z</time></trkpt><trkpt lat="44.81391098685257" lon="8.537909666846202"><ele>115.0</ele><time>2026-04-27T11:01:52Z</time></trkpt><trkpt lat="44.81409088279989" lon="8.537922920411047"><ele>115.0</ele><time>2026-04-27T11:01:53Z</time></trkpt><trkpt lat="44.81425942211736" lon="8.53793938010871"><ele>115.0</ele><time>2026-04-27T11:01:54Z</time></trkpt><trkpt lat="44.8144336008393" lon="8.53795456452809"><ele>115.0</ele><time>2026-04-27T11:01:55Z</time></trkpt><trkpt lat="44.814607729721594" lon="8.537972760207907"><ele>115.0</ele><time>2026-04-27T11:01:56Z</time></trkpt><trkpt lat="44.814783864563694" lon="8.538001853741976"><ele>115.0</ele><time>2026-04-27T11:01:57Z</time></trkpt><trkpt lat="44.81496680810654" lon="8.53803760426721"><ele>115.0</ele><time>2026-04-27T11:01:58Z</time></trkpt><trkpt lat="44.81514855425612" lon="8.538072429922465"><ele>114.66666666666667</ele><time>2026-04-27T11:01:59Z</time></trkpt><trkpt lat="44.81532445177568" lon="8.538114391389607"><ele>114.33333333333334</ele><time>2026-04-27T11:02:00Z</time></trkpt><trkpt lat="44.81550328138108" lon="8.538160428419276"><ele>114.0</ele><time>2026-04-27T11:02:01Z</time></trkpt><trkpt lat="44.81567268877941" lon="8.538203006246599"><ele>114.0</ele><time>2026-04-27T11:02:02Z</time></trkpt><trkpt lat="44.815842672022534" lon="8.53824851967929"><ele>114.0</ele><time>2026-04-27T11:02:03Z</time></trkpt><trkpt lat="44.816014517633015" lon="8.538293352861436"><ele>114.0</ele><time>2026-04-27T11:02:04Z</time></trkpt><trkpt lat="44.81617996456831" lon="8.538336324037607"><ele>113.33333333333334</ele><time>2026-04-27T11:02:05Z</time></trkpt><trkpt lat="44.81633991796975" lon="8.538378281474047"><ele>112.66666666666667</ele><time>2026-04-27T11:02:06Z</time></trkpt><trkpt lat="44.81650409575378" lon="8.53841870448009"><ele>112.0</ele><time>2026-04-27T11:02:07Z</time></trkpt><trkpt lat="44.8166667258435" lon="8.538459927501163"><ele>111.66666666666667</ele><time>2026-04-27T11:02:08Z</time></trkpt><trkpt lat="44.816826964813856" lon="8.538498187455813"><ele>111.33333333333334</ele><time>2026-04-27T11:02:09Z</time></trkpt><trkpt lat="44.81697926407975" lon="8.53853478367314"><ele>111.0</ele><time>2026-04-27T11:02:10Z</time></trkpt><trkpt lat="44.81714100578361" lon="8.538582376445747"><ele>111.0</ele><time>2026-04-27T11:02:11Z</time></trkpt><trkpt lat="44.817303914079055" lon="8.538623927573015"><ele>111.0</ele><time>2026-04-27T11:02:12Z</time></trkpt><trkpt lat="44.81746391776899" lon="8.538661143687182"><ele>111.0</ele><time>2026-04-27T11:02:13Z</time></trkpt><trkpt lat="44.8176292019514" lon="8.538704537562662"><ele>110.66666666666666</ele><time>2026-04-27T11:02:14Z</time></trkpt><trkpt lat="44.81779860600845" lon="8.538749122429737"><ele>110.33333333333333</ele><time>2026-04-27T11:02:15Z</time></trkpt><trkpt lat="44.817967196566805" lon="8.538791727203375"><ele>110.0</ele><time>2026-04-27T11:02:16Z</time></trkpt><trkpt lat="44.81814147113695" lon="8.5388414255613"><ele>110.0</ele><time>2026-04-27T11:02:17Z</time></trkpt><trkpt lat="44.81831766802986" lon="8.538883986583592"><ele>110.0</ele><time>2026-04-27T11:02:18Z</time></trkpt><trkpt lat="44.81849434055915" lon="8.538926949548724"><ele>110.0</ele><time>2026-04-27T11:02:19Z</time></trkpt><trkpt lat="44.81867412145595" lon="8.53897362882841"><ele>110.0</ele><time>2026-04-27T11:02:20Z</time></trkpt><trkpt lat="44.81885661647719" lon="8.539020384172188"><ele>110.0</ele><time>2026-04-27T11:02:21Z</time></trkpt><trkpt lat="44.81904181243321" lon="8.539068868467579"><ele>110.0</ele><time>2026-04-27T11:02:22Z</time></trkpt><trkpt lat="44.81923002493256" lon="8.539119281442293"><ele>110.33333333333333</ele><time>2026-04-27T11:02:23Z</time></trkpt><trkpt lat="44.81941833836104" lon="8.539167606990812"><ele>110.66666666666666</ele><time>2026-04-27T11:02:24Z</time></trkpt><trkpt lat="44.819603499829874" lon="8.539212894758332"><ele>111.0</ele><time>2026-04-27T11:02:25Z</time></trkpt><trkpt lat="44.8197922858701" lon="8.539263484315082"><ele>111.0</ele><time>2026-04-27T11:02:26Z</time></trkpt><trkpt lat="44.81998204562827" lon="8.539314660363763"><ele>111.0</ele><time>2026-04-27T11:02:27Z</time></trkpt><trkpt lat="44.82016510465137" lon="8.539360191050843"><ele>111.0</ele><time>2026-04-27T11:02:28Z</time></trkpt><trkpt lat="44.82034574383151" lon="8.53940874688282"><ele>111.66666666666666</ele><time>2026-04-27T11:02:29Z</time></trkpt><trkpt lat="44.82052023903358" lon="8.539453131738309"><ele>112.33333333333333</ele><time>2026-04-27T11:02:30Z</time></trkpt><trkpt lat="44.820695513361976" lon="8.539495853588178"><ele>113.0</ele><time>2026-04-27T11:02:31Z</time></trkpt><trkpt lat="44.82087242177386" lon="8.539542590180531"><ele>111.66666666666666</ele><time>2026-04-27T11:02:32Z</time></trkpt><trkpt lat="44.821048484409644" lon="8.539584012085697"><ele>110.33333333333334</ele><time>2026-04-27T11:02:33Z</time></trkpt><trkpt lat="44.821223761558954" lon="8.539632045820738"><ele>109.0</ele><time>2026-04-27T11:02:34Z</time></trkpt><trkpt lat="44.82139558022526" lon="8.539677404053824"><ele>109.0</ele><time>2026-04-27T11:02:35Z</time></trkpt><trkpt lat="44.82156952533829" lon="8.53972629631862"><ele>109.0</ele><time>2026-04-27T11:02:36Z</time></trkpt><trkpt lat="44.8217400694009" lon="8.539767688409347"><ele>109.0</ele><time>2026-04-27T11:02:37Z</time></trkpt><trkpt lat="44.82191216588278" lon="8.539811005672517"><ele>108.33333333333334</ele><time>2026-04-27T11:02:38Z</time></trkpt><trkpt lat="44.822087739162" lon="8.539855604962948"><ele>107.66666666666666</ele><time>2026-04-27T11:02:39Z</time></trkpt><trkpt lat="44.82226264227906" lon="8.539897301371774"><ele>107.0</ele><time>2026-04-27T11:02:40Z</time></trkpt><trkpt lat="44.8224420199205" lon="8.539949387150958"><ele>107.0</ele><time>2026-04-27T11:02:41Z</time></trkpt><trkpt lat="44.82262135934257" lon="8.53999833414621"><ele>107.0</ele><time>2026-04-27T11:02:42Z</time></trkpt><trkpt lat="44.82280558467847" lon="8.540053947932606"><ele>107.0</ele><time>2026-04-27T11:02:43Z</time></trkpt><trkpt lat="44.82298896611861" lon="8.540099412801771"><ele>107.0</ele><time>2026-04-27T11:02:44Z</time></trkpt><trkpt lat="44.82317395725594" lon="8.540144487133704"><ele>107.0</ele><time>2026-04-27T11:02:45Z</time></trkpt><trkpt lat="44.82335341564571" lon="8.540188724052113"><ele>107.0</ele><time>2026-04-27T11:02:46Z</time></trkpt><trkpt lat="44.82354012368305" lon="8.540236380362881"><ele>106.66666666666666</ele><time>2026-04-27T11:02:47Z</time></trkpt><trkpt lat="44.823724793759204" lon="8.540285670409512"><ele>106.33333333333334</ele><time>2026-04-27T11:02:48Z</time></trkpt><trkpt lat="44.82390797041488" lon="8.540337393893394"><ele>106.0</ele><time>2026-04-27T11:02:49Z</time></trkpt><trkpt lat="44.824088622900746" lon="8.54038135960953"><ele>106.33333333333334</ele><time>2026-04-27T11:02:50Z</time></trkpt><trkpt lat="44.82427182166781" lon="8.540429899930679"><ele>106.66666666666666</ele><time>2026-04-27T11:02:51Z</time></trkpt><trkpt lat="44.824446650778114" lon="8.54047569931028"><ele>107.0</ele><time>2026-04-27T11:02:52Z</time></trkpt><trkpt lat="44.82462453978631" lon="8.54052090751522"><ele>107.33333333333333</ele><time>2026-04-27T11:02:53Z</time></trkpt><trkpt lat="44.82480091642547" lon="8.540567172890947"><ele>107.66666666666666</ele><time>2026-04-27T11:02:54Z</time></trkpt><trkpt lat="44.82498038193228" lon="8.540614143682218"><ele>108.0</ele><time>2026-04-27T11:02:55Z</time></trkpt><trkpt lat="44.825160901155655" lon="8.540662265035353"><ele>107.33333333333334</ele><time>2026-04-27T11:02:56Z</time></trkpt><trkpt lat="44.82534017164648" lon="8.540708913243405"><ele>106.66666666666667</ele><time>2026-04-27T11:02:57Z</time></trkpt><trkpt lat="44.82551842068275" lon="8.540752317745406"><ele>106.0</ele><time>2026-04-27T11:02:58Z</time></trkpt><trkpt lat="44.82569712595242" lon="8.540797088178877"><ele>106.0</ele><time>2026-04-27T11:02:59Z</time></trkpt><trkpt lat="44.82587714022584" lon="8.540841267690848"><ele>106.0</ele><time>2026-04-27T11:03:00Z</time></trkpt><trkpt lat="44.82605549147464" lon="8.540885431610864"><ele>106.0</ele><time>2026-04-27T11:03:01Z</time></trkpt><trkpt lat="44.826236786827835" lon="8.540938085983484"><ele>106.0</ele><time>2026-04-27T11:03:02Z</time></trkpt><trkpt lat="44.826414408901535" lon="8.540984336384053"><ele>106.0</ele><time>2026-04-27T11:03:03Z</time></trkpt><trkpt lat="44.82658971180177" lon="8.541031113972009"><ele>106.0</ele><time>2026-04-27T11:03:04Z</time></trkpt><trkpt lat="44.82676525155672" lon="8.541078265309732"><ele>106.0</ele><time>2026-04-27T11:03:05Z</time></trkpt><trkpt lat="44.82693480785599" lon="8.541122945555136"><ele>106.0</ele><time>2026-04-27T11:03:06Z</time></trkpt><trkpt lat="44.82710603154024" lon="8.54116840242024"><ele>106.0</ele><time>2026-04-27T11:03:07Z</time></trkpt><trkpt lat="44.82727939586676" lon="8.541215939772897"><ele>106.0</ele><time>2026-04-27T11:03:08Z</time></trkpt><trkpt lat="44.82745208247523" lon="8.541260564889724"><ele>106.0</ele><time>2026-04-27T11:03:09Z</time></trkpt><trkpt lat="44.82763018474368" lon="8.541307277201065"><ele>106.0</ele><time>2026-04-27T11:03:10Z</time></trkpt><trkpt lat="44.827808361167016" lon="8.541352542102272"><ele>106.0</ele><time>2026-04-27T11:03:11Z</time></trkpt><trkpt lat="44.82798515907848" lon="8.541395975102672"><ele>106.0</ele><time>2026-04-27T11:03:12Z</time></trkpt><trkpt lat="44.82815988687833" lon="8.541439402216033"><ele>106.0</ele><time>2026-04-27T11:03:13Z</time></trkpt><trkpt lat="44.828340029530146" lon="8.541487529038399"><ele>105.66666666666667</ele><time>2026-04-27T11:03:14Z</time></trkpt><trkpt lat="44.82851868604932" lon="8.54153274089065"><ele>105.33333333333334</ele><time>2026-04-27T11:03:15Z</time></trkpt><trkpt lat="44.82870139448991" lon="8.541581852182782"><ele>105.0</ele><time>2026-04-27T11:03:16Z</time></trkpt><trkpt lat="44.82887305536778" lon="8.541623987102135"><ele>105.0</ele><time>2026-04-27T11:03:17Z</time></trkpt><trkpt lat="44.82904042795302" lon="8.541673895494137"><ele>105.0</ele><time>2026-04-27T11:03:18Z</time></trkpt><trkpt lat="44.829208588808456" lon="8.541719812463313"><ele>105.0</ele><time>2026-04-27T11:03:19Z</time></trkpt><trkpt lat="44.829377772724825" lon="8.5417634307292"><ele>104.33333333333334</ele><time>2026-04-27T11:03:20Z</time></trkpt><trkpt lat="44.829548579977576" lon="8.54180925205634"><ele>103.66666666666667</ele><time>2026-04-27T11:03:21Z</time></trkpt><trkpt lat="44.82971794648085" lon="8.541853311814458"><ele>103.0</ele><time>2026-04-27T11:03:22Z</time></trkpt><trkpt lat="44.829895066305774" lon="8.541901773141733"><ele>103.0</ele><time>2026-04-27T11:03:23Z</time></trkpt><trkpt lat="44.830076764180724" lon="8.541947351404152"><ele>103.0</ele><time>2026-04-27T11:03:24Z</time></trkpt><trkpt lat="44.83025769888688" lon="8.541991812830656"><ele>103.0</ele><time>2026-04-27T11:03:25Z</time></trkpt><trkpt lat="44.83043651424041" lon="8.54203798550655"><ele>103.33333333333334</ele><time>2026-04-27T11:03:26Z</time></trkpt><trkpt lat="44.83061367560819" lon="8.542083620714068"><ele>103.66666666666666</ele><time>2026-04-27T11:03:27Z</time></trkpt><trkpt lat="44.830793217220496" lon="8.54213068906322"><ele>104.0</ele><time>2026-04-27T11:03:28Z</time></trkpt><trkpt lat="44.83097043617836" lon="8.542176840171177"><ele>104.33333333333333</ele><time>2026-04-27T11:03:29Z</time></trkpt><trkpt lat="44.83114985691484" lon="8.542223747010995"><ele>104.66666666666666</ele><time>2026-04-27T11:03:30Z</time></trkpt><trkpt lat="44.83132801719668" lon="8.54227472381887"><ele>105.0</ele><time>2026-04-27T11:03:31Z</time></trkpt><trkpt lat="44.83150247989377" lon="8.542323127499312"><ele>105.0</ele><time>2026-04-27T11:03:32Z</time></trkpt><trkpt lat="44.831679230337976" lon="8.542365887618082"><ele>105.0</ele><time>2026-04-27T11:03:33Z</time></trkpt><trkpt lat="44.83185506778291" lon="8.5424059977126"><ele>105.0</ele><time>2026-04-27T11:03:34Z</time></trkpt><trkpt lat="44.83202929219239" lon="8.54244610632066"><ele>105.0</ele><time>2026-04-27T11:03:35Z</time></trkpt><trkpt lat="44.832208338056454" lon="8.54250054365609"><ele>105.0</ele><time>2026-04-27T11:03:36Z</time></trkpt><trkpt lat="44.83238570967449" lon="8.542554633483293"><ele>105.0</ele><time>2026-04-27T11:03:37Z</time></trkpt><trkpt lat="44.83256065138619" lon="8.54260874318561"><ele>104.33333333333334</ele><time>2026-04-27T11:03:38Z</time></trkpt><trkpt lat="44.83273876132371" lon="8.542663734006858"><ele>103.66666666666667</ele><time>2026-04-27T11:03:39Z</time></trkpt><trkpt lat="44.83291548066114" lon="8.54271837071601"><ele>103.0</ele><time>2026-04-27T11:03:40Z</time></trkpt><trkpt lat="44.83309388116057" lon="8.542783388057376"><ele>103.0</ele><time>2026-04-27T11:03:41Z</time></trkpt><trkpt lat="44.83327407097015" lon="8.542844899246349"><ele>103.0</ele><time>2026-04-27T11:03:42Z</time></trkpt><trkpt lat="44.83345645280306" lon="8.542914631278611"><ele>103.0</ele><time>2026-04-27T11:03:43Z</time></trkpt><trkpt lat="44.83364106738217" lon="8.54298852064481"><ele>103.33333333333334</ele><time>2026-04-27T11:03:44Z</time></trkpt><trkpt lat="44.83383198163442" lon="8.543079428502935"><ele>103.66666666666666</ele><time>2026-04-27T11:03:45Z</time></trkpt><trkpt lat="44.83402613153921" lon="8.543201048588807"><ele>104.0</ele><time>2026-04-27T11:03:46Z</time></trkpt><trkpt lat="44.834258996550666" lon="8.543350222746975"><ele>104.5</ele><time>2026-04-27T11:03:47Z</time></trkpt><trkpt lat="44.83453089907143" lon="8.543506470439356"><ele>105.0</ele><time>2026-04-27T11:03:48Z</time></trkpt><trkpt lat="44.83481083865946" lon="8.543634894914126"><ele>105.0</ele><time>2026-04-27T11:03:49Z</time></trkpt><trkpt lat="44.83505433141863" lon="8.543606926201539"><ele>105.0</ele><time>2026-04-27T11:03:50Z</time></trkpt><trkpt lat="44.83534549289043" lon="8.543720455134801"><ele>105.0</ele><time>2026-04-27T11:03:51Z</time></trkpt><trkpt lat="44.83559464460119" lon="8.543849479137968"><ele>105.0</ele><time>2026-04-27T11:03:52Z</time></trkpt><trkpt lat="44.83583057278065" lon="8.54393930199692"><ele>104.0</ele><time>2026-04-27T11:03:53Z</time></trkpt><trkpt lat="44.83606306357946" lon="8.544007938856115"><ele>103.0</ele><time>2026-04-27T11:03:54Z</time></trkpt><trkpt lat="44.83629907790981" lon="8.544068134756623"><ele>103.0</ele><time>2026-04-27T11:03:55Z</time></trkpt><trkpt lat="44.83653087791684" lon="8.544121464846848"><ele>103.0</ele><time>2026-04-27T11:03:56Z</time></trkpt><trkpt lat="44.83676264959808" lon="8.544174848288257"><ele>103.0</ele><time>2026-04-27T11:03:57Z</time></trkpt><trkpt lat="44.836991809655736" lon="8.544212706244807"><ele>103.0</ele><time>2026-04-27T11:03:58Z</time></trkpt><trkpt lat="44.83721972388272" lon="8.544243567967355"><ele>103.0</ele><time>2026-04-27T11:03:59Z</time></trkpt><trkpt lat="44.837450109568145" lon="8.54426672507589"><ele>103.0</ele><time>2026-04-27T11:04:00Z</time></trkpt><trkpt lat="44.83767357845066" lon="8.544282051257877"><ele>102.33333333333334</ele><time>2026-04-27T11:04:01Z</time></trkpt><trkpt lat="44.83789579361346" lon="8.544286713594817"><ele>101.66666666666666</ele><time>2026-04-27T11:04:02Z</time></trkpt><trkpt lat="44.838119936113024" lon="8.544283286676851"><ele>101.0</ele><time>2026-04-27T11:04:03Z</time></trkpt><trkpt lat="44.83834576385125" lon="8.544279895724937"><ele>101.0</ele><time>2026-04-27T11:04:04Z</time></trkpt><trkpt lat="44.838569401070096" lon="8.544272610312538"><ele>101.0</ele><time>2026-04-27T11:04:05Z</time></trkpt><trkpt lat="44.8387905041307" lon="8.544258970650741"><ele>101.0</ele><time>2026-04-27T11:04:06Z</time></trkpt><trkpt lat="44.83900584306278" lon="8.544242754766074"><ele>101.0</ele><time>2026-04-27T11:04:07Z</time></trkpt><trkpt lat="44.83921808432681" lon="8.544228708465136"><ele>101.0</ele><time>2026-04-27T11:04:08Z</time></trkpt><trkpt lat="44.83942957704519" lon="8.544203358068726"><ele>101.0</ele><time>2026-04-27T11:04:09Z</time></trkpt><trkpt lat="44.83964440883046" lon="8.544179669348967"><ele>101.33333333333333</ele><time>2026-04-27T11:04:10Z</time></trkpt><trkpt lat="44.839861425482034" lon="8.544158158523915"><ele>101.66666666666666</ele><time>2026-04-27T11:04:11Z</time></trkpt><trkpt lat="44.84007593060378" lon="8.544124011192672"><ele>102.0</ele><time>2026-04-27T11:04:12Z</time></trkpt><trkpt lat="44.8402933108914" lon="8.544081751961054"><ele>102.33333333333334</ele><time>2026-04-27T11:04:13Z</time></trkpt><trkpt lat="44.84050317918538" lon="8.544047446201104"><ele>102.66666666666667</ele><time>2026-04-27T11:04:14Z</time></trkpt><trkpt lat="44.84070675093376" lon="8.544006049228013"><ele>103.0</ele><time>2026-04-27T11:04:15Z</time></trkpt><trkpt lat="44.84090467399329" lon="8.543962389078152"><ele>102.66666666666667</ele><time>2026-04-27T11:04:16Z</time></trkpt><trkpt lat="44.841094794886544" lon="8.54391826357707"><ele>102.33333333333334</ele><time>2026-04-27T11:04:17Z</time></trkpt><trkpt lat="44.84128157707313" lon="8.543876724226315"><ele>102.0</ele><time>2026-04-27T11:04:18Z</time></trkpt><trkpt lat="44.841473117177976" lon="8.54383232498913"><ele>102.0</ele><time>2026-04-27T11:04:19Z</time></trkpt><trkpt lat="44.8416591300985" lon="8.543791200354176"><ele>102.0</ele><time>2026-04-27T11:04:20Z</time></trkpt><trkpt lat="44.841850938793186" lon="8.543747041103634"><ele>102.0</ele><time>2026-04-27T11:04:21Z</time></trkpt><trkpt lat="44.842043826013544" lon="8.54368897453792"><ele>102.66666666666666</ele><time>2026-04-27T11:04:22Z</time></trkpt><trkpt lat="44.842237325450576" lon="8.543631658607085"><ele>103.33333333333333</ele><time>2026-04-27T11:04:23Z</time></trkpt><trkpt lat="44.842433807977756" lon="8.54356670953934"><ele>104.0</ele><time>2026-04-27T11:04:24Z</time></trkpt><trkpt lat="44.84263096057863" lon="8.543501597393295"><ele>103.33333333333333</ele><time>2026-04-27T11:04:25Z</time></trkpt><trkpt lat="44.842836345511536" lon="8.54342772453482"><ele>102.66666666666666</ele><time>2026-04-27T11:04:26Z</time></trkpt><trkpt lat="44.843039689153855" lon="8.543354113634884"><ele>102.0</ele><time>2026-04-27T11:04:27Z</time></trkpt><trkpt lat="44.84324032702987" lon="8.543278867286729"><ele>102.0</ele><time>2026-04-27T11:04:28Z</time></trkpt><trkpt lat="44.843441232587274" lon="8.543199639491402"><ele>102.0</ele><time>2026-04-27T11:04:29Z</time></trkpt><trkpt lat="44.84364018531082" lon="8.543121424142429"><ele>102.0</ele><time>2026-04-27T11:04:30Z</time></trkpt><trkpt lat="44.843841603480726" lon="8.543034811764786"><ele>102.33333333333334</ele><time>2026-04-27T11:04:31Z</time></trkpt><trkpt lat="44.844022549158765" lon="8.542958354337847"><ele>102.66666666666667</ele><time>2026-04-27T11:04:32Z</time></trkpt><trkpt lat="44.844204526505116" lon="8.542893862788707"><ele>103.0</ele><time>2026-04-27T11:04:33Z</time></trkpt><trkpt lat="44.84438306373288" lon="8.542848466417528"><ele>103.33333333333334</ele><time>2026-04-27T11:04:34Z</time></trkpt><trkpt lat="44.84457061843541" lon="8.542807144046373"><ele>103.66666666666666</ele><time>2026-04-27T11:04:35Z</time></trkpt><trkpt lat="44.84476526232637" lon="8.542779518379103"><ele>104.0</ele><time>2026-04-27T11:04:36Z</time></trkpt><trkpt lat="44.844945983397" lon="8.542758055796469"><ele>104.0</ele><time>2026-04-27T11:04:37Z</time></trkpt><trkpt lat="44.84512620542256" lon="8.542733843922248"><ele>104.0</ele><time>2026-04-27T11:04:38Z</time></trkpt><trkpt lat="44.845309402143286" lon="8.542723136837163"><ele>104.0</ele><time>2026-04-27T11:04:39Z</time></trkpt><trkpt lat="44.845495060938774" lon="8.542721075187755"><ele>104.0</ele><time>2026-04-27T11:04:40Z</time></trkpt><trkpt lat="44.845679347831634" lon="8.54272158688188"><ele>104.0</ele><time>2026-04-27T11:04:41Z</time></trkpt><trkpt lat="44.84586472554138" lon="8.542727297417585"><ele>104.0</ele><time>2026-04-27T11:04:42Z</time></trkpt><trkpt lat="44.84605504500214" lon="8.542742176525785"><ele>104.0</ele><time>2026-04-27T11:04:43Z</time></trkpt><trkpt lat="44.84624016336326" lon="8.54277530900012"><ele>104.0</ele><time>2026-04-27T11:04:44Z</time></trkpt><trkpt lat="44.84642406021226" lon="8.542815325410485"><ele>104.0</ele><time>2026-04-27T11:04:45Z</time></trkpt><trkpt lat="44.8466111658292" lon="8.542852775733543"><ele>103.66666666666666</ele><time>2026-04-27T11:04:46Z</time></trkpt><trkpt lat="44.84677967836961" lon="8.542884315478494"><ele>103.33333333333334</ele><time>2026-04-27T11:04:47Z</time></trkpt><trkpt lat="44.84694959238018" lon="8.542933248633618"><ele>103.0</ele><time>2026-04-27T11:04:48Z</time></trkpt><trkpt lat="44.847120957673155" lon="8.542991207947697"><ele>102.66666666666667</ele><time>2026-04-27T11:04:49Z</time></trkpt><trkpt lat="44.847290001197294" lon="8.543056396463934"><ele>102.33333333333334</ele><time>2026-04-27T11:04:50Z</time></trkpt><trkpt lat="44.84744806902875" lon="8.543124142767331"><ele>102.0</ele><time>2026-04-27T11:04:51Z</time></trkpt><trkpt lat="44.84760629328978" lon="8.543208388788555"><ele>102.0</ele><time>2026-04-27T11:04:52Z</time></trkpt><trkpt lat="44.8477677690068" lon="8.543292832820491"><ele>102.0</ele><time>2026-04-27T11:04:53Z</time></trkpt><trkpt lat="44.84792914865444" lon="8.543382406528433"><ele>102.0</ele><time>2026-04-27T11:04:54Z</time></trkpt><trkpt lat="44.84809241720637" lon="8.54347969184878"><ele>102.0</ele><time>2026-04-27T11:04:55Z</time></trkpt><trkpt lat="44.848253754300934" lon="8.54358231586248"><ele>102.0</ele><time>2026-04-27T11:04:56Z</time></trkpt><trkpt lat="44.848416590128046" lon="8.543690211632942"><ele>102.0</ele><time>2026-04-27T11:04:57Z</time></trkpt><trkpt lat="44.84857538976616" lon="8.543806851704607"><ele>102.66666666666666</ele><time>2026-04-27T11:04:58Z</time></trkpt><trkpt lat="44.848725279910965" lon="8.543937085019015"><ele>103.33333333333333</ele><time>2026-04-27T11:04:59Z</time></trkpt><trkpt lat="44.8488775704069" lon="8.544074693373464"><ele>104.0</ele><time>2026-04-27T11:05:00Z</time></trkpt><trkpt lat="44.84902662716587" lon="8.544207132292295"><ele>104.0</ele><time>2026-04-27T11:05:01Z</time></trkpt><trkpt lat="44.8491720712202" lon="8.54433274116191"><ele>104.0</ele><time>2026-04-27T11:05:02Z</time></trkpt><trkpt lat="44.84931471404417" lon="8.544457426060518"><ele>104.0</ele><time>2026-04-27T11:05:03Z</time></trkpt><trkpt lat="44.849461192941526" lon="8.544591177628156"><ele>104.0</ele><time>2026-04-27T11:05:04Z</time></trkpt><trkpt lat="44.84960588769461" lon="8.54471302601481"><ele>104.0</ele><time>2026-04-27T11:05:05Z</time></trkpt><trkpt lat="44.84975292805546" lon="8.544843817520722"><ele>104.0</ele><time>2026-04-27T11:05:06Z</time></trkpt><trkpt lat="44.849901863847435" lon="8.544970017742697"><ele>104.0</ele><time>2026-04-27T11:05:07Z</time></trkpt><trkpt lat="44.850053826455074" lon="8.545098517449679"><ele>104.0</ele><time>2026-04-27T11:05:08Z</time></trkpt><trkpt lat="44.850208745213344" lon="8.545232481105261"><ele>104.0</ele><time>2026-04-27T11:05:09Z</time></trkpt><trkpt lat="44.850359995224686" lon="8.545367843540609"><ele>104.0</ele><time>2026-04-27T11:05:10Z</time></trkpt><trkpt lat="44.85050995636023" lon="8.545511771151837"><ele>104.0</ele><time>2026-04-27T11:05:11Z</time></trkpt><trkpt lat="44.850666490701386" lon="8.545667827885598"><ele>104.0</ele><time>2026-04-27T11:05:12Z</time></trkpt><trkpt lat="44.850815258933736" lon="8.545824329027134"><ele>104.0</ele><time>2026-04-27T11:05:13Z</time></trkpt><trkpt lat="44.850970406845335" lon="8.54597709864856"><ele>104.0</ele><time>2026-04-27T11:05:14Z</time></trkpt><trkpt lat="44.85112575910973" lon="8.546138345034274"><ele>104.0</ele><time>2026-04-27T11:05:15Z</time></trkpt><trkpt lat="44.85128601800806" lon="8.5463040888793"><ele>103.33333333333333</ele><time>2026-04-27T11:05:16Z</time></trkpt><trkpt lat="44.85144766961025" lon="8.546465551537953"><ele>102.66666666666666</ele><time>2026-04-27T11:05:17Z</time></trkpt><trkpt lat="44.85161315951351" lon="8.546627108492793"><ele>102.0</ele><time>2026-04-27T11:05:18Z</time></trkpt><trkpt lat="44.851774519865636" lon="8.546789995477411"><ele>102.0</ele><time>2026-04-27T11:05:19Z</time></trkpt><trkpt lat="44.85193647555128" lon="8.5469584586668"><ele>102.0</ele><time>2026-04-27T11:05:20Z</time></trkpt><trkpt lat="44.852098890868" lon="8.547127054885829"><ele>102.0</ele><time>2026-04-27T11:05:21Z</time></trkpt><trkpt lat="44.852278761975406" lon="8.547311872572777"><ele>101.66666666666666</ele><time>2026-04-27T11:05:22Z</time></trkpt><trkpt lat="44.852436436192846" lon="8.547475791323626"><ele>101.33333333333333</ele><time>2026-04-27T11:05:23Z</time></trkpt><trkpt lat="44.852592950614486" lon="8.547643973965306"><ele>101.0</ele><time>2026-04-27T11:05:24Z</time></trkpt><trkpt lat="44.8527448766676" lon="8.547812358707503"><ele>100.33333333333333</ele><time>2026-04-27T11:05:25Z</time></trkpt><trkpt lat="44.852888392890456" lon="8.547969720573995"><ele>99.66666666666666</ele><time>2026-04-27T11:05:26Z</time></trkpt><trkpt lat="44.85303359887308" lon="8.548125626149455"><ele>99.0</ele><time>2026-04-27T11:05:27Z</time></trkpt><trkpt lat="44.85317599410444" lon="8.548280965546176"><ele>99.0</ele><time>2026-04-27T11:05:28Z</time></trkpt><trkpt lat="44.853312837586444" lon="8.548439145573463"><ele>99.0</ele><time>2026-04-27T11:05:29Z</time></trkpt><trkpt lat="44.85345394744259" lon="8.548601743874325"><ele>99.0</ele><time>2026-04-27T11:05:30Z</time></trkpt><trkpt lat="44.85359605499238" lon="8.548771934126792"><ele>99.0</ele><time>2026-04-27T11:05:31Z</time></trkpt><trkpt lat="44.85373573990789" lon="8.548929095344"><ele>99.0</ele><time>2026-04-27T11:05:32Z</time></trkpt><trkpt lat="44.85387455260077" lon="8.549090302923531"><ele>99.0</ele><time>2026-04-27T11:05:33Z</time></trkpt><trkpt lat="44.85401338354411" lon="8.549253700896939"><ele>99.0</ele><time>2026-04-27T11:05:34Z</time></trkpt><trkpt lat="44.854151207211714" lon="8.549417897265396"><ele>99.0</ele><time>2026-04-27T11:05:35Z</time></trkpt><trkpt lat="44.85429221163329" lon="8.549585656646594"><ele>99.0</ele><time>2026-04-27T11:05:36Z</time></trkpt><trkpt lat="44.85441981587957" lon="8.549759398590881"><ele>99.33333333333334</ele><time>2026-04-27T11:05:37Z</time></trkpt><trkpt lat="44.854556200851434" lon="8.549920402677445"><ele>99.66666666666667</ele><time>2026-04-27T11:05:38Z</time></trkpt><trkpt lat="44.85469967286401" lon="8.550089424385792"><ele>100.0</ele><time>2026-04-27T11:05:39Z</time></trkpt><trkpt lat="44.85483391583977" lon="8.550259419584012"><ele>100.0</ele><time>2026-04-27T11:05:40Z</time></trkpt><trkpt lat="44.85497335475333" lon="8.55043420846207"><ele>100.0</ele><time>2026-04-27T11:05:41Z</time></trkpt><trkpt lat="44.8551108376876" lon="8.550605388631448"><ele>100.0</ele><time>2026-04-27T11:05:42Z</time></trkpt><trkpt lat="44.85524935393227" lon="8.550781033260387"><ele>100.0</ele><time>2026-04-27T11:05:43Z</time></trkpt><trkpt lat="44.85538838955777" lon="8.550962330999987"><ele>100.0</ele><time>2026-04-27T11:05:44Z</time></trkpt><trkpt lat="44.85552660722102" lon="8.551139510277643"><ele>100.0</ele><time>2026-04-27T11:05:45Z</time></trkpt><trkpt lat="44.855663630523566" lon="8.5513116000005"><ele>100.0</ele><time>2026-04-27T11:05:46Z</time></trkpt><trkpt lat="44.85580263144909" lon="8.551490764797503"><ele>100.0</ele><time>2026-04-27T11:05:47Z</time></trkpt><trkpt lat="44.85593642566353" lon="8.551665187339722"><ele>100.0</ele><time>2026-04-27T11:05:48Z</time></trkpt><trkpt lat="44.85607287522347" lon="8.551851556405255"><ele>100.33333333333334</ele><time>2026-04-27T11:05:49Z</time></trkpt><trkpt lat="44.85620528664765" lon="8.552035158902894"><ele>100.66666666666666</ele><time>2026-04-27T11:05:50Z</time></trkpt><trkpt lat="44.85633757572995" lon="8.552211413659016"><ele>101.0</ele><time>2026-04-27T11:05:51Z</time></trkpt><trkpt lat="44.85647211487475" lon="8.552397473328163"><ele>101.0</ele><time>2026-04-27T11:05:52Z</time></trkpt><trkpt lat="44.856602014947796" lon="8.5525728530045"><ele>101.0</ele><time>2026-04-27T11:05:53Z</time></trkpt><trkpt lat="44.856738513588915" lon="8.552760362501147"><ele>101.0</ele><time>2026-04-27T11:05:54Z</time></trkpt><trkpt lat="44.856860740341524" lon="8.552941929888984"><ele>102.33333333333333</ele><time>2026-04-27T11:05:55Z</time></trkpt><trkpt lat="44.85698730369059" lon="8.553126171213195"><ele>103.66666666666666</ele><time>2026-04-27T11:05:56Z</time></trkpt><trkpt lat="44.85711382623263" lon="8.553308957520978"><ele>105.0</ele><time>2026-04-27T11:05:57Z</time></trkpt><trkpt lat="44.857244023603194" lon="8.553486582575559"><ele>105.0</ele><time>2026-04-27T11:05:58Z</time></trkpt><trkpt lat="44.857370451904984" lon="8.553661998242333"><ele>105.0</ele><time>2026-04-27T11:05:59Z</time></trkpt><trkpt lat="44.857497401065324" lon="8.553844203627513"><ele>105.0</ele><time>2026-04-27T11:06:00Z</time></trkpt><trkpt lat="44.85761841939388" lon="8.554030449591787"><ele>104.33333333333334</ele><time>2026-04-27T11:06:01Z</time></trkpt><trkpt lat="44.85774504352049" lon="8.554216349560651"><ele>103.66666666666667</ele><time>2026-04-27T11:06:02Z</time></trkpt><trkpt lat="44.857874162095264" lon="8.554410103568024"><ele>103.0</ele><time>2026-04-27T11:06:03Z</time></trkpt><trkpt lat="44.857996007191566" lon="8.554603383870026"><ele>103.0</ele><time>2026-04-27T11:06:04Z</time></trkpt><trkpt lat="44.85812054213867" lon="8.554802990781809"><ele>103.0</ele><time>2026-04-27T11:06:05Z</time></trkpt><trkpt lat="44.858248382225874" lon="8.554997793491987"><ele>103.0</ele><time>2026-04-27T11:06:06Z</time></trkpt><trkpt lat="44.85837410822593" lon="8.555190980692366"><ele>103.66666666666667</ele><time>2026-04-27T11:06:07Z</time></trkpt><trkpt lat="44.85849862913072" lon="8.555386823651498"><ele>104.33333333333334</ele><time>2026-04-27T11:06:08Z</time></trkpt><trkpt lat="44.85862183490816" lon="8.555583144674825"><ele>105.0</ele><time>2026-04-27T11:06:09Z</time></trkpt><trkpt lat="44.85874385520019" lon="8.55578022073567"><ele>105.0</ele><time>2026-04-27T11:06:10Z</time></trkpt><trkpt lat="44.85886776248889" lon="8.555975735908891"><ele>105.0</ele><time>2026-04-27T11:06:11Z</time></trkpt><trkpt lat="44.8589909432746" lon="8.556173873068136"><ele>105.0</ele><time>2026-04-27T11:06:12Z</time></trkpt><trkpt lat="44.85910972775432" lon="8.55637569636614"><ele>105.66666666666666</ele><time>2026-04-27T11:06:13Z</time></trkpt><trkpt lat="44.85923259248502" lon="8.556580836255428"><ele>106.33333333333333</ele><time>2026-04-27T11:06:14Z</time></trkpt><trkpt lat="44.859358004998974" lon="8.55678944952912"><ele>107.0</ele><time>2026-04-27T11:06:15Z</time></trkpt><trkpt lat="44.859480030444324" lon="8.556998439993206"><ele>105.33333333333333</ele><time>2026-04-27T11:06:16Z</time></trkpt><trkpt lat="44.859603751229116" lon="8.557205444001827"><ele>103.66666666666666</ele><time>2026-04-27T11:06:17Z</time></trkpt><trkpt lat="44.859723454794306" lon="8.55742047424398"><ele>102.0</ele><time>2026-04-27T11:06:18Z</time></trkpt><trkpt lat="44.85984456141546" lon="8.557640159140952"><ele>102.0</ele><time>2026-04-27T11:06:19Z</time></trkpt><trkpt lat="44.85996648998619" lon="8.557852913034907"><ele>102.0</ele><time>2026-04-27T11:06:20Z</time></trkpt><trkpt lat="44.86008650058281" lon="8.55806927658331"><ele>102.0</ele><time>2026-04-27T11:06:21Z</time></trkpt><trkpt lat="44.86020488089201" lon="8.558281225284741"><ele>101.66666666666666</ele><time>2026-04-27T11:06:22Z</time></trkpt><trkpt lat="44.86032408964153" lon="8.558497666883195"><ele>101.33333333333333</ele><time>2026-04-27T11:06:23Z</time></trkpt><trkpt lat="44.86044155800325" lon="8.558715447645161"><ele>101.0</ele><time>2026-04-27T11:06:24Z</time></trkpt><trkpt lat="44.86056174339443" lon="8.558929881459042"><ele>101.0</ele><time>2026-04-27T11:06:25Z</time></trkpt><trkpt lat="44.86068549551865" lon="8.559146404668548"><ele>101.0</ele><time>2026-04-27T11:06:26Z</time></trkpt><trkpt lat="44.86080205733561" lon="8.559356133159834"><ele>101.0</ele><time>2026-04-27T11:06:27Z</time></trkpt><trkpt lat="44.86091602438786" lon="8.559574833244591"><ele>100.33333333333333</ele><time>2026-04-27T11:06:28Z</time></trkpt><trkpt lat="44.86102694337563" lon="8.559792764423303"><ele>99.66666666666666</ele><time>2026-04-27T11:06:29Z</time></trkpt><trkpt lat="44.86114135028583" lon="8.560011041554349"><ele>99.0</ele><time>2026-04-27T11:06:30Z</time></trkpt><trkpt lat="44.86125604354037" lon="8.560233077401833"><ele>99.0</ele><time>2026-04-27T11:06:31Z</time></trkpt><trkpt lat="44.8613710044098" lon="8.560453874190559"><ele>99.0</ele><time>2026-04-27T11:06:32Z</time></trkpt><trkpt lat="44.861484154765485" lon="8.560672869088854"><ele>99.0</ele><time>2026-04-27T11:06:33Z</time></trkpt><trkpt lat="44.86159563773044" lon="8.560891210672848"><ele>99.0</ele><time>2026-04-27T11:06:34Z</time></trkpt><trkpt lat="44.861703015218104" lon="8.561107880704625"><ele>99.0</ele><time>2026-04-27T11:06:35Z</time></trkpt><trkpt lat="44.86181363331631" lon="8.561331668016155"><ele>99.0</ele><time>2026-04-27T11:06:36Z</time></trkpt><trkpt lat="44.86192243797659" lon="8.561558003924084"><ele>99.0</ele><time>2026-04-27T11:06:37Z</time></trkpt><trkpt lat="44.862034416178545" lon="8.561790449179309"><ele>99.0</ele><time>2026-04-27T11:06:38Z</time></trkpt><trkpt lat="44.86214967713661" lon="8.562027366795915"><ele>99.0</ele><time>2026-04-27T11:06:39Z</time></trkpt><trkpt lat="44.86226064795439" lon="8.562264344192378"><ele>99.0</ele><time>2026-04-27T11:06:40Z</time></trkpt><trkpt lat="44.8623715441874" lon="8.56250532693248"><ele>99.0</ele><time>2026-04-27T11:06:41Z</time></trkpt><trkpt lat="44.86248383568016" lon="8.562748864523533"><ele>99.0</ele><time>2026-04-27T11:06:42Z</time></trkpt><trkpt lat="44.86259511854299" lon="8.562991868090974"><ele>99.0</ele><time>2026-04-27T11:06:43Z</time></trkpt><trkpt lat="44.86270558282676" lon="8.563242103650378"><ele>99.0</ele><time>2026-04-27T11:06:44Z</time></trkpt><trkpt lat="44.86281637417073" lon="8.563472030036175"><ele>99.0</ele><time>2026-04-27T11:06:45Z</time></trkpt><trkpt lat="44.86291989692348" lon="8.563720278799341"><ele>99.0</ele><time>2026-04-27T11:06:46Z</time></trkpt><trkpt lat="44.863026251620326" lon="8.563959131407241"><ele>99.0</ele><time>2026-04-27T11:06:47Z</time></trkpt><trkpt lat="44.86312309213201" lon="8.56419426318867"><ele>99.0</ele><time>2026-04-27T11:06:48Z</time></trkpt><trkpt lat="44.86322677997337" lon="8.56443899515985"><ele>99.0</ele><time>2026-04-27T11:06:49Z</time></trkpt><trkpt lat="44.86332984459273" lon="8.564682352897647"><ele>99.0</ele><time>2026-04-27T11:06:50Z</time></trkpt><trkpt lat="44.86343407092952" lon="8.56492763969288"><ele>99.0</ele><time>2026-04-27T11:06:51Z</time></trkpt><trkpt lat="44.86354290930503" lon="8.565178275763873"><ele>99.33333333333334</ele><time>2026-04-27T11:06:52Z</time></trkpt><trkpt lat="44.86364529012947" lon="8.565414422264817"><ele>99.66666666666667</ele><time>2026-04-27T11:06:53Z</time></trkpt><trkpt lat="44.86375264251245" lon="8.565653213461646"><ele>100.0</ele><time>2026-04-27T11:06:54Z</time></trkpt><trkpt lat="44.863863565639356" lon="8.565891955376806"><ele>100.0</ele><time>2026-04-27T11:06:55Z</time></trkpt><trkpt lat="44.86397679469856" lon="8.566130723116814"><ele>100.0</ele><time>2026-04-27T11:06:56Z</time></trkpt><trkpt lat="44.86409589187695" lon="8.56635775238892"><ele>100.0</ele><time>2026-04-27T11:06:57Z</time></trkpt><trkpt lat="44.864203787882694" lon="8.566594977567862"><ele>100.0</ele><time>2026-04-27T11:06:58Z</time></trkpt><trkpt lat="44.86431734560331" lon="8.566838632538603"><ele>100.0</ele><time>2026-04-27T11:06:59Z</time></trkpt><trkpt lat="44.864434979762386" lon="8.567070384968849"><ele>100.0</ele><time>2026-04-27T11:07:00Z</time></trkpt><trkpt lat="44.86454843032044" lon="8.567298430338756"><ele>100.0</ele><time>2026-04-27T11:07:01Z</time></trkpt><trkpt lat="44.86466621143371" lon="8.567517765491425"><ele>100.0</ele><time>2026-04-27T11:07:02Z</time></trkpt><trkpt lat="44.864776770925445" lon="8.567739904753607"><ele>100.0</ele><time>2026-04-27T11:07:03Z</time></trkpt><trkpt lat="44.86488457177128" lon="8.567970452746533"><ele>100.33333333333334</ele><time>2026-04-27T11:07:04Z</time></trkpt><trkpt lat="44.864997535478224" lon="8.568192792092688"><ele>100.66666666666666</ele><time>2026-04-27T11:07:05Z</time></trkpt><trkpt lat="44.86511817624488" lon="8.568406336027673"><ele>101.0</ele><time>2026-04-27T11:07:06Z</time></trkpt><trkpt lat="44.8652342377618" lon="8.56862009797774"><ele>101.33333333333333</ele><time>2026-04-27T11:07:07Z</time></trkpt><trkpt lat="44.865351290593445" lon="8.568831194233365"><ele>101.66666666666666</ele><time>2026-04-27T11:07:08Z</time></trkpt><trkpt lat="44.86547601643325" lon="8.569039310393096"><ele>102.0</ele><time>2026-04-27T11:07:09Z</time></trkpt><trkpt lat="44.86559638189058" lon="8.56924783824696"><ele>102.0</ele><time>2026-04-27T11:07:10Z</time></trkpt><trkpt lat="44.865707631217546" lon="8.569459470584698"><ele>102.0</ele><time>2026-04-27T11:07:11Z</time></trkpt><trkpt lat="44.86582716021248" lon="8.569666494562096"><ele>102.0</ele><time>2026-04-27T11:07:12Z</time></trkpt><trkpt lat="44.865942203435395" lon="8.569877914083314"><ele>102.33333333333334</ele><time>2026-04-27T11:07:13Z</time></trkpt><trkpt lat="44.86606147875937" lon="8.570078774403553"><ele>102.66666666666667</ele><time>2026-04-27T11:07:14Z</time></trkpt><trkpt lat="44.8661777895054" lon="8.570285838340105"><ele>103.0</ele><time>2026-04-27T11:07:15Z</time></trkpt><trkpt lat="44.86629143786502" lon="8.570488588134888"><ele>103.0</ele><time>2026-04-27T11:07:16Z</time></trkpt><trkpt lat="44.86641659845283" lon="8.570694697340393"><ele>103.0</ele><time>2026-04-27T11:07:17Z</time></trkpt><trkpt lat="44.86654789086462" lon="8.570905581323073"><ele>103.0</ele><time>2026-04-27T11:07:18Z</time></trkpt><trkpt lat="44.86668206436607" lon="8.571110647021472"><ele>102.0</ele><time>2026-04-27T11:07:19Z</time></trkpt><trkpt lat="44.86681370398518" lon="8.57132200769332"><ele>101.0</ele><time>2026-04-27T11:07:20Z</time></trkpt><trkpt lat="44.86694677862956" lon="8.571530217092844"><ele>100.0</ele><time>2026-04-27T11:07:21Z</time></trkpt><trkpt lat="44.867073537792365" lon="8.571733082514305"><ele>100.0</ele><time>2026-04-27T11:07:22Z</time></trkpt><trkpt lat="44.86720452260808" lon="8.571935851345232"><ele>100.0</ele><time>2026-04-27T11:07:23Z</time></trkpt><trkpt lat="44.86734131311992" lon="8.572137273807824"><ele>100.0</ele><time>2026-04-27T11:07:24Z</time></trkpt><trkpt lat="44.86747014955546" lon="8.572329181045772"><ele>99.66666666666667</ele><time>2026-04-27T11:07:25Z</time></trkpt><trkpt lat="44.86760426336239" lon="8.572522200749706"><ele>99.33333333333334</ele><time>2026-04-27T11:07:26Z</time></trkpt><trkpt lat="44.867734309051315" lon="8.57270690945636"><ele>99.0</ele><time>2026-04-27T11:07:27Z</time></trkpt><trkpt lat="44.867857810396394" lon="8.572887486900362"><ele>100.33333333333334</ele><time>2026-04-27T11:07:28Z</time></trkpt><trkpt lat="44.86798585674418" lon="8.573073978184908"><ele>101.66666666666667</ele><time>2026-04-27T11:07:29Z</time></trkpt><trkpt lat="44.868116577713906" lon="8.573256178622806"><ele>103.0</ele><time>2026-04-27T11:07:30Z</time></trkpt><trkpt lat="44.86824757523304" lon="8.573434853139043"><ele>103.0</ele><time>2026-04-27T11:07:31Z</time></trkpt><trkpt lat="44.86837312188112" lon="8.573600344055734"><ele>103.0</ele><time>2026-04-27T11:07:32Z</time></trkpt><trkpt lat="44.86850185103113" lon="8.573789435816131"><ele>103.0</ele><time>2026-04-27T11:07:33Z</time></trkpt><trkpt lat="44.868640747006296" lon="8.57399013369703"><ele>102.66666666666667</ele><time>2026-04-27T11:07:34Z</time></trkpt><trkpt lat="44.8688114815084" lon="8.574236463270733"><ele>102.33333333333334</ele><time>2026-04-27T11:07:35Z</time></trkpt><trkpt lat="44.86895461881413" lon="8.574433201326412"><ele>102.0</ele><time>2026-04-27T11:07:36Z</time></trkpt><trkpt lat="44.86910058816775" lon="8.574621044496626"><ele>101.33333333333334</ele><time>2026-04-27T11:07:37Z</time></trkpt><trkpt lat="44.86924367011396" lon="8.574795027334835"><ele>100.66666666666667</ele><time>2026-04-27T11:07:38Z</time></trkpt><trkpt lat="44.86938339582699" lon="8.574979546296799"><ele>100.0</ele><time>2026-04-27T11:07:39Z</time></trkpt><trkpt lat="44.869525667449174" lon="8.575183910963789"><ele>101.66666666666667</ele><time>2026-04-27T11:07:40Z</time></trkpt><trkpt lat="44.86965857802806" lon="8.575382316952943"><ele>103.33333333333334</ele><time>2026-04-27T11:07:41Z</time></trkpt><trkpt lat="44.86980224942588" lon="8.575576842406944"><ele>105.0</ele><time>2026-04-27T11:07:42Z</time></trkpt><trkpt lat="44.86993683782432" lon="8.575759733991804"><ele>105.0</ele><time>2026-04-27T11:07:43Z</time></trkpt><trkpt lat="44.87007032334046" lon="8.575942898622584"><ele>105.0</ele><time>2026-04-27T11:07:44Z</time></trkpt><trkpt lat="44.870279479265506" lon="8.576259442053468"><ele>104.66666666666666</ele><time>2026-04-27T11:07:45Z</time></trkpt><trkpt lat="44.87044105325958" lon="8.576473005160636"><ele>104.33333333333333</ele><time>2026-04-27T11:07:46Z</time></trkpt><trkpt lat="44.87059822461327" lon="8.576681847032"><ele>104.0</ele><time>2026-04-27T11:07:47Z</time></trkpt><trkpt lat="44.87074317155176" lon="8.576884983648787"><ele>103.33333333333333</ele><time>2026-04-27T11:07:48Z</time></trkpt><trkpt lat="44.87088385324755" lon="8.577085252094918"><ele>102.66666666666666</ele><time>2026-04-27T11:07:49Z</time></trkpt><trkpt lat="44.87102024496497" lon="8.57727867853634"><ele>102.0</ele><time>2026-04-27T11:07:50Z</time></trkpt><trkpt lat="44.87115695128105" lon="8.577468470630613"><ele>102.0</ele><time>2026-04-27T11:07:51Z</time></trkpt><trkpt lat="44.87129471234911" lon="8.577653414290738"><ele>102.0</ele><time>2026-04-27T11:07:52Z</time></trkpt><trkpt lat="44.87143197589662" lon="8.577846311357678"><ele>102.0</ele><time>2026-04-27T11:07:53Z</time></trkpt><trkpt lat="44.87157278680168" lon="8.578039189131873"><ele>102.0</ele><time>2026-04-27T11:07:54Z</time></trkpt><trkpt lat="44.87170992681757" lon="8.578235632585193"><ele>102.0</ele><time>2026-04-27T11:07:55Z</time></trkpt><trkpt lat="44.87184674837626" lon="8.578437897239528"><ele>102.0</ele><time>2026-04-27T11:07:56Z</time></trkpt><trkpt lat="44.87198360171045" lon="8.578638159674945"><ele>102.33333333333334</ele><time>2026-04-27T11:07:57Z</time></trkpt><trkpt lat="44.87212002601313" lon="8.578832363588981"><ele>102.66666666666667</ele><time>2026-04-27T11:07:58Z</time></trkpt><trkpt lat="44.87225309239592" lon="8.579036011243033"><ele>103.0</ele><time>2026-04-27T11:07:59Z</time></trkpt><trkpt lat="44.87238662022511" lon="8.579240622475318"><ele>103.0</ele><time>2026-04-27T11:08:00Z</time></trkpt><trkpt lat="44.87251817721486" lon="8.579437510417481"><ele>103.0</ele><time>2026-04-27T11:08:01Z</time></trkpt><trkpt lat="44.8726485514781" lon="8.579630465430387"><ele>103.0</ele><time>2026-04-27T11:08:02Z</time></trkpt><trkpt lat="44.87277598984775" lon="8.579834891961896"><ele>102.33333333333334</ele><time>2026-04-27T11:08:03Z</time></trkpt><trkpt lat="44.87290190534972" lon="8.580031640121295"><ele>101.66666666666666</ele><time>2026-04-27T11:08:04Z</time></trkpt><trkpt lat="44.87302657545335" lon="8.580231157333042"><ele>101.0</ele><time>2026-04-27T11:08:05Z</time></trkpt><trkpt lat="44.873152068328686" lon="8.580433673981261"><ele>100.66666666666666</ele><time>2026-04-27T11:08:06Z</time></trkpt><trkpt lat="44.87326962753968" lon="8.580637982757908"><ele>100.33333333333334</ele><time>2026-04-27T11:08:07Z</time></trkpt><trkpt lat="44.873391468114455" lon="8.580848749697907"><ele>100.0</ele><time>2026-04-27T11:08:08Z</time></trkpt><trkpt lat="44.87350852951223" lon="8.581046094543064"><ele>99.33333333333334</ele><time>2026-04-27T11:08:09Z</time></trkpt><trkpt lat="44.873625210282505" lon="8.581267196122527"><ele>98.66666666666666</ele><time>2026-04-27T11:08:10Z</time></trkpt><trkpt lat="44.873751883426486" lon="8.581481291204051"><ele>98.0</ele><time>2026-04-27T11:08:11Z</time></trkpt><trkpt lat="44.87387888523277" lon="8.581711458493364"><ele>98.0</ele><time>2026-04-27T11:08:12Z</time></trkpt><trkpt lat="44.87400639680878" lon="8.581936460848334"><ele>98.0</ele><time>2026-04-27T11:08:13Z</time></trkpt><trkpt lat="44.874131974924694" lon="8.58216515590366"><ele>98.0</ele><time>2026-04-27T11:08:14Z</time></trkpt><trkpt lat="44.874253783349864" lon="8.582387854429815"><ele>97.66666666666666</ele><time>2026-04-27T11:08:15Z</time></trkpt><trkpt lat="44.87437666873742" lon="8.582605897007408"><ele>97.33333333333334</ele><time>2026-04-27T11:08:16Z</time></trkpt><trkpt lat="44.87449431287215" lon="8.58282347339333"><ele>97.0</ele><time>2026-04-27T11:08:17Z</time></trkpt><trkpt lat="44.87460626481885" lon="8.58302829305158"><ele>97.0</ele><time>2026-04-27T11:08:18Z</time></trkpt><trkpt lat="44.874719749710216" lon="8.583232891516907"><ele>97.0</ele><time>2026-04-27T11:08:19Z</time></trkpt><trkpt lat="44.874833027117475" lon="8.583441530308765"><ele>97.0</ele><time>2026-04-27T11:08:20Z</time></trkpt><trkpt lat="44.87494805550712" lon="8.58365888832092"><ele>97.33333333333334</ele><time>2026-04-27T11:08:21Z</time></trkpt><trkpt lat="44.87506922910882" lon="8.583890185850807"><ele>97.66666666666666</ele><time>2026-04-27T11:08:22Z</time></trkpt><trkpt lat="44.87518430329528" lon="8.584118775832257"><ele>98.0</ele><time>2026-04-27T11:08:23Z</time></trkpt><trkpt lat="44.875302926833236" lon="8.584354881418973"><ele>98.0</ele><time>2026-04-27T11:08:24Z</time></trkpt><trkpt lat="44.87542196678581" lon="8.584602895264657"><ele>98.0</ele><time>2026-04-27T11:08:25Z</time></trkpt><trkpt lat="44.875540512204275" lon="8.5848484965679"><ele>98.0</ele><time>2026-04-27T11:08:26Z</time></trkpt><trkpt lat="44.87565495551357" lon="8.585076532657396"><ele>98.0</ele><time>2026-04-27T11:08:27Z</time></trkpt><trkpt lat="44.87576368596876" lon="8.585310620145567"><ele>98.0</ele><time>2026-04-27T11:08:28Z</time></trkpt><trkpt lat="44.87587576612398" lon="8.585539284808506"><ele>98.0</ele><time>2026-04-27T11:08:29Z</time></trkpt><trkpt lat="44.87598732043846" lon="8.585771591718366"><ele>98.0</ele><time>2026-04-27T11:08:30Z</time></trkpt><trkpt lat="44.876100079375036" lon="8.58601246567865"><ele>98.0</ele><time>2026-04-27T11:08:31Z</time></trkpt><trkpt lat="44.876210153802205" lon="8.586252758932236"><ele>98.0</ele><time>2026-04-27T11:08:32Z</time></trkpt><trkpt lat="44.87632313914001" lon="8.586502770309437"><ele>98.0</ele><time>2026-04-27T11:08:33Z</time></trkpt><trkpt lat="44.87643688887418" lon="8.586758406350913"><ele>98.0</ele><time>2026-04-27T11:08:34Z</time></trkpt><trkpt lat="44.876552792693246" lon="8.587016019123789"><ele>98.0</ele><time>2026-04-27T11:08:35Z</time></trkpt><trkpt lat="44.87666672113225" lon="8.587277148279764"><ele>97.33333333333333</ele><time>2026-04-27T11:08:36Z</time></trkpt><trkpt lat="44.876784912022195" lon="8.587547990345804"><ele>96.66666666666666</ele><time>2026-04-27T11:08:37Z</time></trkpt><trkpt lat="44.876897210300974" lon="8.587809986886878"><ele>96.0</ele><time>2026-04-27T11:08:38Z</time></trkpt><trkpt lat="44.877007463787" lon="8.588075769983437"><ele>96.0</ele><time>2026-04-27T11:08:39Z</time></trkpt><trkpt lat="44.87711772283479" lon="8.588345101644732"><ele>96.0</ele><time>2026-04-27T11:08:40Z</time></trkpt><trkpt lat="44.87722169978123" lon="8.588603170941795"><ele>96.0</ele><time>2026-04-27T11:08:41Z</time></trkpt><trkpt lat="44.87732309048541" lon="8.588862943811218"><ele>96.33333333333334</ele><time>2026-04-27T11:08:42Z</time></trkpt><trkpt lat="44.87742256060196" lon="8.589122049841247"><ele>96.66666666666667</ele><time>2026-04-27T11:08:43Z</time></trkpt><trkpt lat="44.877522923867836" lon="8.589381760432385"><ele>97.0</ele><time>2026-04-27T11:08:44Z</time></trkpt><trkpt lat="44.87762824041625" lon="8.589642391291711"><ele>96.66666666666667</ele><time>2026-04-27T11:08:45Z</time></trkpt><trkpt lat="44.877730580410045" lon="8.589908442081592"><ele>96.33333333333334</ele><time>2026-04-27T11:08:46Z</time></trkpt><trkpt lat="44.87783115151209" lon="8.59017715528448"><ele>96.0</ele><time>2026-04-27T11:08:47Z</time></trkpt><trkpt lat="44.877925952422174" lon="8.590441291215392"><ele>96.0</ele><time>2026-04-27T11:08:48Z</time></trkpt><trkpt lat="44.87802529152517" lon="8.590715507538068"><ele>96.0</ele><time>2026-04-27T11:08:49Z</time></trkpt><trkpt lat="44.87812936124573" lon="8.590995554313832"><ele>96.0</ele><time>2026-04-27T11:08:50Z</time></trkpt><trkpt lat="44.878237013956884" lon="8.591282448198543"><ele>96.66666666666666</ele><time>2026-04-27T11:08:51Z</time></trkpt><trkpt lat="44.87832794537301" lon="8.591547336824336"><ele>97.33333333333333</ele><time>2026-04-27T11:08:52Z</time></trkpt><trkpt lat="44.8784156141395" lon="8.591803907893341"><ele>98.0</ele><time>2026-04-27T11:08:53Z</time></trkpt><trkpt lat="44.87849833616329" lon="8.592054786696334"><ele>98.0</ele><time>2026-04-27T11:08:54Z</time></trkpt><trkpt lat="44.878579138873846" lon="8.592309709977505"><ele>98.0</ele><time>2026-04-27T11:08:55Z</time></trkpt><trkpt lat="44.87866194177024" lon="8.592564665054494"><ele>98.0</ele><time>2026-04-27T11:08:56Z</time></trkpt><trkpt lat="44.87874615100411" lon="8.592821365748364"><ele>98.33333333333333</ele><time>2026-04-27T11:08:57Z</time></trkpt><trkpt lat="44.87883149611184" lon="8.593076459411595"><ele>98.66666666666666</ele><time>2026-04-27T11:08:58Z</time></trkpt><trkpt lat="44.87891251018151" lon="8.59333196421432"><ele>99.0</ele><time>2026-04-27T11:08:59Z</time></trkpt><trkpt lat="44.87899595840269" lon="8.59359901185198"><ele>99.0</ele><time>2026-04-27T11:09:00Z</time></trkpt><trkpt lat="44.87907679923162" lon="8.59386101774324"><ele>99.0</ele><time>2026-04-27T11:09:01Z</time></trkpt><trkpt lat="44.87915995834551" lon="8.594132011680179"><ele>99.0</ele><time>2026-04-27T11:09:02Z</time></trkpt><trkpt lat="44.87924445201768" lon="8.594403520454373"><ele>97.66666666666667</ele><time>2026-04-27T11:09:03Z</time></trkpt><trkpt lat="44.879325859242186" lon="8.594675060061215"><ele>96.33333333333334</ele><time>2026-04-27T11:09:04Z</time></trkpt><trkpt lat="44.879410030413794" lon="8.5949482485999"><ele>95.0</ele><time>2026-04-27T11:09:05Z</time></trkpt><trkpt lat="44.87949249700841" lon="8.595221663102869"><ele>95.33333333333334</ele><time>2026-04-27T11:09:06Z</time></trkpt><trkpt lat="44.87957201116625" lon="8.595496130201736"><ele>95.66666666666667</ele><time>2026-04-27T11:09:07Z</time></trkpt><trkpt lat="44.87965126121226" lon="8.595769471796757"><ele>96.0</ele><time>2026-04-27T11:09:08Z</time></trkpt><trkpt lat="44.8797315533071" lon="8.59604663145033"><ele>96.0</ele><time>2026-04-27T11:09:09Z</time></trkpt><trkpt lat="44.879812137870616" lon="8.596322151092808"><ele>96.0</ele><time>2026-04-27T11:09:10Z</time></trkpt><trkpt lat="44.87989333616789" lon="8.596604983190714"><ele>96.0</ele><time>2026-04-27T11:09:11Z</time></trkpt><trkpt lat="44.87997352687404" lon="8.596884608710427"><ele>96.0</ele><time>2026-04-27T11:09:12Z</time></trkpt><trkpt lat="44.88005173525497" lon="8.597163952525765"><ele>96.0</ele><time>2026-04-27T11:09:13Z</time></trkpt><trkpt lat="44.880131119590544" lon="8.597444138342768"><ele>96.0</ele><time>2026-04-27T11:09:14Z</time></trkpt><trkpt lat="44.88021221140332" lon="8.597715692481962"><ele>97.33333333333334</ele><time>2026-04-27T11:09:15Z</time></trkpt><trkpt lat="44.880291238707564" lon="8.597990708448197"><ele>98.66666666666667</ele><time>2026-04-27T11:09:16Z</time></trkpt><trkpt lat="44.880369514636705" lon="8.598263893601782"><ele>100.0</ele><time>2026-04-27T11:09:17Z</time></trkpt><trkpt lat="44.880447597680416" lon="8.598545129276602"><ele>99.66666666666667</ele><time>2026-04-27T11:09:18Z</time></trkpt><trkpt lat="44.8805263264377" lon="8.598824105222878"><ele>99.33333333333334</ele><time>2026-04-27T11:09:19Z</time></trkpt><trkpt lat="44.880604657787" lon="8.599101292618162"><ele>99.0</ele><time>2026-04-27T11:09:20Z</time></trkpt><trkpt lat="44.88068366301844" lon="8.599379440517486"><ele>98.0</ele><time>2026-04-27T11:09:21Z</time></trkpt><trkpt lat="44.880761549082926" lon="8.59965018076351"><ele>97.0</ele><time>2026-04-27T11:09:22Z</time></trkpt><trkpt lat="44.880838344409526" lon="8.599913049753209"><ele>96.0</ele><time>2026-04-27T11:09:23Z</time></trkpt><trkpt lat="44.880916382114926" lon="8.600170176168314"><ele>96.0</ele><time>2026-04-27T11:09:24Z</time></trkpt><trkpt lat="44.88099461296686" lon="8.6004280554447"><ele>96.0</ele><time>2026-04-27T11:09:25Z</time></trkpt><trkpt lat="44.881067946378224" lon="8.600684368885895"><ele>96.0</ele><time>2026-04-27T11:09:26Z</time></trkpt><trkpt lat="44.881141514869036" lon="8.600947974912375"><ele>96.33333333333334</ele><time>2026-04-27T11:09:27Z</time></trkpt><trkpt lat="44.88121665631103" lon="8.601211764462073"><ele>96.66666666666667</ele><time>2026-04-27T11:09:28Z</time></trkpt><trkpt lat="44.88129448431705" lon="8.60147548222175"><ele>97.0</ele><time>2026-04-27T11:09:29Z</time></trkpt><trkpt lat="44.881373392213696" lon="8.601742925348617"><ele>96.33333333333334</ele><time>2026-04-27T11:09:30Z</time></trkpt><trkpt lat="44.88145248374971" lon="8.602015574126773"><ele>95.66666666666667</ele><time>2026-04-27T11:09:31Z</time></trkpt><trkpt lat="44.881530349154644" lon="8.602285322890662"><ele>95.0</ele><time>2026-04-27T11:09:32Z</time></trkpt><trkpt lat="44.881605190484635" lon="8.602548120454463"><ele>95.0</ele><time>2026-04-27T11:09:33Z</time></trkpt><trkpt lat="44.88167851013661" lon="8.602796197584116"><ele>95.0</ele><time>2026-04-27T11:09:34Z</time></trkpt><trkpt lat="44.881753723062154" lon="8.603044716267739"><ele>95.0</ele><time>2026-04-27T11:09:35Z</time></trkpt><trkpt lat="44.88182877607495" lon="8.60329374797823"><ele>95.0</ele><time>2026-04-27T11:09:36Z</time></trkpt><trkpt lat="44.881904966585836" lon="8.60354490812255"><ele>95.0</ele><time>2026-04-27T11:09:37Z</time></trkpt><trkpt lat="44.881981372002215" lon="8.603795973487808"><ele>95.0</ele><time>2026-04-27T11:09:38Z</time></trkpt><trkpt lat="44.882061736024504" lon="8.604048259721496"><ele>95.33333333333334</ele><time>2026-04-27T11:09:39Z</time></trkpt><trkpt lat="44.88214534621206" lon="8.60430650820467"><ele>95.66666666666667</ele><time>2026-04-27T11:09:40Z</time></trkpt><trkpt lat="44.88223057508833" lon="8.604561453591336"><ele>96.0</ele><time>2026-04-27T11:09:41Z</time></trkpt><trkpt lat="44.88231244256064" lon="8.604796778964012"><ele>96.66666666666666</ele><time>2026-04-27T11:09:42Z</time></trkpt><trkpt lat="44.88238809911915" lon="8.605013369155898"><ele>97.33333333333333</ele><time>2026-04-27T11:09:43Z</time></trkpt><trkpt lat="44.882464591435486" lon="8.605239599531089"><ele>98.0</ele><time>2026-04-27T11:09:44Z</time></trkpt><trkpt lat="44.882541844689456" lon="8.605468028713869"><ele>97.33333333333333</ele><time>2026-04-27T11:09:45Z</time></trkpt><trkpt lat="44.88261893426138" lon="8.605697472145227"><ele>96.66666666666666</ele><time>2026-04-27T11:09:46Z</time></trkpt><trkpt lat="44.88269804727367" lon="8.605929154251818"><ele>96.0</ele><time>2026-04-27T11:09:47Z</time></trkpt><trkpt lat="44.882773694515116" lon="8.606157190898536"><ele>96.0</ele><time>2026-04-27T11:09:48Z</time></trkpt><trkpt lat="44.88285176244114" lon="8.606384090496146"><ele>96.0</ele><time>2026-04-27T11:09:49Z</time></trkpt><trkpt lat="44.8829336126634" lon="8.606609432150496"><ele>96.0</ele><time>2026-04-27T11:09:50Z</time></trkpt><trkpt lat="44.88301941089069" lon="8.606850462864506"><ele>96.33333333333334</ele><time>2026-04-27T11:09:51Z</time></trkpt><trkpt lat="44.883121907581994" lon="8.607108994006675"><ele>96.66666666666667</ele><time>2026-04-27T11:09:52Z</time></trkpt><trkpt lat="44.883228423227656" lon="8.607383905652709"><ele>97.0</ele><time>2026-04-27T11:09:53Z</time></trkpt><trkpt lat="44.883345347878645" lon="8.607680933304533"><ele>95.0</ele><time>2026-04-27T11:09:54Z</time></trkpt><trkpt lat="44.8834658830343" lon="8.607996519716028"><ele>93.0</ele><time>2026-04-27T11:09:55Z</time></trkpt><trkpt lat="44.88358131198191" lon="8.60830816458343"><ele>93.0</ele><time>2026-04-27T11:09:56Z</time></trkpt><trkpt lat="44.883687918105075" lon="8.60859765657084"><ele>93.0</ele><time>2026-04-27T11:09:57Z</time></trkpt><trkpt lat="44.8837901327265" lon="8.608877233200824"><ele>93.66666666666667</ele><time>2026-04-27T11:09:58Z</time></trkpt><trkpt lat="44.883891574084515" lon="8.609156938916124"><ele>94.33333333333334</ele><time>2026-04-27T11:09:59Z</time></trkpt><trkpt lat="44.88399103788576" lon="8.609431344199649"><ele>95.0</ele><time>2026-04-27T11:10:00Z</time></trkpt><trkpt lat="44.88409157036405" lon="8.609703974315392"><ele>95.0</ele><time>2026-04-27T11:10:01Z</time></trkpt><trkpt lat="44.88419221807091" lon="8.609975011010887"><ele>95.0</ele><time>2026-04-27T11:10:02Z</time></trkpt><trkpt lat="44.884295366057195" lon="8.610242940305211"><ele>95.0</ele><time>2026-04-27T11:10:03Z</time></trkpt><trkpt lat="44.88439473170345" lon="8.610499347235786"><ele>94.66666666666667</ele><time>2026-04-27T11:10:04Z</time></trkpt><trkpt lat="44.88449577705484" lon="8.610749282131641"><ele>94.33333333333333</ele><time>2026-04-27T11:10:05Z</time></trkpt><trkpt lat="44.884602858692794" lon="8.611001101532306"><ele>94.0</ele><time>2026-04-27T11:10:06Z</time></trkpt><trkpt lat="44.884711611583974" lon="8.611256374715971"><ele>94.0</ele><time>2026-04-27T11:10:07Z</time></trkpt><trkpt lat="44.88482292624104" lon="8.61151977671889"><ele>94.0</ele><time>2026-04-27T11:10:08Z</time></trkpt><trkpt lat="44.88493136314362" lon="8.611788315446937"><ele>94.0</ele><time>2026-04-27T11:10:09Z</time></trkpt><trkpt lat="44.8850419673938" lon="8.612056877878446"><ele>94.66666666666666</ele><time>2026-04-27T11:10:10Z</time></trkpt><trkpt lat="44.88514940040612" lon="8.612313687641995"><ele>95.33333333333333</ele><time>2026-04-27T11:10:11Z</time></trkpt><trkpt lat="44.885261255980105" lon="8.612573136238895"><ele>96.0</ele><time>2026-04-27T11:10:12Z</time></trkpt><trkpt lat="44.88537691842718" lon="8.612833473261299"><ele>96.0</ele><time>2026-04-27T11:10:13Z</time></trkpt><trkpt lat="44.8854944585322" lon="8.613092823888572"><ele>96.0</ele><time>2026-04-27T11:10:14Z</time></trkpt><trkpt lat="44.88560949164361" lon="8.613349448090643"><ele>96.0</ele><time>2026-04-27T11:10:15Z</time></trkpt><trkpt lat="44.88571948215543" lon="8.613595448758119"><ele>96.0</ele><time>2026-04-27T11:10:16Z</time></trkpt><trkpt lat="44.88582312722916" lon="8.613814699169373"><ele>96.0</ele><time>2026-04-27T11:10:17Z</time></trkpt><trkpt lat="44.88593466948466" lon="8.614065080568981"><ele>96.0</ele><time>2026-04-27T11:10:18Z</time></trkpt><trkpt lat="44.88603929561805" lon="8.614304939558547"><ele>96.33333333333334</ele><time>2026-04-27T11:10:19Z</time></trkpt><trkpt lat="44.88614676493432" lon="8.614532610850532"><ele>96.66666666666667</ele><time>2026-04-27T11:10:20Z</time></trkpt><trkpt lat="44.88625297648856" lon="8.61475989621241"><ele>97.0</ele><time>2026-04-27T11:10:21Z</time></trkpt><trkpt lat="44.886354870597856" lon="8.614985770956931"><ele>97.0</ele><time>2026-04-27T11:10:22Z</time></trkpt><trkpt lat="44.88645813712001" lon="8.615204521435944"><ele>97.0</ele><time>2026-04-27T11:10:23Z</time></trkpt><trkpt lat="44.886551407487026" lon="8.615406088730989"><ele>97.0</ele><time>2026-04-27T11:10:24Z</time></trkpt><trkpt lat="44.886641291743395" lon="8.615603608775347"><ele>96.66666666666667</ele><time>2026-04-27T11:10:25Z</time></trkpt><trkpt lat="44.88673825902258" lon="8.615808820988086"><ele>96.33333333333334</ele><time>2026-04-27T11:10:26Z</time></trkpt><trkpt lat="44.88684188376066" lon="8.616013275926287"><ele>96.0</ele><time>2026-04-27T11:10:27Z</time></trkpt><trkpt lat="44.88694443084715" lon="8.616218824562658"><ele>95.33333333333333</ele><time>2026-04-27T11:10:28Z</time></trkpt><trkpt lat="44.8870471431693" lon="8.61643144879331"><ele>94.66666666666666</ele><time>2026-04-27T11:10:29Z</time></trkpt><trkpt lat="44.88715382872266" lon="8.61664646631373"><ele>94.0</ele><time>2026-04-27T11:10:30Z</time></trkpt><trkpt lat="44.887264924426155" lon="8.61686793066769"><ele>95.33333333333333</ele><time>2026-04-27T11:10:31Z</time></trkpt><trkpt lat="44.887370234338974" lon="8.617085498288764"><ele>96.66666666666666</ele><time>2026-04-27T11:10:32Z</time></trkpt><trkpt lat="44.88747992874733" lon="8.61729594847266"><ele>98.0</ele><time>2026-04-27T11:10:33Z</time></trkpt><trkpt lat="44.887588625013485" lon="8.617497784948206"><ele>98.0</ele><time>2026-04-27T11:10:34Z</time></trkpt><trkpt lat="44.887690511969744" lon="8.61770332481324"><ele>98.0</ele><time>2026-04-27T11:10:35Z</time></trkpt><trkpt lat="44.887790297871845" lon="8.61789853861947"><ele>98.0</ele><time>2026-04-27T11:10:36Z</time></trkpt><trkpt lat="44.887887166085775" lon="8.618095440923764"><ele>97.33333333333333</ele><time>2026-04-27T11:10:37Z</time></trkpt><trkpt lat="44.887985863770474" lon="8.618283923049166"><ele>96.66666666666666</ele><time>2026-04-27T11:10:38Z</time></trkpt><trkpt lat="44.888082727537906" lon="8.618473617945625"><ele>96.0</ele><time>2026-04-27T11:10:39Z</time></trkpt><trkpt lat="44.88817279082405" lon="8.618661144152123"><ele>95.75</ele><time>2026-04-27T11:10:40Z</time></trkpt><trkpt lat="44.88825984446057" lon="8.618847242748306"><ele>95.5</ele><time>2026-04-27T11:10:41Z</time></trkpt><trkpt lat="44.888339301092856" lon="8.61902376704001"><ele>95.25</ele><time>2026-04-27T11:10:42Z</time></trkpt><trkpt lat="44.88840150319166" lon="8.619188332388681"><ele>95.0</ele><time>2026-04-27T11:10:43Z</time></trkpt><trkpt lat="44.888470812354356" lon="8.619368193914099"><ele>95.75</ele><time>2026-04-27T11:10:44Z</time></trkpt><trkpt lat="44.888521495994034" lon="8.619537688496155"><ele>96.5</ele><time>2026-04-27T11:10:45Z</time></trkpt><trkpt lat="44.8885699304349" lon="8.619706447672671"><ele>97.25</ele><time>2026-04-27T11:10:46Z</time></trkpt><trkpt lat="44.888628871334944" lon="8.619893893690277"><ele>98.0</ele><time>2026-04-27T11:10:47Z</time></trkpt><trkpt lat="44.88869200872333" lon="8.620098030895434"><ele>97.66666666666666</ele><time>2026-04-27T11:10:48Z</time></trkpt><trkpt lat="44.888762723188016" lon="8.620316802382831"><ele>97.33333333333334</ele><time>2026-04-27T11:10:49Z</time></trkpt><trkpt lat="44.88883523173457" lon="8.620548646708404"><ele>97.0</ele><time>2026-04-27T11:10:50Z</time></trkpt><trkpt lat="44.88890693486127" lon="8.620788398224658"><ele>97.0</ele><time>2026-04-27T11:10:51Z</time></trkpt><trkpt lat="44.88898099613352" lon="8.621026080093069"><ele>97.0</ele><time>2026-04-27T11:10:52Z</time></trkpt><trkpt lat="44.889049571983726" lon="8.621230155020843"><ele>97.0</ele><time>2026-04-27T11:10:53Z</time></trkpt><trkpt lat="44.889112818043884" lon="8.621434540822104"><ele>96.8</ele><time>2026-04-27T11:10:54Z</time></trkpt><trkpt lat="44.88917757956347" lon="8.621612741854122"><ele>96.6</ele><time>2026-04-27T11:10:55Z</time></trkpt><trkpt lat="44.889228619130286" lon="8.621756152630345"><ele>96.39999999999999</ele><time>2026-04-27T11:10:56Z</time></trkpt><trkpt lat="44.88927436931486" lon="8.621850014882622"><ele>96.19999999999999</ele><time>2026-04-27T11:10:57Z</time></trkpt><trkpt lat="44.88934091207564" lon="8.62190421502911"><ele>96.0</ele><time>2026-04-27T11:10:58Z</time></trkpt><trkpt lat="44.88938407690045" lon="8.621976677962095"><ele>96.0</ele><time>2026-04-27T11:10:59Z</time></trkpt><trkpt lat="44.889544091321014" lon="8.621643829852868"><ele>96.0</ele><time>2026-04-27T11:11:01Z</time></trkpt><trkpt lat="44.88963761893222" lon="8.621537395118281"><ele>96.0</ele><time>2026-04-27T11:11:02Z</time></trkpt><trkpt lat="44.889733935678166" lon="8.621428997311925"><ele>96.0</ele><time>2026-04-27T11:11:03Z</time></trkpt><trkpt lat="44.88984720272522" lon="8.621311467431752"><ele>96.0</ele><time>2026-04-27T11:11:04Z</time></trkpt><trkpt lat="44.88997676096092" lon="8.621173056171392"><ele>96.0</ele><time>2026-04-27T11:11:05Z</time></trkpt><trkpt lat="44.890123646331375" lon="8.621001334288072"><ele>95.0</ele><time>2026-04-27T11:11:06Z</time></trkpt><trkpt lat="44.89025680830361" lon="8.620789451263423"><ele>94.0</ele><time>2026-04-27T11:11:07Z</time></trkpt><trkpt lat="44.890411777875656" lon="8.620638617104834"><ele>93.0</ele><time>2026-04-27T11:11:08Z</time></trkpt><trkpt lat="44.89057146783627" lon="8.620499279376292"><ele>93.0</ele><time>2026-04-27T11:11:09Z</time></trkpt><trkpt lat="44.89072947289996" lon="8.620366422460304"><ele>93.0</ele><time>2026-04-27T11:11:10Z</time></trkpt><trkpt lat="44.89086539836906" lon="8.620246141660218"><ele>93.0</ele><time>2026-04-27T11:11:11Z</time></trkpt><trkpt lat="44.891005549919406" lon="8.62013012331498"><ele>93.0</ele><time>2026-04-27T11:11:12Z</time></trkpt><trkpt lat="44.891143536845156" lon="8.620023711496883"><ele>93.0</ele><time>2026-04-27T11:11:13Z</time></trkpt><trkpt lat="44.891281147960754" lon="8.61991611235084"><ele>93.0</ele><time>2026-04-27T11:11:14Z</time></trkpt><trkpt lat="44.89141818514752" lon="8.619808658976984"><ele>93.0</ele><time>2026-04-27T11:11:15Z</time></trkpt><trkpt lat="44.8915424167626" lon="8.619707809103302"><ele>93.0</ele><time>2026-04-27T11:11:16Z</time></trkpt><trkpt lat="44.89165718888067" lon="8.619612446099376"><ele>93.0</ele><time>2026-04-27T11:11:17Z</time></trkpt><trkpt lat="44.89177812559148" lon="8.61951651634712"><ele>93.0</ele><time>2026-04-27T11:11:18Z</time></trkpt><trkpt lat="44.891907293506456" lon="8.619411709444114"><ele>93.66666666666667</ele><time>2026-04-27T11:11:19Z</time></trkpt><trkpt lat="44.89203842434618" lon="8.619294946066088"><ele>94.33333333333334</ele><time>2026-04-27T11:11:20Z</time></trkpt><trkpt lat="44.892167619979915" lon="8.619173992081915"><ele>95.0</ele><time>2026-04-27T11:11:21Z</time></trkpt><trkpt lat="44.892294793668796" lon="8.619061437153919"><ele>95.0</ele><time>2026-04-27T11:11:22Z</time></trkpt><trkpt lat="44.8924088485411" lon="8.618966715763856"><ele>95.0</ele><time>2026-04-27T11:11:23Z</time></trkpt><trkpt lat="44.89251757925158" lon="8.618876959555271"><ele>95.0</ele><time>2026-04-27T11:11:24Z</time></trkpt><trkpt lat="44.892610127628295" lon="8.618797338416524"><ele>95.0</ele><time>2026-04-27T11:11:25Z</time></trkpt><trkpt lat="44.89269649304048" lon="8.618729171495351"><ele>95.16666666666667</ele><time>2026-04-27T11:11:26Z</time></trkpt><trkpt lat="44.89278240845743" lon="8.618669516865182"><ele>95.33333333333334</ele><time>2026-04-27T11:11:27Z</time></trkpt><trkpt lat="44.89286442766112" lon="8.618632573288659"><ele>95.5</ele><time>2026-04-27T11:11:28Z</time></trkpt><trkpt lat="44.89297328665942" lon="8.618662182877218"><ele>95.66666666666667</ele><time>2026-04-27T11:11:30Z</time></trkpt><trkpt lat="44.89305910482934" lon="8.61865524531006"><ele>95.83333333333333</ele><time>2026-04-27T11:11:32Z</time></trkpt><trkpt lat="44.89311649605404" lon="8.61860220422851"><ele>96.0</ele><time>2026-04-27T11:11:33Z</time></trkpt><trkpt lat="44.89315566066174" lon="8.618528413098861"><ele>95.4</ele><time>2026-04-27T11:11:34Z</time></trkpt><trkpt lat="44.893179222372495" lon="8.61841434187772"><ele>94.8</ele><time>2026-04-27T11:11:35Z</time></trkpt><trkpt lat="44.893161474621884" lon="8.618295870225243"><ele>94.2</ele><time>2026-04-27T11:11:36Z</time></trkpt><trkpt lat="44.893158413646795" lon="8.6181999598753"><ele>93.60000000000001</ele><time>2026-04-27T11:11:37Z</time></trkpt><trkpt lat="44.89299883737551" lon="8.61815083489897"><ele>93.0</ele><time>2026-04-27T11:11:38Z</time></trkpt><trkpt lat="44.89291146703027" lon="8.61814216406004"><ele>93.0</ele><time>2026-04-27T11:11:39Z</time></trkpt><trkpt lat="44.89282356894242" lon="8.618127573748698"><ele>93.0</ele><time>2026-04-27T11:11:40Z</time></trkpt><trkpt lat="44.892761475075304" lon="8.618005930945715"><ele>93.0</ele><time>2026-04-27T11:11:41Z</time></trkpt><trkpt lat="44.892692071944786" lon="8.617906953579146"><ele>93.0</ele><time>2026-04-27T11:11:42Z</time></trkpt><trkpt lat="44.89264204165093" lon="8.617817789590074"><ele>93.0</ele><time>2026-04-27T11:11:43Z</time></trkpt><trkpt lat="44.892595956525284" lon="8.61773537478243"><ele>93.0</ele><time>2026-04-27T11:11:44Z</time></trkpt><trkpt lat="44.89255180600141" lon="8.61765638623053"><ele>93.33333333333333</ele><time>2026-04-27T11:11:45Z</time></trkpt><trkpt lat="44.89250275211254" lon="8.617580003005266"><ele>93.66666666666667</ele><time>2026-04-27T11:11:46Z</time></trkpt><trkpt lat="44.89244689663999" lon="8.617502138513618"><ele>94.0</ele><time>2026-04-27T11:11:47Z</time></trkpt><trkpt lat="44.89238094620403" lon="8.617430059271154"><ele>94.33333333333334</ele><time>2026-04-27T11:11:48Z</time></trkpt><trkpt lat="44.89229874616252" lon="8.617378395315376"><ele>94.66666666666667</ele><time>2026-04-27T11:11:49Z</time></trkpt><trkpt lat="44.8921863375095" lon="8.617402744774175"><ele>95.0</ele><time>2026-04-27T11:11:50Z</time></trkpt><trkpt lat="44.8921022956853" lon="8.617366563320953"><ele>95.0</ele><time>2026-04-27T11:11:51Z</time></trkpt><trkpt lat="44.892015764207976" lon="8.617267974994897"><ele>95.0</ele><time>2026-04-27T11:11:52Z</time></trkpt><trkpt lat="44.8919327949634" lon="8.617171408877876"><ele>95.0</ele><time>2026-04-27T11:11:53Z</time></trkpt><trkpt lat="44.891866274361035" lon="8.617045320996116"><ele>95.0</ele><time>2026-04-27T11:11:54Z</time></trkpt><trkpt lat="44.89179929693119" lon="8.616912960863397"><ele>95.0</ele><time>2026-04-27T11:11:55Z</time></trkpt><trkpt lat="44.89173350896865" lon="8.616799481975487"><ele>95.0</ele><time>2026-04-27T11:11:56Z</time></trkpt><trkpt lat="44.891662299891905" lon="8.6166915840174"><ele>95.0</ele><time>2026-04-27T11:11:57Z</time></trkpt><trkpt lat="44.891593036073054" lon="8.616587381309136"><ele>95.0</ele><time>2026-04-27T11:11:58Z</time></trkpt><trkpt lat="44.89153095240105" lon="8.616491841261901"><ele>95.0</ele><time>2026-04-27T11:11:59Z</time></trkpt><trkpt lat="44.891481832162626" lon="8.616413526619326"><ele>95.0</ele><time>2026-04-27T11:12:00Z</time></trkpt><trkpt lat="44.891470498436675" lon="8.616303101666672"><ele>95.0</ele><time>2026-04-27T11:12:02Z</time></trkpt><trkpt lat="44.891543858376316" lon="8.61625304540874"><ele>95.0</ele><time>2026-04-27T11:12:04Z</time></trkpt><trkpt lat="44.891597061153966" lon="8.616174272409095"><ele>95.0</ele><time>2026-04-27T11:12:06Z</time></trkpt><trkpt lat="44.891681573171816" lon="8.61606449868952"><ele>95.0</ele><time>2026-04-27T11:12:08Z</time></trkpt><trkpt lat="44.8917805483206" lon="8.615975882397198"><ele>95.0</ele><time>2026-04-27T11:12:10Z</time></trkpt><trkpt lat="44.891858542143275" lon="8.615882046130197"><ele>94.33333333333334</ele><time>2026-04-27T11:12:12Z</time></trkpt><trkpt lat="44.8919314430829" lon="8.615769690733059"><ele>93.66666666666667</ele><time>2026-04-27T11:12:14Z</time></trkpt><trkpt lat="44.89198235415349" lon="8.61570885865573"><ele>93.0</ele><time>2026-04-27T11:12:15Z</time></trkpt><trkpt lat="44.8920322392622" lon="8.615649718400398"><ele>92.33333333333333</ele><time>2026-04-27T11:12:16Z</time></trkpt><trkpt lat="44.89208297419284" lon="8.615584279938401"><ele>91.66666666666666</ele><time>2026-04-27T11:12:17Z</time></trkpt><trkpt lat="44.89216247250196" lon="8.615480048056693"><ele>91.0</ele><time>2026-04-27T11:12:19Z</time></trkpt><trkpt lat="44.89222924565287" lon="8.615403102323992"><ele>91.0</ele><time>2026-04-27T11:12:22Z</time></trkpt><trkpt lat="44.89228234741027" lon="8.615324175466744"><ele>91.0</ele><time>2026-04-27T11:12:25Z</time></trkpt><trkpt lat="44.89221489054811" lon="8.615313729207"><ele>91.0</ele><time>2026-04-27T11:26:39Z</time></trkpt><trkpt lat="44.89231539944726" lon="8.615272876461637"><ele>91.0</ele><time>2026-04-27T11:51:24Z</time></trkpt><trkpt lat="44.89238690089748" lon="8.615173666078917"><ele>91.0</ele><time>2026-04-27T11:51:26Z</time></trkpt><trkpt lat="44.89243971240037" lon="8.615113674373992"><ele>91.0</ele><time>2026-04-27T11:51:29Z</time></trkpt><trkpt lat="44.892501171001186" lon="8.615066094652628"><ele>91.19999999999999</ele><time>2026-04-27T11:51:33Z</time></trkpt><trkpt lat="44.89260850113905" lon="8.61512718873134"><ele>91.39999999999999</ele><time>2026-04-27T11:51:35Z</time></trkpt><trkpt lat="44.892666749714145" lon="8.615213395528922"><ele>91.6</ele><time>2026-04-27T11:51:36Z</time></trkpt><trkpt lat="44.8927256080073" lon="8.615311550925474"><ele>91.8</ele><time>2026-04-27T11:51:37Z</time></trkpt><trkpt lat="44.89278556053808" lon="8.61541524467559"><ele>92.0</ele><time>2026-04-27T11:51:38Z</time></trkpt><trkpt lat="44.89285596306651" lon="8.615535414376236"><ele>92.0</ele><time>2026-04-27T11:51:39Z</time></trkpt><trkpt lat="44.89293354468881" lon="8.615649894313272"><ele>92.0</ele><time>2026-04-27T11:51:40Z</time></trkpt><trkpt lat="44.893006349584056" lon="8.615770126291896"><ele>92.0</ele><time>2026-04-27T11:51:41Z</time></trkpt><trkpt lat="44.89307627097371" lon="8.61588263478218"><ele>92.0</ele><time>2026-04-27T11:51:42Z</time></trkpt><trkpt lat="44.89314551162628" lon="8.616005399149953"><ele>92.0</ele><time>2026-04-27T11:51:43Z</time></trkpt><trkpt lat="44.893236257122005" lon="8.616138358905882"><ele>91.75</ele><time>2026-04-27T11:51:44Z</time></trkpt><trkpt lat="44.89332451041611" lon="8.616272381266759"><ele>91.5</ele><time>2026-04-27T11:51:45.001Z</time></trkpt><trkpt lat="44.89341225153371" lon="8.61642350483339"><ele>91.25</ele><time>2026-04-27T11:51:46.001Z</time></trkpt><trkpt lat="44.89351152611531" lon="8.616560637828112"><ele>91.0</ele><time>2026-04-27T11:51:47.001Z</time></trkpt><trkpt lat="44.89358946862437" lon="8.616680904857233"><ele>91.0</ele><time>2026-04-27T11:51:48.001Z</time></trkpt><trkpt lat="44.89365038833864" lon="8.61679594816563"><ele>91.0</ele><time>2026-04-27T11:51:49.001Z</time></trkpt><trkpt lat="44.893710596137225" lon="8.616897677573867"><ele>91.0</ele><time>2026-04-27T11:51:50.001Z</time></trkpt><trkpt lat="44.89376451408392" lon="8.616985976808683"><ele>91.0</ele><time>2026-04-27T11:51:51.001Z</time></trkpt><trkpt lat="44.89381815353733" lon="8.61706622477751"><ele>91.0</ele><time>2026-04-27T11:51:52.001Z</time></trkpt><trkpt lat="44.893861610192666" lon="8.617142541948832"><ele>91.0</ele><time>2026-04-27T11:51:53.001Z</time></trkpt><trkpt lat="44.89389561122145" lon="8.61722479302399"><ele>91.0</ele><time>2026-04-27T11:51:55.001Z</time></trkpt><trkpt lat="44.89396726584037" lon="8.617336350953316"><ele>91.0</ele><time>2026-04-27T11:51:58.001Z</time></trkpt><trkpt lat="44.89408232089867" lon="8.617252205586645"><ele>91.0</ele><time>2026-04-27T11:51:59.001Z</time></trkpt><trkpt lat="44.89417927244364" lon="8.617145666197747"><ele>91.0</ele><time>2026-04-27T11:52:00Z</time></trkpt><trkpt lat="44.894288939118496" lon="8.617016972863128"><ele>91.25</ele><time>2026-04-27T11:52:01Z</time></trkpt><trkpt lat="44.89438960577672" lon="8.61691815005644"><ele>91.5</ele><time>2026-04-27T11:52:02Z</time></trkpt><trkpt lat="44.89448216381285" lon="8.616834491952606"><ele>91.75</ele><time>2026-04-27T11:52:03Z</time></trkpt><trkpt lat="44.89457630208839" lon="8.616745981786497"><ele>92.0</ele><time>2026-04-27T11:52:04Z</time></trkpt><trkpt lat="44.89466860907108" lon="8.61665424747347"><ele>92.0</ele><time>2026-04-27T11:52:05Z</time></trkpt><trkpt lat="44.894756890547335" lon="8.616573745543565"><ele>92.0</ele><time>2026-04-27T11:52:06Z</time></trkpt><trkpt lat="44.894833076986366" lon="8.616514727406136"><ele>92.0</ele><time>2026-04-27T11:52:07Z</time></trkpt><trkpt lat="44.894911271107915" lon="8.616479966839382"><ele>92.0</ele><time>2026-04-27T11:52:08Z</time></trkpt><trkpt lat="44.894971897763064" lon="8.616439232812997"><ele>92.0</ele><time>2026-04-27T11:52:09Z</time></trkpt><trkpt lat="44.895044411663164" lon="8.616521929815667"><ele>92.0</ele><time>2026-04-27T11:52:10Z</time></trkpt><trkpt lat="44.89517290769342" lon="8.616537909111404"><ele>92.5</ele><time>2026-04-27T11:52:12Z</time></trkpt><trkpt lat="44.89523702812223" lon="8.616517362266334"><ele>93.0</ele><time>2026-04-27T11:52:13Z</time></trkpt><trkpt lat="44.895295981240835" lon="8.616463984611865"><ele>93.5</ele><time>2026-04-27T11:52:14Z</time></trkpt><trkpt lat="44.89534717306339" lon="8.6163682457398"><ele>94.0</ele><time>2026-04-27T11:52:15Z</time></trkpt><trkpt lat="44.89538071963218" lon="8.616257281092453"><ele>94.5</ele><time>2026-04-27T11:52:16Z</time></trkpt><trkpt lat="44.8954247240419" lon="8.616163855922014"><ele>95.0</ele><time>2026-04-27T11:52:17Z</time></trkpt><trkpt lat="44.8955371121539" lon="8.616183032337299"><ele>95.0</ele><time>2026-04-27T11:52:18Z</time></trkpt><trkpt lat="44.89562175303207" lon="8.616212372295324"><ele>95.0</ele><time>2026-04-27T11:52:19Z</time></trkpt><trkpt lat="44.89571056562537" lon="8.616242866850513"><ele>95.0</ele><time>2026-04-27T11:52:20Z</time></trkpt><trkpt lat="44.89580861019236" lon="8.616240469836868"><ele>95.0</ele><time>2026-04-27T11:52:21Z</time></trkpt><trkpt lat="44.89592486436283" lon="8.616219092109167"><ele>95.0</ele><time>2026-04-27T11:52:22Z</time></trkpt><trkpt lat="44.89611026410808" lon="8.616161305219645"><ele>94.25</ele><time>2026-04-27T11:52:23Z</time></trkpt><trkpt lat="44.89624581382169" lon="8.616153104462192"><ele>93.5</ele><time>2026-04-27T11:52:24Z</time></trkpt><trkpt lat="44.89639212101841" lon="8.616144252877078"><ele>92.75</ele><time>2026-04-27T11:52:25Z</time></trkpt><trkpt lat="44.8965401945966" lon="8.616102913527838"><ele>92.0</ele><time>2026-04-27T11:52:26Z</time></trkpt><trkpt lat="44.896680063986636" lon="8.616091256515165"><ele>91.5</ele><time>2026-04-27T11:52:27Z</time></trkpt><trkpt lat="44.896785286729354" lon="8.616083457992312"><ele>91.0</ele><time>2026-04-27T11:52:28Z</time></trkpt><trkpt lat="44.89687293817084" lon="8.616084915034348"><ele>90.5</ele><time>2026-04-27T11:52:29Z</time></trkpt><trkpt lat="44.8969566743773" lon="8.616104973494297"><ele>90.0</ele><time>2026-04-27T11:52:30Z</time></trkpt><trkpt lat="44.897026104836485" lon="8.616101582488211"><ele>89.5</ele><time>2026-04-27T11:52:31Z</time></trkpt><trkpt lat="44.89710438586669" lon="8.616100724816159"><ele>89.0</ele><time>2026-04-27T11:52:32Z</time></trkpt><trkpt lat="44.897169846929735" lon="8.616104511474493"><ele>89.0</ele><time>2026-04-27T11:52:33Z</time></trkpt><trkpt lat="44.897261186923075" lon="8.61622917610856"><ele>89.0</ele><time>2026-04-27T11:52:35Z</time></trkpt><trkpt lat="44.89733961206413" lon="8.61626135333586"><ele>89.0</ele><time>2026-04-27T11:52:36Z</time></trkpt><trkpt lat="44.89742833064006" lon="8.616169293225026"><ele>89.0</ele><time>2026-04-27T11:52:37Z</time></trkpt><trkpt lat="44.89750216352505" lon="8.616099568851977"><ele>89.0</ele><time>2026-04-27T11:52:38Z</time></trkpt><trkpt lat="44.89759578136882" lon="8.61605827095753"><ele>89.75</ele><time>2026-04-27T11:52:39Z</time></trkpt><trkpt lat="44.897713515221916" lon="8.616057683620417"><ele>90.5</ele><time>2026-04-27T11:52:40Z</time></trkpt><trkpt lat="44.89785305745137" lon="8.616076782162946"><ele>91.25</ele><time>2026-04-27T11:52:41Z</time></trkpt><trkpt lat="44.89799221234281" lon="8.616021706419106"><ele>92.0</ele><time>2026-04-27T11:52:42Z</time></trkpt><trkpt lat="44.89813157651597" lon="8.615977092961792"><ele>92.0</ele><time>2026-04-27T11:52:43Z</time></trkpt><trkpt lat="44.89827739211702" lon="8.615902602694652"><ele>92.0</ele><time>2026-04-27T11:52:44Z</time></trkpt><trkpt lat="44.89841037031618" lon="8.615819973714398"><ele>92.0</ele><time>2026-04-27T11:52:45Z</time></trkpt><trkpt lat="44.89852291214961" lon="8.615748790629528"><ele>92.0</ele><time>2026-04-27T11:52:46Z</time></trkpt><trkpt lat="44.89861303763456" lon="8.615677132346635"><ele>92.19999999999999</ele><time>2026-04-27T11:52:47Z</time></trkpt><trkpt lat="44.8986901757027" lon="8.615599120759171"><ele>92.4</ele><time>2026-04-27T11:52:48Z</time></trkpt><trkpt lat="44.89877889790656" lon="8.615575632238622"><ele>92.6</ele><time>2026-04-27T11:52:49Z</time></trkpt><trkpt lat="44.89885986022536" lon="8.615636889376004"><ele>92.80000000000001</ele><time>2026-04-27T11:52:50Z</time></trkpt><trkpt lat="44.8989488129684" lon="8.615597292920885"><ele>93.0</ele><time>2026-04-27T11:52:51Z</time></trkpt><trkpt lat="44.899001394246916" lon="8.615428702475457"><ele>93.0</ele><time>2026-04-27T11:52:52Z</time></trkpt><trkpt lat="44.899083067317754" lon="8.615291334898258"><ele>93.0</ele><time>2026-04-27T11:52:53Z</time></trkpt><trkpt lat="44.89917287911473" lon="8.615154497085847"><ele>93.0</ele><time>2026-04-27T11:52:54Z</time></trkpt><trkpt lat="44.899264682354364" lon="8.615011427070007"><ele>93.0</ele><time>2026-04-27T11:52:55Z</time></trkpt><trkpt lat="44.899361738481446" lon="8.614862384643052"><ele>93.66666666666667</ele><time>2026-04-27T11:52:56Z</time></trkpt><trkpt lat="44.89946422633127" lon="8.614716626833983"><ele>94.33333333333334</ele><time>2026-04-27T11:52:57Z</time></trkpt><trkpt lat="44.89957932842489" lon="8.614569488211218"><ele>95.0</ele><time>2026-04-27T11:52:58Z</time></trkpt><trkpt lat="44.899709548799706" lon="8.614419429182533"><ele>95.0</ele><time>2026-04-27T11:52:59Z</time></trkpt><trkpt lat="44.89983483938423" lon="8.614275542855356"><ele>95.0</ele><time>2026-04-27T11:53:00Z</time></trkpt><trkpt lat="44.89994095025495" lon="8.614123844712845"><ele>95.0</ele><time>2026-04-27T11:53:01Z</time></trkpt><trkpt lat="44.90004484014416" lon="8.61400499787493"><ele>95.0</ele><time>2026-04-27T11:53:02Z</time></trkpt><trkpt lat="44.900141286410395" lon="8.613864601589425"><ele>95.0</ele><time>2026-04-27T11:53:03Z</time></trkpt><trkpt lat="44.90021430059495" lon="8.613681658564253"><ele>95.0</ele><time>2026-04-27T11:53:04Z</time></trkpt><trkpt lat="44.90026787315383" lon="8.613474537986495"><ele>95.0</ele><time>2026-04-27T11:53:05Z</time></trkpt><trkpt lat="44.900339629790885" lon="8.613299869785353"><ele>95.0</ele><time>2026-04-27T11:53:06Z</time></trkpt><trkpt lat="44.90039343243464" lon="8.61313175699962"><ele>95.0</ele><time>2026-04-27T11:53:07Z</time></trkpt><trkpt lat="44.90045038392695" lon="8.612987203589974"><ele>95.0</ele><time>2026-04-27T11:53:08Z</time></trkpt><trkpt lat="44.900529684749564" lon="8.612858888101782"><ele>95.0</ele><time>2026-04-27T11:53:09Z</time></trkpt><trkpt lat="44.90062337936446" lon="8.61272166075667"><ele>95.0</ele><time>2026-04-27T11:53:10Z</time></trkpt><trkpt lat="44.90071424781488" lon="8.61258996608086"><ele>95.0</ele><time>2026-04-27T11:53:11Z</time></trkpt><trkpt lat="44.90079371529785" lon="8.612444694482782"><ele>95.0</ele><time>2026-04-27T11:53:12Z</time></trkpt><trkpt lat="44.900868983287154" lon="8.61233977337283"><ele>95.0</ele><time>2026-04-27T11:53:13Z</time></trkpt><trkpt lat="44.90094390401968" lon="8.61224633081622"><ele>95.0</ele><time>2026-04-27T11:53:14Z</time></trkpt><trkpt lat="44.9010216730922" lon="8.612131781858334"><ele>95.0</ele><time>2026-04-27T11:53:15Z</time></trkpt><trkpt lat="44.9011082039922" lon="8.612011468828085"><ele>94.75</ele><time>2026-04-27T11:53:16Z</time></trkpt><trkpt lat="44.90119737186972" lon="8.611880625615512"><ele>94.5</ele><time>2026-04-27T11:53:17Z</time></trkpt><trkpt lat="44.90128821504841" lon="8.611742296292334"><ele>94.25</ele><time>2026-04-27T11:53:18Z</time></trkpt><trkpt lat="44.90138126432625" lon="8.61160172230429"><ele>94.0</ele><time>2026-04-27T11:53:19Z</time></trkpt><trkpt lat="44.90147641894088" lon="8.611467405572554"><ele>94.0</ele><time>2026-04-27T11:53:20Z</time></trkpt><trkpt lat="44.90155923811764" lon="8.61134889576307"><ele>94.0</ele><time>2026-04-27T11:53:21Z</time></trkpt><trkpt lat="44.901634505454695" lon="8.611239435973383"><ele>94.0</ele><time>2026-04-27T11:53:22Z</time></trkpt><trkpt lat="44.90170611128407" lon="8.611134905982034"><ele>94.0</ele><time>2026-04-27T11:53:23Z</time></trkpt><trkpt lat="44.901777263058584" lon="8.611036110738379"><ele>94.0</ele><time>2026-04-27T11:53:24Z</time></trkpt><trkpt lat="44.90182778071078" lon="8.610962302527081"><ele>94.2</ele><time>2026-04-27T11:53:25Z</time></trkpt><trkpt lat="44.90188950929558" lon="8.610863993262297"><ele>94.4</ele><time>2026-04-27T11:53:27Z</time></trkpt><trkpt lat="44.90194663100863" lon="8.61081478493221"><ele>94.6</ele><time>2026-04-27T11:53:45Z</time></trkpt><trkpt lat="44.902019216570665" lon="8.610823045210712"><ele>94.8</ele><time>2026-04-27T11:53:48.999Z</time></trkpt><trkpt lat="44.90209861815812" lon="8.610667280793477"><ele>95.0</ele><time>2026-04-27T11:53:51.001Z</time></trkpt><trkpt lat="44.90210351738533" lon="8.610521722030654"><ele>95.0</ele><time>2026-04-27T11:53:52.001Z</time></trkpt><trkpt lat="44.90210832767765" lon="8.610378805848999"><ele>95.0</ele><time>2026-04-27T11:53:53.001Z</time></trkpt><trkpt lat="44.90211312394038" lon="8.610236306304897"><ele>95.0</ele><time>2026-04-27T11:53:54.001Z</time></trkpt><trkpt lat="44.90210438039404" lon="8.610093758596879"><ele>95.0</ele><time>2026-04-27T11:53:55.001Z</time></trkpt><trkpt lat="44.902116067077976" lon="8.609965795280246"><ele>95.0</ele><time>2026-04-27T11:53:56.001Z</time></trkpt><trkpt lat="44.90211800848286" lon="8.609833186908643"><ele>95.0</ele><time>2026-04-27T11:53:57.001Z</time></trkpt><trkpt lat="44.90212099463931" lon="8.609695614996673"><ele>95.0</ele><time>2026-04-27T11:53:58Z</time></trkpt><trkpt lat="44.90212697120053" lon="8.609557807805357"><ele>95.0</ele><time>2026-04-27T11:53:59Z</time></trkpt><trkpt lat="44.90213341581943" lon="8.609409503043056"><ele>95.0</ele><time>2026-04-27T11:54:00Z</time></trkpt><trkpt lat="44.902143612273385" lon="8.60926989254664"><ele>95.0</ele><time>2026-04-27T11:54:01Z</time></trkpt><trkpt lat="44.90214630939698" lon="8.609119771206561"><ele>95.0</ele><time>2026-04-27T11:54:02Z</time></trkpt><trkpt lat="44.902152026166235" lon="8.608967691462151"><ele>95.0</ele><time>2026-04-27T11:54:03Z</time></trkpt><trkpt lat="44.90215541354643" lon="8.608807806172255"><ele>95.0</ele><time>2026-04-27T11:54:04Z</time></trkpt><trkpt lat="44.902159378444594" lon="8.608646357838603"><ele>95.0</ele><time>2026-04-27T11:54:05Z</time></trkpt><trkpt lat="44.90215964405197" lon="8.608477862669595"><ele>95.25</ele><time>2026-04-27T11:54:06Z</time></trkpt><trkpt lat="44.902164583651775" lon="8.608301421951172"><ele>95.5</ele><time>2026-04-27T11:54:07Z</time></trkpt><trkpt lat="44.90217189784926" lon="8.608131417279402"><ele>95.75</ele><time>2026-04-27T11:54:08Z</time></trkpt><trkpt lat="44.90217555813389" lon="8.607949583124682"><ele>96.0</ele><time>2026-04-27T11:54:09Z</time></trkpt><trkpt lat="44.902186434535324" lon="8.607769132010644"><ele>96.0</ele><time>2026-04-27T11:54:10Z</time></trkpt><trkpt lat="44.902191864744516" lon="8.607583867583672"><ele>96.0</ele><time>2026-04-27T11:54:11Z</time></trkpt><trkpt lat="44.902199901760206" lon="8.607398865843724"><ele>96.0</ele><time>2026-04-27T11:54:12Z</time></trkpt><trkpt lat="44.90220646521961" lon="8.607220406102694"><ele>96.0</ele><time>2026-04-27T11:54:13Z</time></trkpt><trkpt lat="44.902216446697835" lon="8.607049931896988"><ele>96.4</ele><time>2026-04-27T11:54:14Z</time></trkpt><trkpt lat="44.90221966632873" lon="8.606893561638913"><ele>96.8</ele><time>2026-04-27T11:54:15Z</time></trkpt><trkpt lat="44.90222271138909" lon="8.606761923968733"><ele>97.2</ele><time>2026-04-27T11:54:16Z</time></trkpt><trkpt lat="44.90221886967189" lon="8.606618797835484"><ele>97.60000000000001</ele><time>2026-04-27T11:54:17Z</time></trkpt><trkpt lat="44.90222356874817" lon="8.60650067874125"><ele>98.0</ele><time>2026-04-27T11:54:18Z</time></trkpt><trkpt lat="44.90222630847479" lon="8.606404952063325"><ele>97.99999999999999</ele><time>2026-04-27T11:54:19Z</time></trkpt><trkpt lat="44.90223761868204" lon="8.606259131818573"><ele>98.0</ele><time>2026-04-27T11:54:21Z</time></trkpt><trkpt lat="44.902237310992966" lon="8.60616648251038"><ele>98.0</ele><time>2026-04-27T11:54:23Z</time></trkpt><trkpt lat="44.90224197180013" lon="8.606069363436399"><ele>98.0</ele><time>2026-04-27T11:54:25Z</time></trkpt><trkpt lat="44.90226094820124" lon="8.605941726160797"><ele>97.99999999999999</ele><time>2026-04-27T11:54:27Z</time></trkpt><trkpt lat="44.90226865466511" lon="8.60582716997076"><ele>98.0</ele><time>2026-04-27T11:54:29Z</time></trkpt><trkpt lat="44.902251646931745" lon="8.60571012262723"><ele>98.0</ele><time>2026-04-27T11:55:10Z</time></trkpt><trkpt lat="44.902266004834836" lon="8.60559395663168"><ele>98.0</ele><time>2026-04-27T11:55:13Z</time></trkpt><trkpt lat="44.90233274203582" lon="8.605556968713799"><ele>98.0</ele><time>2026-04-27T11:55:16Z</time></trkpt><trkpt lat="44.90244678164206" lon="8.60560717185396"><ele>98.0</ele><time>2026-04-27T11:55:17Z</time></trkpt><trkpt lat="44.90252037025132" lon="8.605697902770048"><ele>98.0</ele><time>2026-04-27T11:55:18Z</time></trkpt><trkpt lat="44.902606084495524" lon="8.605805257860613"><ele>98.0</ele><time>2026-04-27T11:55:19Z</time></trkpt><trkpt lat="44.90269285609505" lon="8.605945984647828"><ele>98.0</ele><time>2026-04-27T11:55:20Z</time></trkpt><trkpt lat="44.90278308618418" lon="8.606040461511066"><ele>98.0</ele><time>2026-04-27T11:55:21Z</time></trkpt><trkpt lat="44.90286221422795" lon="8.606126320730928"><ele>98.0</ele><time>2026-04-27T11:55:22Z</time></trkpt><trkpt lat="44.9029376944448" lon="8.606220151762555"><ele>98.0</ele><time>2026-04-27T11:55:23Z</time></trkpt><trkpt lat="44.90301536229963" lon="8.606313424275365"><ele>98.0</ele><time>2026-04-27T11:55:24Z</time></trkpt><trkpt lat="44.903092521228736" lon="8.606413102871986"><ele>98.0</ele><time>2026-04-27T11:55:25Z</time></trkpt><trkpt lat="44.90316772999772" lon="8.606511225578796"><ele>98.0</ele><time>2026-04-27T11:55:26Z</time></trkpt><trkpt lat="44.903244266064554" lon="8.606609507217316"><ele>98.0</ele><time>2026-04-27T11:55:27Z</time></trkpt><trkpt lat="44.90332289549903" lon="8.60671642746427"><ele>98.0</ele><time>2026-04-27T11:55:27.999Z</time></trkpt><trkpt lat="44.90340536415484" lon="8.606793385164393"><ele>97.75</ele><time>2026-04-27T11:55:28.999Z</time></trkpt><trkpt lat="44.903473756194515" lon="8.606864093050138"><ele>97.5</ele><time>2026-04-27T11:55:29.999Z</time></trkpt><trkpt lat="44.90343742059954" lon="8.607160967925864"><ele>97.25</ele><time>2026-04-27T11:55:30.999Z</time></trkpt><trkpt lat="44.90339792409278" lon="8.607334283151598"><ele>97.0</ele><time>2026-04-27T11:55:31.999Z</time></trkpt><trkpt lat="44.9033618989289" lon="8.607523268899369"><ele>97.0</ele><time>2026-04-27T11:55:32.999Z</time></trkpt><trkpt lat="44.90332670160657" lon="8.607732830101286"><ele>97.0</ele><time>2026-04-27T11:55:33.999Z</time></trkpt><trkpt lat="44.903306811370776" lon="8.607978631471354"><ele>97.0</ele><time>2026-04-27T11:55:34.999Z</time></trkpt><trkpt lat="44.90332188465974" lon="8.60821889943565"><ele>97.0</ele><time>2026-04-27T11:55:35.999Z</time></trkpt><trkpt lat="44.90335276839377" lon="8.608471779335575"><ele>97.0</ele><time>2026-04-27T11:55:36.999Z</time></trkpt><trkpt lat="44.9034035096992" lon="8.60868684816518"><ele>97.0</ele><time>2026-04-27T11:55:37.999Z</time></trkpt><trkpt lat="44.90346776226897" lon="8.608896174105992"><ele>97.0</ele><time>2026-04-27T11:55:38.999Z</time></trkpt><trkpt lat="44.90356297989613" lon="8.60907712211462"><ele>97.0</ele><time>2026-04-27T11:55:39.999Z</time></trkpt><trkpt lat="44.90367655413632" lon="8.609298028348324"><ele>97.0</ele><time>2026-04-27T11:55:40.999Z</time></trkpt><trkpt lat="44.90378677459688" lon="8.609533733381348"><ele>97.0</ele><time>2026-04-27T11:55:41.999Z</time></trkpt><trkpt lat="44.903880118429186" lon="8.609775147636915"><ele>97.0</ele><time>2026-04-27T11:55:42.999Z</time></trkpt><trkpt lat="44.903981739781194" lon="8.610010646535708"><ele>97.0</ele><time>2026-04-27T11:55:43.999Z</time></trkpt><trkpt lat="44.90408658381243" lon="8.610244205041596"><ele>96.66666666666667</ele><time>2026-04-27T11:55:44.999Z</time></trkpt><trkpt lat="44.90418711557358" lon="8.610469747779534"><ele>96.33333333333334</ele><time>2026-04-27T11:55:45.999Z</time></trkpt><trkpt lat="44.904282773718265" lon="8.610677120934932"><ele>96.0</ele><time>2026-04-27T11:55:46.999Z</time></trkpt><trkpt lat="44.90436992374616" lon="8.610857758305983"><ele>96.25</ele><time>2026-04-27T11:55:47.999Z</time></trkpt><trkpt lat="44.90447254187131" lon="8.611086849939632"><ele>96.5</ele><time>2026-04-27T11:55:48.999Z</time></trkpt><trkpt lat="44.90453509030623" lon="8.611173771451428"><ele>96.75</ele><time>2026-04-27T11:55:50.999Z</time></trkpt><trkpt lat="44.90461189737113" lon="8.61130918768866"><ele>97.0</ele><time>2026-04-27T11:55:51.999Z</time></trkpt><trkpt lat="44.90467981079755" lon="8.611428025708712"><ele>97.0</ele><time>2026-04-27T11:55:52.999Z</time></trkpt><trkpt lat="44.904751724584365" lon="8.611550217315333"><ele>97.0</ele><time>2026-04-27T11:55:53.999Z</time></trkpt><trkpt lat="44.90482410944998" lon="8.611672194502546"><ele>97.0</ele><time>2026-04-27T11:55:54.999Z</time></trkpt><trkpt lat="44.904917251265665" lon="8.611771425893465"><ele>97.0</ele><time>2026-04-27T11:55:55.999Z</time></trkpt><trkpt lat="44.905021767312526" lon="8.611879823289692"><ele>97.5</ele><time>2026-04-27T11:55:57Z</time></trkpt><trkpt lat="44.90514255406819" lon="8.611955552485822"><ele>98.0</ele><time>2026-04-27T11:55:58Z</time></trkpt><trkpt lat="44.90527433227288" lon="8.611992048171142"><ele>98.5</ele><time>2026-04-27T11:55:59Z</time></trkpt><trkpt lat="44.90540784029876" lon="8.611993581080878"><ele>99.0</ele><time>2026-04-27T11:56:00Z</time></trkpt><trkpt lat="44.90554812204485" lon="8.611964310232898"><ele>99.0</ele><time>2026-04-27T11:56:01Z</time></trkpt><trkpt lat="44.9056922176317" lon="8.611955088221562"><ele>99.0</ele><time>2026-04-27T11:56:02Z</time></trkpt><trkpt lat="44.90584088306218" lon="8.611936147083508"><ele>99.0</ele><time>2026-04-27T11:56:03Z</time></trkpt><trkpt lat="44.9059949431566" lon="8.611915885721778"><ele>99.0</ele><time>2026-04-27T11:56:04Z</time></trkpt><trkpt lat="44.90614276333131" lon="8.611896334828606"><ele>98.83333333333333</ele><time>2026-04-27T11:56:05Z</time></trkpt><trkpt lat="44.9062713570204" lon="8.611881513390879"><ele>98.66666666666666</ele><time>2026-04-27T11:56:06Z</time></trkpt><trkpt lat="44.90636561699592" lon="8.611872268389503"><ele>98.5</ele><time>2026-04-27T11:56:07Z</time></trkpt><trkpt lat="44.90644486659169" lon="8.611865729327262"><ele>98.33333333333333</ele><time>2026-04-27T11:56:08Z</time></trkpt><trkpt lat="44.90650784257553" lon="8.611861171052496"><ele>98.16666666666666</ele><time>2026-04-27T11:56:09Z</time></trkpt><trkpt lat="44.90657295681059" lon="8.611857314255245"><ele>98.0</ele><time>2026-04-27T11:56:11Z</time></trkpt><trkpt lat="44.90664358312864" lon="8.61185313097845"><ele>97.99999999999999</ele><time>2026-04-27T11:56:25Z</time></trkpt><trkpt lat="44.906721916252664" lon="8.611784282314854"><ele>98.0</ele><time>2026-04-27T11:56:27Z</time></trkpt><trkpt lat="44.9068067023545" lon="8.611798347183633"><ele>98.0</ele><time>2026-04-27T11:56:43Z</time></trkpt><trkpt lat="44.9068882015529" lon="8.61179661860582"><ele>98.0</ele><time>2026-04-27T11:56:46Z</time></trkpt><trkpt lat="44.906962296605485" lon="8.611797587727708"><ele>97.99999999999999</ele><time>2026-04-27T11:56:49Z</time></trkpt><trkpt lat="44.907024437038224" lon="8.611813914524854"><ele>98.0</ele><time>2026-04-27T11:56:53Z</time></trkpt><trkpt lat="44.90707136220707" lon="8.611889539816298"><ele>98.4</ele><time>2026-04-27T11:56:55Z</time></trkpt><trkpt lat="44.90715570009932" lon="8.612016943851659"><ele>98.80000000000001</ele><time>2026-04-27T11:56:57Z</time></trkpt><trkpt lat="44.90726585157703" lon="8.612008195709725"><ele>99.2</ele><time>2026-04-27T11:56:59Z</time></trkpt><trkpt lat="44.90730561865038" lon="8.611898583374474"><ele>99.6</ele><time>2026-04-27T11:57:00Z</time></trkpt><trkpt lat="44.907321882816426" lon="8.611805094286517"><ele>100.0</ele><time>2026-04-27T11:57:01Z</time></trkpt><trkpt lat="44.90731348048231" lon="8.61168497598562"><ele>100.0</ele><time>2026-04-27T11:57:02Z</time></trkpt><trkpt lat="44.90729604040761" lon="8.611550831072467"><ele>100.0</ele><time>2026-04-27T11:57:03Z</time></trkpt><trkpt lat="44.90729052566423" lon="8.611399579569339"><ele>100.0</ele><time>2026-04-27T11:57:04Z</time></trkpt><trkpt lat="44.9072995170878" lon="8.611215032696755"><ele>100.0</ele><time>2026-04-27T11:57:05Z</time></trkpt><trkpt lat="44.90731255355437" lon="8.61101724981144"><ele>99.25</ele><time>2026-04-27T11:57:06Z</time></trkpt><trkpt lat="44.907302218550235" lon="8.610814095517146"><ele>98.5</ele><time>2026-04-27T11:57:07Z</time></trkpt><trkpt lat="44.907280841691836" lon="8.610604438162389"><ele>97.75</ele><time>2026-04-27T11:57:08Z</time></trkpt><trkpt lat="44.907262510688405" lon="8.61040238096272"><ele>97.0</ele><time>2026-04-27T11:57:09Z</time></trkpt><trkpt lat="44.907252877156296" lon="8.610232769921756"><ele>96.8</ele><time>2026-04-27T11:57:10Z</time></trkpt><trkpt lat="44.90726257564902" lon="8.61008052649038"><ele>96.6</ele><time>2026-04-27T11:57:11Z</time></trkpt><trkpt lat="44.907302397003946" lon="8.609942088575302"><ele>96.39999999999999</ele><time>2026-04-27T11:57:12Z</time></trkpt><trkpt lat="44.90739001356294" lon="8.60984287573808"><ele>96.19999999999999</ele><time>2026-04-27T11:57:13Z</time></trkpt><trkpt lat="44.907477512128416" lon="8.609728230043075"><ele>96.0</ele><time>2026-04-27T11:57:14Z</time></trkpt><trkpt lat="44.90758068897716" lon="8.609630395053955"><ele>96.0</ele><time>2026-04-27T11:57:15Z</time></trkpt><trkpt lat="44.90767134763312" lon="8.609496460266714"><ele>96.0</ele><time>2026-04-27T11:57:16Z</time></trkpt><trkpt lat="44.907776733570344" lon="8.609379670293325"><ele>96.0</ele><time>2026-04-27T11:57:17Z</time></trkpt><trkpt lat="44.90787592582487" lon="8.609291354619895"><ele>96.0</ele><time>2026-04-27T11:57:18Z</time></trkpt><trkpt lat="44.907959450638465" lon="8.609196890675253"><ele>96.19999999999999</ele><time>2026-04-27T11:57:19Z</time></trkpt><trkpt lat="44.908044321672534" lon="8.60910090416322"><ele>96.39999999999999</ele><time>2026-04-27T11:57:19.999Z</time></trkpt><trkpt lat="44.90811406366934" lon="8.60899224099311"><ele>96.6</ele><time>2026-04-27T11:57:20.999Z</time></trkpt><trkpt lat="44.90819651845066" lon="8.608901371538176"><ele>96.8</ele><time>2026-04-27T11:57:21.999Z</time></trkpt><trkpt lat="44.9082675612203" lon="8.608826740756351"><ele>97.0</ele><time>2026-04-27T11:57:22.999Z</time></trkpt><trkpt lat="44.90832427236204" lon="8.608767827401586"><ele>97.0</ele><time>2026-04-27T11:57:23.999Z</time></trkpt><trkpt lat="44.908417608155915" lon="8.608667448762882"><ele>97.0</ele><time>2026-04-27T11:57:25.999Z</time></trkpt><trkpt lat="44.90848321871595" lon="8.608589586766124"><ele>97.0</ele><time>2026-04-27T11:57:27.999Z</time></trkpt><trkpt lat="44.90857178909368" lon="8.608505392891116"><ele>97.0</ele><time>2026-04-27T11:57:32.999Z</time></trkpt><trkpt lat="44.90863375926384" lon="8.608419497678216"><ele>97.0</ele><time>2026-04-27T11:57:34.999Z</time></trkpt><trkpt lat="44.90868347091032" lon="8.60836470206475"><ele>96.8</ele><time>2026-04-27T11:57:36.999Z</time></trkpt><trkpt lat="44.90879943089847" lon="8.608230900462019"><ele>96.6</ele><time>2026-04-27T11:57:38.999Z</time></trkpt><trkpt lat="44.908864351908164" lon="8.608148962507466"><ele>96.39999999999999</ele><time>2026-04-27T11:57:39.999Z</time></trkpt><trkpt lat="44.908941036157046" lon="8.608062138817203"><ele>96.19999999999999</ele><time>2026-04-27T11:57:40.999Z</time></trkpt><trkpt lat="44.90902100263626" lon="8.607978167113496"><ele>96.0</ele><time>2026-04-27T11:57:41.999Z</time></trkpt><trkpt lat="44.90909385901236" lon="8.607894456514948"><ele>96.0</ele><time>2026-04-27T11:57:42.999Z</time></trkpt><trkpt lat="44.90916962475772" lon="8.607805829906873"><ele>96.0</ele><time>2026-04-27T11:57:43.999Z</time></trkpt><trkpt lat="44.90926820888944" lon="8.607697518439224"><ele>96.0</ele><time>2026-04-27T11:57:44.999Z</time></trkpt><trkpt lat="44.90936901173012" lon="8.607574509102541"><ele>96.0</ele><time>2026-04-27T11:57:45.999Z</time></trkpt><trkpt lat="44.90947728794596" lon="8.607460446526291"><ele>96.5</ele><time>2026-04-27T11:57:46.999Z</time></trkpt><trkpt lat="44.90957357684933" lon="8.607359090996729"><ele>97.0</ele><time>2026-04-27T11:57:47.999Z</time></trkpt><trkpt lat="44.90967483039006" lon="8.607278357937163"><ele>97.5</ele><time>2026-04-27T11:57:48.999Z</time></trkpt><trkpt lat="44.909761186620685" lon="8.607180171009265"><ele>98.0</ele><time>2026-04-27T11:57:49.999Z</time></trkpt><trkpt lat="44.90984245976137" lon="8.607091394600785"><ele>97.99999999999999</ele><time>2026-04-27T11:57:50.999Z</time></trkpt><trkpt lat="44.909920575743115" lon="8.607023078079445"><ele>98.0</ele><time>2026-04-27T11:57:51.999Z</time></trkpt><trkpt lat="44.91001146525285" lon="8.606993662241543"><ele>98.0</ele><time>2026-04-27T11:57:53.999Z</time></trkpt><trkpt lat="44.91009230453862" lon="8.606996474995418"><ele>98.0</ele><time>2026-04-27T11:57:56.999Z</time></trkpt><trkpt lat="44.91019259250609" lon="8.607058764516097"><ele>97.99999999999999</ele><time>2026-04-27T11:58:01.999Z</time></trkpt><trkpt lat="44.910236937526534" lon="8.607135790996434"><ele>98.0</ele><time>2026-04-27T11:58:03Z</time></trkpt><trkpt lat="44.91030395096325" lon="8.607184109899974"><ele>98.5</ele><time>2026-04-27T11:58:04Z</time></trkpt><trkpt lat="44.91044766470181" lon="8.60711168218757"><ele>99.0</ele><time>2026-04-27T11:58:06Z</time></trkpt><trkpt lat="44.91047284985534" lon="8.606948241154424"><ele>99.5</ele><time>2026-04-27T11:58:07Z</time></trkpt><trkpt lat="44.91047572621633" lon="8.606814500705436"><ele>100.0</ele><time>2026-04-27T11:58:08Z</time></trkpt><trkpt lat="44.910496596623446" lon="8.606685973960689"><ele>100.25</ele><time>2026-04-27T11:58:09Z</time></trkpt><trkpt lat="44.91058341786721" lon="8.606583795264463"><ele>100.5</ele><time>2026-04-27T11:58:10Z</time></trkpt><trkpt lat="44.91069255034978" lon="8.606459812920548"><ele>100.75</ele><time>2026-04-27T11:58:11Z</time></trkpt><trkpt lat="44.91081679433378" lon="8.606299658570462"><ele>101.0</ele><time>2026-04-27T11:58:12Z</time></trkpt><trkpt lat="44.91095273697955" lon="8.606137310207306"><ele>100.0</ele><time>2026-04-27T11:58:13Z</time></trkpt><trkpt lat="44.91106910005547" lon="8.605998948720867"><ele>99.0</ele><time>2026-04-27T11:58:14Z</time></trkpt><trkpt lat="44.91118149369672" lon="8.605884821634243"><ele>98.0</ele><time>2026-04-27T11:58:15Z</time></trkpt><trkpt lat="44.9112784215009" lon="8.605768664789196"><ele>97.0</ele><time>2026-04-27T11:58:16Z</time></trkpt><trkpt lat="44.911367176466634" lon="8.60566522637318"><ele>97.0</ele><time>2026-04-27T11:58:17Z</time></trkpt><trkpt lat="44.91145509242346" lon="8.605580539401641"><ele>97.0</ele><time>2026-04-27T11:58:18Z</time></trkpt><trkpt lat="44.91152717086708" lon="8.605486944410776"><ele>97.0</ele><time>2026-04-27T11:58:19Z</time></trkpt><trkpt lat="44.91159541917616" lon="8.605402883790498"><ele>97.0</ele><time>2026-04-27T11:58:20Z</time></trkpt><trkpt lat="44.91166380368133" lon="8.605325560449826"><ele>97.0</ele><time>2026-04-27T11:58:21Z</time></trkpt><trkpt lat="44.911723522334306" lon="8.605253879413238"><ele>96.6</ele><time>2026-04-27T11:58:22Z</time></trkpt><trkpt lat="44.91181919951518" lon="8.605199539346483"><ele>96.19999999999999</ele><time>2026-04-27T11:58:24Z</time></trkpt><trkpt lat="44.911919541765" lon="8.605256404557018"><ele>95.8</ele><time>2026-04-27T11:58:26Z</time></trkpt><trkpt lat="44.91198731290409" lon="8.605299479010146"><ele>95.4</ele><time>2026-04-27T11:58:27Z</time></trkpt><trkpt lat="44.91205578631565" lon="8.605280283264317"><ele>95.0</ele><time>2026-04-27T11:58:28Z</time></trkpt><trkpt lat="44.912162645792115" lon="8.605201930861933"><ele>95.0</ele><time>2026-04-27T11:58:30Z</time></trkpt><trkpt lat="44.912137914754545" lon="8.60505816900056"><ele>95.0</ele><time>2026-04-27T11:58:31Z</time></trkpt><trkpt lat="44.91212649032907" lon="8.604963728015955"><ele>95.0</ele><time>2026-04-27T11:58:32Z</time></trkpt><trkpt lat="44.912135392550866" lon="8.604859135748045"><ele>95.0</ele><time>2026-04-27T11:58:33Z</time></trkpt><trkpt lat="44.91218120880563" lon="8.604762055929772"><ele>95.0</ele><time>2026-04-27T11:58:34Z</time></trkpt><trkpt lat="44.91227075913472" lon="8.604662513493754"><ele>95.0</ele><time>2026-04-27T11:58:35Z</time></trkpt><trkpt lat="44.91241363799684" lon="8.604533591674473"><ele>95.66666666666667</ele><time>2026-04-27T11:58:36Z</time></trkpt><trkpt lat="44.91258396235124" lon="8.604377274356386"><ele>96.33333333333334</ele><time>2026-04-27T11:58:37Z</time></trkpt><trkpt lat="44.9127548347568" lon="8.604179836868482"><ele>97.0</ele><time>2026-04-27T11:58:38Z</time></trkpt><trkpt lat="44.91289140928859" lon="8.603978238092353"><ele>97.0</ele><time>2026-04-27T11:58:39Z</time></trkpt><trkpt lat="44.91300697776472" lon="8.603855075516021"><ele>97.0</ele><time>2026-04-27T11:58:40Z</time></trkpt><trkpt lat="44.91312846612059" lon="8.603718994783597"><ele>97.0</ele><time>2026-04-27T11:58:41Z</time></trkpt><trkpt lat="44.913245254568615" lon="8.603586128671974"><ele>96.75</ele><time>2026-04-27T11:58:42Z</time></trkpt><trkpt lat="44.913346013724585" lon="8.603465237239387"><ele>96.5</ele><time>2026-04-27T11:58:43Z</time></trkpt><trkpt lat="44.91344232105932" lon="8.603352550406733"><ele>96.25</ele><time>2026-04-27T11:58:44Z</time></trkpt><trkpt lat="44.913528595155356" lon="8.603244635816791"><ele>96.0</ele><time>2026-04-27T11:58:45Z</time></trkpt><trkpt lat="44.91361956879999" lon="8.60314683631743"><ele>95.6</ele><time>2026-04-27T11:58:46Z</time></trkpt><trkpt lat="44.913705918448436" lon="8.603037732421923"><ele>95.19999999999999</ele><time>2026-04-27T11:58:47Z</time></trkpt><trkpt lat="44.913795783128705" lon="8.602935227826675"><ele>94.80000000000001</ele><time>2026-04-27T11:58:48Z</time></trkpt><trkpt lat="44.91387966517462" lon="8.602837361269492"><ele>94.4</ele><time>2026-04-27T11:58:49Z</time></trkpt><trkpt lat="44.913965800983874" lon="8.602750114936482"><ele>94.0</ele><time>2026-04-27T11:58:50Z</time></trkpt><trkpt lat="44.9140463751057" lon="8.602661119287989"><ele>92.80000000000001</ele><time>2026-04-27T11:58:51Z</time></trkpt><trkpt lat="44.91412833758292" lon="8.602572384935046"><ele>91.60000000000001</ele><time>2026-04-27T11:58:52Z</time></trkpt><trkpt lat="44.91420802807673" lon="8.602478878795484"><ele>90.4</ele><time>2026-04-27T11:58:53Z</time></trkpt><trkpt lat="44.91429182326754" lon="8.602384681734351"><ele>89.2</ele><time>2026-04-27T11:58:54Z</time></trkpt><trkpt lat="44.91437861020784" lon="8.602290374032378"><ele>88.0</ele><time>2026-04-27T11:58:55Z</time></trkpt><trkpt lat="44.91446273213219" lon="8.60219261104709"><ele>87.0</ele><time>2026-04-27T11:58:56Z</time></trkpt><trkpt lat="44.91455240529914" lon="8.602093035577093"><ele>86.0</ele><time>2026-04-27T11:58:57Z</time></trkpt><trkpt lat="44.914639429565966" lon="8.60199420483931"><ele>85.0</ele><time>2026-04-27T11:58:58Z</time></trkpt><trkpt lat="44.91472907926657" lon="8.601891242321281"><ele>84.0</ele><time>2026-04-27T11:58:59Z</time></trkpt><trkpt lat="44.91482494122555" lon="8.601784884712908"><ele>84.0</ele><time>2026-04-27T11:59:00Z</time></trkpt><trkpt lat="44.91492308317883" lon="8.601673918265012"><ele>84.0</ele><time>2026-04-27T11:59:01Z</time></trkpt><trkpt lat="44.91502341389979" lon="8.60155820254076"><ele>84.0</ele><time>2026-04-27T11:59:02Z</time></trkpt><trkpt lat="44.91512604219599" lon="8.601448005203627"><ele>84.0</ele><time>2026-04-27T11:59:03Z</time></trkpt><trkpt lat="44.91522076996115" lon="8.601346219699407"><ele>85.5</ele><time>2026-04-27T11:59:04Z</time></trkpt><trkpt lat="44.915314245179424" lon="8.601232729442804"><ele>87.0</ele><time>2026-04-27T11:59:05Z</time></trkpt><trkpt lat="44.915409396069485" lon="8.601130930243272"><ele>88.5</ele><time>2026-04-27T11:59:06Z</time></trkpt><trkpt lat="44.915490054665256" lon="8.601036299589374"><ele>90.0</ele><time>2026-04-27T11:59:07Z</time></trkpt><trkpt lat="44.91557327123155" lon="8.600947174654758"><ele>90.0</ele><time>2026-04-27T11:59:08Z</time></trkpt><trkpt lat="44.91567207446548" lon="8.600852287090731"><ele>90.0</ele><time>2026-04-27T11:59:09Z</time></trkpt><trkpt lat="44.915780110921986" lon="8.600762428353196"><ele>90.0</ele><time>2026-04-27T11:59:10Z</time></trkpt><trkpt lat="44.91589112486418" lon="8.60069612125405"><ele>90.0</ele><time>2026-04-27T11:59:11Z</time></trkpt><trkpt lat="44.916000048767884" lon="8.600654561616748"><ele>90.0</ele><time>2026-04-27T11:59:12Z</time></trkpt><trkpt lat="44.91610951217267" lon="8.60064129688565"><ele>90.0</ele><time>2026-04-27T11:59:13Z</time></trkpt><trkpt lat="44.91621726034874" lon="8.600637911626203"><ele>90.0</ele><time>2026-04-27T11:59:14Z</time></trkpt><trkpt lat="44.91631372030008" lon="8.600643810890338"><ele>90.0</ele><time>2026-04-27T11:59:15Z</time></trkpt><trkpt lat="44.91640698219657" lon="8.600654120635117"><ele>90.0</ele><time>2026-04-27T11:59:16Z</time></trkpt><trkpt lat="44.91649948994686" lon="8.60067225383268"><ele>90.0</ele><time>2026-04-27T11:59:17Z</time></trkpt><trkpt lat="44.91657864305968" lon="8.600694868933449"><ele>90.0</ele><time>2026-04-27T11:59:18Z</time></trkpt><trkpt lat="44.91664831017523" lon="8.600726894534093"><ele>90.0</ele><time>2026-04-27T11:59:19Z</time></trkpt><trkpt lat="44.916732838562446" lon="8.60078373715291"><ele>90.0</ele><time>2026-04-27T11:59:20.999Z</time></trkpt><trkpt lat="44.91682961752996" lon="8.600868477170419"><ele>90.0</ele><time>2026-04-27T11:59:27.999Z</time></trkpt><trkpt lat="44.916882248997645" lon="8.600923463482392"><ele>90.0</ele><time>2026-04-27T11:59:28.999Z</time></trkpt><trkpt lat="44.91693222062761" lon="8.600986576340956"><ele>90.6</ele><time>2026-04-27T11:59:29.999Z</time></trkpt><trkpt lat="44.917019725824694" lon="8.60111397731429"><ele>91.2</ele><time>2026-04-27T11:59:31.999Z</time></trkpt><trkpt lat="44.91708398388869" lon="8.601165786111608"><ele>91.80000000000001</ele><time>2026-04-27T11:59:32.999Z</time></trkpt><trkpt lat="44.91716465220804" lon="8.601201175346441"><ele>92.4</ele><time>2026-04-27T11:59:33.999Z</time></trkpt><trkpt lat="44.91724176477193" lon="8.601245290098163"><ele>93.0</ele><time>2026-04-27T11:59:34.999Z</time></trkpt><trkpt lat="44.91733350730142" lon="8.601214831956245"><ele>93.0</ele><time>2026-04-27T11:59:35.999Z</time></trkpt><trkpt lat="44.91740816963282" lon="8.60113827332856"><ele>93.0</ele><time>2026-04-27T11:59:36.999Z</time></trkpt><trkpt lat="44.917477518706505" lon="8.60105966073007"><ele>93.0</ele><time>2026-04-27T11:59:37.999Z</time></trkpt><trkpt lat="44.917539554067005" lon="8.600961098684078"><ele>93.0</ele><time>2026-04-27T11:59:38.999Z</time></trkpt><trkpt lat="44.91757514218246" lon="8.600845383215042"><ele>93.0</ele><time>2026-04-27T11:59:39.999Z</time></trkpt><trkpt lat="44.91759601131654" lon="8.600725158560127"><ele>93.0</ele><time>2026-04-27T11:59:40.999Z</time></trkpt><trkpt lat="44.91761292955358" lon="8.600583008958283"><ele>93.0</ele><time>2026-04-27T11:59:41.999Z</time></trkpt><trkpt lat="44.917629525829064" lon="8.600420544898016"><ele>93.0</ele><time>2026-04-27T11:59:42.999Z</time></trkpt><trkpt lat="44.9176611375009" lon="8.6002278745836"><ele>93.0</ele><time>2026-04-27T11:59:43.999Z</time></trkpt><trkpt lat="44.91770719470604" lon="8.600017306931967"><ele>93.0</ele><time>2026-04-27T11:59:44.999Z</time></trkpt><trkpt lat="44.917765437941185" lon="8.599801154203755"><ele>93.0</ele><time>2026-04-27T11:59:45.999Z</time></trkpt><trkpt lat="44.91783324140536" lon="8.59956627634828"><ele>93.0</ele><time>2026-04-27T11:59:46.999Z</time></trkpt><trkpt lat="44.91790733435409" lon="8.599331957112478"><ele>93.0</ele><time>2026-04-27T11:59:47.999Z</time></trkpt><trkpt lat="44.91797730438485" lon="8.599120011841157"><ele>93.0</ele><time>2026-04-27T11:59:48.999Z</time></trkpt><trkpt lat="44.918034306008096" lon="8.59896453822429"><ele>93.0</ele><time>2026-04-27T11:59:49.999Z</time></trkpt><trkpt lat="44.9180802091484" lon="8.59885076165336"><ele>93.0</ele><time>2026-04-27T11:59:50.999Z</time></trkpt><trkpt lat="44.91810423151795" lon="8.598765223917665"><ele>93.0</ele><time>2026-04-27T11:59:51.999Z</time></trkpt><trkpt lat="44.91824764360197" lon="8.598428613136365"><ele>93.0</ele><time>2026-04-27T11:59:52.999Z</time></trkpt><trkpt lat="44.91829674175666" lon="8.598321255853152"><ele>93.0</ele><time>2026-04-27T11:59:53.999Z</time></trkpt><trkpt lat="44.91834535031886" lon="8.598226382339371"><ele>93.0</ele><time>2026-04-27T11:59:54.999Z</time></trkpt><trkpt lat="44.918388185741456" lon="8.598146117634608"><ele>93.0</ele><time>2026-04-27T11:59:55.999Z</time></trkpt><trkpt lat="44.918430091745144" lon="8.5980702609047"><ele>93.0</ele><time>2026-04-27T11:59:56.999Z</time></trkpt><trkpt lat="44.91848631888462" lon="8.597936944038961"><ele>93.0</ele><time>2026-04-27T11:59:58.999Z</time></trkpt><trkpt lat="44.918517657771915" lon="8.59785272242795"><ele>92.5</ele><time>2026-04-27T12:00:00.999Z</time></trkpt><trkpt lat="44.91855100835086" lon="8.597771649326518"><ele>92.0</ele><time>2026-04-27T12:00:01.999Z</time></trkpt><trkpt lat="44.91859477591467" lon="8.597677383519592"><ele>91.5</ele><time>2026-04-27T12:00:02.999Z</time></trkpt><trkpt lat="44.91864044906925" lon="8.597578215677261"><ele>91.0</ele><time>2026-04-27T12:00:03.999Z</time></trkpt><trkpt lat="44.918699565273215" lon="8.597480151395839"><ele>90.5</ele><time>2026-04-27T12:00:04.999Z</time></trkpt><trkpt lat="44.91876118850621" lon="8.597426606853988"><ele>90.0</ele><time>2026-04-27T12:00:05.999Z</time></trkpt><trkpt lat="44.91887728432657" lon="8.597428917325924"><ele>90.0</ele><time>2026-04-27T12:00:07.999Z</time></trkpt><trkpt lat="44.918942888984866" lon="8.597402654447912"><ele>90.0</ele><time>2026-04-27T12:00:09Z</time></trkpt><trkpt lat="44.91900042514903" lon="8.597296170855989"><ele>90.0</ele><time>2026-04-27T12:00:11Z</time></trkpt><trkpt lat="44.91887159003389" lon="8.59736679848351"><ele>90.0</ele><time>2026-04-27T12:05:03Z</time></trkpt><trkpt lat="44.91892673289452" lon="8.597235863300416"><ele>90.0</ele><time>2026-04-27T12:05:14Z</time></trkpt><trkpt lat="44.91892069165704" lon="8.597144050412656"><ele>90.0</ele><time>2026-04-27T12:05:15Z</time></trkpt><trkpt lat="44.918934022650554" lon="8.597010117076357"><ele>90.0</ele><time>2026-04-27T12:05:17Z</time></trkpt><trkpt lat="44.918972713976636" lon="8.59682885365396"><ele>90.0</ele><time>2026-04-27T12:05:19Z</time></trkpt><trkpt lat="44.91902180218963" lon="8.596711773366351"><ele>90.0</ele><time>2026-04-27T12:05:20Z</time></trkpt><trkpt lat="44.919079808917026" lon="8.596585642570538"><ele>90.0</ele><time>2026-04-27T12:05:21Z</time></trkpt><trkpt lat="44.919143043638556" lon="8.596444769926126"><ele>90.0</ele><time>2026-04-27T12:05:22Z</time></trkpt><trkpt lat="44.91921168601229" lon="8.596295518378508"><ele>90.0</ele><time>2026-04-27T12:05:23Z</time></trkpt><trkpt lat="44.91927800066822" lon="8.596143141349387"><ele>90.0</ele><time>2026-04-27T12:05:24Z</time></trkpt><trkpt lat="44.91935183829921" lon="8.595974713099158"><ele>90.0</ele><time>2026-04-27T12:05:25Z</time></trkpt><trkpt lat="44.91942712437349" lon="8.59579881952002"><ele>89.66666666666667</ele><time>2026-04-27T12:05:26Z</time></trkpt><trkpt lat="44.91950872616439" lon="8.595611052972211"><ele>89.33333333333334</ele><time>2026-04-27T12:05:27Z</time></trkpt><trkpt lat="44.919590859473324" lon="8.59541851189141"><ele>89.0</ele><time>2026-04-27T12:05:28Z</time></trkpt><trkpt lat="44.9196750196973" lon="8.595226271973866"><ele>89.0</ele><time>2026-04-27T12:05:29Z</time></trkpt><trkpt lat="44.91974502370845" lon="8.595061443297606"><ele>89.0</ele><time>2026-04-27T12:05:30Z</time></trkpt><trkpt lat="44.91981157760629" lon="8.594918801009769"><ele>89.0</ele><time>2026-04-27T12:05:31Z</time></trkpt><trkpt lat="44.91987650377683" lon="8.594771104887709"><ele>89.0</ele><time>2026-04-27T12:05:32Z</time></trkpt><trkpt lat="44.919940162271175" lon="8.594627608120202"><ele>89.2</ele><time>2026-04-27T12:05:33Z</time></trkpt><trkpt lat="44.920006692834036" lon="8.594492497893578"><ele>89.4</ele><time>2026-04-27T12:05:33.999Z</time></trkpt><trkpt lat="44.92007891731389" lon="8.594366633536156"><ele>89.6</ele><time>2026-04-27T12:05:34.999Z</time></trkpt><trkpt lat="44.92016000515254" lon="8.594258575848094"><ele>89.8</ele><time>2026-04-27T12:05:35.999Z</time></trkpt><trkpt lat="44.92024528268316" lon="8.5941860173447"><ele>90.0</ele><time>2026-04-27T12:05:36.999Z</time></trkpt><trkpt lat="44.92034675031132" lon="8.594167459681117"><ele>90.0</ele><time>2026-04-27T12:05:37.999Z</time></trkpt><trkpt lat="44.920439294096376" lon="8.594163830563906"><ele>90.0</ele><time>2026-04-27T12:05:38.999Z</time></trkpt><trkpt lat="44.92052349660803" lon="8.594112156208363"><ele>90.0</ele><time>2026-04-27T12:05:39.999Z</time></trkpt><trkpt lat="44.920583296357066" lon="8.59401703638359"><ele>90.0</ele><time>2026-04-27T12:05:40.999Z</time></trkpt><trkpt lat="44.920600189695236" lon="8.593905713291532"><ele>90.0</ele><time>2026-04-27T12:05:41.999Z</time></trkpt><trkpt lat="44.92057880982832" lon="8.59379042753791"><ele>90.0</ele><time>2026-04-27T12:05:42.999Z</time></trkpt><trkpt lat="44.92054280731783" lon="8.593664635662845"><ele>90.0</ele><time>2026-04-27T12:05:43.999Z</time></trkpt><trkpt lat="44.920516842404226" lon="8.593518573256533"><ele>90.0</ele><time>2026-04-27T12:05:44.999Z</time></trkpt><trkpt lat="44.920523755280165" lon="8.59334874742993"><ele>90.0</ele><time>2026-04-27T12:05:45.999Z</time></trkpt><trkpt lat="44.92057021520117" lon="8.59317952869861"><ele>90.0</ele><time>2026-04-27T12:05:46.999Z</time></trkpt><trkpt lat="44.92064148123233" lon="8.592998773892997"><ele>90.0</ele><time>2026-04-27T12:05:47.999Z</time></trkpt><trkpt lat="44.92072616882364" lon="8.592803721066282"><ele>90.0</ele><time>2026-04-27T12:05:48.999Z</time></trkpt><trkpt lat="44.92081585210289" lon="8.592599658908822"><ele>90.0</ele><time>2026-04-27T12:05:49.999Z</time></trkpt><trkpt lat="44.92091502405861" lon="8.592370788935147"><ele>90.33333333333333</ele><time>2026-04-27T12:05:50.999Z</time></trkpt><trkpt lat="44.92101552549877" lon="8.592109917775321"><ele>90.66666666666666</ele><time>2026-04-27T12:05:51.999Z</time></trkpt><trkpt lat="44.92111196233303" lon="8.59186168236583"><ele>91.0</ele><time>2026-04-27T12:05:52.999Z</time></trkpt><trkpt lat="44.92120450408974" lon="8.591643159318668"><ele>91.33333333333333</ele><time>2026-04-27T12:05:53.999Z</time></trkpt><trkpt lat="44.921290204616085" lon="8.591458680211062"><ele>91.66666666666667</ele><time>2026-04-27T12:05:54.999Z</time></trkpt><trkpt lat="44.9213938547807" lon="8.591216822783894"><ele>92.0</ele><time>2026-04-27T12:05:55.999Z</time></trkpt><trkpt lat="44.921501874804036" lon="8.59096309390179"><ele>92.0</ele><time>2026-04-27T12:05:56.999Z</time></trkpt><trkpt lat="44.92161798734163" lon="8.590692011679575"><ele>92.0</ele><time>2026-04-27T12:05:57.999Z</time></trkpt><trkpt lat="44.92173974203897" lon="8.590411476007972"><ele>91.0</ele><time>2026-04-27T12:05:58.999Z</time></trkpt><trkpt lat="44.92186200004549" lon="8.590130658452582"><ele>90.0</ele><time>2026-04-27T12:05:59.999Z</time></trkpt><trkpt lat="44.921979845514684" lon="8.58985430193012"><ele>90.0</ele><time>2026-04-27T12:06:00.999Z</time></trkpt><trkpt lat="44.92208669079135" lon="8.589572962723446"><ele>90.0</ele><time>2026-04-27T12:06:01.999Z</time></trkpt><trkpt lat="44.92217802108191" lon="8.589285445893806"><ele>90.0</ele><time>2026-04-27T12:06:02.999Z</time></trkpt><trkpt lat="44.92224831104686" lon="8.58898805715646"><ele>90.5</ele><time>2026-04-27T12:06:03.999Z</time></trkpt><trkpt lat="44.92230322798683" lon="8.588683414414874"><ele>91.0</ele><time>2026-04-27T12:06:04.999Z</time></trkpt><trkpt lat="44.92235679201397" lon="8.588371190617067"><ele>91.5</ele><time>2026-04-27T12:06:05.999Z</time></trkpt><trkpt lat="44.92241254992884" lon="8.588056175867576"><ele>92.0</ele><time>2026-04-27T12:06:06.999Z</time></trkpt><trkpt lat="44.922473991197265" lon="8.587745506425541"><ele>92.0</ele><time>2026-04-27T12:06:07.999Z</time></trkpt><trkpt lat="44.92254527783116" lon="8.587442502006645"><ele>92.0</ele><time>2026-04-27T12:06:08.999Z</time></trkpt><trkpt lat="44.92262475611256" lon="8.587158173277697"><ele>92.0</ele><time>2026-04-27T12:06:09.999Z</time></trkpt><trkpt lat="44.922705942407646" lon="8.586900739805175"><ele>91.33333333333334</ele><time>2026-04-27T12:06:10.999Z</time></trkpt><trkpt lat="44.92280312044243" lon="8.586669125793634"><ele>90.66666666666667</ele><time>2026-04-27T12:06:11.999Z</time></trkpt><trkpt lat="44.922929289144506" lon="8.586483076660333"><ele>90.0</ele><time>2026-04-27T12:06:12.999Z</time></trkpt><trkpt lat="44.92308854162923" lon="8.58636442046312"><ele>90.0</ele><time>2026-04-27T12:06:13.999Z</time></trkpt><trkpt lat="44.923255711616534" lon="8.586272887803228"><ele>90.0</ele><time>2026-04-27T12:06:14.999Z</time></trkpt><trkpt lat="44.92340764173364" lon="8.586235929439754"><ele>90.0</ele><time>2026-04-27T12:06:15.999Z</time></trkpt><trkpt lat="44.923575162749" lon="8.586197102578593"><ele>90.0</ele><time>2026-04-27T12:06:16.999Z</time></trkpt><trkpt lat="44.92374219895143" lon="8.58619239122095"><ele>90.0</ele><time>2026-04-27T12:06:17.999Z</time></trkpt><trkpt lat="44.923875599047" lon="8.586174467704083"><ele>90.0</ele><time>2026-04-27T12:06:18.999Z</time></trkpt><trkpt lat="44.92399724306773" lon="8.586162179922788"><ele>90.0</ele><time>2026-04-27T12:06:19.999Z</time></trkpt><trkpt lat="44.92410893434736" lon="8.586150165624876"><ele>90.5</ele><time>2026-04-27T12:06:20.999Z</time></trkpt><trkpt lat="44.92423306593432" lon="8.58613750377625"><ele>91.0</ele><time>2026-04-27T12:06:21.999Z</time></trkpt><trkpt lat="44.92435224066548" lon="8.58612300735887"><ele>91.5</ele><time>2026-04-27T12:06:22.999Z</time></trkpt><trkpt lat="44.92447285654647" lon="8.586107109570666"><ele>92.0</ele><time>2026-04-27T12:06:23.999Z</time></trkpt><trkpt lat="44.924597372741566" lon="8.586092711944799"><ele>92.0</ele><time>2026-04-27T12:06:24.999Z</time></trkpt><trkpt lat="44.924726547846596" lon="8.586076412728428"><ele>92.0</ele><time>2026-04-27T12:06:25.999Z</time></trkpt><trkpt lat="44.92486140138998" lon="8.586088337965892"><ele>92.0</ele><time>2026-04-27T12:06:27Z</time></trkpt><trkpt lat="44.924998740197296" lon="8.586079341972471"><ele>92.0</ele><time>2026-04-27T12:06:28Z</time></trkpt><trkpt lat="44.92514287017672" lon="8.586067787291672"><ele>91.75</ele><time>2026-04-27T12:06:29Z</time></trkpt><trkpt lat="44.92529213199667" lon="8.58605342068751"><ele>91.5</ele><time>2026-04-27T12:06:30Z</time></trkpt><trkpt lat="44.925430510956836" lon="8.586040101572213"><ele>91.25</ele><time>2026-04-27T12:06:31Z</time></trkpt><trkpt lat="44.92556791455055" lon="8.586026876336526"><ele>91.0</ele><time>2026-04-27T12:06:32Z</time></trkpt><trkpt lat="44.92570120526879" lon="8.58599215535172"><ele>91.0</ele><time>2026-04-27T12:06:33Z</time></trkpt><trkpt lat="44.92583830323073" lon="8.586000851147936"><ele>91.0</ele><time>2026-04-27T12:06:34Z</time></trkpt><trkpt lat="44.925975599094755" lon="8.585988437797633"><ele>91.0</ele><time>2026-04-27T12:06:35Z</time></trkpt><trkpt lat="44.926114438861106" lon="8.585975462120132"><ele>91.0</ele><time>2026-04-27T12:06:36Z</time></trkpt><trkpt lat="44.92625095432888" lon="8.585962703665162"><ele>91.0</ele><time>2026-04-27T12:06:37Z</time></trkpt><trkpt lat="44.92639028402353" lon="8.58592986418643"><ele>91.0</ele><time>2026-04-27T12:06:38Z</time></trkpt><trkpt lat="44.92652832885195" lon="8.585921122639903"><ele>91.0</ele><time>2026-04-27T12:06:39Z</time></trkpt><trkpt lat="44.92666357148088" lon="8.5859109022001"><ele>91.0</ele><time>2026-04-27T12:06:40Z</time></trkpt><trkpt lat="44.92680363316558" lon="8.585901688074621"><ele>91.33333333333333</ele><time>2026-04-27T12:06:41Z</time></trkpt><trkpt lat="44.92695154074946" lon="8.585885752022136"><ele>91.66666666666667</ele><time>2026-04-27T12:06:42Z</time></trkpt><trkpt lat="44.927118188967874" lon="8.58586472335608"><ele>92.0</ele><time>2026-04-27T12:06:43Z</time></trkpt><trkpt lat="44.92728226297683" lon="8.585867394805456"><ele>92.0</ele><time>2026-04-27T12:06:44Z</time></trkpt><trkpt lat="44.927434481884596" lon="8.58585289216895"><ele>92.0</ele><time>2026-04-27T12:06:45Z</time></trkpt><trkpt lat="44.92756739966694" lon="8.585821786459801"><ele>92.0</ele><time>2026-04-27T12:06:46Z</time></trkpt><trkpt lat="44.927698999446804" lon="8.585811123665454"><ele>92.0</ele><time>2026-04-27T12:06:47Z</time></trkpt><trkpt lat="44.927833030034996" lon="8.585797453688793"><ele>92.0</ele><time>2026-04-27T12:06:48Z</time></trkpt><trkpt lat="44.92797927906519" lon="8.585778537809665"><ele>92.0</ele><time>2026-04-27T12:06:49Z</time></trkpt><trkpt lat="44.92812802692227" lon="8.585787084686428"><ele>92.0</ele><time>2026-04-27T12:06:50Z</time></trkpt><trkpt lat="44.92827508764398" lon="8.585773205896956"><ele>92.0</ele><time>2026-04-27T12:06:51Z</time></trkpt><trkpt lat="44.92842098669441" lon="8.585759453299545"><ele>92.0</ele><time>2026-04-27T12:06:52Z</time></trkpt><trkpt lat="44.928579086843584" lon="8.58574457687197"><ele>92.0</ele><time>2026-04-27T12:06:53Z</time></trkpt><trkpt lat="44.92875780005531" lon="8.585727760858658"><ele>92.0</ele><time>2026-04-27T12:06:54Z</time></trkpt><trkpt lat="44.928936267232935" lon="8.585710967997375"><ele>92.0</ele><time>2026-04-27T12:06:55Z</time></trkpt><trkpt lat="44.929119872482225" lon="8.585679627560069"><ele>92.0</ele><time>2026-04-27T12:06:56Z</time></trkpt><trkpt lat="44.9292893101379" lon="8.585671087192988"><ele>92.0</ele><time>2026-04-27T12:06:57Z</time></trkpt><trkpt lat="44.92945501369661" lon="8.585647118117384"><ele>91.75</ele><time>2026-04-27T12:06:58Z</time></trkpt><trkpt lat="44.92959135217592" lon="8.585636300636192"><ele>91.5</ele><time>2026-04-27T12:06:59Z</time></trkpt><trkpt lat="44.92972610796072" lon="8.585618832213699"><ele>91.25</ele><time>2026-04-27T12:07:00Z</time></trkpt><trkpt lat="44.92986757751224" lon="8.585604227356766"><ele>91.0</ele><time>2026-04-27T12:07:01Z</time></trkpt><trkpt lat="44.93000481525632" lon="8.5855924434147"><ele>91.0</ele><time>2026-04-27T12:07:02Z</time></trkpt><trkpt lat="44.93014278538505" lon="8.58558276049366"><ele>91.0</ele><time>2026-04-27T12:07:03Z</time></trkpt><trkpt lat="44.930287780991826" lon="8.585571471685153"><ele>91.0</ele><time>2026-04-27T12:07:04Z</time></trkpt><trkpt lat="44.93043500698102" lon="8.58555783384296"><ele>91.0</ele><time>2026-04-27T12:07:05Z</time></trkpt><trkpt lat="44.93058611667462" lon="8.585541637955629"><ele>91.0</ele><time>2026-04-27T12:07:06Z</time></trkpt><trkpt lat="44.93073290767704" lon="8.585526452410962"><ele>91.0</ele><time>2026-04-27T12:07:07Z</time></trkpt><trkpt lat="44.930870397519364" lon="8.585513095432779"><ele>91.0</ele><time>2026-04-27T12:07:08Z</time></trkpt><trkpt lat="44.93100230477932" lon="8.585499394534924"><ele>91.0</ele><time>2026-04-27T12:07:09Z</time></trkpt><trkpt lat="44.931137781013064" lon="8.585485996176843"><ele>91.25</ele><time>2026-04-27T12:07:10Z</time></trkpt><trkpt lat="44.93128590117655" lon="8.585473451134405"><ele>91.5</ele><time>2026-04-27T12:07:11Z</time></trkpt><trkpt lat="44.931424796056" lon="8.58546205471049"><ele>91.75</ele><time>2026-04-27T12:07:12Z</time></trkpt><trkpt lat="44.93155504447822" lon="8.585456141615603"><ele>92.0</ele><time>2026-04-27T12:07:13Z</time></trkpt><trkpt lat="44.931686761830285" lon="8.585445333116935"><ele>92.0</ele><time>2026-04-27T12:07:14Z</time></trkpt><trkpt lat="44.93181858211618" lon="8.585429701169572"><ele>92.0</ele><time>2026-04-27T12:07:15Z</time></trkpt><trkpt lat="44.93194135014796" lon="8.585418345012123"><ele>92.0</ele><time>2026-04-27T12:07:16Z</time></trkpt><trkpt lat="44.93208115498431" lon="8.585404002038231"><ele>92.0</ele><time>2026-04-27T12:07:17Z</time></trkpt><trkpt lat="44.93221688030309" lon="8.58538978627262"><ele>92.0</ele><time>2026-04-27T12:07:18Z</time></trkpt><trkpt lat="44.93232873763923" lon="8.585380411115008"><ele>92.0</ele><time>2026-04-27T12:07:19Z</time></trkpt><trkpt lat="44.93246318270537" lon="8.585367308959908"><ele>92.0</ele><time>2026-04-27T12:07:20Z</time></trkpt><trkpt lat="44.932592108977836" lon="8.585355333612803"><ele>92.0</ele><time>2026-04-27T12:07:21Z</time></trkpt><trkpt lat="44.93272253102867" lon="8.585343358604888"><ele>92.25</ele><time>2026-04-27T12:07:22Z</time></trkpt><trkpt lat="44.93284859957336" lon="8.585330763109589"><ele>92.5</ele><time>2026-04-27T12:07:23Z</time></trkpt><trkpt lat="44.932971244935025" lon="8.585316475579369"><ele>92.75</ele><time>2026-04-27T12:07:24Z</time></trkpt><trkpt lat="44.93309486296578" lon="8.58530189575578"><ele>93.0</ele><time>2026-04-27T12:07:25Z</time></trkpt><trkpt lat="44.933224042822594" lon="8.585288700902847"><ele>93.0</ele><time>2026-04-27T12:07:26Z</time></trkpt><trkpt lat="44.93335072673625" lon="8.585275585051951"><ele>93.0</ele><time>2026-04-27T12:07:27Z</time></trkpt><trkpt lat="44.93347374091298" lon="8.585265936370007"><ele>93.0</ele><time>2026-04-27T12:07:28Z</time></trkpt><trkpt lat="44.93359631679332" lon="8.585255616517037"><ele>93.0</ele><time>2026-04-27T12:07:29Z</time></trkpt><trkpt lat="44.93371457825009" lon="8.585245841764937"><ele>92.75</ele><time>2026-04-27T12:07:30Z</time></trkpt><trkpt lat="44.93383007861184" lon="8.585238893891155"><ele>92.5</ele><time>2026-04-27T12:07:31Z</time></trkpt><trkpt lat="44.93394086426845" lon="8.585232528364328"><ele>92.25</ele><time>2026-04-27T12:07:32Z</time></trkpt><trkpt lat="44.934061749204794" lon="8.585222148422432"><ele>92.0</ele><time>2026-04-27T12:07:33Z</time></trkpt><trkpt lat="44.93419546255166" lon="8.585218448230847"><ele>92.0</ele><time>2026-04-27T12:07:34Z</time></trkpt><trkpt lat="44.934341015097985" lon="8.585217431961533"><ele>92.0</ele><time>2026-04-27T12:07:35Z</time></trkpt><trkpt lat="44.934490609662866" lon="8.5852210232374"><ele>92.0</ele><time>2026-04-27T12:07:36Z</time></trkpt><trkpt lat="44.934628561121194" lon="8.585224273278671"><ele>92.0</ele><time>2026-04-27T12:07:37Z</time></trkpt><trkpt lat="44.93473472623565" lon="8.585232081886865"><ele>92.0</ele><time>2026-04-27T12:07:38Z</time></trkpt><trkpt lat="44.934814138914476" lon="8.585238258470875"><ele>92.0</ele><time>2026-04-27T12:07:39Z</time></trkpt><trkpt lat="44.93487695605291" lon="8.585265486376763"><ele>92.0</ele><time>2026-04-27T12:07:39.999Z</time></trkpt><trkpt lat="44.934938757603994" lon="8.585345670967039"><ele>92.0</ele><time>2026-04-27T12:07:41.999Z</time></trkpt><trkpt lat="44.9353678046436" lon="8.585320378270568"><ele>91.83333333333334</ele><time>2026-04-27T12:07:42.999Z</time></trkpt><trkpt lat="44.935445523446674" lon="8.585350349844045"><ele>91.66666666666667</ele><time>2026-04-27T12:07:43.999Z</time></trkpt><trkpt lat="44.93552473975533" lon="8.585386602248663"><ele>91.5</ele><time>2026-04-27T12:07:45.999Z</time></trkpt><trkpt lat="44.93557781567377" lon="8.585464847258464"><ele>91.33333333333333</ele><time>2026-04-27T12:07:48.999Z</time></trkpt><trkpt lat="44.93565678185275" lon="8.58553943627987"><ele>91.16666666666666</ele><time>2026-04-27T12:07:50.999Z</time></trkpt><trkpt lat="44.935696734951456" lon="8.5856508441647"><ele>91.0</ele><time>2026-04-27T12:07:52.999Z</time></trkpt><trkpt lat="44.93573950355938" lon="8.585760667346456"><ele>91.0</ele><time>2026-04-27T12:07:54.999Z</time></trkpt><trkpt lat="44.935823487758974" lon="8.585883500889873"><ele>91.0</ele><time>2026-04-27T12:07:56.999Z</time></trkpt><trkpt lat="44.93588334324568" lon="8.585926371315493"><ele>91.0</ele><time>2026-04-27T12:07:57.999Z</time></trkpt><trkpt lat="44.93594997392617" lon="8.585945007629705"><ele>91.0</ele><time>2026-04-27T12:07:58.999Z</time></trkpt><trkpt lat="44.936035776762324" lon="8.585937581718929"><ele>91.0</ele><time>2026-04-27T12:07:59.999Z</time></trkpt><trkpt lat="44.9361148251874" lon="8.585889580788509"><ele>91.0</ele><time>2026-04-27T12:08:00.999Z</time></trkpt><trkpt lat="44.93619216609329" lon="8.585817038158003"><ele>91.5</ele><time>2026-04-27T12:08:01.999Z</time></trkpt><trkpt lat="44.93625244501937" lon="8.58573379346091"><ele>92.0</ele><time>2026-04-27T12:08:02.999Z</time></trkpt><trkpt lat="44.936314070211935" lon="8.585644491823123"><ele>92.5</ele><time>2026-04-27T12:08:03.999Z</time></trkpt><trkpt lat="44.936384159155054" lon="8.585571602368834"><ele>93.0</ele><time>2026-04-27T12:08:04.999Z</time></trkpt><trkpt lat="44.93646229861631" lon="8.585513620454044"><ele>93.5</ele><time>2026-04-27T12:08:05.999Z</time></trkpt><trkpt lat="44.93654457625507" lon="8.585527666464635"><ele>94.0</ele><time>2026-04-27T12:08:06.999Z</time></trkpt><trkpt lat="44.93663031657479" lon="8.585522106551956"><ele>94.2</ele><time>2026-04-27T12:08:07.999Z</time></trkpt><trkpt lat="44.93672871476557" lon="8.585490967015485"><ele>94.4</ele><time>2026-04-27T12:08:08.999Z</time></trkpt><trkpt lat="44.93684025892907" lon="8.585487143227306"><ele>94.6</ele><time>2026-04-27T12:08:09.999Z</time></trkpt><trkpt lat="44.9369560070232" lon="8.585511372612812"><ele>94.8</ele><time>2026-04-27T12:08:10.999Z</time></trkpt><trkpt lat="44.93707406583655" lon="8.585520471384715"><ele>95.0</ele><time>2026-04-27T12:08:11.999Z</time></trkpt><trkpt lat="44.937199208864286" lon="8.585535260652373"><ele>95.0</ele><time>2026-04-27T12:08:12.999Z</time></trkpt><trkpt lat="44.93732893574651" lon="8.585554625164423"><ele>95.0</ele><time>2026-04-27T12:08:13.999Z</time></trkpt><trkpt lat="44.937460128345016" lon="8.585576953188049"><ele>95.0</ele><time>2026-04-27T12:08:14.999Z</time></trkpt><trkpt lat="44.937594086788174" lon="8.585580129839608"><ele>95.0</ele><time>2026-04-27T12:08:15.999Z</time></trkpt><trkpt lat="44.93773137350178" lon="8.58560141707738"><ele>94.75</ele><time>2026-04-27T12:08:16.999Z</time></trkpt><trkpt lat="44.93787319182956" lon="8.58564877650128"><ele>94.5</ele><time>2026-04-27T12:08:17.999Z</time></trkpt><trkpt lat="44.938013990438705" lon="8.585671209373741"><ele>94.25</ele><time>2026-04-27T12:08:18.999Z</time></trkpt><trkpt lat="44.938156915049355" lon="8.585692889071778"><ele>94.0</ele><time>2026-04-27T12:08:19.999Z</time></trkpt><trkpt lat="44.938308531804694" lon="8.585713152784463"><ele>94.0</ele><time>2026-04-27T12:08:20.999Z</time></trkpt><trkpt lat="44.93846069331057" lon="8.58570406567945"><ele>94.0</ele><time>2026-04-27T12:08:21.999Z</time></trkpt><trkpt lat="44.93861341679517" lon="8.585732237734092"><ele>94.0</ele><time>2026-04-27T12:08:22.999Z</time></trkpt><trkpt lat="44.938775355133686" lon="8.585701268642495"><ele>94.0</ele><time>2026-04-27T12:08:23.999Z</time></trkpt><trkpt lat="44.93894233625966" lon="8.58568169638272"><ele>94.0</ele><time>2026-04-27T12:08:24.999Z</time></trkpt><trkpt lat="44.93910964113995" lon="8.585644991886632"><ele>94.0</ele><time>2026-04-27T12:08:25.999Z</time></trkpt><trkpt lat="44.93927699209808" lon="8.58560052579045"><ele>94.5</ele><time>2026-04-27T12:08:26.999Z</time></trkpt><trkpt lat="44.939433460485084" lon="8.585571059340868"><ele>95.0</ele><time>2026-04-27T12:08:27.999Z</time></trkpt><trkpt lat="44.93956659575751" lon="8.585520329172029"><ele>95.5</ele><time>2026-04-27T12:08:28.999Z</time></trkpt><trkpt lat="44.939687358573366" lon="8.585469517071854"><ele>96.0</ele><time>2026-04-27T12:08:29.999Z</time></trkpt><trkpt lat="44.93980491683403" lon="8.585417840374213"><ele>96.0</ele><time>2026-04-27T12:08:30.999Z</time></trkpt><trkpt lat="44.93992551778725" lon="8.585362880355206"><ele>96.0</ele><time>2026-04-27T12:08:31.999Z</time></trkpt><trkpt lat="44.94004166334065" lon="8.585310477121189"><ele>96.0</ele><time>2026-04-27T12:08:33Z</time></trkpt><trkpt lat="44.940146456573466" lon="8.585263145851926"><ele>96.0</ele><time>2026-04-27T12:08:34Z</time></trkpt><trkpt lat="44.94024583756595" lon="8.585218048678108"><ele>95.8</ele><time>2026-04-27T12:08:35Z</time></trkpt><trkpt lat="44.94033315664909" lon="8.585177454908688"><ele>95.6</ele><time>2026-04-27T12:08:36Z</time></trkpt><trkpt lat="44.94041315533136" lon="8.585140264316294"><ele>95.4</ele><time>2026-04-27T12:08:37Z</time></trkpt><trkpt lat="44.940476082472536" lon="8.585088234316936"><ele>95.2</ele><time>2026-04-27T12:08:38Z</time></trkpt><trkpt lat="44.94059099158754" lon="8.585058140727805"><ele>95.0</ele><time>2026-04-27T12:08:40Z</time></trkpt><trkpt lat="44.94068291390527" lon="8.585015813582695"><ele>95.0</ele><time>2026-04-27T12:08:42Z</time></trkpt><trkpt lat="44.940758481433846" lon="8.584981017270866"><ele>95.0</ele><time>2026-04-27T12:08:45Z</time></trkpt><trkpt lat="44.9408233394601" lon="8.584951152322862"><ele>95.0</ele><time>2026-04-27T12:08:48Z</time></trkpt><trkpt lat="44.94090743988475" lon="8.584912426901733"><ele>95.0</ele><time>2026-04-27T12:08:50Z</time></trkpt><trkpt lat="44.941033179175186" lon="8.58485452817734"><ele>95.0</ele><time>2026-04-27T12:08:52Z</time></trkpt><trkpt lat="44.941100560651506" lon="8.584823501267355"><ele>95.0</ele><time>2026-04-27T12:08:53Z</time></trkpt><trkpt lat="44.94117764354543" lon="8.584788069299716"><ele>94.8</ele><time>2026-04-27T12:08:54Z</time></trkpt><trkpt lat="44.9412619774948" lon="8.584749414056827"><ele>94.6</ele><time>2026-04-27T12:08:55Z</time></trkpt><trkpt lat="44.941344149461244" lon="8.584711749779094"><ele>94.4</ele><time>2026-04-27T12:08:56Z</time></trkpt><trkpt lat="44.94143528702263" lon="8.58466997603831"><ele>94.2</ele><time>2026-04-27T12:08:57Z</time></trkpt><trkpt lat="44.94152637520781" lon="8.584628374974143"><ele>94.0</ele><time>2026-04-27T12:08:58Z</time></trkpt><trkpt lat="44.94161816956759" lon="8.584569327200885"><ele>94.25</ele><time>2026-04-27T12:08:59Z</time></trkpt><trkpt lat="44.94171891324624" lon="8.584521774761724"><ele>94.5</ele><time>2026-04-27T12:09:00Z</time></trkpt><trkpt lat="44.941827300330345" lon="8.584473508095611"><ele>94.75</ele><time>2026-04-27T12:09:01Z</time></trkpt><trkpt lat="44.9419461756847" lon="8.584421576760569"><ele>95.0</ele><time>2026-04-27T12:09:02Z</time></trkpt><trkpt lat="44.9420683761394" lon="8.58436828316151"><ele>95.0</ele><time>2026-04-27T12:09:03Z</time></trkpt><trkpt lat="44.942195104825515" lon="8.584311074368394"><ele>95.0</ele><time>2026-04-27T12:09:04Z</time></trkpt><trkpt lat="44.94232670047761" lon="8.58425427182321"><ele>95.0</ele><time>2026-04-27T12:09:05Z</time></trkpt><trkpt lat="44.94246237458196" lon="8.5842020111195"><ele>95.0</ele><time>2026-04-27T12:09:06Z</time></trkpt><trkpt lat="44.94259368033367" lon="8.584149944080997"><ele>95.0</ele><time>2026-04-27T12:09:07Z</time></trkpt><trkpt lat="44.94273132251396" lon="8.584094701587833"><ele>95.0</ele><time>2026-04-27T12:09:08Z</time></trkpt><trkpt lat="44.942862675177196" lon="8.584040839608605"><ele>95.0</ele><time>2026-04-27T12:09:09Z</time></trkpt><trkpt lat="44.943002146698284" lon="8.583986960363179"><ele>95.0</ele><time>2026-04-27T12:09:10Z</time></trkpt><trkpt lat="44.94314805691573" lon="8.58393315407372"><ele>95.0</ele><time>2026-04-27T12:09:11Z</time></trkpt><trkpt lat="44.9432932512086" lon="8.583875592014634"><ele>95.0</ele><time>2026-04-27T12:09:12Z</time></trkpt><trkpt lat="44.94344922435736" lon="8.583817741373462"><ele>95.0</ele><time>2026-04-27T12:09:13Z</time></trkpt><trkpt lat="44.943626201808264" lon="8.583754831738418"><ele>95.0</ele><time>2026-04-27T12:09:14Z</time></trkpt><trkpt lat="44.94382722411408" lon="8.583681314093571"><ele>95.0</ele><time>2026-04-27T12:09:15Z</time></trkpt><trkpt lat="44.94406981746956" lon="8.583592321220788"><ele>95.0</ele><time>2026-04-27T12:09:16Z</time></trkpt><trkpt lat="44.94427728600573" lon="8.583514963067037"><ele>95.0</ele><time>2026-04-27T12:09:17Z</time></trkpt><trkpt lat="44.9444621962831" lon="8.583438057982665"><ele>95.0</ele><time>2026-04-27T12:09:18Z</time></trkpt><trkpt lat="44.944627981047034" lon="8.58337499325014"><ele>95.0</ele><time>2026-04-27T12:09:19Z</time></trkpt><trkpt lat="44.94479750208414" lon="8.583311494349415"><ele>95.0</ele><time>2026-04-27T12:09:20Z</time></trkpt><trkpt lat="44.94496735576121" lon="8.583246196597946"><ele>95.0</ele><time>2026-04-27T12:09:21Z</time></trkpt><trkpt lat="44.94513817811102" lon="8.583186566375758"><ele>95.33333333333334</ele><time>2026-04-27T12:09:22Z</time></trkpt><trkpt lat="44.94531071765584" lon="8.583126684080975"><ele>95.66666666666667</ele><time>2026-04-27T12:09:23Z</time></trkpt><trkpt lat="44.94548969319665" lon="8.583059775234473"><ele>96.0</ele><time>2026-04-27T12:09:24Z</time></trkpt><trkpt lat="44.94567128131847" lon="8.582994666416507"><ele>96.0</ele><time>2026-04-27T12:09:25Z</time></trkpt><trkpt lat="44.945862422204044" lon="8.582948124130136"><ele>96.0</ele><time>2026-04-27T12:09:26Z</time></trkpt><trkpt lat="44.94604551666027" lon="8.582883449614958"><ele>96.0</ele><time>2026-04-27T12:09:27Z</time></trkpt><trkpt lat="44.94623124597796" lon="8.582815140785826"><ele>96.0</ele><time>2026-04-27T12:09:28Z</time></trkpt><trkpt lat="44.94642177059858" lon="8.582744560867265"><ele>96.0</ele><time>2026-04-27T12:09:29Z</time></trkpt><trkpt lat="44.946615892276455" lon="8.582672648412869"><ele>96.0</ele><time>2026-04-27T12:09:30Z</time></trkpt><trkpt lat="44.946801419679716" lon="8.582580866286023"><ele>96.66666666666666</ele><time>2026-04-27T12:09:31Z</time></trkpt><trkpt lat="44.94698305491274" lon="8.582517489543354"><ele>97.33333333333333</ele><time>2026-04-27T12:09:32Z</time></trkpt><trkpt lat="44.94714914948063" lon="8.582456712172656"><ele>98.0</ele><time>2026-04-27T12:09:33Z</time></trkpt><trkpt lat="44.94730462815892" lon="8.582400608500695"><ele>98.0</ele><time>2026-04-27T12:09:34Z</time></trkpt><trkpt lat="44.94744932886884" lon="8.58234984836798"><ele>98.0</ele><time>2026-04-27T12:09:35Z</time></trkpt><trkpt lat="44.94758800768982" lon="8.582297589668416"><ele>98.0</ele><time>2026-04-27T12:09:36Z</time></trkpt><trkpt lat="44.947716469943536" lon="8.582247614214882"><ele>98.0</ele><time>2026-04-27T12:09:37Z</time></trkpt><trkpt lat="44.947839682373065" lon="8.582202304191254"><ele>97.75</ele><time>2026-04-27T12:09:37.999Z</time></trkpt><trkpt lat="44.94795963913491" lon="8.582161954126052"><ele>97.5</ele><time>2026-04-27T12:09:38.999Z</time></trkpt><trkpt lat="44.948082932929275" lon="8.582119179109837"><ele>97.25</ele><time>2026-04-27T12:09:39.999Z</time></trkpt><trkpt lat="44.948208893102425" lon="8.582069938406084"><ele>97.0</ele><time>2026-04-27T12:09:40.999Z</time></trkpt><trkpt lat="44.94833474010084" lon="8.582023123032132"><ele>96.75</ele><time>2026-04-27T12:09:41.999Z</time></trkpt><trkpt lat="44.94846422503098" lon="8.5819770182723"><ele>96.5</ele><time>2026-04-27T12:09:42.999Z</time></trkpt><trkpt lat="44.94859237060691" lon="8.58192967573744"><ele>96.25</ele><time>2026-04-27T12:09:43.999Z</time></trkpt><trkpt lat="44.94872152645704" lon="8.581878385156205"><ele>96.0</ele><time>2026-04-27T12:09:44.999Z</time></trkpt><trkpt lat="44.94885124325572" lon="8.581834977289422"><ele>96.0</ele><time>2026-04-27T12:09:45.999Z</time></trkpt><trkpt lat="44.948981077812434" lon="8.581787668448555"><ele>96.0</ele><time>2026-04-27T12:09:46.999Z</time></trkpt><trkpt lat="44.9491155399004" lon="8.581739255494092"><ele>96.0</ele><time>2026-04-27T12:09:47.999Z</time></trkpt><trkpt lat="44.949253985222796" lon="8.581688665698277"><ele>96.0</ele><time>2026-04-27T12:09:48.999Z</time></trkpt><trkpt lat="44.94939141831191" lon="8.581635607378674"><ele>97.0</ele><time>2026-04-27T12:09:49.999Z</time></trkpt><trkpt lat="44.94952953839974" lon="8.581591076256448"><ele>98.0</ele><time>2026-04-27T12:09:50.999Z</time></trkpt><trkpt lat="44.949671568318884" lon="8.58153426268971"><ele>99.0</ele><time>2026-04-27T12:09:51.999Z</time></trkpt><trkpt lat="44.949811721407094" lon="8.581482303863563"><ele>100.0</ele><time>2026-04-27T12:09:52.999Z</time></trkpt><trkpt lat="44.94995482672101" lon="8.581429234957698"><ele>99.66666666666667</ele><time>2026-04-27T12:09:53.999Z</time></trkpt><trkpt lat="44.950094145403995" lon="8.581375577314066"><ele>99.33333333333334</ele><time>2026-04-27T12:09:54.999Z</time></trkpt><trkpt lat="44.95024297086039" lon="8.581319837753501"><ele>99.0</ele><time>2026-04-27T12:09:55.999Z</time></trkpt><trkpt lat="44.950392210721546" lon="8.58126107061791"><ele>99.0</ele><time>2026-04-27T12:09:56.999Z</time></trkpt><trkpt lat="44.95054237252518" lon="8.581201989206887"><ele>99.0</ele><time>2026-04-27T12:09:57.999Z</time></trkpt><trkpt lat="44.950687475141514" lon="8.581150375352934"><ele>99.0</ele><time>2026-04-27T12:09:58.999Z</time></trkpt><trkpt lat="44.950829391282454" lon="8.581097329548047"><ele>99.5</ele><time>2026-04-27T12:09:59.999Z</time></trkpt><trkpt lat="44.95096657810274" lon="8.581045902467194"><ele>100.0</ele><time>2026-04-27T12:10:00.999Z</time></trkpt><trkpt lat="44.951107949970684" lon="8.580993793351162"><ele>100.5</ele><time>2026-04-27T12:10:01.999Z</time></trkpt><trkpt lat="44.95124394384389" lon="8.580944494642326"><ele>101.0</ele><time>2026-04-27T12:10:02.999Z</time></trkpt><trkpt lat="44.95138040565962" lon="8.580895039721579"><ele>101.0</ele><time>2026-04-27T12:10:03.999Z</time></trkpt><trkpt lat="44.95151055658999" lon="8.580852300530307"><ele>101.0</ele><time>2026-04-27T12:10:04.999Z</time></trkpt><trkpt lat="44.95164062315384" lon="8.58080549212905"><ele>101.0</ele><time>2026-04-27T12:10:05.999Z</time></trkpt><trkpt lat="44.95177181772059" lon="8.58076058703079"><ele>101.0</ele><time>2026-04-27T12:10:06.999Z</time></trkpt><trkpt lat="44.95189849709549" lon="8.580707801376082"><ele>101.0</ele><time>2026-04-27T12:10:07.999Z</time></trkpt><trkpt lat="44.952032523539025" lon="8.580658119141756"><ele>101.0</ele><time>2026-04-27T12:10:08.999Z</time></trkpt><trkpt lat="44.95217159136025" lon="8.580608021445814"><ele>101.0</ele><time>2026-04-27T12:10:09.999Z</time></trkpt><trkpt lat="44.95231452587724" lon="8.580557549930825"><ele>101.0</ele><time>2026-04-27T12:10:10.999Z</time></trkpt><trkpt lat="44.95245738773878" lon="8.580504808330188"><ele>101.0</ele><time>2026-04-27T12:10:11.999Z</time></trkpt><trkpt lat="44.952603225480914" lon="8.580449494976003"><ele>101.0</ele><time>2026-04-27T12:10:12.999Z</time></trkpt><trkpt lat="44.95275382258099" lon="8.580391519726541"><ele>101.0</ele><time>2026-04-27T12:10:13.999Z</time></trkpt><trkpt lat="44.95290787731063" lon="8.580331013242187"><ele>100.66666666666666</ele><time>2026-04-27T12:10:14.999Z</time></trkpt><trkpt lat="44.9530636080202" lon="8.580279060371343"><ele>100.33333333333334</ele><time>2026-04-27T12:10:15.999Z</time></trkpt><trkpt lat="44.95322000863494" lon="8.580219203734934"><ele>100.0</ele><time>2026-04-27T12:10:16.999Z</time></trkpt><trkpt lat="44.95337636282001" lon="8.580165308597792"><ele>100.75</ele><time>2026-04-27T12:10:17.999Z</time></trkpt><trkpt lat="44.95352734888064" lon="8.580108506518862"><ele>101.5</ele><time>2026-04-27T12:10:18.999Z</time></trkpt><trkpt lat="44.95367220213689" lon="8.580054297397442"><ele>102.25</ele><time>2026-04-27T12:10:19.999Z</time></trkpt><trkpt lat="44.953809881174934" lon="8.58000544200965"><ele>103.0</ele><time>2026-04-27T12:10:20.999Z</time></trkpt><trkpt lat="44.953944729229605" lon="8.579958517757039"><ele>103.0</ele><time>2026-04-27T12:10:21.999Z</time></trkpt><trkpt lat="44.95407835104228" lon="8.579909507249184"><ele>103.0</ele><time>2026-04-27T12:10:22.999Z</time></trkpt><trkpt lat="44.95421442201016" lon="8.579855232854346"><ele>103.0</ele><time>2026-04-27T12:10:23.999Z</time></trkpt><trkpt lat="44.95435102535811" lon="8.579798379542323"><ele>103.0</ele><time>2026-04-27T12:10:24.999Z</time></trkpt><trkpt lat="44.95449254956148" lon="8.579745821079426"><ele>103.0</ele><time>2026-04-27T12:10:25.999Z</time></trkpt><trkpt lat="44.95463511528737" lon="8.579697062047376"><ele>103.0</ele><time>2026-04-27T12:10:26.999Z</time></trkpt><trkpt lat="44.95478091248083" lon="8.579646146553856"><ele>103.0</ele><time>2026-04-27T12:10:27.999Z</time></trkpt><trkpt lat="44.95492494933482" lon="8.579591091746252"><ele>103.0</ele><time>2026-04-27T12:10:28.999Z</time></trkpt><trkpt lat="44.95506967286054" lon="8.579535347073634"><ele>103.0</ele><time>2026-04-27T12:10:29.999Z</time></trkpt><trkpt lat="44.955211584570236" lon="8.579477099864423"><ele>103.0</ele><time>2026-04-27T12:10:30.999Z</time></trkpt><trkpt lat="44.95535555959693" lon="8.579426077025529"><ele>103.0</ele><time>2026-04-27T12:10:31.999Z</time></trkpt><trkpt lat="44.95549889782367" lon="8.579373423415108"><ele>103.0</ele><time>2026-04-27T12:10:32.999Z</time></trkpt><trkpt lat="44.9556543478966" lon="8.579318262476537"><ele>103.0</ele><time>2026-04-27T12:10:33.999Z</time></trkpt><trkpt lat="44.955810788624675" lon="8.579260364587231"><ele>103.0</ele><time>2026-04-27T12:10:34.999Z</time></trkpt><trkpt lat="44.955960155135756" lon="8.579207135759154"><ele>103.0</ele><time>2026-04-27T12:10:35.999Z</time></trkpt><trkpt lat="44.95610451966883" lon="8.579158224884791"><ele>103.5</ele><time>2026-04-27T12:10:36.999Z</time></trkpt><trkpt lat="44.95624490706517" lon="8.579108057082125"><ele>104.0</ele><time>2026-04-27T12:10:37.999Z</time></trkpt><trkpt lat="44.95638719949144" lon="8.579057452176686"><ele>104.5</ele><time>2026-04-27T12:10:39Z</time></trkpt><trkpt lat="44.95652635214794" lon="8.579007080709594"><ele>105.0</ele><time>2026-04-27T12:10:40Z</time></trkpt><trkpt lat="44.956667279279515" lon="8.578954200826542"><ele>104.66666666666666</ele><time>2026-04-27T12:10:41Z</time></trkpt><trkpt lat="44.95681434139988" lon="8.578897945385927"><ele>104.33333333333333</ele><time>2026-04-27T12:10:42Z</time></trkpt><trkpt lat="44.956963304840386" lon="8.57884022813272"><ele>104.0</ele><time>2026-04-27T12:10:43Z</time></trkpt><trkpt lat="44.957106370643835" lon="8.578787048317638"><ele>104.0</ele><time>2026-04-27T12:10:44Z</time></trkpt><trkpt lat="44.957243095204696" lon="8.578734975559511"><ele>104.0</ele><time>2026-04-27T12:10:45Z</time></trkpt><trkpt lat="44.95738275654487" lon="8.578680181973692"><ele>104.0</ele><time>2026-04-27T12:10:46Z</time></trkpt><trkpt lat="44.95753220218048" lon="8.578622060710748"><ele>104.0</ele><time>2026-04-27T12:10:47Z</time></trkpt><trkpt lat="44.95768571344751" lon="8.578560788419434"><ele>104.0</ele><time>2026-04-27T12:10:48Z</time></trkpt><trkpt lat="44.95784418419514" lon="8.578525642012018"><ele>104.0</ele><time>2026-04-27T12:10:49Z</time></trkpt><trkpt lat="44.95798957681652" lon="8.578472412267208"><ele>104.0</ele><time>2026-04-27T12:10:50Z</time></trkpt><trkpt lat="44.95812428978746" lon="8.578422455094852"><ele>104.0</ele><time>2026-04-27T12:10:51Z</time></trkpt><trkpt lat="44.95825160104146" lon="8.578375316084259"><ele>104.0</ele><time>2026-04-27T12:10:52Z</time></trkpt><trkpt lat="44.958382613591525" lon="8.578326806631885"><ele>104.0</ele><time>2026-04-27T12:10:53Z</time></trkpt><trkpt lat="44.95851135432749" lon="8.578258578761117"><ele>104.0</ele><time>2026-04-27T12:10:54Z</time></trkpt><trkpt lat="44.95865067548707" lon="8.578211678041802"><ele>104.0</ele><time>2026-04-27T12:10:55Z</time></trkpt><trkpt lat="44.95879001988319" lon="8.578165693257876"><ele>104.0</ele><time>2026-04-27T12:10:56Z</time></trkpt><trkpt lat="44.958923677008805" lon="8.57812647153854"><ele>104.0</ele><time>2026-04-27T12:10:57Z</time></trkpt><trkpt lat="44.95902747698431" lon="8.578087634442474"><ele>104.0</ele><time>2026-04-27T12:10:58Z</time></trkpt><trkpt lat="44.95910942868086" lon="8.578059865716144"><ele>104.0</ele><time>2026-04-27T12:10:59Z</time></trkpt><trkpt lat="44.95919955086012" lon="8.578026075298304"><ele>104.0</ele><time>2026-04-27T12:11:00Z</time></trkpt><trkpt lat="44.95928929238593" lon="8.577991797180816"><ele>104.0</ele><time>2026-04-27T12:11:01Z</time></trkpt><trkpt lat="44.95939154062429" lon="8.57795337885562"><ele>104.0</ele><time>2026-04-27T12:11:02Z</time></trkpt><trkpt lat="44.959501682040546" lon="8.577911354725895"><ele>104.0</ele><time>2026-04-27T12:11:03Z</time></trkpt><trkpt lat="44.95962008466677" lon="8.577865673512461"><ele>103.75</ele><time>2026-04-27T12:11:04Z</time></trkpt><trkpt lat="44.95973319288664" lon="8.577823557202171"><ele>103.5</ele><time>2026-04-27T12:11:05Z</time></trkpt><trkpt lat="44.959838435554545" lon="8.57778231147404"><ele>103.25</ele><time>2026-04-27T12:11:06Z</time></trkpt><trkpt lat="44.95994438006318" lon="8.577738942492076"><ele>103.0</ele><time>2026-04-27T12:11:07Z</time></trkpt><trkpt lat="44.96005939750278" lon="8.577692481078696"><ele>103.5</ele><time>2026-04-27T12:11:08Z</time></trkpt><trkpt lat="44.9601845857958" lon="8.577645971519399"><ele>104.0</ele><time>2026-04-27T12:11:09Z</time></trkpt><trkpt lat="44.96031437780795" lon="8.577599497242952"><ele>104.5</ele><time>2026-04-27T12:11:10Z</time></trkpt><trkpt lat="44.960437901480034" lon="8.577551248756352"><ele>105.0</ele><time>2026-04-27T12:11:11Z</time></trkpt><trkpt lat="44.96055390365046" lon="8.577502484529726"><ele>105.0</ele><time>2026-04-27T12:11:12Z</time></trkpt><trkpt lat="44.96065971468398" lon="8.577454914096082"><ele>105.0</ele><time>2026-04-27T12:11:13Z</time></trkpt><trkpt lat="44.960762582317074" lon="8.577407897397874"><ele>105.0</ele><time>2026-04-27T12:11:14Z</time></trkpt><trkpt lat="44.96086224444961" lon="8.577357043998948"><ele>105.0</ele><time>2026-04-27T12:11:15Z</time></trkpt><trkpt lat="44.96096793133309" lon="8.577301781446604"><ele>105.0</ele><time>2026-04-27T12:11:16Z</time></trkpt><trkpt lat="44.961075732700245" lon="8.57724709504023"><ele>105.0</ele><time>2026-04-27T12:11:17Z</time></trkpt><trkpt lat="44.96118203275281" lon="8.57719188654736"><ele>105.0</ele><time>2026-04-27T12:11:18Z</time></trkpt><trkpt lat="44.96130169938092" lon="8.577125838936897"><ele>105.0</ele><time>2026-04-27T12:11:19Z</time></trkpt><trkpt lat="44.961423813508816" lon="8.577050450029626"><ele>105.0</ele><time>2026-04-27T12:11:20Z</time></trkpt><trkpt lat="44.96154375124953" lon="8.576997267530297"><ele>105.0</ele><time>2026-04-27T12:11:21Z</time></trkpt><trkpt lat="44.961653469077085" lon="8.576925359887067"><ele>105.0</ele><time>2026-04-27T12:11:24Z</time></trkpt><trkpt lat="44.96176458674729" lon="8.576865383224213"><ele>105.0</ele><time>2026-04-27T12:11:26Z</time></trkpt><trkpt lat="44.961879390400554" lon="8.576841591530876"><ele>105.0</ele><time>2026-04-27T12:11:28Z</time></trkpt><trkpt lat="44.96200498830247" lon="8.57685882145978"><ele>105.5</ele><time>2026-04-27T12:11:30Z</time></trkpt><trkpt lat="44.96210187512844" lon="8.576875905089752"><ele>106.0</ele><time>2026-04-27T12:11:32Z</time></trkpt><trkpt lat="44.96217341491525" lon="8.576819128048443"><ele>106.5</ele><time>2026-04-27T12:11:34Z</time></trkpt><trkpt lat="44.962226711586716" lon="8.576676153964039"><ele>107.0</ele><time>2026-04-27T12:11:36Z</time></trkpt><trkpt lat="44.962240728385076" lon="8.576576563026874"><ele>107.5</ele><time>2026-04-27T12:11:37Z</time></trkpt><trkpt lat="44.96226604501952" lon="8.576466163028721"><ele>108.0</ele><time>2026-04-27T12:11:38Z</time></trkpt><trkpt lat="44.96231053995281" lon="8.576358145600043"><ele>108.0</ele><time>2026-04-27T12:11:39Z</time></trkpt><trkpt lat="44.96237129570808" lon="8.57625318774042"><ele>108.0</ele><time>2026-04-27T12:11:39.999Z</time></trkpt><trkpt lat="44.962475975934865" lon="8.576167320791521"><ele>108.0</ele><time>2026-04-27T12:11:40.999Z</time></trkpt><trkpt lat="44.96259344248816" lon="8.576032057304383"><ele>108.0</ele><time>2026-04-27T12:11:41.999Z</time></trkpt><trkpt lat="44.96275370130507" lon="8.575849589354878"><ele>108.0</ele><time>2026-04-27T12:11:42.999Z</time></trkpt><trkpt lat="44.96292564866493" lon="8.575653641921237"><ele>108.0</ele><time>2026-04-27T12:11:43.999Z</time></trkpt><trkpt lat="44.96313383525119" lon="8.575375796263645"><ele>109.0</ele><time>2026-04-27T12:11:44.999Z</time></trkpt><trkpt lat="44.96332209251628" lon="8.575150019532478"><ele>110.0</ele><time>2026-04-27T12:11:45.999Z</time></trkpt><trkpt lat="44.96350154459082" lon="8.574886980893421"><ele>110.5</ele><time>2026-04-27T12:11:46.999Z</time></trkpt><trkpt lat="44.9636860552493" lon="8.574605208817905"><ele>111.0</ele><time>2026-04-27T12:11:47.999Z</time></trkpt><trkpt lat="44.96387056140401" lon="8.574297983899037"><ele>110.5</ele><time>2026-04-27T12:11:48.999Z</time></trkpt><trkpt lat="44.96404771663429" lon="8.573970583720618"><ele>110.0</ele><time>2026-04-27T12:11:49.999Z</time></trkpt><trkpt lat="44.9642201531187" lon="8.573636589800804"><ele>110.0</ele><time>2026-04-27T12:11:50.999Z</time></trkpt><trkpt lat="44.96440091930294" lon="8.57329339462211"><ele>110.0</ele><time>2026-04-27T12:11:51.999Z</time></trkpt><trkpt lat="44.96460088330868" lon="8.572955186394651"><ele>109.0</ele><time>2026-04-27T12:11:52.999Z</time></trkpt><trkpt lat="44.96479798111887" lon="8.572593368999245"><ele>108.0</ele><time>2026-04-27T12:11:53.999Z</time></trkpt><trkpt lat="44.9649960883072" lon="8.572230124101576"><ele>109.0</ele><time>2026-04-27T12:11:54.999Z</time></trkpt><trkpt lat="44.96519853653661" lon="8.571858950558612"><ele>110.0</ele><time>2026-04-27T12:11:55.999Z</time></trkpt><trkpt lat="44.965393215171794" lon="8.571502021852165"><ele>110.5</ele><time>2026-04-27T12:11:56.999Z</time></trkpt><trkpt lat="44.96558795825974" lon="8.571144975043804"><ele>111.0</ele><time>2026-04-27T12:11:57.999Z</time></trkpt><trkpt lat="44.965775529997785" lon="8.570801733680016"><ele>112.0</ele><time>2026-04-27T12:11:58.999Z</time></trkpt><trkpt lat="44.96596358761828" lon="8.570459218154145"><ele>113.0</ele><time>2026-04-27T12:11:59.999Z</time></trkpt><trkpt lat="44.96614786307914" lon="8.570123591328755"><ele>113.0</ele><time>2026-04-27T12:12:00.999Z</time></trkpt><trkpt lat="44.966329427111695" lon="8.569792902966979"><ele>113.0</ele><time>2026-04-27T12:12:01.999Z</time></trkpt><trkpt lat="44.96651062857776" lon="8.569462874954523"><ele>113.0</ele><time>2026-04-27T12:12:02.999Z</time></trkpt><trkpt lat="44.96668213288696" lon="8.569150511580707"><ele>113.0</ele><time>2026-04-27T12:12:03.999Z</time></trkpt><trkpt lat="44.966843323593274" lon="8.568856933931041"><ele>113.0</ele><time>2026-04-27T12:12:04.999Z</time></trkpt><trkpt lat="44.96698858344691" lon="8.568592371394367"><ele>113.0</ele><time>2026-04-27T12:12:05.999Z</time></trkpt><trkpt lat="44.96712604970306" lon="8.568342003175323"><ele>113.0</ele><time>2026-04-27T12:12:06.999Z</time></trkpt><trkpt lat="44.96725685596973" lon="8.568103765215092"><ele>113.0</ele><time>2026-04-27T12:12:07.999Z</time></trkpt><trkpt lat="44.96736596442803" lon="8.56790504666138"><ele>113.0</ele><time>2026-04-27T12:12:08.999Z</time></trkpt><trkpt lat="44.9674572334413" lon="8.567738817427836"><ele>113.5</ele><time>2026-04-27T12:12:09.999Z</time></trkpt><trkpt lat="44.96753901277869" lon="8.567589872263758"><ele>114.0</ele><time>2026-04-27T12:12:10.999Z</time></trkpt><trkpt lat="44.96761840037153" lon="8.567445283610573"><ele>114.5</ele><time>2026-04-27T12:12:11.999Z</time></trkpt><trkpt lat="44.96769298544119" lon="8.567309441278546"><ele>115.0</ele><time>2026-04-27T12:12:12.999Z</time></trkpt><trkpt lat="44.96776871113858" lon="8.56717152136926"><ele>115.0</ele><time>2026-04-27T12:12:13.999Z</time></trkpt><trkpt lat="44.967842743926674" lon="8.567036685234955"><ele>115.0</ele><time>2026-04-27T12:12:14.999Z</time></trkpt><trkpt lat="44.9679059208811" lon="8.566921620677503"><ele>115.0</ele><time>2026-04-27T12:12:15.999Z</time></trkpt><trkpt lat="44.96795776572123" lon="8.566827195508376"><ele>115.0</ele><time>2026-04-27T12:12:16.999Z</time></trkpt><trkpt lat="44.96800709903121" lon="8.566737344341893"><ele>115.0</ele><time>2026-04-27T12:12:17.999Z</time></trkpt><trkpt lat="44.96806057766219" lon="8.566639943321007"><ele>115.00000000000001</ele><time>2026-04-27T12:12:18.999Z</time></trkpt><trkpt lat="44.968112854410464" lon="8.566544731467037"><ele>115.0</ele><time>2026-04-27T12:12:19.999Z</time></trkpt><trkpt lat="44.96816295129519" lon="8.566453487188086"><ele>115.0</ele><time>2026-04-27T12:12:20.999Z</time></trkpt><trkpt lat="44.96819471974734" lon="8.566357012516244"><ele>115.0</ele><time>2026-04-27T12:12:21.999Z</time></trkpt><trkpt lat="44.96823634748632" lon="8.566284219737181"><ele>115.00000000000001</ele><time>2026-04-27T12:12:22.999Z</time></trkpt><trkpt lat="44.968314239416436" lon="8.566141596690509"><ele>115.0</ele><time>2026-04-27T12:12:24.999Z</time></trkpt><trkpt lat="44.96836524492801" lon="8.566082124046707"><ele>115.16666666666667</ele><time>2026-04-27T12:12:25.999Z</time></trkpt><trkpt lat="44.96840954648719" lon="8.566000858947138"><ele>115.33333333333334</ele><time>2026-04-27T12:12:27.999Z</time></trkpt><trkpt lat="44.96844849792315" lon="8.565929407728339"><ele>115.5</ele><time>2026-04-27T12:12:32.999Z</time></trkpt><trkpt lat="44.96849797792531" lon="8.565838643314676"><ele>115.66666666666666</ele><time>2026-04-27T12:12:41.999Z</time></trkpt><trkpt lat="44.968564306659076" lon="8.565716972303758"><ele>115.83333333333333</ele><time>2026-04-27T12:12:43.999Z</time></trkpt><trkpt lat="44.96862296895971" lon="8.56560940464522"><ele>116.0</ele><time>2026-04-27T12:12:45Z</time></trkpt><trkpt lat="44.968698537438506" lon="8.56547085124115"><ele>116.0</ele><time>2026-04-27T12:12:46Z</time></trkpt><trkpt lat="44.968775177684" lon="8.565296481416054"><ele>116.0</ele><time>2026-04-27T12:12:47Z</time></trkpt><trkpt lat="44.96888251048937" lon="8.565110871088441"><ele>116.0</ele><time>2026-04-27T12:12:48Z</time></trkpt><trkpt lat="44.968998154015004" lon="8.56490644824297"><ele>116.0</ele><time>2026-04-27T12:12:49Z</time></trkpt><trkpt lat="44.96912855752263" lon="8.564665752363288"><ele>116.0</ele><time>2026-04-27T12:12:50Z</time></trkpt><trkpt lat="44.96926667097119" lon="8.564415918696639"><ele>116.0</ele><time>2026-04-27T12:12:51Z</time></trkpt><trkpt lat="44.96941719011521" lon="8.564134383474055"><ele>117.0</ele><time>2026-04-27T12:12:52Z</time></trkpt><trkpt lat="44.96957552760228" lon="8.563838266874031"><ele>118.0</ele><time>2026-04-27T12:12:53Z</time></trkpt><trkpt lat="44.96974561578339" lon="8.563533486961873"><ele>118.5</ele><time>2026-04-27T12:12:54Z</time></trkpt><trkpt lat="44.96991797578302" lon="8.563224568881775"><ele>119.0</ele><time>2026-04-27T12:12:55Z</time></trkpt><trkpt lat="44.970094786074185" lon="8.562897672325255"><ele>119.5</ele><time>2026-04-27T12:12:56Z</time></trkpt><trkpt lat="44.970283881426" lon="8.562559673469098"><ele>120.0</ele><time>2026-04-27T12:12:57Z</time></trkpt><trkpt lat="44.970481589112794" lon="8.562223453817499"><ele>121.0</ele><time>2026-04-27T12:12:58Z</time></trkpt><trkpt lat="44.970698828614516" lon="8.561907630492781"><ele>122.0</ele><time>2026-04-27T12:12:59Z</time></trkpt><trkpt lat="44.97092177100356" lon="8.561566497480054"><ele>122.0</ele><time>2026-04-27T12:13:00Z</time></trkpt><trkpt lat="44.97116202914702" lon="8.561252878533056"><ele>122.0</ele><time>2026-04-27T12:13:01Z</time></trkpt><trkpt lat="44.97141529954577" lon="8.560959203963993"><ele>123.5</ele><time>2026-04-27T12:13:02Z</time></trkpt><trkpt lat="44.971674668110836" lon="8.560667665863111"><ele>125.0</ele><time>2026-04-27T12:13:03Z</time></trkpt><trkpt lat="44.971948806624134" lon="8.560393313093694"><ele>125.5</ele><time>2026-04-27T12:13:04Z</time></trkpt><trkpt lat="44.97224218110621" lon="8.560141990882023"><ele>126.0</ele><time>2026-04-27T12:13:05Z</time></trkpt><trkpt lat="44.972544598446554" lon="8.559912534648682"><ele>128.0</ele><time>2026-04-27T12:13:06Z</time></trkpt><trkpt lat="44.97285772810054" lon="8.559697595930364"><ele>130.0</ele><time>2026-04-27T12:13:07Z</time></trkpt><trkpt lat="44.97317655250388" lon="8.559494555982976"><ele>130.0</ele><time>2026-04-27T12:13:08Z</time></trkpt><trkpt lat="44.97350346891008" lon="8.559316863342367"><ele>130.0</ele><time>2026-04-27T12:13:09Z</time></trkpt><trkpt lat="44.973839678275965" lon="8.559158494810656"><ele>130.0</ele><time>2026-04-27T12:13:10Z</time></trkpt><trkpt lat="44.974183557177994" lon="8.55902055853139"><ele>130.0</ele><time>2026-04-27T12:13:11Z</time></trkpt><trkpt lat="44.974534325197126" lon="8.558909900224368"><ele>132.5</ele><time>2026-04-27T12:13:12Z</time></trkpt><trkpt lat="44.974885639574254" lon="8.558831348139188"><ele>135.0</ele><time>2026-04-27T12:13:13Z</time></trkpt><trkpt lat="44.97524268321514" lon="8.558763020465408"><ele>135.5</ele><time>2026-04-27T12:13:14Z</time></trkpt><trkpt lat="44.975599380755995" lon="8.558696134498083"><ele>136.0</ele><time>2026-04-27T12:13:15Z</time></trkpt><trkpt lat="44.97594848778625" lon="8.558631722228126"><ele>137.5</ele><time>2026-04-27T12:13:16Z</time></trkpt><trkpt lat="44.97629637560117" lon="8.558562271932862"><ele>139.0</ele><time>2026-04-27T12:13:17Z</time></trkpt><trkpt lat="44.97663367967195" lon="8.558492183661816"><ele>140.0</ele><time>2026-04-27T12:13:18Z</time></trkpt><trkpt lat="44.97696776540874" lon="8.558418912281333"><ele>141.0</ele><time>2026-04-27T12:13:19Z</time></trkpt><trkpt lat="44.977298279564984" lon="8.558343196623923"><ele>143.5</ele><time>2026-04-27T12:13:20Z</time></trkpt><trkpt lat="44.97763143553237" lon="8.558275431013831"><ele>146.0</ele><time>2026-04-27T12:13:21Z</time></trkpt><trkpt lat="44.977958265591816" lon="8.558209269365857"><ele>146.0</ele><time>2026-04-27T12:13:22Z</time></trkpt><trkpt lat="44.97827984057166" lon="8.558138617134173"><ele>146.0</ele><time>2026-04-27T12:13:23Z</time></trkpt><trkpt lat="44.97859109396306" lon="8.558070461927365"><ele>148.0</ele><time>2026-04-27T12:13:24Z</time></trkpt><trkpt lat="44.97888829862808" lon="8.558006641973394"><ele>150.0</ele><time>2026-04-27T12:13:25Z</time></trkpt><trkpt lat="44.97916974925597" lon="8.557938895956186"><ele>146.0</ele><time>2026-04-27T12:13:26Z</time></trkpt><trkpt lat="44.97946076627934" lon="8.55786927791605"><ele>142.0</ele><time>2026-04-27T12:13:27Z</time></trkpt><trkpt lat="44.979731447839846" lon="8.557819389178784"><ele>140.5</ele><time>2026-04-27T12:13:28Z</time></trkpt><trkpt lat="44.97999873304957" lon="8.557786678198784"><ele>139.0</ele><time>2026-04-27T12:13:29Z</time></trkpt><trkpt lat="44.9802703897353" lon="8.557729873464382"><ele>135.5</ele><time>2026-04-27T12:13:30Z</time></trkpt><trkpt lat="44.98054690575269" lon="8.55767222727813"><ele>132.0</ele><time>2026-04-27T12:13:31Z</time></trkpt><trkpt lat="44.98082658979754" lon="8.55759348289001"><ele>130.5</ele><time>2026-04-27T12:13:32Z</time></trkpt><trkpt lat="44.98111781089546" lon="8.557536664445081"><ele>129.0</ele><time>2026-04-27T12:13:33Z</time></trkpt><trkpt lat="44.981413397293046" lon="8.557474488495078"><ele>129.5</ele><time>2026-04-27T12:13:34Z</time></trkpt><trkpt lat="44.98170784897636" lon="8.557416124651132"><ele>130.0</ele><time>2026-04-27T12:13:35Z</time></trkpt><trkpt lat="44.98199578373882" lon="8.557358926669036"><ele>130.0</ele><time>2026-04-27T12:13:36Z</time></trkpt><trkpt lat="44.98224438138808" lon="8.557314049606509"><ele>130.0</ele><time>2026-04-27T12:13:37Z</time></trkpt><trkpt lat="44.98246562120315" lon="8.55728461840813"><ele>131.0</ele><time>2026-04-27T12:13:38Z</time></trkpt><trkpt lat="44.982666711370435" lon="8.557261998406466"><ele>132.0</ele><time>2026-04-27T12:13:39Z</time></trkpt><trkpt lat="44.9828621953453" lon="8.557246896420446"><ele>133.0</ele><time>2026-04-27T12:13:40Z</time></trkpt><trkpt lat="44.98305573449855" lon="8.557254826261106"><ele>133.0</ele><time>2026-04-27T12:13:40.999Z</time></trkpt><trkpt lat="44.98324562825942" lon="8.557274443474801"><ele>133.0</ele><time>2026-04-27T12:13:41.999Z</time></trkpt><trkpt lat="44.98343578232677" lon="8.557306169112005"><ele>133.0</ele><time>2026-04-27T12:13:42.999Z</time></trkpt><trkpt lat="44.98362109184565" lon="8.55734864551897"><ele>130.66666666666669</ele><time>2026-04-27T12:13:43.999Z</time></trkpt><trkpt lat="44.98380883668325" lon="8.557403243739186"><ele>128.33333333333334</ele><time>2026-04-27T12:13:44.999Z</time></trkpt><trkpt lat="44.983994048273125" lon="8.557478972932246"><ele>126.0</ele><time>2026-04-27T12:13:45.999Z</time></trkpt><trkpt lat="44.98417553864634" lon="8.557561322339147"><ele>126.33333333333334</ele><time>2026-04-27T12:13:46.999Z</time></trkpt><trkpt lat="44.984356361058005" lon="8.557650758614214"><ele>126.66666666666667</ele><time>2026-04-27T12:13:47.999Z</time></trkpt><trkpt lat="44.984537928033255" lon="8.557744212469448"><ele>127.0</ele><time>2026-04-27T12:13:48.999Z</time></trkpt><trkpt lat="44.98471680372735" lon="8.557839519835886"><ele>128.0</ele><time>2026-04-27T12:13:49.999Z</time></trkpt><trkpt lat="44.98489443580178" lon="8.557932728957205"><ele>129.0</ele><time>2026-04-27T12:13:50.999Z</time></trkpt><trkpt lat="44.98507633897508" lon="8.558025852528454"><ele>130.0</ele><time>2026-04-27T12:13:51.999Z</time></trkpt><trkpt lat="44.985255092097496" lon="8.558118974331139"><ele>130.0</ele><time>2026-04-27T12:13:52.999Z</time></trkpt><trkpt lat="44.985432244874495" lon="8.558209766886803"><ele>130.0</ele><time>2026-04-27T12:13:53.999Z</time></trkpt><trkpt lat="44.98560897578106" lon="8.558299552242236"><ele>130.0</ele><time>2026-04-27T12:13:54.999Z</time></trkpt><trkpt lat="44.98579126622764" lon="8.558392142085427"><ele>131.33333333333334</ele><time>2026-04-27T12:13:55.999Z</time></trkpt><trkpt lat="44.98596903525127" lon="8.558478917888063"><ele>132.66666666666666</ele><time>2026-04-27T12:13:56.999Z</time></trkpt><trkpt lat="44.98614618269582" lon="8.558569798770012"><ele>134.0</ele><time>2026-04-27T12:13:57.999Z</time></trkpt><trkpt lat="44.986322056532174" lon="8.558659774603624"><ele>134.0</ele><time>2026-04-27T12:13:58.999Z</time></trkpt><trkpt lat="44.9865027361053" lon="8.558749464043604"><ele>134.0</ele><time>2026-04-27T12:13:59.999Z</time></trkpt><trkpt lat="44.986682702987174" lon="8.558838209746852"><ele>134.0</ele><time>2026-04-27T12:14:00.999Z</time></trkpt><trkpt lat="44.98686648526685" lon="8.558933120816105"><ele>134.33333333333331</ele><time>2026-04-27T12:14:01.999Z</time></trkpt><trkpt lat="44.98705267857389" lon="8.559027986887187"><ele>134.66666666666666</ele><time>2026-04-27T12:14:02.999Z</time></trkpt><trkpt lat="44.98724663716921" lon="8.55912077110377"><ele>135.0</ele><time>2026-04-27T12:14:03.999Z</time></trkpt><trkpt lat="44.98744615334674" lon="8.559222364523864"><ele>137.5</ele><time>2026-04-27T12:14:04.999Z</time></trkpt><trkpt lat="44.98765469142487" lon="8.559328177400047"><ele>140.0</ele><time>2026-04-27T12:14:05.999Z</time></trkpt><trkpt lat="44.987877001614386" lon="8.559431199816277"><ele>140.0</ele><time>2026-04-27T12:14:06.999Z</time></trkpt><trkpt lat="44.98810810113594" lon="8.559528721258355"><ele>140.0</ele><time>2026-04-27T12:14:07.999Z</time></trkpt><trkpt lat="44.98833481465509" lon="8.559618739017319"><ele>140.0</ele><time>2026-04-27T12:14:08.999Z</time></trkpt><trkpt lat="44.98854474076797" lon="8.559699726472543"><ele>140.0</ele><time>2026-04-27T12:14:09.999Z</time></trkpt><trkpt lat="44.98876272313942" lon="8.559768798466983"><ele>140.0</ele><time>2026-04-27T12:14:10.999Z</time></trkpt><trkpt lat="44.988981718511965" lon="8.559808354241323"><ele>142.0</ele><time>2026-04-27T12:14:11.999Z</time></trkpt><trkpt lat="44.98920874818813" lon="8.55983437977054"><ele>144.0</ele><time>2026-04-27T12:14:12.999Z</time></trkpt><trkpt lat="44.98945480007289" lon="8.5598688750869"><ele>144.0</ele><time>2026-04-27T12:14:13.999Z</time></trkpt><trkpt lat="44.989721934753284" lon="8.559892532431176"><ele>144.0</ele><time>2026-04-27T12:14:14.999Z</time></trkpt><trkpt lat="44.990001590338366" lon="8.55989296921024"><ele>146.0</ele><time>2026-04-27T12:14:15.999Z</time></trkpt><trkpt lat="44.99030289196227" lon="8.559871879401921"><ele>148.0</ele><time>2026-04-27T12:14:16.999Z</time></trkpt><trkpt lat="44.990592601004245" lon="8.559837029526168"><ele>149.0</ele><time>2026-04-27T12:14:17.999Z</time></trkpt><trkpt lat="44.990912786022804" lon="8.559787338994408"><ele>150.0</ele><time>2026-04-27T12:14:18.999Z</time></trkpt><trkpt lat="44.991241311317474" lon="8.559692518179721"><ele>150.0</ele><time>2026-04-27T12:14:19.999Z</time></trkpt><trkpt lat="44.991552071813864" lon="8.559586996987836"><ele>150.0</ele><time>2026-04-27T12:14:20.999Z</time></trkpt><trkpt lat="44.991857022569654" lon="8.559452289833477"><ele>152.0</ele><time>2026-04-27T12:14:21.999Z</time></trkpt><trkpt lat="44.992142841703014" lon="8.559290227943105"><ele>154.0</ele><time>2026-04-27T12:14:22.999Z</time></trkpt><trkpt lat="44.99238890576857" lon="8.559120816794659"><ele>154.0</ele><time>2026-04-27T12:14:23.999Z</time></trkpt><trkpt lat="44.99261650466687" lon="8.558946270457394"><ele>154.0</ele><time>2026-04-27T12:14:24.999Z</time></trkpt><trkpt lat="44.99284331710007" lon="8.558760628976577"><ele>157.5</ele><time>2026-04-27T12:14:25.999Z</time></trkpt><trkpt lat="44.99307129728107" lon="8.55855451717228"><ele>161.0</ele><time>2026-04-27T12:14:26.999Z</time></trkpt><trkpt lat="44.99331172789407" lon="8.558331100596538"><ele>160.5</ele><time>2026-04-27T12:14:27.999Z</time></trkpt><trkpt lat="44.99355064757545" lon="8.558091742962157"><ele>160.0</ele><time>2026-04-27T12:14:28.999Z</time></trkpt><trkpt lat="44.993803837828736" lon="8.557868540516845"><ele>162.0</ele><time>2026-04-27T12:14:29.999Z</time></trkpt><trkpt lat="44.994039040996064" lon="8.557651090695325"><ele>164.0</ele><time>2026-04-27T12:14:30.999Z</time></trkpt><trkpt lat="44.9942193961002" lon="8.557453787786107"><ele>164.0</ele><time>2026-04-27T12:14:31.999Z</time></trkpt><trkpt lat="44.994391324714215" lon="8.557305767167412"><ele>164.0</ele><time>2026-04-27T12:14:32.999Z</time></trkpt><trkpt lat="44.99452854085865" lon="8.557189402440503"><ele>164.0</ele><time>2026-04-27T12:14:33.999Z</time></trkpt><trkpt lat="44.99464501556708" lon="8.557092615931804"><ele>165.75</ele><time>2026-04-27T12:14:34.999Z</time></trkpt><trkpt lat="44.9947510592634" lon="8.556990189694325"><ele>167.5</ele><time>2026-04-27T12:14:35.999Z</time></trkpt><trkpt lat="44.99485054609408" lon="8.556885339403978"><ele>169.25</ele><time>2026-04-27T12:14:36.999Z</time></trkpt><trkpt lat="44.99494811688914" lon="8.556771284645171"><ele>171.0</ele><time>2026-04-27T12:14:37.999Z</time></trkpt><trkpt lat="44.99505522177976" lon="8.556655629128572"><ele>173.25</ele><time>2026-04-27T12:14:38.999Z</time></trkpt><trkpt lat="44.99516050952366" lon="8.55653342629244"><ele>175.5</ele><time>2026-04-27T12:14:39.999Z</time></trkpt><trkpt lat="44.99524773641425" lon="8.556410299565147"><ele>177.75</ele><time>2026-04-27T12:14:40.999Z</time></trkpt><trkpt lat="44.99536856754502" lon="8.556303134283663"><ele>180.0</ele><time>2026-04-27T12:14:41.999Z</time></trkpt><trkpt lat="44.995508393251306" lon="8.556146329230007"><ele>182.0</ele><time>2026-04-27T12:14:42.999Z</time></trkpt><trkpt lat="44.99567159336438" lon="8.555957695506978"><ele>184.0</ele><time>2026-04-27T12:14:43.999Z</time></trkpt><trkpt lat="44.99585479404269" lon="8.555754578504562"><ele>186.0</ele><time>2026-04-27T12:14:44.999Z</time></trkpt><trkpt lat="44.99603198910398" lon="8.555558779638096"><ele>193.5</ele><time>2026-04-27T12:14:45.999Z</time></trkpt><trkpt lat="44.99620257748485" lon="8.555345503496135"><ele>201.0</ele><time>2026-04-27T12:14:47.019Z</time></trkpt><trkpt lat="44.996389561133824" lon="8.555158323698175"><ele>201.0</ele><time>2026-04-27T12:14:48.015Z</time></trkpt><trkpt lat="44.996578773179735" lon="8.554965790458484"><ele>201.0</ele><time>2026-04-27T12:14:49.018Z</time></trkpt><trkpt lat="44.99678960542775" lon="8.55474127691852"><ele>198.0</ele><time>2026-04-27T12:14:50.017Z</time></trkpt><trkpt lat="44.99700926471137" lon="8.554507862204657"><ele>195.0</ele><time>2026-04-27T12:14:51.017Z</time></trkpt><trkpt lat="44.99720901823129" lon="8.554290733180755"><ele>195.0</ele><time>2026-04-27T12:14:52.018Z</time></trkpt><trkpt lat="44.997385545785015" lon="8.554096652762155"><ele>195.0</ele><time>2026-04-27T12:14:53.02Z</time></trkpt><trkpt lat="44.997559151230135" lon="8.553910644732989"><ele>195.0</ele><time>2026-04-27T12:14:54.018Z</time></trkpt><trkpt lat="44.998167260471625" lon="8.553145497932086"><ele>186.5</ele><time>2026-04-27T12:14:54.999Z</time></trkpt><trkpt lat="44.99838521849789" lon="8.55292290787936"><ele>178.0</ele><time>2026-04-27T12:14:55.999Z</time></trkpt><trkpt lat="44.998666238165015" lon="8.5526823809763"><ele>178.0</ele><time>2026-04-27T12:14:56.999Z</time></trkpt><trkpt lat="44.998898648584266" lon="8.552509827373495"><ele>178.0</ele><time>2026-04-27T12:14:57.999Z</time></trkpt><trkpt lat="44.99911112503138" lon="8.552386630325149"><ele>176.33333333333334</ele><time>2026-04-27T12:14:59Z</time></trkpt><trkpt lat="44.999313957573065" lon="8.552274707091442"><ele>174.66666666666666</ele><time>2026-04-27T12:15:00Z</time></trkpt><trkpt lat="44.99951899310898" lon="8.552170873897703"><ele>173.0</ele><time>2026-04-27T12:15:01Z</time></trkpt><trkpt lat="44.99975005386453" lon="8.55209120177218"><ele>173.0</ele><time>2026-04-27T12:15:02Z</time></trkpt><trkpt lat="44.999991475719135" lon="8.552065140098083"><ele>173.0</ele><time>2026-04-27T12:15:03Z</time></trkpt><trkpt lat="45.000242270638445" lon="8.552038048086244"><ele>172.0</ele><time>2026-04-27T12:15:04Z</time></trkpt><trkpt lat="45.000527325293476" lon="8.552036593506864"><ele>171.0</ele><time>2026-04-27T12:15:05Z</time></trkpt><trkpt lat="45.00083395103712" lon="8.552066823431481"><ele>171.0</ele><time>2026-04-27T12:15:06Z</time></trkpt><trkpt lat="45.00116380576439" lon="8.552138226146193"><ele>171.0</ele><time>2026-04-27T12:15:07Z</time></trkpt><trkpt lat="45.00150340388524" lon="8.552264862025268"><ele>168.5</ele><time>2026-04-27T12:15:08Z</time></trkpt><trkpt lat="45.00183767324598" lon="8.552408344051194"><ele>166.0</ele><time>2026-04-27T12:15:09Z</time></trkpt><trkpt lat="45.00216813160137" lon="8.552536966116413"><ele>166.5</ele><time>2026-04-27T12:15:10Z</time></trkpt><trkpt lat="45.002506733242626" lon="8.552652690934284"><ele>167.0</ele><time>2026-04-27T12:15:11Z</time></trkpt><trkpt lat="45.00284832353646" lon="8.55277187739727"><ele>164.0</ele><time>2026-04-27T12:15:12Z</time></trkpt><trkpt lat="45.00319108463756" lon="8.552893511391666"><ele>161.0</ele><time>2026-04-27T12:15:13Z</time></trkpt><trkpt lat="45.00353383697253" lon="8.55301749881015"><ele>161.0</ele><time>2026-04-27T12:15:14Z</time></trkpt><trkpt lat="45.0038799172707" lon="8.553142218109048"><ele>161.0</ele><time>2026-04-27T12:15:15Z</time></trkpt><trkpt lat="45.00422476336657" lon="8.553262280950346"><ele>161.0</ele><time>2026-04-27T12:15:16Z</time></trkpt><trkpt lat="45.00455771079696" lon="8.55338545628629"><ele>161.0</ele><time>2026-04-27T12:15:17Z</time></trkpt><trkpt lat="45.00489053716968" lon="8.553507183190789"><ele>160.0</ele><time>2026-04-27T12:15:18Z</time></trkpt><trkpt lat="45.00522307831854" lon="8.553623630018825"><ele>159.0</ele><time>2026-04-27T12:15:19Z</time></trkpt><trkpt lat="45.00555252681169" lon="8.553739730340288"><ele>155.0</ele><time>2026-04-27T12:15:20Z</time></trkpt><trkpt lat="45.00588330959706" lon="8.553852037351497"><ele>151.0</ele><time>2026-04-27T12:15:21Z</time></trkpt><trkpt lat="45.00621776951802" lon="8.553950520616874"><ele>151.0</ele><time>2026-04-27T12:15:22Z</time></trkpt><trkpt lat="45.00655037773483" lon="8.554037294902967"><ele>151.0</ele><time>2026-04-27T12:15:23Z</time></trkpt><trkpt lat="45.00688857507232" lon="8.55410383658555"><ele>150.0</ele><time>2026-04-27T12:15:24Z</time></trkpt><trkpt lat="45.00722953344893" lon="8.55415233529894"><ele>149.0</ele><time>2026-04-27T12:15:25Z</time></trkpt><trkpt lat="45.00757152263689" lon="8.55418073356176"><ele>146.5</ele><time>2026-04-27T12:15:26Z</time></trkpt><trkpt lat="45.00792053626649" lon="8.554177329865619"><ele>144.0</ele><time>2026-04-27T12:15:27Z</time></trkpt><trkpt lat="45.008267226227325" lon="8.554148670503201"><ele>144.5</ele><time>2026-04-27T12:15:28Z</time></trkpt><trkpt lat="45.0086056063759" lon="8.554104471800049"><ele>145.0</ele><time>2026-04-27T12:15:29Z</time></trkpt><trkpt lat="45.008950396740424" lon="8.554040082997352"><ele>145.5</ele><time>2026-04-27T12:15:30Z</time></trkpt><trkpt lat="45.009293932440634" lon="8.553957129861345"><ele>146.0</ele><time>2026-04-27T12:15:31Z</time></trkpt><trkpt lat="45.00963308422774" lon="8.553859690232933"><ele>146.0</ele><time>2026-04-27T12:15:32Z</time></trkpt><trkpt lat="45.00996689465522" lon="8.553742032153442"><ele>146.0</ele><time>2026-04-27T12:15:33Z</time></trkpt><trkpt lat="45.01029554998382" lon="8.553609995175178"><ele>143.5</ele><time>2026-04-27T12:15:34Z</time></trkpt><trkpt lat="45.010608091875845" lon="8.55347531902185"><ele>141.0</ele><time>2026-04-27T12:15:35Z</time></trkpt><trkpt lat="45.010905202113506" lon="8.553318816629226"><ele>139.5</ele><time>2026-04-27T12:15:36Z</time></trkpt><trkpt lat="45.01118466344849" lon="8.553140405143006"><ele>138.0</ele><time>2026-04-27T12:15:37Z</time></trkpt><trkpt lat="45.01143813026177" lon="8.552956896990924"><ele>138.5</ele><time>2026-04-27T12:15:38Z</time></trkpt><trkpt lat="45.01165764659945" lon="8.55278407226993"><ele>139.0</ele><time>2026-04-27T12:15:39Z</time></trkpt><trkpt lat="45.01184257007124" lon="8.552631938312192"><ele>139.0</ele><time>2026-04-27T12:15:40Z</time></trkpt><trkpt lat="45.012010780358615" lon="8.552488606601358"><ele>139.0</ele><time>2026-04-27T12:15:41Z</time></trkpt><trkpt lat="45.01217661888721" lon="8.552335648503039"><ele>139.0</ele><time>2026-04-27T12:15:42Z</time></trkpt><trkpt lat="45.01234846023438" lon="8.55216740017155"><ele>138.0</ele><time>2026-04-27T12:15:43Z</time></trkpt><trkpt lat="45.01253750150198" lon="8.551971344454063"><ele>137.0</ele><time>2026-04-27T12:15:44Z</time></trkpt><trkpt lat="45.01272999807727" lon="8.551760977778589"><ele>137.0</ele><time>2026-04-27T12:15:45Z</time></trkpt><trkpt lat="45.01293047860371" lon="8.551529315271948"><ele>137.0</ele><time>2026-04-27T12:15:46Z</time></trkpt><trkpt lat="45.01313146479668" lon="8.551290385469299"><ele>135.0</ele><time>2026-04-27T12:15:47Z</time></trkpt><trkpt lat="45.01333122986037" lon="8.551050224510313"><ele>133.0</ele><time>2026-04-27T12:15:48Z</time></trkpt><trkpt lat="45.01353554029501" lon="8.550806412433964"><ele>133.0</ele><time>2026-04-27T12:15:49Z</time></trkpt><trkpt lat="45.013745014894475" lon="8.550555373663487"><ele>133.0</ele><time>2026-04-27T12:15:50Z</time></trkpt><trkpt lat="45.013962465555664" lon="8.55029839219888"><ele>132.5</ele><time>2026-04-27T12:15:51Z</time></trkpt><trkpt lat="45.01418549384387" lon="8.550030844613293"><ele>132.0</ele><time>2026-04-27T12:15:52Z</time></trkpt><trkpt lat="45.01440853711888" lon="8.549764178689419"><ele>131.5</ele><time>2026-04-27T12:15:53Z</time></trkpt><trkpt lat="45.014636732338" lon="8.549485538668513"><ele>131.0</ele><time>2026-04-27T12:15:54Z</time></trkpt><trkpt lat="45.014867017988" lon="8.549208416107112"><ele>131.0</ele><time>2026-04-27T12:15:55Z</time></trkpt><trkpt lat="45.01509889797819" lon="8.548927222527652"><ele>131.0</ele><time>2026-04-27T12:15:56Z</time></trkpt><trkpt lat="45.01532161916142" lon="8.548658991975934"><ele>130.5</ele><time>2026-04-27T12:15:57Z</time></trkpt><trkpt lat="45.01555059297123" lon="8.548386908570517"><ele>130.0</ele><time>2026-04-27T12:15:58Z</time></trkpt><trkpt lat="45.01578036910573" lon="8.548110152551544"><ele>130.0</ele><time>2026-04-27T12:15:59Z</time></trkpt><trkpt lat="45.016015223664596" lon="8.547827886543198"><ele>130.0</ele><time>2026-04-27T12:16:00Z</time></trkpt><trkpt lat="45.016253792962154" lon="8.547540299719516"><ele>130.0</ele><time>2026-04-27T12:16:01Z</time></trkpt><trkpt lat="45.01649076326673" lon="8.54725338710251"><ele>130.0</ele><time>2026-04-27T12:16:02Z</time></trkpt><trkpt lat="45.01672666342142" lon="8.546966321463392"><ele>129.0</ele><time>2026-04-27T12:16:03Z</time></trkpt><trkpt lat="45.016969712556346" lon="8.54667449842122"><ele>128.0</ele><time>2026-04-27T12:16:03.999Z</time></trkpt><trkpt lat="45.01721270093801" lon="8.546383758226359"><ele>127.0</ele><time>2026-04-27T12:16:04.999Z</time></trkpt><trkpt lat="45.01744923679155" lon="8.546098668873393"><ele>126.0</ele><time>2026-04-27T12:16:05.999Z</time></trkpt><trkpt lat="45.01767612335346" lon="8.545834896696476"><ele>124.0</ele><time>2026-04-27T12:16:06.999Z</time></trkpt><trkpt lat="45.01789925874425" lon="8.545566428831197"><ele>122.0</ele><time>2026-04-27T12:16:07.999Z</time></trkpt><trkpt lat="45.018129100693606" lon="8.54528789175951"><ele>121.5</ele><time>2026-04-27T12:16:08.999Z</time></trkpt><trkpt lat="45.01835839203045" lon="8.545008155308592"><ele>121.0</ele><time>2026-04-27T12:16:09.999Z</time></trkpt><trkpt lat="45.018588824454405" lon="8.544734184724042"><ele>122.5</ele><time>2026-04-27T12:16:10.999Z</time></trkpt><trkpt lat="45.01882347880519" lon="8.544455443782143"><ele>124.0</ele><time>2026-04-27T12:16:11.999Z</time></trkpt><trkpt lat="45.01905666673468" lon="8.544170896666758"><ele>124.0</ele><time>2026-04-27T12:16:12.999Z</time></trkpt><trkpt lat="45.01929365887097" lon="8.543889269670741"><ele>124.0</ele><time>2026-04-27T12:16:13.999Z</time></trkpt><trkpt lat="45.01953159191227" lon="8.543603828252344"><ele>124.0</ele><time>2026-04-27T12:16:14.999Z</time></trkpt><trkpt lat="45.01976694893896" lon="8.543315116458688"><ele>124.0</ele><time>2026-04-27T12:16:15.999Z</time></trkpt><trkpt lat="45.02000420768576" lon="8.543027023906223"><ele>122.0</ele><time>2026-04-27T12:16:16.999Z</time></trkpt><trkpt lat="45.02024199239946" lon="8.54273898637285"><ele>120.0</ele><time>2026-04-27T12:16:17.999Z</time></trkpt><trkpt lat="45.02049049374338" lon="8.542447365686643"><ele>120.0</ele><time>2026-04-27T12:16:18.999Z</time></trkpt><trkpt lat="45.02073227618365" lon="8.542157569336354"><ele>120.0</ele><time>2026-04-27T12:16:19.999Z</time></trkpt><trkpt lat="45.02097525097399" lon="8.541863386338344"><ele>120.5</ele><time>2026-04-27T12:16:20.999Z</time></trkpt><trkpt lat="45.02121545361115" lon="8.54157616953793"><ele>121.0</ele><time>2026-04-27T12:16:21.999Z</time></trkpt><trkpt lat="45.02144761053128" lon="8.541302712665498"><ele>121.0</ele><time>2026-04-27T12:16:22.999Z</time></trkpt><trkpt lat="45.02168426624943" lon="8.541019852269688"><ele>121.0</ele><time>2026-04-27T12:16:23.999Z</time></trkpt><trkpt lat="45.021923569715355" lon="8.540738389158253"><ele>121.0</ele><time>2026-04-27T12:16:24.999Z</time></trkpt><trkpt lat="45.022155870160695" lon="8.540456941242924"><ele>121.0</ele><time>2026-04-27T12:16:25.999Z</time></trkpt><trkpt lat="45.02239501664956" lon="8.540168978123601"><ele>122.0</ele><time>2026-04-27T12:16:26.999Z</time></trkpt><trkpt lat="45.02263468161767" lon="8.539884094854443"><ele>123.0</ele><time>2026-04-27T12:16:27.999Z</time></trkpt><trkpt lat="45.02287067598458" lon="8.539601247207434"><ele>123.0</ele><time>2026-04-27T12:16:28.999Z</time></trkpt><trkpt lat="45.023110979714616" lon="8.5393110416803"><ele>123.0</ele><time>2026-04-27T12:16:29.999Z</time></trkpt><trkpt lat="45.02335074475483" lon="8.539023776959377"><ele>124.0</ele><time>2026-04-27T12:16:30.999Z</time></trkpt><trkpt lat="45.02358826195874" lon="8.538735775293308"><ele>125.0</ele><time>2026-04-27T12:16:31.999Z</time></trkpt><trkpt lat="45.02382603078379" lon="8.538446754732009"><ele>125.0</ele><time>2026-04-27T12:16:32.999Z</time></trkpt><trkpt lat="45.02406369873722" lon="8.538155925771068"><ele>125.0</ele><time>2026-04-27T12:16:33.999Z</time></trkpt><trkpt lat="45.02430098948204" lon="8.537868539820119"><ele>126.0</ele><time>2026-04-27T12:16:34.999Z</time></trkpt><trkpt lat="45.02453812768063" lon="8.537580472120563"><ele>127.0</ele><time>2026-04-27T12:16:35.999Z</time></trkpt><trkpt lat="45.02477480250868" lon="8.537290880172499"><ele>126.0</ele><time>2026-04-27T12:16:36.999Z</time></trkpt><trkpt lat="45.025022977901045" lon="8.536993940709898"><ele>125.0</ele><time>2026-04-27T12:16:37.999Z</time></trkpt><trkpt lat="45.02526946056323" lon="8.536705467705241"><ele>125.0</ele><time>2026-04-27T12:16:38.999Z</time></trkpt><trkpt lat="45.02551817460806" lon="8.536411379764829"><ele>125.0</ele><time>2026-04-27T12:16:39.999Z</time></trkpt><trkpt lat="45.02576449838524" lon="8.536114787215041"><ele>124.0</ele><time>2026-04-27T12:16:40.999Z</time></trkpt><trkpt lat="45.02601217891467" lon="8.535818467548417"><ele>123.0</ele><time>2026-04-27T12:16:41.999Z</time></trkpt><trkpt lat="45.02625869966059" lon="8.535519427747884"><ele>123.5</ele><time>2026-04-27T12:16:42.999Z</time></trkpt><trkpt lat="45.02649955851983" lon="8.535226654591366"><ele>124.0</ele><time>2026-04-27T12:16:43.999Z</time></trkpt><trkpt lat="45.02673539580795" lon="8.534940000163079"><ele>124.0</ele><time>2026-04-27T12:16:44.999Z</time></trkpt><trkpt lat="45.02697038523636" lon="8.534657982671316"><ele>124.0</ele><time>2026-04-27T12:16:45.999Z</time></trkpt><trkpt lat="45.02720223585382" lon="8.534379148009407"><ele>124.0</ele><time>2026-04-27T12:16:46.999Z</time></trkpt><trkpt lat="45.02744152798447" lon="8.53409652515255"><ele>124.0</ele><time>2026-04-27T12:16:47.999Z</time></trkpt><trkpt lat="45.027680492997355" lon="8.533807401002766"><ele>123.0</ele><time>2026-04-27T12:16:48.999Z</time></trkpt><trkpt lat="45.02791873679869" lon="8.53351644836913"><ele>122.0</ele><time>2026-04-27T12:16:49.999Z</time></trkpt><trkpt lat="45.028156489401475" lon="8.5332240135337"><ele>122.0</ele><time>2026-04-27T12:16:50.999Z</time></trkpt><trkpt lat="45.02839568435186" lon="8.532930837816858"><ele>122.0</ele><time>2026-04-27T12:16:51.999Z</time></trkpt><trkpt lat="45.02862912138979" lon="8.5326429994843"><ele>123.0</ele><time>2026-04-27T12:16:52.999Z</time></trkpt><trkpt lat="45.02886567624823" lon="8.532361846206806"><ele>124.0</ele><time>2026-04-27T12:16:53.999Z</time></trkpt><trkpt lat="45.02909135556899" lon="8.532090515119977"><ele>124.5</ele><time>2026-04-27T12:16:54.999Z</time></trkpt><trkpt lat="45.02930663328622" lon="8.53182720176762"><ele>125.0</ele><time>2026-04-27T12:16:55.999Z</time></trkpt><trkpt lat="45.029517237284715" lon="8.531570137338937"><ele>125.0</ele><time>2026-04-27T12:16:56.999Z</time></trkpt><trkpt lat="45.02972080223243" lon="8.53132280733092"><ele>125.0</ele><time>2026-04-27T12:16:57.999Z</time></trkpt><trkpt lat="45.029920819277315" lon="8.531082193749262"><ele>124.5</ele><time>2026-04-27T12:16:58.999Z</time></trkpt><trkpt lat="45.03011791971099" lon="8.530843455430894"><ele>124.0</ele><time>2026-04-27T12:16:59.999Z</time></trkpt><trkpt lat="45.03032745929924" lon="8.530621427133326"><ele>123.5</ele><time>2026-04-27T12:17:00.999Z</time></trkpt><trkpt lat="45.03051176251182" lon="8.530368931977387"><ele>123.0</ele><time>2026-04-27T12:17:01.999Z</time></trkpt><trkpt lat="45.03070416256919" lon="8.530136143923803"><ele>124.0</ele><time>2026-04-27T12:17:02.999Z</time></trkpt><trkpt lat="45.03089185353814" lon="8.52991242056402"><ele>125.0</ele><time>2026-04-27T12:17:03.999Z</time></trkpt><trkpt lat="45.03107936031557" lon="8.529689613376885"><ele>126.0</ele><time>2026-04-27T12:17:05Z</time></trkpt><trkpt lat="45.03126281429702" lon="8.52947301688293"><ele>127.0</ele><time>2026-04-27T12:17:06Z</time></trkpt><trkpt lat="45.031446798056315" lon="8.52925427945152"><ele>127.0</ele><time>2026-04-27T12:17:07Z</time></trkpt><trkpt lat="45.03162402774202" lon="8.52904155039454"><ele>127.0</ele><time>2026-04-27T12:17:08Z</time></trkpt><trkpt lat="45.03179292836604" lon="8.528832655691822"><ele>126.66666666666667</ele><time>2026-04-27T12:17:09Z</time></trkpt><trkpt lat="45.03194849018802" lon="8.52864305823977"><ele>126.33333333333334</ele><time>2026-04-27T12:17:10Z</time></trkpt><trkpt lat="45.03210803871054" lon="8.528452695344763"><ele>126.0</ele><time>2026-04-27T12:17:11Z</time></trkpt><trkpt lat="45.03226285036057" lon="8.528268895832289"><ele>126.0</ele><time>2026-04-27T12:17:12Z</time></trkpt><trkpt lat="45.03241631335446" lon="8.528083948413089"><ele>126.0</ele><time>2026-04-27T12:17:13Z</time></trkpt><trkpt lat="45.03257366068354" lon="8.527894408679945"><ele>126.0</ele><time>2026-04-27T12:17:14Z</time></trkpt><trkpt lat="45.032736288270094" lon="8.527695267908364"><ele>125.33333333333334</ele><time>2026-04-27T12:17:15Z</time></trkpt><trkpt lat="45.03290023795527" lon="8.527497796910191"><ele>124.66666666666667</ele><time>2026-04-27T12:17:16Z</time></trkpt><trkpt lat="45.03306835568069" lon="8.527297599033519"><ele>124.0</ele><time>2026-04-27T12:17:17Z</time></trkpt><trkpt lat="45.03324069088337" lon="8.52709415924272"><ele>123.33333333333334</ele><time>2026-04-27T12:17:18Z</time></trkpt><trkpt lat="45.03340644546547" lon="8.526899108462256"><ele>122.66666666666666</ele><time>2026-04-27T12:17:19Z</time></trkpt><trkpt lat="45.03357830290991" lon="8.526709634162014"><ele>122.0</ele><time>2026-04-27T12:17:20Z</time></trkpt><trkpt lat="45.033735757635554" lon="8.526518313118757"><ele>122.0</ele><time>2026-04-27T12:17:21Z</time></trkpt><trkpt lat="45.03388885724643" lon="8.526341840395428"><ele>122.0</ele><time>2026-04-27T12:17:22Z</time></trkpt><trkpt lat="45.03403742962981" lon="8.526171215864156"><ele>122.0</ele><time>2026-04-27T12:17:23Z</time></trkpt><trkpt lat="45.03416563597971" lon="8.526000385607322"><ele>122.0</ele><time>2026-04-27T12:17:24Z</time></trkpt><trkpt lat="45.034316759612324" lon="8.52583822898824"><ele>122.0</ele><time>2026-04-27T12:17:25Z</time></trkpt><trkpt lat="45.03443441879946" lon="8.525622320162691"><ele>122.0</ele><time>2026-04-27T12:17:26Z</time></trkpt><trkpt lat="45.034561303972296" lon="8.525406969112023"><ele>122.0</ele><time>2026-04-27T12:17:27Z</time></trkpt><trkpt lat="45.03468137264742" lon="8.525180698170875"><ele>122.0</ele><time>2026-04-27T12:17:28Z</time></trkpt><trkpt lat="45.03481282250392" lon="8.524958725520976"><ele>122.0</ele><time>2026-04-27T12:17:29Z</time></trkpt><trkpt lat="45.034925356706346" lon="8.524751985444851"><ele>120.66666666666666</ele><time>2026-04-27T12:17:30Z</time></trkpt><trkpt lat="45.03501992450159" lon="8.524538346656875"><ele>119.33333333333334</ele><time>2026-04-27T12:17:31Z</time></trkpt><trkpt lat="45.03511152095641" lon="8.524369854926011"><ele>118.0</ele><time>2026-04-27T12:17:32Z</time></trkpt><trkpt lat="45.03519844134521" lon="8.524227227160743"><ele>118.0</ele><time>2026-04-27T12:17:33Z</time></trkpt><trkpt lat="45.035281988178326" lon="8.524143470527504"><ele>118.00000000000001</ele><time>2026-04-27T12:17:34Z</time></trkpt><trkpt lat="45.03538654553753" lon="8.524110089111431"><ele>118.00000000000001</ele><time>2026-04-27T12:17:35Z</time></trkpt><trkpt lat="45.035483083263735" lon="8.52414932696139"><ele>118.0</ele><time>2026-04-27T12:17:36Z</time></trkpt><trkpt lat="45.035579461416816" lon="8.524290058859227"><ele>118.0</ele><time>2026-04-27T12:17:37Z</time></trkpt><trkpt lat="45.03564935516978" lon="8.524506404369767"><ele>118.0</ele><time>2026-04-27T12:17:38Z</time></trkpt><trkpt lat="45.03575503855546" lon="8.524708829786853"><ele>118.0</ele><time>2026-04-27T12:17:39Z</time></trkpt><trkpt lat="45.03588230431791" lon="8.524915111870232"><ele>118.0</ele><time>2026-04-27T12:17:40Z</time></trkpt><trkpt lat="45.03605881111795" lon="8.525078378872651"><ele>118.0</ele><time>2026-04-27T12:17:41Z</time></trkpt><trkpt lat="45.036232051162195" lon="8.525218363221109"><ele>118.0</ele><time>2026-04-27T12:17:42Z</time></trkpt><trkpt lat="45.036397504101025" lon="8.525315164642079"><ele>118.0</ele><time>2026-04-27T12:17:43Z</time></trkpt><trkpt lat="45.036578772356" lon="8.525367929309834"><ele>118.0</ele><time>2026-04-27T12:17:44Z</time></trkpt><trkpt lat="45.036766562078824" lon="8.52541103594294"><ele>118.0</ele><time>2026-04-27T12:17:45Z</time></trkpt><trkpt lat="45.036938822589214" lon="8.52540262792953"><ele>118.0</ele><time>2026-04-27T12:17:46Z</time></trkpt><trkpt lat="45.037154255062376" lon="8.52537421670086"><ele>118.0</ele><time>2026-04-27T12:17:47Z</time></trkpt><trkpt lat="45.03736036722994" lon="8.525362067453038"><ele>118.0</ele><time>2026-04-27T12:17:48Z</time></trkpt><trkpt lat="45.03754764980103" lon="8.525356673783909"><ele>118.0</ele><time>2026-04-27T12:17:49Z</time></trkpt><trkpt lat="45.03772488621993" lon="8.52534933716328"><ele>120.0</ele><time>2026-04-27T12:17:50Z</time></trkpt><trkpt lat="45.03789802391301" lon="8.525339311792003"><ele>122.0</ele><time>2026-04-27T12:17:51Z</time></trkpt><trkpt lat="45.038036570787476" lon="8.525351440484986"><ele>124.0</ele><time>2026-04-27T12:17:52Z</time></trkpt><trkpt lat="45.03817824977746" lon="8.52534849497351"><ele>124.33333333333334</ele><time>2026-04-27T12:17:53Z</time></trkpt><trkpt lat="45.03831990526625" lon="8.525342703376916"><ele>124.66666666666666</ele><time>2026-04-27T12:17:54Z</time></trkpt><trkpt lat="45.03847187192026" lon="8.525321160392064"><ele>125.0</ele><time>2026-04-27T12:17:55Z</time></trkpt><trkpt lat="45.03864322833894" lon="8.52527092516819"><ele>125.0</ele><time>2026-04-27T12:17:56Z</time></trkpt><trkpt lat="45.038821259026506" lon="8.525172210948432"><ele>125.0</ele><time>2026-04-27T12:17:57Z</time></trkpt><trkpt lat="45.03900884109516" lon="8.52503900605251"><ele>125.0</ele><time>2026-04-27T12:17:58Z</time></trkpt><trkpt lat="45.03920431973186" lon="8.524880165204996"><ele>124.5</ele><time>2026-04-27T12:17:59Z</time></trkpt><trkpt lat="45.03941364800969" lon="8.524715303381651"><ele>124.0</ele><time>2026-04-27T12:18:00Z</time></trkpt><trkpt lat="45.03963712735191" lon="8.524536674990353"><ele>124.0</ele><time>2026-04-27T12:18:01Z</time></trkpt><trkpt lat="45.039878852826874" lon="8.524354028353319"><ele>124.0</ele><time>2026-04-27T12:18:02Z</time></trkpt><trkpt lat="45.04014016120851" lon="8.524152358616329"><ele>123.0</ele><time>2026-04-27T12:18:03Z</time></trkpt><trkpt lat="45.040400935965756" lon="8.523948275072618"><ele>122.0</ele><time>2026-04-27T12:18:04Z</time></trkpt><trkpt lat="45.0406774471975" lon="8.523758278184982"><ele>120.0</ele><time>2026-04-27T12:18:05Z</time></trkpt><trkpt lat="45.04096053248678" lon="8.523543758614341"><ele>118.0</ele><time>2026-04-27T12:18:06Z</time></trkpt><trkpt lat="45.041235231654845" lon="8.523335739322965"><ele>118.0</ele><time>2026-04-27T12:18:07Z</time></trkpt><trkpt lat="45.04149863246544" lon="8.523112367866402"><ele>118.0</ele><time>2026-04-27T12:18:08Z</time></trkpt><trkpt lat="45.041751301405064" lon="8.522921655887158"><ele>117.0</ele><time>2026-04-27T12:18:09Z</time></trkpt><trkpt lat="45.042012115731566" lon="8.52273375588038"><ele>116.0</ele><time>2026-04-27T12:18:10Z</time></trkpt><trkpt lat="45.04227643190709" lon="8.52254393700281"><ele>113.5</ele><time>2026-04-27T12:18:11Z</time></trkpt><trkpt lat="45.04253104620968" lon="8.522347498730927"><ele>111.0</ele><time>2026-04-27T12:18:12Z</time></trkpt><trkpt lat="45.042784229618334" lon="8.522153103959532"><ele>112.0</ele><time>2026-04-27T12:18:13Z</time></trkpt><trkpt lat="45.04303573646064" lon="8.521963461777508"><ele>113.0</ele><time>2026-04-27T12:18:14Z</time></trkpt><trkpt lat="45.04328999437964" lon="8.521768713568047"><ele>111.5</ele><time>2026-04-27T12:18:14.999Z</time></trkpt><trkpt lat="45.04354491858864" lon="8.521571784875544"><ele>110.0</ele><time>2026-04-27T12:18:15.999Z</time></trkpt><trkpt lat="45.04380468352798" lon="8.521373942438457"><ele>110.5</ele><time>2026-04-27T12:18:16.999Z</time></trkpt><trkpt lat="45.04406643232475" lon="8.521172820662702"><ele>111.0</ele><time>2026-04-27T12:18:17.999Z</time></trkpt><trkpt lat="45.044343391294845" lon="8.520989443593106"><ele>109.5</ele><time>2026-04-27T12:18:18.999Z</time></trkpt><trkpt lat="45.04462145222963" lon="8.520779195822456"><ele>108.0</ele><time>2026-04-27T12:18:19.999Z</time></trkpt><trkpt lat="45.044897819370654" lon="8.520548789583103"><ele>108.5</ele><time>2026-04-27T12:18:20.999Z</time></trkpt><trkpt lat="45.04518444080006" lon="8.520334559308495"><ele>109.0</ele><time>2026-04-27T12:18:21.999Z</time></trkpt><trkpt lat="45.045471943387135" lon="8.520110985696602"><ele>109.0</ele><time>2026-04-27T12:18:22.999Z</time></trkpt><trkpt lat="45.045774959490466" lon="8.519906408339743"><ele>109.0</ele><time>2026-04-27T12:18:23.999Z</time></trkpt><trkpt lat="45.046074244262314" lon="8.519678640517471"><ele>108.5</ele><time>2026-04-27T12:18:24.999Z</time></trkpt><trkpt lat="45.046370090513655" lon="8.519432371596771"><ele>108.0</ele><time>2026-04-27T12:18:25.999Z</time></trkpt><trkpt lat="45.0466752768714" lon="8.519203261109265"><ele>108.0</ele><time>2026-04-27T12:18:26.999Z</time></trkpt><trkpt lat="45.046985745824145" lon="8.518972963730683"><ele>108.0</ele><time>2026-04-27T12:18:27.999Z</time></trkpt><trkpt lat="45.04729313558429" lon="8.518731920971419"><ele>107.5</ele><time>2026-04-27T12:18:28.999Z</time></trkpt><trkpt lat="45.047607071419684" lon="8.518497229821884"><ele>107.0</ele><time>2026-04-27T12:18:29.999Z</time></trkpt><trkpt lat="45.047913914522475" lon="8.518263172011501"><ele>107.0</ele><time>2026-04-27T12:18:30.999Z</time></trkpt><trkpt lat="45.0482206764423" lon="8.51803193911458"><ele>107.0</ele><time>2026-04-27T12:18:31.999Z</time></trkpt><trkpt lat="45.04852120441825" lon="8.517805753797774"><ele>107.0</ele><time>2026-04-27T12:18:32.999Z</time></trkpt><trkpt lat="45.04880917497517" lon="8.51758380229152"><ele>107.0</ele><time>2026-04-27T12:18:33.999Z</time></trkpt><trkpt lat="45.049090719267525" lon="8.517370391479764"><ele>107.0</ele><time>2026-04-27T12:18:34.999Z</time></trkpt><trkpt lat="45.04937420169788" lon="8.517179359577396"><ele>107.0</ele><time>2026-04-27T12:18:35.999Z</time></trkpt><trkpt lat="45.04964150599548" lon="8.516977721883995"><ele>107.0</ele><time>2026-04-27T12:18:36.999Z</time></trkpt><trkpt lat="45.04991216235812" lon="8.51677355536504"><ele>107.0</ele><time>2026-04-27T12:18:37.999Z</time></trkpt><trkpt lat="45.050186570466934" lon="8.516566558784223"><ele>107.5</ele><time>2026-04-27T12:18:38.999Z</time></trkpt><trkpt lat="45.05046614255257" lon="8.51635567383321"><ele>108.0</ele><time>2026-04-27T12:18:39.999Z</time></trkpt><trkpt lat="45.05074994887461" lon="8.516141596868614"><ele>108.5</ele><time>2026-04-27T12:18:40.999Z</time></trkpt><trkpt lat="45.05103961306403" lon="8.515920184460937"><ele>109.0</ele><time>2026-04-27T12:18:41.999Z</time></trkpt><trkpt lat="45.051325780068936" lon="8.515676840142355"><ele>109.0</ele><time>2026-04-27T12:18:42.999Z</time></trkpt><trkpt lat="45.05162970985706" lon="8.515466948508283"><ele>109.0</ele><time>2026-04-27T12:18:43.999Z</time></trkpt><trkpt lat="45.05193794466649" lon="8.515233756534133"><ele>109.0</ele><time>2026-04-27T12:18:44.999Z</time></trkpt><trkpt lat="45.0522458170532" lon="8.514996757906667"><ele>109.0</ele><time>2026-04-27T12:18:45.999Z</time></trkpt><trkpt lat="45.05255246642646" lon="8.514766469919564"><ele>108.0</ele><time>2026-04-27T12:18:46.999Z</time></trkpt><trkpt lat="45.05284987460736" lon="8.514539671266375"><ele>107.0</ele><time>2026-04-27T12:18:47.999Z</time></trkpt><trkpt lat="45.0531373765066" lon="8.51432017207098"><ele>107.5</ele><time>2026-04-27T12:18:48.999Z</time></trkpt><trkpt lat="45.05340346018148" lon="8.514116835122309"><ele>108.0</ele><time>2026-04-27T12:18:49.999Z</time></trkpt><trkpt lat="45.053656093399965" lon="8.513917371827072"><ele>108.0</ele><time>2026-04-27T12:18:50.999Z</time></trkpt><trkpt lat="45.053910226862556" lon="8.513728396530494"><ele>108.0</ele><time>2026-04-27T12:18:51.999Z</time></trkpt><trkpt lat="45.054163390196706" lon="8.513538580894332"><ele>108.0</ele><time>2026-04-27T12:18:52.999Z</time></trkpt><trkpt lat="45.054417113409826" lon="8.513344614425352"><ele>108.0</ele><time>2026-04-27T12:18:53.999Z</time></trkpt><trkpt lat="45.05466280723648" lon="8.51315356191303"><ele>108.0</ele><time>2026-04-27T12:18:54.999Z</time></trkpt><trkpt lat="45.05489993070772" lon="8.512969171270612"><ele>108.0</ele><time>2026-04-27T12:18:55.999Z</time></trkpt><trkpt lat="45.055125341509545" lon="8.512798231722611"><ele>108.0</ele><time>2026-04-27T12:18:56.999Z</time></trkpt><trkpt lat="45.055345644145234" lon="8.51263187250094"><ele>108.0</ele><time>2026-04-27T12:18:57.999Z</time></trkpt><trkpt lat="45.055559623011284" lon="8.51246725627694"><ele>108.0</ele><time>2026-04-27T12:18:58.999Z</time></trkpt><trkpt lat="45.05577390980756" lon="8.512303154631294"><ele>108.0</ele><time>2026-04-27T12:18:59.999Z</time></trkpt><trkpt lat="45.05598911674165" lon="8.512140355817897"><ele>107.5</ele><time>2026-04-27T12:19:00.999Z</time></trkpt><trkpt lat="45.05620630809778" lon="8.511980243303647"><ele>107.0</ele><time>2026-04-27T12:19:01.999Z</time></trkpt><trkpt lat="45.05642895117723" lon="8.51181420908923"><ele>107.0</ele><time>2026-04-27T12:19:02.999Z</time></trkpt><trkpt lat="45.05665369662282" lon="8.511644655928038"><ele>107.0</ele><time>2026-04-27T12:19:03.999Z</time></trkpt><trkpt lat="45.056876218764266" lon="8.51147447334789"><ele>107.0</ele><time>2026-04-27T12:19:04.999Z</time></trkpt><trkpt lat="45.05711467198085" lon="8.511318892877874"><ele>107.0</ele><time>2026-04-27T12:19:05.999Z</time></trkpt><trkpt lat="45.05734451929302" lon="8.51114406044258"><ele>108.5</ele><time>2026-04-27T12:19:06.999Z</time></trkpt><trkpt lat="45.05756432479042" lon="8.510976866269488"><ele>110.0</ele><time>2026-04-27T12:19:07.999Z</time></trkpt><trkpt lat="45.057771510950246" lon="8.510819270959004"><ele>110.0</ele><time>2026-04-27T12:19:08.999Z</time></trkpt><trkpt lat="45.057957842275954" lon="8.510652125210143"><ele>110.0</ele><time>2026-04-27T12:19:09.999Z</time></trkpt><trkpt lat="45.05815232225047" lon="8.510533523429535"><ele>110.0</ele><time>2026-04-27T12:19:11Z</time></trkpt><trkpt lat="45.058324246715884" lon="8.5103809273309"><ele>110.0</ele><time>2026-04-27T12:19:12Z</time></trkpt><trkpt lat="45.058474339675875" lon="8.5102688082176"><ele>110.0</ele><time>2026-04-27T12:19:13Z</time></trkpt><trkpt lat="45.05858477644271" lon="8.510186113005519"><ele>110.0</ele><time>2026-04-27T12:19:14Z</time></trkpt><trkpt lat="45.05868853969271" lon="8.510104833287173"><ele>110.0</ele><time>2026-04-27T12:19:15Z</time></trkpt><trkpt lat="45.058796100998514" lon="8.510009722738909"><ele>110.0</ele><time>2026-04-27T12:19:16Z</time></trkpt><trkpt lat="45.058905637752495" lon="8.509921945732165"><ele>110.0</ele><time>2026-04-27T12:19:17Z</time></trkpt><trkpt lat="45.058985481540404" lon="8.509775443388085"><ele>110.0</ele><time>2026-04-27T12:19:18Z</time></trkpt><trkpt lat="45.059059635867385" lon="8.509624689773142"><ele>110.0</ele><time>2026-04-27T12:19:19Z</time></trkpt><trkpt lat="45.05911540171947" lon="8.509460779955582"><ele>110.25</ele><time>2026-04-27T12:19:20Z</time></trkpt><trkpt lat="45.05916840959375" lon="8.509292679812042"><ele>110.5</ele><time>2026-04-27T12:19:21Z</time></trkpt><trkpt lat="45.059238540732316" lon="8.509136915804886"><ele>110.75</ele><time>2026-04-27T12:19:22Z</time></trkpt><trkpt lat="45.059291048641796" lon="8.50897561124375"><ele>111.0</ele><time>2026-04-27T12:19:23Z</time></trkpt><trkpt lat="45.05934447856835" lon="8.508811474247107"><ele>111.0</ele><time>2026-04-27T12:19:24Z</time></trkpt><trkpt lat="45.05939122056355" lon="8.508641064983403"><ele>111.0</ele><time>2026-04-27T12:19:25Z</time></trkpt><trkpt lat="45.059437525607834" lon="8.508485487340296"><ele>111.0</ele><time>2026-04-27T12:19:26Z</time></trkpt><trkpt lat="45.0594824114028" lon="8.508348223356622"><ele>111.0</ele><time>2026-04-27T12:19:27Z</time></trkpt><trkpt lat="45.05952182974762" lon="8.508217207616093"><ele>111.0</ele><time>2026-04-27T12:19:28Z</time></trkpt><trkpt lat="45.059560762064976" lon="8.508086825934113"><ele>111.0</ele><time>2026-04-27T12:19:29Z</time></trkpt><trkpt lat="45.059605114565514" lon="8.507946212572454"><ele>111.0</ele><time>2026-04-27T12:19:30Z</time></trkpt><trkpt lat="45.05965006577618" lon="8.507808596136917"><ele>111.0</ele><time>2026-04-27T12:19:31Z</time></trkpt><trkpt lat="45.05969438173347" lon="8.507663842229107"><ele>111.0</ele><time>2026-04-27T12:19:32Z</time></trkpt><trkpt lat="45.05973472678423" lon="8.507520817385144"><ele>111.19999999999999</ele><time>2026-04-27T12:19:33Z</time></trkpt><trkpt lat="45.05977661650191" lon="8.507379907480972"><ele>111.39999999999999</ele><time>2026-04-27T12:19:34Z</time></trkpt><trkpt lat="45.05982070710623" lon="8.50723772462404"><ele>111.6</ele><time>2026-04-27T12:19:35Z</time></trkpt><trkpt lat="45.05985844902594" lon="8.50709378535457"><ele>111.8</ele><time>2026-04-27T12:19:36Z</time></trkpt><trkpt lat="45.05990014169824" lon="8.506950159231682"><ele>112.0</ele><time>2026-04-27T12:19:37Z</time></trkpt><trkpt lat="45.05993945212069" lon="8.506805448473651"><ele>112.6</ele><time>2026-04-27T12:19:38Z</time></trkpt><trkpt lat="45.05997850449353" lon="8.506662101999458"><ele>113.19999999999999</ele><time>2026-04-27T12:19:39Z</time></trkpt><trkpt lat="45.060035216973674" lon="8.506528560222298"><ele>113.8</ele><time>2026-04-27T12:19:40Z</time></trkpt><trkpt lat="45.06007724234994" lon="8.506388125042845"><ele>114.4</ele><time>2026-04-27T12:19:41Z</time></trkpt><trkpt lat="45.06012089396553" lon="8.50624696146094"><ele>115.0</ele><time>2026-04-27T12:19:42Z</time></trkpt><trkpt lat="45.060165301921636" lon="8.506105481636741"><ele>115.0</ele><time>2026-04-27T12:19:43Z</time></trkpt><trkpt lat="45.06021245156374" lon="8.505955266684166"><ele>115.0</ele><time>2026-04-27T12:19:44Z</time></trkpt><trkpt lat="45.060267123023344" lon="8.505780445287092"><ele>115.0</ele><time>2026-04-27T12:19:45Z</time></trkpt><trkpt lat="45.06032287121898" lon="8.505596829062089"><ele>115.0</ele><time>2026-04-27T12:19:46Z</time></trkpt><trkpt lat="45.060381494512484" lon="8.505403743275417"><ele>115.0</ele><time>2026-04-27T12:19:47Z</time></trkpt><trkpt lat="45.06043986874378" lon="8.505209010478085"><ele>115.0</ele><time>2026-04-27T12:19:48Z</time></trkpt><trkpt lat="45.060501122451825" lon="8.50500474854893"><ele>115.0</ele><time>2026-04-27T12:19:49Z</time></trkpt><trkpt lat="45.060563182473494" lon="8.504814747646272"><ele>115.0</ele><time>2026-04-27T12:19:50Z</time></trkpt><trkpt lat="45.06062938960927" lon="8.50465247185212"><ele>115.0</ele><time>2026-04-27T12:19:51Z</time></trkpt><trkpt lat="45.06068948925278" lon="8.504515490703863"><ele>115.0</ele><time>2026-04-27T12:19:52Z</time></trkpt><trkpt lat="45.0607650354167" lon="8.504417870367062"><ele>115.0</ele><time>2026-04-27T12:19:53Z</time></trkpt><trkpt lat="45.06088023099457" lon="8.504377524379175"><ele>114.66666666666667</ele><time>2026-04-27T12:19:54Z</time></trkpt><trkpt lat="45.06102942570679" lon="8.504456307402918"><ele>114.33333333333334</ele><time>2026-04-27T12:19:55Z</time></trkpt><trkpt lat="45.06119031829503" lon="8.504573827928647"><ele>114.0</ele><time>2026-04-27T12:19:56Z</time></trkpt><trkpt lat="45.06136004178995" lon="8.50468408729254"><ele>114.0</ele><time>2026-04-27T12:19:57Z</time></trkpt><trkpt lat="45.061526684259874" lon="8.504790701282667"><ele>114.0</ele><time>2026-04-27T12:19:58Z</time></trkpt><trkpt lat="45.06167578440958" lon="8.504888349682613"><ele>114.0</ele><time>2026-04-27T12:19:59Z</time></trkpt><trkpt lat="45.061812019237045" lon="8.504978255438806"><ele>114.0</ele><time>2026-04-27T12:20:00Z</time></trkpt><trkpt lat="45.06193253383316" lon="8.505049666801812"><ele>114.0</ele><time>2026-04-27T12:20:01Z</time></trkpt><trkpt lat="45.06205229991305" lon="8.505100604219276"><ele>114.0</ele><time>2026-04-27T12:20:02Z</time></trkpt><trkpt lat="45.06217395429846" lon="8.505147716153807"><ele>114.0</ele><time>2026-04-27T12:20:03Z</time></trkpt><trkpt lat="45.06227828840826" lon="8.5052137368892"><ele>114.0</ele><time>2026-04-27T12:20:04Z</time></trkpt><trkpt lat="45.06236651764222" lon="8.505250869413006"><ele>114.0</ele><time>2026-04-27T12:20:05Z</time></trkpt><trkpt lat="45.06244592497831" lon="8.505205680547432"><ele>114.0</ele><time>2026-04-27T12:20:06Z</time></trkpt><trkpt lat="45.0625248256159" lon="8.505078316794974"><ele>114.0</ele><time>2026-04-27T12:20:07Z</time></trkpt><trkpt lat="45.06261293174071" lon="8.50489964461364"><ele>113.0</ele><time>2026-04-27T12:20:08Z</time></trkpt><trkpt lat="45.06274206846837" lon="8.50472463355994"><ele>112.0</ele><time>2026-04-27T12:20:09Z</time></trkpt><trkpt lat="45.06288578207567" lon="8.50454164564836"><ele>111.0</ele><time>2026-04-27T12:20:10Z</time></trkpt><trkpt lat="45.063013837514646" lon="8.50431678667033"><ele>110.5</ele><time>2026-04-27T12:20:11Z</time></trkpt><trkpt lat="45.06314710305075" lon="8.504073247035908"><ele>110.0</ele><time>2026-04-27T12:20:12Z</time></trkpt><trkpt lat="45.0632970624642" lon="8.503821189091893"><ele>110.0</ele><time>2026-04-27T12:20:13Z</time></trkpt><trkpt lat="45.06344524123786" lon="8.50356615767152"><ele>110.0</ele><time>2026-04-27T12:20:14Z</time></trkpt><trkpt lat="45.0635896021806" lon="8.503308740004018"><ele>110.0</ele><time>2026-04-27T12:20:15Z</time></trkpt><trkpt lat="45.063732845779846" lon="8.503057561348427"><ele>110.0</ele><time>2026-04-27T12:20:16Z</time></trkpt><trkpt lat="45.063870939887735" lon="8.502817067519322"><ele>110.0</ele><time>2026-04-27T12:20:17Z</time></trkpt><trkpt lat="45.0640062118494" lon="8.502581569484306"><ele>110.33333333333333</ele><time>2026-04-27T12:20:17.999Z</time></trkpt><trkpt lat="45.06413941197304" lon="8.502353173060829"><ele>110.66666666666666</ele><time>2026-04-27T12:20:18.999Z</time></trkpt><trkpt lat="45.06427453558621" lon="8.502122557198065"><ele>111.0</ele><time>2026-04-27T12:20:19.999Z</time></trkpt><trkpt lat="45.06441213308975" lon="8.501883817656513"><ele>111.33333333333334</ele><time>2026-04-27T12:20:20.999Z</time></trkpt><trkpt lat="45.06454838559407" lon="8.501649668270323"><ele>111.66666666666667</ele><time>2026-04-27T12:20:21.999Z</time></trkpt><trkpt lat="45.06469124681323" lon="8.501408856240989"><ele>112.0</ele><time>2026-04-27T12:20:22.999Z</time></trkpt><trkpt lat="45.06482423026863" lon="8.501177928883486"><ele>112.0</ele><time>2026-04-27T12:20:23.999Z</time></trkpt><trkpt lat="45.064955887367475" lon="8.500948006717149"><ele>112.0</ele><time>2026-04-27T12:20:24.999Z</time></trkpt><trkpt lat="45.06508977091868" lon="8.500719230624288"><ele>112.0</ele><time>2026-04-27T12:20:25.999Z</time></trkpt><trkpt lat="45.065218655716365" lon="8.500492081899223"><ele>113.33333333333334</ele><time>2026-04-27T12:20:26.999Z</time></trkpt><trkpt lat="45.065345864415534" lon="8.500271122230906"><ele>114.66666666666666</ele><time>2026-04-27T12:20:27.999Z</time></trkpt><trkpt lat="45.06546860604638" lon="8.500057329043697"><ele>116.0</ele><time>2026-04-27T12:20:28.999Z</time></trkpt><trkpt lat="45.065592930630885" lon="8.499846703847973"><ele>116.0</ele><time>2026-04-27T12:20:29.999Z</time></trkpt><trkpt lat="45.06571358982807" lon="8.499636062019833"><ele>116.0</ele><time>2026-04-27T12:20:30.999Z</time></trkpt><trkpt lat="45.06584772982316" lon="8.49943877355913"><ele>116.0</ele><time>2026-04-27T12:20:31.999Z</time></trkpt><trkpt lat="45.065969768653915" lon="8.499227138937908"><ele>114.33333333333333</ele><time>2026-04-27T12:20:32.999Z</time></trkpt><trkpt lat="45.06609167551612" lon="8.499015821010222"><ele>112.66666666666666</ele><time>2026-04-27T12:20:33.999Z</time></trkpt><trkpt lat="45.06621604473224" lon="8.498800234767794"><ele>111.0</ele><time>2026-04-27T12:20:34.999Z</time></trkpt><trkpt lat="45.066340988025026" lon="8.49858365338786"><ele>111.0</ele><time>2026-04-27T12:20:35.999Z</time></trkpt><trkpt lat="45.06646699008462" lon="8.498365236704108"><ele>111.0</ele><time>2026-04-27T12:20:36.999Z</time></trkpt><trkpt lat="45.06659094708521" lon="8.498150364973426"><ele>111.0</ele><time>2026-04-27T12:20:37.999Z</time></trkpt><trkpt lat="45.06671589870358" lon="8.497933769165714"><ele>111.66666666666666</ele><time>2026-04-27T12:20:38.999Z</time></trkpt><trkpt lat="45.066839167174635" lon="8.497719277514637"><ele>112.33333333333333</ele><time>2026-04-27T12:20:39.999Z</time></trkpt><trkpt lat="45.066961741563475" lon="8.497505938801691"><ele>113.0</ele><time>2026-04-27T12:20:40.999Z</time></trkpt><trkpt lat="45.06708532685748" lon="8.497290840632257"><ele>113.33333333333333</ele><time>2026-04-27T12:20:41.999Z</time></trkpt><trkpt lat="45.0672084917835" lon="8.497080229633086"><ele>113.66666666666666</ele><time>2026-04-27T12:20:42.999Z</time></trkpt><trkpt lat="45.06733269388177" lon="8.496871005289652"><ele>114.0</ele><time>2026-04-27T12:20:43.999Z</time></trkpt><trkpt lat="45.067448714260486" lon="8.496645934009086"><ele>113.33333333333334</ele><time>2026-04-27T12:20:44.999Z</time></trkpt><trkpt lat="45.06758101817456" lon="8.496431721998457"><ele>112.66666666666667</ele><time>2026-04-27T12:20:45.999Z</time></trkpt><trkpt lat="45.06771029307968" lon="8.496228488382272"><ele>112.0</ele><time>2026-04-27T12:20:46.999Z</time></trkpt><trkpt lat="45.06783780355392" lon="8.496028033481318"><ele>111.66666666666667</ele><time>2026-04-27T12:20:47.999Z</time></trkpt><trkpt lat="45.067962092924326" lon="8.49582849286154"><ele>111.33333333333334</ele><time>2026-04-27T12:20:48.999Z</time></trkpt><trkpt lat="45.0680840206701" lon="8.495634494196683"><ele>111.0</ele><time>2026-04-27T12:20:49.999Z</time></trkpt><trkpt lat="45.06821238721029" lon="8.49546825641959"><ele>111.33333333333334</ele><time>2026-04-27T12:20:50.999Z</time></trkpt><trkpt lat="45.06833734835441" lon="8.49528160925054"><ele>111.66666666666667</ele><time>2026-04-27T12:20:51.999Z</time></trkpt><trkpt lat="45.06844957653821" lon="8.495080985849176"><ele>112.0</ele><time>2026-04-27T12:20:52.999Z</time></trkpt><trkpt lat="45.068570435993976" lon="8.494907497429923"><ele>112.0</ele><time>2026-04-27T12:20:53.999Z</time></trkpt><trkpt lat="45.06868689868717" lon="8.494740177718779"><ele>112.0</ele><time>2026-04-27T12:20:54.999Z</time></trkpt><trkpt lat="45.06880085010445" lon="8.4945798648319"><ele>112.0</ele><time>2026-04-27T12:20:55.999Z</time></trkpt><trkpt lat="45.068919414317534" lon="8.494413714865743"><ele>112.0</ele><time>2026-04-27T12:20:56.999Z</time></trkpt><trkpt lat="45.069031791979214" lon="8.494251336102133"><ele>112.0</ele><time>2026-04-27T12:20:57.999Z</time></trkpt><trkpt lat="45.06914616679646" lon="8.494086812817368"><ele>112.0</ele><time>2026-04-27T12:20:58.999Z</time></trkpt><trkpt lat="45.06926136150291" lon="8.493921618627212"><ele>112.0</ele><time>2026-04-27T12:20:59.999Z</time></trkpt><trkpt lat="45.06937377170576" lon="8.493762429759721"><ele>112.0</ele><time>2026-04-27T12:21:00.999Z</time></trkpt><trkpt lat="45.06948502481022" lon="8.493603456825703"><ele>112.0</ele><time>2026-04-27T12:21:01.999Z</time></trkpt><trkpt lat="45.069592016991564" lon="8.493447236186988"><ele>112.0</ele><time>2026-04-27T12:21:02.999Z</time></trkpt><trkpt lat="45.06969873618166" lon="8.49328967814081"><ele>112.0</ele><time>2026-04-27T12:21:03.999Z</time></trkpt><trkpt lat="45.06980815275553" lon="8.493132483204908"><ele>112.0</ele><time>2026-04-27T12:21:04.999Z</time></trkpt><trkpt lat="45.06991832582224" lon="8.492975750579937"><ele>112.0</ele><time>2026-04-27T12:21:05.999Z</time></trkpt><trkpt lat="45.07003005925947" lon="8.49281724284217"><ele>112.0</ele><time>2026-04-27T12:21:06.999Z</time></trkpt><trkpt lat="45.07013995584636" lon="8.49266334677125"><ele>112.0</ele><time>2026-04-27T12:21:07.999Z</time></trkpt><trkpt lat="45.07025183020183" lon="8.492507933125227"><ele>112.0</ele><time>2026-04-27T12:21:08.999Z</time></trkpt><trkpt lat="45.07035859409282" lon="8.492354353854033"><ele>112.0</ele><time>2026-04-27T12:21:09.999Z</time></trkpt><trkpt lat="45.070463940122224" lon="8.492198408089628"><ele>112.0</ele><time>2026-04-27T12:21:10.999Z</time></trkpt><trkpt lat="45.07057304911151" lon="8.492040556287067"><ele>112.0</ele><time>2026-04-27T12:21:11.999Z</time></trkpt><trkpt lat="45.07068253563526" lon="8.491879149484662"><ele>112.0</ele><time>2026-04-27T12:21:12.999Z</time></trkpt><trkpt lat="45.07079681896184" lon="8.491711278406475"><ele>112.0</ele><time>2026-04-27T12:21:13.999Z</time></trkpt><trkpt lat="45.07091393138569" lon="8.491534585567283"><ele>112.0</ele><time>2026-04-27T12:21:14.999Z</time></trkpt><trkpt lat="45.071032233985036" lon="8.491360433866333"><ele>112.0</ele><time>2026-04-27T12:21:15.999Z</time></trkpt><trkpt lat="45.071146353442536" lon="8.49119750862231"><ele>112.0</ele><time>2026-04-27T12:21:17Z</time></trkpt><trkpt lat="45.0712577432576" lon="8.491040146427771"><ele>112.66666666666667</ele><time>2026-04-27T12:21:18Z</time></trkpt><trkpt lat="45.07136788702436" lon="8.490884937255666"><ele>113.33333333333334</ele><time>2026-04-27T12:21:19Z</time></trkpt><trkpt lat="45.07147632345131" lon="8.490731095804056"><ele>114.0</ele><time>2026-04-27T12:21:20Z</time></trkpt><trkpt lat="45.07158591386353" lon="8.49057428942024"><ele>113.66666666666666</ele><time>2026-04-27T12:21:21Z</time></trkpt><trkpt lat="45.07169638025411" lon="8.490417850982988"><ele>113.33333333333333</ele><time>2026-04-27T12:21:22Z</time></trkpt><trkpt lat="45.071806897614586" lon="8.490257301043275"><ele>113.0</ele><time>2026-04-27T12:21:23Z</time></trkpt><trkpt lat="45.07192056715444" lon="8.490092053457666"><ele>113.0</ele><time>2026-04-27T12:21:24Z</time></trkpt><trkpt lat="45.07203764622572" lon="8.489923298276121"><ele>113.0</ele><time>2026-04-27T12:21:25Z</time></trkpt><trkpt lat="45.0721486219327" lon="8.4897637539689"><ele>113.0</ele><time>2026-04-27T12:21:26Z</time></trkpt><trkpt lat="45.07225577311739" lon="8.489605198162044"><ele>113.33333333333333</ele><time>2026-04-27T12:21:27Z</time></trkpt><trkpt lat="45.072365481352854" lon="8.489443963655477"><ele>113.66666666666666</ele><time>2026-04-27T12:21:28Z</time></trkpt><trkpt lat="45.072473646656185" lon="8.489287027357197"><ele>114.0</ele><time>2026-04-27T12:21:29Z</time></trkpt><trkpt lat="45.07258504418056" lon="8.489124814887266"><ele>114.0</ele><time>2026-04-27T12:21:30Z</time></trkpt><trkpt lat="45.07269562678925" lon="8.488965293563545"><ele>114.0</ele><time>2026-04-27T12:21:31Z</time></trkpt><trkpt lat="45.072812716938316" lon="8.48879794829712"><ele>114.0</ele><time>2026-04-27T12:21:32Z</time></trkpt><trkpt lat="45.0729197493592" lon="8.488642001215624"><ele>114.33333333333334</ele><time>2026-04-27T12:21:33Z</time></trkpt><trkpt lat="45.073025868462906" lon="8.488492668950455"><ele>114.66666666666667</ele><time>2026-04-27T12:21:34Z</time></trkpt><trkpt lat="45.07313268103157" lon="8.48834328505184"><ele>115.0</ele><time>2026-04-27T12:21:35Z</time></trkpt><trkpt lat="45.07323880340043" lon="8.488191538470424"><ele>114.66666666666667</ele><time>2026-04-27T12:21:36Z</time></trkpt><trkpt lat="45.073345643030066" lon="8.488037004707802"><ele>114.33333333333334</ele><time>2026-04-27T12:21:37Z</time></trkpt><trkpt lat="45.07345401666052" lon="8.487884496295761"><ele>114.0</ele><time>2026-04-27T12:21:38Z</time></trkpt><trkpt lat="45.0735624120122" lon="8.487728042137446"><ele>113.66666666666666</ele><time>2026-04-27T12:21:39Z</time></trkpt><trkpt lat="45.07367326571121" lon="8.487568113928408"><ele>113.33333333333333</ele><time>2026-04-27T12:21:40Z</time></trkpt><trkpt lat="45.07378244264892" lon="8.48740662399249"><ele>113.0</ele><time>2026-04-27T12:21:41Z</time></trkpt><trkpt lat="45.073887185844335" lon="8.487258986478178"><ele>113.0</ele><time>2026-04-27T12:21:42Z</time></trkpt><trkpt lat="45.073988168379124" lon="8.487114114545784"><ele>113.0</ele><time>2026-04-27T12:21:43Z</time></trkpt><trkpt lat="45.07408979156206" lon="8.486966481608196"><ele>113.0</ele><time>2026-04-27T12:21:44Z</time></trkpt><trkpt lat="45.07419003695185" lon="8.48682214319095"><ele>113.0</ele><time>2026-04-27T12:21:45Z</time></trkpt><trkpt lat="45.07428768619363" lon="8.486677062960831"><ele>112.75</ele><time>2026-04-27T12:21:46Z</time></trkpt><trkpt lat="45.0743891328963" lon="8.486532781828705"><ele>112.5</ele><time>2026-04-27T12:21:47Z</time></trkpt><trkpt lat="45.0744899142212" lon="8.486386622204144"><ele>112.25</ele><time>2026-04-27T12:21:48Z</time></trkpt><trkpt lat="45.07459474419332" lon="8.486234086579973"><ele>112.0</ele><time>2026-04-27T12:21:49Z</time></trkpt><trkpt lat="45.074701248086676" lon="8.48608321925727"><ele>111.66666666666667</ele><time>2026-04-27T12:21:50Z</time></trkpt><trkpt lat="45.07480563988946" lon="8.48593176186914"><ele>111.33333333333334</ele><time>2026-04-27T12:21:51Z</time></trkpt><trkpt lat="45.07491256893076" lon="8.485776261168791"><ele>111.0</ele><time>2026-04-27T12:21:52Z</time></trkpt><trkpt lat="45.07501600853809" lon="8.485619416955293"><ele>111.0</ele><time>2026-04-27T12:21:53Z</time></trkpt><trkpt lat="45.075121952723514" lon="8.485464238270206"><ele>111.0</ele><time>2026-04-27T12:21:54Z</time></trkpt><trkpt lat="45.07522564677188" lon="8.485312547475322"><ele>111.0</ele><time>2026-04-27T12:21:55Z</time></trkpt><trkpt lat="45.07533317472865" lon="8.485160487061764"><ele>111.33333333333334</ele><time>2026-04-27T12:21:56Z</time></trkpt><trkpt lat="45.075440042133934" lon="8.485003969992063"><ele>111.66666666666667</ele><time>2026-04-27T12:21:57Z</time></trkpt><trkpt lat="45.07555138974661" lon="8.484845862751596"><ele>112.0</ele><time>2026-04-27T12:21:58Z</time></trkpt><trkpt lat="45.07566757972624" lon="8.484678813743413"><ele>111.66666666666667</ele><time>2026-04-27T12:21:59Z</time></trkpt><trkpt lat="45.07577653037711" lon="8.484518717404416"><ele>111.33333333333334</ele><time>2026-04-27T12:22:00Z</time></trkpt><trkpt lat="45.07588868574687" lon="8.484356589687842"><ele>111.0</ele><time>2026-04-27T12:22:01Z</time></trkpt><trkpt lat="45.07601325315442" lon="8.484183907369642"><ele>111.0</ele><time>2026-04-27T12:22:02Z</time></trkpt><trkpt lat="45.0761285118127" lon="8.484022533882769"><ele>111.0</ele><time>2026-04-27T12:22:03Z</time></trkpt><trkpt lat="45.076243175007896" lon="8.483855121094463"><ele>111.0</ele><time>2026-04-27T12:22:04Z</time></trkpt><trkpt lat="45.07636173043192" lon="8.483678084430393"><ele>109.66666666666666</ele><time>2026-04-27T12:22:05Z</time></trkpt><trkpt lat="45.07648019721803" lon="8.483504648257796"><ele>108.33333333333333</ele><time>2026-04-27T12:22:06Z</time></trkpt><trkpt lat="45.07659757731699" lon="8.483331711702284"><ele>107.0</ele><time>2026-04-27T12:22:07Z</time></trkpt><trkpt lat="45.07672215968755" lon="8.483153803269374"><ele>106.33333333333333</ele><time>2026-04-27T12:22:08Z</time></trkpt><trkpt lat="45.07684100429662" lon="8.48298179125369"><ele>105.66666666666666</ele><time>2026-04-27T12:22:09Z</time></trkpt><trkpt lat="45.0769560889388" lon="8.482819496330254"><ele>105.0</ele><time>2026-04-27T12:22:10Z</time></trkpt><trkpt lat="45.07706788873741" lon="8.482657971011387"><ele>105.0</ele><time>2026-04-27T12:22:11Z</time></trkpt><trkpt lat="45.07718377501812" lon="8.48249547550255"><ele>105.0</ele><time>2026-04-27T12:22:12Z</time></trkpt><trkpt lat="45.07730465756719" lon="8.482315406424854"><ele>105.0</ele><time>2026-04-27T12:22:13Z</time></trkpt><trkpt lat="45.07743033641011" lon="8.482119075637579"><ele>107.66666666666666</ele><time>2026-04-27T12:22:14Z</time></trkpt><trkpt lat="45.077574823227906" lon="8.481941078863375"><ele>110.33333333333333</ele><time>2026-04-27T12:22:15Z</time></trkpt><trkpt lat="45.077720012416684" lon="8.481731246325925"><ele>113.0</ele><time>2026-04-27T12:22:16Z</time></trkpt><trkpt lat="45.07787656547231" lon="8.481504990328922"><ele>113.0</ele><time>2026-04-27T12:22:17Z</time></trkpt><trkpt lat="45.07803630900077" lon="8.481273824532579"><ele>113.0</ele><time>2026-04-27T12:22:18Z</time></trkpt><trkpt lat="45.078184896653134" lon="8.4810447790085"><ele>113.0</ele><time>2026-04-27T12:22:18.999Z</time></trkpt><trkpt lat="45.078330603136436" lon="8.480843671202225"><ele>112.0</ele><time>2026-04-27T12:22:19.999Z</time></trkpt><trkpt lat="45.07846372151177" lon="8.480647741257584"><ele>111.0</ele><time>2026-04-27T12:22:20.999Z</time></trkpt><trkpt lat="45.07859350701257" lon="8.48046186873846"><ele>110.0</ele><time>2026-04-27T12:22:21.999Z</time></trkpt><trkpt lat="45.07871475319141" lon="8.480289215490153"><ele>110.0</ele><time>2026-04-27T12:22:22.999Z</time></trkpt><trkpt lat="45.07883080087995" lon="8.480119800023484"><ele>110.0</ele><time>2026-04-27T12:22:23.999Z</time></trkpt><trkpt lat="45.07894480556371" lon="8.479951973706847"><ele>110.0</ele><time>2026-04-27T12:22:24.999Z</time></trkpt><trkpt lat="45.07905978907721" lon="8.47978377994742"><ele>110.33333333333333</ele><time>2026-04-27T12:22:25.999Z</time></trkpt><trkpt lat="45.0791729909306" lon="8.479606878256666"><ele>110.66666666666666</ele><time>2026-04-27T12:22:26.999Z</time></trkpt><trkpt lat="45.07931066228847" lon="8.479434158186022"><ele>111.0</ele><time>2026-04-27T12:22:27.999Z</time></trkpt><trkpt lat="45.079449037489645" lon="8.479233868731518"><ele>111.0</ele><time>2026-04-27T12:22:28.999Z</time></trkpt><trkpt lat="45.079609727966385" lon="8.479001277702245"><ele>111.0</ele><time>2026-04-27T12:22:29.999Z</time></trkpt><trkpt lat="45.07979483693914" lon="8.478733342205173"><ele>111.0</ele><time>2026-04-27T12:22:30.999Z</time></trkpt><trkpt lat="45.07999692157229" lon="8.478440835328877"><ele>111.0</ele><time>2026-04-27T12:22:31.999Z</time></trkpt><trkpt lat="45.0801970817897" lon="8.47814568750769"><ele>110.5</ele><time>2026-04-27T12:22:32.999Z</time></trkpt><trkpt lat="45.08041292999364" lon="8.47784703488512"><ele>110.0</ele><time>2026-04-27T12:22:33.999Z</time></trkpt><trkpt lat="45.08063197633879" lon="8.477525908493979"><ele>110.5</ele><time>2026-04-27T12:22:34.999Z</time></trkpt><trkpt lat="45.08085691419684" lon="8.477193896658685"><ele>111.0</ele><time>2026-04-27T12:22:35.999Z</time></trkpt><trkpt lat="45.08108952463057" lon="8.476856060013793"><ele>111.5</ele><time>2026-04-27T12:22:36.999Z</time></trkpt><trkpt lat="45.08133023396719" lon="8.476504870233061"><ele>112.0</ele><time>2026-04-27T12:22:37.999Z</time></trkpt><trkpt lat="45.08159072480398" lon="8.476124582995054"><ele>112.5</ele><time>2026-04-27T12:22:38.999Z</time></trkpt><trkpt lat="45.08185306849816" lon="8.47574780698514"><ele>113.0</ele><time>2026-04-27T12:22:39.999Z</time></trkpt><trkpt lat="45.08210504064314" lon="8.475381627125195"><ele>113.0</ele><time>2026-04-27T12:22:40.999Z</time></trkpt><trkpt lat="45.08233650423652" lon="8.475043060593809"><ele>113.0</ele><time>2026-04-27T12:22:41.999Z</time></trkpt><trkpt lat="45.08255539364613" lon="8.474724326205934"><ele>113.0</ele><time>2026-04-27T12:22:42.999Z</time></trkpt><trkpt lat="45.08276375864966" lon="8.474422348331041"><ele>113.0</ele><time>2026-04-27T12:22:43.999Z</time></trkpt><trkpt lat="45.08297174664649" lon="8.474121487309407"><ele>113.0</ele><time>2026-04-27T12:22:44.999Z</time></trkpt><trkpt lat="45.08317684855753" lon="8.473821062883513"><ele>113.0</ele><time>2026-04-27T12:22:45.999Z</time></trkpt><trkpt lat="45.08337906544448" lon="8.473525338615364"><ele>112.5</ele><time>2026-04-27T12:22:46.999Z</time></trkpt><trkpt lat="45.083583911701375" lon="8.473229125444629"><ele>112.0</ele><time>2026-04-27T12:22:47.999Z</time></trkpt><trkpt lat="45.08378346568667" lon="8.472941186146425"><ele>112.0</ele><time>2026-04-27T12:22:48.999Z</time></trkpt><trkpt lat="45.08398048059425" lon="8.47265575363001"><ele>112.0</ele><time>2026-04-27T12:22:49.999Z</time></trkpt><trkpt lat="45.084181114371326" lon="8.472392999494664"><ele>112.0</ele><time>2026-04-27T12:22:50.999Z</time></trkpt><trkpt lat="45.08436699042958" lon="8.472124023973867"><ele>112.0</ele><time>2026-04-27T12:22:51.999Z</time></trkpt><trkpt lat="45.08453411022185" lon="8.471850806231283"><ele>113.0</ele><time>2026-04-27T12:22:52.999Z</time></trkpt><trkpt lat="45.08470748869883" lon="8.47160586654611"><ele>114.0</ele><time>2026-04-27T12:22:53.999Z</time></trkpt><trkpt lat="45.08487647591152" lon="8.47136261484663"><ele>114.0</ele><time>2026-04-27T12:22:54.999Z</time></trkpt><trkpt lat="45.085036775307984" lon="8.471130836340448"><ele>114.0</ele><time>2026-04-27T12:22:55.999Z</time></trkpt><trkpt lat="45.08519131388409" lon="8.470905163286554"><ele>114.0</ele><time>2026-04-27T12:22:56.999Z</time></trkpt><trkpt lat="45.08533934645921" lon="8.470686229703038"><ele>114.0</ele><time>2026-04-27T12:22:57.999Z</time></trkpt><trkpt lat="45.08547956229065" lon="8.470475866777969"><ele>114.0</ele><time>2026-04-27T12:22:58.999Z</time></trkpt><trkpt lat="45.085610557814526" lon="8.47028719909987"><ele>113.66666666666666</ele><time>2026-04-27T12:22:59.999Z</time></trkpt><trkpt lat="45.08573252433526" lon="8.470114253262814"><ele>113.33333333333333</ele><time>2026-04-27T12:23:00.999Z</time></trkpt><trkpt lat="45.085849136970424" lon="8.469950757968741"><ele>113.0</ele><time>2026-04-27T12:23:01.999Z</time></trkpt><trkpt lat="45.08596113679298" lon="8.469803175682102"><ele>113.0</ele><time>2026-04-27T12:23:02.999Z</time></trkpt><trkpt lat="45.086064540611964" lon="8.469665997622931"><ele>113.0</ele><time>2026-04-27T12:23:03.999Z</time></trkpt><trkpt lat="45.086172758756945" lon="8.469557878101964"><ele>113.0</ele><time>2026-04-27T12:23:04.999Z</time></trkpt><trkpt lat="45.0862476987891" lon="8.469436782722413"><ele>113.0</ele><time>2026-04-27T12:23:05.999Z</time></trkpt><trkpt lat="45.08632022201348" lon="8.469357258409431"><ele>112.99999999999999</ele><time>2026-04-27T12:23:06.999Z</time></trkpt><trkpt lat="45.08638893753696" lon="8.469296996811696"><ele>113.0</ele><time>2026-04-27T12:23:07.999Z</time></trkpt><trkpt lat="45.08645376997258" lon="8.469273784547878"><ele>113.0</ele><time>2026-04-27T12:23:08.999Z</time></trkpt><trkpt lat="45.08652639185468" lon="8.469275458448005"><ele>113.0</ele><time>2026-04-27T12:23:09.999Z</time></trkpt><trkpt lat="45.08659606786335" lon="8.469265374559399"><ele>112.99999999999999</ele><time>2026-04-27T12:23:10.999Z</time></trkpt><trkpt lat="45.08666116551766" lon="8.469207533241716"><ele>113.0</ele><time>2026-04-27T12:23:11.999Z</time></trkpt><trkpt lat="45.08670122399839" lon="8.469103586428501"><ele>113.0</ele><time>2026-04-27T12:23:12.999Z</time></trkpt><trkpt lat="45.086712525395164" lon="8.46898052428847"><ele>113.00000000000001</ele><time>2026-04-27T12:23:13.999Z</time></trkpt><trkpt lat="45.0867202549636" lon="8.468860116535643"><ele>113.00000000000001</ele><time>2026-04-27T12:23:14.999Z</time></trkpt><trkpt lat="45.0867723308313" lon="8.468715897800827"><ele>113.0</ele><time>2026-04-27T12:23:15.999Z</time></trkpt><trkpt lat="45.086857594130734" lon="8.468548825038512"><ele>113.0</ele><time>2026-04-27T12:23:16.999Z</time></trkpt><trkpt lat="45.08697582309293" lon="8.468355961266864"><ele>113.0</ele><time>2026-04-27T12:23:17.999Z</time></trkpt><trkpt lat="45.08712555330031" lon="8.468128390539015"><ele>113.0</ele><time>2026-04-27T12:23:18.999Z</time></trkpt><trkpt lat="45.08724591190265" lon="8.467952484753061"><ele>113.0</ele><time>2026-04-27T12:23:19.999Z</time></trkpt><trkpt lat="45.08742193479049" lon="8.467697262554081"><ele>112.5</ele><time>2026-04-27T12:23:20.999Z</time></trkpt><trkpt lat="45.087590781445336" lon="8.46743108228529"><ele>112.0</ele><time>2026-04-27T12:23:21.999Z</time></trkpt><trkpt lat="45.0877842729645" lon="8.467164396918024"><ele>113.0</ele><time>2026-04-27T12:23:23Z</time></trkpt><trkpt lat="45.08797956108418" lon="8.466884449968862"><ele>114.0</ele><time>2026-04-27T12:23:24Z</time></trkpt><trkpt lat="45.08817192763544" lon="8.46660816273488"><ele>112.5</ele><time>2026-04-27T12:23:25Z</time></trkpt><trkpt lat="45.08836260275253" lon="8.466332696635037"><ele>111.0</ele><time>2026-04-27T12:23:26Z</time></trkpt><trkpt lat="45.08854639189091" lon="8.466070708322317"><ele>111.0</ele><time>2026-04-27T12:23:27Z</time></trkpt><trkpt lat="45.08872774647317" lon="8.465808939731852"><ele>111.0</ele><time>2026-04-27T12:23:28Z</time></trkpt><trkpt lat="45.08890242822756" lon="8.465557773156913"><ele>111.5</ele><time>2026-04-27T12:23:29Z</time></trkpt><trkpt lat="45.08907623468509" lon="8.465304084353841"><ele>112.0</ele><time>2026-04-27T12:23:30Z</time></trkpt><trkpt lat="45.08924898879289" lon="8.46505291531629"><ele>111.5</ele><time>2026-04-27T12:23:31Z</time></trkpt><trkpt lat="45.08941859293126" lon="8.464803867337476"><ele>111.0</ele><time>2026-04-27T12:23:32Z</time></trkpt><trkpt lat="45.08957659168404" lon="8.464567558710291"><ele>111.0</ele><time>2026-04-27T12:23:33Z</time></trkpt><trkpt lat="45.089726155917326" lon="8.464349030593354"><ele>111.0</ele><time>2026-04-27T12:23:34Z</time></trkpt><trkpt lat="45.089884482447395" lon="8.464133716151327"><ele>111.0</ele><time>2026-04-27T12:23:35Z</time></trkpt><trkpt lat="45.09005319474456" lon="8.46392937099861"><ele>110.5</ele><time>2026-04-27T12:23:36Z</time></trkpt><trkpt lat="45.09024942215612" lon="8.463757894861514"><ele>110.0</ele><time>2026-04-27T12:23:37Z</time></trkpt><trkpt lat="45.090459498112764" lon="8.463571916022191"><ele>110.0</ele><time>2026-04-27T12:23:38Z</time></trkpt><trkpt lat="45.09068294805713" lon="8.463386380638532"><ele>110.0</ele><time>2026-04-27T12:23:39Z</time></trkpt><trkpt lat="45.09091042484655" lon="8.463197665802957"><ele>109.5</ele><time>2026-04-27T12:23:40Z</time></trkpt><trkpt lat="45.09113639288057" lon="8.46298500999385"><ele>109.0</ele><time>2026-04-27T12:23:41Z</time></trkpt><trkpt lat="45.091370639793226" lon="8.462790578508805"><ele>109.5</ele><time>2026-04-27T12:23:42Z</time></trkpt><trkpt lat="45.09161458942802" lon="8.462596547127442"><ele>110.0</ele><time>2026-04-27T12:23:43Z</time></trkpt><trkpt lat="45.09185163351578" lon="8.46239849311601"><ele>110.0</ele><time>2026-04-27T12:23:44Z</time></trkpt><trkpt lat="45.09209122348987" lon="8.462199851579882"><ele>110.0</ele><time>2026-04-27T12:23:45Z</time></trkpt><trkpt lat="45.09232137425103" lon="8.462006541602216"><ele>111.5</ele><time>2026-04-27T12:23:46Z</time></trkpt><trkpt lat="45.0925360900555" lon="8.461832642810451"><ele>113.0</ele><time>2026-04-27T12:23:47Z</time></trkpt><trkpt lat="45.09272886307763" lon="8.461674580796371"><ele>113.0</ele><time>2026-04-27T12:23:48Z</time></trkpt><trkpt lat="45.09291087505601" lon="8.46151741150533"><ele>113.0</ele><time>2026-04-27T12:23:49Z</time></trkpt><trkpt lat="45.093078031661896" lon="8.46137497690161"><ele>113.0</ele><time>2026-04-27T12:23:50Z</time></trkpt><trkpt lat="45.09324016481978" lon="8.461243901047078"><ele>113.66666666666666</ele><time>2026-04-27T12:23:51Z</time></trkpt><trkpt lat="45.09339395855011" lon="8.461121683249237"><ele>114.33333333333334</ele><time>2026-04-27T12:23:52Z</time></trkpt><trkpt lat="45.0935281211915" lon="8.461010042578224"><ele>115.0</ele><time>2026-04-27T12:23:53Z</time></trkpt><trkpt lat="45.093641873564735" lon="8.460905010147625"><ele>115.0</ele><time>2026-04-27T12:23:54Z</time></trkpt><trkpt lat="45.09376248651075" lon="8.460816050564707"><ele>115.0</ele><time>2026-04-27T12:23:55Z</time></trkpt><trkpt lat="45.093867133953886" lon="8.46072370177816"><ele>115.0</ele><time>2026-04-27T12:23:56Z</time></trkpt><trkpt lat="45.09396709506834" lon="8.460646054401016"><ele>115.0</ele><time>2026-04-27T12:23:57Z</time></trkpt><trkpt lat="45.09406360964979" lon="8.460566229351713"><ele>115.0</ele><time>2026-04-27T12:23:58Z</time></trkpt><trkpt lat="45.09416205177121" lon="8.460485416799907"><ele>115.0</ele><time>2026-04-27T12:23:59Z</time></trkpt><trkpt lat="45.094262319575996" lon="8.460397283714784"><ele>115.0</ele><time>2026-04-27T12:24:00Z</time></trkpt><trkpt lat="45.09438107205794" lon="8.460300716366229"><ele>115.0</ele><time>2026-04-27T12:24:01Z</time></trkpt><trkpt lat="45.09451263951403" lon="8.460189658958283"><ele>115.0</ele><time>2026-04-27T12:24:02Z</time></trkpt><trkpt lat="45.09466550138356" lon="8.460064260169618"><ele>115.0</ele><time>2026-04-27T12:24:03Z</time></trkpt><trkpt lat="45.0948245509763" lon="8.459936769031776"><ele>115.0</ele><time>2026-04-27T12:24:04Z</time></trkpt><trkpt lat="45.09496696863748" lon="8.459817081723605"><ele>115.0</ele><time>2026-04-27T12:24:05Z</time></trkpt><trkpt lat="45.095097683748435" lon="8.459708171103653"><ele>115.0</ele><time>2026-04-27T12:24:06Z</time></trkpt><trkpt lat="45.095207738044216" lon="8.45959463967618"><ele>115.0</ele><time>2026-04-27T12:24:07Z</time></trkpt><trkpt lat="45.095314362601066" lon="8.4594776768558"><ele>115.0</ele><time>2026-04-27T12:24:08Z</time></trkpt><trkpt lat="45.095427021825024" lon="8.45935210890776"><ele>115.5</ele><time>2026-04-27T12:24:09Z</time></trkpt><trkpt lat="45.09552242641912" lon="8.459231006914877"><ele>116.0</ele><time>2026-04-27T12:24:10Z</time></trkpt><trkpt lat="45.09561990271717" lon="8.459103993345494"><ele>116.5</ele><time>2026-04-27T12:24:11Z</time></trkpt><trkpt lat="45.09571536745719" lon="8.458973090808442"><ele>117.0</ele><time>2026-04-27T12:24:12Z</time></trkpt><trkpt lat="45.09581964983534" lon="8.458834197886322"><ele>119.33333333333334</ele><time>2026-04-27T12:24:13Z</time></trkpt><trkpt lat="45.095923899255006" lon="8.458694493988691"><ele>121.66666666666667</ele><time>2026-04-27T12:24:14Z</time></trkpt><trkpt lat="45.0960284601883" lon="8.458553331762843"><ele>124.0</ele><time>2026-04-27T12:24:14.999Z</time></trkpt><trkpt lat="45.096154466839586" lon="8.458386155637738"><ele>124.0</ele><time>2026-04-27T12:24:15.999Z</time></trkpt><trkpt lat="45.09629533770086" lon="8.458190867504506"><ele>124.0</ele><time>2026-04-27T12:24:16.999Z</time></trkpt><trkpt lat="45.0964455458112" lon="8.457996995313747"><ele>124.0</ele><time>2026-04-27T12:24:17.999Z</time></trkpt><trkpt lat="45.09659338498019" lon="8.457823887548448"><ele>122.33333333333334</ele><time>2026-04-27T12:24:18.999Z</time></trkpt><trkpt lat="45.09672919460898" lon="8.457661847596631"><ele>120.66666666666666</ele><time>2026-04-27T12:24:19.999Z</time></trkpt><trkpt lat="45.09685531999953" lon="8.457501368128774"><ele>119.0</ele><time>2026-04-27T12:24:20.999Z</time></trkpt><trkpt lat="45.09695970576035" lon="8.457354547696205"><ele>119.0</ele><time>2026-04-27T12:24:21.999Z</time></trkpt><trkpt lat="45.097039965911804" lon="8.457236973840557"><ele>119.0</ele><time>2026-04-27T12:24:22.999Z</time></trkpt><trkpt lat="45.09710850133093" lon="8.457141530398204"><ele>119.0</ele><time>2026-04-27T12:24:23.999Z</time></trkpt><trkpt lat="45.097170923622976" lon="8.457057020778672"><ele>119.0</ele><time>2026-04-27T12:24:24.999Z</time></trkpt><trkpt lat="45.09723254338734" lon="8.45698055489648"><ele>119.0</ele><time>2026-04-27T12:24:25.999Z</time></trkpt><trkpt lat="45.0972955321302" lon="8.45690058505275"><ele>119.0</ele><time>2026-04-27T12:24:26.999Z</time></trkpt><trkpt lat="45.097371951132736" lon="8.456806027782406"><ele>119.0</ele><time>2026-04-27T12:24:27.999Z</time></trkpt><trkpt lat="45.09745051533869" lon="8.456708161424785"><ele>119.0</ele><time>2026-04-27T12:24:28.999Z</time></trkpt><trkpt lat="45.09753125372188" lon="8.456603472626941"><ele>119.0</ele><time>2026-04-27T12:24:29.999Z</time></trkpt><trkpt lat="45.09761646296881" lon="8.456486474761974"><ele>119.0</ele><time>2026-04-27T12:24:30.999Z</time></trkpt><trkpt lat="45.0977194962508" lon="8.45634791877767"><ele>120.5</ele><time>2026-04-27T12:24:31.999Z</time></trkpt><trkpt lat="45.09781773080078" lon="8.456219962874938"><ele>122.0</ele><time>2026-04-27T12:24:32.999Z</time></trkpt><trkpt lat="45.097902033916526" lon="8.456106597933225"><ele>123.5</ele><time>2026-04-27T12:24:33.999Z</time></trkpt><trkpt lat="45.09797982990751" lon="8.456006876003478"><ele>125.0</ele><time>2026-04-27T12:24:34.999Z</time></trkpt><trkpt lat="45.09805761046647" lon="8.455907120937368"><ele>125.0</ele><time>2026-04-27T12:24:35.999Z</time></trkpt><trkpt lat="45.09813470528566" lon="8.455805553864169"><ele>125.0</ele><time>2026-04-27T12:24:36.999Z</time></trkpt><trkpt lat="45.09821373491589" lon="8.455703216074118"><ele>125.0</ele><time>2026-04-27T12:24:37.999Z</time></trkpt><trkpt lat="45.09829789912934" lon="8.45559272864766"><ele>125.0</ele><time>2026-04-27T12:24:38.999Z</time></trkpt><trkpt lat="45.0983753249096" lon="8.45549504601181"><ele>125.0</ele><time>2026-04-27T12:24:39.999Z</time></trkpt><trkpt lat="45.09845794973953" lon="8.45538886595672"><ele>124.0</ele><time>2026-04-27T12:24:40.999Z</time></trkpt><trkpt lat="45.098543004148155" lon="8.455276732214166"><ele>123.0</ele><time>2026-04-27T12:24:41.999Z</time></trkpt><trkpt lat="45.098640313288435" lon="8.455143204199386"><ele>122.0</ele><time>2026-04-27T12:24:42.999Z</time></trkpt><trkpt lat="45.098753048171325" lon="8.454992701614062"><ele>121.0</ele><time>2026-04-27T12:24:43.999Z</time></trkpt><trkpt lat="45.09887434077399" lon="8.454831475372465"><ele>121.0</ele><time>2026-04-27T12:24:44.999Z</time></trkpt><trkpt lat="45.09899349272792" lon="8.454682752518742"><ele>121.0</ele><time>2026-04-27T12:24:45.999Z</time></trkpt><trkpt lat="45.09910660832722" lon="8.454541535092389"><ele>121.0</ele><time>2026-04-27T12:24:46.999Z</time></trkpt><trkpt lat="45.09920506233714" lon="8.454410639053895"><ele>121.0</ele><time>2026-04-27T12:24:47.999Z</time></trkpt><trkpt lat="45.099296673683426" lon="8.454289546308795"><ele>120.6</ele><time>2026-04-27T12:24:48.999Z</time></trkpt><trkpt lat="45.0993908793512" lon="8.45417014967557"><ele>120.19999999999999</ele><time>2026-04-27T12:24:49.999Z</time></trkpt><trkpt lat="45.09947298876836" lon="8.454064426930218"><ele>119.80000000000001</ele><time>2026-04-27T12:24:50.999Z</time></trkpt><trkpt lat="45.09955148651949" lon="8.453960566479557"><ele>119.4</ele><time>2026-04-27T12:24:51.999Z</time></trkpt><trkpt lat="45.099626775124996" lon="8.453865212696748"><ele>119.0</ele><time>2026-04-27T12:24:52.999Z</time></trkpt><trkpt lat="45.099700809074854" lon="8.453767223547635"><ele>119.0</ele><time>2026-04-27T12:24:53.999Z</time></trkpt><trkpt lat="45.09977950917494" lon="8.453668218986707"><ele>119.0</ele><time>2026-04-27T12:24:54.999Z</time></trkpt><trkpt lat="45.099848327233495" lon="8.453580807997499"><ele>119.0</ele><time>2026-04-27T12:24:55.999Z</time></trkpt><trkpt lat="45.099922012785186" lon="8.453492953969215"><ele>119.0</ele><time>2026-04-27T12:24:56.999Z</time></trkpt><trkpt lat="45.099998247339144" lon="8.453394322265817"><ele>119.0</ele><time>2026-04-27T12:24:57.999Z</time></trkpt><trkpt lat="45.10007768286255" lon="8.453295440097468"><ele>118.83333333333333</ele><time>2026-04-27T12:24:58.999Z</time></trkpt><trkpt lat="45.10015412021907" lon="8.453218112721286"><ele>118.66666666666666</ele><time>2026-04-27T12:24:59.999Z</time></trkpt><trkpt lat="45.10022901291069" lon="8.453150340154835"><ele>118.5</ele><time>2026-04-27T12:25:00.999Z</time></trkpt><trkpt lat="45.10029918213622" lon="8.45310281394055"><ele>118.33333333333334</ele><time>2026-04-27T12:25:01.999Z</time></trkpt><trkpt lat="45.10036884945652" lon="8.453061557962624"><ele>118.16666666666667</ele><time>2026-04-27T12:25:02.999Z</time></trkpt><trkpt lat="45.100440632289164" lon="8.453028082506119"><ele>118.0</ele><time>2026-04-27T12:25:03.999Z</time></trkpt><trkpt lat="45.10053139852528" lon="8.452999298897538"><ele>118.0</ele><time>2026-04-27T12:25:04.999Z</time></trkpt><trkpt lat="45.10064569730467" lon="8.452980240694247"><ele>118.0</ele><time>2026-04-27T12:25:05.999Z</time></trkpt><trkpt lat="45.10077999129362" lon="8.452955991256575"><ele>118.0</ele><time>2026-04-27T12:25:06.999Z</time></trkpt><trkpt lat="45.100925007437134" lon="8.452927539912512"><ele>118.0</ele><time>2026-04-27T12:25:07.999Z</time></trkpt><trkpt lat="45.1010727024994" lon="8.45289847345407"><ele>118.25</ele><time>2026-04-27T12:25:08.999Z</time></trkpt><trkpt lat="45.10121197378682" lon="8.452873266068531"><ele>118.5</ele><time>2026-04-27T12:25:09.999Z</time></trkpt><trkpt lat="45.101347848956586" lon="8.452835964110353"><ele>118.75</ele><time>2026-04-27T12:25:10.999Z</time></trkpt><trkpt lat="45.10148138414904" lon="8.45280717657374"><ele>119.0</ele><time>2026-04-27T12:25:11.999Z</time></trkpt><trkpt lat="45.10161968553031" lon="8.452779106033605"><ele>118.33333333333333</ele><time>2026-04-27T12:25:12.999Z</time></trkpt><trkpt lat="45.101766470861406" lon="8.452744403343312"><ele>117.66666666666666</ele><time>2026-04-27T12:25:13.999Z</time></trkpt><trkpt lat="45.101920074225355" lon="8.452707774468031"><ele>117.0</ele><time>2026-04-27T12:25:14.999Z</time></trkpt><trkpt lat="45.10208555013502" lon="8.452675734781579"><ele>117.0</ele><time>2026-04-27T12:25:15.999Z</time></trkpt><trkpt lat="45.10226273190322" lon="8.452633307500811"><ele>117.0</ele><time>2026-04-27T12:25:16.999Z</time></trkpt><trkpt lat="45.102443333532534" lon="8.452598576458644"><ele>117.0</ele><time>2026-04-27T12:25:17.999Z</time></trkpt><trkpt lat="45.10263430127904" lon="8.452566582567233"><ele>117.33333333333334</ele><time>2026-04-27T12:25:18.999Z</time></trkpt><trkpt lat="45.10282327920547" lon="8.452534791684219"><ele>117.66666666666667</ele><time>2026-04-27T12:25:19.999Z</time></trkpt><trkpt lat="45.10300438032411" lon="8.452497548296812"><ele>118.0</ele><time>2026-04-27T12:25:20.999Z</time></trkpt><trkpt lat="45.10317597459947" lon="8.452463709623325"><ele>118.33333333333334</ele><time>2026-04-27T12:25:21.999Z</time></trkpt><trkpt lat="45.10334133472817" lon="8.45243068385385"><ele>118.66666666666666</ele><time>2026-04-27T12:25:22.999Z</time></trkpt><trkpt lat="45.10351219560418" lon="8.452397282688075"><ele>119.0</ele><time>2026-04-27T12:25:23.999Z</time></trkpt><trkpt lat="45.10368811773991" lon="8.45236378645228"><ele>119.0</ele><time>2026-04-27T12:25:24.999Z</time></trkpt><trkpt lat="45.103860880643104" lon="8.452330337517544"><ele>119.0</ele><time>2026-04-27T12:25:25.998Z</time></trkpt><trkpt lat="45.1040353491428" lon="8.452298257200018"><ele>119.0</ele><time>2026-04-27T12:25:26.998Z</time></trkpt><trkpt lat="45.10421724798501" lon="8.45227006064385"><ele>118.33333333333333</ele><time>2026-04-27T12:25:27.998Z</time></trkpt><trkpt lat="45.104396458790056" lon="8.452240934409405"><ele>117.66666666666666</ele><time>2026-04-27T12:25:29Z</time></trkpt><trkpt lat="45.10458128187641" lon="8.452218041921997"><ele>117.0</ele><time>2026-04-27T12:25:30Z</time></trkpt><trkpt lat="45.10477039931678" lon="8.45219415274831"><ele>117.33333333333334</ele><time>2026-04-27T12:25:31Z</time></trkpt><trkpt lat="45.10496567479512" lon="8.452168188791843"><ele>117.66666666666667</ele><time>2026-04-27T12:25:32Z</time></trkpt><trkpt lat="45.10516401203503" lon="8.452140879231475"><ele>118.0</ele><time>2026-04-27T12:25:33Z</time></trkpt><trkpt lat="45.10536455323396" lon="8.452112246281473"><ele>118.33333333333334</ele><time>2026-04-27T12:25:34Z</time></trkpt><trkpt lat="45.1055692567129" lon="8.452086168594688"><ele>118.66666666666666</ele><time>2026-04-27T12:25:35Z</time></trkpt><trkpt lat="45.105777101246154" lon="8.45205606510686"><ele>119.0</ele><time>2026-04-27T12:25:36Z</time></trkpt><trkpt lat="45.105976948816654" lon="8.452028218088065"><ele>118.33333333333333</ele><time>2026-04-27T12:25:37Z</time></trkpt><trkpt lat="45.10616424199461" lon="8.45199843122221"><ele>117.66666666666666</ele><time>2026-04-27T12:25:38Z</time></trkpt><trkpt lat="45.106353174253705" lon="8.451972789714972"><ele>117.0</ele><time>2026-04-27T12:25:39Z</time></trkpt><trkpt lat="45.106542498690054" lon="8.451957076896525"><ele>117.0</ele><time>2026-04-27T12:25:40Z</time></trkpt><trkpt lat="45.1067314916539" lon="8.451952119181433"><ele>117.0</ele><time>2026-04-27T12:25:41Z</time></trkpt><trkpt lat="45.10692186369304" lon="8.451945485333447"><ele>117.0</ele><time>2026-04-27T12:25:42Z</time></trkpt><trkpt lat="45.1071203031611" lon="8.451937470834082"><ele>117.0</ele><time>2026-04-27T12:25:43Z</time></trkpt><trkpt lat="45.107320688219026" lon="8.45192702703686"><ele>117.0</ele><time>2026-04-27T12:25:44Z</time></trkpt><trkpt lat="45.107521744237985" lon="8.45191143284294"><ele>117.0</ele><time>2026-04-27T12:25:45Z</time></trkpt><trkpt lat="45.10772151827971" lon="8.451901367464572"><ele>117.66666666666666</ele><time>2026-04-27T12:25:46Z</time></trkpt><trkpt lat="45.107923859463895" lon="8.451886584520688"><ele>118.33333333333333</ele><time>2026-04-27T12:25:47Z</time></trkpt><trkpt lat="45.10811951367957" lon="8.451873131797957"><ele>119.0</ele><time>2026-04-27T12:25:48Z</time></trkpt><trkpt lat="45.10831653084559" lon="8.451862690559063"><ele>119.0</ele><time>2026-04-27T12:25:49Z</time></trkpt><trkpt lat="45.10851408421298" lon="8.451851081790075"><ele>119.0</ele><time>2026-04-27T12:25:50Z</time></trkpt><trkpt lat="45.10871161545695" lon="8.451841488887494"><ele>119.0</ele><time>2026-04-27T12:25:51Z</time></trkpt><trkpt lat="45.10891325489562" lon="8.451832920348927"><ele>118.66666666666666</ele><time>2026-04-27T12:25:52Z</time></trkpt><trkpt lat="45.10911744130921" lon="8.451823699863068"><ele>118.33333333333334</ele><time>2026-04-27T12:25:53Z</time></trkpt><trkpt lat="45.10932819455092" lon="8.451811475656474"><ele>118.0</ele><time>2026-04-27T12:25:54Z</time></trkpt><trkpt lat="45.109543714124875" lon="8.451794100642177"><ele>118.0</ele><time>2026-04-27T12:25:55Z</time></trkpt><trkpt lat="45.10975289023911" lon="8.451786627292927"><ele>118.0</ele><time>2026-04-27T12:25:56Z</time></trkpt><trkpt lat="45.10996408185756" lon="8.451775273730192"><ele>118.0</ele><time>2026-04-27T12:25:57Z</time></trkpt><trkpt lat="45.11018500052491" lon="8.451762722265661"><ele>118.0</ele><time>2026-04-27T12:25:58Z</time></trkpt><trkpt lat="45.11040516595817" lon="8.45174984599202"><ele>118.0</ele><time>2026-04-27T12:25:59Z</time></trkpt><trkpt lat="45.11062652070589" lon="8.451739188552963"><ele>118.0</ele><time>2026-04-27T12:26:00Z</time></trkpt><trkpt lat="45.11084463799525" lon="8.451728077978636"><ele>118.0</ele><time>2026-04-27T12:26:01Z</time></trkpt><trkpt lat="45.11105762225274" lon="8.451719963388353"><ele>118.0</ele><time>2026-04-27T12:26:02Z</time></trkpt><trkpt lat="45.11126176114457" lon="8.451707725023025"><ele>118.0</ele><time>2026-04-27T12:26:03Z</time></trkpt><trkpt lat="45.11146289162504" lon="8.451696024659249"><ele>118.66666666666667</ele><time>2026-04-27T12:26:04Z</time></trkpt><trkpt lat="45.111638277914906" lon="8.451688315180865"><ele>119.33333333333334</ele><time>2026-04-27T12:26:05Z</time></trkpt><trkpt lat="45.11189136690921" lon="8.451676010310807"><ele>120.0</ele><time>2026-04-27T12:26:06Z</time></trkpt><trkpt lat="45.112096382737285" lon="8.45166074345897"><ele>120.0</ele><time>2026-04-27T12:26:07Z</time></trkpt><trkpt lat="45.11230473240948" lon="8.451644457748777"><ele>120.0</ele><time>2026-04-27T12:26:08Z</time></trkpt><trkpt lat="45.112516355221125" lon="8.451635969986427"><ele>120.0</ele><time>2026-04-27T12:26:09Z</time></trkpt><trkpt lat="45.112730419396" lon="8.451625378407565"><ele>120.0</ele><time>2026-04-27T12:26:10Z</time></trkpt><trkpt lat="45.11294305887047" lon="8.451612559917727"><ele>120.0</ele><time>2026-04-27T12:26:11Z</time></trkpt><trkpt lat="45.113159620252354" lon="8.45160041481816"><ele>120.0</ele><time>2026-04-27T12:26:12Z</time></trkpt><trkpt lat="45.11338549710209" lon="8.451584053864725"><ele>120.0</ele><time>2026-04-27T12:26:13Z</time></trkpt><trkpt lat="45.11361766667128" lon="8.451570051958344"><ele>120.0</ele><time>2026-04-27T12:26:14Z</time></trkpt><trkpt lat="45.11386225136165" lon="8.451563462061882"><ele>118.5</ele><time>2026-04-27T12:26:15Z</time></trkpt><trkpt lat="45.1140989286201" lon="8.45155791532785"><ele>117.0</ele><time>2026-04-27T12:26:15.999Z</time></trkpt><trkpt lat="45.11432038382922" lon="8.4515327686846"><ele>117.0</ele><time>2026-04-27T12:26:16.999Z</time></trkpt><trkpt lat="45.11451870176204" lon="8.45151431472701"><ele>117.0</ele><time>2026-04-27T12:26:17.999Z</time></trkpt><trkpt lat="45.114601956485544" lon="8.451494027263342"><ele>117.0</ele><time>2026-04-27T12:26:18.999Z</time></trkpt><trkpt lat="45.11479029935676" lon="8.45147832626462"><ele>117.66666666666666</ele><time>2026-04-27T12:26:19.999Z</time></trkpt><trkpt lat="45.11497197022283" lon="8.45147187019887"><ele>118.33333333333333</ele><time>2026-04-27T12:26:20.999Z</time></trkpt><trkpt lat="45.11514833454399" lon="8.451476450941444"><ele>119.0</ele><time>2026-04-27T12:26:21.999Z</time></trkpt><trkpt lat="45.115309257970914" lon="8.451489635378591"><ele>119.0</ele><time>2026-04-27T12:26:22.999Z</time></trkpt><trkpt lat="45.115436010857096" lon="8.451487073739761"><ele>119.0</ele><time>2026-04-27T12:26:23.999Z</time></trkpt><trkpt lat="45.1155402549428" lon="8.451481592182487"><ele>119.0</ele><time>2026-04-27T12:26:24.999Z</time></trkpt><trkpt lat="45.115626286549634" lon="8.451475835301029"><ele>119.0</ele><time>2026-04-27T12:26:25.999Z</time></trkpt><trkpt lat="45.11569521757695" lon="8.451468175875744"><ele>119.0</ele><time>2026-04-27T12:26:26.999Z</time></trkpt><trkpt lat="45.11576612316069" lon="8.45146711797543"><ele>118.6</ele><time>2026-04-27T12:26:28.999Z</time></trkpt><trkpt lat="45.115837022132986" lon="8.451460382885648"><ele>118.2</ele><time>2026-04-27T12:26:30.999Z</time></trkpt><trkpt lat="45.11591958874664" lon="8.45145037579614"><ele>117.79999999999998</ele><time>2026-04-27T12:26:31.999Z</time></trkpt><trkpt lat="45.11605148556373" lon="8.451453803991095"><ele>117.39999999999999</ele><time>2026-04-27T12:26:32.999Z</time></trkpt><trkpt lat="45.116200006551665" lon="8.45145317713684"><ele>117.0</ele><time>2026-04-27T12:26:33.999Z</time></trkpt><trkpt lat="45.116389956218235" lon="8.451438980403678"><ele>116.66666666666666</ele><time>2026-04-27T12:26:34.999Z</time></trkpt><trkpt lat="45.116602018136376" lon="8.451422187832232"><ele>116.33333333333333</ele><time>2026-04-27T12:26:35.999Z</time></trkpt><trkpt lat="45.11682110953322" lon="8.451408002312997"><ele>116.0</ele><time>2026-04-27T12:26:36.999Z</time></trkpt><trkpt lat="45.1170640502277" lon="8.451386797882282"><ele>116.0</ele><time>2026-04-27T12:26:37.999Z</time></trkpt><trkpt lat="45.117314667991614" lon="8.451367050581155"><ele>116.0</ele><time>2026-04-27T12:26:38.999Z</time></trkpt><trkpt lat="45.117568669361106" lon="8.451349595496618"><ele>116.5</ele><time>2026-04-27T12:26:39.999Z</time></trkpt><trkpt lat="45.11780911310215" lon="8.451354466657357"><ele>117.0</ele><time>2026-04-27T12:26:40.999Z</time></trkpt><trkpt lat="45.11806504328027" lon="8.45133216645187"><ele>118.0</ele><time>2026-04-27T12:26:41.999Z</time></trkpt><trkpt lat="45.11830294993305" lon="8.451316252665247"><ele>119.0</ele><time>2026-04-27T12:26:43.019Z</time></trkpt><trkpt lat="45.118526606768754" lon="8.45130120828363"><ele>119.5</ele><time>2026-04-27T12:26:44.016Z</time></trkpt><trkpt lat="45.11877101616949" lon="8.45128380729536"><ele>120.0</ele><time>2026-04-27T12:26:45.02Z</time></trkpt><trkpt lat="45.11901877317466" lon="8.451266534097394"><ele>119.66666666666666</ele><time>2026-04-27T12:26:45.999Z</time></trkpt><trkpt lat="45.11919213404329" lon="8.451279461264297"><ele>119.33333333333333</ele><time>2026-04-27T12:26:47.999Z</time></trkpt><trkpt lat="45.11934447210569" lon="8.451271175700997"><ele>119.0</ele><time>2026-04-27T12:26:48.999Z</time></trkpt><trkpt lat="45.1194927724921" lon="8.451249379267585"><ele>119.0</ele><time>2026-04-27T12:26:49.999Z</time></trkpt><trkpt lat="45.11963435840862" lon="8.45124050103382"><ele>119.0</ele><time>2026-04-27T12:26:50.999Z</time></trkpt><trkpt lat="45.11977503164645" lon="8.451235188378803"><ele>119.0</ele><time>2026-04-27T12:26:51.999Z</time></trkpt><trkpt lat="45.11991238977144" lon="8.451230800137914"><ele>119.0</ele><time>2026-04-27T12:26:52.999Z</time></trkpt><trkpt lat="45.12002878322715" lon="8.451223040700452"><ele>119.2</ele><time>2026-04-27T12:26:53.999Z</time></trkpt><trkpt lat="45.120117996262756" lon="8.451215339330885"><ele>119.4</ele><time>2026-04-27T12:26:54.999Z</time></trkpt><trkpt lat="45.1202396359766" lon="8.451205793962904"><ele>119.6</ele><time>2026-04-27T12:26:56.999Z</time></trkpt><trkpt lat="45.12031951486825" lon="8.451175031966935"><ele>119.8</ele><time>2026-04-27T12:26:58.999Z</time></trkpt><trkpt lat="45.120363113702915" lon="8.451010149121524"><ele>120.0</ele><time>2026-04-27T12:27:00.999Z</time></trkpt><trkpt lat="45.12026005789682" lon="8.450908986083915"><ele>120.0</ele><time>2026-04-27T12:27:01.999Z</time></trkpt><trkpt lat="45.1201504611191" lon="8.45082066723503"><ele>120.0</ele><time>2026-04-27T12:27:02.999Z</time></trkpt><trkpt lat="45.12002355878173" lon="8.450722477275738"><ele>120.0</ele><time>2026-04-27T12:27:03.999Z</time></trkpt><trkpt lat="45.119885074877885" lon="8.4505961991099"><ele>120.0</ele><time>2026-04-27T12:27:04.999Z</time></trkpt><trkpt lat="45.11973438200966" lon="8.450438015219705"><ele>119.66666666666666</ele><time>2026-04-27T12:27:05.999Z</time></trkpt><trkpt lat="45.119577492350615" lon="8.450272803196071"><ele>119.33333333333333</ele><time>2026-04-27T12:27:06.999Z</time></trkpt><trkpt lat="45.11941436721551" lon="8.450103012887622"><ele>119.0</ele><time>2026-04-27T12:27:07.999Z</time></trkpt><trkpt lat="45.11925360022405" lon="8.449933127338605"><ele>119.0</ele><time>2026-04-27T12:27:08.999Z</time></trkpt><trkpt lat="45.11911330162178" lon="8.449794544372025"><ele>119.0</ele><time>2026-04-27T12:27:09.999Z</time></trkpt><trkpt lat="45.11901104526498" lon="8.4496902347476"><ele>119.0</ele><time>2026-04-27T12:27:10.999Z</time></trkpt><trkpt lat="45.11893077566995" lon="8.449605820710557"><ele>119.0</ele><time>2026-04-27T12:27:11.999Z</time></trkpt><trkpt lat="45.11887900617743" lon="8.449532246116888"><ele>118.66666666666666</ele><time>2026-04-27T12:27:12.999Z</time></trkpt><trkpt lat="45.11886716671024" lon="8.449438252280173"><ele>118.33333333333334</ele><time>2026-04-27T12:27:13.999Z</time></trkpt><trkpt lat="45.11879742300913" lon="8.449311559174864"><ele>118.0</ele><time>2026-04-27T12:27:15.999Z</time></trkpt><trkpt lat="45.11892090677478" lon="8.44889299154006"><ele>118.66666666666667</ele><time>2026-04-27T12:27:16.999Z</time></trkpt><trkpt lat="45.118936433879206" lon="8.448653268616255"><ele>119.33333333333334</ele><time>2026-04-27T12:27:17.999Z</time></trkpt><trkpt lat="45.118952153962425" lon="8.448373230800549"><ele>120.0</ele><time>2026-04-27T12:27:18.999Z</time></trkpt><trkpt lat="45.11896643559188" lon="8.448094446026898"><ele>120.66666666666666</ele><time>2026-04-27T12:27:19.999Z</time></trkpt><trkpt lat="45.118982669303534" lon="8.447789331695752"><ele>121.33333333333333</ele><time>2026-04-27T12:27:20.999Z</time></trkpt><trkpt lat="45.11900310756046" lon="8.447477874482928"><ele>122.0</ele><time>2026-04-27T12:27:21.999Z</time></trkpt><trkpt lat="45.11902162618534" lon="8.447171425343043"><ele>122.0</ele><time>2026-04-27T12:27:22.999Z</time></trkpt><trkpt lat="45.11903896932309" lon="8.446859926748242"><ele>122.0</ele><time>2026-04-27T12:27:23.999Z</time></trkpt><trkpt lat="45.11906042729362" lon="8.446530601017658"><ele>122.33333333333333</ele><time>2026-04-27T12:27:24.999Z</time></trkpt><trkpt lat="45.11907674458803" lon="8.446212768269403"><ele>122.66666666666666</ele><time>2026-04-27T12:27:25.999Z</time></trkpt><trkpt lat="45.119092701298285" lon="8.445917886392419"><ele>123.0</ele><time>2026-04-27T12:27:26.999Z</time></trkpt><trkpt lat="45.11911094397198" lon="8.445625401032164"><ele>123.66666666666666</ele><time>2026-04-27T12:27:27.998Z</time></trkpt><trkpt lat="45.119129615274" lon="8.44532852636161"><ele>124.33333333333333</ele><time>2026-04-27T12:27:28.998Z</time></trkpt><trkpt lat="45.119147013661944" lon="8.44506249512306"><ele>125.0</ele><time>2026-04-27T12:27:29.998Z</time></trkpt><trkpt lat="45.119162514591466" lon="8.44482164676428"><ele>124.75</ele><time>2026-04-27T12:27:30.998Z</time></trkpt><trkpt lat="45.119177933384236" lon="8.444603672628693"><ele>124.5</ele><time>2026-04-27T12:27:31.998Z</time></trkpt><trkpt lat="45.119186005902726" lon="8.444426117128195"><ele>124.25</ele><time>2026-04-27T12:27:32.998Z</time></trkpt><trkpt lat="45.11919167924784" lon="8.444287822157651"><ele>124.0</ele><time>2026-04-27T12:27:33.998Z</time></trkpt><trkpt lat="45.119197985094736" lon="8.444184697677127"><ele>124.0</ele><time>2026-04-27T12:27:35Z</time></trkpt><trkpt lat="45.11921797915864" lon="8.444044254423572"><ele>124.0</ele><time>2026-04-27T12:27:40Z</time></trkpt><trkpt lat="45.119050068298705" lon="8.443957860583117"><ele>124.0</ele><time>2026-04-27T12:27:42Z</time></trkpt><trkpt lat="45.11896108283478" lon="8.443938430806263"><ele>124.0</ele><time>2026-04-27T12:27:43Z</time></trkpt><trkpt lat="45.11899516859261" lon="8.443793167257391"><ele>124.0</ele><time>2026-04-27T12:27:45Z</time></trkpt><trkpt lat="45.11900105877632" lon="8.44367988291456"><ele>124.0</ele><time>2026-04-27T12:27:46Z</time></trkpt><trkpt lat="45.118797554871" lon="8.443527950283398"><ele>124.0</ele><time>2026-04-27T12:27:48Z</time></trkpt><trkpt lat="45.11874018022901" lon="8.44349077957977"><ele>124.0</ele><time>2026-04-27T12:27:49Z</time></trkpt><trkpt lat="45.11875865462555" lon="8.443313458346378"><ele>124.0</ele><time>2026-04-27T12:27:52Z</time></trkpt><trkpt lat="45.11878108989961" lon="8.443213961352226"><ele>124.00000000000001</ele><time>2026-04-27T12:27:55Z</time></trkpt><trkpt lat="45.11878661385547" lon="8.443307201680392"><ele>124.0</ele><time>2026-04-27T12:28:37.999Z</time></trkpt><trkpt lat="45.11876397367516" lon="8.443398698407973"><ele>124.0</ele><time>2026-04-27T12:28:42.999Z</time></trkpt><trkpt lat="45.1187157226505" lon="8.443467358599253"><ele>124.00000000000001</ele><time>2026-04-27T12:28:47.999Z</time></trkpt><trkpt lat="45.11874570795304" lon="8.443580849205526"><ele>124.0</ele><time>2026-04-27T12:29:36.998Z</time></trkpt><trkpt lat="45.118808919156585" lon="8.443582956100922"><ele>124.0</ele><time>2026-04-27T12:29:37.998Z</time></trkpt><trkpt lat="45.118922102541646" lon="8.44363198687422"><ele>124.0</ele><time>2026-04-27T12:29:39.998Z</time></trkpt><trkpt lat="45.118966184626835" lon="8.443763712410586"><ele>124.0</ele><time>2026-04-27T12:29:42Z</time></trkpt><trkpt lat="45.1189641557726" lon="8.44389109065065"><ele>124.0</ele><time>2026-04-27T12:29:44Z</time></trkpt><trkpt lat="45.118864894598445" lon="8.44395776789918"><ele>124.0</ele><time>2026-04-27T12:29:51Z</time></trkpt><trkpt lat="45.1187770316397" lon="8.443942940438442"><ele>124.0</ele><time>2026-04-27T12:29:52Z</time></trkpt><trkpt lat="45.118682551024" lon="8.443915335850065"><ele>124.25</ele><time>2026-04-27T12:29:53Z</time></trkpt><trkpt lat="45.118578145004626" lon="8.443887459884579"><ele>124.5</ele><time>2026-04-27T12:29:54Z</time></trkpt><trkpt lat="45.118459752245094" lon="8.443853514803688"><ele>124.75</ele><time>2026-04-27T12:29:55Z</time></trkpt><trkpt lat="45.118327240349075" lon="8.443802243485798"><ele>125.0</ele><time>2026-04-27T12:29:56Z</time></trkpt><trkpt lat="45.11819668789249" lon="8.443698550555514"><ele>125.0</ele><time>2026-04-27T12:29:57Z</time></trkpt><trkpt lat="45.11804253289654" lon="8.443616477907105"><ele>125.0</ele><time>2026-04-27T12:29:58Z</time></trkpt><trkpt lat="45.11788874570941" lon="8.443498665082691"><ele>125.0</ele><time>2026-04-27T12:29:59Z</time></trkpt><trkpt lat="45.117726717719584" lon="8.443384979109767"><ele>125.0</ele><time>2026-04-27T12:30:00Z</time></trkpt><trkpt lat="45.11754192216546" lon="8.443293582724879"><ele>125.0</ele><time>2026-04-27T12:30:01Z</time></trkpt><trkpt lat="45.11734363552487" lon="8.443234265600973"><ele>125.0</ele><time>2026-04-27T12:30:02Z</time></trkpt><trkpt lat="45.117158567457366" lon="8.44318951737104"><ele>124.0</ele><time>2026-04-27T12:30:03Z</time></trkpt><trkpt lat="45.11697551361783" lon="8.443142664809413"><ele>123.0</ele><time>2026-04-27T12:30:04Z</time></trkpt><trkpt lat="45.11679400436424" lon="8.443095704788986"><ele>122.0</ele><time>2026-04-27T12:30:05Z</time></trkpt><trkpt lat="45.116619108124574" lon="8.443041549244766"><ele>122.66666666666666</ele><time>2026-04-27T12:30:06Z</time></trkpt><trkpt lat="45.1164462066007" lon="8.442990726074251"><ele>123.33333333333334</ele><time>2026-04-27T12:30:07Z</time></trkpt><trkpt lat="45.11628023219572" lon="8.442940171928578"><ele>124.0</ele><time>2026-04-27T12:30:08Z</time></trkpt><trkpt lat="45.116128142887085" lon="8.442893006735305"><ele>123.33333333333334</ele><time>2026-04-27T12:30:09Z</time></trkpt><trkpt lat="45.11598453457445" lon="8.442847785689855"><ele>122.66666666666666</ele><time>2026-04-27T12:30:10Z</time></trkpt><trkpt lat="45.115844768527765" lon="8.442774819206795"><ele>122.0</ele><time>2026-04-27T12:30:11Z</time></trkpt><trkpt lat="45.115706700681926" lon="8.44267836237683"><ele>122.0</ele><time>2026-04-27T12:30:12Z</time></trkpt><trkpt lat="45.115569842521225" lon="8.4425415659187"><ele>122.0</ele><time>2026-04-27T12:30:13Z</time></trkpt><trkpt lat="45.1154225219799" lon="8.44239815919406"><ele>122.0</ele><time>2026-04-27T12:30:14Z</time></trkpt><trkpt lat="45.11526609885418" lon="8.442245704452004"><ele>122.0</ele><time>2026-04-27T12:30:15Z</time></trkpt><trkpt lat="45.115100493041716" lon="8.442083530025466"><ele>122.0</ele><time>2026-04-27T12:30:16Z</time></trkpt><trkpt lat="45.1149293953033" lon="8.441914017778346"><ele>122.0</ele><time>2026-04-27T12:30:17Z</time></trkpt><trkpt lat="45.11475219975466" lon="8.441738648771135"><ele>122.0</ele><time>2026-04-27T12:30:18Z</time></trkpt><trkpt lat="45.11456099633577" lon="8.4415792211172"><ele>122.0</ele><time>2026-04-27T12:30:19Z</time></trkpt><trkpt lat="45.114374977289806" lon="8.441391089822222"><ele>123.0</ele><time>2026-04-27T12:30:20Z</time></trkpt><trkpt lat="45.11417942047" lon="8.441213683640756"><ele>124.0</ele><time>2026-04-27T12:30:21Z</time></trkpt><trkpt lat="45.11397020761869" lon="8.44105653652585"><ele>124.0</ele><time>2026-04-27T12:30:22Z</time></trkpt><trkpt lat="45.11374933970259" lon="8.440925082399819"><ele>124.0</ele><time>2026-04-27T12:30:23Z</time></trkpt><trkpt lat="45.1135210058526" lon="8.440802935435737"><ele>124.0</ele><time>2026-04-27T12:30:24Z</time></trkpt><trkpt lat="45.11328965471823" lon="8.440684880614974"><ele>124.0</ele><time>2026-04-27T12:30:25Z</time></trkpt><trkpt lat="45.11306572140345" lon="8.440542075454097"><ele>125.0</ele><time>2026-04-27T12:30:26Z</time></trkpt><trkpt lat="45.11283654490855" lon="8.440429960713317"><ele>126.0</ele><time>2026-04-27T12:30:27Z</time></trkpt><trkpt lat="45.1126047694158" lon="8.440352166369369"><ele>126.5</ele><time>2026-04-27T12:30:28Z</time></trkpt><trkpt lat="45.112369891303544" lon="8.440362009301346"><ele>127.0</ele><time>2026-04-27T12:30:28.999Z</time></trkpt><trkpt lat="45.11214109744469" lon="8.440386915269546"><ele>127.0</ele><time>2026-04-27T12:30:29.999Z</time></trkpt><trkpt lat="45.11191025967875" lon="8.44046128429333"><ele>127.0</ele><time>2026-04-27T12:30:30.999Z</time></trkpt><trkpt lat="45.11169153645233" lon="8.440559720025226"><ele>125.66666666666667</ele><time>2026-04-27T12:30:31.999Z</time></trkpt><trkpt lat="45.111490495343745" lon="8.440685447370813"><ele>124.33333333333334</ele><time>2026-04-27T12:30:32.999Z</time></trkpt><trkpt lat="45.1113096462681" lon="8.440794223654523"><ele>123.0</ele><time>2026-04-27T12:30:33.999Z</time></trkpt><trkpt lat="45.11114243175131" lon="8.440886909930825"><ele>123.0</ele><time>2026-04-27T12:30:34.999Z</time></trkpt><trkpt lat="45.11098985665445" lon="8.440962295724802"><ele>123.0</ele><time>2026-04-27T12:30:35.999Z</time></trkpt><trkpt lat="45.11085149451686" lon="8.441016525557675"><ele>123.0</ele><time>2026-04-27T12:30:36.999Z</time></trkpt><trkpt lat="45.11072405318784" lon="8.44104067578684"><ele>123.0</ele><time>2026-04-27T12:30:37.999Z</time></trkpt><trkpt lat="45.11060859458187" lon="8.44101476543276"><ele>123.0</ele><time>2026-04-27T12:30:38.999Z</time></trkpt><trkpt lat="45.11049666142953" lon="8.440939911124914"><ele>123.0</ele><time>2026-04-27T12:30:39.999Z</time></trkpt><trkpt lat="45.110399741644315" lon="8.440787492922835"><ele>123.0</ele><time>2026-04-27T12:30:40.999Z</time></trkpt><trkpt lat="45.11027524303682" lon="8.44066009388809"><ele>123.0</ele><time>2026-04-27T12:30:41.999Z</time></trkpt><trkpt lat="45.11013712632213" lon="8.440518759440934"><ele>123.0</ele><time>2026-04-27T12:30:42.999Z</time></trkpt><trkpt lat="45.10998901274468" lon="8.440367002114868"><ele>123.0</ele><time>2026-04-27T12:30:43.999Z</time></trkpt><trkpt lat="45.109836550992945" lon="8.44020987221395"><ele>123.0</ele><time>2026-04-27T12:30:44.999Z</time></trkpt><trkpt lat="45.109663650338796" lon="8.440054353436196"><ele>123.0</ele><time>2026-04-27T12:30:45.999Z</time></trkpt><trkpt lat="45.109488566449166" lon="8.439876479669243"><ele>123.0</ele><time>2026-04-27T12:30:46.999Z</time></trkpt><trkpt lat="45.10931631097842" lon="8.439671109054444"><ele>123.0</ele><time>2026-04-27T12:30:47.999Z</time></trkpt><trkpt lat="45.10913103273771" lon="8.439478867613477"><ele>124.5</ele><time>2026-04-27T12:30:48.999Z</time></trkpt><trkpt lat="45.108939868719695" lon="8.43928051920069"><ele>126.0</ele><time>2026-04-27T12:30:49.999Z</time></trkpt><trkpt lat="45.10873472310229" lon="8.439096365717349"><ele>126.0</ele><time>2026-04-27T12:30:50.999Z</time></trkpt><trkpt lat="45.108537405756316" lon="8.438890058349836"><ele>126.0</ele><time>2026-04-27T12:30:51.999Z</time></trkpt><trkpt lat="45.10834264719159" lon="8.43868630949168"><ele>127.0</ele><time>2026-04-27T12:30:52.999Z</time></trkpt><trkpt lat="45.1081503444024" lon="8.438491333316698"><ele>128.0</ele><time>2026-04-27T12:30:53.999Z</time></trkpt><trkpt lat="45.10796039258416" lon="8.438299480879149"><ele>128.0</ele><time>2026-04-27T12:30:54.999Z</time></trkpt><trkpt lat="45.10777352107751" lon="8.438107893389907"><ele>128.0</ele><time>2026-04-27T12:30:55.999Z</time></trkpt><trkpt lat="45.1075893753966" lon="8.437918032674276"><ele>127.0</ele><time>2026-04-27T12:30:56.999Z</time></trkpt><trkpt lat="45.10740722757748" lon="8.437729578314435"><ele>126.0</ele><time>2026-04-27T12:30:57.999Z</time></trkpt><trkpt lat="45.10722493820775" lon="8.437547773993332"><ele>125.0</ele><time>2026-04-27T12:30:58.999Z</time></trkpt><trkpt lat="45.10705687454779" lon="8.437342566234728"><ele>125.0</ele><time>2026-04-27T12:30:59.999Z</time></trkpt><trkpt lat="45.106867846037844" lon="8.437184005780916"><ele>125.0</ele><time>2026-04-27T12:31:00.999Z</time></trkpt><trkpt lat="45.106692821524916" lon="8.437000052400753"><ele>125.0</ele><time>2026-04-27T12:31:01.999Z</time></trkpt><trkpt lat="45.10651943904379" lon="8.436816758924982"><ele>125.66666666666666</ele><time>2026-04-27T12:31:02.999Z</time></trkpt><trkpt lat="45.106346818555934" lon="8.436636714212002"><ele>126.33333333333334</ele><time>2026-04-27T12:31:03.999Z</time></trkpt><trkpt lat="45.10617642138322" lon="8.436460459027446"><ele>127.0</ele><time>2026-04-27T12:31:04.999Z</time></trkpt><trkpt lat="45.106009790803476" lon="8.436284706778782"><ele>127.0</ele><time>2026-04-27T12:31:05.999Z</time></trkpt><trkpt lat="45.105842367764566" lon="8.436116381953328"><ele>127.0</ele><time>2026-04-27T12:31:06.999Z</time></trkpt><trkpt lat="45.10568883747972" lon="8.43592779691892"><ele>127.0</ele><time>2026-04-27T12:31:07.999Z</time></trkpt><trkpt lat="45.10552651631537" lon="8.435758842071106"><ele>127.0</ele><time>2026-04-27T12:31:08.999Z</time></trkpt><trkpt lat="45.10536633891658" lon="8.435592118640477"><ele>127.0</ele><time>2026-04-27T12:31:09.999Z</time></trkpt><trkpt lat="45.10519366424233" lon="8.435456009593958"><ele>127.0</ele><time>2026-04-27T12:31:10.999Z</time></trkpt><trkpt lat="45.10503913723592" lon="8.435294540457106"><ele>127.33333333333334</ele><time>2026-04-27T12:31:11.999Z</time></trkpt><trkpt lat="45.10488806517026" lon="8.43514061440788"><ele>127.66666666666666</ele><time>2026-04-27T12:31:12.999Z</time></trkpt><trkpt lat="45.10475334981578" lon="8.434995948804824"><ele>128.0</ele><time>2026-04-27T12:31:13.999Z</time></trkpt><trkpt lat="45.104636436509075" lon="8.434872689264152"><ele>128.0</ele><time>2026-04-27T12:31:14.999Z</time></trkpt><trkpt lat="45.10453913970695" lon="8.43477444848349"><ele>128.0</ele><time>2026-04-27T12:31:15.999Z</time></trkpt><trkpt lat="45.104462914714894" lon="8.434691759564771"><ele>128.0</ele><time>2026-04-27T12:31:16.999Z</time></trkpt><trkpt lat="45.104424466618276" lon="8.434565918194863"><ele>128.0</ele><time>2026-04-27T12:31:18.999Z</time></trkpt><trkpt lat="45.1045285032638" lon="8.434477037127193"><ele>128.0</ele><time>2026-04-27T12:31:20.999Z</time></trkpt><trkpt lat="45.1046049511607" lon="8.434417813323781"><ele>128.5</ele><time>2026-04-27T12:31:21.999Z</time></trkpt><trkpt lat="45.10468956874088" lon="8.434354326237537"><ele>129.0</ele><time>2026-04-27T12:31:22.999Z</time></trkpt><trkpt lat="45.10478190841518" lon="8.434262142441758"><ele>129.5</ele><time>2026-04-27T12:31:23.999Z</time></trkpt><trkpt lat="45.104904026724434" lon="8.434199072627631"><ele>130.0</ele><time>2026-04-27T12:31:24.999Z</time></trkpt><trkpt lat="45.10502523007837" lon="8.434112423613993"><ele>130.0</ele><time>2026-04-27T12:31:25.999Z</time></trkpt><trkpt lat="45.105156104563115" lon="8.434019011895595"><ele>130.0</ele><time>2026-04-27T12:31:26.999Z</time></trkpt><trkpt lat="45.10529563012804" lon="8.433916144524524"><ele>130.0</ele><time>2026-04-27T12:31:27.999Z</time></trkpt><trkpt lat="45.10543308589874" lon="8.43378064072373"><ele>130.66666666666669</ele><time>2026-04-27T12:31:28.999Z</time></trkpt><trkpt lat="45.10558794295402" lon="8.433654382815583"><ele>131.33333333333334</ele><time>2026-04-27T12:31:29.999Z</time></trkpt><trkpt lat="45.10573070968501" lon="8.433472921305023"><ele>132.0</ele><time>2026-04-27T12:31:30.999Z</time></trkpt><trkpt lat="45.105874380961126" lon="8.433268127094724"><ele>132.0</ele><time>2026-04-27T12:31:31.999Z</time></trkpt><trkpt lat="45.106028118676164" lon="8.433046818148771"><ele>132.0</ele><time>2026-04-27T12:31:32.999Z</time></trkpt><trkpt lat="45.106187856439895" lon="8.432820093994863"><ele>132.0</ele><time>2026-04-27T12:31:33.999Z</time></trkpt><trkpt lat="45.106349021556895" lon="8.432591713903227"><ele>132.0</ele><time>2026-04-27T12:31:34.999Z</time></trkpt><trkpt lat="45.10650565977959" lon="8.43234214046385"><ele>132.0</ele><time>2026-04-27T12:31:35.999Z</time></trkpt><trkpt lat="45.10667443769424" lon="8.432107449257824"><ele>133.5</ele><time>2026-04-27T12:31:36.999Z</time></trkpt><trkpt lat="45.106854533829" lon="8.431887849856032"><ele>135.0</ele><time>2026-04-27T12:31:37.999Z</time></trkpt><trkpt lat="45.10702793737921" lon="8.43165247872391"><ele>135.0</ele><time>2026-04-27T12:31:38.999Z</time></trkpt><trkpt lat="45.107186481393626" lon="8.431408928984629"><ele>135.0</ele><time>2026-04-27T12:31:39.999Z</time></trkpt><trkpt lat="45.107352130376036" lon="8.431189844640334"><ele>136.0</ele><time>2026-04-27T12:31:40.999Z</time></trkpt><trkpt lat="45.10750793679539" lon="8.430973396331769"><ele>137.0</ele><time>2026-04-27T12:31:41.999Z</time></trkpt><trkpt lat="45.10764894181274" lon="8.430752694849037"><ele>138.0</ele><time>2026-04-27T12:31:42.999Z</time></trkpt><trkpt lat="45.10776648935647" lon="8.430507448330397"><ele>138.33333333333334</ele><time>2026-04-27T12:31:43.999Z</time></trkpt><trkpt lat="45.107854689351434" lon="8.43023595781925"><ele>138.66666666666669</ele><time>2026-04-27T12:31:44.998Z</time></trkpt><trkpt lat="45.107921262546974" lon="8.429936287625749"><ele>139.0</ele><time>2026-04-27T12:31:45.998Z</time></trkpt><trkpt lat="45.108012560412014" lon="8.429635816658891"><ele>140.0</ele><time>2026-04-27T12:31:47Z</time></trkpt><trkpt lat="45.10810172234639" lon="8.42932034853778"><ele>141.0</ele><time>2026-04-27T12:31:48Z</time></trkpt><trkpt lat="45.108205381922794" lon="8.429014992890703"><ele>142.0</ele><time>2026-04-27T12:31:49Z</time></trkpt><trkpt lat="45.10830525419192" lon="8.428703400369207"><ele>143.0</ele><time>2026-04-27T12:31:50Z</time></trkpt><trkpt lat="45.1083655791985" lon="8.42837917442184"><ele>143.0</ele><time>2026-04-27T12:31:51Z</time></trkpt><trkpt lat="45.108421026219986" lon="8.428069886343733"><ele>143.0</ele><time>2026-04-27T12:31:52Z</time></trkpt><trkpt lat="45.108454877837964" lon="8.42776678221073"><ele>143.0</ele><time>2026-04-27T12:31:53Z</time></trkpt><trkpt lat="45.108481286835634" lon="8.42747277418299"><ele>143.33333333333331</ele><time>2026-04-27T12:31:54Z</time></trkpt><trkpt lat="45.108503763126144" lon="8.427168754368026"><ele>143.66666666666666</ele><time>2026-04-27T12:31:55Z</time></trkpt><trkpt lat="45.108549629177396" lon="8.42685099028962"><ele>144.0</ele><time>2026-04-27T12:31:56Z</time></trkpt><trkpt lat="45.10853019451604" lon="8.42650805225695"><ele>146.0</ele><time>2026-04-27T12:31:57Z</time></trkpt><trkpt lat="45.10852212454315" lon="8.426154950582124"><ele>148.0</ele><time>2026-04-27T12:31:58Z</time></trkpt><trkpt lat="45.1085177339017" lon="8.425785328324595"><ele>149.5</ele><time>2026-04-27T12:31:59Z</time></trkpt><trkpt lat="45.10851255167529" lon="8.425399865306439"><ele>151.0</ele><time>2026-04-27T12:32:00Z</time></trkpt><trkpt lat="45.10850643314064" lon="8.42500026065231"><ele>154.0</ele><time>2026-04-27T12:32:01Z</time></trkpt><trkpt lat="45.10850020136796" lon="8.42459326026686"><ele>157.0</ele><time>2026-04-27T12:32:02Z</time></trkpt><trkpt lat="45.108482961708454" lon="8.424166854231366"><ele>159.5</ele><time>2026-04-27T12:32:03Z</time></trkpt><trkpt lat="45.10851625423014" lon="8.423713001515038"><ele>162.0</ele><time>2026-04-27T12:32:04Z</time></trkpt><trkpt lat="45.10854503775329" lon="8.423235712188857"><ele>162.5</ele><time>2026-04-27T12:32:05Z</time></trkpt><trkpt lat="45.108574231786854" lon="8.422738106529218"><ele>163.0</ele><time>2026-04-27T12:32:06Z</time></trkpt><trkpt lat="45.10860038685198" lon="8.422264434680056"><ele>165.5</ele><time>2026-04-27T12:32:07Z</time></trkpt><trkpt lat="45.108629516432266" lon="8.4218019270632"><ele>168.0</ele><time>2026-04-27T12:32:08Z</time></trkpt><trkpt lat="45.10866613885374" lon="8.421350183878655"><ele>170.5</ele><time>2026-04-27T12:32:09Z</time></trkpt><trkpt lat="45.108715832950665" lon="8.420919463317711"><ele>173.0</ele><time>2026-04-27T12:32:10Z</time></trkpt><trkpt lat="45.10876515918988" lon="8.420508554000742"><ele>176.5</ele><time>2026-04-27T12:32:11Z</time></trkpt><trkpt lat="45.10881299390095" lon="8.42012697693431"><ele>180.0</ele><time>2026-04-27T12:32:12Z</time></trkpt><trkpt lat="45.10885992123102" lon="8.419777053545307"><ele>182.0</ele><time>2026-04-27T12:32:13Z</time></trkpt><trkpt lat="45.108902109289055" lon="8.419462531379493"><ele>184.0</ele><time>2026-04-27T12:32:14Z</time></trkpt><trkpt lat="45.108927008276204" lon="8.41916939242524"><ele>186.0</ele><time>2026-04-27T12:32:15Z</time></trkpt><trkpt lat="45.108993003006155" lon="8.418913386472736"><ele>184.33333333333334</ele><time>2026-04-27T12:32:16Z</time></trkpt><trkpt lat="45.10909342353859" lon="8.418700895677624"><ele>182.66666666666669</ele><time>2026-04-27T12:32:17Z</time></trkpt><trkpt lat="45.10913798461106" lon="8.418474621138126"><ele>181.0</ele><time>2026-04-27T12:32:18Z</time></trkpt><trkpt lat="45.10915418883332" lon="8.418242890897542"><ele>181.0</ele><time>2026-04-27T12:32:19Z</time></trkpt><trkpt lat="45.109141492331815" lon="8.418026886445798"><ele>181.0</ele><time>2026-04-27T12:32:20Z</time></trkpt><trkpt lat="45.10911262067142" lon="8.41783952961267"><ele>181.0</ele><time>2026-04-27T12:32:21Z</time></trkpt><trkpt lat="45.10907361302072" lon="8.41767562488001"><ele>181.0</ele><time>2026-04-27T12:32:22Z</time></trkpt><trkpt lat="45.10896939587476" lon="8.417590622030193"><ele>184.8</ele><time>2026-04-27T12:32:23Z</time></trkpt><trkpt lat="45.10886471662529" lon="8.417545121771917"><ele>188.60000000000002</ele><time>2026-04-27T12:32:24Z</time></trkpt><trkpt lat="45.10877947665089" lon="8.417477217706564"><ele>192.4</ele><time>2026-04-27T12:32:25Z</time></trkpt><trkpt lat="45.10870470309434" lon="8.417403393712105"><ele>196.2</ele><time>2026-04-27T12:32:26Z</time></trkpt><trkpt lat="45.10867392095892" lon="8.417271992428406"><ele>200.0</ele><time>2026-04-27T12:32:27Z</time></trkpt><trkpt lat="45.10870269320068" lon="8.41713207198248"><ele>202.8</ele><time>2026-04-27T12:32:28Z</time></trkpt><trkpt lat="45.10877377557024" lon="8.417024490293585"><ele>205.6</ele><time>2026-04-27T12:32:29Z</time></trkpt><trkpt lat="45.10887372152408" lon="8.416961935063812"><ele>208.39999999999998</ele><time>2026-04-27T12:32:30Z</time></trkpt><trkpt lat="45.10895886719642" lon="8.416888892845728"><ele>211.2</ele><time>2026-04-27T12:32:31Z</time></trkpt><trkpt lat="45.10900560916531" lon="8.41677487902705"><ele>214.0</ele><time>2026-04-27T12:32:32Z</time></trkpt><trkpt lat="45.10901929470746" lon="8.416663486046144"><ele>214.0</ele><time>2026-04-27T12:32:33Z</time></trkpt><trkpt lat="45.10901566892351" lon="8.416567892919135"><ele>213.99999999999997</ele><time>2026-04-27T12:32:34Z</time></trkpt><trkpt lat="45.10897255674849" lon="8.416484055628"><ele>213.99999999999997</ele><time>2026-04-27T12:32:35Z</time></trkpt><trkpt lat="45.10884694094151" lon="8.416491369615066"><ele>214.0</ele><time>2026-04-27T12:32:36Z</time></trkpt><trkpt lat="45.10874646281824" lon="8.416450687614125"><ele>214.0</ele><time>2026-04-27T12:32:36.999Z</time></trkpt><trkpt lat="45.10863254065315" lon="8.416429339338022"><ele>214.0</ele><time>2026-04-27T12:32:37.999Z</time></trkpt><trkpt lat="45.108504795248216" lon="8.416406886284255"><ele>214.0</ele><time>2026-04-27T12:32:38.999Z</time></trkpt><trkpt lat="45.10836645493951" lon="8.416383357652268"><ele>214.0</ele><time>2026-04-27T12:32:39.999Z</time></trkpt><trkpt lat="45.108221555989175" lon="8.416358713526835"><ele>214.0</ele><time>2026-04-27T12:32:40.999Z</time></trkpt><trkpt lat="45.10808123324875" lon="8.416334847755914"><ele>217.0</ele><time>2026-04-27T12:32:41.999Z</time></trkpt><trkpt lat="45.10794852538008" lon="8.4163122771017"><ele>220.0</ele><time>2026-04-27T12:32:42.999Z</time></trkpt><trkpt lat="45.10782611275226" lon="8.416291265602599"><ele>223.0</ele><time>2026-04-27T12:32:43.999Z</time></trkpt><trkpt lat="45.107717677206615" lon="8.416269946364457"><ele>226.0</ele><time>2026-04-27T12:32:44.999Z</time></trkpt><trkpt lat="45.10763160045687" lon="8.416249520100957"><ele>225.99999999999997</ele><time>2026-04-27T12:32:45.999Z</time></trkpt><trkpt lat="45.107563666391535" lon="8.41622412012106"><ele>226.0</ele><time>2026-04-27T12:32:46.999Z</time></trkpt><trkpt lat="45.10748629727614" lon="8.41616757430071"><ele>226.0</ele><time>2026-04-27T12:32:48.999Z</time></trkpt><trkpt lat="45.10751297320237" lon="8.416034242970193"><ele>226.0</ele><time>2026-04-27T12:32:50.999Z</time></trkpt><trkpt lat="45.107532961089966" lon="8.415926868654259"><ele>225.99999999999997</ele><time>2026-04-27T12:32:51.999Z</time></trkpt><trkpt lat="45.10756740120274" lon="8.415817545114255"><ele>226.0</ele><time>2026-04-27T12:32:52.999Z</time></trkpt><trkpt lat="45.107597250074456" lon="8.41568696257432"><ele>226.0</ele><time>2026-04-27T12:32:53.999Z</time></trkpt><trkpt lat="45.107626408947965" lon="8.415545517046384"><ele>226.00000000000003</ele><time>2026-04-27T12:32:54.999Z</time></trkpt><trkpt lat="45.10765080428005" lon="8.415408664703426"><ele>226.00000000000003</ele><time>2026-04-27T12:32:55.999Z</time></trkpt><trkpt lat="45.10768224692003" lon="8.415292446287582"><ele>226.0</ele><time>2026-04-27T12:32:56.999Z</time></trkpt><trkpt lat="45.107700887025736" lon="8.415167815694339"><ele>226.0</ele><time>2026-04-27T12:32:57.999Z</time></trkpt><trkpt lat="45.107721212271485" lon="8.415040053227608"><ele>226.8</ele><time>2026-04-27T12:32:58.999Z</time></trkpt><trkpt lat="45.1077413133353" lon="8.414913699946103"><ele>227.60000000000002</ele><time>2026-04-27T12:32:59.999Z</time></trkpt><trkpt lat="45.10776009204526" lon="8.414789814525891"><ele>228.4</ele><time>2026-04-27T12:33:00.999Z</time></trkpt><trkpt lat="45.107777110138024" lon="8.414664106432456"><ele>229.2</ele><time>2026-04-27T12:33:01.999Z</time></trkpt><trkpt lat="45.10777417219351" lon="8.414534069572028"><ele>230.0</ele><time>2026-04-27T12:33:02.999Z</time></trkpt><trkpt lat="45.10778393368187" lon="8.414411219118612"><ele>230.00000000000003</ele><time>2026-04-27T12:33:03.999Z</time></trkpt><trkpt lat="45.107800751956546" lon="8.414302308823903"><ele>230.0</ele><time>2026-04-27T12:33:04.999Z</time></trkpt><trkpt lat="45.1078066337285" lon="8.414211608129085"><ele>230.0</ele><time>2026-04-27T12:33:05.999Z</time></trkpt><trkpt lat="45.10781916976255" lon="8.414043364315814"><ele>230.0</ele><time>2026-04-27T12:33:07.999Z</time></trkpt><trkpt lat="45.10781014865293" lon="8.413941649896596"><ele>230.00000000000003</ele><time>2026-04-27T12:33:08.999Z</time></trkpt><trkpt lat="45.10783275147261" lon="8.413831470846766"><ele>230.0</ele><time>2026-04-27T12:33:09.999Z</time></trkpt><trkpt lat="45.1078540623334" lon="8.413714768163661"><ele>230.33333333333334</ele><time>2026-04-27T12:33:10.999Z</time></trkpt><trkpt lat="45.107872930071174" lon="8.413592853655677"><ele>230.66666666666669</ele><time>2026-04-27T12:33:11.999Z</time></trkpt><trkpt lat="45.10788808826589" lon="8.413466814767084"><ele>231.0</ele><time>2026-04-27T12:33:12.999Z</time></trkpt><trkpt lat="45.10789902434402" lon="8.413346899692447"><ele>231.33333333333331</ele><time>2026-04-27T12:33:13.999Z</time></trkpt><trkpt lat="45.10790524199928" lon="8.413228755158256"><ele>231.66666666666666</ele><time>2026-04-27T12:33:14.999Z</time></trkpt><trkpt lat="45.107906883064906" lon="8.413120645980733"><ele>232.0</ele><time>2026-04-27T12:33:15.999Z</time></trkpt><trkpt lat="45.107915537486086" lon="8.413005309012977"><ele>231.6</ele><time>2026-04-27T12:33:16.999Z</time></trkpt><trkpt lat="45.10791415195389" lon="8.412903759656574"><ele>231.2</ele><time>2026-04-27T12:33:17.999Z</time></trkpt><trkpt lat="45.107941569128144" lon="8.412789885728705"><ele>230.8</ele><time>2026-04-27T12:33:19.999Z</time></trkpt><trkpt lat="45.10799581010854" lon="8.412734503949194"><ele>230.4</ele><time>2026-04-27T12:33:40.999Z</time></trkpt><trkpt lat="45.10796345219026" lon="8.412558694799143"><ele>230.0</ele><time>2026-04-27T12:34:08Z</time></trkpt><trkpt lat="45.10795505721623" lon="8.412417322405066"><ele>230.0</ele><time>2026-04-27T12:34:13Z</time></trkpt><trkpt lat="45.10791232907765" lon="8.412645809067932"><ele>230.0</ele><time>2026-04-27T12:39:14.999Z</time></trkpt><trkpt lat="45.10791843821686" lon="8.412548350874562"><ele>230.0</ele><time>2026-04-27T12:39:34.999Z</time></trkpt><trkpt lat="45.107949398939574" lon="8.412393899163149"><ele>230.0</ele><time>2026-04-27T12:39:40.019Z</time></trkpt><trkpt lat="45.107933214407645" lon="8.412495501191287"><ele>230.0</ele><time>2026-04-27T12:40:27.02Z</time></trkpt><trkpt lat="45.10799722064752" lon="8.41244161833037"><ele>230.0</ele><time>2026-04-27T12:42:15.019Z</time></trkpt><trkpt lat="45.10796623851089" lon="8.412539349834026"><ele>230.0</ele><time>2026-04-27T12:43:50.996Z</time></trkpt><trkpt lat="45.10789920115941" lon="8.412581790429515"><ele>230.0</ele><time>2026-04-27T12:44:01.001Z</time></trkpt><trkpt lat="45.10797312262128" lon="8.412553632480254"><ele>230.0</ele><time>2026-04-27T12:44:07.001Z</time></trkpt><trkpt lat="45.10791302197183" lon="8.412488317124929"><ele>230.0</ele><time>2026-04-27T12:45:36.999Z</time></trkpt><trkpt lat="45.10768415884599" lon="8.412650414809317"><ele>230.0</ele><time>2026-04-27T12:45:37.999Z</time></trkpt><trkpt lat="45.10762900465965" lon="8.412697217196031"><ele>230.0</ele><time>2026-04-27T12:45:38.999Z</time></trkpt><trkpt lat="45.10762150923714" lon="8.412806882183375"><ele>230.0</ele><time>2026-04-27T12:45:39.999Z</time></trkpt><trkpt lat="45.107564957428096" lon="8.412906717666399"><ele>230.0</ele><time>2026-04-27T12:45:41.999Z</time></trkpt><trkpt lat="45.10751113900784" lon="8.41300673189145"><ele>230.0</ele><time>2026-04-27T12:45:43.999Z</time></trkpt><trkpt lat="45.10751724644178" lon="8.413247079540797"><ele>230.5</ele><time>2026-04-27T12:45:45.999Z</time></trkpt><trkpt lat="45.10755274086275" lon="8.4133984725074"><ele>231.0</ele><time>2026-04-27T12:45:46.999Z</time></trkpt><trkpt lat="45.10757164295314" lon="8.413577460272098"><ele>231.5</ele><time>2026-04-27T12:45:48.999Z</time></trkpt><trkpt lat="45.107420617868875" lon="8.4137120584727"><ele>232.0</ele><time>2026-04-27T12:45:49.999Z</time></trkpt><trkpt lat="45.10733823164007" lon="8.413790268795788"><ele>232.0</ele><time>2026-04-27T12:45:50.999Z</time></trkpt><trkpt lat="45.10729085789394" lon="8.413900387712264"><ele>232.0</ele><time>2026-04-27T12:45:51.998Z</time></trkpt><trkpt lat="45.107558713386396" lon="8.413749949396358"><ele>232.0</ele><time>2026-04-27T12:45:52.998Z</time></trkpt><trkpt lat="45.10760867842663" lon="8.413874444823895"><ele>231.66666666666666</ele><time>2026-04-27T12:45:53.998Z</time></trkpt><trkpt lat="45.1076558178362" lon="8.41394836948058"><ele>231.33333333333331</ele><time>2026-04-27T12:45:54.998Z</time></trkpt><trkpt lat="45.10766390637292" lon="8.414036882392722"><ele>231.0</ele><time>2026-04-27T12:45:55.998Z</time></trkpt><trkpt lat="45.10769475626121" lon="8.414122143629077"><ele>230.66666666666669</ele><time>2026-04-27T12:45:56.998Z</time></trkpt><trkpt lat="45.10779950680424" lon="8.414225949105031"><ele>230.33333333333334</ele><time>2026-04-27T12:45:58.998Z</time></trkpt><trkpt lat="45.107766036083845" lon="8.41434593791175"><ele>230.0</ele><time>2026-04-27T12:46:01Z</time></trkpt><trkpt lat="45.10776043072993" lon="8.41448858780182"><ele>230.0</ele><time>2026-04-27T12:46:03Z</time></trkpt><trkpt lat="45.10774900135807" lon="8.414620357616451"><ele>230.0</ele><time>2026-04-27T12:46:05Z</time></trkpt><trkpt lat="45.10772706553225" lon="8.414760755515239"><ele>230.0</ele><time>2026-04-27T12:46:07Z</time></trkpt><trkpt lat="45.107717881394194" lon="8.414894506308155"><ele>230.0</ele><time>2026-04-27T12:46:09Z</time></trkpt><trkpt lat="45.107693813965135" lon="8.415036441434257"><ele>230.0</ele><time>2026-04-27T12:46:11Z</time></trkpt><trkpt lat="45.107665839464445" lon="8.415184083805293"><ele>230.0</ele><time>2026-04-27T12:46:13Z</time></trkpt><trkpt lat="45.107648549507154" lon="8.41533750020252"><ele>230.0</ele><time>2026-04-27T12:46:15Z</time></trkpt><trkpt lat="45.10762991513588" lon="8.415492731910591"><ele>230.0</ele><time>2026-04-27T12:46:17Z</time></trkpt><trkpt lat="45.107593809345545" lon="8.415660926603827"><ele>230.0</ele><time>2026-04-27T12:46:19Z</time></trkpt><trkpt lat="45.10755090281036" lon="8.415817099970198"><ele>229.2</ele><time>2026-04-27T12:46:21Z</time></trkpt><trkpt lat="45.107507183192816" lon="8.415948407317169"><ele>228.4</ele><time>2026-04-27T12:46:23Z</time></trkpt><trkpt lat="45.1074683311168" lon="8.416051414150921"><ele>227.60000000000002</ele><time>2026-04-27T12:46:25Z</time></trkpt><trkpt lat="45.10741304781893" lon="8.416116929603167"><ele>226.8</ele><time>2026-04-27T12:46:32Z</time></trkpt><trkpt lat="45.10742407322294" lon="8.416223412753864"><ele>226.0</ele><time>2026-04-27T12:46:35Z</time></trkpt><trkpt lat="45.10755470174871" lon="8.41628134179478"><ele>226.0</ele><time>2026-04-27T12:46:37Z</time></trkpt><trkpt lat="45.10762948717765" lon="8.416306895785228"><ele>226.00000000000003</ele><time>2026-04-27T12:46:38Z</time></trkpt><trkpt lat="45.10771649407018" lon="8.41632750900404"><ele>226.00000000000003</ele><time>2026-04-27T12:46:39Z</time></trkpt><trkpt lat="45.10780535252641" lon="8.416350655316597"><ele>226.0</ele><time>2026-04-27T12:46:40Z</time></trkpt><trkpt lat="45.107898359211646" lon="8.416372206319261"><ele>226.0</ele><time>2026-04-27T12:46:41Z</time></trkpt><trkpt lat="45.107998826962216" lon="8.416388358551455"><ele>225.20000000000002</ele><time>2026-04-27T12:46:42Z</time></trkpt><trkpt lat="45.10811257618198" lon="8.416403678266539"><ele>224.40000000000003</ele><time>2026-04-27T12:46:43Z</time></trkpt><trkpt lat="45.108223838377526" lon="8.416419382402754"><ele>223.6</ele><time>2026-04-27T12:46:44Z</time></trkpt><trkpt lat="45.108334202278094" lon="8.416435591060116"><ele>222.8</ele><time>2026-04-27T12:46:45Z</time></trkpt><trkpt lat="45.10844043397713" lon="8.416454149104755"><ele>222.0</ele><time>2026-04-27T12:46:45.999Z</time></trkpt><trkpt lat="45.10854315857751" lon="8.416472315821443"><ele>220.39999999999998</ele><time>2026-04-27T12:46:46.999Z</time></trkpt><trkpt lat="45.10863938341082" lon="8.416487158963115"><ele>218.79999999999998</ele><time>2026-04-27T12:46:47.999Z</time></trkpt><trkpt lat="45.10873044212892" lon="8.416502443773318"><ele>217.2</ele><time>2026-04-27T12:46:48.999Z</time></trkpt><trkpt lat="45.108812287168725" lon="8.416517906614807"><ele>215.6</ele><time>2026-04-27T12:46:49.999Z</time></trkpt><trkpt lat="45.10888251490952" lon="8.416529241688577"><ele>214.0</ele><time>2026-04-27T12:46:50.999Z</time></trkpt><trkpt lat="45.10898411672375" lon="8.416586392834585"><ele>213.99999999999997</ele><time>2026-04-27T12:46:52.999Z</time></trkpt><trkpt lat="45.10898324918901" lon="8.416750491441709"><ele>214.0</ele><time>2026-04-27T12:46:54.999Z</time></trkpt><trkpt lat="45.108952689222654" lon="8.416833381876712"><ele>214.0</ele><time>2026-04-27T12:46:55.999Z</time></trkpt><trkpt lat="45.10890017144241" lon="8.416892943507888"><ele>214.0</ele><time>2026-04-27T12:46:56.999Z</time></trkpt><trkpt lat="45.108840768780965" lon="8.416945165282776"><ele>213.99999999999997</ele><time>2026-04-27T12:46:57.999Z</time></trkpt><trkpt lat="45.10877378582002" lon="8.416989991152839"><ele>214.0</ele><time>2026-04-27T12:46:58.999Z</time></trkpt><trkpt lat="45.10872229751127" lon="8.417068837266745"><ele>213.99999999999997</ele><time>2026-04-27T12:46:59.999Z</time></trkpt><trkpt lat="45.108665338392015" lon="8.417138054838546"><ele>214.0</ele><time>2026-04-27T12:47:00.999Z</time></trkpt><trkpt lat="45.108660441010635" lon="8.417264640110815"><ele>214.0</ele><time>2026-04-27T12:47:01.999Z</time></trkpt><trkpt lat="45.108670459744076" lon="8.417367835177153"><ele>214.0</ele><time>2026-04-27T12:47:02.999Z</time></trkpt><trkpt lat="45.108703089025475" lon="8.417464119426043"><ele>213.99999999999997</ele><time>2026-04-27T12:47:03.999Z</time></trkpt><trkpt lat="45.1087711482254" lon="8.417538201675502"><ele>214.0</ele><time>2026-04-27T12:47:04.999Z</time></trkpt><trkpt lat="45.10885285538203" lon="8.417581469867644"><ele>211.2</ele><time>2026-04-27T12:47:05.999Z</time></trkpt><trkpt lat="45.10893593466266" lon="8.417616277755101"><ele>208.39999999999998</ele><time>2026-04-27T12:47:06.999Z</time></trkpt><trkpt lat="45.10901760432547" lon="8.417679375778796"><ele>205.6</ele><time>2026-04-27T12:47:07.999Z</time></trkpt><trkpt lat="45.109079637733075" lon="8.417782487774884"><ele>202.8</ele><time>2026-04-27T12:47:08.999Z</time></trkpt><trkpt lat="45.1091160596995" lon="8.41791627895734"><ele>200.0</ele><time>2026-04-27T12:47:09.999Z</time></trkpt><trkpt lat="45.10913050225137" lon="8.418058504222786"><ele>181.0</ele><time>2026-04-27T12:47:10.999Z</time></trkpt><trkpt lat="45.10913348062055" lon="8.418204061001312"><ele>181.0</ele><time>2026-04-27T12:47:11.999Z</time></trkpt><trkpt lat="45.109132164175925" lon="8.418352634289326"><ele>181.0</ele><time>2026-04-27T12:47:12.999Z</time></trkpt></trkseg></trk></gpx>